<?xml version="1.0" encoding="UTF-8" standalone="no" ?>
<gpx xmlns="http://www.topografix.com/GPX/1/1" xmlns:xsi="http://www.w3.org/2001/XMLSchema-instance" xsi:schemaLocation="http://www.topografix.com/GPX/1/1 http://www.topografix.com/GPX/1/1/gpx.xsd" version="1.1" creator="VisuGPX - https://www.visugpx.com">
  <metadata>
    <name>11 10 2019 Mas de Vinaigre par Bramariques</name>
  </metadata>
  <trk>
    <name><![CDATA[11 10 2019 Mas de Vinaigre par Bramariques_1]]></name>
    <trkseg>
      <trkpt lat="44.22355" lon="2.96175">
        <ele>863</ele>
        <time>2019-10-11T12:48:37.000Z</time>
      </trkpt>
      <trkpt lat="44.22357" lon="2.96174">
        <ele>863</ele>
        <time>2019-10-11T12:48:38.000Z</time>
      </trkpt>
      <trkpt lat="44.22357" lon="2.96174">
        <ele>858</ele>
        <time>2019-10-11T12:48:45.000Z</time>
      </trkpt>
      <trkpt lat="44.22357" lon="2.96174">
        <ele>857</ele>
        <time>2019-10-11T12:48:46.000Z</time>
      </trkpt>
      <trkpt lat="44.2237" lon="2.96171">
        <ele>856</ele>
        <time>2019-10-11T12:48:47.000Z</time>
      </trkpt>
      <trkpt lat="44.22371" lon="2.96171">
        <ele>855</ele>
        <time>2019-10-11T12:48:48.000Z</time>
      </trkpt>
      <trkpt lat="44.22372" lon="2.96171">
        <ele>854</ele>
        <time>2019-10-11T12:48:49.000Z</time>
      </trkpt>
      <trkpt lat="44.22373" lon="2.96171">
        <ele>853</ele>
        <time>2019-10-11T12:48:50.000Z</time>
      </trkpt>
      <trkpt lat="44.22373" lon="2.96171">
        <ele>852</ele>
        <time>2019-10-11T12:48:51.000Z</time>
      </trkpt>
      <trkpt lat="44.22374" lon="2.96171">
        <ele>851</ele>
        <time>2019-10-11T12:48:52.000Z</time>
      </trkpt>
      <trkpt lat="44.22375" lon="2.96171">
        <ele>850</ele>
        <time>2019-10-11T12:48:53.000Z</time>
      </trkpt>
      <trkpt lat="44.22375" lon="2.96171">
        <ele>849</ele>
        <time>2019-10-11T12:48:54.000Z</time>
      </trkpt>
      <trkpt lat="44.22376" lon="2.96171">
        <ele>848</ele>
        <time>2019-10-11T12:48:55.000Z</time>
      </trkpt>
      <trkpt lat="44.22377" lon="2.96171">
        <ele>848</ele>
        <time>2019-10-11T12:48:56.000Z</time>
      </trkpt>
      <trkpt lat="44.22377" lon="2.96171">
        <ele>847</ele>
        <time>2019-10-11T12:48:57.000Z</time>
      </trkpt>
      <trkpt lat="44.22378" lon="2.96171">
        <ele>847</ele>
        <time>2019-10-11T12:48:58.000Z</time>
      </trkpt>
      <trkpt lat="44.22379" lon="2.96171">
        <ele>846</ele>
        <time>2019-10-11T12:48:59.000Z</time>
      </trkpt>
      <trkpt lat="44.22379" lon="2.96171">
        <ele>846</ele>
        <time>2019-10-11T12:49:00.000Z</time>
      </trkpt>
      <trkpt lat="44.2238" lon="2.96171">
        <ele>845</ele>
        <time>2019-10-11T12:49:01.000Z</time>
      </trkpt>
      <trkpt lat="44.2238" lon="2.96171">
        <ele>845</ele>
        <time>2019-10-11T12:49:02.000Z</time>
      </trkpt>
      <trkpt lat="44.2238" lon="2.9617">
        <ele>844</ele>
        <time>2019-10-11T12:49:03.000Z</time>
      </trkpt>
      <trkpt lat="44.22381" lon="2.9617">
        <ele>843</ele>
        <time>2019-10-11T12:49:04.000Z</time>
      </trkpt>
      <trkpt lat="44.22381" lon="2.9617">
        <ele>843</ele>
        <time>2019-10-11T12:49:05.000Z</time>
      </trkpt>
      <trkpt lat="44.22381" lon="2.9617">
        <ele>842</ele>
        <time>2019-10-11T12:49:06.000Z</time>
      </trkpt>
      <trkpt lat="44.22382" lon="2.9617">
        <ele>841</ele>
        <time>2019-10-11T12:49:07.000Z</time>
      </trkpt>
      <trkpt lat="44.22382" lon="2.96169">
        <ele>841</ele>
        <time>2019-10-11T12:49:08.000Z</time>
      </trkpt>
      <trkpt lat="44.22382" lon="2.96169">
        <ele>840</ele>
        <time>2019-10-11T12:49:09.000Z</time>
      </trkpt>
      <trkpt lat="44.22382" lon="2.96169">
        <ele>840</ele>
        <time>2019-10-11T12:49:10.000Z</time>
      </trkpt>
      <trkpt lat="44.22383" lon="2.96169">
        <ele>839</ele>
        <time>2019-10-11T12:49:11.000Z</time>
      </trkpt>
      <trkpt lat="44.22383" lon="2.96169">
        <ele>839</ele>
        <time>2019-10-11T12:49:12.000Z</time>
      </trkpt>
      <trkpt lat="44.22383" lon="2.96169">
        <ele>838</ele>
        <time>2019-10-11T12:49:13.000Z</time>
      </trkpt>
      <trkpt lat="44.22383" lon="2.96169">
        <ele>838</ele>
        <time>2019-10-11T12:49:14.000Z</time>
      </trkpt>
      <trkpt lat="44.22383" lon="2.96169">
        <ele>838</ele>
        <time>2019-10-11T12:49:15.000Z</time>
      </trkpt>
      <trkpt lat="44.22384" lon="2.96169">
        <ele>837</ele>
        <time>2019-10-11T12:49:16.000Z</time>
      </trkpt>
      <trkpt lat="44.22384" lon="2.96169">
        <ele>837</ele>
        <time>2019-10-11T12:49:17.000Z</time>
      </trkpt>
      <trkpt lat="44.22384" lon="2.96169">
        <ele>837</ele>
        <time>2019-10-11T12:49:18.000Z</time>
      </trkpt>
      <trkpt lat="44.22384" lon="2.96169">
        <ele>836</ele>
        <time>2019-10-11T12:49:19.000Z</time>
      </trkpt>
      <trkpt lat="44.22384" lon="2.96169">
        <ele>836</ele>
        <time>2019-10-11T12:49:20.000Z</time>
      </trkpt>
      <trkpt lat="44.22384" lon="2.96169">
        <ele>836</ele>
        <time>2019-10-11T12:49:21.000Z</time>
      </trkpt>
      <trkpt lat="44.22384" lon="2.96168">
        <ele>835</ele>
        <time>2019-10-11T12:49:22.000Z</time>
      </trkpt>
      <trkpt lat="44.22384" lon="2.96168">
        <ele>835</ele>
        <time>2019-10-11T12:49:23.000Z</time>
      </trkpt>
      <trkpt lat="44.22384" lon="2.96168">
        <ele>835</ele>
        <time>2019-10-11T12:49:24.000Z</time>
      </trkpt>
      <trkpt lat="44.22384" lon="2.96168">
        <ele>834</ele>
        <time>2019-10-11T12:49:25.000Z</time>
      </trkpt>
      <trkpt lat="44.22384" lon="2.96168">
        <ele>834</ele>
        <time>2019-10-11T12:49:26.000Z</time>
      </trkpt>
      <trkpt lat="44.22384" lon="2.96168">
        <ele>834</ele>
        <time>2019-10-11T12:49:27.000Z</time>
      </trkpt>
      <trkpt lat="44.22384" lon="2.96168">
        <ele>834</ele>
        <time>2019-10-11T12:49:28.000Z</time>
      </trkpt>
      <trkpt lat="44.22384" lon="2.96168">
        <ele>834</ele>
        <time>2019-10-11T12:49:29.000Z</time>
      </trkpt>
      <trkpt lat="44.22384" lon="2.96168">
        <ele>833</ele>
        <time>2019-10-11T12:49:30.000Z</time>
      </trkpt>
      <trkpt lat="44.22383" lon="2.96168">
        <ele>833</ele>
        <time>2019-10-11T12:49:31.000Z</time>
      </trkpt>
      <trkpt lat="44.22383" lon="2.96167">
        <ele>834</ele>
        <time>2019-10-11T12:49:32.000Z</time>
      </trkpt>
      <trkpt lat="44.22382" lon="2.96166">
        <ele>834</ele>
        <time>2019-10-11T12:49:33.000Z</time>
      </trkpt>
      <trkpt lat="44.22382" lon="2.96166">
        <ele>834</ele>
        <time>2019-10-11T12:49:34.000Z</time>
      </trkpt>
      <trkpt lat="44.2238" lon="2.96163">
        <ele>835</ele>
        <time>2019-10-11T12:49:35.000Z</time>
      </trkpt>
      <trkpt lat="44.2238" lon="2.96162">
        <ele>836</ele>
        <time>2019-10-11T12:49:36.000Z</time>
      </trkpt>
      <trkpt lat="44.2238" lon="2.9616">
        <ele>836</ele>
        <time>2019-10-11T12:49:37.000Z</time>
      </trkpt>
      <trkpt lat="44.2238" lon="2.96159">
        <ele>836</ele>
        <time>2019-10-11T12:49:38.000Z</time>
      </trkpt>
      <trkpt lat="44.22381" lon="2.96158">
        <ele>836</ele>
        <time>2019-10-11T12:49:39.000Z</time>
      </trkpt>
      <trkpt lat="44.22381" lon="2.96156">
        <ele>837</ele>
        <time>2019-10-11T12:49:40.000Z</time>
      </trkpt>
      <trkpt lat="44.22381" lon="2.96155">
        <ele>837</ele>
        <time>2019-10-11T12:49:41.000Z</time>
      </trkpt>
      <trkpt lat="44.22382" lon="2.96153">
        <ele>837</ele>
        <time>2019-10-11T12:49:42.000Z</time>
      </trkpt>
      <trkpt lat="44.22382" lon="2.96152">
        <ele>837</ele>
        <time>2019-10-11T12:49:43.000Z</time>
      </trkpt>
      <trkpt lat="44.22382" lon="2.9615">
        <ele>838</ele>
        <time>2019-10-11T12:49:44.000Z</time>
      </trkpt>
      <trkpt lat="44.22383" lon="2.96149">
        <ele>838</ele>
        <time>2019-10-11T12:49:45.000Z</time>
      </trkpt>
      <trkpt lat="44.22383" lon="2.96148">
        <ele>838</ele>
        <time>2019-10-11T12:49:46.000Z</time>
      </trkpt>
      <trkpt lat="44.22384" lon="2.96147">
        <ele>838</ele>
        <time>2019-10-11T12:49:47.000Z</time>
      </trkpt>
      <trkpt lat="44.22385" lon="2.96146">
        <ele>838</ele>
        <time>2019-10-11T12:49:48.000Z</time>
      </trkpt>
      <trkpt lat="44.22386" lon="2.96145">
        <ele>838</ele>
        <time>2019-10-11T12:49:49.000Z</time>
      </trkpt>
      <trkpt lat="44.22387" lon="2.96144">
        <ele>838</ele>
        <time>2019-10-11T12:49:50.000Z</time>
      </trkpt>
      <trkpt lat="44.22388" lon="2.96143">
        <ele>839</ele>
        <time>2019-10-11T12:49:51.000Z</time>
      </trkpt>
      <trkpt lat="44.22389" lon="2.96143">
        <ele>839</ele>
        <time>2019-10-11T12:49:52.000Z</time>
      </trkpt>
      <trkpt lat="44.2239" lon="2.96142">
        <ele>839</ele>
        <time>2019-10-11T12:49:53.000Z</time>
      </trkpt>
      <trkpt lat="44.22391" lon="2.96142">
        <ele>839</ele>
        <time>2019-10-11T12:49:54.000Z</time>
      </trkpt>
      <trkpt lat="44.22392" lon="2.96141">
        <ele>839</ele>
        <time>2019-10-11T12:49:55.000Z</time>
      </trkpt>
      <trkpt lat="44.22393" lon="2.9614">
        <ele>839</ele>
        <time>2019-10-11T12:49:56.000Z</time>
      </trkpt>
      <trkpt lat="44.22395" lon="2.9614">
        <ele>840</ele>
        <time>2019-10-11T12:49:57.000Z</time>
      </trkpt>
      <trkpt lat="44.22396" lon="2.9614">
        <ele>840</ele>
        <time>2019-10-11T12:49:58.000Z</time>
      </trkpt>
      <trkpt lat="44.22397" lon="2.96141">
        <ele>840</ele>
        <time>2019-10-11T12:49:59.000Z</time>
      </trkpt>
      <trkpt lat="44.22397" lon="2.96142">
        <ele>840</ele>
        <time>2019-10-11T12:50:00.000Z</time>
      </trkpt>
      <trkpt lat="44.22398" lon="2.96143">
        <ele>840</ele>
        <time>2019-10-11T12:50:01.000Z</time>
      </trkpt>
      <trkpt lat="44.22399" lon="2.96145">
        <ele>840</ele>
        <time>2019-10-11T12:50:02.000Z</time>
      </trkpt>
      <trkpt lat="44.22399" lon="2.96146">
        <ele>840</ele>
        <time>2019-10-11T12:50:03.000Z</time>
      </trkpt>
      <trkpt lat="44.224" lon="2.96148">
        <ele>840</ele>
        <time>2019-10-11T12:50:04.000Z</time>
      </trkpt>
      <trkpt lat="44.224" lon="2.9615">
        <ele>840</ele>
        <time>2019-10-11T12:50:05.000Z</time>
      </trkpt>
      <trkpt lat="44.224" lon="2.96151">
        <ele>840</ele>
        <time>2019-10-11T12:50:06.000Z</time>
      </trkpt>
      <trkpt lat="44.22401" lon="2.96153">
        <ele>840</ele>
        <time>2019-10-11T12:50:07.000Z</time>
      </trkpt>
      <trkpt lat="44.22401" lon="2.96154">
        <ele>840</ele>
        <time>2019-10-11T12:50:08.000Z</time>
      </trkpt>
      <trkpt lat="44.22402" lon="2.96156">
        <ele>840</ele>
        <time>2019-10-11T12:50:09.000Z</time>
      </trkpt>
      <trkpt lat="44.22402" lon="2.96157">
        <ele>840</ele>
        <time>2019-10-11T12:50:10.000Z</time>
      </trkpt>
      <trkpt lat="44.22403" lon="2.96159">
        <ele>839</ele>
        <time>2019-10-11T12:50:11.000Z</time>
      </trkpt>
      <trkpt lat="44.22403" lon="2.96161">
        <ele>839</ele>
        <time>2019-10-11T12:50:12.000Z</time>
      </trkpt>
      <trkpt lat="44.22404" lon="2.96162">
        <ele>839</ele>
        <time>2019-10-11T12:50:13.000Z</time>
      </trkpt>
      <trkpt lat="44.22404" lon="2.96164">
        <ele>839</ele>
        <time>2019-10-11T12:50:14.000Z</time>
      </trkpt>
      <trkpt lat="44.22404" lon="2.96165">
        <ele>839</ele>
        <time>2019-10-11T12:50:15.000Z</time>
      </trkpt>
      <trkpt lat="44.22405" lon="2.96167">
        <ele>839</ele>
        <time>2019-10-11T12:50:16.000Z</time>
      </trkpt>
      <trkpt lat="44.22405" lon="2.96168">
        <ele>840</ele>
        <time>2019-10-11T12:50:17.000Z</time>
      </trkpt>
      <trkpt lat="44.22406" lon="2.9617">
        <ele>840</ele>
        <time>2019-10-11T12:50:18.000Z</time>
      </trkpt>
      <trkpt lat="44.22406" lon="2.9617">
        <ele>840</ele>
        <time>2019-10-11T12:50:19.000Z</time>
      </trkpt>
      <trkpt lat="44.22407" lon="2.96173">
        <ele>840</ele>
        <time>2019-10-11T12:50:20.000Z</time>
      </trkpt>
      <trkpt lat="44.22408" lon="2.96174">
        <ele>840</ele>
        <time>2019-10-11T12:50:21.000Z</time>
      </trkpt>
      <trkpt lat="44.22409" lon="2.96175">
        <ele>840</ele>
        <time>2019-10-11T12:50:22.000Z</time>
      </trkpt>
      <trkpt lat="44.22409" lon="2.96177">
        <ele>840</ele>
        <time>2019-10-11T12:50:23.000Z</time>
      </trkpt>
      <trkpt lat="44.22409" lon="2.96177">
        <ele>840</ele>
        <time>2019-10-11T12:50:24.000Z</time>
      </trkpt>
      <trkpt lat="44.22411" lon="2.96179">
        <ele>841</ele>
        <time>2019-10-11T12:50:25.000Z</time>
      </trkpt>
      <trkpt lat="44.22412" lon="2.9618">
        <ele>841</ele>
        <time>2019-10-11T12:50:26.000Z</time>
      </trkpt>
      <trkpt lat="44.22413" lon="2.96181">
        <ele>841</ele>
        <time>2019-10-11T12:50:27.000Z</time>
      </trkpt>
      <trkpt lat="44.22413" lon="2.96183">
        <ele>841</ele>
        <time>2019-10-11T12:50:28.000Z</time>
      </trkpt>
      <trkpt lat="44.22414" lon="2.96184">
        <ele>841</ele>
        <time>2019-10-11T12:50:29.000Z</time>
      </trkpt>
      <trkpt lat="44.22414" lon="2.96184">
        <ele>841</ele>
        <time>2019-10-11T12:50:30.000Z</time>
      </trkpt>
      <trkpt lat="44.22417" lon="2.96187">
        <ele>841</ele>
        <time>2019-10-11T12:50:31.000Z</time>
      </trkpt>
      <trkpt lat="44.22417" lon="2.96188">
        <ele>841</ele>
        <time>2019-10-11T12:50:32.000Z</time>
      </trkpt>
      <trkpt lat="44.22418" lon="2.96189">
        <ele>841</ele>
        <time>2019-10-11T12:50:33.000Z</time>
      </trkpt>
      <trkpt lat="44.22419" lon="2.96191">
        <ele>841</ele>
        <time>2019-10-11T12:50:34.000Z</time>
      </trkpt>
      <trkpt lat="44.2242" lon="2.96192">
        <ele>841</ele>
        <time>2019-10-11T12:50:35.000Z</time>
      </trkpt>
      <trkpt lat="44.22421" lon="2.96193">
        <ele>841</ele>
        <time>2019-10-11T12:50:36.000Z</time>
      </trkpt>
      <trkpt lat="44.22422" lon="2.96195">
        <ele>841</ele>
        <time>2019-10-11T12:50:37.000Z</time>
      </trkpt>
      <trkpt lat="44.22423" lon="2.96196">
        <ele>841</ele>
        <time>2019-10-11T12:50:38.000Z</time>
      </trkpt>
      <trkpt lat="44.22424" lon="2.96197">
        <ele>841</ele>
        <time>2019-10-11T12:50:39.000Z</time>
      </trkpt>
      <trkpt lat="44.22425" lon="2.96199">
        <ele>841</ele>
        <time>2019-10-11T12:50:40.000Z</time>
      </trkpt>
      <trkpt lat="44.22425" lon="2.962">
        <ele>841</ele>
        <time>2019-10-11T12:50:41.000Z</time>
      </trkpt>
      <trkpt lat="44.22426" lon="2.96202">
        <ele>841</ele>
        <time>2019-10-11T12:50:42.000Z</time>
      </trkpt>
      <trkpt lat="44.22427" lon="2.96203">
        <ele>841</ele>
        <time>2019-10-11T12:50:43.000Z</time>
      </trkpt>
      <trkpt lat="44.22428" lon="2.96204">
        <ele>841</ele>
        <time>2019-10-11T12:50:44.000Z</time>
      </trkpt>
      <trkpt lat="44.22429" lon="2.96206">
        <ele>841</ele>
        <time>2019-10-11T12:50:45.000Z</time>
      </trkpt>
      <trkpt lat="44.2243" lon="2.96207">
        <ele>841</ele>
        <time>2019-10-11T12:50:46.000Z</time>
      </trkpt>
      <trkpt lat="44.22432" lon="2.96208">
        <ele>841</ele>
        <time>2019-10-11T12:50:47.000Z</time>
      </trkpt>
      <trkpt lat="44.22433" lon="2.96209">
        <ele>841</ele>
        <time>2019-10-11T12:50:48.000Z</time>
      </trkpt>
      <trkpt lat="44.22434" lon="2.96211">
        <ele>841</ele>
        <time>2019-10-11T12:50:49.000Z</time>
      </trkpt>
      <trkpt lat="44.22435" lon="2.96212">
        <ele>841</ele>
        <time>2019-10-11T12:50:50.000Z</time>
      </trkpt>
      <trkpt lat="44.22436" lon="2.96213">
        <ele>841</ele>
        <time>2019-10-11T12:50:51.000Z</time>
      </trkpt>
      <trkpt lat="44.22437" lon="2.96214">
        <ele>841</ele>
        <time>2019-10-11T12:50:52.000Z</time>
      </trkpt>
      <trkpt lat="44.22438" lon="2.96215">
        <ele>841</ele>
        <time>2019-10-11T12:50:53.000Z</time>
      </trkpt>
      <trkpt lat="44.22439" lon="2.96217">
        <ele>841</ele>
        <time>2019-10-11T12:50:54.000Z</time>
      </trkpt>
      <trkpt lat="44.2244" lon="2.96218">
        <ele>841</ele>
        <time>2019-10-11T12:50:55.000Z</time>
      </trkpt>
      <trkpt lat="44.2244" lon="2.96219">
        <ele>841</ele>
        <time>2019-10-11T12:50:56.000Z</time>
      </trkpt>
      <trkpt lat="44.22441" lon="2.9622">
        <ele>842</ele>
        <time>2019-10-11T12:50:57.000Z</time>
      </trkpt>
      <trkpt lat="44.22442" lon="2.96221">
        <ele>842</ele>
        <time>2019-10-11T12:50:58.000Z</time>
      </trkpt>
      <trkpt lat="44.22443" lon="2.96222">
        <ele>842</ele>
        <time>2019-10-11T12:50:59.000Z</time>
      </trkpt>
      <trkpt lat="44.22444" lon="2.96223">
        <ele>842</ele>
        <time>2019-10-11T12:51:00.000Z</time>
      </trkpt>
      <trkpt lat="44.22445" lon="2.96224">
        <ele>842</ele>
        <time>2019-10-11T12:51:01.000Z</time>
      </trkpt>
      <trkpt lat="44.22446" lon="2.96225">
        <ele>842</ele>
        <time>2019-10-11T12:51:02.000Z</time>
      </trkpt>
      <trkpt lat="44.22447" lon="2.96226">
        <ele>842</ele>
        <time>2019-10-11T12:51:03.000Z</time>
      </trkpt>
      <trkpt lat="44.22448" lon="2.96228">
        <ele>842</ele>
        <time>2019-10-11T12:51:04.000Z</time>
      </trkpt>
      <trkpt lat="44.22449" lon="2.96229">
        <ele>842</ele>
        <time>2019-10-11T12:51:05.000Z</time>
      </trkpt>
      <trkpt lat="44.2245" lon="2.9623">
        <ele>842</ele>
        <time>2019-10-11T12:51:06.000Z</time>
      </trkpt>
      <trkpt lat="44.22451" lon="2.96231">
        <ele>842</ele>
        <time>2019-10-11T12:51:07.000Z</time>
      </trkpt>
      <trkpt lat="44.22452" lon="2.96233">
        <ele>842</ele>
        <time>2019-10-11T12:51:08.000Z</time>
      </trkpt>
      <trkpt lat="44.22452" lon="2.96233">
        <ele>842</ele>
        <time>2019-10-11T12:51:09.000Z</time>
      </trkpt>
      <trkpt lat="44.22454" lon="2.96235">
        <ele>842</ele>
        <time>2019-10-11T12:51:10.000Z</time>
      </trkpt>
      <trkpt lat="44.22455" lon="2.96236">
        <ele>841</ele>
        <time>2019-10-11T12:51:11.000Z</time>
      </trkpt>
      <trkpt lat="44.22456" lon="2.96237">
        <ele>841</ele>
        <time>2019-10-11T12:51:12.000Z</time>
      </trkpt>
      <trkpt lat="44.22457" lon="2.96238">
        <ele>841</ele>
        <time>2019-10-11T12:51:13.000Z</time>
      </trkpt>
      <trkpt lat="44.22458" lon="2.96239">
        <ele>841</ele>
        <time>2019-10-11T12:51:14.000Z</time>
      </trkpt>
      <trkpt lat="44.22458" lon="2.96239">
        <ele>841</ele>
        <time>2019-10-11T12:51:15.000Z</time>
      </trkpt>
      <trkpt lat="44.2246" lon="2.96242">
        <ele>841</ele>
        <time>2019-10-11T12:51:16.000Z</time>
      </trkpt>
      <trkpt lat="44.22461" lon="2.96243">
        <ele>841</ele>
        <time>2019-10-11T12:51:17.000Z</time>
      </trkpt>
      <trkpt lat="44.22462" lon="2.96244">
        <ele>841</ele>
        <time>2019-10-11T12:51:18.000Z</time>
      </trkpt>
      <trkpt lat="44.22463" lon="2.96246">
        <ele>841</ele>
        <time>2019-10-11T12:51:19.000Z</time>
      </trkpt>
      <trkpt lat="44.22464" lon="2.96247">
        <ele>841</ele>
        <time>2019-10-11T12:51:20.000Z</time>
      </trkpt>
      <trkpt lat="44.22465" lon="2.96248">
        <ele>841</ele>
        <time>2019-10-11T12:51:21.000Z</time>
      </trkpt>
      <trkpt lat="44.22466" lon="2.96249">
        <ele>841</ele>
        <time>2019-10-11T12:51:22.000Z</time>
      </trkpt>
      <trkpt lat="44.22467" lon="2.9625">
        <ele>841</ele>
        <time>2019-10-11T12:51:23.000Z</time>
      </trkpt>
      <trkpt lat="44.22468" lon="2.96251">
        <ele>841</ele>
        <time>2019-10-11T12:51:24.000Z</time>
      </trkpt>
      <trkpt lat="44.2247" lon="2.96252">
        <ele>842</ele>
        <time>2019-10-11T12:51:25.000Z</time>
      </trkpt>
      <trkpt lat="44.22471" lon="2.96254">
        <ele>842</ele>
        <time>2019-10-11T12:51:26.000Z</time>
      </trkpt>
      <trkpt lat="44.22472" lon="2.96255">
        <ele>842</ele>
        <time>2019-10-11T12:51:27.000Z</time>
      </trkpt>
      <trkpt lat="44.22473" lon="2.96256">
        <ele>842</ele>
        <time>2019-10-11T12:51:28.000Z</time>
      </trkpt>
      <trkpt lat="44.22474" lon="2.96258">
        <ele>842</ele>
        <time>2019-10-11T12:51:29.000Z</time>
      </trkpt>
      <trkpt lat="44.22474" lon="2.96258">
        <ele>842</ele>
        <time>2019-10-11T12:51:30.000Z</time>
      </trkpt>
      <trkpt lat="44.22476" lon="2.96261">
        <ele>842</ele>
        <time>2019-10-11T12:51:31.000Z</time>
      </trkpt>
      <trkpt lat="44.22476" lon="2.96262">
        <ele>842</ele>
        <time>2019-10-11T12:51:32.000Z</time>
      </trkpt>
      <trkpt lat="44.22477" lon="2.96264">
        <ele>842</ele>
        <time>2019-10-11T12:51:33.000Z</time>
      </trkpt>
      <trkpt lat="44.22479" lon="2.96265">
        <ele>842</ele>
        <time>2019-10-11T12:51:34.000Z</time>
      </trkpt>
      <trkpt lat="44.2248" lon="2.96267">
        <ele>842</ele>
        <time>2019-10-11T12:51:35.000Z</time>
      </trkpt>
      <trkpt lat="44.22481" lon="2.96268">
        <ele>841</ele>
        <time>2019-10-11T12:51:36.000Z</time>
      </trkpt>
      <trkpt lat="44.22482" lon="2.96269">
        <ele>841</ele>
        <time>2019-10-11T12:51:37.000Z</time>
      </trkpt>
      <trkpt lat="44.22483" lon="2.9627">
        <ele>841</ele>
        <time>2019-10-11T12:51:38.000Z</time>
      </trkpt>
      <trkpt lat="44.22484" lon="2.96272">
        <ele>841</ele>
        <time>2019-10-11T12:51:39.000Z</time>
      </trkpt>
      <trkpt lat="44.22485" lon="2.96273">
        <ele>841</ele>
        <time>2019-10-11T12:51:40.000Z</time>
      </trkpt>
      <trkpt lat="44.22486" lon="2.96274">
        <ele>841</ele>
        <time>2019-10-11T12:51:41.000Z</time>
      </trkpt>
      <trkpt lat="44.22487" lon="2.96275">
        <ele>841</ele>
        <time>2019-10-11T12:51:42.000Z</time>
      </trkpt>
      <trkpt lat="44.22488" lon="2.96276">
        <ele>841</ele>
        <time>2019-10-11T12:51:43.000Z</time>
      </trkpt>
      <trkpt lat="44.22489" lon="2.96278">
        <ele>841</ele>
        <time>2019-10-11T12:51:44.000Z</time>
      </trkpt>
      <trkpt lat="44.2249" lon="2.96279">
        <ele>841</ele>
        <time>2019-10-11T12:51:45.000Z</time>
      </trkpt>
      <trkpt lat="44.22491" lon="2.96281">
        <ele>841</ele>
        <time>2019-10-11T12:51:46.000Z</time>
      </trkpt>
      <trkpt lat="44.22492" lon="2.96282">
        <ele>841</ele>
        <time>2019-10-11T12:51:47.000Z</time>
      </trkpt>
      <trkpt lat="44.22492" lon="2.96282">
        <ele>841</ele>
        <time>2019-10-11T12:51:48.000Z</time>
      </trkpt>
      <trkpt lat="44.22494" lon="2.96284">
        <ele>841</ele>
        <time>2019-10-11T12:51:49.000Z</time>
      </trkpt>
      <trkpt lat="44.22495" lon="2.96285">
        <ele>841</ele>
        <time>2019-10-11T12:51:50.000Z</time>
      </trkpt>
      <trkpt lat="44.22496" lon="2.96286">
        <ele>841</ele>
        <time>2019-10-11T12:51:51.000Z</time>
      </trkpt>
      <trkpt lat="44.22497" lon="2.96287">
        <ele>840</ele>
        <time>2019-10-11T12:51:52.000Z</time>
      </trkpt>
      <trkpt lat="44.22498" lon="2.96288">
        <ele>840</ele>
        <time>2019-10-11T12:51:53.000Z</time>
      </trkpt>
      <trkpt lat="44.22499" lon="2.96289">
        <ele>840</ele>
        <time>2019-10-11T12:51:54.000Z</time>
      </trkpt>
      <trkpt lat="44.225" lon="2.96291">
        <ele>840</ele>
        <time>2019-10-11T12:51:55.000Z</time>
      </trkpt>
      <trkpt lat="44.22501" lon="2.96292">
        <ele>840</ele>
        <time>2019-10-11T12:51:56.000Z</time>
      </trkpt>
      <trkpt lat="44.22502" lon="2.96294">
        <ele>841</ele>
        <time>2019-10-11T12:51:57.000Z</time>
      </trkpt>
      <trkpt lat="44.22503" lon="2.96295">
        <ele>841</ele>
        <time>2019-10-11T12:51:58.000Z</time>
      </trkpt>
      <trkpt lat="44.22504" lon="2.96296">
        <ele>841</ele>
        <time>2019-10-11T12:51:59.000Z</time>
      </trkpt>
      <trkpt lat="44.22504" lon="2.96296">
        <ele>841</ele>
        <time>2019-10-11T12:52:00.000Z</time>
      </trkpt>
      <trkpt lat="44.22506" lon="2.96299">
        <ele>841</ele>
        <time>2019-10-11T12:52:01.000Z</time>
      </trkpt>
      <trkpt lat="44.22507" lon="2.963">
        <ele>841</ele>
        <time>2019-10-11T12:52:02.000Z</time>
      </trkpt>
      <trkpt lat="44.22508" lon="2.96301">
        <ele>841</ele>
        <time>2019-10-11T12:52:03.000Z</time>
      </trkpt>
      <trkpt lat="44.22509" lon="2.96303">
        <ele>841</ele>
        <time>2019-10-11T12:52:04.000Z</time>
      </trkpt>
      <trkpt lat="44.22509" lon="2.96303">
        <ele>841</ele>
        <time>2019-10-11T12:52:05.000Z</time>
      </trkpt>
      <trkpt lat="44.22511" lon="2.96306">
        <ele>841</ele>
        <time>2019-10-11T12:52:06.000Z</time>
      </trkpt>
      <trkpt lat="44.22512" lon="2.96307">
        <ele>841</ele>
        <time>2019-10-11T12:52:07.000Z</time>
      </trkpt>
      <trkpt lat="44.22513" lon="2.96309">
        <ele>841</ele>
        <time>2019-10-11T12:52:08.000Z</time>
      </trkpt>
      <trkpt lat="44.22514" lon="2.9631">
        <ele>841</ele>
        <time>2019-10-11T12:52:09.000Z</time>
      </trkpt>
      <trkpt lat="44.22515" lon="2.96312">
        <ele>841</ele>
        <time>2019-10-11T12:52:10.000Z</time>
      </trkpt>
      <trkpt lat="44.22517" lon="2.96313">
        <ele>841</ele>
        <time>2019-10-11T12:52:11.000Z</time>
      </trkpt>
      <trkpt lat="44.22518" lon="2.96314">
        <ele>841</ele>
        <time>2019-10-11T12:52:12.000Z</time>
      </trkpt>
      <trkpt lat="44.2252" lon="2.96315">
        <ele>841</ele>
        <time>2019-10-11T12:52:13.000Z</time>
      </trkpt>
      <trkpt lat="44.22521" lon="2.96316">
        <ele>841</ele>
        <time>2019-10-11T12:52:14.000Z</time>
      </trkpt>
      <trkpt lat="44.22522" lon="2.96317">
        <ele>841</ele>
        <time>2019-10-11T12:52:15.000Z</time>
      </trkpt>
      <trkpt lat="44.22523" lon="2.96319">
        <ele>841</ele>
        <time>2019-10-11T12:52:16.000Z</time>
      </trkpt>
      <trkpt lat="44.22524" lon="2.9632">
        <ele>840</ele>
        <time>2019-10-11T12:52:17.000Z</time>
      </trkpt>
      <trkpt lat="44.22524" lon="2.96322">
        <ele>840</ele>
        <time>2019-10-11T12:52:18.000Z</time>
      </trkpt>
      <trkpt lat="44.22525" lon="2.96323">
        <ele>840</ele>
        <time>2019-10-11T12:52:19.000Z</time>
      </trkpt>
      <trkpt lat="44.22526" lon="2.96324">
        <ele>840</ele>
        <time>2019-10-11T12:52:20.000Z</time>
      </trkpt>
      <trkpt lat="44.22528" lon="2.96325">
        <ele>840</ele>
        <time>2019-10-11T12:52:21.000Z</time>
      </trkpt>
      <trkpt lat="44.22529" lon="2.96326">
        <ele>840</ele>
        <time>2019-10-11T12:52:22.000Z</time>
      </trkpt>
      <trkpt lat="44.2253" lon="2.96327">
        <ele>840</ele>
        <time>2019-10-11T12:52:23.000Z</time>
      </trkpt>
      <trkpt lat="44.22532" lon="2.96328">
        <ele>840</ele>
        <time>2019-10-11T12:52:24.000Z</time>
      </trkpt>
      <trkpt lat="44.22533" lon="2.96329">
        <ele>840</ele>
        <time>2019-10-11T12:52:25.000Z</time>
      </trkpt>
      <trkpt lat="44.22535" lon="2.9633">
        <ele>840</ele>
        <time>2019-10-11T12:52:26.000Z</time>
      </trkpt>
      <trkpt lat="44.22536" lon="2.96331">
        <ele>840</ele>
        <time>2019-10-11T12:52:27.000Z</time>
      </trkpt>
      <trkpt lat="44.22538" lon="2.96332">
        <ele>840</ele>
        <time>2019-10-11T12:52:28.000Z</time>
      </trkpt>
      <trkpt lat="44.2254" lon="2.96332">
        <ele>840</ele>
        <time>2019-10-11T12:52:29.000Z</time>
      </trkpt>
      <trkpt lat="44.22541" lon="2.96333">
        <ele>839</ele>
        <time>2019-10-11T12:52:30.000Z</time>
      </trkpt>
      <trkpt lat="44.22542" lon="2.96334">
        <ele>839</ele>
        <time>2019-10-11T12:52:31.000Z</time>
      </trkpt>
      <trkpt lat="44.22544" lon="2.96335">
        <ele>839</ele>
        <time>2019-10-11T12:52:32.000Z</time>
      </trkpt>
      <trkpt lat="44.22545" lon="2.96335">
        <ele>839</ele>
        <time>2019-10-11T12:52:33.000Z</time>
      </trkpt>
      <trkpt lat="44.22547" lon="2.96336">
        <ele>839</ele>
        <time>2019-10-11T12:52:34.000Z</time>
      </trkpt>
      <trkpt lat="44.22549" lon="2.96337">
        <ele>839</ele>
        <time>2019-10-11T12:52:35.000Z</time>
      </trkpt>
      <trkpt lat="44.2255" lon="2.96338">
        <ele>839</ele>
        <time>2019-10-11T12:52:36.000Z</time>
      </trkpt>
      <trkpt lat="44.22552" lon="2.96339">
        <ele>839</ele>
        <time>2019-10-11T12:52:37.000Z</time>
      </trkpt>
      <trkpt lat="44.22553" lon="2.9634">
        <ele>839</ele>
        <time>2019-10-11T12:52:38.000Z</time>
      </trkpt>
      <trkpt lat="44.22554" lon="2.9634">
        <ele>839</ele>
        <time>2019-10-11T12:52:39.000Z</time>
      </trkpt>
      <trkpt lat="44.22556" lon="2.9634">
        <ele>839</ele>
        <time>2019-10-11T12:52:40.000Z</time>
      </trkpt>
      <trkpt lat="44.22557" lon="2.96341">
        <ele>839</ele>
        <time>2019-10-11T12:52:41.000Z</time>
      </trkpt>
      <trkpt lat="44.22558" lon="2.96341">
        <ele>838</ele>
        <time>2019-10-11T12:52:42.000Z</time>
      </trkpt>
      <trkpt lat="44.22559" lon="2.96342">
        <ele>838</ele>
        <time>2019-10-11T12:52:43.000Z</time>
      </trkpt>
      <trkpt lat="44.22561" lon="2.96343">
        <ele>838</ele>
        <time>2019-10-11T12:52:44.000Z</time>
      </trkpt>
      <trkpt lat="44.22562" lon="2.96344">
        <ele>838</ele>
        <time>2019-10-11T12:52:45.000Z</time>
      </trkpt>
      <trkpt lat="44.22563" lon="2.96344">
        <ele>838</ele>
        <time>2019-10-11T12:52:46.000Z</time>
      </trkpt>
      <trkpt lat="44.22564" lon="2.96345">
        <ele>838</ele>
        <time>2019-10-11T12:52:47.000Z</time>
      </trkpt>
      <trkpt lat="44.22565" lon="2.96347">
        <ele>838</ele>
        <time>2019-10-11T12:52:48.000Z</time>
      </trkpt>
      <trkpt lat="44.22567" lon="2.96348">
        <ele>837</ele>
        <time>2019-10-11T12:52:49.000Z</time>
      </trkpt>
      <trkpt lat="44.22568" lon="2.96348">
        <ele>837</ele>
        <time>2019-10-11T12:52:50.000Z</time>
      </trkpt>
      <trkpt lat="44.22568" lon="2.96348">
        <ele>837</ele>
        <time>2019-10-11T12:52:51.000Z</time>
      </trkpt>
      <trkpt lat="44.2257" lon="2.9635">
        <ele>837</ele>
        <time>2019-10-11T12:52:52.000Z</time>
      </trkpt>
      <trkpt lat="44.22571" lon="2.9635">
        <ele>837</ele>
        <time>2019-10-11T12:52:53.000Z</time>
      </trkpt>
      <trkpt lat="44.22573" lon="2.96351">
        <ele>836</ele>
        <time>2019-10-11T12:52:54.000Z</time>
      </trkpt>
      <trkpt lat="44.22574" lon="2.96352">
        <ele>836</ele>
        <time>2019-10-11T12:52:55.000Z</time>
      </trkpt>
      <trkpt lat="44.22574" lon="2.96352">
        <ele>836</ele>
        <time>2019-10-11T12:52:56.000Z</time>
      </trkpt>
      <trkpt lat="44.22576" lon="2.96353">
        <ele>836</ele>
        <time>2019-10-11T12:52:57.000Z</time>
      </trkpt>
      <trkpt lat="44.22577" lon="2.96354">
        <ele>836</ele>
        <time>2019-10-11T12:52:58.000Z</time>
      </trkpt>
      <trkpt lat="44.22578" lon="2.96355">
        <ele>836</ele>
        <time>2019-10-11T12:52:59.000Z</time>
      </trkpt>
      <trkpt lat="44.2258" lon="2.96355">
        <ele>836</ele>
        <time>2019-10-11T12:53:00.000Z</time>
      </trkpt>
      <trkpt lat="44.22581" lon="2.96356">
        <ele>836</ele>
        <time>2019-10-11T12:53:01.000Z</time>
      </trkpt>
      <trkpt lat="44.22582" lon="2.96357">
        <ele>836</ele>
        <time>2019-10-11T12:53:02.000Z</time>
      </trkpt>
      <trkpt lat="44.22583" lon="2.96358">
        <ele>836</ele>
        <time>2019-10-11T12:53:03.000Z</time>
      </trkpt>
      <trkpt lat="44.22585" lon="2.96359">
        <ele>836</ele>
        <time>2019-10-11T12:53:04.000Z</time>
      </trkpt>
      <trkpt lat="44.22586" lon="2.9636">
        <ele>836</ele>
        <time>2019-10-11T12:53:05.000Z</time>
      </trkpt>
      <trkpt lat="44.22586" lon="2.96362">
        <ele>836</ele>
        <time>2019-10-11T12:53:06.000Z</time>
      </trkpt>
      <trkpt lat="44.22587" lon="2.96363">
        <ele>836</ele>
        <time>2019-10-11T12:53:07.000Z</time>
      </trkpt>
      <trkpt lat="44.22588" lon="2.96365">
        <ele>836</ele>
        <time>2019-10-11T12:53:08.000Z</time>
      </trkpt>
      <trkpt lat="44.22589" lon="2.96366">
        <ele>836</ele>
        <time>2019-10-11T12:53:09.000Z</time>
      </trkpt>
      <trkpt lat="44.2259" lon="2.96368">
        <ele>836</ele>
        <time>2019-10-11T12:53:10.000Z</time>
      </trkpt>
      <trkpt lat="44.22591" lon="2.96369">
        <ele>836</ele>
        <time>2019-10-11T12:53:11.000Z</time>
      </trkpt>
      <trkpt lat="44.22593" lon="2.9637">
        <ele>836</ele>
        <time>2019-10-11T12:53:12.000Z</time>
      </trkpt>
      <trkpt lat="44.22594" lon="2.96372">
        <ele>836</ele>
        <time>2019-10-11T12:53:13.000Z</time>
      </trkpt>
      <trkpt lat="44.22595" lon="2.96373">
        <ele>836</ele>
        <time>2019-10-11T12:53:14.000Z</time>
      </trkpt>
      <trkpt lat="44.22596" lon="2.96374">
        <ele>836</ele>
        <time>2019-10-11T12:53:15.000Z</time>
      </trkpt>
      <trkpt lat="44.22597" lon="2.96376">
        <ele>836</ele>
        <time>2019-10-11T12:53:16.000Z</time>
      </trkpt>
      <trkpt lat="44.22599" lon="2.96377">
        <ele>836</ele>
        <time>2019-10-11T12:53:17.000Z</time>
      </trkpt>
      <trkpt lat="44.22599" lon="2.96377">
        <ele>836</ele>
        <time>2019-10-11T12:53:18.000Z</time>
      </trkpt>
      <trkpt lat="44.22601" lon="2.96379">
        <ele>836</ele>
        <time>2019-10-11T12:53:19.000Z</time>
      </trkpt>
      <trkpt lat="44.22602" lon="2.9638">
        <ele>836</ele>
        <time>2019-10-11T12:53:20.000Z</time>
      </trkpt>
      <trkpt lat="44.22603" lon="2.96381">
        <ele>836</ele>
        <time>2019-10-11T12:53:21.000Z</time>
      </trkpt>
      <trkpt lat="44.22604" lon="2.96383">
        <ele>836</ele>
        <time>2019-10-11T12:53:22.000Z</time>
      </trkpt>
      <trkpt lat="44.22605" lon="2.96384">
        <ele>836</ele>
        <time>2019-10-11T12:53:23.000Z</time>
      </trkpt>
      <trkpt lat="44.22607" lon="2.96385">
        <ele>836</ele>
        <time>2019-10-11T12:53:24.000Z</time>
      </trkpt>
      <trkpt lat="44.22608" lon="2.96386">
        <ele>836</ele>
        <time>2019-10-11T12:53:25.000Z</time>
      </trkpt>
      <trkpt lat="44.22609" lon="2.96387">
        <ele>836</ele>
        <time>2019-10-11T12:53:26.000Z</time>
      </trkpt>
      <trkpt lat="44.2261" lon="2.96388">
        <ele>836</ele>
        <time>2019-10-11T12:53:27.000Z</time>
      </trkpt>
      <trkpt lat="44.22611" lon="2.9639">
        <ele>836</ele>
        <time>2019-10-11T12:53:28.000Z</time>
      </trkpt>
      <trkpt lat="44.22612" lon="2.96391">
        <ele>836</ele>
        <time>2019-10-11T12:53:29.000Z</time>
      </trkpt>
      <trkpt lat="44.22613" lon="2.96392">
        <ele>836</ele>
        <time>2019-10-11T12:53:30.000Z</time>
      </trkpt>
      <trkpt lat="44.22614" lon="2.96393">
        <ele>836</ele>
        <time>2019-10-11T12:53:31.000Z</time>
      </trkpt>
      <trkpt lat="44.22615" lon="2.96395">
        <ele>836</ele>
        <time>2019-10-11T12:53:32.000Z</time>
      </trkpt>
      <trkpt lat="44.22616" lon="2.96396">
        <ele>836</ele>
        <time>2019-10-11T12:53:33.000Z</time>
      </trkpt>
      <trkpt lat="44.22617" lon="2.96397">
        <ele>835</ele>
        <time>2019-10-11T12:53:34.000Z</time>
      </trkpt>
      <trkpt lat="44.22618" lon="2.96398">
        <ele>835</ele>
        <time>2019-10-11T12:53:35.000Z</time>
      </trkpt>
      <trkpt lat="44.22619" lon="2.96399">
        <ele>835</ele>
        <time>2019-10-11T12:53:36.000Z</time>
      </trkpt>
      <trkpt lat="44.2262" lon="2.96401">
        <ele>835</ele>
        <time>2019-10-11T12:53:37.000Z</time>
      </trkpt>
      <trkpt lat="44.22621" lon="2.96402">
        <ele>835</ele>
        <time>2019-10-11T12:53:38.000Z</time>
      </trkpt>
      <trkpt lat="44.22622" lon="2.96403">
        <ele>835</ele>
        <time>2019-10-11T12:53:39.000Z</time>
      </trkpt>
      <trkpt lat="44.22623" lon="2.96404">
        <ele>835</ele>
        <time>2019-10-11T12:53:40.000Z</time>
      </trkpt>
      <trkpt lat="44.22624" lon="2.96405">
        <ele>835</ele>
        <time>2019-10-11T12:53:41.000Z</time>
      </trkpt>
      <trkpt lat="44.22624" lon="2.96405">
        <ele>835</ele>
        <time>2019-10-11T12:53:42.000Z</time>
      </trkpt>
      <trkpt lat="44.22625" lon="2.96406">
        <ele>835</ele>
        <time>2019-10-11T12:53:43.000Z</time>
      </trkpt>
      <trkpt lat="44.22626" lon="2.96407">
        <ele>835</ele>
        <time>2019-10-11T12:53:44.000Z</time>
      </trkpt>
      <trkpt lat="44.22627" lon="2.96408">
        <ele>835</ele>
        <time>2019-10-11T12:53:45.000Z</time>
      </trkpt>
      <trkpt lat="44.22627" lon="2.96409">
        <ele>835</ele>
        <time>2019-10-11T12:53:46.000Z</time>
      </trkpt>
      <trkpt lat="44.22627" lon="2.96409">
        <ele>835</ele>
        <time>2019-10-11T12:53:47.000Z</time>
      </trkpt>
      <trkpt lat="44.22629" lon="2.96412">
        <ele>835</ele>
        <time>2019-10-11T12:53:48.000Z</time>
      </trkpt>
      <trkpt lat="44.2263" lon="2.96413">
        <ele>835</ele>
        <time>2019-10-11T12:53:49.000Z</time>
      </trkpt>
      <trkpt lat="44.22631" lon="2.96414">
        <ele>835</ele>
        <time>2019-10-11T12:53:50.000Z</time>
      </trkpt>
      <trkpt lat="44.22632" lon="2.96415">
        <ele>835</ele>
        <time>2019-10-11T12:53:51.000Z</time>
      </trkpt>
      <trkpt lat="44.22633" lon="2.96417">
        <ele>835</ele>
        <time>2019-10-11T12:53:52.000Z</time>
      </trkpt>
      <trkpt lat="44.22634" lon="2.96418">
        <ele>835</ele>
        <time>2019-10-11T12:53:53.000Z</time>
      </trkpt>
      <trkpt lat="44.22635" lon="2.96419">
        <ele>835</ele>
        <time>2019-10-11T12:53:54.000Z</time>
      </trkpt>
      <trkpt lat="44.22636" lon="2.96421">
        <ele>835</ele>
        <time>2019-10-11T12:53:55.000Z</time>
      </trkpt>
      <trkpt lat="44.22637" lon="2.96422">
        <ele>835</ele>
        <time>2019-10-11T12:53:56.000Z</time>
      </trkpt>
      <trkpt lat="44.22638" lon="2.96424">
        <ele>835</ele>
        <time>2019-10-11T12:53:57.000Z</time>
      </trkpt>
      <trkpt lat="44.22639" lon="2.96425">
        <ele>835</ele>
        <time>2019-10-11T12:53:58.000Z</time>
      </trkpt>
      <trkpt lat="44.2264" lon="2.96427">
        <ele>835</ele>
        <time>2019-10-11T12:53:59.000Z</time>
      </trkpt>
      <trkpt lat="44.2264" lon="2.96427">
        <ele>835</ele>
        <time>2019-10-11T12:54:00.000Z</time>
      </trkpt>
      <trkpt lat="44.22642" lon="2.9643">
        <ele>835</ele>
        <time>2019-10-11T12:54:01.000Z</time>
      </trkpt>
      <trkpt lat="44.22643" lon="2.96431">
        <ele>834</ele>
        <time>2019-10-11T12:54:02.000Z</time>
      </trkpt>
      <trkpt lat="44.22644" lon="2.96433">
        <ele>834</ele>
        <time>2019-10-11T12:54:03.000Z</time>
      </trkpt>
      <trkpt lat="44.22645" lon="2.96435">
        <ele>834</ele>
        <time>2019-10-11T12:54:04.000Z</time>
      </trkpt>
      <trkpt lat="44.22646" lon="2.96436">
        <ele>834</ele>
        <time>2019-10-11T12:54:05.000Z</time>
      </trkpt>
      <trkpt lat="44.22648" lon="2.96438">
        <ele>833</ele>
        <time>2019-10-11T12:54:06.000Z</time>
      </trkpt>
      <trkpt lat="44.22649" lon="2.96439">
        <ele>833</ele>
        <time>2019-10-11T12:54:07.000Z</time>
      </trkpt>
      <trkpt lat="44.22649" lon="2.96439">
        <ele>833</ele>
        <time>2019-10-11T12:54:08.000Z</time>
      </trkpt>
      <trkpt lat="44.22651" lon="2.96441">
        <ele>832</ele>
        <time>2019-10-11T12:54:09.000Z</time>
      </trkpt>
      <trkpt lat="44.22653" lon="2.96442">
        <ele>831</ele>
        <time>2019-10-11T12:54:10.000Z</time>
      </trkpt>
      <trkpt lat="44.22654" lon="2.96443">
        <ele>831</ele>
        <time>2019-10-11T12:54:11.000Z</time>
      </trkpt>
      <trkpt lat="44.22655" lon="2.96444">
        <ele>831</ele>
        <time>2019-10-11T12:54:12.000Z</time>
      </trkpt>
      <trkpt lat="44.22656" lon="2.96444">
        <ele>831</ele>
        <time>2019-10-11T12:54:13.000Z</time>
      </trkpt>
      <trkpt lat="44.22657" lon="2.96444">
        <ele>830</ele>
        <time>2019-10-11T12:54:14.000Z</time>
      </trkpt>
      <trkpt lat="44.22658" lon="2.96444">
        <ele>830</ele>
        <time>2019-10-11T12:54:15.000Z</time>
      </trkpt>
      <trkpt lat="44.2266" lon="2.96444">
        <ele>830</ele>
        <time>2019-10-11T12:54:16.000Z</time>
      </trkpt>
      <trkpt lat="44.22661" lon="2.96444">
        <ele>829</ele>
        <time>2019-10-11T12:54:17.000Z</time>
      </trkpt>
      <trkpt lat="44.22662" lon="2.96444">
        <ele>829</ele>
        <time>2019-10-11T12:54:18.000Z</time>
      </trkpt>
      <trkpt lat="44.22663" lon="2.96443">
        <ele>829</ele>
        <time>2019-10-11T12:54:19.000Z</time>
      </trkpt>
      <trkpt lat="44.22664" lon="2.96443">
        <ele>829</ele>
        <time>2019-10-11T12:54:20.000Z</time>
      </trkpt>
      <trkpt lat="44.22664" lon="2.96443">
        <ele>829</ele>
        <time>2019-10-11T12:54:21.000Z</time>
      </trkpt>
      <trkpt lat="44.22666" lon="2.96443">
        <ele>828</ele>
        <time>2019-10-11T12:54:22.000Z</time>
      </trkpt>
      <trkpt lat="44.22668" lon="2.96442">
        <ele>828</ele>
        <time>2019-10-11T12:54:23.000Z</time>
      </trkpt>
      <trkpt lat="44.22668" lon="2.96442">
        <ele>828</ele>
        <time>2019-10-11T12:54:24.000Z</time>
      </trkpt>
      <trkpt lat="44.2267" lon="2.96442">
        <ele>828</ele>
        <time>2019-10-11T12:54:25.000Z</time>
      </trkpt>
      <trkpt lat="44.2267" lon="2.96442">
        <ele>828</ele>
        <time>2019-10-11T12:54:26.000Z</time>
      </trkpt>
      <trkpt lat="44.22673" lon="2.96442">
        <ele>827</ele>
        <time>2019-10-11T12:54:27.000Z</time>
      </trkpt>
      <trkpt lat="44.22673" lon="2.96442">
        <ele>827</ele>
        <time>2019-10-11T12:54:28.000Z</time>
      </trkpt>
      <trkpt lat="44.22676" lon="2.96442">
        <ele>827</ele>
        <time>2019-10-11T12:54:29.000Z</time>
      </trkpt>
      <trkpt lat="44.22677" lon="2.96443">
        <ele>827</ele>
        <time>2019-10-11T12:54:30.000Z</time>
      </trkpt>
      <trkpt lat="44.22679" lon="2.96443">
        <ele>827</ele>
        <time>2019-10-11T12:54:31.000Z</time>
      </trkpt>
      <trkpt lat="44.22681" lon="2.96443">
        <ele>826</ele>
        <time>2019-10-11T12:54:32.000Z</time>
      </trkpt>
      <trkpt lat="44.22681" lon="2.96443">
        <ele>826</ele>
        <time>2019-10-11T12:54:33.000Z</time>
      </trkpt>
      <trkpt lat="44.22684" lon="2.96443">
        <ele>826</ele>
        <time>2019-10-11T12:54:34.000Z</time>
      </trkpt>
      <trkpt lat="44.22686" lon="2.96443">
        <ele>826</ele>
        <time>2019-10-11T12:54:35.000Z</time>
      </trkpt>
      <trkpt lat="44.22687" lon="2.96444">
        <ele>825</ele>
        <time>2019-10-11T12:54:36.000Z</time>
      </trkpt>
      <trkpt lat="44.22689" lon="2.96444">
        <ele>825</ele>
        <time>2019-10-11T12:54:37.000Z</time>
      </trkpt>
      <trkpt lat="44.22689" lon="2.96444">
        <ele>825</ele>
        <time>2019-10-11T12:54:38.000Z</time>
      </trkpt>
      <trkpt lat="44.22692" lon="2.96445">
        <ele>825</ele>
        <time>2019-10-11T12:54:39.000Z</time>
      </trkpt>
      <trkpt lat="44.22694" lon="2.96445">
        <ele>824</ele>
        <time>2019-10-11T12:54:40.000Z</time>
      </trkpt>
      <trkpt lat="44.22695" lon="2.96445">
        <ele>824</ele>
        <time>2019-10-11T12:54:41.000Z</time>
      </trkpt>
      <trkpt lat="44.22695" lon="2.96445">
        <ele>824</ele>
        <time>2019-10-11T12:54:42.000Z</time>
      </trkpt>
      <trkpt lat="44.22698" lon="2.96446">
        <ele>824</ele>
        <time>2019-10-11T12:54:43.000Z</time>
      </trkpt>
      <trkpt lat="44.227" lon="2.96447">
        <ele>824</ele>
        <time>2019-10-11T12:54:44.000Z</time>
      </trkpt>
      <trkpt lat="44.22701" lon="2.96447">
        <ele>823</ele>
        <time>2019-10-11T12:54:45.000Z</time>
      </trkpt>
      <trkpt lat="44.22702" lon="2.96447">
        <ele>823</ele>
        <time>2019-10-11T12:54:46.000Z</time>
      </trkpt>
      <trkpt lat="44.22704" lon="2.96447">
        <ele>823</ele>
        <time>2019-10-11T12:54:47.000Z</time>
      </trkpt>
      <trkpt lat="44.22705" lon="2.96447">
        <ele>823</ele>
        <time>2019-10-11T12:54:48.000Z</time>
      </trkpt>
      <trkpt lat="44.22707" lon="2.96447">
        <ele>822</ele>
        <time>2019-10-11T12:54:49.000Z</time>
      </trkpt>
      <trkpt lat="44.22709" lon="2.96447">
        <ele>822</ele>
        <time>2019-10-11T12:54:50.000Z</time>
      </trkpt>
      <trkpt lat="44.22711" lon="2.96447">
        <ele>822</ele>
        <time>2019-10-11T12:54:51.000Z</time>
      </trkpt>
      <trkpt lat="44.22712" lon="2.96447">
        <ele>821</ele>
        <time>2019-10-11T12:54:52.000Z</time>
      </trkpt>
      <trkpt lat="44.22713" lon="2.96447">
        <ele>821</ele>
        <time>2019-10-11T12:54:53.000Z</time>
      </trkpt>
      <trkpt lat="44.22715" lon="2.96447">
        <ele>821</ele>
        <time>2019-10-11T12:54:54.000Z</time>
      </trkpt>
      <trkpt lat="44.22716" lon="2.96447">
        <ele>821</ele>
        <time>2019-10-11T12:54:55.000Z</time>
      </trkpt>
      <trkpt lat="44.22718" lon="2.96448">
        <ele>821</ele>
        <time>2019-10-11T12:54:56.000Z</time>
      </trkpt>
      <trkpt lat="44.22719" lon="2.96448">
        <ele>821</ele>
        <time>2019-10-11T12:54:57.000Z</time>
      </trkpt>
      <trkpt lat="44.22721" lon="2.96448">
        <ele>820</ele>
        <time>2019-10-11T12:54:58.000Z</time>
      </trkpt>
      <trkpt lat="44.22722" lon="2.96449">
        <ele>820</ele>
        <time>2019-10-11T12:54:59.000Z</time>
      </trkpt>
      <trkpt lat="44.22723" lon="2.96449">
        <ele>820</ele>
        <time>2019-10-11T12:55:00.000Z</time>
      </trkpt>
      <trkpt lat="44.22725" lon="2.96449">
        <ele>820</ele>
        <time>2019-10-11T12:55:01.000Z</time>
      </trkpt>
      <trkpt lat="44.22726" lon="2.96449">
        <ele>820</ele>
        <time>2019-10-11T12:55:02.000Z</time>
      </trkpt>
      <trkpt lat="44.22728" lon="2.96448">
        <ele>820</ele>
        <time>2019-10-11T12:55:03.000Z</time>
      </trkpt>
      <trkpt lat="44.22729" lon="2.96448">
        <ele>820</ele>
        <time>2019-10-11T12:55:04.000Z</time>
      </trkpt>
      <trkpt lat="44.22731" lon="2.96447">
        <ele>820</ele>
        <time>2019-10-11T12:55:05.000Z</time>
      </trkpt>
      <trkpt lat="44.22732" lon="2.96447">
        <ele>819</ele>
        <time>2019-10-11T12:55:06.000Z</time>
      </trkpt>
      <trkpt lat="44.22733" lon="2.96446">
        <ele>819</ele>
        <time>2019-10-11T12:55:07.000Z</time>
      </trkpt>
      <trkpt lat="44.22735" lon="2.96446">
        <ele>819</ele>
        <time>2019-10-11T12:55:08.000Z</time>
      </trkpt>
      <trkpt lat="44.22736" lon="2.96446">
        <ele>819</ele>
        <time>2019-10-11T12:55:09.000Z</time>
      </trkpt>
      <trkpt lat="44.22738" lon="2.96445">
        <ele>819</ele>
        <time>2019-10-11T12:55:10.000Z</time>
      </trkpt>
      <trkpt lat="44.22739" lon="2.96445">
        <ele>819</ele>
        <time>2019-10-11T12:55:11.000Z</time>
      </trkpt>
      <trkpt lat="44.22741" lon="2.96445">
        <ele>819</ele>
        <time>2019-10-11T12:55:12.000Z</time>
      </trkpt>
      <trkpt lat="44.22742" lon="2.96445">
        <ele>818</ele>
        <time>2019-10-11T12:55:13.000Z</time>
      </trkpt>
      <trkpt lat="44.22743" lon="2.96446">
        <ele>818</ele>
        <time>2019-10-11T12:55:14.000Z</time>
      </trkpt>
      <trkpt lat="44.22745" lon="2.96446">
        <ele>818</ele>
        <time>2019-10-11T12:55:15.000Z</time>
      </trkpt>
      <trkpt lat="44.22747" lon="2.96447">
        <ele>817</ele>
        <time>2019-10-11T12:55:16.000Z</time>
      </trkpt>
      <trkpt lat="44.22748" lon="2.96447">
        <ele>817</ele>
        <time>2019-10-11T12:55:17.000Z</time>
      </trkpt>
      <trkpt lat="44.2275" lon="2.96447">
        <ele>816</ele>
        <time>2019-10-11T12:55:18.000Z</time>
      </trkpt>
      <trkpt lat="44.22751" lon="2.96448">
        <ele>816</ele>
        <time>2019-10-11T12:55:19.000Z</time>
      </trkpt>
      <trkpt lat="44.22752" lon="2.96448">
        <ele>816</ele>
        <time>2019-10-11T12:55:20.000Z</time>
      </trkpt>
      <trkpt lat="44.22753" lon="2.96448">
        <ele>816</ele>
        <time>2019-10-11T12:55:21.000Z</time>
      </trkpt>
      <trkpt lat="44.22755" lon="2.96448">
        <ele>815</ele>
        <time>2019-10-11T12:55:22.000Z</time>
      </trkpt>
      <trkpt lat="44.22755" lon="2.96448">
        <ele>815</ele>
        <time>2019-10-11T12:55:23.000Z</time>
      </trkpt>
      <trkpt lat="44.22757" lon="2.96448">
        <ele>815</ele>
        <time>2019-10-11T12:55:24.000Z</time>
      </trkpt>
      <trkpt lat="44.22759" lon="2.96448">
        <ele>815</ele>
        <time>2019-10-11T12:55:25.000Z</time>
      </trkpt>
      <trkpt lat="44.2276" lon="2.96448">
        <ele>815</ele>
        <time>2019-10-11T12:55:26.000Z</time>
      </trkpt>
      <trkpt lat="44.22761" lon="2.96448">
        <ele>814</ele>
        <time>2019-10-11T12:55:27.000Z</time>
      </trkpt>
      <trkpt lat="44.22762" lon="2.96449">
        <ele>814</ele>
        <time>2019-10-11T12:55:28.000Z</time>
      </trkpt>
      <trkpt lat="44.22762" lon="2.96449">
        <ele>814</ele>
        <time>2019-10-11T12:55:29.000Z</time>
      </trkpt>
      <trkpt lat="44.22765" lon="2.9645">
        <ele>814</ele>
        <time>2019-10-11T12:55:30.000Z</time>
      </trkpt>
      <trkpt lat="44.22766" lon="2.9645">
        <ele>814</ele>
        <time>2019-10-11T12:55:31.000Z</time>
      </trkpt>
      <trkpt lat="44.22767" lon="2.96451">
        <ele>814</ele>
        <time>2019-10-11T12:55:32.000Z</time>
      </trkpt>
      <trkpt lat="44.22769" lon="2.96452">
        <ele>814</ele>
        <time>2019-10-11T12:55:33.000Z</time>
      </trkpt>
      <trkpt lat="44.2277" lon="2.96453">
        <ele>814</ele>
        <time>2019-10-11T12:55:34.000Z</time>
      </trkpt>
      <trkpt lat="44.22771" lon="2.96453">
        <ele>814</ele>
        <time>2019-10-11T12:55:35.000Z</time>
      </trkpt>
      <trkpt lat="44.22772" lon="2.96454">
        <ele>814</ele>
        <time>2019-10-11T12:55:36.000Z</time>
      </trkpt>
      <trkpt lat="44.22773" lon="2.96455">
        <ele>814</ele>
        <time>2019-10-11T12:55:37.000Z</time>
      </trkpt>
      <trkpt lat="44.22775" lon="2.96456">
        <ele>814</ele>
        <time>2019-10-11T12:55:38.000Z</time>
      </trkpt>
      <trkpt lat="44.22776" lon="2.96457">
        <ele>814</ele>
        <time>2019-10-11T12:55:39.000Z</time>
      </trkpt>
      <trkpt lat="44.22777" lon="2.96457">
        <ele>813</ele>
        <time>2019-10-11T12:55:40.000Z</time>
      </trkpt>
      <trkpt lat="44.22778" lon="2.96458">
        <ele>813</ele>
        <time>2019-10-11T12:55:41.000Z</time>
      </trkpt>
      <trkpt lat="44.22779" lon="2.96459">
        <ele>813</ele>
        <time>2019-10-11T12:55:42.000Z</time>
      </trkpt>
      <trkpt lat="44.22781" lon="2.96459">
        <ele>813</ele>
        <time>2019-10-11T12:55:43.000Z</time>
      </trkpt>
      <trkpt lat="44.22782" lon="2.9646">
        <ele>813</ele>
        <time>2019-10-11T12:55:44.000Z</time>
      </trkpt>
      <trkpt lat="44.22783" lon="2.96461">
        <ele>813</ele>
        <time>2019-10-11T12:55:45.000Z</time>
      </trkpt>
      <trkpt lat="44.22785" lon="2.96461">
        <ele>812</ele>
        <time>2019-10-11T12:55:46.000Z</time>
      </trkpt>
      <trkpt lat="44.22786" lon="2.96462">
        <ele>812</ele>
        <time>2019-10-11T12:55:47.000Z</time>
      </trkpt>
      <trkpt lat="44.22786" lon="2.96462">
        <ele>812</ele>
        <time>2019-10-11T12:55:48.000Z</time>
      </trkpt>
      <trkpt lat="44.22789" lon="2.96463">
        <ele>812</ele>
        <time>2019-10-11T12:55:49.000Z</time>
      </trkpt>
      <trkpt lat="44.22791" lon="2.96463">
        <ele>812</ele>
        <time>2019-10-11T12:55:50.000Z</time>
      </trkpt>
      <trkpt lat="44.22792" lon="2.96464">
        <ele>812</ele>
        <time>2019-10-11T12:55:51.000Z</time>
      </trkpt>
      <trkpt lat="44.22794" lon="2.96465">
        <ele>812</ele>
        <time>2019-10-11T12:55:52.000Z</time>
      </trkpt>
      <trkpt lat="44.22795" lon="2.96465">
        <ele>812</ele>
        <time>2019-10-11T12:55:53.000Z</time>
      </trkpt>
      <trkpt lat="44.22795" lon="2.96465">
        <ele>812</ele>
        <time>2019-10-11T12:55:54.000Z</time>
      </trkpt>
      <trkpt lat="44.22798" lon="2.96467">
        <ele>812</ele>
        <time>2019-10-11T12:55:55.000Z</time>
      </trkpt>
      <trkpt lat="44.22798" lon="2.96467">
        <ele>812</ele>
        <time>2019-10-11T12:55:56.000Z</time>
      </trkpt>
      <trkpt lat="44.228" lon="2.96467">
        <ele>812</ele>
        <time>2019-10-11T12:55:57.000Z</time>
      </trkpt>
      <trkpt lat="44.22803" lon="2.96467">
        <ele>811</ele>
        <time>2019-10-11T12:55:58.000Z</time>
      </trkpt>
      <trkpt lat="44.22804" lon="2.96468">
        <ele>811</ele>
        <time>2019-10-11T12:55:59.000Z</time>
      </trkpt>
      <trkpt lat="44.22804" lon="2.96468">
        <ele>811</ele>
        <time>2019-10-11T12:56:00.000Z</time>
      </trkpt>
      <trkpt lat="44.22807" lon="2.96469">
        <ele>811</ele>
        <time>2019-10-11T12:56:01.000Z</time>
      </trkpt>
      <trkpt lat="44.22809" lon="2.96471">
        <ele>810</ele>
        <time>2019-10-11T12:56:02.000Z</time>
      </trkpt>
      <trkpt lat="44.2281" lon="2.96472">
        <ele>810</ele>
        <time>2019-10-11T12:56:03.000Z</time>
      </trkpt>
      <trkpt lat="44.22812" lon="2.96473">
        <ele>809</ele>
        <time>2019-10-11T12:56:04.000Z</time>
      </trkpt>
      <trkpt lat="44.22813" lon="2.96474">
        <ele>809</ele>
        <time>2019-10-11T12:56:05.000Z</time>
      </trkpt>
      <trkpt lat="44.22815" lon="2.96475">
        <ele>809</ele>
        <time>2019-10-11T12:56:06.000Z</time>
      </trkpt>
      <trkpt lat="44.22817" lon="2.96476">
        <ele>808</ele>
        <time>2019-10-11T12:56:07.000Z</time>
      </trkpt>
      <trkpt lat="44.22818" lon="2.96478">
        <ele>807</ele>
        <time>2019-10-11T12:56:08.000Z</time>
      </trkpt>
      <trkpt lat="44.22819" lon="2.96479">
        <ele>807</ele>
        <time>2019-10-11T12:56:09.000Z</time>
      </trkpt>
      <trkpt lat="44.22821" lon="2.9648">
        <ele>806</ele>
        <time>2019-10-11T12:56:10.000Z</time>
      </trkpt>
      <trkpt lat="44.22822" lon="2.96482">
        <ele>806</ele>
        <time>2019-10-11T12:56:11.000Z</time>
      </trkpt>
      <trkpt lat="44.22823" lon="2.96483">
        <ele>806</ele>
        <time>2019-10-11T12:56:12.000Z</time>
      </trkpt>
      <trkpt lat="44.22824" lon="2.96485">
        <ele>805</ele>
        <time>2019-10-11T12:56:13.000Z</time>
      </trkpt>
      <trkpt lat="44.22824" lon="2.96485">
        <ele>805</ele>
        <time>2019-10-11T12:56:14.000Z</time>
      </trkpt>
      <trkpt lat="44.22825" lon="2.96487">
        <ele>805</ele>
        <time>2019-10-11T12:56:15.000Z</time>
      </trkpt>
      <trkpt lat="44.22826" lon="2.9649">
        <ele>804</ele>
        <time>2019-10-11T12:56:16.000Z</time>
      </trkpt>
      <trkpt lat="44.22826" lon="2.96492">
        <ele>803</ele>
        <time>2019-10-11T12:56:17.000Z</time>
      </trkpt>
      <trkpt lat="44.22826" lon="2.96492">
        <ele>803</ele>
        <time>2019-10-11T12:56:18.000Z</time>
      </trkpt>
      <trkpt lat="44.22826" lon="2.96494">
        <ele>803</ele>
        <time>2019-10-11T12:56:19.000Z</time>
      </trkpt>
      <trkpt lat="44.22826" lon="2.96496">
        <ele>802</ele>
        <time>2019-10-11T12:56:20.000Z</time>
      </trkpt>
      <trkpt lat="44.22824" lon="2.965">
        <ele>801</ele>
        <time>2019-10-11T12:56:21.000Z</time>
      </trkpt>
      <trkpt lat="44.22824" lon="2.965">
        <ele>801</ele>
        <time>2019-10-11T12:56:22.000Z</time>
      </trkpt>
      <trkpt lat="44.22824" lon="2.96502">
        <ele>801</ele>
        <time>2019-10-11T12:56:23.000Z</time>
      </trkpt>
      <trkpt lat="44.22823" lon="2.96503">
        <ele>801</ele>
        <time>2019-10-11T12:56:24.000Z</time>
      </trkpt>
      <trkpt lat="44.22823" lon="2.96504">
        <ele>800</ele>
        <time>2019-10-11T12:56:25.000Z</time>
      </trkpt>
      <trkpt lat="44.22823" lon="2.96505">
        <ele>800</ele>
        <time>2019-10-11T12:56:26.000Z</time>
      </trkpt>
      <trkpt lat="44.22823" lon="2.96505">
        <ele>800</ele>
        <time>2019-10-11T12:56:27.000Z</time>
      </trkpt>
      <trkpt lat="44.22823" lon="2.96505">
        <ele>799</ele>
        <time>2019-10-11T12:56:28.000Z</time>
      </trkpt>
      <trkpt lat="44.22823" lon="2.96506">
        <ele>799</ele>
        <time>2019-10-11T12:56:29.000Z</time>
      </trkpt>
      <trkpt lat="44.22823" lon="2.96506">
        <ele>799</ele>
        <time>2019-10-11T12:56:30.000Z</time>
      </trkpt>
      <trkpt lat="44.22823" lon="2.96506">
        <ele>799</ele>
        <time>2019-10-11T12:56:31.000Z</time>
      </trkpt>
      <trkpt lat="44.22823" lon="2.96506">
        <ele>799</ele>
        <time>2019-10-11T12:56:32.000Z</time>
      </trkpt>
      <trkpt lat="44.22823" lon="2.96506">
        <ele>799</ele>
        <time>2019-10-11T12:56:33.000Z</time>
      </trkpt>
      <trkpt lat="44.22823" lon="2.96506">
        <ele>798</ele>
        <time>2019-10-11T12:56:34.000Z</time>
      </trkpt>
      <trkpt lat="44.22823" lon="2.96506">
        <ele>798</ele>
        <time>2019-10-11T12:56:35.000Z</time>
      </trkpt>
      <trkpt lat="44.22823" lon="2.96506">
        <ele>798</ele>
        <time>2019-10-11T12:56:36.000Z</time>
      </trkpt>
      <trkpt lat="44.22823" lon="2.96506">
        <ele>798</ele>
        <time>2019-10-11T12:56:37.000Z</time>
      </trkpt>
      <trkpt lat="44.22824" lon="2.96506">
        <ele>798</ele>
        <time>2019-10-11T12:56:38.000Z</time>
      </trkpt>
      <trkpt lat="44.22824" lon="2.96505">
        <ele>798</ele>
        <time>2019-10-11T12:56:39.000Z</time>
      </trkpt>
      <trkpt lat="44.22825" lon="2.96505">
        <ele>798</ele>
        <time>2019-10-11T12:56:40.000Z</time>
      </trkpt>
      <trkpt lat="44.22825" lon="2.96506">
        <ele>798</ele>
        <time>2019-10-11T12:56:41.000Z</time>
      </trkpt>
      <trkpt lat="44.22825" lon="2.96506">
        <ele>798</ele>
        <time>2019-10-11T12:56:42.000Z</time>
      </trkpt>
      <trkpt lat="44.22825" lon="2.96506">
        <ele>798</ele>
        <time>2019-10-11T12:56:43.000Z</time>
      </trkpt>
      <trkpt lat="44.22825" lon="2.96506">
        <ele>798</ele>
        <time>2019-10-11T12:56:44.000Z</time>
      </trkpt>
      <trkpt lat="44.22825" lon="2.96507">
        <ele>798</ele>
        <time>2019-10-11T12:56:45.000Z</time>
      </trkpt>
      <trkpt lat="44.22824" lon="2.96508">
        <ele>797</ele>
        <time>2019-10-11T12:56:46.000Z</time>
      </trkpt>
      <trkpt lat="44.22824" lon="2.96508">
        <ele>797</ele>
        <time>2019-10-11T12:56:47.000Z</time>
      </trkpt>
      <trkpt lat="44.22823" lon="2.96509">
        <ele>797</ele>
        <time>2019-10-11T12:56:48.000Z</time>
      </trkpt>
      <trkpt lat="44.22822" lon="2.96509">
        <ele>797</ele>
        <time>2019-10-11T12:56:49.000Z</time>
      </trkpt>
      <trkpt lat="44.22821" lon="2.9651">
        <ele>797</ele>
        <time>2019-10-11T12:56:50.000Z</time>
      </trkpt>
      <trkpt lat="44.2282" lon="2.9651">
        <ele>797</ele>
        <time>2019-10-11T12:56:51.000Z</time>
      </trkpt>
      <trkpt lat="44.22819" lon="2.96511">
        <ele>796</ele>
        <time>2019-10-11T12:56:52.000Z</time>
      </trkpt>
      <trkpt lat="44.22818" lon="2.96512">
        <ele>796</ele>
        <time>2019-10-11T12:56:53.000Z</time>
      </trkpt>
      <trkpt lat="44.22817" lon="2.96513">
        <ele>796</ele>
        <time>2019-10-11T12:56:54.000Z</time>
      </trkpt>
      <trkpt lat="44.22816" lon="2.96514">
        <ele>796</ele>
        <time>2019-10-11T12:56:55.000Z</time>
      </trkpt>
      <trkpt lat="44.22815" lon="2.96515">
        <ele>796</ele>
        <time>2019-10-11T12:56:56.000Z</time>
      </trkpt>
      <trkpt lat="44.22814" lon="2.96516">
        <ele>796</ele>
        <time>2019-10-11T12:56:57.000Z</time>
      </trkpt>
      <trkpt lat="44.22814" lon="2.96517">
        <ele>795</ele>
        <time>2019-10-11T12:56:58.000Z</time>
      </trkpt>
      <trkpt lat="44.22814" lon="2.96517">
        <ele>795</ele>
        <time>2019-10-11T12:56:59.000Z</time>
      </trkpt>
      <trkpt lat="44.22814" lon="2.96517">
        <ele>795</ele>
        <time>2019-10-11T12:57:00.000Z</time>
      </trkpt>
      <trkpt lat="44.22814" lon="2.96517">
        <ele>795</ele>
        <time>2019-10-11T12:57:01.000Z</time>
      </trkpt>
      <trkpt lat="44.22814" lon="2.96517">
        <ele>795</ele>
        <time>2019-10-11T12:57:02.000Z</time>
      </trkpt>
      <trkpt lat="44.22814" lon="2.96517">
        <ele>795</ele>
        <time>2019-10-11T12:57:03.000Z</time>
      </trkpt>
      <trkpt lat="44.22814" lon="2.96517">
        <ele>795</ele>
        <time>2019-10-11T12:57:04.000Z</time>
      </trkpt>
      <trkpt lat="44.22814" lon="2.96517">
        <ele>795</ele>
        <time>2019-10-11T12:57:05.000Z</time>
      </trkpt>
      <trkpt lat="44.22814" lon="2.96517">
        <ele>795</ele>
        <time>2019-10-11T12:57:06.000Z</time>
      </trkpt>
      <trkpt lat="44.22814" lon="2.96517">
        <ele>795</ele>
        <time>2019-10-11T12:57:07.000Z</time>
      </trkpt>
      <trkpt lat="44.22814" lon="2.96517">
        <ele>795</ele>
        <time>2019-10-11T12:57:08.000Z</time>
      </trkpt>
      <trkpt lat="44.22814" lon="2.96517">
        <ele>795</ele>
        <time>2019-10-11T12:57:09.000Z</time>
      </trkpt>
      <trkpt lat="44.22814" lon="2.96517">
        <ele>795</ele>
        <time>2019-10-11T12:57:10.000Z</time>
      </trkpt>
      <trkpt lat="44.22814" lon="2.96518">
        <ele>795</ele>
        <time>2019-10-11T12:57:11.000Z</time>
      </trkpt>
      <trkpt lat="44.22814" lon="2.96518">
        <ele>795</ele>
        <time>2019-10-11T12:57:12.000Z</time>
      </trkpt>
      <trkpt lat="44.22814" lon="2.96518">
        <ele>795</ele>
        <time>2019-10-11T12:57:13.000Z</time>
      </trkpt>
      <trkpt lat="44.22814" lon="2.96518">
        <ele>795</ele>
        <time>2019-10-11T12:57:14.000Z</time>
      </trkpt>
      <trkpt lat="44.22814" lon="2.96518">
        <ele>795</ele>
        <time>2019-10-11T12:57:15.000Z</time>
      </trkpt>
      <trkpt lat="44.22814" lon="2.96518">
        <ele>795</ele>
        <time>2019-10-11T12:57:16.000Z</time>
      </trkpt>
      <trkpt lat="44.22814" lon="2.96518">
        <ele>795</ele>
        <time>2019-10-11T12:57:17.000Z</time>
      </trkpt>
      <trkpt lat="44.22814" lon="2.96517">
        <ele>795</ele>
        <time>2019-10-11T12:57:18.000Z</time>
      </trkpt>
      <trkpt lat="44.22814" lon="2.96517">
        <ele>795</ele>
        <time>2019-10-11T12:57:19.000Z</time>
      </trkpt>
      <trkpt lat="44.22814" lon="2.96517">
        <ele>795</ele>
        <time>2019-10-11T12:57:20.000Z</time>
      </trkpt>
      <trkpt lat="44.22814" lon="2.96517">
        <ele>795</ele>
        <time>2019-10-11T12:57:21.000Z</time>
      </trkpt>
      <trkpt lat="44.22814" lon="2.96517">
        <ele>795</ele>
        <time>2019-10-11T12:57:22.000Z</time>
      </trkpt>
      <trkpt lat="44.22814" lon="2.96517">
        <ele>795</ele>
        <time>2019-10-11T12:57:23.000Z</time>
      </trkpt>
      <trkpt lat="44.22814" lon="2.96517">
        <ele>795</ele>
        <time>2019-10-11T12:57:24.000Z</time>
      </trkpt>
      <trkpt lat="44.22814" lon="2.96517">
        <ele>795</ele>
        <time>2019-10-11T12:57:25.000Z</time>
      </trkpt>
      <trkpt lat="44.22814" lon="2.96517">
        <ele>796</ele>
        <time>2019-10-11T12:57:26.000Z</time>
      </trkpt>
      <trkpt lat="44.22814" lon="2.96517">
        <ele>796</ele>
        <time>2019-10-11T12:57:27.000Z</time>
      </trkpt>
      <trkpt lat="44.22814" lon="2.96518">
        <ele>796</ele>
        <time>2019-10-11T12:57:28.000Z</time>
      </trkpt>
      <trkpt lat="44.22813" lon="2.96518">
        <ele>796</ele>
        <time>2019-10-11T12:57:29.000Z</time>
      </trkpt>
      <trkpt lat="44.22813" lon="2.96519">
        <ele>796</ele>
        <time>2019-10-11T12:57:30.000Z</time>
      </trkpt>
      <trkpt lat="44.22812" lon="2.96519">
        <ele>796</ele>
        <time>2019-10-11T12:57:31.000Z</time>
      </trkpt>
      <trkpt lat="44.22811" lon="2.9652">
        <ele>795</ele>
        <time>2019-10-11T12:57:32.000Z</time>
      </trkpt>
      <trkpt lat="44.2281" lon="2.9652">
        <ele>795</ele>
        <time>2019-10-11T12:57:33.000Z</time>
      </trkpt>
      <trkpt lat="44.2281" lon="2.96521">
        <ele>795</ele>
        <time>2019-10-11T12:57:34.000Z</time>
      </trkpt>
      <trkpt lat="44.22809" lon="2.96522">
        <ele>795</ele>
        <time>2019-10-11T12:57:35.000Z</time>
      </trkpt>
      <trkpt lat="44.22808" lon="2.96523">
        <ele>795</ele>
        <time>2019-10-11T12:57:36.000Z</time>
      </trkpt>
      <trkpt lat="44.22807" lon="2.96524">
        <ele>795</ele>
        <time>2019-10-11T12:57:37.000Z</time>
      </trkpt>
      <trkpt lat="44.22806" lon="2.96525">
        <ele>795</ele>
        <time>2019-10-11T12:57:38.000Z</time>
      </trkpt>
      <trkpt lat="44.22805" lon="2.96526">
        <ele>795</ele>
        <time>2019-10-11T12:57:39.000Z</time>
      </trkpt>
      <trkpt lat="44.22804" lon="2.96527">
        <ele>795</ele>
        <time>2019-10-11T12:57:40.000Z</time>
      </trkpt>
      <trkpt lat="44.22803" lon="2.96529">
        <ele>794</ele>
        <time>2019-10-11T12:57:41.000Z</time>
      </trkpt>
      <trkpt lat="44.22802" lon="2.9653">
        <ele>794</ele>
        <time>2019-10-11T12:57:42.000Z</time>
      </trkpt>
      <trkpt lat="44.22801" lon="2.96531">
        <ele>794</ele>
        <time>2019-10-11T12:57:43.000Z</time>
      </trkpt>
      <trkpt lat="44.22799" lon="2.96532">
        <ele>794</ele>
        <time>2019-10-11T12:57:44.000Z</time>
      </trkpt>
      <trkpt lat="44.22798" lon="2.96533">
        <ele>794</ele>
        <time>2019-10-11T12:57:45.000Z</time>
      </trkpt>
      <trkpt lat="44.22797" lon="2.96534">
        <ele>794</ele>
        <time>2019-10-11T12:57:46.000Z</time>
      </trkpt>
      <trkpt lat="44.22796" lon="2.96535">
        <ele>794</ele>
        <time>2019-10-11T12:57:47.000Z</time>
      </trkpt>
      <trkpt lat="44.22795" lon="2.96536">
        <ele>793</ele>
        <time>2019-10-11T12:57:48.000Z</time>
      </trkpt>
      <trkpt lat="44.22794" lon="2.96537">
        <ele>793</ele>
        <time>2019-10-11T12:57:49.000Z</time>
      </trkpt>
      <trkpt lat="44.22793" lon="2.96539">
        <ele>793</ele>
        <time>2019-10-11T12:57:50.000Z</time>
      </trkpt>
      <trkpt lat="44.22792" lon="2.9654">
        <ele>793</ele>
        <time>2019-10-11T12:57:51.000Z</time>
      </trkpt>
      <trkpt lat="44.22791" lon="2.96541">
        <ele>793</ele>
        <time>2019-10-11T12:57:52.000Z</time>
      </trkpt>
      <trkpt lat="44.2279" lon="2.96543">
        <ele>793</ele>
        <time>2019-10-11T12:57:53.000Z</time>
      </trkpt>
      <trkpt lat="44.22788" lon="2.96544">
        <ele>793</ele>
        <time>2019-10-11T12:57:54.000Z</time>
      </trkpt>
      <trkpt lat="44.22787" lon="2.96545">
        <ele>792</ele>
        <time>2019-10-11T12:57:55.000Z</time>
      </trkpt>
      <trkpt lat="44.22786" lon="2.96547">
        <ele>792</ele>
        <time>2019-10-11T12:57:56.000Z</time>
      </trkpt>
      <trkpt lat="44.22785" lon="2.96548">
        <ele>792</ele>
        <time>2019-10-11T12:57:57.000Z</time>
      </trkpt>
      <trkpt lat="44.22784" lon="2.96549">
        <ele>792</ele>
        <time>2019-10-11T12:57:58.000Z</time>
      </trkpt>
      <trkpt lat="44.22783" lon="2.9655">
        <ele>792</ele>
        <time>2019-10-11T12:57:59.000Z</time>
      </trkpt>
      <trkpt lat="44.22781" lon="2.96552">
        <ele>792</ele>
        <time>2019-10-11T12:58:00.000Z</time>
      </trkpt>
      <trkpt lat="44.2278" lon="2.96553">
        <ele>792</ele>
        <time>2019-10-11T12:58:01.000Z</time>
      </trkpt>
      <trkpt lat="44.22779" lon="2.96554">
        <ele>791</ele>
        <time>2019-10-11T12:58:02.000Z</time>
      </trkpt>
      <trkpt lat="44.22778" lon="2.96556">
        <ele>791</ele>
        <time>2019-10-11T12:58:03.000Z</time>
      </trkpt>
      <trkpt lat="44.22777" lon="2.96557">
        <ele>791</ele>
        <time>2019-10-11T12:58:04.000Z</time>
      </trkpt>
      <trkpt lat="44.22776" lon="2.96558">
        <ele>791</ele>
        <time>2019-10-11T12:58:05.000Z</time>
      </trkpt>
      <trkpt lat="44.22775" lon="2.9656">
        <ele>791</ele>
        <time>2019-10-11T12:58:06.000Z</time>
      </trkpt>
      <trkpt lat="44.22774" lon="2.96562">
        <ele>791</ele>
        <time>2019-10-11T12:58:07.000Z</time>
      </trkpt>
      <trkpt lat="44.22772" lon="2.96563">
        <ele>791</ele>
        <time>2019-10-11T12:58:08.000Z</time>
      </trkpt>
      <trkpt lat="44.22771" lon="2.96564">
        <ele>790</ele>
        <time>2019-10-11T12:58:09.000Z</time>
      </trkpt>
      <trkpt lat="44.2277" lon="2.96566">
        <ele>790</ele>
        <time>2019-10-11T12:58:10.000Z</time>
      </trkpt>
      <trkpt lat="44.22768" lon="2.96567">
        <ele>790</ele>
        <time>2019-10-11T12:58:11.000Z</time>
      </trkpt>
      <trkpt lat="44.22767" lon="2.96568">
        <ele>790</ele>
        <time>2019-10-11T12:58:12.000Z</time>
      </trkpt>
      <trkpt lat="44.22766" lon="2.9657">
        <ele>789</ele>
        <time>2019-10-11T12:58:13.000Z</time>
      </trkpt>
      <trkpt lat="44.22765" lon="2.96571">
        <ele>789</ele>
        <time>2019-10-11T12:58:14.000Z</time>
      </trkpt>
      <trkpt lat="44.22763" lon="2.96573">
        <ele>789</ele>
        <time>2019-10-11T12:58:15.000Z</time>
      </trkpt>
      <trkpt lat="44.22762" lon="2.96574">
        <ele>789</ele>
        <time>2019-10-11T12:58:16.000Z</time>
      </trkpt>
      <trkpt lat="44.22761" lon="2.96576">
        <ele>789</ele>
        <time>2019-10-11T12:58:17.000Z</time>
      </trkpt>
      <trkpt lat="44.2276" lon="2.96577">
        <ele>788</ele>
        <time>2019-10-11T12:58:18.000Z</time>
      </trkpt>
      <trkpt lat="44.22759" lon="2.96579">
        <ele>788</ele>
        <time>2019-10-11T12:58:19.000Z</time>
      </trkpt>
      <trkpt lat="44.22758" lon="2.9658">
        <ele>788</ele>
        <time>2019-10-11T12:58:20.000Z</time>
      </trkpt>
      <trkpt lat="44.22756" lon="2.96582">
        <ele>788</ele>
        <time>2019-10-11T12:58:21.000Z</time>
      </trkpt>
      <trkpt lat="44.22755" lon="2.96583">
        <ele>788</ele>
        <time>2019-10-11T12:58:22.000Z</time>
      </trkpt>
      <trkpt lat="44.22754" lon="2.96585">
        <ele>788</ele>
        <time>2019-10-11T12:58:23.000Z</time>
      </trkpt>
      <trkpt lat="44.22753" lon="2.96586">
        <ele>787</ele>
        <time>2019-10-11T12:58:24.000Z</time>
      </trkpt>
      <trkpt lat="44.22751" lon="2.96587">
        <ele>787</ele>
        <time>2019-10-11T12:58:25.000Z</time>
      </trkpt>
      <trkpt lat="44.2275" lon="2.96589">
        <ele>787</ele>
        <time>2019-10-11T12:58:26.000Z</time>
      </trkpt>
      <trkpt lat="44.22749" lon="2.9659">
        <ele>787</ele>
        <time>2019-10-11T12:58:27.000Z</time>
      </trkpt>
      <trkpt lat="44.22748" lon="2.96591">
        <ele>787</ele>
        <time>2019-10-11T12:58:28.000Z</time>
      </trkpt>
      <trkpt lat="44.22746" lon="2.96593">
        <ele>787</ele>
        <time>2019-10-11T12:58:29.000Z</time>
      </trkpt>
      <trkpt lat="44.22745" lon="2.96594">
        <ele>786</ele>
        <time>2019-10-11T12:58:30.000Z</time>
      </trkpt>
      <trkpt lat="44.22744" lon="2.96596">
        <ele>786</ele>
        <time>2019-10-11T12:58:31.000Z</time>
      </trkpt>
      <trkpt lat="44.22742" lon="2.96597">
        <ele>786</ele>
        <time>2019-10-11T12:58:32.000Z</time>
      </trkpt>
      <trkpt lat="44.22741" lon="2.96599">
        <ele>786</ele>
        <time>2019-10-11T12:58:33.000Z</time>
      </trkpt>
      <trkpt lat="44.2274" lon="2.966">
        <ele>786</ele>
        <time>2019-10-11T12:58:34.000Z</time>
      </trkpt>
      <trkpt lat="44.22739" lon="2.96601">
        <ele>786</ele>
        <time>2019-10-11T12:58:35.000Z</time>
      </trkpt>
      <trkpt lat="44.22737" lon="2.96602">
        <ele>786</ele>
        <time>2019-10-11T12:58:36.000Z</time>
      </trkpt>
      <trkpt lat="44.22736" lon="2.96604">
        <ele>786</ele>
        <time>2019-10-11T12:58:37.000Z</time>
      </trkpt>
      <trkpt lat="44.22735" lon="2.96605">
        <ele>785</ele>
        <time>2019-10-11T12:58:38.000Z</time>
      </trkpt>
      <trkpt lat="44.22733" lon="2.96606">
        <ele>785</ele>
        <time>2019-10-11T12:58:39.000Z</time>
      </trkpt>
      <trkpt lat="44.22732" lon="2.96607">
        <ele>785</ele>
        <time>2019-10-11T12:58:40.000Z</time>
      </trkpt>
      <trkpt lat="44.22731" lon="2.96608">
        <ele>785</ele>
        <time>2019-10-11T12:58:41.000Z</time>
      </trkpt>
      <trkpt lat="44.22729" lon="2.9661">
        <ele>785</ele>
        <time>2019-10-11T12:58:42.000Z</time>
      </trkpt>
      <trkpt lat="44.22728" lon="2.96611">
        <ele>784</ele>
        <time>2019-10-11T12:58:43.000Z</time>
      </trkpt>
      <trkpt lat="44.22727" lon="2.96612">
        <ele>784</ele>
        <time>2019-10-11T12:58:44.000Z</time>
      </trkpt>
      <trkpt lat="44.22726" lon="2.96613">
        <ele>784</ele>
        <time>2019-10-11T12:58:45.000Z</time>
      </trkpt>
      <trkpt lat="44.22724" lon="2.96614">
        <ele>784</ele>
        <time>2019-10-11T12:58:46.000Z</time>
      </trkpt>
      <trkpt lat="44.22723" lon="2.96615">
        <ele>784</ele>
        <time>2019-10-11T12:58:47.000Z</time>
      </trkpt>
      <trkpt lat="44.22722" lon="2.96616">
        <ele>783</ele>
        <time>2019-10-11T12:58:48.000Z</time>
      </trkpt>
      <trkpt lat="44.22721" lon="2.96617">
        <ele>783</ele>
        <time>2019-10-11T12:58:49.000Z</time>
      </trkpt>
      <trkpt lat="44.22719" lon="2.96618">
        <ele>783</ele>
        <time>2019-10-11T12:58:50.000Z</time>
      </trkpt>
      <trkpt lat="44.22718" lon="2.96619">
        <ele>783</ele>
        <time>2019-10-11T12:58:51.000Z</time>
      </trkpt>
      <trkpt lat="44.22716" lon="2.9662">
        <ele>783</ele>
        <time>2019-10-11T12:58:52.000Z</time>
      </trkpt>
      <trkpt lat="44.22715" lon="2.96622">
        <ele>782</ele>
        <time>2019-10-11T12:58:53.000Z</time>
      </trkpt>
      <trkpt lat="44.22714" lon="2.96623">
        <ele>782</ele>
        <time>2019-10-11T12:58:54.000Z</time>
      </trkpt>
      <trkpt lat="44.22712" lon="2.96624">
        <ele>782</ele>
        <time>2019-10-11T12:58:55.000Z</time>
      </trkpt>
      <trkpt lat="44.22711" lon="2.96625">
        <ele>782</ele>
        <time>2019-10-11T12:58:56.000Z</time>
      </trkpt>
      <trkpt lat="44.2271" lon="2.96626">
        <ele>782</ele>
        <time>2019-10-11T12:58:57.000Z</time>
      </trkpt>
      <trkpt lat="44.22708" lon="2.96628">
        <ele>782</ele>
        <time>2019-10-11T12:58:58.000Z</time>
      </trkpt>
      <trkpt lat="44.22707" lon="2.96629">
        <ele>781</ele>
        <time>2019-10-11T12:58:59.000Z</time>
      </trkpt>
      <trkpt lat="44.22706" lon="2.9663">
        <ele>781</ele>
        <time>2019-10-11T12:59:00.000Z</time>
      </trkpt>
      <trkpt lat="44.22704" lon="2.96631">
        <ele>781</ele>
        <time>2019-10-11T12:59:01.000Z</time>
      </trkpt>
      <trkpt lat="44.22703" lon="2.96632">
        <ele>781</ele>
        <time>2019-10-11T12:59:02.000Z</time>
      </trkpt>
      <trkpt lat="44.22702" lon="2.96633">
        <ele>781</ele>
        <time>2019-10-11T12:59:03.000Z</time>
      </trkpt>
      <trkpt lat="44.227" lon="2.96635">
        <ele>781</ele>
        <time>2019-10-11T12:59:04.000Z</time>
      </trkpt>
      <trkpt lat="44.22699" lon="2.96636">
        <ele>781</ele>
        <time>2019-10-11T12:59:05.000Z</time>
      </trkpt>
      <trkpt lat="44.22697" lon="2.96637">
        <ele>781</ele>
        <time>2019-10-11T12:59:06.000Z</time>
      </trkpt>
      <trkpt lat="44.22696" lon="2.96638">
        <ele>781</ele>
        <time>2019-10-11T12:59:07.000Z</time>
      </trkpt>
      <trkpt lat="44.22695" lon="2.96639">
        <ele>781</ele>
        <time>2019-10-11T12:59:08.000Z</time>
      </trkpt>
      <trkpt lat="44.22693" lon="2.96641">
        <ele>781</ele>
        <time>2019-10-11T12:59:09.000Z</time>
      </trkpt>
      <trkpt lat="44.22692" lon="2.96642">
        <ele>780</ele>
        <time>2019-10-11T12:59:10.000Z</time>
      </trkpt>
      <trkpt lat="44.22691" lon="2.96643">
        <ele>780</ele>
        <time>2019-10-11T12:59:11.000Z</time>
      </trkpt>
      <trkpt lat="44.22689" lon="2.96645">
        <ele>780</ele>
        <time>2019-10-11T12:59:12.000Z</time>
      </trkpt>
      <trkpt lat="44.22688" lon="2.96646">
        <ele>780</ele>
        <time>2019-10-11T12:59:13.000Z</time>
      </trkpt>
      <trkpt lat="44.22687" lon="2.96648">
        <ele>780</ele>
        <time>2019-10-11T12:59:14.000Z</time>
      </trkpt>
      <trkpt lat="44.22685" lon="2.96649">
        <ele>780</ele>
        <time>2019-10-11T12:59:15.000Z</time>
      </trkpt>
      <trkpt lat="44.22684" lon="2.9665">
        <ele>780</ele>
        <time>2019-10-11T12:59:16.000Z</time>
      </trkpt>
      <trkpt lat="44.22683" lon="2.96652">
        <ele>780</ele>
        <time>2019-10-11T12:59:17.000Z</time>
      </trkpt>
      <trkpt lat="44.22681" lon="2.96653">
        <ele>780</ele>
        <time>2019-10-11T12:59:18.000Z</time>
      </trkpt>
      <trkpt lat="44.2268" lon="2.96655">
        <ele>779</ele>
        <time>2019-10-11T12:59:19.000Z</time>
      </trkpt>
      <trkpt lat="44.22679" lon="2.96656">
        <ele>779</ele>
        <time>2019-10-11T12:59:20.000Z</time>
      </trkpt>
      <trkpt lat="44.22677" lon="2.96657">
        <ele>779</ele>
        <time>2019-10-11T12:59:21.000Z</time>
      </trkpt>
      <trkpt lat="44.22676" lon="2.96658">
        <ele>779</ele>
        <time>2019-10-11T12:59:22.000Z</time>
      </trkpt>
      <trkpt lat="44.22675" lon="2.96659">
        <ele>779</ele>
        <time>2019-10-11T12:59:23.000Z</time>
      </trkpt>
      <trkpt lat="44.22674" lon="2.9666">
        <ele>779</ele>
        <time>2019-10-11T12:59:24.000Z</time>
      </trkpt>
      <trkpt lat="44.22673" lon="2.96661">
        <ele>779</ele>
        <time>2019-10-11T12:59:25.000Z</time>
      </trkpt>
      <trkpt lat="44.22673" lon="2.96663">
        <ele>778</ele>
        <time>2019-10-11T12:59:26.000Z</time>
      </trkpt>
      <trkpt lat="44.22672" lon="2.96665">
        <ele>778</ele>
        <time>2019-10-11T12:59:27.000Z</time>
      </trkpt>
      <trkpt lat="44.22672" lon="2.96667">
        <ele>778</ele>
        <time>2019-10-11T12:59:28.000Z</time>
      </trkpt>
      <trkpt lat="44.22671" lon="2.96669">
        <ele>778</ele>
        <time>2019-10-11T12:59:29.000Z</time>
      </trkpt>
      <trkpt lat="44.2267" lon="2.96671">
        <ele>778</ele>
        <time>2019-10-11T12:59:30.000Z</time>
      </trkpt>
      <trkpt lat="44.2267" lon="2.96673">
        <ele>779</ele>
        <time>2019-10-11T12:59:31.000Z</time>
      </trkpt>
      <trkpt lat="44.22669" lon="2.96675">
        <ele>779</ele>
        <time>2019-10-11T12:59:32.000Z</time>
      </trkpt>
      <trkpt lat="44.22668" lon="2.96676">
        <ele>779</ele>
        <time>2019-10-11T12:59:33.000Z</time>
      </trkpt>
      <trkpt lat="44.22667" lon="2.96678">
        <ele>779</ele>
        <time>2019-10-11T12:59:34.000Z</time>
      </trkpt>
      <trkpt lat="44.22667" lon="2.9668">
        <ele>779</ele>
        <time>2019-10-11T12:59:35.000Z</time>
      </trkpt>
      <trkpt lat="44.22666" lon="2.96682">
        <ele>779</ele>
        <time>2019-10-11T12:59:36.000Z</time>
      </trkpt>
      <trkpt lat="44.22665" lon="2.96684">
        <ele>779</ele>
        <time>2019-10-11T12:59:37.000Z</time>
      </trkpt>
      <trkpt lat="44.22665" lon="2.96686">
        <ele>779</ele>
        <time>2019-10-11T12:59:38.000Z</time>
      </trkpt>
      <trkpt lat="44.22664" lon="2.96688">
        <ele>779</ele>
        <time>2019-10-11T12:59:39.000Z</time>
      </trkpt>
      <trkpt lat="44.22664" lon="2.96689">
        <ele>779</ele>
        <time>2019-10-11T12:59:40.000Z</time>
      </trkpt>
      <trkpt lat="44.22663" lon="2.96691">
        <ele>779</ele>
        <time>2019-10-11T12:59:41.000Z</time>
      </trkpt>
      <trkpt lat="44.22662" lon="2.96694">
        <ele>779</ele>
        <time>2019-10-11T12:59:42.000Z</time>
      </trkpt>
      <trkpt lat="44.22662" lon="2.96695">
        <ele>779</ele>
        <time>2019-10-11T12:59:43.000Z</time>
      </trkpt>
      <trkpt lat="44.2266" lon="2.96698">
        <ele>779</ele>
        <time>2019-10-11T12:59:44.000Z</time>
      </trkpt>
      <trkpt lat="44.2266" lon="2.967">
        <ele>779</ele>
        <time>2019-10-11T12:59:45.000Z</time>
      </trkpt>
      <trkpt lat="44.22659" lon="2.96702">
        <ele>779</ele>
        <time>2019-10-11T12:59:46.000Z</time>
      </trkpt>
      <trkpt lat="44.22658" lon="2.96704">
        <ele>779</ele>
        <time>2019-10-11T12:59:47.000Z</time>
      </trkpt>
      <trkpt lat="44.22658" lon="2.96706">
        <ele>779</ele>
        <time>2019-10-11T12:59:48.000Z</time>
      </trkpt>
      <trkpt lat="44.22657" lon="2.96707">
        <ele>779</ele>
        <time>2019-10-11T12:59:49.000Z</time>
      </trkpt>
      <trkpt lat="44.22656" lon="2.96709">
        <ele>779</ele>
        <time>2019-10-11T12:59:50.000Z</time>
      </trkpt>
      <trkpt lat="44.22656" lon="2.96711">
        <ele>779</ele>
        <time>2019-10-11T12:59:51.000Z</time>
      </trkpt>
      <trkpt lat="44.22655" lon="2.96714">
        <ele>779</ele>
        <time>2019-10-11T12:59:52.000Z</time>
      </trkpt>
      <trkpt lat="44.22654" lon="2.96716">
        <ele>779</ele>
        <time>2019-10-11T12:59:53.000Z</time>
      </trkpt>
      <trkpt lat="44.22654" lon="2.96718">
        <ele>779</ele>
        <time>2019-10-11T12:59:54.000Z</time>
      </trkpt>
      <trkpt lat="44.22653" lon="2.9672">
        <ele>779</ele>
        <time>2019-10-11T12:59:55.000Z</time>
      </trkpt>
      <trkpt lat="44.22652" lon="2.96721">
        <ele>779</ele>
        <time>2019-10-11T12:59:56.000Z</time>
      </trkpt>
      <trkpt lat="44.22652" lon="2.96723">
        <ele>779</ele>
        <time>2019-10-11T12:59:57.000Z</time>
      </trkpt>
      <trkpt lat="44.22651" lon="2.96725">
        <ele>779</ele>
        <time>2019-10-11T12:59:58.000Z</time>
      </trkpt>
      <trkpt lat="44.22651" lon="2.96727">
        <ele>779</ele>
        <time>2019-10-11T12:59:59.000Z</time>
      </trkpt>
      <trkpt lat="44.2265" lon="2.96729">
        <ele>780</ele>
        <time>2019-10-11T13:00:00.000Z</time>
      </trkpt>
      <trkpt lat="44.22649" lon="2.96731">
        <ele>780</ele>
        <time>2019-10-11T13:00:01.000Z</time>
      </trkpt>
      <trkpt lat="44.22648" lon="2.96733">
        <ele>780</ele>
        <time>2019-10-11T13:00:02.000Z</time>
      </trkpt>
      <trkpt lat="44.22647" lon="2.96735">
        <ele>780</ele>
        <time>2019-10-11T13:00:03.000Z</time>
      </trkpt>
      <trkpt lat="44.22647" lon="2.96737">
        <ele>780</ele>
        <time>2019-10-11T13:00:04.000Z</time>
      </trkpt>
      <trkpt lat="44.22646" lon="2.96739">
        <ele>780</ele>
        <time>2019-10-11T13:00:05.000Z</time>
      </trkpt>
      <trkpt lat="44.22645" lon="2.96741">
        <ele>780</ele>
        <time>2019-10-11T13:00:06.000Z</time>
      </trkpt>
      <trkpt lat="44.22645" lon="2.96743">
        <ele>780</ele>
        <time>2019-10-11T13:00:07.000Z</time>
      </trkpt>
      <trkpt lat="44.22644" lon="2.96745">
        <ele>781</ele>
        <time>2019-10-11T13:00:08.000Z</time>
      </trkpt>
      <trkpt lat="44.22643" lon="2.96746">
        <ele>781</ele>
        <time>2019-10-11T13:00:09.000Z</time>
      </trkpt>
      <trkpt lat="44.22643" lon="2.96748">
        <ele>781</ele>
        <time>2019-10-11T13:00:10.000Z</time>
      </trkpt>
      <trkpt lat="44.22642" lon="2.9675">
        <ele>781</ele>
        <time>2019-10-11T13:00:11.000Z</time>
      </trkpt>
      <trkpt lat="44.22641" lon="2.96752">
        <ele>781</ele>
        <time>2019-10-11T13:00:12.000Z</time>
      </trkpt>
      <trkpt lat="44.2264" lon="2.96754">
        <ele>781</ele>
        <time>2019-10-11T13:00:13.000Z</time>
      </trkpt>
      <trkpt lat="44.2264" lon="2.96756">
        <ele>781</ele>
        <time>2019-10-11T13:00:14.000Z</time>
      </trkpt>
      <trkpt lat="44.22639" lon="2.96758">
        <ele>781</ele>
        <time>2019-10-11T13:00:15.000Z</time>
      </trkpt>
      <trkpt lat="44.22638" lon="2.9676">
        <ele>781</ele>
        <time>2019-10-11T13:00:16.000Z</time>
      </trkpt>
      <trkpt lat="44.22637" lon="2.96762">
        <ele>782</ele>
        <time>2019-10-11T13:00:17.000Z</time>
      </trkpt>
      <trkpt lat="44.22636" lon="2.96763">
        <ele>782</ele>
        <time>2019-10-11T13:00:18.000Z</time>
      </trkpt>
      <trkpt lat="44.22635" lon="2.96765">
        <ele>782</ele>
        <time>2019-10-11T13:00:19.000Z</time>
      </trkpt>
      <trkpt lat="44.22634" lon="2.96767">
        <ele>782</ele>
        <time>2019-10-11T13:00:20.000Z</time>
      </trkpt>
      <trkpt lat="44.22634" lon="2.96769">
        <ele>782</ele>
        <time>2019-10-11T13:00:21.000Z</time>
      </trkpt>
      <trkpt lat="44.22633" lon="2.96771">
        <ele>782</ele>
        <time>2019-10-11T13:00:22.000Z</time>
      </trkpt>
      <trkpt lat="44.22632" lon="2.96773">
        <ele>782</ele>
        <time>2019-10-11T13:00:23.000Z</time>
      </trkpt>
      <trkpt lat="44.22631" lon="2.96775">
        <ele>781</ele>
        <time>2019-10-11T13:00:24.000Z</time>
      </trkpt>
      <trkpt lat="44.2263" lon="2.96776">
        <ele>781</ele>
        <time>2019-10-11T13:00:25.000Z</time>
      </trkpt>
      <trkpt lat="44.22629" lon="2.96778">
        <ele>781</ele>
        <time>2019-10-11T13:00:26.000Z</time>
      </trkpt>
      <trkpt lat="44.22628" lon="2.9678">
        <ele>781</ele>
        <time>2019-10-11T13:00:27.000Z</time>
      </trkpt>
      <trkpt lat="44.22627" lon="2.96782">
        <ele>781</ele>
        <time>2019-10-11T13:00:28.000Z</time>
      </trkpt>
      <trkpt lat="44.22625" lon="2.96783">
        <ele>781</ele>
        <time>2019-10-11T13:00:29.000Z</time>
      </trkpt>
      <trkpt lat="44.22624" lon="2.96785">
        <ele>781</ele>
        <time>2019-10-11T13:00:30.000Z</time>
      </trkpt>
      <trkpt lat="44.22623" lon="2.96787">
        <ele>781</ele>
        <time>2019-10-11T13:00:31.000Z</time>
      </trkpt>
      <trkpt lat="44.22622" lon="2.96789">
        <ele>780</ele>
        <time>2019-10-11T13:00:32.000Z</time>
      </trkpt>
      <trkpt lat="44.2262" lon="2.9679">
        <ele>780</ele>
        <time>2019-10-11T13:00:33.000Z</time>
      </trkpt>
      <trkpt lat="44.22619" lon="2.96792">
        <ele>780</ele>
        <time>2019-10-11T13:00:34.000Z</time>
      </trkpt>
      <trkpt lat="44.22618" lon="2.96794">
        <ele>780</ele>
        <time>2019-10-11T13:00:35.000Z</time>
      </trkpt>
      <trkpt lat="44.22617" lon="2.96795">
        <ele>780</ele>
        <time>2019-10-11T13:00:36.000Z</time>
      </trkpt>
      <trkpt lat="44.22616" lon="2.96797">
        <ele>780</ele>
        <time>2019-10-11T13:00:37.000Z</time>
      </trkpt>
      <trkpt lat="44.22614" lon="2.96798">
        <ele>780</ele>
        <time>2019-10-11T13:00:38.000Z</time>
      </trkpt>
      <trkpt lat="44.22613" lon="2.968">
        <ele>779</ele>
        <time>2019-10-11T13:00:39.000Z</time>
      </trkpt>
      <trkpt lat="44.22612" lon="2.96802">
        <ele>779</ele>
        <time>2019-10-11T13:00:40.000Z</time>
      </trkpt>
      <trkpt lat="44.22611" lon="2.96803">
        <ele>779</ele>
        <time>2019-10-11T13:00:41.000Z</time>
      </trkpt>
      <trkpt lat="44.22609" lon="2.96805">
        <ele>779</ele>
        <time>2019-10-11T13:00:42.000Z</time>
      </trkpt>
      <trkpt lat="44.22608" lon="2.96807">
        <ele>779</ele>
        <time>2019-10-11T13:00:43.000Z</time>
      </trkpt>
      <trkpt lat="44.22607" lon="2.96808">
        <ele>779</ele>
        <time>2019-10-11T13:00:44.000Z</time>
      </trkpt>
      <trkpt lat="44.22606" lon="2.9681">
        <ele>779</ele>
        <time>2019-10-11T13:00:45.000Z</time>
      </trkpt>
      <trkpt lat="44.22605" lon="2.96811">
        <ele>779</ele>
        <time>2019-10-11T13:00:46.000Z</time>
      </trkpt>
      <trkpt lat="44.22603" lon="2.96812">
        <ele>779</ele>
        <time>2019-10-11T13:00:47.000Z</time>
      </trkpt>
      <trkpt lat="44.22602" lon="2.96814">
        <ele>778</ele>
        <time>2019-10-11T13:00:48.000Z</time>
      </trkpt>
      <trkpt lat="44.22601" lon="2.96815">
        <ele>778</ele>
        <time>2019-10-11T13:00:49.000Z</time>
      </trkpt>
      <trkpt lat="44.226" lon="2.96817">
        <ele>778</ele>
        <time>2019-10-11T13:00:50.000Z</time>
      </trkpt>
      <trkpt lat="44.22599" lon="2.96819">
        <ele>778</ele>
        <time>2019-10-11T13:00:51.000Z</time>
      </trkpt>
      <trkpt lat="44.22597" lon="2.9682">
        <ele>778</ele>
        <time>2019-10-11T13:00:52.000Z</time>
      </trkpt>
      <trkpt lat="44.22596" lon="2.96822">
        <ele>778</ele>
        <time>2019-10-11T13:00:53.000Z</time>
      </trkpt>
      <trkpt lat="44.22595" lon="2.96824">
        <ele>778</ele>
        <time>2019-10-11T13:00:54.000Z</time>
      </trkpt>
      <trkpt lat="44.22594" lon="2.96825">
        <ele>778</ele>
        <time>2019-10-11T13:00:55.000Z</time>
      </trkpt>
      <trkpt lat="44.22593" lon="2.96826">
        <ele>778</ele>
        <time>2019-10-11T13:00:56.000Z</time>
      </trkpt>
      <trkpt lat="44.22592" lon="2.96828">
        <ele>778</ele>
        <time>2019-10-11T13:00:57.000Z</time>
      </trkpt>
      <trkpt lat="44.22591" lon="2.9683">
        <ele>777</ele>
        <time>2019-10-11T13:00:58.000Z</time>
      </trkpt>
      <trkpt lat="44.2259" lon="2.96831">
        <ele>777</ele>
        <time>2019-10-11T13:00:59.000Z</time>
      </trkpt>
      <trkpt lat="44.22588" lon="2.96833">
        <ele>777</ele>
        <time>2019-10-11T13:01:00.000Z</time>
      </trkpt>
      <trkpt lat="44.22587" lon="2.96834">
        <ele>777</ele>
        <time>2019-10-11T13:01:01.000Z</time>
      </trkpt>
      <trkpt lat="44.22586" lon="2.96836">
        <ele>777</ele>
        <time>2019-10-11T13:01:02.000Z</time>
      </trkpt>
      <trkpt lat="44.22585" lon="2.96837">
        <ele>777</ele>
        <time>2019-10-11T13:01:03.000Z</time>
      </trkpt>
      <trkpt lat="44.22584" lon="2.96839">
        <ele>777</ele>
        <time>2019-10-11T13:01:04.000Z</time>
      </trkpt>
      <trkpt lat="44.22583" lon="2.9684">
        <ele>777</ele>
        <time>2019-10-11T13:01:05.000Z</time>
      </trkpt>
      <trkpt lat="44.22582" lon="2.96842">
        <ele>777</ele>
        <time>2019-10-11T13:01:06.000Z</time>
      </trkpt>
      <trkpt lat="44.22581" lon="2.96843">
        <ele>777</ele>
        <time>2019-10-11T13:01:07.000Z</time>
      </trkpt>
      <trkpt lat="44.2258" lon="2.96845">
        <ele>777</ele>
        <time>2019-10-11T13:01:08.000Z</time>
      </trkpt>
      <trkpt lat="44.22579" lon="2.96846">
        <ele>777</ele>
        <time>2019-10-11T13:01:09.000Z</time>
      </trkpt>
      <trkpt lat="44.22577" lon="2.96848">
        <ele>776</ele>
        <time>2019-10-11T13:01:10.000Z</time>
      </trkpt>
      <trkpt lat="44.22576" lon="2.96849">
        <ele>776</ele>
        <time>2019-10-11T13:01:11.000Z</time>
      </trkpt>
      <trkpt lat="44.22575" lon="2.96851">
        <ele>776</ele>
        <time>2019-10-11T13:01:12.000Z</time>
      </trkpt>
      <trkpt lat="44.22574" lon="2.96853">
        <ele>776</ele>
        <time>2019-10-11T13:01:13.000Z</time>
      </trkpt>
      <trkpt lat="44.22573" lon="2.96854">
        <ele>776</ele>
        <time>2019-10-11T13:01:14.000Z</time>
      </trkpt>
      <trkpt lat="44.22572" lon="2.96856">
        <ele>776</ele>
        <time>2019-10-11T13:01:15.000Z</time>
      </trkpt>
      <trkpt lat="44.22571" lon="2.96857">
        <ele>776</ele>
        <time>2019-10-11T13:01:16.000Z</time>
      </trkpt>
      <trkpt lat="44.2257" lon="2.96859">
        <ele>776</ele>
        <time>2019-10-11T13:01:17.000Z</time>
      </trkpt>
      <trkpt lat="44.22569" lon="2.96861">
        <ele>776</ele>
        <time>2019-10-11T13:01:18.000Z</time>
      </trkpt>
      <trkpt lat="44.22568" lon="2.96863">
        <ele>776</ele>
        <time>2019-10-11T13:01:19.000Z</time>
      </trkpt>
      <trkpt lat="44.22567" lon="2.96864">
        <ele>776</ele>
        <time>2019-10-11T13:01:20.000Z</time>
      </trkpt>
      <trkpt lat="44.22566" lon="2.96866">
        <ele>775</ele>
        <time>2019-10-11T13:01:21.000Z</time>
      </trkpt>
      <trkpt lat="44.22566" lon="2.96868">
        <ele>775</ele>
        <time>2019-10-11T13:01:22.000Z</time>
      </trkpt>
      <trkpt lat="44.22565" lon="2.9687">
        <ele>775</ele>
        <time>2019-10-11T13:01:23.000Z</time>
      </trkpt>
      <trkpt lat="44.22564" lon="2.96871">
        <ele>775</ele>
        <time>2019-10-11T13:01:24.000Z</time>
      </trkpt>
      <trkpt lat="44.22562" lon="2.96873">
        <ele>775</ele>
        <time>2019-10-11T13:01:25.000Z</time>
      </trkpt>
      <trkpt lat="44.22561" lon="2.96875">
        <ele>775</ele>
        <time>2019-10-11T13:01:26.000Z</time>
      </trkpt>
      <trkpt lat="44.2256" lon="2.96876">
        <ele>775</ele>
        <time>2019-10-11T13:01:27.000Z</time>
      </trkpt>
      <trkpt lat="44.22559" lon="2.96878">
        <ele>775</ele>
        <time>2019-10-11T13:01:28.000Z</time>
      </trkpt>
      <trkpt lat="44.22559" lon="2.9688">
        <ele>775</ele>
        <time>2019-10-11T13:01:29.000Z</time>
      </trkpt>
      <trkpt lat="44.22558" lon="2.96881">
        <ele>775</ele>
        <time>2019-10-11T13:01:30.000Z</time>
      </trkpt>
      <trkpt lat="44.22557" lon="2.96883">
        <ele>775</ele>
        <time>2019-10-11T13:01:31.000Z</time>
      </trkpt>
      <trkpt lat="44.22556" lon="2.96885">
        <ele>774</ele>
        <time>2019-10-11T13:01:32.000Z</time>
      </trkpt>
      <trkpt lat="44.22555" lon="2.96887">
        <ele>774</ele>
        <time>2019-10-11T13:01:33.000Z</time>
      </trkpt>
      <trkpt lat="44.22554" lon="2.96889">
        <ele>774</ele>
        <time>2019-10-11T13:01:34.000Z</time>
      </trkpt>
      <trkpt lat="44.22553" lon="2.9689">
        <ele>774</ele>
        <time>2019-10-11T13:01:35.000Z</time>
      </trkpt>
      <trkpt lat="44.22552" lon="2.96892">
        <ele>774</ele>
        <time>2019-10-11T13:01:36.000Z</time>
      </trkpt>
      <trkpt lat="44.22551" lon="2.96894">
        <ele>774</ele>
        <time>2019-10-11T13:01:37.000Z</time>
      </trkpt>
      <trkpt lat="44.2255" lon="2.96896">
        <ele>774</ele>
        <time>2019-10-11T13:01:38.000Z</time>
      </trkpt>
      <trkpt lat="44.22549" lon="2.96897">
        <ele>774</ele>
        <time>2019-10-11T13:01:39.000Z</time>
      </trkpt>
      <trkpt lat="44.22548" lon="2.96899">
        <ele>774</ele>
        <time>2019-10-11T13:01:40.000Z</time>
      </trkpt>
      <trkpt lat="44.22548" lon="2.96901">
        <ele>774</ele>
        <time>2019-10-11T13:01:41.000Z</time>
      </trkpt>
      <trkpt lat="44.22547" lon="2.96903">
        <ele>774</ele>
        <time>2019-10-11T13:01:42.000Z</time>
      </trkpt>
      <trkpt lat="44.22546" lon="2.96904">
        <ele>774</ele>
        <time>2019-10-11T13:01:43.000Z</time>
      </trkpt>
      <trkpt lat="44.22545" lon="2.96906">
        <ele>774</ele>
        <time>2019-10-11T13:01:44.000Z</time>
      </trkpt>
      <trkpt lat="44.22544" lon="2.96908">
        <ele>773</ele>
        <time>2019-10-11T13:01:45.000Z</time>
      </trkpt>
      <trkpt lat="44.22543" lon="2.96909">
        <ele>773</ele>
        <time>2019-10-11T13:01:46.000Z</time>
      </trkpt>
      <trkpt lat="44.22542" lon="2.96911">
        <ele>773</ele>
        <time>2019-10-11T13:01:47.000Z</time>
      </trkpt>
      <trkpt lat="44.22542" lon="2.96913">
        <ele>773</ele>
        <time>2019-10-11T13:01:48.000Z</time>
      </trkpt>
      <trkpt lat="44.22541" lon="2.96915">
        <ele>773</ele>
        <time>2019-10-11T13:01:49.000Z</time>
      </trkpt>
      <trkpt lat="44.22539" lon="2.96916">
        <ele>773</ele>
        <time>2019-10-11T13:01:50.000Z</time>
      </trkpt>
      <trkpt lat="44.22539" lon="2.96918">
        <ele>773</ele>
        <time>2019-10-11T13:01:51.000Z</time>
      </trkpt>
      <trkpt lat="44.22538" lon="2.9692">
        <ele>773</ele>
        <time>2019-10-11T13:01:52.000Z</time>
      </trkpt>
      <trkpt lat="44.22537" lon="2.96922">
        <ele>773</ele>
        <time>2019-10-11T13:01:53.000Z</time>
      </trkpt>
      <trkpt lat="44.22536" lon="2.96924">
        <ele>773</ele>
        <time>2019-10-11T13:01:54.000Z</time>
      </trkpt>
      <trkpt lat="44.22535" lon="2.96925">
        <ele>772</ele>
        <time>2019-10-11T13:01:55.000Z</time>
      </trkpt>
      <trkpt lat="44.22535" lon="2.96927">
        <ele>772</ele>
        <time>2019-10-11T13:01:56.000Z</time>
      </trkpt>
      <trkpt lat="44.22534" lon="2.96929">
        <ele>772</ele>
        <time>2019-10-11T13:01:57.000Z</time>
      </trkpt>
      <trkpt lat="44.22533" lon="2.9693">
        <ele>772</ele>
        <time>2019-10-11T13:01:58.000Z</time>
      </trkpt>
      <trkpt lat="44.22532" lon="2.96932">
        <ele>772</ele>
        <time>2019-10-11T13:01:59.000Z</time>
      </trkpt>
      <trkpt lat="44.22532" lon="2.96933">
        <ele>771</ele>
        <time>2019-10-11T13:02:00.000Z</time>
      </trkpt>
      <trkpt lat="44.22531" lon="2.96935">
        <ele>771</ele>
        <time>2019-10-11T13:02:01.000Z</time>
      </trkpt>
      <trkpt lat="44.2253" lon="2.96937">
        <ele>771</ele>
        <time>2019-10-11T13:02:02.000Z</time>
      </trkpt>
      <trkpt lat="44.22529" lon="2.96939">
        <ele>771</ele>
        <time>2019-10-11T13:02:03.000Z</time>
      </trkpt>
      <trkpt lat="44.22528" lon="2.9694">
        <ele>771</ele>
        <time>2019-10-11T13:02:04.000Z</time>
      </trkpt>
      <trkpt lat="44.22527" lon="2.96942">
        <ele>771</ele>
        <time>2019-10-11T13:02:05.000Z</time>
      </trkpt>
      <trkpt lat="44.22526" lon="2.96944">
        <ele>771</ele>
        <time>2019-10-11T13:02:06.000Z</time>
      </trkpt>
      <trkpt lat="44.22526" lon="2.96945">
        <ele>770</ele>
        <time>2019-10-11T13:02:07.000Z</time>
      </trkpt>
      <trkpt lat="44.22525" lon="2.96947">
        <ele>770</ele>
        <time>2019-10-11T13:02:08.000Z</time>
      </trkpt>
      <trkpt lat="44.22524" lon="2.96949">
        <ele>770</ele>
        <time>2019-10-11T13:02:09.000Z</time>
      </trkpt>
      <trkpt lat="44.22523" lon="2.96951">
        <ele>770</ele>
        <time>2019-10-11T13:02:10.000Z</time>
      </trkpt>
      <trkpt lat="44.22522" lon="2.96952">
        <ele>770</ele>
        <time>2019-10-11T13:02:11.000Z</time>
      </trkpt>
      <trkpt lat="44.22521" lon="2.96954">
        <ele>770</ele>
        <time>2019-10-11T13:02:12.000Z</time>
      </trkpt>
      <trkpt lat="44.22521" lon="2.96956">
        <ele>770</ele>
        <time>2019-10-11T13:02:13.000Z</time>
      </trkpt>
      <trkpt lat="44.2252" lon="2.96957">
        <ele>770</ele>
        <time>2019-10-11T13:02:14.000Z</time>
      </trkpt>
      <trkpt lat="44.22519" lon="2.96959">
        <ele>769</ele>
        <time>2019-10-11T13:02:15.000Z</time>
      </trkpt>
      <trkpt lat="44.22518" lon="2.96961">
        <ele>769</ele>
        <time>2019-10-11T13:02:16.000Z</time>
      </trkpt>
      <trkpt lat="44.22517" lon="2.96962">
        <ele>769</ele>
        <time>2019-10-11T13:02:17.000Z</time>
      </trkpt>
      <trkpt lat="44.22516" lon="2.96964">
        <ele>769</ele>
        <time>2019-10-11T13:02:18.000Z</time>
      </trkpt>
      <trkpt lat="44.22516" lon="2.96966">
        <ele>769</ele>
        <time>2019-10-11T13:02:19.000Z</time>
      </trkpt>
      <trkpt lat="44.22515" lon="2.96967">
        <ele>769</ele>
        <time>2019-10-11T13:02:20.000Z</time>
      </trkpt>
      <trkpt lat="44.22514" lon="2.96969">
        <ele>768</ele>
        <time>2019-10-11T13:02:21.000Z</time>
      </trkpt>
      <trkpt lat="44.22513" lon="2.96971">
        <ele>768</ele>
        <time>2019-10-11T13:02:22.000Z</time>
      </trkpt>
      <trkpt lat="44.22512" lon="2.96972">
        <ele>768</ele>
        <time>2019-10-11T13:02:23.000Z</time>
      </trkpt>
      <trkpt lat="44.22511" lon="2.96974">
        <ele>768</ele>
        <time>2019-10-11T13:02:24.000Z</time>
      </trkpt>
      <trkpt lat="44.2251" lon="2.96976">
        <ele>768</ele>
        <time>2019-10-11T13:02:25.000Z</time>
      </trkpt>
      <trkpt lat="44.22509" lon="2.96978">
        <ele>768</ele>
        <time>2019-10-11T13:02:26.000Z</time>
      </trkpt>
      <trkpt lat="44.22508" lon="2.96979">
        <ele>768</ele>
        <time>2019-10-11T13:02:27.000Z</time>
      </trkpt>
      <trkpt lat="44.22507" lon="2.96981">
        <ele>768</ele>
        <time>2019-10-11T13:02:28.000Z</time>
      </trkpt>
      <trkpt lat="44.22506" lon="2.96983">
        <ele>768</ele>
        <time>2019-10-11T13:02:29.000Z</time>
      </trkpt>
      <trkpt lat="44.22505" lon="2.96984">
        <ele>768</ele>
        <time>2019-10-11T13:02:30.000Z</time>
      </trkpt>
      <trkpt lat="44.22504" lon="2.96986">
        <ele>768</ele>
        <time>2019-10-11T13:02:31.000Z</time>
      </trkpt>
      <trkpt lat="44.22503" lon="2.96987">
        <ele>768</ele>
        <time>2019-10-11T13:02:32.000Z</time>
      </trkpt>
      <trkpt lat="44.22502" lon="2.96989">
        <ele>768</ele>
        <time>2019-10-11T13:02:33.000Z</time>
      </trkpt>
      <trkpt lat="44.22501" lon="2.96991">
        <ele>768</ele>
        <time>2019-10-11T13:02:34.000Z</time>
      </trkpt>
      <trkpt lat="44.225" lon="2.96992">
        <ele>768</ele>
        <time>2019-10-11T13:02:35.000Z</time>
      </trkpt>
      <trkpt lat="44.22499" lon="2.96994">
        <ele>767</ele>
        <time>2019-10-11T13:02:36.000Z</time>
      </trkpt>
      <trkpt lat="44.22498" lon="2.96996">
        <ele>767</ele>
        <time>2019-10-11T13:02:37.000Z</time>
      </trkpt>
      <trkpt lat="44.22497" lon="2.96997">
        <ele>767</ele>
        <time>2019-10-11T13:02:38.000Z</time>
      </trkpt>
      <trkpt lat="44.22495" lon="2.96999">
        <ele>767</ele>
        <time>2019-10-11T13:02:39.000Z</time>
      </trkpt>
      <trkpt lat="44.22494" lon="2.97">
        <ele>767</ele>
        <time>2019-10-11T13:02:40.000Z</time>
      </trkpt>
      <trkpt lat="44.22493" lon="2.97002">
        <ele>767</ele>
        <time>2019-10-11T13:02:41.000Z</time>
      </trkpt>
      <trkpt lat="44.22492" lon="2.97003">
        <ele>767</ele>
        <time>2019-10-11T13:02:42.000Z</time>
      </trkpt>
      <trkpt lat="44.2249" lon="2.97005">
        <ele>767</ele>
        <time>2019-10-11T13:02:43.000Z</time>
      </trkpt>
      <trkpt lat="44.22489" lon="2.97006">
        <ele>767</ele>
        <time>2019-10-11T13:02:44.000Z</time>
      </trkpt>
      <trkpt lat="44.22488" lon="2.97008">
        <ele>767</ele>
        <time>2019-10-11T13:02:45.000Z</time>
      </trkpt>
      <trkpt lat="44.22487" lon="2.97009">
        <ele>767</ele>
        <time>2019-10-11T13:02:46.000Z</time>
      </trkpt>
      <trkpt lat="44.22485" lon="2.9701">
        <ele>767</ele>
        <time>2019-10-11T13:02:47.000Z</time>
      </trkpt>
      <trkpt lat="44.22484" lon="2.97011">
        <ele>767</ele>
        <time>2019-10-11T13:02:48.000Z</time>
      </trkpt>
      <trkpt lat="44.22482" lon="2.97013">
        <ele>767</ele>
        <time>2019-10-11T13:02:49.000Z</time>
      </trkpt>
      <trkpt lat="44.22481" lon="2.97014">
        <ele>766</ele>
        <time>2019-10-11T13:02:50.000Z</time>
      </trkpt>
      <trkpt lat="44.2248" lon="2.97015">
        <ele>766</ele>
        <time>2019-10-11T13:02:51.000Z</time>
      </trkpt>
      <trkpt lat="44.22478" lon="2.97016">
        <ele>766</ele>
        <time>2019-10-11T13:02:52.000Z</time>
      </trkpt>
      <trkpt lat="44.22477" lon="2.97018">
        <ele>766</ele>
        <time>2019-10-11T13:02:53.000Z</time>
      </trkpt>
      <trkpt lat="44.22475" lon="2.97019">
        <ele>766</ele>
        <time>2019-10-11T13:02:54.000Z</time>
      </trkpt>
      <trkpt lat="44.22474" lon="2.9702">
        <ele>766</ele>
        <time>2019-10-11T13:02:55.000Z</time>
      </trkpt>
      <trkpt lat="44.22473" lon="2.97021">
        <ele>765</ele>
        <time>2019-10-11T13:02:56.000Z</time>
      </trkpt>
      <trkpt lat="44.22471" lon="2.97023">
        <ele>765</ele>
        <time>2019-10-11T13:02:57.000Z</time>
      </trkpt>
      <trkpt lat="44.2247" lon="2.97024">
        <ele>765</ele>
        <time>2019-10-11T13:02:58.000Z</time>
      </trkpt>
      <trkpt lat="44.22468" lon="2.97025">
        <ele>765</ele>
        <time>2019-10-11T13:02:59.000Z</time>
      </trkpt>
      <trkpt lat="44.22467" lon="2.97027">
        <ele>765</ele>
        <time>2019-10-11T13:03:00.000Z</time>
      </trkpt>
      <trkpt lat="44.22466" lon="2.97028">
        <ele>765</ele>
        <time>2019-10-11T13:03:01.000Z</time>
      </trkpt>
      <trkpt lat="44.22464" lon="2.97029">
        <ele>765</ele>
        <time>2019-10-11T13:03:02.000Z</time>
      </trkpt>
      <trkpt lat="44.22463" lon="2.9703">
        <ele>765</ele>
        <time>2019-10-11T13:03:03.000Z</time>
      </trkpt>
      <trkpt lat="44.22461" lon="2.97031">
        <ele>765</ele>
        <time>2019-10-11T13:03:04.000Z</time>
      </trkpt>
      <trkpt lat="44.2246" lon="2.97033">
        <ele>765</ele>
        <time>2019-10-11T13:03:05.000Z</time>
      </trkpt>
      <trkpt lat="44.22459" lon="2.97034">
        <ele>765</ele>
        <time>2019-10-11T13:03:06.000Z</time>
      </trkpt>
      <trkpt lat="44.22457" lon="2.97035">
        <ele>765</ele>
        <time>2019-10-11T13:03:07.000Z</time>
      </trkpt>
      <trkpt lat="44.22456" lon="2.97037">
        <ele>765</ele>
        <time>2019-10-11T13:03:08.000Z</time>
      </trkpt>
      <trkpt lat="44.22455" lon="2.97038">
        <ele>765</ele>
        <time>2019-10-11T13:03:09.000Z</time>
      </trkpt>
      <trkpt lat="44.22453" lon="2.97039">
        <ele>765</ele>
        <time>2019-10-11T13:03:10.000Z</time>
      </trkpt>
      <trkpt lat="44.22452" lon="2.97041">
        <ele>765</ele>
        <time>2019-10-11T13:03:11.000Z</time>
      </trkpt>
      <trkpt lat="44.2245" lon="2.97042">
        <ele>765</ele>
        <time>2019-10-11T13:03:12.000Z</time>
      </trkpt>
      <trkpt lat="44.22449" lon="2.97043">
        <ele>765</ele>
        <time>2019-10-11T13:03:13.000Z</time>
      </trkpt>
      <trkpt lat="44.22447" lon="2.97044">
        <ele>765</ele>
        <time>2019-10-11T13:03:14.000Z</time>
      </trkpt>
      <trkpt lat="44.22446" lon="2.97045">
        <ele>765</ele>
        <time>2019-10-11T13:03:15.000Z</time>
      </trkpt>
      <trkpt lat="44.22444" lon="2.97046">
        <ele>765</ele>
        <time>2019-10-11T13:03:16.000Z</time>
      </trkpt>
      <trkpt lat="44.22443" lon="2.97048">
        <ele>765</ele>
        <time>2019-10-11T13:03:17.000Z</time>
      </trkpt>
      <trkpt lat="44.22442" lon="2.97049">
        <ele>765</ele>
        <time>2019-10-11T13:03:18.000Z</time>
      </trkpt>
      <trkpt lat="44.22441" lon="2.9705">
        <ele>765</ele>
        <time>2019-10-11T13:03:19.000Z</time>
      </trkpt>
      <trkpt lat="44.2244" lon="2.97051">
        <ele>765</ele>
        <time>2019-10-11T13:03:20.000Z</time>
      </trkpt>
      <trkpt lat="44.22439" lon="2.97052">
        <ele>765</ele>
        <time>2019-10-11T13:03:21.000Z</time>
      </trkpt>
      <trkpt lat="44.22437" lon="2.97052">
        <ele>765</ele>
        <time>2019-10-11T13:03:22.000Z</time>
      </trkpt>
      <trkpt lat="44.22436" lon="2.97053">
        <ele>765</ele>
        <time>2019-10-11T13:03:23.000Z</time>
      </trkpt>
      <trkpt lat="44.22435" lon="2.97054">
        <ele>765</ele>
        <time>2019-10-11T13:03:24.000Z</time>
      </trkpt>
      <trkpt lat="44.22433" lon="2.97055">
        <ele>765</ele>
        <time>2019-10-11T13:03:25.000Z</time>
      </trkpt>
      <trkpt lat="44.22432" lon="2.97056">
        <ele>765</ele>
        <time>2019-10-11T13:03:26.000Z</time>
      </trkpt>
      <trkpt lat="44.22431" lon="2.97057">
        <ele>765</ele>
        <time>2019-10-11T13:03:27.000Z</time>
      </trkpt>
      <trkpt lat="44.22429" lon="2.97058">
        <ele>765</ele>
        <time>2019-10-11T13:03:28.000Z</time>
      </trkpt>
      <trkpt lat="44.22428" lon="2.97059">
        <ele>765</ele>
        <time>2019-10-11T13:03:29.000Z</time>
      </trkpt>
      <trkpt lat="44.22427" lon="2.9706">
        <ele>765</ele>
        <time>2019-10-11T13:03:30.000Z</time>
      </trkpt>
      <trkpt lat="44.22426" lon="2.97061">
        <ele>765</ele>
        <time>2019-10-11T13:03:31.000Z</time>
      </trkpt>
      <trkpt lat="44.22425" lon="2.97062">
        <ele>765</ele>
        <time>2019-10-11T13:03:32.000Z</time>
      </trkpt>
      <trkpt lat="44.22424" lon="2.97063">
        <ele>765</ele>
        <time>2019-10-11T13:03:33.000Z</time>
      </trkpt>
      <trkpt lat="44.22422" lon="2.97064">
        <ele>765</ele>
        <time>2019-10-11T13:03:34.000Z</time>
      </trkpt>
      <trkpt lat="44.22421" lon="2.97065">
        <ele>765</ele>
        <time>2019-10-11T13:03:35.000Z</time>
      </trkpt>
      <trkpt lat="44.22419" lon="2.97066">
        <ele>765</ele>
        <time>2019-10-11T13:03:36.000Z</time>
      </trkpt>
      <trkpt lat="44.22418" lon="2.97067">
        <ele>765</ele>
        <time>2019-10-11T13:03:37.000Z</time>
      </trkpt>
      <trkpt lat="44.22416" lon="2.97068">
        <ele>765</ele>
        <time>2019-10-11T13:03:38.000Z</time>
      </trkpt>
      <trkpt lat="44.22415" lon="2.97069">
        <ele>765</ele>
        <time>2019-10-11T13:03:39.000Z</time>
      </trkpt>
      <trkpt lat="44.22413" lon="2.97071">
        <ele>765</ele>
        <time>2019-10-11T13:03:40.000Z</time>
      </trkpt>
      <trkpt lat="44.22411" lon="2.97071">
        <ele>765</ele>
        <time>2019-10-11T13:03:41.000Z</time>
      </trkpt>
      <trkpt lat="44.2241" lon="2.97072">
        <ele>765</ele>
        <time>2019-10-11T13:03:42.000Z</time>
      </trkpt>
      <trkpt lat="44.22408" lon="2.97073">
        <ele>765</ele>
        <time>2019-10-11T13:03:43.000Z</time>
      </trkpt>
      <trkpt lat="44.22407" lon="2.97073">
        <ele>765</ele>
        <time>2019-10-11T13:03:44.000Z</time>
      </trkpt>
      <trkpt lat="44.22405" lon="2.97074">
        <ele>766</ele>
        <time>2019-10-11T13:03:45.000Z</time>
      </trkpt>
      <trkpt lat="44.22404" lon="2.97075">
        <ele>766</ele>
        <time>2019-10-11T13:03:46.000Z</time>
      </trkpt>
      <trkpt lat="44.22402" lon="2.97075">
        <ele>766</ele>
        <time>2019-10-11T13:03:47.000Z</time>
      </trkpt>
      <trkpt lat="44.224" lon="2.97076">
        <ele>766</ele>
        <time>2019-10-11T13:03:48.000Z</time>
      </trkpt>
      <trkpt lat="44.22399" lon="2.97076">
        <ele>766</ele>
        <time>2019-10-11T13:03:49.000Z</time>
      </trkpt>
      <trkpt lat="44.22397" lon="2.97077">
        <ele>766</ele>
        <time>2019-10-11T13:03:50.000Z</time>
      </trkpt>
      <trkpt lat="44.22395" lon="2.97077">
        <ele>766</ele>
        <time>2019-10-11T13:03:51.000Z</time>
      </trkpt>
      <trkpt lat="44.22394" lon="2.97078">
        <ele>766</ele>
        <time>2019-10-11T13:03:52.000Z</time>
      </trkpt>
      <trkpt lat="44.22392" lon="2.97078">
        <ele>766</ele>
        <time>2019-10-11T13:03:53.000Z</time>
      </trkpt>
      <trkpt lat="44.2239" lon="2.97079">
        <ele>766</ele>
        <time>2019-10-11T13:03:54.000Z</time>
      </trkpt>
      <trkpt lat="44.22389" lon="2.9708">
        <ele>766</ele>
        <time>2019-10-11T13:03:55.000Z</time>
      </trkpt>
      <trkpt lat="44.22387" lon="2.9708">
        <ele>767</ele>
        <time>2019-10-11T13:03:56.000Z</time>
      </trkpt>
      <trkpt lat="44.22385" lon="2.9708">
        <ele>767</ele>
        <time>2019-10-11T13:03:57.000Z</time>
      </trkpt>
      <trkpt lat="44.22384" lon="2.97081">
        <ele>766</ele>
        <time>2019-10-11T13:03:58.000Z</time>
      </trkpt>
      <trkpt lat="44.22382" lon="2.97081">
        <ele>766</ele>
        <time>2019-10-11T13:03:59.000Z</time>
      </trkpt>
      <trkpt lat="44.2238" lon="2.97082">
        <ele>766</ele>
        <time>2019-10-11T13:04:00.000Z</time>
      </trkpt>
      <trkpt lat="44.22378" lon="2.97082">
        <ele>766</ele>
        <time>2019-10-11T13:04:01.000Z</time>
      </trkpt>
      <trkpt lat="44.22377" lon="2.97083">
        <ele>766</ele>
        <time>2019-10-11T13:04:02.000Z</time>
      </trkpt>
      <trkpt lat="44.22375" lon="2.97083">
        <ele>766</ele>
        <time>2019-10-11T13:04:03.000Z</time>
      </trkpt>
      <trkpt lat="44.22373" lon="2.97084">
        <ele>766</ele>
        <time>2019-10-11T13:04:04.000Z</time>
      </trkpt>
      <trkpt lat="44.22372" lon="2.97085">
        <ele>766</ele>
        <time>2019-10-11T13:04:05.000Z</time>
      </trkpt>
      <trkpt lat="44.2237" lon="2.97086">
        <ele>766</ele>
        <time>2019-10-11T13:04:06.000Z</time>
      </trkpt>
      <trkpt lat="44.22369" lon="2.97087">
        <ele>766</ele>
        <time>2019-10-11T13:04:07.000Z</time>
      </trkpt>
      <trkpt lat="44.22367" lon="2.97088">
        <ele>766</ele>
        <time>2019-10-11T13:04:08.000Z</time>
      </trkpt>
      <trkpt lat="44.22366" lon="2.97089">
        <ele>766</ele>
        <time>2019-10-11T13:04:09.000Z</time>
      </trkpt>
      <trkpt lat="44.22364" lon="2.9709">
        <ele>765</ele>
        <time>2019-10-11T13:04:10.000Z</time>
      </trkpt>
      <trkpt lat="44.22363" lon="2.97091">
        <ele>765</ele>
        <time>2019-10-11T13:04:11.000Z</time>
      </trkpt>
      <trkpt lat="44.22362" lon="2.97093">
        <ele>765</ele>
        <time>2019-10-11T13:04:12.000Z</time>
      </trkpt>
      <trkpt lat="44.22361" lon="2.97095">
        <ele>765</ele>
        <time>2019-10-11T13:04:13.000Z</time>
      </trkpt>
      <trkpt lat="44.2236" lon="2.97096">
        <ele>765</ele>
        <time>2019-10-11T13:04:14.000Z</time>
      </trkpt>
      <trkpt lat="44.22358" lon="2.97098">
        <ele>765</ele>
        <time>2019-10-11T13:04:15.000Z</time>
      </trkpt>
      <trkpt lat="44.22357" lon="2.971">
        <ele>765</ele>
        <time>2019-10-11T13:04:16.000Z</time>
      </trkpt>
      <trkpt lat="44.22357" lon="2.97102">
        <ele>765</ele>
        <time>2019-10-11T13:04:17.000Z</time>
      </trkpt>
      <trkpt lat="44.22356" lon="2.97104">
        <ele>765</ele>
        <time>2019-10-11T13:04:18.000Z</time>
      </trkpt>
      <trkpt lat="44.22355" lon="2.97106">
        <ele>765</ele>
        <time>2019-10-11T13:04:19.000Z</time>
      </trkpt>
      <trkpt lat="44.22355" lon="2.97108">
        <ele>765</ele>
        <time>2019-10-11T13:04:20.000Z</time>
      </trkpt>
      <trkpt lat="44.22354" lon="2.9711">
        <ele>765</ele>
        <time>2019-10-11T13:04:21.000Z</time>
      </trkpt>
      <trkpt lat="44.22354" lon="2.97112">
        <ele>764</ele>
        <time>2019-10-11T13:04:22.000Z</time>
      </trkpt>
      <trkpt lat="44.22353" lon="2.97114">
        <ele>764</ele>
        <time>2019-10-11T13:04:23.000Z</time>
      </trkpt>
      <trkpt lat="44.22352" lon="2.97116">
        <ele>764</ele>
        <time>2019-10-11T13:04:24.000Z</time>
      </trkpt>
      <trkpt lat="44.22352" lon="2.97117">
        <ele>764</ele>
        <time>2019-10-11T13:04:25.000Z</time>
      </trkpt>
      <trkpt lat="44.22352" lon="2.97117">
        <ele>764</ele>
        <time>2019-10-11T13:04:26.000Z</time>
      </trkpt>
      <trkpt lat="44.22352" lon="2.97118">
        <ele>764</ele>
        <time>2019-10-11T13:04:27.000Z</time>
      </trkpt>
      <trkpt lat="44.22351" lon="2.97118">
        <ele>764</ele>
        <time>2019-10-11T13:04:28.000Z</time>
      </trkpt>
      <trkpt lat="44.22351" lon="2.97119">
        <ele>764</ele>
        <time>2019-10-11T13:04:29.000Z</time>
      </trkpt>
      <trkpt lat="44.22351" lon="2.9712">
        <ele>764</ele>
        <time>2019-10-11T13:04:30.000Z</time>
      </trkpt>
      <trkpt lat="44.2235" lon="2.97122">
        <ele>764</ele>
        <time>2019-10-11T13:04:31.000Z</time>
      </trkpt>
      <trkpt lat="44.22351" lon="2.97123">
        <ele>764</ele>
        <time>2019-10-11T13:04:32.000Z</time>
      </trkpt>
      <trkpt lat="44.22351" lon="2.97125">
        <ele>764</ele>
        <time>2019-10-11T13:04:33.000Z</time>
      </trkpt>
      <trkpt lat="44.22351" lon="2.97127">
        <ele>764</ele>
        <time>2019-10-11T13:04:34.000Z</time>
      </trkpt>
      <trkpt lat="44.22351" lon="2.97128">
        <ele>764</ele>
        <time>2019-10-11T13:04:35.000Z</time>
      </trkpt>
      <trkpt lat="44.22351" lon="2.97129">
        <ele>764</ele>
        <time>2019-10-11T13:04:36.000Z</time>
      </trkpt>
      <trkpt lat="44.22352" lon="2.97129">
        <ele>764</ele>
        <time>2019-10-11T13:04:37.000Z</time>
      </trkpt>
      <trkpt lat="44.22352" lon="2.97131">
        <ele>764</ele>
        <time>2019-10-11T13:04:38.000Z</time>
      </trkpt>
      <trkpt lat="44.22352" lon="2.97132">
        <ele>764</ele>
        <time>2019-10-11T13:04:39.000Z</time>
      </trkpt>
      <trkpt lat="44.22353" lon="2.97134">
        <ele>764</ele>
        <time>2019-10-11T13:04:40.000Z</time>
      </trkpt>
      <trkpt lat="44.22353" lon="2.97136">
        <ele>764</ele>
        <time>2019-10-11T13:04:41.000Z</time>
      </trkpt>
      <trkpt lat="44.22353" lon="2.97137">
        <ele>764</ele>
        <time>2019-10-11T13:04:42.000Z</time>
      </trkpt>
      <trkpt lat="44.22353" lon="2.97139">
        <ele>764</ele>
        <time>2019-10-11T13:04:43.000Z</time>
      </trkpt>
      <trkpt lat="44.22353" lon="2.97141">
        <ele>764</ele>
        <time>2019-10-11T13:04:44.000Z</time>
      </trkpt>
      <trkpt lat="44.22354" lon="2.97143">
        <ele>764</ele>
        <time>2019-10-11T13:04:45.000Z</time>
      </trkpt>
      <trkpt lat="44.22354" lon="2.97145">
        <ele>764</ele>
        <time>2019-10-11T13:04:46.000Z</time>
      </trkpt>
      <trkpt lat="44.22355" lon="2.97146">
        <ele>764</ele>
        <time>2019-10-11T13:04:47.000Z</time>
      </trkpt>
      <trkpt lat="44.22355" lon="2.97148">
        <ele>764</ele>
        <time>2019-10-11T13:04:48.000Z</time>
      </trkpt>
      <trkpt lat="44.22356" lon="2.9715">
        <ele>764</ele>
        <time>2019-10-11T13:04:49.000Z</time>
      </trkpt>
      <trkpt lat="44.22356" lon="2.97152">
        <ele>764</ele>
        <time>2019-10-11T13:04:50.000Z</time>
      </trkpt>
      <trkpt lat="44.22357" lon="2.97154">
        <ele>764</ele>
        <time>2019-10-11T13:04:51.000Z</time>
      </trkpt>
      <trkpt lat="44.22357" lon="2.97156">
        <ele>764</ele>
        <time>2019-10-11T13:04:52.000Z</time>
      </trkpt>
      <trkpt lat="44.22357" lon="2.97158">
        <ele>764</ele>
        <time>2019-10-11T13:04:53.000Z</time>
      </trkpt>
      <trkpt lat="44.22358" lon="2.9716">
        <ele>764</ele>
        <time>2019-10-11T13:04:54.000Z</time>
      </trkpt>
      <trkpt lat="44.22358" lon="2.97162">
        <ele>764</ele>
        <time>2019-10-11T13:04:55.000Z</time>
      </trkpt>
      <trkpt lat="44.22359" lon="2.97164">
        <ele>764</ele>
        <time>2019-10-11T13:04:56.000Z</time>
      </trkpt>
      <trkpt lat="44.22359" lon="2.97166">
        <ele>764</ele>
        <time>2019-10-11T13:04:57.000Z</time>
      </trkpt>
      <trkpt lat="44.2236" lon="2.97167">
        <ele>764</ele>
        <time>2019-10-11T13:04:58.000Z</time>
      </trkpt>
      <trkpt lat="44.2236" lon="2.97169">
        <ele>764</ele>
        <time>2019-10-11T13:04:59.000Z</time>
      </trkpt>
      <trkpt lat="44.2236" lon="2.97171">
        <ele>764</ele>
        <time>2019-10-11T13:05:00.000Z</time>
      </trkpt>
      <trkpt lat="44.22361" lon="2.97173">
        <ele>764</ele>
        <time>2019-10-11T13:05:01.000Z</time>
      </trkpt>
      <trkpt lat="44.22361" lon="2.97175">
        <ele>764</ele>
        <time>2019-10-11T13:05:02.000Z</time>
      </trkpt>
      <trkpt lat="44.22361" lon="2.97177">
        <ele>764</ele>
        <time>2019-10-11T13:05:03.000Z</time>
      </trkpt>
      <trkpt lat="44.22362" lon="2.97179">
        <ele>764</ele>
        <time>2019-10-11T13:05:04.000Z</time>
      </trkpt>
      <trkpt lat="44.22362" lon="2.97181">
        <ele>764</ele>
        <time>2019-10-11T13:05:05.000Z</time>
      </trkpt>
      <trkpt lat="44.22362" lon="2.97183">
        <ele>764</ele>
        <time>2019-10-11T13:05:06.000Z</time>
      </trkpt>
      <trkpt lat="44.22363" lon="2.97185">
        <ele>764</ele>
        <time>2019-10-11T13:05:07.000Z</time>
      </trkpt>
      <trkpt lat="44.22363" lon="2.97187">
        <ele>764</ele>
        <time>2019-10-11T13:05:08.000Z</time>
      </trkpt>
      <trkpt lat="44.22363" lon="2.97189">
        <ele>764</ele>
        <time>2019-10-11T13:05:09.000Z</time>
      </trkpt>
      <trkpt lat="44.22363" lon="2.9719">
        <ele>764</ele>
        <time>2019-10-11T13:05:10.000Z</time>
      </trkpt>
      <trkpt lat="44.22363" lon="2.97193">
        <ele>764</ele>
        <time>2019-10-11T13:05:11.000Z</time>
      </trkpt>
      <trkpt lat="44.22364" lon="2.97195">
        <ele>764</ele>
        <time>2019-10-11T13:05:12.000Z</time>
      </trkpt>
      <trkpt lat="44.22364" lon="2.97197">
        <ele>764</ele>
        <time>2019-10-11T13:05:13.000Z</time>
      </trkpt>
      <trkpt lat="44.22364" lon="2.97199">
        <ele>764</ele>
        <time>2019-10-11T13:05:14.000Z</time>
      </trkpt>
      <trkpt lat="44.22364" lon="2.97201">
        <ele>764</ele>
        <time>2019-10-11T13:05:15.000Z</time>
      </trkpt>
      <trkpt lat="44.22364" lon="2.97203">
        <ele>764</ele>
        <time>2019-10-11T13:05:16.000Z</time>
      </trkpt>
      <trkpt lat="44.22365" lon="2.97205">
        <ele>764</ele>
        <time>2019-10-11T13:05:17.000Z</time>
      </trkpt>
      <trkpt lat="44.22365" lon="2.97207">
        <ele>764</ele>
        <time>2019-10-11T13:05:18.000Z</time>
      </trkpt>
      <trkpt lat="44.22365" lon="2.97208">
        <ele>764</ele>
        <time>2019-10-11T13:05:19.000Z</time>
      </trkpt>
      <trkpt lat="44.22365" lon="2.9721">
        <ele>764</ele>
        <time>2019-10-11T13:05:20.000Z</time>
      </trkpt>
      <trkpt lat="44.22365" lon="2.97212">
        <ele>764</ele>
        <time>2019-10-11T13:05:21.000Z</time>
      </trkpt>
      <trkpt lat="44.22365" lon="2.97214">
        <ele>764</ele>
        <time>2019-10-11T13:05:22.000Z</time>
      </trkpt>
      <trkpt lat="44.22365" lon="2.97216">
        <ele>764</ele>
        <time>2019-10-11T13:05:23.000Z</time>
      </trkpt>
      <trkpt lat="44.22365" lon="2.97218">
        <ele>764</ele>
        <time>2019-10-11T13:05:24.000Z</time>
      </trkpt>
      <trkpt lat="44.22365" lon="2.9722">
        <ele>764</ele>
        <time>2019-10-11T13:05:25.000Z</time>
      </trkpt>
      <trkpt lat="44.22365" lon="2.97222">
        <ele>764</ele>
        <time>2019-10-11T13:05:26.000Z</time>
      </trkpt>
      <trkpt lat="44.22365" lon="2.97224">
        <ele>764</ele>
        <time>2019-10-11T13:05:27.000Z</time>
      </trkpt>
      <trkpt lat="44.22365" lon="2.97226">
        <ele>764</ele>
        <time>2019-10-11T13:05:28.000Z</time>
      </trkpt>
      <trkpt lat="44.22365" lon="2.97228">
        <ele>763</ele>
        <time>2019-10-11T13:05:29.000Z</time>
      </trkpt>
      <trkpt lat="44.22365" lon="2.9723">
        <ele>763</ele>
        <time>2019-10-11T13:05:30.000Z</time>
      </trkpt>
      <trkpt lat="44.22365" lon="2.97232">
        <ele>763</ele>
        <time>2019-10-11T13:05:31.000Z</time>
      </trkpt>
      <trkpt lat="44.22365" lon="2.97234">
        <ele>763</ele>
        <time>2019-10-11T13:05:32.000Z</time>
      </trkpt>
      <trkpt lat="44.22365" lon="2.97236">
        <ele>763</ele>
        <time>2019-10-11T13:05:33.000Z</time>
      </trkpt>
      <trkpt lat="44.22365" lon="2.97238">
        <ele>763</ele>
        <time>2019-10-11T13:05:34.000Z</time>
      </trkpt>
      <trkpt lat="44.22365" lon="2.9724">
        <ele>763</ele>
        <time>2019-10-11T13:05:35.000Z</time>
      </trkpt>
      <trkpt lat="44.22365" lon="2.97242">
        <ele>763</ele>
        <time>2019-10-11T13:05:36.000Z</time>
      </trkpt>
      <trkpt lat="44.22365" lon="2.97244">
        <ele>763</ele>
        <time>2019-10-11T13:05:37.000Z</time>
      </trkpt>
      <trkpt lat="44.22364" lon="2.97246">
        <ele>763</ele>
        <time>2019-10-11T13:05:38.000Z</time>
      </trkpt>
      <trkpt lat="44.22364" lon="2.97248">
        <ele>763</ele>
        <time>2019-10-11T13:05:39.000Z</time>
      </trkpt>
      <trkpt lat="44.22364" lon="2.9725">
        <ele>762</ele>
        <time>2019-10-11T13:05:40.000Z</time>
      </trkpt>
      <trkpt lat="44.22364" lon="2.97252">
        <ele>762</ele>
        <time>2019-10-11T13:05:41.000Z</time>
      </trkpt>
      <trkpt lat="44.22364" lon="2.97254">
        <ele>762</ele>
        <time>2019-10-11T13:05:42.000Z</time>
      </trkpt>
      <trkpt lat="44.22365" lon="2.97256">
        <ele>762</ele>
        <time>2019-10-11T13:05:43.000Z</time>
      </trkpt>
      <trkpt lat="44.22365" lon="2.97258">
        <ele>762</ele>
        <time>2019-10-11T13:05:44.000Z</time>
      </trkpt>
      <trkpt lat="44.22365" lon="2.9726">
        <ele>762</ele>
        <time>2019-10-11T13:05:45.000Z</time>
      </trkpt>
      <trkpt lat="44.22365" lon="2.97262">
        <ele>762</ele>
        <time>2019-10-11T13:05:46.000Z</time>
      </trkpt>
      <trkpt lat="44.22366" lon="2.97264">
        <ele>762</ele>
        <time>2019-10-11T13:05:47.000Z</time>
      </trkpt>
      <trkpt lat="44.22366" lon="2.97266">
        <ele>761</ele>
        <time>2019-10-11T13:05:48.000Z</time>
      </trkpt>
      <trkpt lat="44.22366" lon="2.97268">
        <ele>761</ele>
        <time>2019-10-11T13:05:49.000Z</time>
      </trkpt>
      <trkpt lat="44.22366" lon="2.9727">
        <ele>761</ele>
        <time>2019-10-11T13:05:50.000Z</time>
      </trkpt>
      <trkpt lat="44.22367" lon="2.97272">
        <ele>761</ele>
        <time>2019-10-11T13:05:51.000Z</time>
      </trkpt>
      <trkpt lat="44.22367" lon="2.97274">
        <ele>761</ele>
        <time>2019-10-11T13:05:52.000Z</time>
      </trkpt>
      <trkpt lat="44.22368" lon="2.97276">
        <ele>761</ele>
        <time>2019-10-11T13:05:53.000Z</time>
      </trkpt>
      <trkpt lat="44.22368" lon="2.97278">
        <ele>761</ele>
        <time>2019-10-11T13:05:54.000Z</time>
      </trkpt>
      <trkpt lat="44.22368" lon="2.9728">
        <ele>761</ele>
        <time>2019-10-11T13:05:55.000Z</time>
      </trkpt>
      <trkpt lat="44.22369" lon="2.97282">
        <ele>760</ele>
        <time>2019-10-11T13:05:56.000Z</time>
      </trkpt>
      <trkpt lat="44.22369" lon="2.97284">
        <ele>760</ele>
        <time>2019-10-11T13:05:57.000Z</time>
      </trkpt>
      <trkpt lat="44.2237" lon="2.97286">
        <ele>760</ele>
        <time>2019-10-11T13:05:58.000Z</time>
      </trkpt>
      <trkpt lat="44.2237" lon="2.97288">
        <ele>760</ele>
        <time>2019-10-11T13:05:59.000Z</time>
      </trkpt>
      <trkpt lat="44.2237" lon="2.9729">
        <ele>760</ele>
        <time>2019-10-11T13:06:00.000Z</time>
      </trkpt>
      <trkpt lat="44.22371" lon="2.97292">
        <ele>759</ele>
        <time>2019-10-11T13:06:01.000Z</time>
      </trkpt>
      <trkpt lat="44.22371" lon="2.97295">
        <ele>759</ele>
        <time>2019-10-11T13:06:02.000Z</time>
      </trkpt>
      <trkpt lat="44.22372" lon="2.97297">
        <ele>759</ele>
        <time>2019-10-11T13:06:03.000Z</time>
      </trkpt>
      <trkpt lat="44.22372" lon="2.97299">
        <ele>759</ele>
        <time>2019-10-11T13:06:04.000Z</time>
      </trkpt>
      <trkpt lat="44.22372" lon="2.97301">
        <ele>759</ele>
        <time>2019-10-11T13:06:05.000Z</time>
      </trkpt>
      <trkpt lat="44.22372" lon="2.97304">
        <ele>759</ele>
        <time>2019-10-11T13:06:06.000Z</time>
      </trkpt>
      <trkpt lat="44.22373" lon="2.97306">
        <ele>758</ele>
        <time>2019-10-11T13:06:07.000Z</time>
      </trkpt>
      <trkpt lat="44.22373" lon="2.97308">
        <ele>758</ele>
        <time>2019-10-11T13:06:08.000Z</time>
      </trkpt>
      <trkpt lat="44.22373" lon="2.9731">
        <ele>758</ele>
        <time>2019-10-11T13:06:09.000Z</time>
      </trkpt>
      <trkpt lat="44.22374" lon="2.97312">
        <ele>758</ele>
        <time>2019-10-11T13:06:10.000Z</time>
      </trkpt>
      <trkpt lat="44.22375" lon="2.97314">
        <ele>758</ele>
        <time>2019-10-11T13:06:11.000Z</time>
      </trkpt>
      <trkpt lat="44.22376" lon="2.97315">
        <ele>757</ele>
        <time>2019-10-11T13:06:12.000Z</time>
      </trkpt>
      <trkpt lat="44.22377" lon="2.97316">
        <ele>757</ele>
        <time>2019-10-11T13:06:13.000Z</time>
      </trkpt>
      <trkpt lat="44.22378" lon="2.97317">
        <ele>757</ele>
        <time>2019-10-11T13:06:14.000Z</time>
      </trkpt>
      <trkpt lat="44.22379" lon="2.97317">
        <ele>757</ele>
        <time>2019-10-11T13:06:15.000Z</time>
      </trkpt>
      <trkpt lat="44.2238" lon="2.97316">
        <ele>756</ele>
        <time>2019-10-11T13:06:16.000Z</time>
      </trkpt>
      <trkpt lat="44.22381" lon="2.97316">
        <ele>756</ele>
        <time>2019-10-11T13:06:17.000Z</time>
      </trkpt>
      <trkpt lat="44.22383" lon="2.97315">
        <ele>756</ele>
        <time>2019-10-11T13:06:18.000Z</time>
      </trkpt>
      <trkpt lat="44.22384" lon="2.97313">
        <ele>756</ele>
        <time>2019-10-11T13:06:19.000Z</time>
      </trkpt>
      <trkpt lat="44.22385" lon="2.97312">
        <ele>756</ele>
        <time>2019-10-11T13:06:20.000Z</time>
      </trkpt>
      <trkpt lat="44.22386" lon="2.9731">
        <ele>755</ele>
        <time>2019-10-11T13:06:21.000Z</time>
      </trkpt>
      <trkpt lat="44.22387" lon="2.97309">
        <ele>755</ele>
        <time>2019-10-11T13:06:22.000Z</time>
      </trkpt>
      <trkpt lat="44.22388" lon="2.97307">
        <ele>755</ele>
        <time>2019-10-11T13:06:23.000Z</time>
      </trkpt>
      <trkpt lat="44.22389" lon="2.97305">
        <ele>755</ele>
        <time>2019-10-11T13:06:24.000Z</time>
      </trkpt>
      <trkpt lat="44.2239" lon="2.97304">
        <ele>755</ele>
        <time>2019-10-11T13:06:25.000Z</time>
      </trkpt>
      <trkpt lat="44.22391" lon="2.97302">
        <ele>755</ele>
        <time>2019-10-11T13:06:26.000Z</time>
      </trkpt>
      <trkpt lat="44.22393" lon="2.97301">
        <ele>754</ele>
        <time>2019-10-11T13:06:27.000Z</time>
      </trkpt>
      <trkpt lat="44.22394" lon="2.97299">
        <ele>754</ele>
        <time>2019-10-11T13:06:28.000Z</time>
      </trkpt>
      <trkpt lat="44.22395" lon="2.97298">
        <ele>754</ele>
        <time>2019-10-11T13:06:29.000Z</time>
      </trkpt>
      <trkpt lat="44.22396" lon="2.97297">
        <ele>754</ele>
        <time>2019-10-11T13:06:30.000Z</time>
      </trkpt>
      <trkpt lat="44.22398" lon="2.97295">
        <ele>754</ele>
        <time>2019-10-11T13:06:31.000Z</time>
      </trkpt>
      <trkpt lat="44.22399" lon="2.97293">
        <ele>754</ele>
        <time>2019-10-11T13:06:32.000Z</time>
      </trkpt>
      <trkpt lat="44.224" lon="2.97292">
        <ele>754</ele>
        <time>2019-10-11T13:06:33.000Z</time>
      </trkpt>
      <trkpt lat="44.22401" lon="2.9729">
        <ele>754</ele>
        <time>2019-10-11T13:06:34.000Z</time>
      </trkpt>
      <trkpt lat="44.22402" lon="2.97289">
        <ele>753</ele>
        <time>2019-10-11T13:06:35.000Z</time>
      </trkpt>
      <trkpt lat="44.22404" lon="2.97287">
        <ele>753</ele>
        <time>2019-10-11T13:06:36.000Z</time>
      </trkpt>
      <trkpt lat="44.22405" lon="2.97286">
        <ele>753</ele>
        <time>2019-10-11T13:06:37.000Z</time>
      </trkpt>
      <trkpt lat="44.22406" lon="2.97285">
        <ele>753</ele>
        <time>2019-10-11T13:06:38.000Z</time>
      </trkpt>
      <trkpt lat="44.22407" lon="2.97284">
        <ele>753</ele>
        <time>2019-10-11T13:06:39.000Z</time>
      </trkpt>
      <trkpt lat="44.22408" lon="2.97282">
        <ele>753</ele>
        <time>2019-10-11T13:06:40.000Z</time>
      </trkpt>
      <trkpt lat="44.2241" lon="2.97281">
        <ele>753</ele>
        <time>2019-10-11T13:06:41.000Z</time>
      </trkpt>
      <trkpt lat="44.22411" lon="2.9728">
        <ele>753</ele>
        <time>2019-10-11T13:06:42.000Z</time>
      </trkpt>
      <trkpt lat="44.22412" lon="2.97278">
        <ele>753</ele>
        <time>2019-10-11T13:06:43.000Z</time>
      </trkpt>
      <trkpt lat="44.22413" lon="2.97276">
        <ele>753</ele>
        <time>2019-10-11T13:06:44.000Z</time>
      </trkpt>
      <trkpt lat="44.22413" lon="2.97274">
        <ele>753</ele>
        <time>2019-10-11T13:06:45.000Z</time>
      </trkpt>
      <trkpt lat="44.22414" lon="2.97273">
        <ele>753</ele>
        <time>2019-10-11T13:06:46.000Z</time>
      </trkpt>
      <trkpt lat="44.22415" lon="2.97271">
        <ele>753</ele>
        <time>2019-10-11T13:06:47.000Z</time>
      </trkpt>
      <trkpt lat="44.22416" lon="2.97269">
        <ele>753</ele>
        <time>2019-10-11T13:06:48.000Z</time>
      </trkpt>
      <trkpt lat="44.22418" lon="2.97267">
        <ele>753</ele>
        <time>2019-10-11T13:06:49.000Z</time>
      </trkpt>
      <trkpt lat="44.22419" lon="2.97265">
        <ele>753</ele>
        <time>2019-10-11T13:06:50.000Z</time>
      </trkpt>
      <trkpt lat="44.2242" lon="2.97264">
        <ele>754</ele>
        <time>2019-10-11T13:06:51.000Z</time>
      </trkpt>
      <trkpt lat="44.22421" lon="2.97262">
        <ele>754</ele>
        <time>2019-10-11T13:06:52.000Z</time>
      </trkpt>
      <trkpt lat="44.22422" lon="2.9726">
        <ele>754</ele>
        <time>2019-10-11T13:06:53.000Z</time>
      </trkpt>
      <trkpt lat="44.22423" lon="2.97258">
        <ele>754</ele>
        <time>2019-10-11T13:06:54.000Z</time>
      </trkpt>
      <trkpt lat="44.22424" lon="2.97257">
        <ele>754</ele>
        <time>2019-10-11T13:06:55.000Z</time>
      </trkpt>
      <trkpt lat="44.22425" lon="2.97255">
        <ele>754</ele>
        <time>2019-10-11T13:06:56.000Z</time>
      </trkpt>
      <trkpt lat="44.22426" lon="2.97253">
        <ele>754</ele>
        <time>2019-10-11T13:06:57.000Z</time>
      </trkpt>
      <trkpt lat="44.22427" lon="2.97251">
        <ele>754</ele>
        <time>2019-10-11T13:06:58.000Z</time>
      </trkpt>
      <trkpt lat="44.22428" lon="2.97249">
        <ele>754</ele>
        <time>2019-10-11T13:06:59.000Z</time>
      </trkpt>
      <trkpt lat="44.22429" lon="2.97248">
        <ele>754</ele>
        <time>2019-10-11T13:07:00.000Z</time>
      </trkpt>
      <trkpt lat="44.2243" lon="2.97246">
        <ele>754</ele>
        <time>2019-10-11T13:07:01.000Z</time>
      </trkpt>
      <trkpt lat="44.22432" lon="2.97245">
        <ele>754</ele>
        <time>2019-10-11T13:07:02.000Z</time>
      </trkpt>
      <trkpt lat="44.22433" lon="2.97243">
        <ele>754</ele>
        <time>2019-10-11T13:07:03.000Z</time>
      </trkpt>
      <trkpt lat="44.22435" lon="2.97242">
        <ele>755</ele>
        <time>2019-10-11T13:07:04.000Z</time>
      </trkpt>
      <trkpt lat="44.22436" lon="2.97241">
        <ele>755</ele>
        <time>2019-10-11T13:07:05.000Z</time>
      </trkpt>
      <trkpt lat="44.22437" lon="2.9724">
        <ele>755</ele>
        <time>2019-10-11T13:07:06.000Z</time>
      </trkpt>
      <trkpt lat="44.22439" lon="2.97239">
        <ele>755</ele>
        <time>2019-10-11T13:07:07.000Z</time>
      </trkpt>
      <trkpt lat="44.2244" lon="2.97237">
        <ele>755</ele>
        <time>2019-10-11T13:07:08.000Z</time>
      </trkpt>
      <trkpt lat="44.22441" lon="2.97235">
        <ele>755</ele>
        <time>2019-10-11T13:07:09.000Z</time>
      </trkpt>
      <trkpt lat="44.22442" lon="2.97234">
        <ele>755</ele>
        <time>2019-10-11T13:07:10.000Z</time>
      </trkpt>
      <trkpt lat="44.22443" lon="2.97233">
        <ele>756</ele>
        <time>2019-10-11T13:07:11.000Z</time>
      </trkpt>
      <trkpt lat="44.22445" lon="2.97231">
        <ele>756</ele>
        <time>2019-10-11T13:07:12.000Z</time>
      </trkpt>
      <trkpt lat="44.22446" lon="2.9723">
        <ele>756</ele>
        <time>2019-10-11T13:07:13.000Z</time>
      </trkpt>
      <trkpt lat="44.22447" lon="2.97228">
        <ele>756</ele>
        <time>2019-10-11T13:07:14.000Z</time>
      </trkpt>
      <trkpt lat="44.22448" lon="2.97227">
        <ele>756</ele>
        <time>2019-10-11T13:07:15.000Z</time>
      </trkpt>
      <trkpt lat="44.2245" lon="2.97226">
        <ele>756</ele>
        <time>2019-10-11T13:07:16.000Z</time>
      </trkpt>
      <trkpt lat="44.22452" lon="2.97225">
        <ele>756</ele>
        <time>2019-10-11T13:07:17.000Z</time>
      </trkpt>
      <trkpt lat="44.22453" lon="2.97225">
        <ele>756</ele>
        <time>2019-10-11T13:07:18.000Z</time>
      </trkpt>
      <trkpt lat="44.22455" lon="2.97225">
        <ele>756</ele>
        <time>2019-10-11T13:07:19.000Z</time>
      </trkpt>
      <trkpt lat="44.22456" lon="2.97224">
        <ele>756</ele>
        <time>2019-10-11T13:07:20.000Z</time>
      </trkpt>
      <trkpt lat="44.22458" lon="2.97224">
        <ele>756</ele>
        <time>2019-10-11T13:07:21.000Z</time>
      </trkpt>
      <trkpt lat="44.22459" lon="2.97223">
        <ele>757</ele>
        <time>2019-10-11T13:07:22.000Z</time>
      </trkpt>
      <trkpt lat="44.2246" lon="2.97223">
        <ele>757</ele>
        <time>2019-10-11T13:07:23.000Z</time>
      </trkpt>
      <trkpt lat="44.22462" lon="2.97222">
        <ele>757</ele>
        <time>2019-10-11T13:07:24.000Z</time>
      </trkpt>
      <trkpt lat="44.22463" lon="2.97222">
        <ele>757</ele>
        <time>2019-10-11T13:07:25.000Z</time>
      </trkpt>
      <trkpt lat="44.22464" lon="2.97221">
        <ele>757</ele>
        <time>2019-10-11T13:07:26.000Z</time>
      </trkpt>
      <trkpt lat="44.22465" lon="2.9722">
        <ele>758</ele>
        <time>2019-10-11T13:07:27.000Z</time>
      </trkpt>
      <trkpt lat="44.22466" lon="2.97219">
        <ele>758</ele>
        <time>2019-10-11T13:07:28.000Z</time>
      </trkpt>
      <trkpt lat="44.22468" lon="2.97219">
        <ele>758</ele>
        <time>2019-10-11T13:07:29.000Z</time>
      </trkpt>
      <trkpt lat="44.22469" lon="2.97218">
        <ele>758</ele>
        <time>2019-10-11T13:07:30.000Z</time>
      </trkpt>
      <trkpt lat="44.2247" lon="2.97217">
        <ele>758</ele>
        <time>2019-10-11T13:07:31.000Z</time>
      </trkpt>
      <trkpt lat="44.22471" lon="2.97217">
        <ele>758</ele>
        <time>2019-10-11T13:07:32.000Z</time>
      </trkpt>
      <trkpt lat="44.22472" lon="2.97216">
        <ele>759</ele>
        <time>2019-10-11T13:07:33.000Z</time>
      </trkpt>
      <trkpt lat="44.22474" lon="2.97216">
        <ele>759</ele>
        <time>2019-10-11T13:07:34.000Z</time>
      </trkpt>
      <trkpt lat="44.22475" lon="2.97215">
        <ele>759</ele>
        <time>2019-10-11T13:07:35.000Z</time>
      </trkpt>
      <trkpt lat="44.22476" lon="2.97215">
        <ele>759</ele>
        <time>2019-10-11T13:07:36.000Z</time>
      </trkpt>
      <trkpt lat="44.22477" lon="2.97215">
        <ele>759</ele>
        <time>2019-10-11T13:07:37.000Z</time>
      </trkpt>
      <trkpt lat="44.22479" lon="2.97215">
        <ele>759</ele>
        <time>2019-10-11T13:07:38.000Z</time>
      </trkpt>
      <trkpt lat="44.2248" lon="2.97215">
        <ele>759</ele>
        <time>2019-10-11T13:07:39.000Z</time>
      </trkpt>
      <trkpt lat="44.22481" lon="2.97215">
        <ele>760</ele>
        <time>2019-10-11T13:07:40.000Z</time>
      </trkpt>
      <trkpt lat="44.22483" lon="2.97214">
        <ele>760</ele>
        <time>2019-10-11T13:07:41.000Z</time>
      </trkpt>
      <trkpt lat="44.22485" lon="2.97214">
        <ele>760</ele>
        <time>2019-10-11T13:07:42.000Z</time>
      </trkpt>
      <trkpt lat="44.22488" lon="2.97213">
        <ele>760</ele>
        <time>2019-10-11T13:07:43.000Z</time>
      </trkpt>
      <trkpt lat="44.22491" lon="2.97212">
        <ele>760</ele>
        <time>2019-10-11T13:07:44.000Z</time>
      </trkpt>
      <trkpt lat="44.22494" lon="2.97211">
        <ele>760</ele>
        <time>2019-10-11T13:07:45.000Z</time>
      </trkpt>
      <trkpt lat="44.22497" lon="2.9721">
        <ele>760</ele>
        <time>2019-10-11T13:07:46.000Z</time>
      </trkpt>
      <trkpt lat="44.225" lon="2.97209">
        <ele>761</ele>
        <time>2019-10-11T13:07:47.000Z</time>
      </trkpt>
      <trkpt lat="44.22503" lon="2.97209">
        <ele>761</ele>
        <time>2019-10-11T13:07:48.000Z</time>
      </trkpt>
      <trkpt lat="44.22506" lon="2.97209">
        <ele>761</ele>
        <time>2019-10-11T13:07:49.000Z</time>
      </trkpt>
      <trkpt lat="44.22509" lon="2.97208">
        <ele>761</ele>
        <time>2019-10-11T13:07:50.000Z</time>
      </trkpt>
      <trkpt lat="44.22512" lon="2.97208">
        <ele>761</ele>
        <time>2019-10-11T13:07:51.000Z</time>
      </trkpt>
      <trkpt lat="44.22515" lon="2.97208">
        <ele>762</ele>
        <time>2019-10-11T13:07:52.000Z</time>
      </trkpt>
      <trkpt lat="44.22519" lon="2.97208">
        <ele>762</ele>
        <time>2019-10-11T13:07:53.000Z</time>
      </trkpt>
      <trkpt lat="44.22522" lon="2.97208">
        <ele>762</ele>
        <time>2019-10-11T13:07:54.000Z</time>
      </trkpt>
      <trkpt lat="44.22526" lon="2.97209">
        <ele>762</ele>
        <time>2019-10-11T13:07:55.000Z</time>
      </trkpt>
      <trkpt lat="44.2253" lon="2.9721">
        <ele>763</ele>
        <time>2019-10-11T13:07:56.000Z</time>
      </trkpt>
      <trkpt lat="44.22534" lon="2.97212">
        <ele>763</ele>
        <time>2019-10-11T13:07:57.000Z</time>
      </trkpt>
      <trkpt lat="44.22537" lon="2.97214">
        <ele>763</ele>
        <time>2019-10-11T13:07:58.000Z</time>
      </trkpt>
      <trkpt lat="44.2254" lon="2.97216">
        <ele>763</ele>
        <time>2019-10-11T13:07:59.000Z</time>
      </trkpt>
      <trkpt lat="44.22543" lon="2.97218">
        <ele>763</ele>
        <time>2019-10-11T13:08:00.000Z</time>
      </trkpt>
      <trkpt lat="44.22546" lon="2.97221">
        <ele>763</ele>
        <time>2019-10-11T13:08:01.000Z</time>
      </trkpt>
      <trkpt lat="44.22548" lon="2.97224">
        <ele>764</ele>
        <time>2019-10-11T13:08:02.000Z</time>
      </trkpt>
      <trkpt lat="44.22551" lon="2.97226">
        <ele>764</ele>
        <time>2019-10-11T13:08:03.000Z</time>
      </trkpt>
      <trkpt lat="44.22554" lon="2.97228">
        <ele>764</ele>
        <time>2019-10-11T13:08:04.000Z</time>
      </trkpt>
      <trkpt lat="44.22558" lon="2.97231">
        <ele>764</ele>
        <time>2019-10-11T13:08:05.000Z</time>
      </trkpt>
      <trkpt lat="44.22562" lon="2.97233">
        <ele>764</ele>
        <time>2019-10-11T13:08:06.000Z</time>
      </trkpt>
      <trkpt lat="44.22565" lon="2.97235">
        <ele>764</ele>
        <time>2019-10-11T13:08:07.000Z</time>
      </trkpt>
      <trkpt lat="44.22569" lon="2.97237">
        <ele>764</ele>
        <time>2019-10-11T13:08:08.000Z</time>
      </trkpt>
      <trkpt lat="44.22573" lon="2.97239">
        <ele>765</ele>
        <time>2019-10-11T13:08:09.000Z</time>
      </trkpt>
      <trkpt lat="44.22577" lon="2.97241">
        <ele>765</ele>
        <time>2019-10-11T13:08:10.000Z</time>
      </trkpt>
      <trkpt lat="44.2258" lon="2.97244">
        <ele>765</ele>
        <time>2019-10-11T13:08:11.000Z</time>
      </trkpt>
      <trkpt lat="44.22584" lon="2.97246">
        <ele>765</ele>
        <time>2019-10-11T13:08:12.000Z</time>
      </trkpt>
      <trkpt lat="44.22588" lon="2.97248">
        <ele>765</ele>
        <time>2019-10-11T13:08:13.000Z</time>
      </trkpt>
      <trkpt lat="44.22591" lon="2.97251">
        <ele>766</ele>
        <time>2019-10-11T13:08:14.000Z</time>
      </trkpt>
      <trkpt lat="44.22595" lon="2.97252">
        <ele>766</ele>
        <time>2019-10-11T13:08:15.000Z</time>
      </trkpt>
      <trkpt lat="44.22599" lon="2.97254">
        <ele>766</ele>
        <time>2019-10-11T13:08:16.000Z</time>
      </trkpt>
      <trkpt lat="44.22603" lon="2.97256">
        <ele>766</ele>
        <time>2019-10-11T13:08:17.000Z</time>
      </trkpt>
      <trkpt lat="44.22606" lon="2.97258">
        <ele>767</ele>
        <time>2019-10-11T13:08:18.000Z</time>
      </trkpt>
      <trkpt lat="44.2261" lon="2.9726">
        <ele>767</ele>
        <time>2019-10-11T13:08:19.000Z</time>
      </trkpt>
      <trkpt lat="44.22614" lon="2.97262">
        <ele>767</ele>
        <time>2019-10-11T13:08:20.000Z</time>
      </trkpt>
      <trkpt lat="44.22617" lon="2.97264">
        <ele>767</ele>
        <time>2019-10-11T13:08:21.000Z</time>
      </trkpt>
      <trkpt lat="44.22621" lon="2.97265">
        <ele>768</ele>
        <time>2019-10-11T13:08:22.000Z</time>
      </trkpt>
      <trkpt lat="44.22624" lon="2.97266">
        <ele>768</ele>
        <time>2019-10-11T13:08:23.000Z</time>
      </trkpt>
      <trkpt lat="44.22627" lon="2.97268">
        <ele>768</ele>
        <time>2019-10-11T13:08:24.000Z</time>
      </trkpt>
      <trkpt lat="44.22631" lon="2.97269">
        <ele>768</ele>
        <time>2019-10-11T13:08:25.000Z</time>
      </trkpt>
      <trkpt lat="44.22634" lon="2.97271">
        <ele>769</ele>
        <time>2019-10-11T13:08:26.000Z</time>
      </trkpt>
      <trkpt lat="44.22637" lon="2.97273">
        <ele>769</ele>
        <time>2019-10-11T13:08:27.000Z</time>
      </trkpt>
      <trkpt lat="44.2264" lon="2.97276">
        <ele>769</ele>
        <time>2019-10-11T13:08:28.000Z</time>
      </trkpt>
      <trkpt lat="44.22643" lon="2.97279">
        <ele>770</ele>
        <time>2019-10-11T13:08:29.000Z</time>
      </trkpt>
      <trkpt lat="44.22645" lon="2.97282">
        <ele>770</ele>
        <time>2019-10-11T13:08:30.000Z</time>
      </trkpt>
      <trkpt lat="44.22648" lon="2.97285">
        <ele>770</ele>
        <time>2019-10-11T13:08:31.000Z</time>
      </trkpt>
      <trkpt lat="44.2265" lon="2.97288">
        <ele>770</ele>
        <time>2019-10-11T13:08:32.000Z</time>
      </trkpt>
      <trkpt lat="44.22653" lon="2.97291">
        <ele>771</ele>
        <time>2019-10-11T13:08:33.000Z</time>
      </trkpt>
      <trkpt lat="44.22655" lon="2.97294">
        <ele>771</ele>
        <time>2019-10-11T13:08:34.000Z</time>
      </trkpt>
      <trkpt lat="44.22658" lon="2.97296">
        <ele>771</ele>
        <time>2019-10-11T13:08:35.000Z</time>
      </trkpt>
      <trkpt lat="44.22662" lon="2.97299">
        <ele>771</ele>
        <time>2019-10-11T13:08:36.000Z</time>
      </trkpt>
      <trkpt lat="44.22666" lon="2.97302">
        <ele>772</ele>
        <time>2019-10-11T13:08:37.000Z</time>
      </trkpt>
      <trkpt lat="44.2267" lon="2.97304">
        <ele>772</ele>
        <time>2019-10-11T13:08:38.000Z</time>
      </trkpt>
      <trkpt lat="44.22674" lon="2.97305">
        <ele>772</ele>
        <time>2019-10-11T13:08:39.000Z</time>
      </trkpt>
      <trkpt lat="44.22678" lon="2.97308">
        <ele>773</ele>
        <time>2019-10-11T13:08:40.000Z</time>
      </trkpt>
      <trkpt lat="44.22682" lon="2.9731">
        <ele>773</ele>
        <time>2019-10-11T13:08:41.000Z</time>
      </trkpt>
      <trkpt lat="44.22686" lon="2.97312">
        <ele>773</ele>
        <time>2019-10-11T13:08:42.000Z</time>
      </trkpt>
      <trkpt lat="44.2269" lon="2.97315">
        <ele>774</ele>
        <time>2019-10-11T13:08:43.000Z</time>
      </trkpt>
      <trkpt lat="44.22694" lon="2.97318">
        <ele>774</ele>
        <time>2019-10-11T13:08:44.000Z</time>
      </trkpt>
      <trkpt lat="44.22699" lon="2.97321">
        <ele>775</ele>
        <time>2019-10-11T13:08:45.000Z</time>
      </trkpt>
      <trkpt lat="44.22703" lon="2.97323">
        <ele>775</ele>
        <time>2019-10-11T13:08:46.000Z</time>
      </trkpt>
      <trkpt lat="44.22707" lon="2.97326">
        <ele>776</ele>
        <time>2019-10-11T13:08:47.000Z</time>
      </trkpt>
      <trkpt lat="44.2271" lon="2.97328">
        <ele>776</ele>
        <time>2019-10-11T13:08:48.000Z</time>
      </trkpt>
      <trkpt lat="44.22714" lon="2.9733">
        <ele>777</ele>
        <time>2019-10-11T13:08:49.000Z</time>
      </trkpt>
      <trkpt lat="44.22718" lon="2.97331">
        <ele>778</ele>
        <time>2019-10-11T13:08:50.000Z</time>
      </trkpt>
      <trkpt lat="44.22722" lon="2.97331">
        <ele>778</ele>
        <time>2019-10-11T13:08:51.000Z</time>
      </trkpt>
      <trkpt lat="44.22726" lon="2.97332">
        <ele>779</ele>
        <time>2019-10-11T13:08:52.000Z</time>
      </trkpt>
      <trkpt lat="44.2273" lon="2.97333">
        <ele>779</ele>
        <time>2019-10-11T13:08:53.000Z</time>
      </trkpt>
      <trkpt lat="44.22733" lon="2.97335">
        <ele>780</ele>
        <time>2019-10-11T13:08:54.000Z</time>
      </trkpt>
      <trkpt lat="44.22737" lon="2.97337">
        <ele>780</ele>
        <time>2019-10-11T13:08:55.000Z</time>
      </trkpt>
      <trkpt lat="44.2274" lon="2.97339">
        <ele>781</ele>
        <time>2019-10-11T13:08:56.000Z</time>
      </trkpt>
      <trkpt lat="44.22744" lon="2.97342">
        <ele>781</ele>
        <time>2019-10-11T13:08:57.000Z</time>
      </trkpt>
      <trkpt lat="44.22747" lon="2.97344">
        <ele>782</ele>
        <time>2019-10-11T13:08:58.000Z</time>
      </trkpt>
      <trkpt lat="44.22751" lon="2.97347">
        <ele>782</ele>
        <time>2019-10-11T13:08:59.000Z</time>
      </trkpt>
      <trkpt lat="44.22755" lon="2.97349">
        <ele>783</ele>
        <time>2019-10-11T13:09:00.000Z</time>
      </trkpt>
      <trkpt lat="44.22758" lon="2.97351">
        <ele>783</ele>
        <time>2019-10-11T13:09:01.000Z</time>
      </trkpt>
      <trkpt lat="44.22762" lon="2.97353">
        <ele>783</ele>
        <time>2019-10-11T13:09:02.000Z</time>
      </trkpt>
      <trkpt lat="44.22766" lon="2.97355">
        <ele>784</ele>
        <time>2019-10-11T13:09:03.000Z</time>
      </trkpt>
      <trkpt lat="44.22769" lon="2.97357">
        <ele>784</ele>
        <time>2019-10-11T13:09:04.000Z</time>
      </trkpt>
      <trkpt lat="44.22773" lon="2.9736">
        <ele>785</ele>
        <time>2019-10-11T13:09:05.000Z</time>
      </trkpt>
      <trkpt lat="44.22777" lon="2.97362">
        <ele>785</ele>
        <time>2019-10-11T13:09:06.000Z</time>
      </trkpt>
      <trkpt lat="44.2278" lon="2.97364">
        <ele>786</ele>
        <time>2019-10-11T13:09:07.000Z</time>
      </trkpt>
      <trkpt lat="44.22783" lon="2.97366">
        <ele>786</ele>
        <time>2019-10-11T13:09:08.000Z</time>
      </trkpt>
      <trkpt lat="44.22786" lon="2.97368">
        <ele>787</ele>
        <time>2019-10-11T13:09:09.000Z</time>
      </trkpt>
      <trkpt lat="44.2279" lon="2.9737">
        <ele>787</ele>
        <time>2019-10-11T13:09:10.000Z</time>
      </trkpt>
      <trkpt lat="44.22793" lon="2.97372">
        <ele>788</ele>
        <time>2019-10-11T13:09:11.000Z</time>
      </trkpt>
      <trkpt lat="44.22796" lon="2.97373">
        <ele>788</ele>
        <time>2019-10-11T13:09:12.000Z</time>
      </trkpt>
      <trkpt lat="44.228" lon="2.97375">
        <ele>789</ele>
        <time>2019-10-11T13:09:13.000Z</time>
      </trkpt>
      <trkpt lat="44.22803" lon="2.97376">
        <ele>789</ele>
        <time>2019-10-11T13:09:14.000Z</time>
      </trkpt>
      <trkpt lat="44.22806" lon="2.97377">
        <ele>790</ele>
        <time>2019-10-11T13:09:15.000Z</time>
      </trkpt>
      <trkpt lat="44.22809" lon="2.97377">
        <ele>790</ele>
        <time>2019-10-11T13:09:16.000Z</time>
      </trkpt>
      <trkpt lat="44.22813" lon="2.97378">
        <ele>790</ele>
        <time>2019-10-11T13:09:17.000Z</time>
      </trkpt>
      <trkpt lat="44.22816" lon="2.9738">
        <ele>791</ele>
        <time>2019-10-11T13:09:18.000Z</time>
      </trkpt>
      <trkpt lat="44.22819" lon="2.97381">
        <ele>791</ele>
        <time>2019-10-11T13:09:19.000Z</time>
      </trkpt>
      <trkpt lat="44.22823" lon="2.97382">
        <ele>791</ele>
        <time>2019-10-11T13:09:20.000Z</time>
      </trkpt>
      <trkpt lat="44.22826" lon="2.97382">
        <ele>792</ele>
        <time>2019-10-11T13:09:21.000Z</time>
      </trkpt>
      <trkpt lat="44.2283" lon="2.97382">
        <ele>792</ele>
        <time>2019-10-11T13:09:22.000Z</time>
      </trkpt>
      <trkpt lat="44.22833" lon="2.97382">
        <ele>792</ele>
        <time>2019-10-11T13:09:23.000Z</time>
      </trkpt>
      <trkpt lat="44.22837" lon="2.97382">
        <ele>792</ele>
        <time>2019-10-11T13:09:24.000Z</time>
      </trkpt>
      <trkpt lat="44.22841" lon="2.97382">
        <ele>793</ele>
        <time>2019-10-11T13:09:25.000Z</time>
      </trkpt>
      <trkpt lat="44.22845" lon="2.97382">
        <ele>793</ele>
        <time>2019-10-11T13:09:26.000Z</time>
      </trkpt>
      <trkpt lat="44.22849" lon="2.97382">
        <ele>793</ele>
        <time>2019-10-11T13:09:27.000Z</time>
      </trkpt>
      <trkpt lat="44.22853" lon="2.97382">
        <ele>793</ele>
        <time>2019-10-11T13:09:28.000Z</time>
      </trkpt>
      <trkpt lat="44.22857" lon="2.97382">
        <ele>794</ele>
        <time>2019-10-11T13:09:29.000Z</time>
      </trkpt>
      <trkpt lat="44.22861" lon="2.97382">
        <ele>794</ele>
        <time>2019-10-11T13:09:30.000Z</time>
      </trkpt>
      <trkpt lat="44.22865" lon="2.97383">
        <ele>794</ele>
        <time>2019-10-11T13:09:31.000Z</time>
      </trkpt>
      <trkpt lat="44.22869" lon="2.97384">
        <ele>794</ele>
        <time>2019-10-11T13:09:32.000Z</time>
      </trkpt>
      <trkpt lat="44.22873" lon="2.97385">
        <ele>794</ele>
        <time>2019-10-11T13:09:33.000Z</time>
      </trkpt>
      <trkpt lat="44.22877" lon="2.97386">
        <ele>795</ele>
        <time>2019-10-11T13:09:34.000Z</time>
      </trkpt>
      <trkpt lat="44.22881" lon="2.97388">
        <ele>795</ele>
        <time>2019-10-11T13:09:35.000Z</time>
      </trkpt>
      <trkpt lat="44.22885" lon="2.97389">
        <ele>795</ele>
        <time>2019-10-11T13:09:36.000Z</time>
      </trkpt>
      <trkpt lat="44.22889" lon="2.97391">
        <ele>796</ele>
        <time>2019-10-11T13:09:37.000Z</time>
      </trkpt>
      <trkpt lat="44.22893" lon="2.97393">
        <ele>796</ele>
        <time>2019-10-11T13:09:38.000Z</time>
      </trkpt>
      <trkpt lat="44.22897" lon="2.97395">
        <ele>796</ele>
        <time>2019-10-11T13:09:39.000Z</time>
      </trkpt>
      <trkpt lat="44.22901" lon="2.97396">
        <ele>796</ele>
        <time>2019-10-11T13:09:40.000Z</time>
      </trkpt>
      <trkpt lat="44.22904" lon="2.97397">
        <ele>796</ele>
        <time>2019-10-11T13:09:41.000Z</time>
      </trkpt>
      <trkpt lat="44.22908" lon="2.97397">
        <ele>797</ele>
        <time>2019-10-11T13:09:42.000Z</time>
      </trkpt>
      <trkpt lat="44.22912" lon="2.97397">
        <ele>797</ele>
        <time>2019-10-11T13:09:43.000Z</time>
      </trkpt>
      <trkpt lat="44.22917" lon="2.97398">
        <ele>797</ele>
        <time>2019-10-11T13:09:44.000Z</time>
      </trkpt>
      <trkpt lat="44.22921" lon="2.97399">
        <ele>797</ele>
        <time>2019-10-11T13:09:45.000Z</time>
      </trkpt>
      <trkpt lat="44.22925" lon="2.974">
        <ele>798</ele>
        <time>2019-10-11T13:09:46.000Z</time>
      </trkpt>
      <trkpt lat="44.22929" lon="2.97402">
        <ele>798</ele>
        <time>2019-10-11T13:09:47.000Z</time>
      </trkpt>
      <trkpt lat="44.22933" lon="2.97403">
        <ele>798</ele>
        <time>2019-10-11T13:09:48.000Z</time>
      </trkpt>
      <trkpt lat="44.22937" lon="2.97405">
        <ele>799</ele>
        <time>2019-10-11T13:09:49.000Z</time>
      </trkpt>
      <trkpt lat="44.2294" lon="2.97406">
        <ele>799</ele>
        <time>2019-10-11T13:09:50.000Z</time>
      </trkpt>
      <trkpt lat="44.22944" lon="2.97407">
        <ele>799</ele>
        <time>2019-10-11T13:09:51.000Z</time>
      </trkpt>
      <trkpt lat="44.22948" lon="2.97408">
        <ele>800</ele>
        <time>2019-10-11T13:09:52.000Z</time>
      </trkpt>
      <trkpt lat="44.22952" lon="2.97409">
        <ele>800</ele>
        <time>2019-10-11T13:09:53.000Z</time>
      </trkpt>
      <trkpt lat="44.22956" lon="2.9741">
        <ele>800</ele>
        <time>2019-10-11T13:09:54.000Z</time>
      </trkpt>
      <trkpt lat="44.2296" lon="2.97412">
        <ele>801</ele>
        <time>2019-10-11T13:09:55.000Z</time>
      </trkpt>
      <trkpt lat="44.22963" lon="2.97413">
        <ele>801</ele>
        <time>2019-10-11T13:09:56.000Z</time>
      </trkpt>
      <trkpt lat="44.22967" lon="2.97414">
        <ele>801</ele>
        <time>2019-10-11T13:09:57.000Z</time>
      </trkpt>
      <trkpt lat="44.22971" lon="2.97415">
        <ele>801</ele>
        <time>2019-10-11T13:09:58.000Z</time>
      </trkpt>
      <trkpt lat="44.22974" lon="2.97415">
        <ele>802</ele>
        <time>2019-10-11T13:09:59.000Z</time>
      </trkpt>
      <trkpt lat="44.22978" lon="2.97416">
        <ele>802</ele>
        <time>2019-10-11T13:10:00.000Z</time>
      </trkpt>
      <trkpt lat="44.22981" lon="2.97417">
        <ele>802</ele>
        <time>2019-10-11T13:10:01.000Z</time>
      </trkpt>
      <trkpt lat="44.22984" lon="2.97417">
        <ele>803</ele>
        <time>2019-10-11T13:10:02.000Z</time>
      </trkpt>
      <trkpt lat="44.22987" lon="2.97417">
        <ele>803</ele>
        <time>2019-10-11T13:10:03.000Z</time>
      </trkpt>
      <trkpt lat="44.22989" lon="2.97418">
        <ele>803</ele>
        <time>2019-10-11T13:10:04.000Z</time>
      </trkpt>
      <trkpt lat="44.2299" lon="2.97418">
        <ele>803</ele>
        <time>2019-10-11T13:10:05.000Z</time>
      </trkpt>
      <trkpt lat="44.22992" lon="2.97418">
        <ele>803</ele>
        <time>2019-10-11T13:10:06.000Z</time>
      </trkpt>
      <trkpt lat="44.22992" lon="2.97418">
        <ele>804</ele>
        <time>2019-10-11T13:10:07.000Z</time>
      </trkpt>
      <trkpt lat="44.22994" lon="2.97418">
        <ele>804</ele>
        <time>2019-10-11T13:10:08.000Z</time>
      </trkpt>
      <trkpt lat="44.22995" lon="2.97417">
        <ele>804</ele>
        <time>2019-10-11T13:10:09.000Z</time>
      </trkpt>
      <trkpt lat="44.22996" lon="2.97417">
        <ele>805</ele>
        <time>2019-10-11T13:10:10.000Z</time>
      </trkpt>
      <trkpt lat="44.22997" lon="2.97418">
        <ele>805</ele>
        <time>2019-10-11T13:10:11.000Z</time>
      </trkpt>
      <trkpt lat="44.22998" lon="2.97418">
        <ele>805</ele>
        <time>2019-10-11T13:10:12.000Z</time>
      </trkpt>
      <trkpt lat="44.22999" lon="2.97418">
        <ele>806</ele>
        <time>2019-10-11T13:10:13.000Z</time>
      </trkpt>
      <trkpt lat="44.23" lon="2.97419">
        <ele>806</ele>
        <time>2019-10-11T13:10:14.000Z</time>
      </trkpt>
      <trkpt lat="44.23001" lon="2.97419">
        <ele>806</ele>
        <time>2019-10-11T13:10:15.000Z</time>
      </trkpt>
      <trkpt lat="44.23002" lon="2.97419">
        <ele>807</ele>
        <time>2019-10-11T13:10:16.000Z</time>
      </trkpt>
      <trkpt lat="44.23002" lon="2.9742">
        <ele>807</ele>
        <time>2019-10-11T13:10:17.000Z</time>
      </trkpt>
      <trkpt lat="44.23003" lon="2.9742">
        <ele>807</ele>
        <time>2019-10-11T13:10:18.000Z</time>
      </trkpt>
      <trkpt lat="44.23004" lon="2.9742">
        <ele>807</ele>
        <time>2019-10-11T13:10:19.000Z</time>
      </trkpt>
      <trkpt lat="44.23004" lon="2.9742">
        <ele>808</ele>
        <time>2019-10-11T13:10:20.000Z</time>
      </trkpt>
      <trkpt lat="44.23005" lon="2.9742">
        <ele>808</ele>
        <time>2019-10-11T13:10:21.000Z</time>
      </trkpt>
      <trkpt lat="44.23006" lon="2.97419">
        <ele>808</ele>
        <time>2019-10-11T13:10:22.000Z</time>
      </trkpt>
      <trkpt lat="44.23007" lon="2.97419">
        <ele>808</ele>
        <time>2019-10-11T13:10:23.000Z</time>
      </trkpt>
      <trkpt lat="44.23008" lon="2.97419">
        <ele>808</ele>
        <time>2019-10-11T13:10:24.000Z</time>
      </trkpt>
      <trkpt lat="44.23009" lon="2.97419">
        <ele>808</ele>
        <time>2019-10-11T13:10:25.000Z</time>
      </trkpt>
      <trkpt lat="44.23011" lon="2.97419">
        <ele>809</ele>
        <time>2019-10-11T13:10:26.000Z</time>
      </trkpt>
      <trkpt lat="44.23012" lon="2.9742">
        <ele>809</ele>
        <time>2019-10-11T13:10:27.000Z</time>
      </trkpt>
      <trkpt lat="44.23013" lon="2.9742">
        <ele>809</ele>
        <time>2019-10-11T13:10:28.000Z</time>
      </trkpt>
      <trkpt lat="44.23014" lon="2.9742">
        <ele>809</ele>
        <time>2019-10-11T13:10:29.000Z</time>
      </trkpt>
      <trkpt lat="44.23015" lon="2.97419">
        <ele>809</ele>
        <time>2019-10-11T13:10:30.000Z</time>
      </trkpt>
      <trkpt lat="44.23016" lon="2.97419">
        <ele>809</ele>
        <time>2019-10-11T13:10:31.000Z</time>
      </trkpt>
      <trkpt lat="44.23017" lon="2.97419">
        <ele>810</ele>
        <time>2019-10-11T13:10:32.000Z</time>
      </trkpt>
      <trkpt lat="44.23018" lon="2.9742">
        <ele>810</ele>
        <time>2019-10-11T13:10:33.000Z</time>
      </trkpt>
      <trkpt lat="44.23019" lon="2.9742">
        <ele>810</ele>
        <time>2019-10-11T13:10:34.000Z</time>
      </trkpt>
      <trkpt lat="44.23021" lon="2.9742">
        <ele>810</ele>
        <time>2019-10-11T13:10:35.000Z</time>
      </trkpt>
      <trkpt lat="44.23022" lon="2.9742">
        <ele>810</ele>
        <time>2019-10-11T13:10:36.000Z</time>
      </trkpt>
      <trkpt lat="44.23023" lon="2.9742">
        <ele>811</ele>
        <time>2019-10-11T13:10:37.000Z</time>
      </trkpt>
      <trkpt lat="44.23025" lon="2.9742">
        <ele>811</ele>
        <time>2019-10-11T13:10:38.000Z</time>
      </trkpt>
      <trkpt lat="44.23026" lon="2.9742">
        <ele>811</ele>
        <time>2019-10-11T13:10:39.000Z</time>
      </trkpt>
      <trkpt lat="44.23027" lon="2.9742">
        <ele>811</ele>
        <time>2019-10-11T13:10:40.000Z</time>
      </trkpt>
      <trkpt lat="44.23029" lon="2.9742">
        <ele>812</ele>
        <time>2019-10-11T13:10:41.000Z</time>
      </trkpt>
      <trkpt lat="44.2303" lon="2.97421">
        <ele>812</ele>
        <time>2019-10-11T13:10:42.000Z</time>
      </trkpt>
      <trkpt lat="44.23031" lon="2.97421">
        <ele>812</ele>
        <time>2019-10-11T13:10:43.000Z</time>
      </trkpt>
      <trkpt lat="44.23032" lon="2.97421">
        <ele>812</ele>
        <time>2019-10-11T13:10:44.000Z</time>
      </trkpt>
      <trkpt lat="44.23033" lon="2.97422">
        <ele>812</ele>
        <time>2019-10-11T13:10:45.000Z</time>
      </trkpt>
      <trkpt lat="44.23034" lon="2.97422">
        <ele>812</ele>
        <time>2019-10-11T13:10:46.000Z</time>
      </trkpt>
      <trkpt lat="44.23035" lon="2.97422">
        <ele>813</ele>
        <time>2019-10-11T13:10:47.000Z</time>
      </trkpt>
      <trkpt lat="44.23036" lon="2.97423">
        <ele>813</ele>
        <time>2019-10-11T13:10:48.000Z</time>
      </trkpt>
      <trkpt lat="44.23037" lon="2.97423">
        <ele>813</ele>
        <time>2019-10-11T13:10:49.000Z</time>
      </trkpt>
      <trkpt lat="44.23038" lon="2.97423">
        <ele>813</ele>
        <time>2019-10-11T13:10:50.000Z</time>
      </trkpt>
      <trkpt lat="44.23039" lon="2.97423">
        <ele>813</ele>
        <time>2019-10-11T13:10:51.000Z</time>
      </trkpt>
      <trkpt lat="44.2304" lon="2.97424">
        <ele>814</ele>
        <time>2019-10-11T13:10:52.000Z</time>
      </trkpt>
      <trkpt lat="44.23041" lon="2.97424">
        <ele>814</ele>
        <time>2019-10-11T13:10:53.000Z</time>
      </trkpt>
      <trkpt lat="44.23042" lon="2.97425">
        <ele>814</ele>
        <time>2019-10-11T13:10:54.000Z</time>
      </trkpt>
      <trkpt lat="44.23043" lon="2.97425">
        <ele>814</ele>
        <time>2019-10-11T13:10:55.000Z</time>
      </trkpt>
      <trkpt lat="44.23044" lon="2.97426">
        <ele>814</ele>
        <time>2019-10-11T13:10:56.000Z</time>
      </trkpt>
      <trkpt lat="44.23045" lon="2.97426">
        <ele>814</ele>
        <time>2019-10-11T13:10:57.000Z</time>
      </trkpt>
      <trkpt lat="44.23047" lon="2.97427">
        <ele>815</ele>
        <time>2019-10-11T13:10:58.000Z</time>
      </trkpt>
      <trkpt lat="44.23048" lon="2.97428">
        <ele>815</ele>
        <time>2019-10-11T13:10:59.000Z</time>
      </trkpt>
      <trkpt lat="44.23049" lon="2.97428">
        <ele>815</ele>
        <time>2019-10-11T13:11:00.000Z</time>
      </trkpt>
      <trkpt lat="44.2305" lon="2.97429">
        <ele>815</ele>
        <time>2019-10-11T13:11:01.000Z</time>
      </trkpt>
      <trkpt lat="44.23051" lon="2.9743">
        <ele>815</ele>
        <time>2019-10-11T13:11:02.000Z</time>
      </trkpt>
      <trkpt lat="44.23052" lon="2.9743">
        <ele>815</ele>
        <time>2019-10-11T13:11:03.000Z</time>
      </trkpt>
      <trkpt lat="44.23053" lon="2.9743">
        <ele>815</ele>
        <time>2019-10-11T13:11:04.000Z</time>
      </trkpt>
      <trkpt lat="44.23054" lon="2.9743">
        <ele>816</ele>
        <time>2019-10-11T13:11:05.000Z</time>
      </trkpt>
      <trkpt lat="44.23055" lon="2.9743">
        <ele>816</ele>
        <time>2019-10-11T13:11:06.000Z</time>
      </trkpt>
      <trkpt lat="44.23056" lon="2.97429">
        <ele>816</ele>
        <time>2019-10-11T13:11:07.000Z</time>
      </trkpt>
      <trkpt lat="44.23057" lon="2.97429">
        <ele>816</ele>
        <time>2019-10-11T13:11:08.000Z</time>
      </trkpt>
      <trkpt lat="44.23058" lon="2.97429">
        <ele>816</ele>
        <time>2019-10-11T13:11:09.000Z</time>
      </trkpt>
      <trkpt lat="44.23059" lon="2.97429">
        <ele>816</ele>
        <time>2019-10-11T13:11:10.000Z</time>
      </trkpt>
      <trkpt lat="44.2306" lon="2.9743">
        <ele>817</ele>
        <time>2019-10-11T13:11:11.000Z</time>
      </trkpt>
      <trkpt lat="44.23061" lon="2.97431">
        <ele>817</ele>
        <time>2019-10-11T13:11:12.000Z</time>
      </trkpt>
      <trkpt lat="44.23062" lon="2.97432">
        <ele>817</ele>
        <time>2019-10-11T13:11:13.000Z</time>
      </trkpt>
      <trkpt lat="44.23063" lon="2.97433">
        <ele>817</ele>
        <time>2019-10-11T13:11:14.000Z</time>
      </trkpt>
      <trkpt lat="44.23064" lon="2.97433">
        <ele>817</ele>
        <time>2019-10-11T13:11:15.000Z</time>
      </trkpt>
      <trkpt lat="44.23065" lon="2.97434">
        <ele>817</ele>
        <time>2019-10-11T13:11:16.000Z</time>
      </trkpt>
      <trkpt lat="44.23066" lon="2.97434">
        <ele>818</ele>
        <time>2019-10-11T13:11:17.000Z</time>
      </trkpt>
      <trkpt lat="44.23067" lon="2.97434">
        <ele>818</ele>
        <time>2019-10-11T13:11:18.000Z</time>
      </trkpt>
      <trkpt lat="44.23068" lon="2.97434">
        <ele>818</ele>
        <time>2019-10-11T13:11:19.000Z</time>
      </trkpt>
      <trkpt lat="44.23069" lon="2.97434">
        <ele>818</ele>
        <time>2019-10-11T13:11:20.000Z</time>
      </trkpt>
      <trkpt lat="44.2307" lon="2.97434">
        <ele>818</ele>
        <time>2019-10-11T13:11:21.000Z</time>
      </trkpt>
      <trkpt lat="44.23071" lon="2.97434">
        <ele>818</ele>
        <time>2019-10-11T13:11:22.000Z</time>
      </trkpt>
      <trkpt lat="44.23072" lon="2.97434">
        <ele>818</ele>
        <time>2019-10-11T13:11:23.000Z</time>
      </trkpt>
      <trkpt lat="44.23073" lon="2.97434">
        <ele>819</ele>
        <time>2019-10-11T13:11:24.000Z</time>
      </trkpt>
      <trkpt lat="44.23074" lon="2.97433">
        <ele>819</ele>
        <time>2019-10-11T13:11:25.000Z</time>
      </trkpt>
      <trkpt lat="44.23075" lon="2.97433">
        <ele>819</ele>
        <time>2019-10-11T13:11:26.000Z</time>
      </trkpt>
      <trkpt lat="44.23077" lon="2.97432">
        <ele>819</ele>
        <time>2019-10-11T13:11:27.000Z</time>
      </trkpt>
      <trkpt lat="44.23078" lon="2.97432">
        <ele>819</ele>
        <time>2019-10-11T13:11:28.000Z</time>
      </trkpt>
      <trkpt lat="44.23079" lon="2.97431">
        <ele>819</ele>
        <time>2019-10-11T13:11:29.000Z</time>
      </trkpt>
      <trkpt lat="44.2308" lon="2.9743">
        <ele>819</ele>
        <time>2019-10-11T13:11:30.000Z</time>
      </trkpt>
      <trkpt lat="44.23081" lon="2.97429">
        <ele>820</ele>
        <time>2019-10-11T13:11:31.000Z</time>
      </trkpt>
      <trkpt lat="44.23082" lon="2.97428">
        <ele>820</ele>
        <time>2019-10-11T13:11:32.000Z</time>
      </trkpt>
      <trkpt lat="44.23083" lon="2.97427">
        <ele>820</ele>
        <time>2019-10-11T13:11:33.000Z</time>
      </trkpt>
      <trkpt lat="44.23084" lon="2.97426">
        <ele>820</ele>
        <time>2019-10-11T13:11:34.000Z</time>
      </trkpt>
      <trkpt lat="44.23085" lon="2.97425">
        <ele>820</ele>
        <time>2019-10-11T13:11:35.000Z</time>
      </trkpt>
      <trkpt lat="44.23086" lon="2.97424">
        <ele>820</ele>
        <time>2019-10-11T13:11:36.000Z</time>
      </trkpt>
      <trkpt lat="44.23087" lon="2.97423">
        <ele>821</ele>
        <time>2019-10-11T13:11:37.000Z</time>
      </trkpt>
      <trkpt lat="44.23088" lon="2.97422">
        <ele>821</ele>
        <time>2019-10-11T13:11:38.000Z</time>
      </trkpt>
      <trkpt lat="44.23089" lon="2.97421">
        <ele>821</ele>
        <time>2019-10-11T13:11:39.000Z</time>
      </trkpt>
      <trkpt lat="44.2309" lon="2.9742">
        <ele>821</ele>
        <time>2019-10-11T13:11:40.000Z</time>
      </trkpt>
      <trkpt lat="44.23091" lon="2.97419">
        <ele>821</ele>
        <time>2019-10-11T13:11:41.000Z</time>
      </trkpt>
      <trkpt lat="44.23092" lon="2.97418">
        <ele>821</ele>
        <time>2019-10-11T13:11:42.000Z</time>
      </trkpt>
      <trkpt lat="44.23092" lon="2.97416">
        <ele>821</ele>
        <time>2019-10-11T13:11:43.000Z</time>
      </trkpt>
      <trkpt lat="44.23093" lon="2.97415">
        <ele>822</ele>
        <time>2019-10-11T13:11:44.000Z</time>
      </trkpt>
      <trkpt lat="44.23095" lon="2.97414">
        <ele>822</ele>
        <time>2019-10-11T13:11:45.000Z</time>
      </trkpt>
      <trkpt lat="44.23096" lon="2.97414">
        <ele>822</ele>
        <time>2019-10-11T13:11:46.000Z</time>
      </trkpt>
      <trkpt lat="44.23097" lon="2.97413">
        <ele>822</ele>
        <time>2019-10-11T13:11:47.000Z</time>
      </trkpt>
      <trkpt lat="44.23098" lon="2.97412">
        <ele>822</ele>
        <time>2019-10-11T13:11:48.000Z</time>
      </trkpt>
      <trkpt lat="44.23099" lon="2.97411">
        <ele>822</ele>
        <time>2019-10-11T13:11:49.000Z</time>
      </trkpt>
      <trkpt lat="44.231" lon="2.97411">
        <ele>822</ele>
        <time>2019-10-11T13:11:50.000Z</time>
      </trkpt>
      <trkpt lat="44.23101" lon="2.9741">
        <ele>822</ele>
        <time>2019-10-11T13:11:51.000Z</time>
      </trkpt>
      <trkpt lat="44.23102" lon="2.97409">
        <ele>822</ele>
        <time>2019-10-11T13:11:52.000Z</time>
      </trkpt>
      <trkpt lat="44.23103" lon="2.97408">
        <ele>822</ele>
        <time>2019-10-11T13:11:53.000Z</time>
      </trkpt>
      <trkpt lat="44.23104" lon="2.97408">
        <ele>823</ele>
        <time>2019-10-11T13:11:54.000Z</time>
      </trkpt>
      <trkpt lat="44.23106" lon="2.97407">
        <ele>823</ele>
        <time>2019-10-11T13:11:55.000Z</time>
      </trkpt>
      <trkpt lat="44.23107" lon="2.97407">
        <ele>823</ele>
        <time>2019-10-11T13:11:56.000Z</time>
      </trkpt>
      <trkpt lat="44.23108" lon="2.97406">
        <ele>823</ele>
        <time>2019-10-11T13:11:57.000Z</time>
      </trkpt>
      <trkpt lat="44.23109" lon="2.97406">
        <ele>823</ele>
        <time>2019-10-11T13:11:58.000Z</time>
      </trkpt>
      <trkpt lat="44.2311" lon="2.97405">
        <ele>823</ele>
        <time>2019-10-11T13:11:59.000Z</time>
      </trkpt>
      <trkpt lat="44.23111" lon="2.97405">
        <ele>823</ele>
        <time>2019-10-11T13:12:00.000Z</time>
      </trkpt>
      <trkpt lat="44.23112" lon="2.97405">
        <ele>823</ele>
        <time>2019-10-11T13:12:01.000Z</time>
      </trkpt>
      <trkpt lat="44.23114" lon="2.97405">
        <ele>823</ele>
        <time>2019-10-11T13:12:02.000Z</time>
      </trkpt>
      <trkpt lat="44.23115" lon="2.97405">
        <ele>823</ele>
        <time>2019-10-11T13:12:03.000Z</time>
      </trkpt>
      <trkpt lat="44.23116" lon="2.97405">
        <ele>823</ele>
        <time>2019-10-11T13:12:04.000Z</time>
      </trkpt>
      <trkpt lat="44.23118" lon="2.97405">
        <ele>824</ele>
        <time>2019-10-11T13:12:05.000Z</time>
      </trkpt>
      <trkpt lat="44.23119" lon="2.97405">
        <ele>824</ele>
        <time>2019-10-11T13:12:06.000Z</time>
      </trkpt>
      <trkpt lat="44.2312" lon="2.97405">
        <ele>824</ele>
        <time>2019-10-11T13:12:07.000Z</time>
      </trkpt>
      <trkpt lat="44.23121" lon="2.97405">
        <ele>824</ele>
        <time>2019-10-11T13:12:08.000Z</time>
      </trkpt>
      <trkpt lat="44.23123" lon="2.97404">
        <ele>824</ele>
        <time>2019-10-11T13:12:09.000Z</time>
      </trkpt>
      <trkpt lat="44.23124" lon="2.97404">
        <ele>824</ele>
        <time>2019-10-11T13:12:10.000Z</time>
      </trkpt>
      <trkpt lat="44.23126" lon="2.97404">
        <ele>825</ele>
        <time>2019-10-11T13:12:11.000Z</time>
      </trkpt>
      <trkpt lat="44.23127" lon="2.97403">
        <ele>825</ele>
        <time>2019-10-11T13:12:12.000Z</time>
      </trkpt>
      <trkpt lat="44.23129" lon="2.97403">
        <ele>825</ele>
        <time>2019-10-11T13:12:13.000Z</time>
      </trkpt>
      <trkpt lat="44.2313" lon="2.97403">
        <ele>825</ele>
        <time>2019-10-11T13:12:14.000Z</time>
      </trkpt>
      <trkpt lat="44.23132" lon="2.97402">
        <ele>826</ele>
        <time>2019-10-11T13:12:15.000Z</time>
      </trkpt>
      <trkpt lat="44.23133" lon="2.97402">
        <ele>826</ele>
        <time>2019-10-11T13:12:16.000Z</time>
      </trkpt>
      <trkpt lat="44.23134" lon="2.97402">
        <ele>826</ele>
        <time>2019-10-11T13:12:17.000Z</time>
      </trkpt>
      <trkpt lat="44.23136" lon="2.97401">
        <ele>826</ele>
        <time>2019-10-11T13:12:18.000Z</time>
      </trkpt>
      <trkpt lat="44.23137" lon="2.97401">
        <ele>826</ele>
        <time>2019-10-11T13:12:19.000Z</time>
      </trkpt>
      <trkpt lat="44.23138" lon="2.97401">
        <ele>827</ele>
        <time>2019-10-11T13:12:20.000Z</time>
      </trkpt>
      <trkpt lat="44.2314" lon="2.97401">
        <ele>827</ele>
        <time>2019-10-11T13:12:21.000Z</time>
      </trkpt>
      <trkpt lat="44.23141" lon="2.97401">
        <ele>827</ele>
        <time>2019-10-11T13:12:22.000Z</time>
      </trkpt>
      <trkpt lat="44.23143" lon="2.97401">
        <ele>827</ele>
        <time>2019-10-11T13:12:23.000Z</time>
      </trkpt>
      <trkpt lat="44.23144" lon="2.97401">
        <ele>827</ele>
        <time>2019-10-11T13:12:24.000Z</time>
      </trkpt>
      <trkpt lat="44.23145" lon="2.97401">
        <ele>827</ele>
        <time>2019-10-11T13:12:25.000Z</time>
      </trkpt>
      <trkpt lat="44.23147" lon="2.97401">
        <ele>827</ele>
        <time>2019-10-11T13:12:26.000Z</time>
      </trkpt>
      <trkpt lat="44.23148" lon="2.97401">
        <ele>827</ele>
        <time>2019-10-11T13:12:27.000Z</time>
      </trkpt>
      <trkpt lat="44.2315" lon="2.97401">
        <ele>827</ele>
        <time>2019-10-11T13:12:28.000Z</time>
      </trkpt>
      <trkpt lat="44.23151" lon="2.97401">
        <ele>827</ele>
        <time>2019-10-11T13:12:29.000Z</time>
      </trkpt>
      <trkpt lat="44.23153" lon="2.97402">
        <ele>827</ele>
        <time>2019-10-11T13:12:30.000Z</time>
      </trkpt>
      <trkpt lat="44.23154" lon="2.97402">
        <ele>828</ele>
        <time>2019-10-11T13:12:31.000Z</time>
      </trkpt>
      <trkpt lat="44.23156" lon="2.97403">
        <ele>828</ele>
        <time>2019-10-11T13:12:32.000Z</time>
      </trkpt>
      <trkpt lat="44.23157" lon="2.97404">
        <ele>828</ele>
        <time>2019-10-11T13:12:33.000Z</time>
      </trkpt>
      <trkpt lat="44.23158" lon="2.97405">
        <ele>828</ele>
        <time>2019-10-11T13:12:34.000Z</time>
      </trkpt>
      <trkpt lat="44.23159" lon="2.97406">
        <ele>828</ele>
        <time>2019-10-11T13:12:35.000Z</time>
      </trkpt>
      <trkpt lat="44.23161" lon="2.97407">
        <ele>828</ele>
        <time>2019-10-11T13:12:36.000Z</time>
      </trkpt>
      <trkpt lat="44.23161" lon="2.97408">
        <ele>828</ele>
        <time>2019-10-11T13:12:37.000Z</time>
      </trkpt>
      <trkpt lat="44.23162" lon="2.9741">
        <ele>828</ele>
        <time>2019-10-11T13:12:38.000Z</time>
      </trkpt>
      <trkpt lat="44.23163" lon="2.97412">
        <ele>828</ele>
        <time>2019-10-11T13:12:39.000Z</time>
      </trkpt>
      <trkpt lat="44.23164" lon="2.97414">
        <ele>828</ele>
        <time>2019-10-11T13:12:40.000Z</time>
      </trkpt>
      <trkpt lat="44.23165" lon="2.97415">
        <ele>828</ele>
        <time>2019-10-11T13:12:41.000Z</time>
      </trkpt>
      <trkpt lat="44.23166" lon="2.97417">
        <ele>829</ele>
        <time>2019-10-11T13:12:42.000Z</time>
      </trkpt>
      <trkpt lat="44.23167" lon="2.97419">
        <ele>829</ele>
        <time>2019-10-11T13:12:43.000Z</time>
      </trkpt>
      <trkpt lat="44.23167" lon="2.97421">
        <ele>829</ele>
        <time>2019-10-11T13:12:44.000Z</time>
      </trkpt>
      <trkpt lat="44.23168" lon="2.97424">
        <ele>829</ele>
        <time>2019-10-11T13:12:45.000Z</time>
      </trkpt>
      <trkpt lat="44.23169" lon="2.97426">
        <ele>829</ele>
        <time>2019-10-11T13:12:46.000Z</time>
      </trkpt>
      <trkpt lat="44.2317" lon="2.97428">
        <ele>829</ele>
        <time>2019-10-11T13:12:47.000Z</time>
      </trkpt>
      <trkpt lat="44.23171" lon="2.9743">
        <ele>829</ele>
        <time>2019-10-11T13:12:48.000Z</time>
      </trkpt>
      <trkpt lat="44.23172" lon="2.97432">
        <ele>829</ele>
        <time>2019-10-11T13:12:49.000Z</time>
      </trkpt>
      <trkpt lat="44.23173" lon="2.97433">
        <ele>829</ele>
        <time>2019-10-11T13:12:50.000Z</time>
      </trkpt>
      <trkpt lat="44.23174" lon="2.97435">
        <ele>829</ele>
        <time>2019-10-11T13:12:51.000Z</time>
      </trkpt>
      <trkpt lat="44.23176" lon="2.97436">
        <ele>829</ele>
        <time>2019-10-11T13:12:52.000Z</time>
      </trkpt>
      <trkpt lat="44.23177" lon="2.97437">
        <ele>829</ele>
        <time>2019-10-11T13:12:53.000Z</time>
      </trkpt>
      <trkpt lat="44.23179" lon="2.97437">
        <ele>829</ele>
        <time>2019-10-11T13:12:54.000Z</time>
      </trkpt>
      <trkpt lat="44.2318" lon="2.97438">
        <ele>830</ele>
        <time>2019-10-11T13:12:55.000Z</time>
      </trkpt>
      <trkpt lat="44.23182" lon="2.97438">
        <ele>830</ele>
        <time>2019-10-11T13:12:56.000Z</time>
      </trkpt>
      <trkpt lat="44.23183" lon="2.97439">
        <ele>830</ele>
        <time>2019-10-11T13:12:57.000Z</time>
      </trkpt>
      <trkpt lat="44.23185" lon="2.97439">
        <ele>830</ele>
        <time>2019-10-11T13:12:58.000Z</time>
      </trkpt>
      <trkpt lat="44.23186" lon="2.9744">
        <ele>830</ele>
        <time>2019-10-11T13:12:59.000Z</time>
      </trkpt>
      <trkpt lat="44.23188" lon="2.97441">
        <ele>830</ele>
        <time>2019-10-11T13:13:00.000Z</time>
      </trkpt>
      <trkpt lat="44.2319" lon="2.97442">
        <ele>830</ele>
        <time>2019-10-11T13:13:01.000Z</time>
      </trkpt>
      <trkpt lat="44.23191" lon="2.97443">
        <ele>830</ele>
        <time>2019-10-11T13:13:02.000Z</time>
      </trkpt>
      <trkpt lat="44.23193" lon="2.97444">
        <ele>831</ele>
        <time>2019-10-11T13:13:03.000Z</time>
      </trkpt>
      <trkpt lat="44.23194" lon="2.97446">
        <ele>831</ele>
        <time>2019-10-11T13:13:04.000Z</time>
      </trkpt>
      <trkpt lat="44.23196" lon="2.97447">
        <ele>831</ele>
        <time>2019-10-11T13:13:05.000Z</time>
      </trkpt>
      <trkpt lat="44.23197" lon="2.97449">
        <ele>831</ele>
        <time>2019-10-11T13:13:06.000Z</time>
      </trkpt>
      <trkpt lat="44.23198" lon="2.9745">
        <ele>831</ele>
        <time>2019-10-11T13:13:07.000Z</time>
      </trkpt>
      <trkpt lat="44.232" lon="2.97452">
        <ele>831</ele>
        <time>2019-10-11T13:13:08.000Z</time>
      </trkpt>
      <trkpt lat="44.23201" lon="2.97453">
        <ele>831</ele>
        <time>2019-10-11T13:13:09.000Z</time>
      </trkpt>
      <trkpt lat="44.23203" lon="2.97455">
        <ele>831</ele>
        <time>2019-10-11T13:13:10.000Z</time>
      </trkpt>
      <trkpt lat="44.23204" lon="2.97457">
        <ele>831</ele>
        <time>2019-10-11T13:13:11.000Z</time>
      </trkpt>
      <trkpt lat="44.23206" lon="2.97458">
        <ele>831</ele>
        <time>2019-10-11T13:13:12.000Z</time>
      </trkpt>
      <trkpt lat="44.23207" lon="2.9746">
        <ele>831</ele>
        <time>2019-10-11T13:13:13.000Z</time>
      </trkpt>
      <trkpt lat="44.23208" lon="2.97461">
        <ele>831</ele>
        <time>2019-10-11T13:13:14.000Z</time>
      </trkpt>
      <trkpt lat="44.23209" lon="2.97463">
        <ele>831</ele>
        <time>2019-10-11T13:13:15.000Z</time>
      </trkpt>
      <trkpt lat="44.23211" lon="2.97465">
        <ele>831</ele>
        <time>2019-10-11T13:13:16.000Z</time>
      </trkpt>
      <trkpt lat="44.23212" lon="2.97466">
        <ele>832</ele>
        <time>2019-10-11T13:13:17.000Z</time>
      </trkpt>
      <trkpt lat="44.23213" lon="2.97468">
        <ele>832</ele>
        <time>2019-10-11T13:13:18.000Z</time>
      </trkpt>
      <trkpt lat="44.23215" lon="2.97469">
        <ele>832</ele>
        <time>2019-10-11T13:13:19.000Z</time>
      </trkpt>
      <trkpt lat="44.23216" lon="2.97471">
        <ele>832</ele>
        <time>2019-10-11T13:13:20.000Z</time>
      </trkpt>
      <trkpt lat="44.23218" lon="2.97473">
        <ele>832</ele>
        <time>2019-10-11T13:13:21.000Z</time>
      </trkpt>
      <trkpt lat="44.23219" lon="2.97474">
        <ele>832</ele>
        <time>2019-10-11T13:13:22.000Z</time>
      </trkpt>
      <trkpt lat="44.2322" lon="2.97476">
        <ele>832</ele>
        <time>2019-10-11T13:13:23.000Z</time>
      </trkpt>
      <trkpt lat="44.23222" lon="2.97477">
        <ele>832</ele>
        <time>2019-10-11T13:13:24.000Z</time>
      </trkpt>
      <trkpt lat="44.23223" lon="2.97479">
        <ele>832</ele>
        <time>2019-10-11T13:13:25.000Z</time>
      </trkpt>
      <trkpt lat="44.23224" lon="2.9748">
        <ele>832</ele>
        <time>2019-10-11T13:13:26.000Z</time>
      </trkpt>
      <trkpt lat="44.23226" lon="2.97481">
        <ele>832</ele>
        <time>2019-10-11T13:13:27.000Z</time>
      </trkpt>
      <trkpt lat="44.23228" lon="2.97482">
        <ele>832</ele>
        <time>2019-10-11T13:13:28.000Z</time>
      </trkpt>
      <trkpt lat="44.23229" lon="2.97483">
        <ele>832</ele>
        <time>2019-10-11T13:13:29.000Z</time>
      </trkpt>
      <trkpt lat="44.23231" lon="2.97484">
        <ele>832</ele>
        <time>2019-10-11T13:13:30.000Z</time>
      </trkpt>
      <trkpt lat="44.23232" lon="2.97485">
        <ele>832</ele>
        <time>2019-10-11T13:13:31.000Z</time>
      </trkpt>
      <trkpt lat="44.23234" lon="2.97486">
        <ele>832</ele>
        <time>2019-10-11T13:13:32.000Z</time>
      </trkpt>
      <trkpt lat="44.23236" lon="2.97487">
        <ele>832</ele>
        <time>2019-10-11T13:13:33.000Z</time>
      </trkpt>
      <trkpt lat="44.23237" lon="2.97488">
        <ele>832</ele>
        <time>2019-10-11T13:13:34.000Z</time>
      </trkpt>
      <trkpt lat="44.23239" lon="2.9749">
        <ele>832</ele>
        <time>2019-10-11T13:13:35.000Z</time>
      </trkpt>
      <trkpt lat="44.2324" lon="2.97491">
        <ele>832</ele>
        <time>2019-10-11T13:13:36.000Z</time>
      </trkpt>
      <trkpt lat="44.23242" lon="2.97492">
        <ele>832</ele>
        <time>2019-10-11T13:13:37.000Z</time>
      </trkpt>
      <trkpt lat="44.23243" lon="2.97493">
        <ele>832</ele>
        <time>2019-10-11T13:13:38.000Z</time>
      </trkpt>
      <trkpt lat="44.23245" lon="2.97494">
        <ele>832</ele>
        <time>2019-10-11T13:13:39.000Z</time>
      </trkpt>
      <trkpt lat="44.23247" lon="2.97495">
        <ele>832</ele>
        <time>2019-10-11T13:13:40.000Z</time>
      </trkpt>
      <trkpt lat="44.23248" lon="2.97495">
        <ele>832</ele>
        <time>2019-10-11T13:13:41.000Z</time>
      </trkpt>
      <trkpt lat="44.2325" lon="2.97496">
        <ele>832</ele>
        <time>2019-10-11T13:13:42.000Z</time>
      </trkpt>
      <trkpt lat="44.23251" lon="2.97497">
        <ele>832</ele>
        <time>2019-10-11T13:13:43.000Z</time>
      </trkpt>
      <trkpt lat="44.23253" lon="2.97499">
        <ele>832</ele>
        <time>2019-10-11T13:13:44.000Z</time>
      </trkpt>
      <trkpt lat="44.23255" lon="2.975">
        <ele>832</ele>
        <time>2019-10-11T13:13:45.000Z</time>
      </trkpt>
      <trkpt lat="44.23256" lon="2.97501">
        <ele>832</ele>
        <time>2019-10-11T13:13:46.000Z</time>
      </trkpt>
      <trkpt lat="44.23258" lon="2.97502">
        <ele>832</ele>
        <time>2019-10-11T13:13:47.000Z</time>
      </trkpt>
      <trkpt lat="44.23259" lon="2.97503">
        <ele>832</ele>
        <time>2019-10-11T13:13:48.000Z</time>
      </trkpt>
      <trkpt lat="44.23261" lon="2.97504">
        <ele>832</ele>
        <time>2019-10-11T13:13:49.000Z</time>
      </trkpt>
      <trkpt lat="44.23262" lon="2.97505">
        <ele>832</ele>
        <time>2019-10-11T13:13:50.000Z</time>
      </trkpt>
      <trkpt lat="44.23264" lon="2.97506">
        <ele>832</ele>
        <time>2019-10-11T13:13:51.000Z</time>
      </trkpt>
      <trkpt lat="44.23266" lon="2.97506">
        <ele>832</ele>
        <time>2019-10-11T13:13:52.000Z</time>
      </trkpt>
      <trkpt lat="44.23267" lon="2.97507">
        <ele>832</ele>
        <time>2019-10-11T13:13:53.000Z</time>
      </trkpt>
      <trkpt lat="44.23269" lon="2.97507">
        <ele>832</ele>
        <time>2019-10-11T13:13:54.000Z</time>
      </trkpt>
      <trkpt lat="44.2327" lon="2.97508">
        <ele>832</ele>
        <time>2019-10-11T13:13:55.000Z</time>
      </trkpt>
      <trkpt lat="44.23272" lon="2.97509">
        <ele>831</ele>
        <time>2019-10-11T13:13:56.000Z</time>
      </trkpt>
      <trkpt lat="44.23273" lon="2.9751">
        <ele>831</ele>
        <time>2019-10-11T13:13:57.000Z</time>
      </trkpt>
      <trkpt lat="44.23275" lon="2.97511">
        <ele>831</ele>
        <time>2019-10-11T13:13:58.000Z</time>
      </trkpt>
      <trkpt lat="44.23276" lon="2.97512">
        <ele>831</ele>
        <time>2019-10-11T13:13:59.000Z</time>
      </trkpt>
      <trkpt lat="44.23278" lon="2.97513">
        <ele>831</ele>
        <time>2019-10-11T13:14:00.000Z</time>
      </trkpt>
      <trkpt lat="44.2328" lon="2.97514">
        <ele>831</ele>
        <time>2019-10-11T13:14:01.000Z</time>
      </trkpt>
      <trkpt lat="44.23281" lon="2.97515">
        <ele>831</ele>
        <time>2019-10-11T13:14:02.000Z</time>
      </trkpt>
      <trkpt lat="44.23283" lon="2.97516">
        <ele>831</ele>
        <time>2019-10-11T13:14:03.000Z</time>
      </trkpt>
      <trkpt lat="44.23284" lon="2.97517">
        <ele>831</ele>
        <time>2019-10-11T13:14:04.000Z</time>
      </trkpt>
      <trkpt lat="44.23286" lon="2.97518">
        <ele>831</ele>
        <time>2019-10-11T13:14:05.000Z</time>
      </trkpt>
      <trkpt lat="44.23287" lon="2.97519">
        <ele>831</ele>
        <time>2019-10-11T13:14:06.000Z</time>
      </trkpt>
      <trkpt lat="44.23289" lon="2.9752">
        <ele>831</ele>
        <time>2019-10-11T13:14:07.000Z</time>
      </trkpt>
      <trkpt lat="44.2329" lon="2.97522">
        <ele>831</ele>
        <time>2019-10-11T13:14:08.000Z</time>
      </trkpt>
      <trkpt lat="44.23292" lon="2.97523">
        <ele>831</ele>
        <time>2019-10-11T13:14:09.000Z</time>
      </trkpt>
      <trkpt lat="44.23293" lon="2.97524">
        <ele>831</ele>
        <time>2019-10-11T13:14:10.000Z</time>
      </trkpt>
      <trkpt lat="44.23294" lon="2.97525">
        <ele>830</ele>
        <time>2019-10-11T13:14:11.000Z</time>
      </trkpt>
      <trkpt lat="44.23296" lon="2.97526">
        <ele>830</ele>
        <time>2019-10-11T13:14:12.000Z</time>
      </trkpt>
      <trkpt lat="44.23297" lon="2.97527">
        <ele>830</ele>
        <time>2019-10-11T13:14:13.000Z</time>
      </trkpt>
      <trkpt lat="44.23299" lon="2.97528">
        <ele>830</ele>
        <time>2019-10-11T13:14:14.000Z</time>
      </trkpt>
      <trkpt lat="44.233" lon="2.9753">
        <ele>830</ele>
        <time>2019-10-11T13:14:15.000Z</time>
      </trkpt>
      <trkpt lat="44.23301" lon="2.97531">
        <ele>830</ele>
        <time>2019-10-11T13:14:16.000Z</time>
      </trkpt>
      <trkpt lat="44.23303" lon="2.97532">
        <ele>830</ele>
        <time>2019-10-11T13:14:17.000Z</time>
      </trkpt>
      <trkpt lat="44.23304" lon="2.97533">
        <ele>830</ele>
        <time>2019-10-11T13:14:18.000Z</time>
      </trkpt>
      <trkpt lat="44.23306" lon="2.97534">
        <ele>830</ele>
        <time>2019-10-11T13:14:19.000Z</time>
      </trkpt>
      <trkpt lat="44.23307" lon="2.97536">
        <ele>830</ele>
        <time>2019-10-11T13:14:20.000Z</time>
      </trkpt>
      <trkpt lat="44.23308" lon="2.97537">
        <ele>829</ele>
        <time>2019-10-11T13:14:21.000Z</time>
      </trkpt>
      <trkpt lat="44.23309" lon="2.97539">
        <ele>829</ele>
        <time>2019-10-11T13:14:22.000Z</time>
      </trkpt>
      <trkpt lat="44.23311" lon="2.9754">
        <ele>829</ele>
        <time>2019-10-11T13:14:23.000Z</time>
      </trkpt>
      <trkpt lat="44.23312" lon="2.97541">
        <ele>829</ele>
        <time>2019-10-11T13:14:24.000Z</time>
      </trkpt>
      <trkpt lat="44.23314" lon="2.97542">
        <ele>829</ele>
        <time>2019-10-11T13:14:25.000Z</time>
      </trkpt>
      <trkpt lat="44.23315" lon="2.97543">
        <ele>829</ele>
        <time>2019-10-11T13:14:26.000Z</time>
      </trkpt>
      <trkpt lat="44.23316" lon="2.97544">
        <ele>829</ele>
        <time>2019-10-11T13:14:27.000Z</time>
      </trkpt>
      <trkpt lat="44.23317" lon="2.97546">
        <ele>829</ele>
        <time>2019-10-11T13:14:28.000Z</time>
      </trkpt>
      <trkpt lat="44.23319" lon="2.97547">
        <ele>829</ele>
        <time>2019-10-11T13:14:29.000Z</time>
      </trkpt>
      <trkpt lat="44.2332" lon="2.97548">
        <ele>829</ele>
        <time>2019-10-11T13:14:30.000Z</time>
      </trkpt>
      <trkpt lat="44.23321" lon="2.9755">
        <ele>829</ele>
        <time>2019-10-11T13:14:31.000Z</time>
      </trkpt>
      <trkpt lat="44.23322" lon="2.97551">
        <ele>829</ele>
        <time>2019-10-11T13:14:32.000Z</time>
      </trkpt>
      <trkpt lat="44.23324" lon="2.97552">
        <ele>829</ele>
        <time>2019-10-11T13:14:33.000Z</time>
      </trkpt>
      <trkpt lat="44.23325" lon="2.97554">
        <ele>829</ele>
        <time>2019-10-11T13:14:34.000Z</time>
      </trkpt>
      <trkpt lat="44.23326" lon="2.97555">
        <ele>829</ele>
        <time>2019-10-11T13:14:35.000Z</time>
      </trkpt>
      <trkpt lat="44.23328" lon="2.97556">
        <ele>828</ele>
        <time>2019-10-11T13:14:36.000Z</time>
      </trkpt>
      <trkpt lat="44.23329" lon="2.97558">
        <ele>828</ele>
        <time>2019-10-11T13:14:37.000Z</time>
      </trkpt>
      <trkpt lat="44.2333" lon="2.97559">
        <ele>828</ele>
        <time>2019-10-11T13:14:38.000Z</time>
      </trkpt>
      <trkpt lat="44.23332" lon="2.97561">
        <ele>828</ele>
        <time>2019-10-11T13:14:39.000Z</time>
      </trkpt>
      <trkpt lat="44.23333" lon="2.97562">
        <ele>828</ele>
        <time>2019-10-11T13:14:40.000Z</time>
      </trkpt>
      <trkpt lat="44.23334" lon="2.97564">
        <ele>828</ele>
        <time>2019-10-11T13:14:41.000Z</time>
      </trkpt>
      <trkpt lat="44.23335" lon="2.97565">
        <ele>828</ele>
        <time>2019-10-11T13:14:42.000Z</time>
      </trkpt>
      <trkpt lat="44.23337" lon="2.97567">
        <ele>828</ele>
        <time>2019-10-11T13:14:43.000Z</time>
      </trkpt>
      <trkpt lat="44.23338" lon="2.97568">
        <ele>828</ele>
        <time>2019-10-11T13:14:44.000Z</time>
      </trkpt>
      <trkpt lat="44.23339" lon="2.9757">
        <ele>828</ele>
        <time>2019-10-11T13:14:45.000Z</time>
      </trkpt>
      <trkpt lat="44.2334" lon="2.97572">
        <ele>828</ele>
        <time>2019-10-11T13:14:46.000Z</time>
      </trkpt>
      <trkpt lat="44.23341" lon="2.97573">
        <ele>828</ele>
        <time>2019-10-11T13:14:47.000Z</time>
      </trkpt>
      <trkpt lat="44.23342" lon="2.97574">
        <ele>828</ele>
        <time>2019-10-11T13:14:48.000Z</time>
      </trkpt>
      <trkpt lat="44.23343" lon="2.97576">
        <ele>828</ele>
        <time>2019-10-11T13:14:49.000Z</time>
      </trkpt>
      <trkpt lat="44.23344" lon="2.97577">
        <ele>828</ele>
        <time>2019-10-11T13:14:50.000Z</time>
      </trkpt>
      <trkpt lat="44.23345" lon="2.97578">
        <ele>828</ele>
        <time>2019-10-11T13:14:51.000Z</time>
      </trkpt>
      <trkpt lat="44.23346" lon="2.9758">
        <ele>828</ele>
        <time>2019-10-11T13:14:52.000Z</time>
      </trkpt>
      <trkpt lat="44.23345" lon="2.97582">
        <ele>828</ele>
        <time>2019-10-11T13:14:53.000Z</time>
      </trkpt>
      <trkpt lat="44.23345" lon="2.97583">
        <ele>828</ele>
        <time>2019-10-11T13:14:54.000Z</time>
      </trkpt>
      <trkpt lat="44.23344" lon="2.97585">
        <ele>827</ele>
        <time>2019-10-11T13:14:55.000Z</time>
      </trkpt>
      <trkpt lat="44.23343" lon="2.97586">
        <ele>827</ele>
        <time>2019-10-11T13:14:56.000Z</time>
      </trkpt>
      <trkpt lat="44.23342" lon="2.97587">
        <ele>827</ele>
        <time>2019-10-11T13:14:57.000Z</time>
      </trkpt>
      <trkpt lat="44.23341" lon="2.97588">
        <ele>827</ele>
        <time>2019-10-11T13:14:58.000Z</time>
      </trkpt>
      <trkpt lat="44.2334" lon="2.97589">
        <ele>827</ele>
        <time>2019-10-11T13:14:59.000Z</time>
      </trkpt>
      <trkpt lat="44.23338" lon="2.9759">
        <ele>826</ele>
        <time>2019-10-11T13:15:00.000Z</time>
      </trkpt>
      <trkpt lat="44.23337" lon="2.97591">
        <ele>826</ele>
        <time>2019-10-11T13:15:01.000Z</time>
      </trkpt>
      <trkpt lat="44.23336" lon="2.97593">
        <ele>826</ele>
        <time>2019-10-11T13:15:02.000Z</time>
      </trkpt>
      <trkpt lat="44.23334" lon="2.97594">
        <ele>826</ele>
        <time>2019-10-11T13:15:03.000Z</time>
      </trkpt>
      <trkpt lat="44.23333" lon="2.97595">
        <ele>826</ele>
        <time>2019-10-11T13:15:04.000Z</time>
      </trkpt>
      <trkpt lat="44.23332" lon="2.97597">
        <ele>826</ele>
        <time>2019-10-11T13:15:05.000Z</time>
      </trkpt>
      <trkpt lat="44.23331" lon="2.97598">
        <ele>825</ele>
        <time>2019-10-11T13:15:06.000Z</time>
      </trkpt>
      <trkpt lat="44.23329" lon="2.976">
        <ele>825</ele>
        <time>2019-10-11T13:15:07.000Z</time>
      </trkpt>
      <trkpt lat="44.23328" lon="2.97602">
        <ele>825</ele>
        <time>2019-10-11T13:15:08.000Z</time>
      </trkpt>
      <trkpt lat="44.23326" lon="2.97603">
        <ele>825</ele>
        <time>2019-10-11T13:15:09.000Z</time>
      </trkpt>
      <trkpt lat="44.23325" lon="2.97605">
        <ele>825</ele>
        <time>2019-10-11T13:15:10.000Z</time>
      </trkpt>
      <trkpt lat="44.23323" lon="2.97606">
        <ele>825</ele>
        <time>2019-10-11T13:15:11.000Z</time>
      </trkpt>
      <trkpt lat="44.23322" lon="2.97608">
        <ele>824</ele>
        <time>2019-10-11T13:15:12.000Z</time>
      </trkpt>
      <trkpt lat="44.2332" lon="2.9761">
        <ele>824</ele>
        <time>2019-10-11T13:15:13.000Z</time>
      </trkpt>
      <trkpt lat="44.23319" lon="2.97611">
        <ele>824</ele>
        <time>2019-10-11T13:15:14.000Z</time>
      </trkpt>
      <trkpt lat="44.23317" lon="2.97613">
        <ele>824</ele>
        <time>2019-10-11T13:15:15.000Z</time>
      </trkpt>
      <trkpt lat="44.23316" lon="2.97614">
        <ele>824</ele>
        <time>2019-10-11T13:15:16.000Z</time>
      </trkpt>
      <trkpt lat="44.23314" lon="2.97615">
        <ele>824</ele>
        <time>2019-10-11T13:15:17.000Z</time>
      </trkpt>
      <trkpt lat="44.23313" lon="2.97617">
        <ele>824</ele>
        <time>2019-10-11T13:15:18.000Z</time>
      </trkpt>
      <trkpt lat="44.23312" lon="2.97618">
        <ele>824</ele>
        <time>2019-10-11T13:15:19.000Z</time>
      </trkpt>
      <trkpt lat="44.2331" lon="2.9762">
        <ele>824</ele>
        <time>2019-10-11T13:15:20.000Z</time>
      </trkpt>
      <trkpt lat="44.23309" lon="2.97622">
        <ele>824</ele>
        <time>2019-10-11T13:15:21.000Z</time>
      </trkpt>
      <trkpt lat="44.23307" lon="2.97623">
        <ele>824</ele>
        <time>2019-10-11T13:15:22.000Z</time>
      </trkpt>
      <trkpt lat="44.23305" lon="2.97625">
        <ele>824</ele>
        <time>2019-10-11T13:15:23.000Z</time>
      </trkpt>
      <trkpt lat="44.23304" lon="2.97626">
        <ele>824</ele>
        <time>2019-10-11T13:15:24.000Z</time>
      </trkpt>
      <trkpt lat="44.23302" lon="2.97628">
        <ele>824</ele>
        <time>2019-10-11T13:15:25.000Z</time>
      </trkpt>
      <trkpt lat="44.23301" lon="2.97629">
        <ele>824</ele>
        <time>2019-10-11T13:15:26.000Z</time>
      </trkpt>
      <trkpt lat="44.23299" lon="2.97631">
        <ele>824</ele>
        <time>2019-10-11T13:15:27.000Z</time>
      </trkpt>
      <trkpt lat="44.23298" lon="2.97633">
        <ele>824</ele>
        <time>2019-10-11T13:15:28.000Z</time>
      </trkpt>
      <trkpt lat="44.23297" lon="2.97635">
        <ele>824</ele>
        <time>2019-10-11T13:15:29.000Z</time>
      </trkpt>
      <trkpt lat="44.23297" lon="2.97637">
        <ele>824</ele>
        <time>2019-10-11T13:15:30.000Z</time>
      </trkpt>
      <trkpt lat="44.23296" lon="2.97639">
        <ele>824</ele>
        <time>2019-10-11T13:15:31.000Z</time>
      </trkpt>
      <trkpt lat="44.23295" lon="2.97641">
        <ele>823</ele>
        <time>2019-10-11T13:15:32.000Z</time>
      </trkpt>
      <trkpt lat="44.23294" lon="2.97644">
        <ele>823</ele>
        <time>2019-10-11T13:15:33.000Z</time>
      </trkpt>
      <trkpt lat="44.23294" lon="2.97646">
        <ele>823</ele>
        <time>2019-10-11T13:15:34.000Z</time>
      </trkpt>
      <trkpt lat="44.23293" lon="2.97648">
        <ele>823</ele>
        <time>2019-10-11T13:15:35.000Z</time>
      </trkpt>
      <trkpt lat="44.23293" lon="2.97651">
        <ele>823</ele>
        <time>2019-10-11T13:15:36.000Z</time>
      </trkpt>
      <trkpt lat="44.23292" lon="2.97653">
        <ele>823</ele>
        <time>2019-10-11T13:15:37.000Z</time>
      </trkpt>
      <trkpt lat="44.23293" lon="2.97655">
        <ele>823</ele>
        <time>2019-10-11T13:15:38.000Z</time>
      </trkpt>
      <trkpt lat="44.23293" lon="2.97658">
        <ele>823</ele>
        <time>2019-10-11T13:15:39.000Z</time>
      </trkpt>
      <trkpt lat="44.23293" lon="2.9766">
        <ele>823</ele>
        <time>2019-10-11T13:15:40.000Z</time>
      </trkpt>
      <trkpt lat="44.23293" lon="2.97662">
        <ele>823</ele>
        <time>2019-10-11T13:15:41.000Z</time>
      </trkpt>
      <trkpt lat="44.23293" lon="2.97664">
        <ele>823</ele>
        <time>2019-10-11T13:15:42.000Z</time>
      </trkpt>
      <trkpt lat="44.23292" lon="2.97666">
        <ele>823</ele>
        <time>2019-10-11T13:15:43.000Z</time>
      </trkpt>
      <trkpt lat="44.23292" lon="2.97668">
        <ele>823</ele>
        <time>2019-10-11T13:15:44.000Z</time>
      </trkpt>
      <trkpt lat="44.23292" lon="2.9767">
        <ele>823</ele>
        <time>2019-10-11T13:15:45.000Z</time>
      </trkpt>
      <trkpt lat="44.23293" lon="2.97672">
        <ele>823</ele>
        <time>2019-10-11T13:15:46.000Z</time>
      </trkpt>
      <trkpt lat="44.23293" lon="2.97674">
        <ele>823</ele>
        <time>2019-10-11T13:15:47.000Z</time>
      </trkpt>
      <trkpt lat="44.23294" lon="2.97676">
        <ele>823</ele>
        <time>2019-10-11T13:15:48.000Z</time>
      </trkpt>
      <trkpt lat="44.23294" lon="2.97678">
        <ele>823</ele>
        <time>2019-10-11T13:15:49.000Z</time>
      </trkpt>
      <trkpt lat="44.23294" lon="2.9768">
        <ele>823</ele>
        <time>2019-10-11T13:15:50.000Z</time>
      </trkpt>
      <trkpt lat="44.23294" lon="2.97683">
        <ele>822</ele>
        <time>2019-10-11T13:15:51.000Z</time>
      </trkpt>
      <trkpt lat="44.23294" lon="2.97685">
        <ele>822</ele>
        <time>2019-10-11T13:15:52.000Z</time>
      </trkpt>
      <trkpt lat="44.23293" lon="2.97687">
        <ele>822</ele>
        <time>2019-10-11T13:15:53.000Z</time>
      </trkpt>
      <trkpt lat="44.23293" lon="2.97689">
        <ele>822</ele>
        <time>2019-10-11T13:15:54.000Z</time>
      </trkpt>
      <trkpt lat="44.23293" lon="2.97692">
        <ele>822</ele>
        <time>2019-10-11T13:15:55.000Z</time>
      </trkpt>
      <trkpt lat="44.23292" lon="2.97694">
        <ele>822</ele>
        <time>2019-10-11T13:15:56.000Z</time>
      </trkpt>
      <trkpt lat="44.23292" lon="2.97696">
        <ele>822</ele>
        <time>2019-10-11T13:15:57.000Z</time>
      </trkpt>
      <trkpt lat="44.23292" lon="2.97698">
        <ele>822</ele>
        <time>2019-10-11T13:15:58.000Z</time>
      </trkpt>
      <trkpt lat="44.23291" lon="2.97701">
        <ele>822</ele>
        <time>2019-10-11T13:15:59.000Z</time>
      </trkpt>
      <trkpt lat="44.23291" lon="2.97703">
        <ele>821</ele>
        <time>2019-10-11T13:16:00.000Z</time>
      </trkpt>
      <trkpt lat="44.23291" lon="2.97705">
        <ele>821</ele>
        <time>2019-10-11T13:16:01.000Z</time>
      </trkpt>
      <trkpt lat="44.2329" lon="2.97708">
        <ele>821</ele>
        <time>2019-10-11T13:16:02.000Z</time>
      </trkpt>
      <trkpt lat="44.2329" lon="2.9771">
        <ele>821</ele>
        <time>2019-10-11T13:16:03.000Z</time>
      </trkpt>
      <trkpt lat="44.23289" lon="2.97712">
        <ele>821</ele>
        <time>2019-10-11T13:16:04.000Z</time>
      </trkpt>
      <trkpt lat="44.23289" lon="2.97714">
        <ele>821</ele>
        <time>2019-10-11T13:16:05.000Z</time>
      </trkpt>
      <trkpt lat="44.23288" lon="2.97716">
        <ele>820</ele>
        <time>2019-10-11T13:16:06.000Z</time>
      </trkpt>
      <trkpt lat="44.23288" lon="2.97719">
        <ele>820</ele>
        <time>2019-10-11T13:16:07.000Z</time>
      </trkpt>
      <trkpt lat="44.23287" lon="2.97721">
        <ele>820</ele>
        <time>2019-10-11T13:16:08.000Z</time>
      </trkpt>
      <trkpt lat="44.23287" lon="2.97724">
        <ele>820</ele>
        <time>2019-10-11T13:16:09.000Z</time>
      </trkpt>
      <trkpt lat="44.23286" lon="2.97726">
        <ele>820</ele>
        <time>2019-10-11T13:16:10.000Z</time>
      </trkpt>
      <trkpt lat="44.23286" lon="2.97728">
        <ele>820</ele>
        <time>2019-10-11T13:16:11.000Z</time>
      </trkpt>
      <trkpt lat="44.23287" lon="2.97731">
        <ele>820</ele>
        <time>2019-10-11T13:16:12.000Z</time>
      </trkpt>
      <trkpt lat="44.23287" lon="2.97733">
        <ele>820</ele>
        <time>2019-10-11T13:16:13.000Z</time>
      </trkpt>
      <trkpt lat="44.23287" lon="2.97735">
        <ele>819</ele>
        <time>2019-10-11T13:16:14.000Z</time>
      </trkpt>
      <trkpt lat="44.23287" lon="2.97737">
        <ele>819</ele>
        <time>2019-10-11T13:16:15.000Z</time>
      </trkpt>
      <trkpt lat="44.23287" lon="2.97739">
        <ele>819</ele>
        <time>2019-10-11T13:16:16.000Z</time>
      </trkpt>
      <trkpt lat="44.23287" lon="2.97741">
        <ele>819</ele>
        <time>2019-10-11T13:16:17.000Z</time>
      </trkpt>
      <trkpt lat="44.23286" lon="2.97744">
        <ele>819</ele>
        <time>2019-10-11T13:16:18.000Z</time>
      </trkpt>
      <trkpt lat="44.23286" lon="2.97746">
        <ele>819</ele>
        <time>2019-10-11T13:16:19.000Z</time>
      </trkpt>
      <trkpt lat="44.23285" lon="2.97748">
        <ele>819</ele>
        <time>2019-10-11T13:16:20.000Z</time>
      </trkpt>
      <trkpt lat="44.23285" lon="2.97751">
        <ele>819</ele>
        <time>2019-10-11T13:16:21.000Z</time>
      </trkpt>
      <trkpt lat="44.23285" lon="2.97753">
        <ele>818</ele>
        <time>2019-10-11T13:16:22.000Z</time>
      </trkpt>
      <trkpt lat="44.23285" lon="2.97755">
        <ele>818</ele>
        <time>2019-10-11T13:16:23.000Z</time>
      </trkpt>
      <trkpt lat="44.23285" lon="2.97758">
        <ele>818</ele>
        <time>2019-10-11T13:16:24.000Z</time>
      </trkpt>
      <trkpt lat="44.23285" lon="2.9776">
        <ele>818</ele>
        <time>2019-10-11T13:16:25.000Z</time>
      </trkpt>
      <trkpt lat="44.23285" lon="2.97763">
        <ele>818</ele>
        <time>2019-10-11T13:16:26.000Z</time>
      </trkpt>
      <trkpt lat="44.23285" lon="2.97765">
        <ele>817</ele>
        <time>2019-10-11T13:16:27.000Z</time>
      </trkpt>
      <trkpt lat="44.23285" lon="2.97767">
        <ele>817</ele>
        <time>2019-10-11T13:16:28.000Z</time>
      </trkpt>
      <trkpt lat="44.23285" lon="2.9777">
        <ele>817</ele>
        <time>2019-10-11T13:16:29.000Z</time>
      </trkpt>
      <trkpt lat="44.23285" lon="2.97772">
        <ele>817</ele>
        <time>2019-10-11T13:16:30.000Z</time>
      </trkpt>
      <trkpt lat="44.23286" lon="2.97774">
        <ele>816</ele>
        <time>2019-10-11T13:16:31.000Z</time>
      </trkpt>
      <trkpt lat="44.23286" lon="2.97776">
        <ele>816</ele>
        <time>2019-10-11T13:16:32.000Z</time>
      </trkpt>
      <trkpt lat="44.23287" lon="2.97778">
        <ele>816</ele>
        <time>2019-10-11T13:16:33.000Z</time>
      </trkpt>
      <trkpt lat="44.23287" lon="2.9778">
        <ele>815</ele>
        <time>2019-10-11T13:16:34.000Z</time>
      </trkpt>
      <trkpt lat="44.23288" lon="2.97782">
        <ele>815</ele>
        <time>2019-10-11T13:16:35.000Z</time>
      </trkpt>
      <trkpt lat="44.23289" lon="2.97784">
        <ele>815</ele>
        <time>2019-10-11T13:16:36.000Z</time>
      </trkpt>
      <trkpt lat="44.23289" lon="2.97786">
        <ele>814</ele>
        <time>2019-10-11T13:16:37.000Z</time>
      </trkpt>
      <trkpt lat="44.2329" lon="2.97788">
        <ele>814</ele>
        <time>2019-10-11T13:16:38.000Z</time>
      </trkpt>
      <trkpt lat="44.23291" lon="2.9779">
        <ele>814</ele>
        <time>2019-10-11T13:16:39.000Z</time>
      </trkpt>
      <trkpt lat="44.23292" lon="2.97793">
        <ele>814</ele>
        <time>2019-10-11T13:16:40.000Z</time>
      </trkpt>
      <trkpt lat="44.23292" lon="2.97795">
        <ele>813</ele>
        <time>2019-10-11T13:16:41.000Z</time>
      </trkpt>
      <trkpt lat="44.23293" lon="2.97797">
        <ele>813</ele>
        <time>2019-10-11T13:16:42.000Z</time>
      </trkpt>
      <trkpt lat="44.23293" lon="2.978">
        <ele>813</ele>
        <time>2019-10-11T13:16:43.000Z</time>
      </trkpt>
      <trkpt lat="44.23293" lon="2.97802">
        <ele>813</ele>
        <time>2019-10-11T13:16:44.000Z</time>
      </trkpt>
      <trkpt lat="44.23294" lon="2.97804">
        <ele>812</ele>
        <time>2019-10-11T13:16:45.000Z</time>
      </trkpt>
      <trkpt lat="44.23294" lon="2.97806">
        <ele>812</ele>
        <time>2019-10-11T13:16:46.000Z</time>
      </trkpt>
      <trkpt lat="44.23294" lon="2.97808">
        <ele>812</ele>
        <time>2019-10-11T13:16:47.000Z</time>
      </trkpt>
      <trkpt lat="44.23295" lon="2.97811">
        <ele>812</ele>
        <time>2019-10-11T13:16:48.000Z</time>
      </trkpt>
      <trkpt lat="44.23295" lon="2.97813">
        <ele>812</ele>
        <time>2019-10-11T13:16:49.000Z</time>
      </trkpt>
      <trkpt lat="44.23295" lon="2.97815">
        <ele>812</ele>
        <time>2019-10-11T13:16:50.000Z</time>
      </trkpt>
      <trkpt lat="44.23295" lon="2.97817">
        <ele>812</ele>
        <time>2019-10-11T13:16:51.000Z</time>
      </trkpt>
      <trkpt lat="44.23295" lon="2.97819">
        <ele>812</ele>
        <time>2019-10-11T13:16:52.000Z</time>
      </trkpt>
      <trkpt lat="44.23295" lon="2.97821">
        <ele>811</ele>
        <time>2019-10-11T13:16:53.000Z</time>
      </trkpt>
      <trkpt lat="44.23295" lon="2.97823">
        <ele>811</ele>
        <time>2019-10-11T13:16:54.000Z</time>
      </trkpt>
      <trkpt lat="44.23295" lon="2.97825">
        <ele>811</ele>
        <time>2019-10-11T13:16:55.000Z</time>
      </trkpt>
      <trkpt lat="44.23296" lon="2.97827">
        <ele>811</ele>
        <time>2019-10-11T13:16:56.000Z</time>
      </trkpt>
      <trkpt lat="44.23296" lon="2.97829">
        <ele>811</ele>
        <time>2019-10-11T13:16:57.000Z</time>
      </trkpt>
      <trkpt lat="44.23296" lon="2.97831">
        <ele>811</ele>
        <time>2019-10-11T13:16:58.000Z</time>
      </trkpt>
      <trkpt lat="44.23296" lon="2.97833">
        <ele>811</ele>
        <time>2019-10-11T13:16:59.000Z</time>
      </trkpt>
      <trkpt lat="44.23297" lon="2.97835">
        <ele>810</ele>
        <time>2019-10-11T13:17:00.000Z</time>
      </trkpt>
      <trkpt lat="44.23297" lon="2.97837">
        <ele>810</ele>
        <time>2019-10-11T13:17:01.000Z</time>
      </trkpt>
      <trkpt lat="44.23297" lon="2.97839">
        <ele>810</ele>
        <time>2019-10-11T13:17:02.000Z</time>
      </trkpt>
      <trkpt lat="44.23297" lon="2.97841">
        <ele>810</ele>
        <time>2019-10-11T13:17:03.000Z</time>
      </trkpt>
      <trkpt lat="44.23298" lon="2.97843">
        <ele>810</ele>
        <time>2019-10-11T13:17:04.000Z</time>
      </trkpt>
      <trkpt lat="44.23298" lon="2.97845">
        <ele>809</ele>
        <time>2019-10-11T13:17:05.000Z</time>
      </trkpt>
      <trkpt lat="44.23299" lon="2.97847">
        <ele>809</ele>
        <time>2019-10-11T13:17:06.000Z</time>
      </trkpt>
      <trkpt lat="44.23299" lon="2.97849">
        <ele>809</ele>
        <time>2019-10-11T13:17:07.000Z</time>
      </trkpt>
      <trkpt lat="44.23299" lon="2.97851">
        <ele>809</ele>
        <time>2019-10-11T13:17:08.000Z</time>
      </trkpt>
      <trkpt lat="44.23298" lon="2.97853">
        <ele>809</ele>
        <time>2019-10-11T13:17:09.000Z</time>
      </trkpt>
      <trkpt lat="44.23298" lon="2.97855">
        <ele>809</ele>
        <time>2019-10-11T13:17:10.000Z</time>
      </trkpt>
      <trkpt lat="44.23298" lon="2.97857">
        <ele>809</ele>
        <time>2019-10-11T13:17:11.000Z</time>
      </trkpt>
      <trkpt lat="44.23298" lon="2.97858">
        <ele>809</ele>
        <time>2019-10-11T13:17:12.000Z</time>
      </trkpt>
      <trkpt lat="44.23298" lon="2.9786">
        <ele>809</ele>
        <time>2019-10-11T13:17:13.000Z</time>
      </trkpt>
      <trkpt lat="44.23297" lon="2.97862">
        <ele>808</ele>
        <time>2019-10-11T13:17:14.000Z</time>
      </trkpt>
      <trkpt lat="44.23297" lon="2.97864">
        <ele>808</ele>
        <time>2019-10-11T13:17:15.000Z</time>
      </trkpt>
      <trkpt lat="44.23297" lon="2.97865">
        <ele>808</ele>
        <time>2019-10-11T13:17:16.000Z</time>
      </trkpt>
      <trkpt lat="44.23297" lon="2.97867">
        <ele>808</ele>
        <time>2019-10-11T13:17:17.000Z</time>
      </trkpt>
      <trkpt lat="44.23296" lon="2.97869">
        <ele>808</ele>
        <time>2019-10-11T13:17:18.000Z</time>
      </trkpt>
      <trkpt lat="44.23296" lon="2.97871">
        <ele>808</ele>
        <time>2019-10-11T13:17:19.000Z</time>
      </trkpt>
      <trkpt lat="44.23296" lon="2.97873">
        <ele>808</ele>
        <time>2019-10-11T13:17:20.000Z</time>
      </trkpt>
      <trkpt lat="44.23296" lon="2.97875">
        <ele>808</ele>
        <time>2019-10-11T13:17:21.000Z</time>
      </trkpt>
      <trkpt lat="44.23295" lon="2.97877">
        <ele>808</ele>
        <time>2019-10-11T13:17:22.000Z</time>
      </trkpt>
      <trkpt lat="44.23295" lon="2.9788">
        <ele>808</ele>
        <time>2019-10-11T13:17:23.000Z</time>
      </trkpt>
      <trkpt lat="44.23294" lon="2.97882">
        <ele>808</ele>
        <time>2019-10-11T13:17:24.000Z</time>
      </trkpt>
      <trkpt lat="44.23294" lon="2.97884">
        <ele>808</ele>
        <time>2019-10-11T13:17:25.000Z</time>
      </trkpt>
      <trkpt lat="44.23294" lon="2.97887">
        <ele>808</ele>
        <time>2019-10-11T13:17:26.000Z</time>
      </trkpt>
      <trkpt lat="44.23294" lon="2.97889">
        <ele>808</ele>
        <time>2019-10-11T13:17:27.000Z</time>
      </trkpt>
      <trkpt lat="44.23294" lon="2.97891">
        <ele>808</ele>
        <time>2019-10-11T13:17:28.000Z</time>
      </trkpt>
      <trkpt lat="44.23293" lon="2.97893">
        <ele>808</ele>
        <time>2019-10-11T13:17:29.000Z</time>
      </trkpt>
      <trkpt lat="44.23293" lon="2.97895">
        <ele>807</ele>
        <time>2019-10-11T13:17:30.000Z</time>
      </trkpt>
      <trkpt lat="44.23293" lon="2.97897">
        <ele>807</ele>
        <time>2019-10-11T13:17:31.000Z</time>
      </trkpt>
      <trkpt lat="44.23293" lon="2.979">
        <ele>807</ele>
        <time>2019-10-11T13:17:32.000Z</time>
      </trkpt>
      <trkpt lat="44.23293" lon="2.97902">
        <ele>807</ele>
        <time>2019-10-11T13:17:33.000Z</time>
      </trkpt>
      <trkpt lat="44.23293" lon="2.97904">
        <ele>807</ele>
        <time>2019-10-11T13:17:34.000Z</time>
      </trkpt>
      <trkpt lat="44.23293" lon="2.97906">
        <ele>806</ele>
        <time>2019-10-11T13:17:35.000Z</time>
      </trkpt>
      <trkpt lat="44.23292" lon="2.97909">
        <ele>806</ele>
        <time>2019-10-11T13:17:36.000Z</time>
      </trkpt>
      <trkpt lat="44.23292" lon="2.97911">
        <ele>806</ele>
        <time>2019-10-11T13:17:37.000Z</time>
      </trkpt>
      <trkpt lat="44.23292" lon="2.97913">
        <ele>806</ele>
        <time>2019-10-11T13:17:38.000Z</time>
      </trkpt>
      <trkpt lat="44.23292" lon="2.97915">
        <ele>806</ele>
        <time>2019-10-11T13:17:39.000Z</time>
      </trkpt>
      <trkpt lat="44.23291" lon="2.97917">
        <ele>806</ele>
        <time>2019-10-11T13:17:40.000Z</time>
      </trkpt>
      <trkpt lat="44.23291" lon="2.97919">
        <ele>806</ele>
        <time>2019-10-11T13:17:41.000Z</time>
      </trkpt>
      <trkpt lat="44.2329" lon="2.97921">
        <ele>806</ele>
        <time>2019-10-11T13:17:42.000Z</time>
      </trkpt>
      <trkpt lat="44.2329" lon="2.97923">
        <ele>805</ele>
        <time>2019-10-11T13:17:43.000Z</time>
      </trkpt>
      <trkpt lat="44.23289" lon="2.97924">
        <ele>805</ele>
        <time>2019-10-11T13:17:44.000Z</time>
      </trkpt>
      <trkpt lat="44.23288" lon="2.97926">
        <ele>805</ele>
        <time>2019-10-11T13:17:45.000Z</time>
      </trkpt>
      <trkpt lat="44.23287" lon="2.97928">
        <ele>805</ele>
        <time>2019-10-11T13:17:46.000Z</time>
      </trkpt>
      <trkpt lat="44.23286" lon="2.9793">
        <ele>805</ele>
        <time>2019-10-11T13:17:47.000Z</time>
      </trkpt>
      <trkpt lat="44.23285" lon="2.97931">
        <ele>804</ele>
        <time>2019-10-11T13:17:48.000Z</time>
      </trkpt>
      <trkpt lat="44.23283" lon="2.97933">
        <ele>804</ele>
        <time>2019-10-11T13:17:49.000Z</time>
      </trkpt>
      <trkpt lat="44.23282" lon="2.97934">
        <ele>804</ele>
        <time>2019-10-11T13:17:50.000Z</time>
      </trkpt>
      <trkpt lat="44.2328" lon="2.97936">
        <ele>804</ele>
        <time>2019-10-11T13:17:51.000Z</time>
      </trkpt>
      <trkpt lat="44.23279" lon="2.97937">
        <ele>803</ele>
        <time>2019-10-11T13:17:52.000Z</time>
      </trkpt>
      <trkpt lat="44.23278" lon="2.97938">
        <ele>803</ele>
        <time>2019-10-11T13:17:53.000Z</time>
      </trkpt>
      <trkpt lat="44.23277" lon="2.97939">
        <ele>803</ele>
        <time>2019-10-11T13:17:54.000Z</time>
      </trkpt>
      <trkpt lat="44.23275" lon="2.9794">
        <ele>803</ele>
        <time>2019-10-11T13:17:55.000Z</time>
      </trkpt>
      <trkpt lat="44.23274" lon="2.97941">
        <ele>802</ele>
        <time>2019-10-11T13:17:56.000Z</time>
      </trkpt>
      <trkpt lat="44.23273" lon="2.97942">
        <ele>802</ele>
        <time>2019-10-11T13:17:57.000Z</time>
      </trkpt>
      <trkpt lat="44.23271" lon="2.97943">
        <ele>802</ele>
        <time>2019-10-11T13:17:58.000Z</time>
      </trkpt>
      <trkpt lat="44.2327" lon="2.97944">
        <ele>801</ele>
        <time>2019-10-11T13:17:59.000Z</time>
      </trkpt>
      <trkpt lat="44.23268" lon="2.97945">
        <ele>801</ele>
        <time>2019-10-11T13:18:00.000Z</time>
      </trkpt>
      <trkpt lat="44.23267" lon="2.97946">
        <ele>801</ele>
        <time>2019-10-11T13:18:01.000Z</time>
      </trkpt>
      <trkpt lat="44.23266" lon="2.97947">
        <ele>800</ele>
        <time>2019-10-11T13:18:02.000Z</time>
      </trkpt>
      <trkpt lat="44.23264" lon="2.97948">
        <ele>800</ele>
        <time>2019-10-11T13:18:03.000Z</time>
      </trkpt>
      <trkpt lat="44.23263" lon="2.97949">
        <ele>800</ele>
        <time>2019-10-11T13:18:04.000Z</time>
      </trkpt>
      <trkpt lat="44.23261" lon="2.9795">
        <ele>800</ele>
        <time>2019-10-11T13:18:05.000Z</time>
      </trkpt>
      <trkpt lat="44.2326" lon="2.97951">
        <ele>799</ele>
        <time>2019-10-11T13:18:06.000Z</time>
      </trkpt>
      <trkpt lat="44.23259" lon="2.97952">
        <ele>799</ele>
        <time>2019-10-11T13:18:07.000Z</time>
      </trkpt>
      <trkpt lat="44.23257" lon="2.97953">
        <ele>799</ele>
        <time>2019-10-11T13:18:08.000Z</time>
      </trkpt>
      <trkpt lat="44.23256" lon="2.97954">
        <ele>798</ele>
        <time>2019-10-11T13:18:09.000Z</time>
      </trkpt>
      <trkpt lat="44.23254" lon="2.97955">
        <ele>798</ele>
        <time>2019-10-11T13:18:10.000Z</time>
      </trkpt>
      <trkpt lat="44.23253" lon="2.97956">
        <ele>798</ele>
        <time>2019-10-11T13:18:11.000Z</time>
      </trkpt>
      <trkpt lat="44.23252" lon="2.97957">
        <ele>798</ele>
        <time>2019-10-11T13:18:12.000Z</time>
      </trkpt>
      <trkpt lat="44.2325" lon="2.97957">
        <ele>797</ele>
        <time>2019-10-11T13:18:13.000Z</time>
      </trkpt>
      <trkpt lat="44.23249" lon="2.97958">
        <ele>797</ele>
        <time>2019-10-11T13:18:14.000Z</time>
      </trkpt>
      <trkpt lat="44.23247" lon="2.97959">
        <ele>797</ele>
        <time>2019-10-11T13:18:15.000Z</time>
      </trkpt>
      <trkpt lat="44.23246" lon="2.9796">
        <ele>797</ele>
        <time>2019-10-11T13:18:16.000Z</time>
      </trkpt>
      <trkpt lat="44.23244" lon="2.9796">
        <ele>797</ele>
        <time>2019-10-11T13:18:17.000Z</time>
      </trkpt>
      <trkpt lat="44.23243" lon="2.97961">
        <ele>796</ele>
        <time>2019-10-11T13:18:18.000Z</time>
      </trkpt>
      <trkpt lat="44.23241" lon="2.97962">
        <ele>796</ele>
        <time>2019-10-11T13:18:19.000Z</time>
      </trkpt>
      <trkpt lat="44.2324" lon="2.97963">
        <ele>796</ele>
        <time>2019-10-11T13:18:20.000Z</time>
      </trkpt>
      <trkpt lat="44.23238" lon="2.97963">
        <ele>796</ele>
        <time>2019-10-11T13:18:21.000Z</time>
      </trkpt>
      <trkpt lat="44.23237" lon="2.97964">
        <ele>796</ele>
        <time>2019-10-11T13:18:22.000Z</time>
      </trkpt>
      <trkpt lat="44.23235" lon="2.97964">
        <ele>796</ele>
        <time>2019-10-11T13:18:23.000Z</time>
      </trkpt>
      <trkpt lat="44.23234" lon="2.97964">
        <ele>795</ele>
        <time>2019-10-11T13:18:24.000Z</time>
      </trkpt>
      <trkpt lat="44.23232" lon="2.97965">
        <ele>795</ele>
        <time>2019-10-11T13:18:25.000Z</time>
      </trkpt>
      <trkpt lat="44.2323" lon="2.97965">
        <ele>795</ele>
        <time>2019-10-11T13:18:26.000Z</time>
      </trkpt>
      <trkpt lat="44.23229" lon="2.97966">
        <ele>795</ele>
        <time>2019-10-11T13:18:27.000Z</time>
      </trkpt>
      <trkpt lat="44.23227" lon="2.97966">
        <ele>795</ele>
        <time>2019-10-11T13:18:28.000Z</time>
      </trkpt>
      <trkpt lat="44.23225" lon="2.97966">
        <ele>795</ele>
        <time>2019-10-11T13:18:29.000Z</time>
      </trkpt>
      <trkpt lat="44.23224" lon="2.97967">
        <ele>794</ele>
        <time>2019-10-11T13:18:30.000Z</time>
      </trkpt>
      <trkpt lat="44.23222" lon="2.97967">
        <ele>794</ele>
        <time>2019-10-11T13:18:31.000Z</time>
      </trkpt>
      <trkpt lat="44.2322" lon="2.97967">
        <ele>794</ele>
        <time>2019-10-11T13:18:32.000Z</time>
      </trkpt>
      <trkpt lat="44.23218" lon="2.97968">
        <ele>794</ele>
        <time>2019-10-11T13:18:33.000Z</time>
      </trkpt>
      <trkpt lat="44.23217" lon="2.97968">
        <ele>794</ele>
        <time>2019-10-11T13:18:34.000Z</time>
      </trkpt>
      <trkpt lat="44.23215" lon="2.97969">
        <ele>794</ele>
        <time>2019-10-11T13:18:35.000Z</time>
      </trkpt>
      <trkpt lat="44.23214" lon="2.9797">
        <ele>794</ele>
        <time>2019-10-11T13:18:36.000Z</time>
      </trkpt>
      <trkpt lat="44.23212" lon="2.97971">
        <ele>794</ele>
        <time>2019-10-11T13:18:37.000Z</time>
      </trkpt>
      <trkpt lat="44.23211" lon="2.97972">
        <ele>794</ele>
        <time>2019-10-11T13:18:38.000Z</time>
      </trkpt>
      <trkpt lat="44.2321" lon="2.97973">
        <ele>794</ele>
        <time>2019-10-11T13:18:39.000Z</time>
      </trkpt>
      <trkpt lat="44.23208" lon="2.97975">
        <ele>794</ele>
        <time>2019-10-11T13:18:40.000Z</time>
      </trkpt>
      <trkpt lat="44.23207" lon="2.97977">
        <ele>794</ele>
        <time>2019-10-11T13:18:41.000Z</time>
      </trkpt>
      <trkpt lat="44.23206" lon="2.97978">
        <ele>794</ele>
        <time>2019-10-11T13:18:42.000Z</time>
      </trkpt>
      <trkpt lat="44.23205" lon="2.9798">
        <ele>793</ele>
        <time>2019-10-11T13:18:43.000Z</time>
      </trkpt>
      <trkpt lat="44.23204" lon="2.97982">
        <ele>793</ele>
        <time>2019-10-11T13:18:44.000Z</time>
      </trkpt>
      <trkpt lat="44.23203" lon="2.97983">
        <ele>793</ele>
        <time>2019-10-11T13:18:45.000Z</time>
      </trkpt>
      <trkpt lat="44.23202" lon="2.97985">
        <ele>792</ele>
        <time>2019-10-11T13:18:46.000Z</time>
      </trkpt>
      <trkpt lat="44.23201" lon="2.97986">
        <ele>792</ele>
        <time>2019-10-11T13:18:47.000Z</time>
      </trkpt>
      <trkpt lat="44.232" lon="2.97988">
        <ele>792</ele>
        <time>2019-10-11T13:18:48.000Z</time>
      </trkpt>
      <trkpt lat="44.23199" lon="2.97989">
        <ele>791</ele>
        <time>2019-10-11T13:18:49.000Z</time>
      </trkpt>
      <trkpt lat="44.23197" lon="2.97989">
        <ele>791</ele>
        <time>2019-10-11T13:18:50.000Z</time>
      </trkpt>
      <trkpt lat="44.23196" lon="2.9799">
        <ele>791</ele>
        <time>2019-10-11T13:18:51.000Z</time>
      </trkpt>
      <trkpt lat="44.23195" lon="2.9799">
        <ele>790</ele>
        <time>2019-10-11T13:18:52.000Z</time>
      </trkpt>
      <trkpt lat="44.23194" lon="2.97991">
        <ele>790</ele>
        <time>2019-10-11T13:18:53.000Z</time>
      </trkpt>
      <trkpt lat="44.23193" lon="2.97992">
        <ele>790</ele>
        <time>2019-10-11T13:18:54.000Z</time>
      </trkpt>
      <trkpt lat="44.23191" lon="2.97992">
        <ele>790</ele>
        <time>2019-10-11T13:18:55.000Z</time>
      </trkpt>
      <trkpt lat="44.2319" lon="2.97992">
        <ele>789</ele>
        <time>2019-10-11T13:18:56.000Z</time>
      </trkpt>
      <trkpt lat="44.23188" lon="2.97993">
        <ele>789</ele>
        <time>2019-10-11T13:18:57.000Z</time>
      </trkpt>
      <trkpt lat="44.23187" lon="2.97993">
        <ele>789</ele>
        <time>2019-10-11T13:18:58.000Z</time>
      </trkpt>
      <trkpt lat="44.23185" lon="2.97993">
        <ele>788</ele>
        <time>2019-10-11T13:18:59.000Z</time>
      </trkpt>
      <trkpt lat="44.23184" lon="2.97993">
        <ele>788</ele>
        <time>2019-10-11T13:19:00.000Z</time>
      </trkpt>
      <trkpt lat="44.23182" lon="2.97994">
        <ele>788</ele>
        <time>2019-10-11T13:19:01.000Z</time>
      </trkpt>
      <trkpt lat="44.2318" lon="2.97994">
        <ele>788</ele>
        <time>2019-10-11T13:19:02.000Z</time>
      </trkpt>
      <trkpt lat="44.23179" lon="2.97995">
        <ele>787</ele>
        <time>2019-10-11T13:19:03.000Z</time>
      </trkpt>
      <trkpt lat="44.23177" lon="2.97995">
        <ele>787</ele>
        <time>2019-10-11T13:19:04.000Z</time>
      </trkpt>
      <trkpt lat="44.23176" lon="2.97996">
        <ele>787</ele>
        <time>2019-10-11T13:19:05.000Z</time>
      </trkpt>
      <trkpt lat="44.23175" lon="2.97996">
        <ele>787</ele>
        <time>2019-10-11T13:19:06.000Z</time>
      </trkpt>
      <trkpt lat="44.23173" lon="2.97997">
        <ele>786</ele>
        <time>2019-10-11T13:19:07.000Z</time>
      </trkpt>
      <trkpt lat="44.23172" lon="2.97997">
        <ele>786</ele>
        <time>2019-10-11T13:19:08.000Z</time>
      </trkpt>
      <trkpt lat="44.2317" lon="2.97998">
        <ele>786</ele>
        <time>2019-10-11T13:19:09.000Z</time>
      </trkpt>
      <trkpt lat="44.23168" lon="2.97998">
        <ele>786</ele>
        <time>2019-10-11T13:19:10.000Z</time>
      </trkpt>
      <trkpt lat="44.23167" lon="2.97998">
        <ele>786</ele>
        <time>2019-10-11T13:19:11.000Z</time>
      </trkpt>
      <trkpt lat="44.23165" lon="2.97998">
        <ele>785</ele>
        <time>2019-10-11T13:19:12.000Z</time>
      </trkpt>
      <trkpt lat="44.23164" lon="2.97998">
        <ele>785</ele>
        <time>2019-10-11T13:19:13.000Z</time>
      </trkpt>
      <trkpt lat="44.23162" lon="2.97998">
        <ele>785</ele>
        <time>2019-10-11T13:19:14.000Z</time>
      </trkpt>
      <trkpt lat="44.23161" lon="2.97997">
        <ele>785</ele>
        <time>2019-10-11T13:19:15.000Z</time>
      </trkpt>
      <trkpt lat="44.23159" lon="2.97997">
        <ele>785</ele>
        <time>2019-10-11T13:19:16.000Z</time>
      </trkpt>
      <trkpt lat="44.23158" lon="2.97996">
        <ele>784</ele>
        <time>2019-10-11T13:19:17.000Z</time>
      </trkpt>
      <trkpt lat="44.23156" lon="2.97995">
        <ele>784</ele>
        <time>2019-10-11T13:19:18.000Z</time>
      </trkpt>
      <trkpt lat="44.23155" lon="2.97993">
        <ele>784</ele>
        <time>2019-10-11T13:19:19.000Z</time>
      </trkpt>
      <trkpt lat="44.23153" lon="2.97992">
        <ele>784</ele>
        <time>2019-10-11T13:19:20.000Z</time>
      </trkpt>
      <trkpt lat="44.23152" lon="2.97991">
        <ele>784</ele>
        <time>2019-10-11T13:19:21.000Z</time>
      </trkpt>
      <trkpt lat="44.2315" lon="2.97989">
        <ele>784</ele>
        <time>2019-10-11T13:19:22.000Z</time>
      </trkpt>
      <trkpt lat="44.23148" lon="2.97987">
        <ele>784</ele>
        <time>2019-10-11T13:19:23.000Z</time>
      </trkpt>
      <trkpt lat="44.23147" lon="2.97985">
        <ele>784</ele>
        <time>2019-10-11T13:19:24.000Z</time>
      </trkpt>
      <trkpt lat="44.23146" lon="2.97983">
        <ele>784</ele>
        <time>2019-10-11T13:19:25.000Z</time>
      </trkpt>
      <trkpt lat="44.23144" lon="2.97981">
        <ele>783</ele>
        <time>2019-10-11T13:19:26.000Z</time>
      </trkpt>
      <trkpt lat="44.23143" lon="2.97979">
        <ele>783</ele>
        <time>2019-10-11T13:19:27.000Z</time>
      </trkpt>
      <trkpt lat="44.23142" lon="2.97977">
        <ele>783</ele>
        <time>2019-10-11T13:19:28.000Z</time>
      </trkpt>
      <trkpt lat="44.23141" lon="2.97975">
        <ele>783</ele>
        <time>2019-10-11T13:19:29.000Z</time>
      </trkpt>
      <trkpt lat="44.2314" lon="2.97973">
        <ele>783</ele>
        <time>2019-10-11T13:19:30.000Z</time>
      </trkpt>
      <trkpt lat="44.23139" lon="2.97972">
        <ele>783</ele>
        <time>2019-10-11T13:19:31.000Z</time>
      </trkpt>
      <trkpt lat="44.23137" lon="2.9797">
        <ele>783</ele>
        <time>2019-10-11T13:19:32.000Z</time>
      </trkpt>
      <trkpt lat="44.23136" lon="2.97969">
        <ele>783</ele>
        <time>2019-10-11T13:19:33.000Z</time>
      </trkpt>
      <trkpt lat="44.23134" lon="2.97968">
        <ele>783</ele>
        <time>2019-10-11T13:19:34.000Z</time>
      </trkpt>
      <trkpt lat="44.23132" lon="2.97966">
        <ele>782</ele>
        <time>2019-10-11T13:19:35.000Z</time>
      </trkpt>
      <trkpt lat="44.2313" lon="2.97965">
        <ele>782</ele>
        <time>2019-10-11T13:19:36.000Z</time>
      </trkpt>
      <trkpt lat="44.23129" lon="2.97964">
        <ele>782</ele>
        <time>2019-10-11T13:19:37.000Z</time>
      </trkpt>
      <trkpt lat="44.23127" lon="2.97963">
        <ele>782</ele>
        <time>2019-10-11T13:19:38.000Z</time>
      </trkpt>
      <trkpt lat="44.23125" lon="2.97962">
        <ele>782</ele>
        <time>2019-10-11T13:19:39.000Z</time>
      </trkpt>
      <trkpt lat="44.23123" lon="2.97962">
        <ele>782</ele>
        <time>2019-10-11T13:19:40.000Z</time>
      </trkpt>
      <trkpt lat="44.23121" lon="2.97961">
        <ele>783</ele>
        <time>2019-10-11T13:19:41.000Z</time>
      </trkpt>
      <trkpt lat="44.2312" lon="2.9796">
        <ele>783</ele>
        <time>2019-10-11T13:19:42.000Z</time>
      </trkpt>
      <trkpt lat="44.23118" lon="2.9796">
        <ele>783</ele>
        <time>2019-10-11T13:19:43.000Z</time>
      </trkpt>
      <trkpt lat="44.23116" lon="2.9796">
        <ele>783</ele>
        <time>2019-10-11T13:19:44.000Z</time>
      </trkpt>
      <trkpt lat="44.23115" lon="2.9796">
        <ele>783</ele>
        <time>2019-10-11T13:19:45.000Z</time>
      </trkpt>
      <trkpt lat="44.23114" lon="2.97959">
        <ele>783</ele>
        <time>2019-10-11T13:19:46.000Z</time>
      </trkpt>
      <trkpt lat="44.23112" lon="2.97959">
        <ele>783</ele>
        <time>2019-10-11T13:19:47.000Z</time>
      </trkpt>
      <trkpt lat="44.23111" lon="2.97958">
        <ele>783</ele>
        <time>2019-10-11T13:19:48.000Z</time>
      </trkpt>
      <trkpt lat="44.2311" lon="2.97958">
        <ele>783</ele>
        <time>2019-10-11T13:19:49.000Z</time>
      </trkpt>
      <trkpt lat="44.23108" lon="2.97957">
        <ele>783</ele>
        <time>2019-10-11T13:19:50.000Z</time>
      </trkpt>
      <trkpt lat="44.23106" lon="2.97957">
        <ele>783</ele>
        <time>2019-10-11T13:19:51.000Z</time>
      </trkpt>
      <trkpt lat="44.23105" lon="2.97957">
        <ele>784</ele>
        <time>2019-10-11T13:19:52.000Z</time>
      </trkpt>
      <trkpt lat="44.23103" lon="2.97957">
        <ele>784</ele>
        <time>2019-10-11T13:19:53.000Z</time>
      </trkpt>
      <trkpt lat="44.23102" lon="2.97957">
        <ele>784</ele>
        <time>2019-10-11T13:19:54.000Z</time>
      </trkpt>
      <trkpt lat="44.231" lon="2.97957">
        <ele>784</ele>
        <time>2019-10-11T13:19:55.000Z</time>
      </trkpt>
      <trkpt lat="44.23099" lon="2.97957">
        <ele>784</ele>
        <time>2019-10-11T13:19:56.000Z</time>
      </trkpt>
      <trkpt lat="44.23097" lon="2.97958">
        <ele>784</ele>
        <time>2019-10-11T13:19:57.000Z</time>
      </trkpt>
      <trkpt lat="44.23096" lon="2.97959">
        <ele>784</ele>
        <time>2019-10-11T13:19:58.000Z</time>
      </trkpt>
      <trkpt lat="44.23095" lon="2.9796">
        <ele>784</ele>
        <time>2019-10-11T13:19:59.000Z</time>
      </trkpt>
      <trkpt lat="44.23095" lon="2.97962">
        <ele>784</ele>
        <time>2019-10-11T13:20:00.000Z</time>
      </trkpt>
      <trkpt lat="44.23094" lon="2.97963">
        <ele>784</ele>
        <time>2019-10-11T13:20:01.000Z</time>
      </trkpt>
      <trkpt lat="44.23094" lon="2.97965">
        <ele>784</ele>
        <time>2019-10-11T13:20:02.000Z</time>
      </trkpt>
      <trkpt lat="44.23094" lon="2.97967">
        <ele>784</ele>
        <time>2019-10-11T13:20:03.000Z</time>
      </trkpt>
      <trkpt lat="44.23095" lon="2.97969">
        <ele>784</ele>
        <time>2019-10-11T13:20:04.000Z</time>
      </trkpt>
      <trkpt lat="44.23096" lon="2.97971">
        <ele>784</ele>
        <time>2019-10-11T13:20:05.000Z</time>
      </trkpt>
      <trkpt lat="44.23097" lon="2.97973">
        <ele>784</ele>
        <time>2019-10-11T13:20:06.000Z</time>
      </trkpt>
      <trkpt lat="44.23097" lon="2.97975">
        <ele>784</ele>
        <time>2019-10-11T13:20:07.000Z</time>
      </trkpt>
      <trkpt lat="44.23098" lon="2.97977">
        <ele>785</ele>
        <time>2019-10-11T13:20:08.000Z</time>
      </trkpt>
      <trkpt lat="44.23099" lon="2.97978">
        <ele>785</ele>
        <time>2019-10-11T13:20:09.000Z</time>
      </trkpt>
      <trkpt lat="44.231" lon="2.9798">
        <ele>785</ele>
        <time>2019-10-11T13:20:10.000Z</time>
      </trkpt>
      <trkpt lat="44.23101" lon="2.97981">
        <ele>785</ele>
        <time>2019-10-11T13:20:11.000Z</time>
      </trkpt>
      <trkpt lat="44.23103" lon="2.97983">
        <ele>785</ele>
        <time>2019-10-11T13:20:12.000Z</time>
      </trkpt>
      <trkpt lat="44.23104" lon="2.97985">
        <ele>785</ele>
        <time>2019-10-11T13:20:13.000Z</time>
      </trkpt>
      <trkpt lat="44.23105" lon="2.97987">
        <ele>785</ele>
        <time>2019-10-11T13:20:14.000Z</time>
      </trkpt>
      <trkpt lat="44.23106" lon="2.97989">
        <ele>785</ele>
        <time>2019-10-11T13:20:15.000Z</time>
      </trkpt>
      <trkpt lat="44.23107" lon="2.97992">
        <ele>785</ele>
        <time>2019-10-11T13:20:16.000Z</time>
      </trkpt>
      <trkpt lat="44.23108" lon="2.97994">
        <ele>785</ele>
        <time>2019-10-11T13:20:17.000Z</time>
      </trkpt>
      <trkpt lat="44.23109" lon="2.97996">
        <ele>785</ele>
        <time>2019-10-11T13:20:18.000Z</time>
      </trkpt>
      <trkpt lat="44.2311" lon="2.97998">
        <ele>785</ele>
        <time>2019-10-11T13:20:19.000Z</time>
      </trkpt>
      <trkpt lat="44.2311" lon="2.98001">
        <ele>785</ele>
        <time>2019-10-11T13:20:20.000Z</time>
      </trkpt>
      <trkpt lat="44.23111" lon="2.98003">
        <ele>786</ele>
        <time>2019-10-11T13:20:21.000Z</time>
      </trkpt>
      <trkpt lat="44.23111" lon="2.98005">
        <ele>786</ele>
        <time>2019-10-11T13:20:22.000Z</time>
      </trkpt>
      <trkpt lat="44.23112" lon="2.98007">
        <ele>786</ele>
        <time>2019-10-11T13:20:23.000Z</time>
      </trkpt>
      <trkpt lat="44.23112" lon="2.98009">
        <ele>786</ele>
        <time>2019-10-11T13:20:24.000Z</time>
      </trkpt>
      <trkpt lat="44.23112" lon="2.98012">
        <ele>786</ele>
        <time>2019-10-11T13:20:25.000Z</time>
      </trkpt>
      <trkpt lat="44.23113" lon="2.98015">
        <ele>786</ele>
        <time>2019-10-11T13:20:26.000Z</time>
      </trkpt>
      <trkpt lat="44.23113" lon="2.98018">
        <ele>786</ele>
        <time>2019-10-11T13:20:27.000Z</time>
      </trkpt>
      <trkpt lat="44.23113" lon="2.98022">
        <ele>786</ele>
        <time>2019-10-11T13:20:28.000Z</time>
      </trkpt>
      <trkpt lat="44.23114" lon="2.98026">
        <ele>786</ele>
        <time>2019-10-11T13:20:29.000Z</time>
      </trkpt>
      <trkpt lat="44.23114" lon="2.9803">
        <ele>786</ele>
        <time>2019-10-11T13:20:30.000Z</time>
      </trkpt>
      <trkpt lat="44.23114" lon="2.98034">
        <ele>786</ele>
        <time>2019-10-11T13:20:31.000Z</time>
      </trkpt>
      <trkpt lat="44.23114" lon="2.98038">
        <ele>786</ele>
        <time>2019-10-11T13:20:32.000Z</time>
      </trkpt>
      <trkpt lat="44.23114" lon="2.98042">
        <ele>786</ele>
        <time>2019-10-11T13:20:33.000Z</time>
      </trkpt>
      <trkpt lat="44.23113" lon="2.98047">
        <ele>787</ele>
        <time>2019-10-11T13:20:34.000Z</time>
      </trkpt>
      <trkpt lat="44.23112" lon="2.98052">
        <ele>787</ele>
        <time>2019-10-11T13:20:35.000Z</time>
      </trkpt>
      <trkpt lat="44.23111" lon="2.98057">
        <ele>787</ele>
        <time>2019-10-11T13:20:36.000Z</time>
      </trkpt>
      <trkpt lat="44.23111" lon="2.98063">
        <ele>787</ele>
        <time>2019-10-11T13:20:37.000Z</time>
      </trkpt>
      <trkpt lat="44.23111" lon="2.98068">
        <ele>787</ele>
        <time>2019-10-11T13:20:38.000Z</time>
      </trkpt>
      <trkpt lat="44.23111" lon="2.98073">
        <ele>787</ele>
        <time>2019-10-11T13:20:39.000Z</time>
      </trkpt>
      <trkpt lat="44.23111" lon="2.98078">
        <ele>788</ele>
        <time>2019-10-11T13:20:40.000Z</time>
      </trkpt>
      <trkpt lat="44.23111" lon="2.98084">
        <ele>788</ele>
        <time>2019-10-11T13:20:41.000Z</time>
      </trkpt>
      <trkpt lat="44.23111" lon="2.98089">
        <ele>788</ele>
        <time>2019-10-11T13:20:42.000Z</time>
      </trkpt>
      <trkpt lat="44.23111" lon="2.98094">
        <ele>789</ele>
        <time>2019-10-11T13:20:43.000Z</time>
      </trkpt>
      <trkpt lat="44.23112" lon="2.981">
        <ele>789</ele>
        <time>2019-10-11T13:20:44.000Z</time>
      </trkpt>
      <trkpt lat="44.23112" lon="2.98104">
        <ele>789</ele>
        <time>2019-10-11T13:20:45.000Z</time>
      </trkpt>
      <trkpt lat="44.23113" lon="2.98109">
        <ele>790</ele>
        <time>2019-10-11T13:20:46.000Z</time>
      </trkpt>
      <trkpt lat="44.23113" lon="2.98111">
        <ele>790</ele>
        <time>2019-10-11T13:20:47.000Z</time>
      </trkpt>
      <trkpt lat="44.23113" lon="2.98112">
        <ele>791</ele>
        <time>2019-10-11T13:20:48.000Z</time>
      </trkpt>
      <trkpt lat="44.23113" lon="2.98113">
        <ele>791</ele>
        <time>2019-10-11T13:20:49.000Z</time>
      </trkpt>
      <trkpt lat="44.23113" lon="2.98113">
        <ele>791</ele>
        <time>2019-10-11T13:20:50.000Z</time>
      </trkpt>
      <trkpt lat="44.23113" lon="2.98114">
        <ele>792</ele>
        <time>2019-10-11T13:20:51.000Z</time>
      </trkpt>
      <trkpt lat="44.23113" lon="2.98114">
        <ele>792</ele>
        <time>2019-10-11T13:20:52.000Z</time>
      </trkpt>
      <trkpt lat="44.23113" lon="2.98115">
        <ele>793</ele>
        <time>2019-10-11T13:20:53.000Z</time>
      </trkpt>
      <trkpt lat="44.23113" lon="2.98115">
        <ele>793</ele>
        <time>2019-10-11T13:20:54.000Z</time>
      </trkpt>
      <trkpt lat="44.23113" lon="2.98116">
        <ele>793</ele>
        <time>2019-10-11T13:20:55.000Z</time>
      </trkpt>
      <trkpt lat="44.23113" lon="2.98116">
        <ele>794</ele>
        <time>2019-10-11T13:20:56.000Z</time>
      </trkpt>
      <trkpt lat="44.23114" lon="2.98117">
        <ele>794</ele>
        <time>2019-10-11T13:20:57.000Z</time>
      </trkpt>
      <trkpt lat="44.23114" lon="2.98117">
        <ele>795</ele>
        <time>2019-10-11T13:20:58.000Z</time>
      </trkpt>
      <trkpt lat="44.23114" lon="2.98118">
        <ele>795</ele>
        <time>2019-10-11T13:20:59.000Z</time>
      </trkpt>
      <trkpt lat="44.23114" lon="2.9812">
        <ele>795</ele>
        <time>2019-10-11T13:21:00.000Z</time>
      </trkpt>
      <trkpt lat="44.23114" lon="2.98121">
        <ele>795</ele>
        <time>2019-10-11T13:21:01.000Z</time>
      </trkpt>
      <trkpt lat="44.23114" lon="2.98123">
        <ele>796</ele>
        <time>2019-10-11T13:21:02.000Z</time>
      </trkpt>
      <trkpt lat="44.23115" lon="2.98124">
        <ele>796</ele>
        <time>2019-10-11T13:21:03.000Z</time>
      </trkpt>
      <trkpt lat="44.23115" lon="2.98126">
        <ele>796</ele>
        <time>2019-10-11T13:21:04.000Z</time>
      </trkpt>
      <trkpt lat="44.23115" lon="2.98128">
        <ele>796</ele>
        <time>2019-10-11T13:21:05.000Z</time>
      </trkpt>
      <trkpt lat="44.23115" lon="2.98131">
        <ele>797</ele>
        <time>2019-10-11T13:21:06.000Z</time>
      </trkpt>
      <trkpt lat="44.23115" lon="2.98134">
        <ele>797</ele>
        <time>2019-10-11T13:21:07.000Z</time>
      </trkpt>
      <trkpt lat="44.23114" lon="2.98137">
        <ele>797</ele>
        <time>2019-10-11T13:21:08.000Z</time>
      </trkpt>
      <trkpt lat="44.23113" lon="2.98141">
        <ele>797</ele>
        <time>2019-10-11T13:21:09.000Z</time>
      </trkpt>
      <trkpt lat="44.23113" lon="2.98144">
        <ele>797</ele>
        <time>2019-10-11T13:21:10.000Z</time>
      </trkpt>
      <trkpt lat="44.23113" lon="2.98149">
        <ele>797</ele>
        <time>2019-10-11T13:21:11.000Z</time>
      </trkpt>
      <trkpt lat="44.23112" lon="2.98153">
        <ele>797</ele>
        <time>2019-10-11T13:21:12.000Z</time>
      </trkpt>
      <trkpt lat="44.23112" lon="2.98158">
        <ele>798</ele>
        <time>2019-10-11T13:21:13.000Z</time>
      </trkpt>
      <trkpt lat="44.23112" lon="2.98162">
        <ele>798</ele>
        <time>2019-10-11T13:21:14.000Z</time>
      </trkpt>
      <trkpt lat="44.23112" lon="2.98166">
        <ele>798</ele>
        <time>2019-10-11T13:21:15.000Z</time>
      </trkpt>
      <trkpt lat="44.23112" lon="2.9817">
        <ele>798</ele>
        <time>2019-10-11T13:21:16.000Z</time>
      </trkpt>
      <trkpt lat="44.23112" lon="2.98174">
        <ele>798</ele>
        <time>2019-10-11T13:21:17.000Z</time>
      </trkpt>
      <trkpt lat="44.23112" lon="2.98178">
        <ele>798</ele>
        <time>2019-10-11T13:21:18.000Z</time>
      </trkpt>
      <trkpt lat="44.23113" lon="2.98183">
        <ele>798</ele>
        <time>2019-10-11T13:21:19.000Z</time>
      </trkpt>
      <trkpt lat="44.23114" lon="2.98188">
        <ele>799</ele>
        <time>2019-10-11T13:21:20.000Z</time>
      </trkpt>
      <trkpt lat="44.23115" lon="2.98192">
        <ele>799</ele>
        <time>2019-10-11T13:21:21.000Z</time>
      </trkpt>
      <trkpt lat="44.23117" lon="2.98196">
        <ele>799</ele>
        <time>2019-10-11T13:21:22.000Z</time>
      </trkpt>
      <trkpt lat="44.23119" lon="2.982">
        <ele>799</ele>
        <time>2019-10-11T13:21:23.000Z</time>
      </trkpt>
      <trkpt lat="44.23121" lon="2.98204">
        <ele>799</ele>
        <time>2019-10-11T13:21:24.000Z</time>
      </trkpt>
      <trkpt lat="44.23123" lon="2.98208">
        <ele>799</ele>
        <time>2019-10-11T13:21:25.000Z</time>
      </trkpt>
      <trkpt lat="44.23125" lon="2.98212">
        <ele>799</ele>
        <time>2019-10-11T13:21:26.000Z</time>
      </trkpt>
      <trkpt lat="44.23127" lon="2.98215">
        <ele>799</ele>
        <time>2019-10-11T13:21:27.000Z</time>
      </trkpt>
      <trkpt lat="44.23129" lon="2.98219">
        <ele>800</ele>
        <time>2019-10-11T13:21:28.000Z</time>
      </trkpt>
      <trkpt lat="44.23131" lon="2.98222">
        <ele>800</ele>
        <time>2019-10-11T13:21:29.000Z</time>
      </trkpt>
      <trkpt lat="44.23133" lon="2.98226">
        <ele>800</ele>
        <time>2019-10-11T13:21:30.000Z</time>
      </trkpt>
      <trkpt lat="44.23135" lon="2.98231">
        <ele>800</ele>
        <time>2019-10-11T13:21:31.000Z</time>
      </trkpt>
      <trkpt lat="44.23137" lon="2.98235">
        <ele>800</ele>
        <time>2019-10-11T13:21:32.000Z</time>
      </trkpt>
      <trkpt lat="44.2314" lon="2.9824">
        <ele>800</ele>
        <time>2019-10-11T13:21:33.000Z</time>
      </trkpt>
      <trkpt lat="44.23143" lon="2.98244">
        <ele>800</ele>
        <time>2019-10-11T13:21:34.000Z</time>
      </trkpt>
      <trkpt lat="44.23145" lon="2.98249">
        <ele>800</ele>
        <time>2019-10-11T13:21:35.000Z</time>
      </trkpt>
      <trkpt lat="44.23148" lon="2.98253">
        <ele>800</ele>
        <time>2019-10-11T13:21:36.000Z</time>
      </trkpt>
      <trkpt lat="44.2315" lon="2.98258">
        <ele>800</ele>
        <time>2019-10-11T13:21:37.000Z</time>
      </trkpt>
      <trkpt lat="44.23153" lon="2.98262">
        <ele>800</ele>
        <time>2019-10-11T13:21:38.000Z</time>
      </trkpt>
      <trkpt lat="44.23155" lon="2.98267">
        <ele>800</ele>
        <time>2019-10-11T13:21:39.000Z</time>
      </trkpt>
      <trkpt lat="44.23157" lon="2.98271">
        <ele>800</ele>
        <time>2019-10-11T13:21:40.000Z</time>
      </trkpt>
      <trkpt lat="44.23159" lon="2.98276">
        <ele>800</ele>
        <time>2019-10-11T13:21:41.000Z</time>
      </trkpt>
      <trkpt lat="44.23161" lon="2.9828">
        <ele>800</ele>
        <time>2019-10-11T13:21:42.000Z</time>
      </trkpt>
      <trkpt lat="44.23163" lon="2.98285">
        <ele>801</ele>
        <time>2019-10-11T13:21:43.000Z</time>
      </trkpt>
      <trkpt lat="44.23165" lon="2.98289">
        <ele>801</ele>
        <time>2019-10-11T13:21:44.000Z</time>
      </trkpt>
      <trkpt lat="44.23166" lon="2.98294">
        <ele>801</ele>
        <time>2019-10-11T13:21:45.000Z</time>
      </trkpt>
      <trkpt lat="44.23168" lon="2.98299">
        <ele>801</ele>
        <time>2019-10-11T13:21:46.000Z</time>
      </trkpt>
      <trkpt lat="44.23168" lon="2.98304">
        <ele>801</ele>
        <time>2019-10-11T13:21:47.000Z</time>
      </trkpt>
      <trkpt lat="44.23169" lon="2.98309">
        <ele>801</ele>
        <time>2019-10-11T13:21:48.000Z</time>
      </trkpt>
      <trkpt lat="44.2317" lon="2.98314">
        <ele>802</ele>
        <time>2019-10-11T13:21:49.000Z</time>
      </trkpt>
      <trkpt lat="44.23172" lon="2.98318">
        <ele>802</ele>
        <time>2019-10-11T13:21:50.000Z</time>
      </trkpt>
      <trkpt lat="44.23172" lon="2.98323">
        <ele>802</ele>
        <time>2019-10-11T13:21:51.000Z</time>
      </trkpt>
      <trkpt lat="44.23173" lon="2.98327">
        <ele>802</ele>
        <time>2019-10-11T13:21:52.000Z</time>
      </trkpt>
      <trkpt lat="44.23174" lon="2.98331">
        <ele>802</ele>
        <time>2019-10-11T13:21:53.000Z</time>
      </trkpt>
      <trkpt lat="44.23175" lon="2.98335">
        <ele>802</ele>
        <time>2019-10-11T13:21:54.000Z</time>
      </trkpt>
      <trkpt lat="44.23177" lon="2.98339">
        <ele>802</ele>
        <time>2019-10-11T13:21:55.000Z</time>
      </trkpt>
      <trkpt lat="44.23179" lon="2.98343">
        <ele>802</ele>
        <time>2019-10-11T13:21:56.000Z</time>
      </trkpt>
      <trkpt lat="44.23182" lon="2.98347">
        <ele>802</ele>
        <time>2019-10-11T13:21:57.000Z</time>
      </trkpt>
      <trkpt lat="44.23186" lon="2.9835">
        <ele>803</ele>
        <time>2019-10-11T13:21:58.000Z</time>
      </trkpt>
      <trkpt lat="44.2319" lon="2.98354">
        <ele>803</ele>
        <time>2019-10-11T13:21:59.000Z</time>
      </trkpt>
      <trkpt lat="44.23194" lon="2.98357">
        <ele>803</ele>
        <time>2019-10-11T13:22:00.000Z</time>
      </trkpt>
      <trkpt lat="44.23198" lon="2.9836">
        <ele>803</ele>
        <time>2019-10-11T13:22:01.000Z</time>
      </trkpt>
      <trkpt lat="44.23202" lon="2.98362">
        <ele>803</ele>
        <time>2019-10-11T13:22:02.000Z</time>
      </trkpt>
      <trkpt lat="44.23207" lon="2.98365">
        <ele>803</ele>
        <time>2019-10-11T13:22:03.000Z</time>
      </trkpt>
      <trkpt lat="44.23211" lon="2.98368">
        <ele>803</ele>
        <time>2019-10-11T13:22:04.000Z</time>
      </trkpt>
      <trkpt lat="44.23216" lon="2.98371">
        <ele>803</ele>
        <time>2019-10-11T13:22:05.000Z</time>
      </trkpt>
      <trkpt lat="44.2322" lon="2.98374">
        <ele>803</ele>
        <time>2019-10-11T13:22:06.000Z</time>
      </trkpt>
      <trkpt lat="44.23225" lon="2.98377">
        <ele>803</ele>
        <time>2019-10-11T13:22:07.000Z</time>
      </trkpt>
      <trkpt lat="44.23229" lon="2.9838">
        <ele>803</ele>
        <time>2019-10-11T13:22:08.000Z</time>
      </trkpt>
      <trkpt lat="44.23234" lon="2.98383">
        <ele>802</ele>
        <time>2019-10-11T13:22:09.000Z</time>
      </trkpt>
      <trkpt lat="44.23238" lon="2.98387">
        <ele>802</ele>
        <time>2019-10-11T13:22:10.000Z</time>
      </trkpt>
      <trkpt lat="44.23242" lon="2.98391">
        <ele>802</ele>
        <time>2019-10-11T13:22:11.000Z</time>
      </trkpt>
      <trkpt lat="44.23245" lon="2.98395">
        <ele>802</ele>
        <time>2019-10-11T13:22:12.000Z</time>
      </trkpt>
      <trkpt lat="44.23249" lon="2.98398">
        <ele>802</ele>
        <time>2019-10-11T13:22:13.000Z</time>
      </trkpt>
      <trkpt lat="44.23252" lon="2.98402">
        <ele>802</ele>
        <time>2019-10-11T13:22:14.000Z</time>
      </trkpt>
      <trkpt lat="44.23255" lon="2.98406">
        <ele>801</ele>
        <time>2019-10-11T13:22:15.000Z</time>
      </trkpt>
      <trkpt lat="44.23258" lon="2.9841">
        <ele>801</ele>
        <time>2019-10-11T13:22:16.000Z</time>
      </trkpt>
      <trkpt lat="44.2326" lon="2.98414">
        <ele>801</ele>
        <time>2019-10-11T13:22:17.000Z</time>
      </trkpt>
      <trkpt lat="44.23263" lon="2.98417">
        <ele>801</ele>
        <time>2019-10-11T13:22:18.000Z</time>
      </trkpt>
      <trkpt lat="44.23265" lon="2.98419">
        <ele>800</ele>
        <time>2019-10-11T13:22:19.000Z</time>
      </trkpt>
      <trkpt lat="44.23266" lon="2.98421">
        <ele>800</ele>
        <time>2019-10-11T13:22:20.000Z</time>
      </trkpt>
      <trkpt lat="44.23267" lon="2.98423">
        <ele>800</ele>
        <time>2019-10-11T13:22:21.000Z</time>
      </trkpt>
      <trkpt lat="44.23269" lon="2.98424">
        <ele>800</ele>
        <time>2019-10-11T13:22:22.000Z</time>
      </trkpt>
      <trkpt lat="44.2327" lon="2.98426">
        <ele>800</ele>
        <time>2019-10-11T13:22:23.000Z</time>
      </trkpt>
      <trkpt lat="44.23271" lon="2.98428">
        <ele>800</ele>
        <time>2019-10-11T13:22:24.000Z</time>
      </trkpt>
      <trkpt lat="44.23271" lon="2.9843">
        <ele>799</ele>
        <time>2019-10-11T13:22:25.000Z</time>
      </trkpt>
      <trkpt lat="44.23272" lon="2.98431">
        <ele>799</ele>
        <time>2019-10-11T13:22:26.000Z</time>
      </trkpt>
      <trkpt lat="44.23273" lon="2.98432">
        <ele>799</ele>
        <time>2019-10-11T13:22:27.000Z</time>
      </trkpt>
      <trkpt lat="44.23274" lon="2.98434">
        <ele>799</ele>
        <time>2019-10-11T13:22:28.000Z</time>
      </trkpt>
      <trkpt lat="44.23274" lon="2.98436">
        <ele>799</ele>
        <time>2019-10-11T13:22:29.000Z</time>
      </trkpt>
      <trkpt lat="44.23275" lon="2.98438">
        <ele>800</ele>
        <time>2019-10-11T13:22:30.000Z</time>
      </trkpt>
      <trkpt lat="44.23276" lon="2.9844">
        <ele>800</ele>
        <time>2019-10-11T13:22:31.000Z</time>
      </trkpt>
      <trkpt lat="44.23277" lon="2.98442">
        <ele>800</ele>
        <time>2019-10-11T13:22:32.000Z</time>
      </trkpt>
      <trkpt lat="44.23278" lon="2.98443">
        <ele>800</ele>
        <time>2019-10-11T13:22:33.000Z</time>
      </trkpt>
      <trkpt lat="44.23279" lon="2.98445">
        <ele>800</ele>
        <time>2019-10-11T13:22:34.000Z</time>
      </trkpt>
      <trkpt lat="44.2328" lon="2.98447">
        <ele>800</ele>
        <time>2019-10-11T13:22:35.000Z</time>
      </trkpt>
      <trkpt lat="44.23281" lon="2.98449">
        <ele>800</ele>
        <time>2019-10-11T13:22:36.000Z</time>
      </trkpt>
      <trkpt lat="44.23282" lon="2.98451">
        <ele>800</ele>
        <time>2019-10-11T13:22:37.000Z</time>
      </trkpt>
      <trkpt lat="44.23283" lon="2.98453">
        <ele>800</ele>
        <time>2019-10-11T13:22:38.000Z</time>
      </trkpt>
      <trkpt lat="44.23284" lon="2.98455">
        <ele>800</ele>
        <time>2019-10-11T13:22:39.000Z</time>
      </trkpt>
      <trkpt lat="44.23285" lon="2.98458">
        <ele>800</ele>
        <time>2019-10-11T13:22:40.000Z</time>
      </trkpt>
      <trkpt lat="44.23287" lon="2.9846">
        <ele>800</ele>
        <time>2019-10-11T13:22:41.000Z</time>
      </trkpt>
      <trkpt lat="44.23288" lon="2.98462">
        <ele>800</ele>
        <time>2019-10-11T13:22:42.000Z</time>
      </trkpt>
      <trkpt lat="44.23288" lon="2.98464">
        <ele>800</ele>
        <time>2019-10-11T13:22:43.000Z</time>
      </trkpt>
      <trkpt lat="44.23289" lon="2.98466">
        <ele>800</ele>
        <time>2019-10-11T13:22:44.000Z</time>
      </trkpt>
      <trkpt lat="44.2329" lon="2.98469">
        <ele>800</ele>
        <time>2019-10-11T13:22:45.000Z</time>
      </trkpt>
      <trkpt lat="44.23291" lon="2.98471">
        <ele>799</ele>
        <time>2019-10-11T13:22:46.000Z</time>
      </trkpt>
      <trkpt lat="44.23292" lon="2.98473">
        <ele>799</ele>
        <time>2019-10-11T13:22:47.000Z</time>
      </trkpt>
      <trkpt lat="44.23293" lon="2.98475">
        <ele>799</ele>
        <time>2019-10-11T13:22:48.000Z</time>
      </trkpt>
      <trkpt lat="44.23294" lon="2.98477">
        <ele>799</ele>
        <time>2019-10-11T13:22:49.000Z</time>
      </trkpt>
      <trkpt lat="44.23295" lon="2.98479">
        <ele>799</ele>
        <time>2019-10-11T13:22:50.000Z</time>
      </trkpt>
      <trkpt lat="44.23296" lon="2.98481">
        <ele>799</ele>
        <time>2019-10-11T13:22:51.000Z</time>
      </trkpt>
      <trkpt lat="44.23297" lon="2.98482">
        <ele>799</ele>
        <time>2019-10-11T13:22:52.000Z</time>
      </trkpt>
      <trkpt lat="44.23299" lon="2.98484">
        <ele>799</ele>
        <time>2019-10-11T13:22:53.000Z</time>
      </trkpt>
      <trkpt lat="44.233" lon="2.98486">
        <ele>799</ele>
        <time>2019-10-11T13:22:54.000Z</time>
      </trkpt>
      <trkpt lat="44.23301" lon="2.98487">
        <ele>799</ele>
        <time>2019-10-11T13:22:55.000Z</time>
      </trkpt>
      <trkpt lat="44.23302" lon="2.98489">
        <ele>799</ele>
        <time>2019-10-11T13:22:56.000Z</time>
      </trkpt>
      <trkpt lat="44.23303" lon="2.98491">
        <ele>799</ele>
        <time>2019-10-11T13:22:57.000Z</time>
      </trkpt>
      <trkpt lat="44.23304" lon="2.98494">
        <ele>799</ele>
        <time>2019-10-11T13:22:58.000Z</time>
      </trkpt>
      <trkpt lat="44.23305" lon="2.98496">
        <ele>800</ele>
        <time>2019-10-11T13:22:59.000Z</time>
      </trkpt>
      <trkpt lat="44.23305" lon="2.98498">
        <ele>800</ele>
        <time>2019-10-11T13:23:00.000Z</time>
      </trkpt>
      <trkpt lat="44.23306" lon="2.985">
        <ele>800</ele>
        <time>2019-10-11T13:23:01.000Z</time>
      </trkpt>
      <trkpt lat="44.23307" lon="2.98502">
        <ele>800</ele>
        <time>2019-10-11T13:23:02.000Z</time>
      </trkpt>
      <trkpt lat="44.23308" lon="2.98504">
        <ele>800</ele>
        <time>2019-10-11T13:23:03.000Z</time>
      </trkpt>
      <trkpt lat="44.23309" lon="2.98506">
        <ele>800</ele>
        <time>2019-10-11T13:23:04.000Z</time>
      </trkpt>
      <trkpt lat="44.23309" lon="2.98508">
        <ele>800</ele>
        <time>2019-10-11T13:23:05.000Z</time>
      </trkpt>
      <trkpt lat="44.2331" lon="2.98509">
        <ele>800</ele>
        <time>2019-10-11T13:23:06.000Z</time>
      </trkpt>
      <trkpt lat="44.23311" lon="2.98511">
        <ele>800</ele>
        <time>2019-10-11T13:23:07.000Z</time>
      </trkpt>
      <trkpt lat="44.23312" lon="2.98513">
        <ele>800</ele>
        <time>2019-10-11T13:23:08.000Z</time>
      </trkpt>
      <trkpt lat="44.23313" lon="2.98515">
        <ele>800</ele>
        <time>2019-10-11T13:23:09.000Z</time>
      </trkpt>
      <trkpt lat="44.23313" lon="2.98517">
        <ele>800</ele>
        <time>2019-10-11T13:23:10.000Z</time>
      </trkpt>
      <trkpt lat="44.23314" lon="2.98519">
        <ele>800</ele>
        <time>2019-10-11T13:23:11.000Z</time>
      </trkpt>
      <trkpt lat="44.23315" lon="2.98521">
        <ele>800</ele>
        <time>2019-10-11T13:23:12.000Z</time>
      </trkpt>
      <trkpt lat="44.23316" lon="2.98523">
        <ele>800</ele>
        <time>2019-10-11T13:23:13.000Z</time>
      </trkpt>
      <trkpt lat="44.23316" lon="2.98524">
        <ele>800</ele>
        <time>2019-10-11T13:23:14.000Z</time>
      </trkpt>
      <trkpt lat="44.23317" lon="2.98526">
        <ele>800</ele>
        <time>2019-10-11T13:23:15.000Z</time>
      </trkpt>
      <trkpt lat="44.23317" lon="2.98528">
        <ele>800</ele>
        <time>2019-10-11T13:23:16.000Z</time>
      </trkpt>
      <trkpt lat="44.23317" lon="2.9853">
        <ele>800</ele>
        <time>2019-10-11T13:23:17.000Z</time>
      </trkpt>
      <trkpt lat="44.23318" lon="2.98531">
        <ele>800</ele>
        <time>2019-10-11T13:23:18.000Z</time>
      </trkpt>
      <trkpt lat="44.23318" lon="2.98533">
        <ele>801</ele>
        <time>2019-10-11T13:23:19.000Z</time>
      </trkpt>
      <trkpt lat="44.23319" lon="2.98535">
        <ele>800</ele>
        <time>2019-10-11T13:23:20.000Z</time>
      </trkpt>
      <trkpt lat="44.23319" lon="2.98538">
        <ele>801</ele>
        <time>2019-10-11T13:23:21.000Z</time>
      </trkpt>
      <trkpt lat="44.23319" lon="2.9854">
        <ele>801</ele>
        <time>2019-10-11T13:23:22.000Z</time>
      </trkpt>
      <trkpt lat="44.23319" lon="2.98543">
        <ele>800</ele>
        <time>2019-10-11T13:23:23.000Z</time>
      </trkpt>
      <trkpt lat="44.23319" lon="2.98547">
        <ele>800</ele>
        <time>2019-10-11T13:23:24.000Z</time>
      </trkpt>
      <trkpt lat="44.23318" lon="2.98551">
        <ele>800</ele>
        <time>2019-10-11T13:23:25.000Z</time>
      </trkpt>
      <trkpt lat="44.23318" lon="2.98556">
        <ele>800</ele>
        <time>2019-10-11T13:23:26.000Z</time>
      </trkpt>
      <trkpt lat="44.23318" lon="2.98561">
        <ele>801</ele>
        <time>2019-10-11T13:23:27.000Z</time>
      </trkpt>
      <trkpt lat="44.23317" lon="2.98566">
        <ele>801</ele>
        <time>2019-10-11T13:23:28.000Z</time>
      </trkpt>
      <trkpt lat="44.23317" lon="2.98571">
        <ele>801</ele>
        <time>2019-10-11T13:23:29.000Z</time>
      </trkpt>
      <trkpt lat="44.23317" lon="2.98575">
        <ele>801</ele>
        <time>2019-10-11T13:23:30.000Z</time>
      </trkpt>
      <trkpt lat="44.23317" lon="2.98579">
        <ele>801</ele>
        <time>2019-10-11T13:23:31.000Z</time>
      </trkpt>
      <trkpt lat="44.23317" lon="2.98583">
        <ele>801</ele>
        <time>2019-10-11T13:23:32.000Z</time>
      </trkpt>
      <trkpt lat="44.23317" lon="2.98585">
        <ele>801</ele>
        <time>2019-10-11T13:23:33.000Z</time>
      </trkpt>
      <trkpt lat="44.23317" lon="2.98587">
        <ele>802</ele>
        <time>2019-10-11T13:23:34.000Z</time>
      </trkpt>
      <trkpt lat="44.23317" lon="2.98588">
        <ele>802</ele>
        <time>2019-10-11T13:23:35.000Z</time>
      </trkpt>
      <trkpt lat="44.23318" lon="2.9859">
        <ele>802</ele>
        <time>2019-10-11T13:23:36.000Z</time>
      </trkpt>
      <trkpt lat="44.23318" lon="2.98591">
        <ele>802</ele>
        <time>2019-10-11T13:23:37.000Z</time>
      </trkpt>
      <trkpt lat="44.23318" lon="2.98592">
        <ele>803</ele>
        <time>2019-10-11T13:23:38.000Z</time>
      </trkpt>
      <trkpt lat="44.23319" lon="2.98594">
        <ele>803</ele>
        <time>2019-10-11T13:23:39.000Z</time>
      </trkpt>
      <trkpt lat="44.23319" lon="2.98595">
        <ele>803</ele>
        <time>2019-10-11T13:23:40.000Z</time>
      </trkpt>
      <trkpt lat="44.23319" lon="2.98597">
        <ele>803</ele>
        <time>2019-10-11T13:23:41.000Z</time>
      </trkpt>
      <trkpt lat="44.2332" lon="2.98599">
        <ele>803</ele>
        <time>2019-10-11T13:23:42.000Z</time>
      </trkpt>
      <trkpt lat="44.2332" lon="2.98601">
        <ele>804</ele>
        <time>2019-10-11T13:23:43.000Z</time>
      </trkpt>
      <trkpt lat="44.2332" lon="2.98603">
        <ele>804</ele>
        <time>2019-10-11T13:23:44.000Z</time>
      </trkpt>
      <trkpt lat="44.2332" lon="2.98605">
        <ele>804</ele>
        <time>2019-10-11T13:23:45.000Z</time>
      </trkpt>
      <trkpt lat="44.23321" lon="2.98607">
        <ele>805</ele>
        <time>2019-10-11T13:23:46.000Z</time>
      </trkpt>
      <trkpt lat="44.23321" lon="2.98609">
        <ele>805</ele>
        <time>2019-10-11T13:23:47.000Z</time>
      </trkpt>
      <trkpt lat="44.23321" lon="2.98611">
        <ele>805</ele>
        <time>2019-10-11T13:23:48.000Z</time>
      </trkpt>
      <trkpt lat="44.23321" lon="2.98613">
        <ele>806</ele>
        <time>2019-10-11T13:23:49.000Z</time>
      </trkpt>
      <trkpt lat="44.23321" lon="2.98615">
        <ele>806</ele>
        <time>2019-10-11T13:23:50.000Z</time>
      </trkpt>
      <trkpt lat="44.23321" lon="2.98616">
        <ele>806</ele>
        <time>2019-10-11T13:23:51.000Z</time>
      </trkpt>
      <trkpt lat="44.23321" lon="2.98619">
        <ele>807</ele>
        <time>2019-10-11T13:23:52.000Z</time>
      </trkpt>
      <trkpt lat="44.23321" lon="2.98621">
        <ele>807</ele>
        <time>2019-10-11T13:23:53.000Z</time>
      </trkpt>
      <trkpt lat="44.23321" lon="2.98623">
        <ele>808</ele>
        <time>2019-10-11T13:23:54.000Z</time>
      </trkpt>
      <trkpt lat="44.23321" lon="2.98625">
        <ele>808</ele>
        <time>2019-10-11T13:23:55.000Z</time>
      </trkpt>
      <trkpt lat="44.23322" lon="2.98627">
        <ele>809</ele>
        <time>2019-10-11T13:23:56.000Z</time>
      </trkpt>
      <trkpt lat="44.23322" lon="2.98629">
        <ele>809</ele>
        <time>2019-10-11T13:23:57.000Z</time>
      </trkpt>
      <trkpt lat="44.23322" lon="2.98632">
        <ele>809</ele>
        <time>2019-10-11T13:23:58.000Z</time>
      </trkpt>
      <trkpt lat="44.23322" lon="2.98634">
        <ele>810</ele>
        <time>2019-10-11T13:23:59.000Z</time>
      </trkpt>
      <trkpt lat="44.23322" lon="2.98636">
        <ele>810</ele>
        <time>2019-10-11T13:24:00.000Z</time>
      </trkpt>
      <trkpt lat="44.23323" lon="2.98638">
        <ele>811</ele>
        <time>2019-10-11T13:24:01.000Z</time>
      </trkpt>
      <trkpt lat="44.23323" lon="2.9864">
        <ele>811</ele>
        <time>2019-10-11T13:24:02.000Z</time>
      </trkpt>
      <trkpt lat="44.23323" lon="2.98642">
        <ele>811</ele>
        <time>2019-10-11T13:24:03.000Z</time>
      </trkpt>
      <trkpt lat="44.23323" lon="2.98644">
        <ele>812</ele>
        <time>2019-10-11T13:24:04.000Z</time>
      </trkpt>
      <trkpt lat="44.23323" lon="2.98646">
        <ele>812</ele>
        <time>2019-10-11T13:24:05.000Z</time>
      </trkpt>
      <trkpt lat="44.23324" lon="2.98648">
        <ele>812</ele>
        <time>2019-10-11T13:24:06.000Z</time>
      </trkpt>
      <trkpt lat="44.23324" lon="2.98651">
        <ele>813</ele>
        <time>2019-10-11T13:24:07.000Z</time>
      </trkpt>
      <trkpt lat="44.23325" lon="2.98654">
        <ele>813</ele>
        <time>2019-10-11T13:24:08.000Z</time>
      </trkpt>
      <trkpt lat="44.23325" lon="2.98658">
        <ele>814</ele>
        <time>2019-10-11T13:24:09.000Z</time>
      </trkpt>
      <trkpt lat="44.23326" lon="2.98663">
        <ele>814</ele>
        <time>2019-10-11T13:24:10.000Z</time>
      </trkpt>
      <trkpt lat="44.23327" lon="2.98667">
        <ele>815</ele>
        <time>2019-10-11T13:24:11.000Z</time>
      </trkpt>
      <trkpt lat="44.23327" lon="2.98672">
        <ele>815</ele>
        <time>2019-10-11T13:24:12.000Z</time>
      </trkpt>
      <trkpt lat="44.23328" lon="2.98677">
        <ele>815</ele>
        <time>2019-10-11T13:24:13.000Z</time>
      </trkpt>
      <trkpt lat="44.23329" lon="2.98681">
        <ele>816</ele>
        <time>2019-10-11T13:24:14.000Z</time>
      </trkpt>
      <trkpt lat="44.2333" lon="2.98686">
        <ele>817</ele>
        <time>2019-10-11T13:24:15.000Z</time>
      </trkpt>
      <trkpt lat="44.2333" lon="2.9869">
        <ele>817</ele>
        <time>2019-10-11T13:24:16.000Z</time>
      </trkpt>
      <trkpt lat="44.2333" lon="2.98694">
        <ele>818</ele>
        <time>2019-10-11T13:24:17.000Z</time>
      </trkpt>
      <trkpt lat="44.23331" lon="2.98697">
        <ele>818</ele>
        <time>2019-10-11T13:24:18.000Z</time>
      </trkpt>
      <trkpt lat="44.23331" lon="2.98699">
        <ele>819</ele>
        <time>2019-10-11T13:24:19.000Z</time>
      </trkpt>
      <trkpt lat="44.23331" lon="2.987">
        <ele>819</ele>
        <time>2019-10-11T13:24:20.000Z</time>
      </trkpt>
      <trkpt lat="44.23331" lon="2.98702">
        <ele>820</ele>
        <time>2019-10-11T13:24:21.000Z</time>
      </trkpt>
      <trkpt lat="44.23331" lon="2.98704">
        <ele>820</ele>
        <time>2019-10-11T13:24:22.000Z</time>
      </trkpt>
      <trkpt lat="44.23332" lon="2.98706">
        <ele>820</ele>
        <time>2019-10-11T13:24:23.000Z</time>
      </trkpt>
      <trkpt lat="44.23332" lon="2.98707">
        <ele>820</ele>
        <time>2019-10-11T13:24:24.000Z</time>
      </trkpt>
      <trkpt lat="44.23332" lon="2.9871">
        <ele>821</ele>
        <time>2019-10-11T13:24:25.000Z</time>
      </trkpt>
      <trkpt lat="44.23333" lon="2.98712">
        <ele>821</ele>
        <time>2019-10-11T13:24:26.000Z</time>
      </trkpt>
      <trkpt lat="44.23333" lon="2.98713">
        <ele>821</ele>
        <time>2019-10-11T13:24:27.000Z</time>
      </trkpt>
      <trkpt lat="44.23334" lon="2.98715">
        <ele>822</ele>
        <time>2019-10-11T13:24:28.000Z</time>
      </trkpt>
      <trkpt lat="44.23334" lon="2.98717">
        <ele>822</ele>
        <time>2019-10-11T13:24:29.000Z</time>
      </trkpt>
      <trkpt lat="44.23334" lon="2.98718">
        <ele>822</ele>
        <time>2019-10-11T13:24:30.000Z</time>
      </trkpt>
      <trkpt lat="44.23335" lon="2.9872">
        <ele>822</ele>
        <time>2019-10-11T13:24:31.000Z</time>
      </trkpt>
      <trkpt lat="44.23335" lon="2.98721">
        <ele>823</ele>
        <time>2019-10-11T13:24:32.000Z</time>
      </trkpt>
      <trkpt lat="44.23336" lon="2.98723">
        <ele>823</ele>
        <time>2019-10-11T13:24:33.000Z</time>
      </trkpt>
      <trkpt lat="44.23336" lon="2.98724">
        <ele>823</ele>
        <time>2019-10-11T13:24:34.000Z</time>
      </trkpt>
      <trkpt lat="44.23336" lon="2.98726">
        <ele>823</ele>
        <time>2019-10-11T13:24:35.000Z</time>
      </trkpt>
      <trkpt lat="44.23336" lon="2.98728">
        <ele>824</ele>
        <time>2019-10-11T13:24:36.000Z</time>
      </trkpt>
      <trkpt lat="44.23336" lon="2.9873">
        <ele>824</ele>
        <time>2019-10-11T13:24:37.000Z</time>
      </trkpt>
      <trkpt lat="44.23337" lon="2.98731">
        <ele>824</ele>
        <time>2019-10-11T13:24:38.000Z</time>
      </trkpt>
      <trkpt lat="44.23337" lon="2.98733">
        <ele>825</ele>
        <time>2019-10-11T13:24:39.000Z</time>
      </trkpt>
      <trkpt lat="44.23337" lon="2.98734">
        <ele>825</ele>
        <time>2019-10-11T13:24:40.000Z</time>
      </trkpt>
      <trkpt lat="44.23337" lon="2.98736">
        <ele>825</ele>
        <time>2019-10-11T13:24:41.000Z</time>
      </trkpt>
      <trkpt lat="44.23337" lon="2.98737">
        <ele>825</ele>
        <time>2019-10-11T13:24:42.000Z</time>
      </trkpt>
      <trkpt lat="44.23337" lon="2.98739">
        <ele>825</ele>
        <time>2019-10-11T13:24:43.000Z</time>
      </trkpt>
      <trkpt lat="44.23337" lon="2.9874">
        <ele>826</ele>
        <time>2019-10-11T13:24:44.000Z</time>
      </trkpt>
      <trkpt lat="44.23337" lon="2.98742">
        <ele>826</ele>
        <time>2019-10-11T13:24:45.000Z</time>
      </trkpt>
      <trkpt lat="44.23337" lon="2.98744">
        <ele>826</ele>
        <time>2019-10-11T13:24:46.000Z</time>
      </trkpt>
      <trkpt lat="44.23337" lon="2.98746">
        <ele>826</ele>
        <time>2019-10-11T13:24:47.000Z</time>
      </trkpt>
      <trkpt lat="44.23337" lon="2.98748">
        <ele>827</ele>
        <time>2019-10-11T13:24:48.000Z</time>
      </trkpt>
      <trkpt lat="44.23337" lon="2.98749">
        <ele>827</ele>
        <time>2019-10-11T13:24:49.000Z</time>
      </trkpt>
      <trkpt lat="44.23337" lon="2.9875">
        <ele>827</ele>
        <time>2019-10-11T13:24:50.000Z</time>
      </trkpt>
      <trkpt lat="44.23336" lon="2.98751">
        <ele>828</ele>
        <time>2019-10-11T13:24:51.000Z</time>
      </trkpt>
      <trkpt lat="44.23336" lon="2.98752">
        <ele>828</ele>
        <time>2019-10-11T13:24:52.000Z</time>
      </trkpt>
      <trkpt lat="44.23335" lon="2.98753">
        <ele>828</ele>
        <time>2019-10-11T13:24:53.000Z</time>
      </trkpt>
      <trkpt lat="44.23334" lon="2.98753">
        <ele>828</ele>
        <time>2019-10-11T13:24:54.000Z</time>
      </trkpt>
      <trkpt lat="44.23334" lon="2.98754">
        <ele>829</ele>
        <time>2019-10-11T13:24:55.000Z</time>
      </trkpt>
      <trkpt lat="44.23333" lon="2.98754">
        <ele>829</ele>
        <time>2019-10-11T13:24:56.000Z</time>
      </trkpt>
      <trkpt lat="44.23332" lon="2.98754">
        <ele>829</ele>
        <time>2019-10-11T13:24:57.000Z</time>
      </trkpt>
      <trkpt lat="44.23331" lon="2.98754">
        <ele>829</ele>
        <time>2019-10-11T13:24:58.000Z</time>
      </trkpt>
      <trkpt lat="44.23329" lon="2.98754">
        <ele>829</ele>
        <time>2019-10-11T13:24:59.000Z</time>
      </trkpt>
      <trkpt lat="44.23328" lon="2.98755">
        <ele>830</ele>
        <time>2019-10-11T13:25:00.000Z</time>
      </trkpt>
      <trkpt lat="44.23326" lon="2.98754">
        <ele>830</ele>
        <time>2019-10-11T13:25:01.000Z</time>
      </trkpt>
      <trkpt lat="44.23323" lon="2.98754">
        <ele>830</ele>
        <time>2019-10-11T13:25:02.000Z</time>
      </trkpt>
      <trkpt lat="44.2332" lon="2.98753">
        <ele>830</ele>
        <time>2019-10-11T13:25:03.000Z</time>
      </trkpt>
      <trkpt lat="44.23317" lon="2.98753">
        <ele>830</ele>
        <time>2019-10-11T13:25:04.000Z</time>
      </trkpt>
      <trkpt lat="44.23313" lon="2.98752">
        <ele>830</ele>
        <time>2019-10-11T13:25:05.000Z</time>
      </trkpt>
      <trkpt lat="44.2331" lon="2.98752">
        <ele>831</ele>
        <time>2019-10-11T13:25:06.000Z</time>
      </trkpt>
      <trkpt lat="44.23306" lon="2.98752">
        <ele>831</ele>
        <time>2019-10-11T13:25:07.000Z</time>
      </trkpt>
      <trkpt lat="44.23302" lon="2.98752">
        <ele>831</ele>
        <time>2019-10-11T13:25:08.000Z</time>
      </trkpt>
      <trkpt lat="44.23298" lon="2.98752">
        <ele>831</ele>
        <time>2019-10-11T13:25:09.000Z</time>
      </trkpt>
      <trkpt lat="44.23294" lon="2.98751">
        <ele>832</ele>
        <time>2019-10-11T13:25:10.000Z</time>
      </trkpt>
      <trkpt lat="44.2329" lon="2.9875">
        <ele>832</ele>
        <time>2019-10-11T13:25:11.000Z</time>
      </trkpt>
      <trkpt lat="44.23286" lon="2.98749">
        <ele>832</ele>
        <time>2019-10-11T13:25:12.000Z</time>
      </trkpt>
      <trkpt lat="44.23281" lon="2.98748">
        <ele>832</ele>
        <time>2019-10-11T13:25:13.000Z</time>
      </trkpt>
      <trkpt lat="44.23277" lon="2.98747">
        <ele>832</ele>
        <time>2019-10-11T13:25:14.000Z</time>
      </trkpt>
      <trkpt lat="44.23273" lon="2.98747">
        <ele>833</ele>
        <time>2019-10-11T13:25:15.000Z</time>
      </trkpt>
      <trkpt lat="44.23268" lon="2.98745">
        <ele>833</ele>
        <time>2019-10-11T13:25:16.000Z</time>
      </trkpt>
      <trkpt lat="44.23264" lon="2.98744">
        <ele>833</ele>
        <time>2019-10-11T13:25:17.000Z</time>
      </trkpt>
      <trkpt lat="44.2326" lon="2.98742">
        <ele>833</ele>
        <time>2019-10-11T13:25:18.000Z</time>
      </trkpt>
      <trkpt lat="44.23255" lon="2.98741">
        <ele>833</ele>
        <time>2019-10-11T13:25:19.000Z</time>
      </trkpt>
      <trkpt lat="44.23251" lon="2.98739">
        <ele>833</ele>
        <time>2019-10-11T13:25:20.000Z</time>
      </trkpt>
      <trkpt lat="44.23246" lon="2.98737">
        <ele>833</ele>
        <time>2019-10-11T13:25:21.000Z</time>
      </trkpt>
      <trkpt lat="44.23242" lon="2.98735">
        <ele>833</ele>
        <time>2019-10-11T13:25:22.000Z</time>
      </trkpt>
      <trkpt lat="44.23238" lon="2.98733">
        <ele>834</ele>
        <time>2019-10-11T13:25:23.000Z</time>
      </trkpt>
      <trkpt lat="44.23233" lon="2.98731">
        <ele>834</ele>
        <time>2019-10-11T13:25:24.000Z</time>
      </trkpt>
      <trkpt lat="44.23229" lon="2.98729">
        <ele>833</ele>
        <time>2019-10-11T13:25:25.000Z</time>
      </trkpt>
      <trkpt lat="44.23225" lon="2.98727">
        <ele>833</ele>
        <time>2019-10-11T13:25:26.000Z</time>
      </trkpt>
      <trkpt lat="44.2322" lon="2.98725">
        <ele>833</ele>
        <time>2019-10-11T13:25:27.000Z</time>
      </trkpt>
      <trkpt lat="44.23215" lon="2.98724">
        <ele>833</ele>
        <time>2019-10-11T13:25:28.000Z</time>
      </trkpt>
      <trkpt lat="44.23209" lon="2.98723">
        <ele>833</ele>
        <time>2019-10-11T13:25:29.000Z</time>
      </trkpt>
      <trkpt lat="44.23204" lon="2.98723">
        <ele>833</ele>
        <time>2019-10-11T13:25:30.000Z</time>
      </trkpt>
      <trkpt lat="44.23199" lon="2.98722">
        <ele>833</ele>
        <time>2019-10-11T13:25:31.000Z</time>
      </trkpt>
      <trkpt lat="44.23193" lon="2.98722">
        <ele>833</ele>
        <time>2019-10-11T13:25:32.000Z</time>
      </trkpt>
      <trkpt lat="44.23188" lon="2.98722">
        <ele>833</ele>
        <time>2019-10-11T13:25:33.000Z</time>
      </trkpt>
      <trkpt lat="44.23183" lon="2.98722">
        <ele>833</ele>
        <time>2019-10-11T13:25:34.000Z</time>
      </trkpt>
      <trkpt lat="44.23178" lon="2.98722">
        <ele>833</ele>
        <time>2019-10-11T13:25:35.000Z</time>
      </trkpt>
      <trkpt lat="44.23173" lon="2.98722">
        <ele>834</ele>
        <time>2019-10-11T13:25:36.000Z</time>
      </trkpt>
      <trkpt lat="44.23168" lon="2.98723">
        <ele>834</ele>
        <time>2019-10-11T13:25:37.000Z</time>
      </trkpt>
      <trkpt lat="44.23162" lon="2.98724">
        <ele>834</ele>
        <time>2019-10-11T13:25:38.000Z</time>
      </trkpt>
      <trkpt lat="44.23157" lon="2.98725">
        <ele>834</ele>
        <time>2019-10-11T13:25:39.000Z</time>
      </trkpt>
      <trkpt lat="44.23153" lon="2.98724">
        <ele>834</ele>
        <time>2019-10-11T13:25:40.000Z</time>
      </trkpt>
      <trkpt lat="44.23148" lon="2.98724">
        <ele>834</ele>
        <time>2019-10-11T13:25:41.000Z</time>
      </trkpt>
      <trkpt lat="44.23144" lon="2.98723">
        <ele>835</ele>
        <time>2019-10-11T13:25:42.000Z</time>
      </trkpt>
      <trkpt lat="44.23139" lon="2.98722">
        <ele>835</ele>
        <time>2019-10-11T13:25:43.000Z</time>
      </trkpt>
      <trkpt lat="44.23135" lon="2.98721">
        <ele>835</ele>
        <time>2019-10-11T13:25:44.000Z</time>
      </trkpt>
      <trkpt lat="44.2313" lon="2.9872">
        <ele>835</ele>
        <time>2019-10-11T13:25:45.000Z</time>
      </trkpt>
      <trkpt lat="44.23126" lon="2.98719">
        <ele>836</ele>
        <time>2019-10-11T13:25:46.000Z</time>
      </trkpt>
      <trkpt lat="44.23122" lon="2.98718">
        <ele>836</ele>
        <time>2019-10-11T13:25:47.000Z</time>
      </trkpt>
      <trkpt lat="44.23118" lon="2.98717">
        <ele>836</ele>
        <time>2019-10-11T13:25:48.000Z</time>
      </trkpt>
      <trkpt lat="44.23114" lon="2.98715">
        <ele>837</ele>
        <time>2019-10-11T13:25:49.000Z</time>
      </trkpt>
      <trkpt lat="44.2311" lon="2.98713">
        <ele>837</ele>
        <time>2019-10-11T13:25:50.000Z</time>
      </trkpt>
      <trkpt lat="44.23106" lon="2.98712">
        <ele>837</ele>
        <time>2019-10-11T13:25:51.000Z</time>
      </trkpt>
      <trkpt lat="44.23101" lon="2.9871">
        <ele>838</ele>
        <time>2019-10-11T13:25:52.000Z</time>
      </trkpt>
      <trkpt lat="44.23097" lon="2.98709">
        <ele>838</ele>
        <time>2019-10-11T13:25:53.000Z</time>
      </trkpt>
      <trkpt lat="44.23092" lon="2.98708">
        <ele>838</ele>
        <time>2019-10-11T13:25:54.000Z</time>
      </trkpt>
      <trkpt lat="44.23087" lon="2.98706">
        <ele>839</ele>
        <time>2019-10-11T13:25:55.000Z</time>
      </trkpt>
      <trkpt lat="44.23083" lon="2.98705">
        <ele>839</ele>
        <time>2019-10-11T13:25:56.000Z</time>
      </trkpt>
      <trkpt lat="44.23078" lon="2.98704">
        <ele>839</ele>
        <time>2019-10-11T13:25:57.000Z</time>
      </trkpt>
      <trkpt lat="44.23073" lon="2.98703">
        <ele>840</ele>
        <time>2019-10-11T13:25:58.000Z</time>
      </trkpt>
      <trkpt lat="44.23068" lon="2.98701">
        <ele>840</ele>
        <time>2019-10-11T13:25:59.000Z</time>
      </trkpt>
      <trkpt lat="44.23064" lon="2.987">
        <ele>840</ele>
        <time>2019-10-11T13:26:00.000Z</time>
      </trkpt>
      <trkpt lat="44.23059" lon="2.98699">
        <ele>840</ele>
        <time>2019-10-11T13:26:01.000Z</time>
      </trkpt>
      <trkpt lat="44.23053" lon="2.98698">
        <ele>840</ele>
        <time>2019-10-11T13:26:02.000Z</time>
      </trkpt>
      <trkpt lat="44.23048" lon="2.98697">
        <ele>840</ele>
        <time>2019-10-11T13:26:03.000Z</time>
      </trkpt>
      <trkpt lat="44.23042" lon="2.98696">
        <ele>840</ele>
        <time>2019-10-11T13:26:04.000Z</time>
      </trkpt>
      <trkpt lat="44.23036" lon="2.98696">
        <ele>841</ele>
        <time>2019-10-11T13:26:05.000Z</time>
      </trkpt>
      <trkpt lat="44.2303" lon="2.98696">
        <ele>841</ele>
        <time>2019-10-11T13:26:06.000Z</time>
      </trkpt>
      <trkpt lat="44.23023" lon="2.98696">
        <ele>841</ele>
        <time>2019-10-11T13:26:07.000Z</time>
      </trkpt>
      <trkpt lat="44.23016" lon="2.98696">
        <ele>841</ele>
        <time>2019-10-11T13:26:08.000Z</time>
      </trkpt>
      <trkpt lat="44.23009" lon="2.98696">
        <ele>841</ele>
        <time>2019-10-11T13:26:09.000Z</time>
      </trkpt>
      <trkpt lat="44.23002" lon="2.98697">
        <ele>841</ele>
        <time>2019-10-11T13:26:10.000Z</time>
      </trkpt>
      <trkpt lat="44.22996" lon="2.98697">
        <ele>841</ele>
        <time>2019-10-11T13:26:11.000Z</time>
      </trkpt>
      <trkpt lat="44.22988" lon="2.98697">
        <ele>842</ele>
        <time>2019-10-11T13:26:12.000Z</time>
      </trkpt>
      <trkpt lat="44.22981" lon="2.98698">
        <ele>842</ele>
        <time>2019-10-11T13:26:13.000Z</time>
      </trkpt>
      <trkpt lat="44.22973" lon="2.98698">
        <ele>842</ele>
        <time>2019-10-11T13:26:14.000Z</time>
      </trkpt>
      <trkpt lat="44.22966" lon="2.98698">
        <ele>843</ele>
        <time>2019-10-11T13:26:15.000Z</time>
      </trkpt>
      <trkpt lat="44.22958" lon="2.98699">
        <ele>843</ele>
        <time>2019-10-11T13:26:16.000Z</time>
      </trkpt>
      <trkpt lat="44.22951" lon="2.98699">
        <ele>843</ele>
        <time>2019-10-11T13:26:17.000Z</time>
      </trkpt>
      <trkpt lat="44.22944" lon="2.98699">
        <ele>844</ele>
        <time>2019-10-11T13:26:18.000Z</time>
      </trkpt>
      <trkpt lat="44.22936" lon="2.98699">
        <ele>844</ele>
        <time>2019-10-11T13:26:19.000Z</time>
      </trkpt>
      <trkpt lat="44.22929" lon="2.98699">
        <ele>844</ele>
        <time>2019-10-11T13:26:20.000Z</time>
      </trkpt>
      <trkpt lat="44.22922" lon="2.98699">
        <ele>844</ele>
        <time>2019-10-11T13:26:21.000Z</time>
      </trkpt>
      <trkpt lat="44.22914" lon="2.987">
        <ele>845</ele>
        <time>2019-10-11T13:26:22.000Z</time>
      </trkpt>
      <trkpt lat="44.22907" lon="2.987">
        <ele>845</ele>
        <time>2019-10-11T13:26:23.000Z</time>
      </trkpt>
      <trkpt lat="44.22901" lon="2.987">
        <ele>845</ele>
        <time>2019-10-11T13:26:24.000Z</time>
      </trkpt>
      <trkpt lat="44.22895" lon="2.98699">
        <ele>845</ele>
        <time>2019-10-11T13:26:25.000Z</time>
      </trkpt>
      <trkpt lat="44.22889" lon="2.98699">
        <ele>846</ele>
        <time>2019-10-11T13:26:26.000Z</time>
      </trkpt>
      <trkpt lat="44.22884" lon="2.98698">
        <ele>846</ele>
        <time>2019-10-11T13:26:27.000Z</time>
      </trkpt>
      <trkpt lat="44.22878" lon="2.98696">
        <ele>846</ele>
        <time>2019-10-11T13:26:28.000Z</time>
      </trkpt>
      <trkpt lat="44.22873" lon="2.98693">
        <ele>846</ele>
        <time>2019-10-11T13:26:29.000Z</time>
      </trkpt>
      <trkpt lat="44.22868" lon="2.98691">
        <ele>846</ele>
        <time>2019-10-11T13:26:30.000Z</time>
      </trkpt>
      <trkpt lat="44.22863" lon="2.98688">
        <ele>846</ele>
        <time>2019-10-11T13:26:31.000Z</time>
      </trkpt>
      <trkpt lat="44.22858" lon="2.98685">
        <ele>846</ele>
        <time>2019-10-11T13:26:32.000Z</time>
      </trkpt>
      <trkpt lat="44.22853" lon="2.98682">
        <ele>847</ele>
        <time>2019-10-11T13:26:33.000Z</time>
      </trkpt>
      <trkpt lat="44.22848" lon="2.98679">
        <ele>847</ele>
        <time>2019-10-11T13:26:34.000Z</time>
      </trkpt>
      <trkpt lat="44.22843" lon="2.98677">
        <ele>847</ele>
        <time>2019-10-11T13:26:35.000Z</time>
      </trkpt>
      <trkpt lat="44.22839" lon="2.98674">
        <ele>847</ele>
        <time>2019-10-11T13:26:36.000Z</time>
      </trkpt>
      <trkpt lat="44.22834" lon="2.98671">
        <ele>847</ele>
        <time>2019-10-11T13:26:37.000Z</time>
      </trkpt>
      <trkpt lat="44.2283" lon="2.98668">
        <ele>847</ele>
        <time>2019-10-11T13:26:38.000Z</time>
      </trkpt>
      <trkpt lat="44.22825" lon="2.98665">
        <ele>847</ele>
        <time>2019-10-11T13:26:39.000Z</time>
      </trkpt>
      <trkpt lat="44.22821" lon="2.98662">
        <ele>847</ele>
        <time>2019-10-11T13:26:40.000Z</time>
      </trkpt>
      <trkpt lat="44.22816" lon="2.98659">
        <ele>848</ele>
        <time>2019-10-11T13:26:41.000Z</time>
      </trkpt>
      <trkpt lat="44.22811" lon="2.98656">
        <ele>848</ele>
        <time>2019-10-11T13:26:42.000Z</time>
      </trkpt>
      <trkpt lat="44.22806" lon="2.98653">
        <ele>848</ele>
        <time>2019-10-11T13:26:43.000Z</time>
      </trkpt>
      <trkpt lat="44.22802" lon="2.98651">
        <ele>848</ele>
        <time>2019-10-11T13:26:44.000Z</time>
      </trkpt>
      <trkpt lat="44.22797" lon="2.98648">
        <ele>848</ele>
        <time>2019-10-11T13:26:45.000Z</time>
      </trkpt>
      <trkpt lat="44.22792" lon="2.98646">
        <ele>848</ele>
        <time>2019-10-11T13:26:46.000Z</time>
      </trkpt>
      <trkpt lat="44.22788" lon="2.98644">
        <ele>848</ele>
        <time>2019-10-11T13:26:47.000Z</time>
      </trkpt>
      <trkpt lat="44.22783" lon="2.98642">
        <ele>848</ele>
        <time>2019-10-11T13:26:48.000Z</time>
      </trkpt>
      <trkpt lat="44.22778" lon="2.9864">
        <ele>848</ele>
        <time>2019-10-11T13:26:49.000Z</time>
      </trkpt>
      <trkpt lat="44.22773" lon="2.98638">
        <ele>848</ele>
        <time>2019-10-11T13:26:50.000Z</time>
      </trkpt>
      <trkpt lat="44.22768" lon="2.98636">
        <ele>848</ele>
        <time>2019-10-11T13:26:51.000Z</time>
      </trkpt>
      <trkpt lat="44.22763" lon="2.98635">
        <ele>849</ele>
        <time>2019-10-11T13:26:52.000Z</time>
      </trkpt>
      <trkpt lat="44.22758" lon="2.98634">
        <ele>849</ele>
        <time>2019-10-11T13:26:53.000Z</time>
      </trkpt>
      <trkpt lat="44.22753" lon="2.98633">
        <ele>849</ele>
        <time>2019-10-11T13:26:54.000Z</time>
      </trkpt>
      <trkpt lat="44.22748" lon="2.98632">
        <ele>849</ele>
        <time>2019-10-11T13:26:55.000Z</time>
      </trkpt>
      <trkpt lat="44.22743" lon="2.98632">
        <ele>849</ele>
        <time>2019-10-11T13:26:56.000Z</time>
      </trkpt>
      <trkpt lat="44.22737" lon="2.98631">
        <ele>849</ele>
        <time>2019-10-11T13:26:57.000Z</time>
      </trkpt>
      <trkpt lat="44.22732" lon="2.98632">
        <ele>849</ele>
        <time>2019-10-11T13:26:58.000Z</time>
      </trkpt>
      <trkpt lat="44.22727" lon="2.98632">
        <ele>849</ele>
        <time>2019-10-11T13:26:59.000Z</time>
      </trkpt>
      <trkpt lat="44.22723" lon="2.98632">
        <ele>849</ele>
        <time>2019-10-11T13:27:00.000Z</time>
      </trkpt>
      <trkpt lat="44.22718" lon="2.98632">
        <ele>849</ele>
        <time>2019-10-11T13:27:01.000Z</time>
      </trkpt>
      <trkpt lat="44.22713" lon="2.98632">
        <ele>849</ele>
        <time>2019-10-11T13:27:02.000Z</time>
      </trkpt>
      <trkpt lat="44.22709" lon="2.98632">
        <ele>849</ele>
        <time>2019-10-11T13:27:03.000Z</time>
      </trkpt>
      <trkpt lat="44.22704" lon="2.98632">
        <ele>849</ele>
        <time>2019-10-11T13:27:04.000Z</time>
      </trkpt>
      <trkpt lat="44.227" lon="2.98632">
        <ele>849</ele>
        <time>2019-10-11T13:27:05.000Z</time>
      </trkpt>
      <trkpt lat="44.22697" lon="2.98632">
        <ele>849</ele>
        <time>2019-10-11T13:27:06.000Z</time>
      </trkpt>
      <trkpt lat="44.22694" lon="2.98632">
        <ele>849</ele>
        <time>2019-10-11T13:27:07.000Z</time>
      </trkpt>
      <trkpt lat="44.22692" lon="2.98633">
        <ele>849</ele>
        <time>2019-10-11T13:27:08.000Z</time>
      </trkpt>
      <trkpt lat="44.22689" lon="2.98634">
        <ele>849</ele>
        <time>2019-10-11T13:27:09.000Z</time>
      </trkpt>
      <trkpt lat="44.22688" lon="2.98634">
        <ele>849</ele>
        <time>2019-10-11T13:27:10.000Z</time>
      </trkpt>
      <trkpt lat="44.22686" lon="2.98634">
        <ele>849</ele>
        <time>2019-10-11T13:27:11.000Z</time>
      </trkpt>
      <trkpt lat="44.22685" lon="2.98634">
        <ele>849</ele>
        <time>2019-10-11T13:27:12.000Z</time>
      </trkpt>
      <trkpt lat="44.22683" lon="2.98634">
        <ele>849</ele>
        <time>2019-10-11T13:27:13.000Z</time>
      </trkpt>
      <trkpt lat="44.22682" lon="2.98634">
        <ele>849</ele>
        <time>2019-10-11T13:27:14.000Z</time>
      </trkpt>
      <trkpt lat="44.22681" lon="2.98634">
        <ele>849</ele>
        <time>2019-10-11T13:27:15.000Z</time>
      </trkpt>
      <trkpt lat="44.22679" lon="2.98635">
        <ele>849</ele>
        <time>2019-10-11T13:27:16.000Z</time>
      </trkpt>
      <trkpt lat="44.22678" lon="2.98635">
        <ele>850</ele>
        <time>2019-10-11T13:27:17.000Z</time>
      </trkpt>
      <trkpt lat="44.22676" lon="2.98636">
        <ele>850</ele>
        <time>2019-10-11T13:27:18.000Z</time>
      </trkpt>
      <trkpt lat="44.22675" lon="2.98636">
        <ele>850</ele>
        <time>2019-10-11T13:27:19.000Z</time>
      </trkpt>
      <trkpt lat="44.22673" lon="2.98636">
        <ele>850</ele>
        <time>2019-10-11T13:27:20.000Z</time>
      </trkpt>
      <trkpt lat="44.22672" lon="2.98636">
        <ele>850</ele>
        <time>2019-10-11T13:27:21.000Z</time>
      </trkpt>
      <trkpt lat="44.22671" lon="2.98637">
        <ele>850</ele>
        <time>2019-10-11T13:27:22.000Z</time>
      </trkpt>
      <trkpt lat="44.22669" lon="2.98637">
        <ele>850</ele>
        <time>2019-10-11T13:27:23.000Z</time>
      </trkpt>
      <trkpt lat="44.22668" lon="2.98638">
        <ele>850</ele>
        <time>2019-10-11T13:27:24.000Z</time>
      </trkpt>
      <trkpt lat="44.22666" lon="2.98638">
        <ele>850</ele>
        <time>2019-10-11T13:27:25.000Z</time>
      </trkpt>
      <trkpt lat="44.22665" lon="2.98638">
        <ele>850</ele>
        <time>2019-10-11T13:27:26.000Z</time>
      </trkpt>
      <trkpt lat="44.22663" lon="2.98638">
        <ele>850</ele>
        <time>2019-10-11T13:27:27.000Z</time>
      </trkpt>
      <trkpt lat="44.22662" lon="2.98639">
        <ele>850</ele>
        <time>2019-10-11T13:27:28.000Z</time>
      </trkpt>
      <trkpt lat="44.22661" lon="2.98639">
        <ele>850</ele>
        <time>2019-10-11T13:27:29.000Z</time>
      </trkpt>
      <trkpt lat="44.22659" lon="2.98639">
        <ele>850</ele>
        <time>2019-10-11T13:27:30.000Z</time>
      </trkpt>
      <trkpt lat="44.22658" lon="2.9864">
        <ele>850</ele>
        <time>2019-10-11T13:27:31.000Z</time>
      </trkpt>
      <trkpt lat="44.22656" lon="2.9864">
        <ele>850</ele>
        <time>2019-10-11T13:27:32.000Z</time>
      </trkpt>
      <trkpt lat="44.22655" lon="2.9864">
        <ele>850</ele>
        <time>2019-10-11T13:27:33.000Z</time>
      </trkpt>
      <trkpt lat="44.22653" lon="2.98641">
        <ele>850</ele>
        <time>2019-10-11T13:27:34.000Z</time>
      </trkpt>
      <trkpt lat="44.22652" lon="2.98642">
        <ele>850</ele>
        <time>2019-10-11T13:27:35.000Z</time>
      </trkpt>
      <trkpt lat="44.2265" lon="2.98643">
        <ele>849</ele>
        <time>2019-10-11T13:27:36.000Z</time>
      </trkpt>
      <trkpt lat="44.22649" lon="2.98644">
        <ele>849</ele>
        <time>2019-10-11T13:27:37.000Z</time>
      </trkpt>
      <trkpt lat="44.22648" lon="2.98645">
        <ele>850</ele>
        <time>2019-10-11T13:27:38.000Z</time>
      </trkpt>
      <trkpt lat="44.22646" lon="2.98645">
        <ele>850</ele>
        <time>2019-10-11T13:27:39.000Z</time>
      </trkpt>
      <trkpt lat="44.22645" lon="2.98646">
        <ele>850</ele>
        <time>2019-10-11T13:27:40.000Z</time>
      </trkpt>
      <trkpt lat="44.22644" lon="2.98646">
        <ele>850</ele>
        <time>2019-10-11T13:27:41.000Z</time>
      </trkpt>
      <trkpt lat="44.22643" lon="2.98647">
        <ele>850</ele>
        <time>2019-10-11T13:27:42.000Z</time>
      </trkpt>
      <trkpt lat="44.22642" lon="2.98647">
        <ele>850</ele>
        <time>2019-10-11T13:27:43.000Z</time>
      </trkpt>
      <trkpt lat="44.22641" lon="2.98646">
        <ele>850</ele>
        <time>2019-10-11T13:27:44.000Z</time>
      </trkpt>
      <trkpt lat="44.22641" lon="2.98646">
        <ele>850</ele>
        <time>2019-10-11T13:27:45.000Z</time>
      </trkpt>
      <trkpt lat="44.2264" lon="2.98646">
        <ele>850</ele>
        <time>2019-10-11T13:27:46.000Z</time>
      </trkpt>
      <trkpt lat="44.22639" lon="2.98646">
        <ele>850</ele>
        <time>2019-10-11T13:27:47.000Z</time>
      </trkpt>
      <trkpt lat="44.22639" lon="2.98647">
        <ele>850</ele>
        <time>2019-10-11T13:27:48.000Z</time>
      </trkpt>
      <trkpt lat="44.22639" lon="2.98647">
        <ele>850</ele>
        <time>2019-10-11T13:27:49.000Z</time>
      </trkpt>
      <trkpt lat="44.22638" lon="2.98647">
        <ele>850</ele>
        <time>2019-10-11T13:27:50.000Z</time>
      </trkpt>
      <trkpt lat="44.22637" lon="2.98647">
        <ele>850</ele>
        <time>2019-10-11T13:27:51.000Z</time>
      </trkpt>
      <trkpt lat="44.22637" lon="2.98648">
        <ele>850</ele>
        <time>2019-10-11T13:27:52.000Z</time>
      </trkpt>
      <trkpt lat="44.22637" lon="2.98648">
        <ele>850</ele>
        <time>2019-10-11T13:27:53.000Z</time>
      </trkpt>
      <trkpt lat="44.22637" lon="2.98648">
        <ele>850</ele>
        <time>2019-10-11T13:27:54.000Z</time>
      </trkpt>
      <trkpt lat="44.22637" lon="2.98648">
        <ele>850</ele>
        <time>2019-10-11T13:27:55.000Z</time>
      </trkpt>
      <trkpt lat="44.22636" lon="2.98648">
        <ele>850</ele>
        <time>2019-10-11T13:27:56.000Z</time>
      </trkpt>
      <trkpt lat="44.22636" lon="2.98648">
        <ele>850</ele>
        <time>2019-10-11T13:27:57.000Z</time>
      </trkpt>
      <trkpt lat="44.22636" lon="2.98648">
        <ele>850</ele>
        <time>2019-10-11T13:27:58.000Z</time>
      </trkpt>
      <trkpt lat="44.22636" lon="2.98648">
        <ele>850</ele>
        <time>2019-10-11T13:27:59.000Z</time>
      </trkpt>
      <trkpt lat="44.22636" lon="2.98648">
        <ele>850</ele>
        <time>2019-10-11T13:28:00.000Z</time>
      </trkpt>
      <trkpt lat="44.22636" lon="2.98648">
        <ele>850</ele>
        <time>2019-10-11T13:28:01.000Z</time>
      </trkpt>
      <trkpt lat="44.22636" lon="2.98648">
        <ele>850</ele>
        <time>2019-10-11T13:28:02.000Z</time>
      </trkpt>
      <trkpt lat="44.22636" lon="2.98648">
        <ele>850</ele>
        <time>2019-10-11T13:28:03.000Z</time>
      </trkpt>
      <trkpt lat="44.22636" lon="2.98648">
        <ele>850</ele>
        <time>2019-10-11T13:28:04.000Z</time>
      </trkpt>
      <trkpt lat="44.22636" lon="2.98648">
        <ele>850</ele>
        <time>2019-10-11T13:28:05.000Z</time>
      </trkpt>
      <trkpt lat="44.22636" lon="2.98648">
        <ele>850</ele>
        <time>2019-10-11T13:28:06.000Z</time>
      </trkpt>
      <trkpt lat="44.22636" lon="2.98648">
        <ele>850</ele>
        <time>2019-10-11T13:28:07.000Z</time>
      </trkpt>
      <trkpt lat="44.22636" lon="2.98648">
        <ele>850</ele>
        <time>2019-10-11T13:28:08.000Z</time>
      </trkpt>
      <trkpt lat="44.22636" lon="2.98648">
        <ele>850</ele>
        <time>2019-10-11T13:28:09.000Z</time>
      </trkpt>
      <trkpt lat="44.22636" lon="2.98648">
        <ele>850</ele>
        <time>2019-10-11T13:28:10.000Z</time>
      </trkpt>
      <trkpt lat="44.22636" lon="2.98648">
        <ele>850</ele>
        <time>2019-10-11T13:28:11.000Z</time>
      </trkpt>
      <trkpt lat="44.22636" lon="2.98648">
        <ele>850</ele>
        <time>2019-10-11T13:28:12.000Z</time>
      </trkpt>
      <trkpt lat="44.22636" lon="2.98648">
        <ele>850</ele>
        <time>2019-10-11T13:28:13.000Z</time>
      </trkpt>
      <trkpt lat="44.22635" lon="2.98648">
        <ele>850</ele>
        <time>2019-10-11T13:28:14.000Z</time>
      </trkpt>
      <trkpt lat="44.22635" lon="2.98648">
        <ele>851</ele>
        <time>2019-10-11T13:28:15.000Z</time>
      </trkpt>
      <trkpt lat="44.22635" lon="2.98648">
        <ele>851</ele>
        <time>2019-10-11T13:28:16.000Z</time>
      </trkpt>
      <trkpt lat="44.22635" lon="2.98648">
        <ele>851</ele>
        <time>2019-10-11T13:28:17.000Z</time>
      </trkpt>
      <trkpt lat="44.22635" lon="2.98648">
        <ele>851</ele>
        <time>2019-10-11T13:28:18.000Z</time>
      </trkpt>
      <trkpt lat="44.22635" lon="2.98648">
        <ele>851</ele>
        <time>2019-10-11T13:28:19.000Z</time>
      </trkpt>
      <trkpt lat="44.22635" lon="2.98648">
        <ele>851</ele>
        <time>2019-10-11T13:28:20.000Z</time>
      </trkpt>
      <trkpt lat="44.22635" lon="2.98648">
        <ele>851</ele>
        <time>2019-10-11T13:28:21.000Z</time>
      </trkpt>
      <trkpt lat="44.22635" lon="2.98648">
        <ele>851</ele>
        <time>2019-10-11T13:28:22.000Z</time>
      </trkpt>
      <trkpt lat="44.22635" lon="2.98648">
        <ele>851</ele>
        <time>2019-10-11T13:28:23.000Z</time>
      </trkpt>
      <trkpt lat="44.22635" lon="2.98649">
        <ele>851</ele>
        <time>2019-10-11T13:28:24.000Z</time>
      </trkpt>
      <trkpt lat="44.22635" lon="2.98649">
        <ele>851</ele>
        <time>2019-10-11T13:28:25.000Z</time>
      </trkpt>
      <trkpt lat="44.22634" lon="2.98649">
        <ele>851</ele>
        <time>2019-10-11T13:28:26.000Z</time>
      </trkpt>
      <trkpt lat="44.22634" lon="2.9865">
        <ele>851</ele>
        <time>2019-10-11T13:28:27.000Z</time>
      </trkpt>
      <trkpt lat="44.22634" lon="2.9865">
        <ele>851</ele>
        <time>2019-10-11T13:28:28.000Z</time>
      </trkpt>
      <trkpt lat="44.22634" lon="2.98649">
        <ele>851</ele>
        <time>2019-10-11T13:28:29.000Z</time>
      </trkpt>
      <trkpt lat="44.22634" lon="2.98649">
        <ele>851</ele>
        <time>2019-10-11T13:28:30.000Z</time>
      </trkpt>
      <trkpt lat="44.22635" lon="2.98649">
        <ele>851</ele>
        <time>2019-10-11T13:28:31.000Z</time>
      </trkpt>
      <trkpt lat="44.22635" lon="2.98649">
        <ele>851</ele>
        <time>2019-10-11T13:28:32.000Z</time>
      </trkpt>
      <trkpt lat="44.22635" lon="2.98649">
        <ele>851</ele>
        <time>2019-10-11T13:28:33.000Z</time>
      </trkpt>
      <trkpt lat="44.22635" lon="2.98649">
        <ele>851</ele>
        <time>2019-10-11T13:28:34.000Z</time>
      </trkpt>
      <trkpt lat="44.22635" lon="2.98649">
        <ele>851</ele>
        <time>2019-10-11T13:28:35.000Z</time>
      </trkpt>
      <trkpt lat="44.22635" lon="2.98649">
        <ele>851</ele>
        <time>2019-10-11T13:28:36.000Z</time>
      </trkpt>
      <trkpt lat="44.22635" lon="2.98649">
        <ele>851</ele>
        <time>2019-10-11T13:28:37.000Z</time>
      </trkpt>
      <trkpt lat="44.22635" lon="2.98649">
        <ele>851</ele>
        <time>2019-10-11T13:28:38.000Z</time>
      </trkpt>
      <trkpt lat="44.22635" lon="2.98648">
        <ele>851</ele>
        <time>2019-10-11T13:28:39.000Z</time>
      </trkpt>
      <trkpt lat="44.22635" lon="2.98648">
        <ele>851</ele>
        <time>2019-10-11T13:28:40.000Z</time>
      </trkpt>
      <trkpt lat="44.22635" lon="2.98648">
        <ele>851</ele>
        <time>2019-10-11T13:28:41.000Z</time>
      </trkpt>
      <trkpt lat="44.22635" lon="2.98648">
        <ele>851</ele>
        <time>2019-10-11T13:28:42.000Z</time>
      </trkpt>
      <trkpt lat="44.22635" lon="2.98648">
        <ele>851</ele>
        <time>2019-10-11T13:28:43.000Z</time>
      </trkpt>
      <trkpt lat="44.22635" lon="2.98648">
        <ele>851</ele>
        <time>2019-10-11T13:28:44.000Z</time>
      </trkpt>
      <trkpt lat="44.22636" lon="2.98648">
        <ele>851</ele>
        <time>2019-10-11T13:28:45.000Z</time>
      </trkpt>
      <trkpt lat="44.22636" lon="2.98648">
        <ele>851</ele>
        <time>2019-10-11T13:28:46.000Z</time>
      </trkpt>
      <trkpt lat="44.22636" lon="2.98648">
        <ele>851</ele>
        <time>2019-10-11T13:28:47.000Z</time>
      </trkpt>
      <trkpt lat="44.22636" lon="2.98648">
        <ele>851</ele>
        <time>2019-10-11T13:28:48.000Z</time>
      </trkpt>
      <trkpt lat="44.22636" lon="2.98648">
        <ele>851</ele>
        <time>2019-10-11T13:28:49.000Z</time>
      </trkpt>
      <trkpt lat="44.22636" lon="2.98648">
        <ele>851</ele>
        <time>2019-10-11T13:28:50.000Z</time>
      </trkpt>
      <trkpt lat="44.22636" lon="2.98648">
        <ele>851</ele>
        <time>2019-10-11T13:28:51.000Z</time>
      </trkpt>
      <trkpt lat="44.22636" lon="2.98648">
        <ele>851</ele>
        <time>2019-10-11T13:28:52.000Z</time>
      </trkpt>
      <trkpt lat="44.22636" lon="2.98648">
        <ele>851</ele>
        <time>2019-10-11T13:28:53.000Z</time>
      </trkpt>
      <trkpt lat="44.22636" lon="2.98648">
        <ele>851</ele>
        <time>2019-10-11T13:28:54.000Z</time>
      </trkpt>
      <trkpt lat="44.22636" lon="2.98648">
        <ele>851</ele>
        <time>2019-10-11T13:28:55.000Z</time>
      </trkpt>
      <trkpt lat="44.22636" lon="2.98648">
        <ele>851</ele>
        <time>2019-10-11T13:28:56.000Z</time>
      </trkpt>
      <trkpt lat="44.22636" lon="2.98648">
        <ele>851</ele>
        <time>2019-10-11T13:28:57.000Z</time>
      </trkpt>
      <trkpt lat="44.22636" lon="2.98648">
        <ele>851</ele>
        <time>2019-10-11T13:28:58.000Z</time>
      </trkpt>
      <trkpt lat="44.22636" lon="2.98648">
        <ele>851</ele>
        <time>2019-10-11T13:28:59.000Z</time>
      </trkpt>
      <trkpt lat="44.22636" lon="2.98648">
        <ele>851</ele>
        <time>2019-10-11T13:29:00.000Z</time>
      </trkpt>
      <trkpt lat="44.22636" lon="2.98648">
        <ele>851</ele>
        <time>2019-10-11T13:29:01.000Z</time>
      </trkpt>
      <trkpt lat="44.22636" lon="2.98648">
        <ele>851</ele>
        <time>2019-10-11T13:29:02.000Z</time>
      </trkpt>
      <trkpt lat="44.22635" lon="2.98648">
        <ele>851</ele>
        <time>2019-10-11T13:29:03.000Z</time>
      </trkpt>
      <trkpt lat="44.22635" lon="2.98648">
        <ele>851</ele>
        <time>2019-10-11T13:29:04.000Z</time>
      </trkpt>
      <trkpt lat="44.22635" lon="2.98648">
        <ele>851</ele>
        <time>2019-10-11T13:29:05.000Z</time>
      </trkpt>
      <trkpt lat="44.22634" lon="2.98648">
        <ele>851</ele>
        <time>2019-10-11T13:29:06.000Z</time>
      </trkpt>
      <trkpt lat="44.22633" lon="2.98649">
        <ele>851</ele>
        <time>2019-10-11T13:29:07.000Z</time>
      </trkpt>
      <trkpt lat="44.22633" lon="2.98651">
        <ele>851</ele>
        <time>2019-10-11T13:29:08.000Z</time>
      </trkpt>
      <trkpt lat="44.22633" lon="2.98652">
        <ele>851</ele>
        <time>2019-10-11T13:29:09.000Z</time>
      </trkpt>
      <trkpt lat="44.22633" lon="2.98653">
        <ele>850</ele>
        <time>2019-10-11T13:29:10.000Z</time>
      </trkpt>
      <trkpt lat="44.22633" lon="2.98655">
        <ele>850</ele>
        <time>2019-10-11T13:29:11.000Z</time>
      </trkpt>
      <trkpt lat="44.22633" lon="2.98656">
        <ele>850</ele>
        <time>2019-10-11T13:29:12.000Z</time>
      </trkpt>
      <trkpt lat="44.22633" lon="2.98657">
        <ele>850</ele>
        <time>2019-10-11T13:29:13.000Z</time>
      </trkpt>
      <trkpt lat="44.22633" lon="2.98659">
        <ele>850</ele>
        <time>2019-10-11T13:29:14.000Z</time>
      </trkpt>
      <trkpt lat="44.22633" lon="2.9866">
        <ele>850</ele>
        <time>2019-10-11T13:29:15.000Z</time>
      </trkpt>
      <trkpt lat="44.22634" lon="2.98661">
        <ele>850</ele>
        <time>2019-10-11T13:29:16.000Z</time>
      </trkpt>
      <trkpt lat="44.22634" lon="2.98663">
        <ele>850</ele>
        <time>2019-10-11T13:29:17.000Z</time>
      </trkpt>
      <trkpt lat="44.22633" lon="2.98664">
        <ele>850</ele>
        <time>2019-10-11T13:29:18.000Z</time>
      </trkpt>
      <trkpt lat="44.22633" lon="2.98665">
        <ele>850</ele>
        <time>2019-10-11T13:29:19.000Z</time>
      </trkpt>
      <trkpt lat="44.22633" lon="2.98665">
        <ele>850</ele>
        <time>2019-10-11T13:29:20.000Z</time>
      </trkpt>
      <trkpt lat="44.22633" lon="2.98665">
        <ele>850</ele>
        <time>2019-10-11T13:29:21.000Z</time>
      </trkpt>
      <trkpt lat="44.22633" lon="2.98665">
        <ele>850</ele>
        <time>2019-10-11T13:29:22.000Z</time>
      </trkpt>
      <trkpt lat="44.22633" lon="2.98666">
        <ele>850</ele>
        <time>2019-10-11T13:29:23.000Z</time>
      </trkpt>
      <trkpt lat="44.22633" lon="2.98666">
        <ele>850</ele>
        <time>2019-10-11T13:29:24.000Z</time>
      </trkpt>
      <trkpt lat="44.22633" lon="2.98667">
        <ele>850</ele>
        <time>2019-10-11T13:29:25.000Z</time>
      </trkpt>
      <trkpt lat="44.22633" lon="2.98668">
        <ele>850</ele>
        <time>2019-10-11T13:29:26.000Z</time>
      </trkpt>
      <trkpt lat="44.22632" lon="2.98668">
        <ele>850</ele>
        <time>2019-10-11T13:29:27.000Z</time>
      </trkpt>
      <trkpt lat="44.22633" lon="2.98669">
        <ele>851</ele>
        <time>2019-10-11T13:29:28.000Z</time>
      </trkpt>
      <trkpt lat="44.22632" lon="2.9867">
        <ele>851</ele>
        <time>2019-10-11T13:29:29.000Z</time>
      </trkpt>
      <trkpt lat="44.22632" lon="2.98672">
        <ele>851</ele>
        <time>2019-10-11T13:29:30.000Z</time>
      </trkpt>
      <trkpt lat="44.22631" lon="2.98673">
        <ele>851</ele>
        <time>2019-10-11T13:29:31.000Z</time>
      </trkpt>
      <trkpt lat="44.22631" lon="2.98674">
        <ele>851</ele>
        <time>2019-10-11T13:29:32.000Z</time>
      </trkpt>
      <trkpt lat="44.22631" lon="2.98676">
        <ele>851</ele>
        <time>2019-10-11T13:29:33.000Z</time>
      </trkpt>
      <trkpt lat="44.22631" lon="2.98678">
        <ele>851</ele>
        <time>2019-10-11T13:29:34.000Z</time>
      </trkpt>
      <trkpt lat="44.22631" lon="2.98679">
        <ele>851</ele>
        <time>2019-10-11T13:29:35.000Z</time>
      </trkpt>
      <trkpt lat="44.2263" lon="2.98681">
        <ele>851</ele>
        <time>2019-10-11T13:29:36.000Z</time>
      </trkpt>
      <trkpt lat="44.2263" lon="2.98682">
        <ele>851</ele>
        <time>2019-10-11T13:29:37.000Z</time>
      </trkpt>
      <trkpt lat="44.2263" lon="2.98684">
        <ele>851</ele>
        <time>2019-10-11T13:29:38.000Z</time>
      </trkpt>
      <trkpt lat="44.22629" lon="2.98685">
        <ele>851</ele>
        <time>2019-10-11T13:29:39.000Z</time>
      </trkpt>
      <trkpt lat="44.22629" lon="2.98687">
        <ele>851</ele>
        <time>2019-10-11T13:29:40.000Z</time>
      </trkpt>
      <trkpt lat="44.22629" lon="2.98688">
        <ele>851</ele>
        <time>2019-10-11T13:29:41.000Z</time>
      </trkpt>
      <trkpt lat="44.22628" lon="2.9869">
        <ele>852</ele>
        <time>2019-10-11T13:29:42.000Z</time>
      </trkpt>
      <trkpt lat="44.22628" lon="2.98691">
        <ele>852</ele>
        <time>2019-10-11T13:29:43.000Z</time>
      </trkpt>
      <trkpt lat="44.22627" lon="2.98692">
        <ele>852</ele>
        <time>2019-10-11T13:29:44.000Z</time>
      </trkpt>
      <trkpt lat="44.22626" lon="2.98694">
        <ele>852</ele>
        <time>2019-10-11T13:29:45.000Z</time>
      </trkpt>
      <trkpt lat="44.22625" lon="2.98695">
        <ele>852</ele>
        <time>2019-10-11T13:29:46.000Z</time>
      </trkpt>
      <trkpt lat="44.22625" lon="2.98697">
        <ele>852</ele>
        <time>2019-10-11T13:29:47.000Z</time>
      </trkpt>
      <trkpt lat="44.22625" lon="2.98699">
        <ele>852</ele>
        <time>2019-10-11T13:29:48.000Z</time>
      </trkpt>
      <trkpt lat="44.22624" lon="2.987">
        <ele>852</ele>
        <time>2019-10-11T13:29:49.000Z</time>
      </trkpt>
      <trkpt lat="44.22624" lon="2.98702">
        <ele>852</ele>
        <time>2019-10-11T13:29:50.000Z</time>
      </trkpt>
      <trkpt lat="44.22623" lon="2.98703">
        <ele>852</ele>
        <time>2019-10-11T13:29:51.000Z</time>
      </trkpt>
      <trkpt lat="44.22622" lon="2.98705">
        <ele>852</ele>
        <time>2019-10-11T13:29:52.000Z</time>
      </trkpt>
      <trkpt lat="44.22622" lon="2.98706">
        <ele>852</ele>
        <time>2019-10-11T13:29:53.000Z</time>
      </trkpt>
      <trkpt lat="44.22621" lon="2.98708">
        <ele>852</ele>
        <time>2019-10-11T13:29:54.000Z</time>
      </trkpt>
      <trkpt lat="44.2262" lon="2.9871">
        <ele>852</ele>
        <time>2019-10-11T13:29:55.000Z</time>
      </trkpt>
      <trkpt lat="44.2262" lon="2.98711">
        <ele>852</ele>
        <time>2019-10-11T13:29:56.000Z</time>
      </trkpt>
      <trkpt lat="44.22619" lon="2.98713">
        <ele>852</ele>
        <time>2019-10-11T13:29:57.000Z</time>
      </trkpt>
      <trkpt lat="44.22619" lon="2.98714">
        <ele>852</ele>
        <time>2019-10-11T13:29:58.000Z</time>
      </trkpt>
      <trkpt lat="44.22618" lon="2.98716">
        <ele>852</ele>
        <time>2019-10-11T13:29:59.000Z</time>
      </trkpt>
      <trkpt lat="44.22618" lon="2.98717">
        <ele>852</ele>
        <time>2019-10-11T13:30:00.000Z</time>
      </trkpt>
      <trkpt lat="44.22617" lon="2.98719">
        <ele>852</ele>
        <time>2019-10-11T13:30:01.000Z</time>
      </trkpt>
      <trkpt lat="44.22617" lon="2.98721">
        <ele>852</ele>
        <time>2019-10-11T13:30:02.000Z</time>
      </trkpt>
      <trkpt lat="44.22616" lon="2.98723">
        <ele>852</ele>
        <time>2019-10-11T13:30:03.000Z</time>
      </trkpt>
      <trkpt lat="44.22615" lon="2.98724">
        <ele>852</ele>
        <time>2019-10-11T13:30:04.000Z</time>
      </trkpt>
      <trkpt lat="44.22615" lon="2.98726">
        <ele>853</ele>
        <time>2019-10-11T13:30:05.000Z</time>
      </trkpt>
      <trkpt lat="44.22614" lon="2.98728">
        <ele>853</ele>
        <time>2019-10-11T13:30:06.000Z</time>
      </trkpt>
      <trkpt lat="44.22614" lon="2.98729">
        <ele>853</ele>
        <time>2019-10-11T13:30:07.000Z</time>
      </trkpt>
      <trkpt lat="44.22613" lon="2.98731">
        <ele>853</ele>
        <time>2019-10-11T13:30:08.000Z</time>
      </trkpt>
      <trkpt lat="44.22613" lon="2.98732">
        <ele>853</ele>
        <time>2019-10-11T13:30:09.000Z</time>
      </trkpt>
      <trkpt lat="44.22613" lon="2.98734">
        <ele>853</ele>
        <time>2019-10-11T13:30:10.000Z</time>
      </trkpt>
      <trkpt lat="44.22613" lon="2.98735">
        <ele>853</ele>
        <time>2019-10-11T13:30:11.000Z</time>
      </trkpt>
      <trkpt lat="44.22613" lon="2.98736">
        <ele>853</ele>
        <time>2019-10-11T13:30:12.000Z</time>
      </trkpt>
      <trkpt lat="44.22613" lon="2.98737">
        <ele>853</ele>
        <time>2019-10-11T13:30:13.000Z</time>
      </trkpt>
      <trkpt lat="44.22614" lon="2.98739">
        <ele>853</ele>
        <time>2019-10-11T13:30:14.000Z</time>
      </trkpt>
      <trkpt lat="44.22614" lon="2.9874">
        <ele>853</ele>
        <time>2019-10-11T13:30:15.000Z</time>
      </trkpt>
      <trkpt lat="44.22615" lon="2.98742">
        <ele>853</ele>
        <time>2019-10-11T13:30:16.000Z</time>
      </trkpt>
      <trkpt lat="44.22615" lon="2.98743">
        <ele>853</ele>
        <time>2019-10-11T13:30:17.000Z</time>
      </trkpt>
      <trkpt lat="44.22616" lon="2.98745">
        <ele>854</ele>
        <time>2019-10-11T13:30:18.000Z</time>
      </trkpt>
      <trkpt lat="44.22616" lon="2.98745">
        <ele>854</ele>
        <time>2019-10-11T13:30:19.000Z</time>
      </trkpt>
      <trkpt lat="44.22616" lon="2.98747">
        <ele>854</ele>
        <time>2019-10-11T13:30:20.000Z</time>
      </trkpt>
      <trkpt lat="44.22617" lon="2.98748">
        <ele>854</ele>
        <time>2019-10-11T13:30:21.000Z</time>
      </trkpt>
      <trkpt lat="44.22617" lon="2.98748">
        <ele>854</ele>
        <time>2019-10-11T13:30:22.000Z</time>
      </trkpt>
      <trkpt lat="44.22617" lon="2.98749">
        <ele>854</ele>
        <time>2019-10-11T13:30:23.000Z</time>
      </trkpt>
      <trkpt lat="44.22617" lon="2.98751">
        <ele>854</ele>
        <time>2019-10-11T13:30:24.000Z</time>
      </trkpt>
      <trkpt lat="44.22617" lon="2.98753">
        <ele>854</ele>
        <time>2019-10-11T13:30:25.000Z</time>
      </trkpt>
      <trkpt lat="44.22617" lon="2.98754">
        <ele>854</ele>
        <time>2019-10-11T13:30:26.000Z</time>
      </trkpt>
      <trkpt lat="44.22616" lon="2.98755">
        <ele>854</ele>
        <time>2019-10-11T13:30:27.000Z</time>
      </trkpt>
      <trkpt lat="44.22615" lon="2.98755">
        <ele>854</ele>
        <time>2019-10-11T13:30:28.000Z</time>
      </trkpt>
      <trkpt lat="44.22614" lon="2.98754">
        <ele>855</ele>
        <time>2019-10-11T13:30:29.000Z</time>
      </trkpt>
      <trkpt lat="44.22614" lon="2.98754">
        <ele>855</ele>
        <time>2019-10-11T13:30:30.000Z</time>
      </trkpt>
      <trkpt lat="44.22614" lon="2.98753">
        <ele>855</ele>
        <time>2019-10-11T13:30:31.000Z</time>
      </trkpt>
      <trkpt lat="44.22614" lon="2.98753">
        <ele>855</ele>
        <time>2019-10-11T13:30:32.000Z</time>
      </trkpt>
      <trkpt lat="44.22614" lon="2.98753">
        <ele>855</ele>
        <time>2019-10-11T13:30:33.000Z</time>
      </trkpt>
      <trkpt lat="44.22614" lon="2.98753">
        <ele>855</ele>
        <time>2019-10-11T13:30:34.000Z</time>
      </trkpt>
      <trkpt lat="44.22614" lon="2.98753">
        <ele>855</ele>
        <time>2019-10-11T13:30:35.000Z</time>
      </trkpt>
      <trkpt lat="44.22614" lon="2.98753">
        <ele>855</ele>
        <time>2019-10-11T13:30:36.000Z</time>
      </trkpt>
      <trkpt lat="44.22614" lon="2.98753">
        <ele>855</ele>
        <time>2019-10-11T13:30:37.000Z</time>
      </trkpt>
      <trkpt lat="44.22614" lon="2.98754">
        <ele>855</ele>
        <time>2019-10-11T13:30:38.000Z</time>
      </trkpt>
      <trkpt lat="44.22614" lon="2.98754">
        <ele>855</ele>
        <time>2019-10-11T13:30:39.000Z</time>
      </trkpt>
      <trkpt lat="44.22614" lon="2.98754">
        <ele>855</ele>
        <time>2019-10-11T13:30:40.000Z</time>
      </trkpt>
      <trkpt lat="44.22614" lon="2.98754">
        <ele>855</ele>
        <time>2019-10-11T13:30:41.000Z</time>
      </trkpt>
      <trkpt lat="44.22613" lon="2.98754">
        <ele>855</ele>
        <time>2019-10-11T13:30:42.000Z</time>
      </trkpt>
      <trkpt lat="44.22613" lon="2.98754">
        <ele>856</ele>
        <time>2019-10-11T13:30:43.000Z</time>
      </trkpt>
      <trkpt lat="44.22613" lon="2.98753">
        <ele>856</ele>
        <time>2019-10-11T13:30:44.000Z</time>
      </trkpt>
      <trkpt lat="44.22613" lon="2.98753">
        <ele>856</ele>
        <time>2019-10-11T13:30:45.000Z</time>
      </trkpt>
      <trkpt lat="44.22613" lon="2.98753">
        <ele>856</ele>
        <time>2019-10-11T13:30:46.000Z</time>
      </trkpt>
      <trkpt lat="44.22613" lon="2.98753">
        <ele>856</ele>
        <time>2019-10-11T13:30:47.000Z</time>
      </trkpt>
      <trkpt lat="44.22613" lon="2.98753">
        <ele>856</ele>
        <time>2019-10-11T13:30:48.000Z</time>
      </trkpt>
      <trkpt lat="44.22614" lon="2.98753">
        <ele>856</ele>
        <time>2019-10-11T13:30:49.000Z</time>
      </trkpt>
      <trkpt lat="44.22614" lon="2.98753">
        <ele>856</ele>
        <time>2019-10-11T13:30:50.000Z</time>
      </trkpt>
      <trkpt lat="44.22614" lon="2.98753">
        <ele>856</ele>
        <time>2019-10-11T13:30:51.000Z</time>
      </trkpt>
      <trkpt lat="44.22614" lon="2.98753">
        <ele>856</ele>
        <time>2019-10-11T13:30:52.000Z</time>
      </trkpt>
      <trkpt lat="44.22614" lon="2.98753">
        <ele>856</ele>
        <time>2019-10-11T13:30:53.000Z</time>
      </trkpt>
      <trkpt lat="44.22614" lon="2.98753">
        <ele>856</ele>
        <time>2019-10-11T13:30:54.000Z</time>
      </trkpt>
      <trkpt lat="44.22614" lon="2.98753">
        <ele>856</ele>
        <time>2019-10-11T13:30:55.000Z</time>
      </trkpt>
      <trkpt lat="44.22614" lon="2.98753">
        <ele>856</ele>
        <time>2019-10-11T13:30:56.000Z</time>
      </trkpt>
      <trkpt lat="44.22614" lon="2.98753">
        <ele>856</ele>
        <time>2019-10-11T13:30:57.000Z</time>
      </trkpt>
      <trkpt lat="44.22614" lon="2.98753">
        <ele>856</ele>
        <time>2019-10-11T13:30:58.000Z</time>
      </trkpt>
      <trkpt lat="44.22614" lon="2.98753">
        <ele>856</ele>
        <time>2019-10-11T13:30:59.000Z</time>
      </trkpt>
      <trkpt lat="44.22613" lon="2.98753">
        <ele>856</ele>
        <time>2019-10-11T13:31:00.000Z</time>
      </trkpt>
      <trkpt lat="44.22613" lon="2.98753">
        <ele>856</ele>
        <time>2019-10-11T13:31:01.000Z</time>
      </trkpt>
      <trkpt lat="44.22613" lon="2.98753">
        <ele>856</ele>
        <time>2019-10-11T13:31:02.000Z</time>
      </trkpt>
      <trkpt lat="44.22613" lon="2.98753">
        <ele>856</ele>
        <time>2019-10-11T13:31:03.000Z</time>
      </trkpt>
      <trkpt lat="44.22613" lon="2.98753">
        <ele>856</ele>
        <time>2019-10-11T13:31:04.000Z</time>
      </trkpt>
      <trkpt lat="44.22612" lon="2.98752">
        <ele>856</ele>
        <time>2019-10-11T13:31:05.000Z</time>
      </trkpt>
      <trkpt lat="44.22612" lon="2.98751">
        <ele>856</ele>
        <time>2019-10-11T13:31:06.000Z</time>
      </trkpt>
      <trkpt lat="44.22612" lon="2.98751">
        <ele>856</ele>
        <time>2019-10-11T13:31:07.000Z</time>
      </trkpt>
      <trkpt lat="44.22612" lon="2.98751">
        <ele>856</ele>
        <time>2019-10-11T13:31:08.000Z</time>
      </trkpt>
      <trkpt lat="44.22612" lon="2.98751">
        <ele>856</ele>
        <time>2019-10-11T13:31:09.000Z</time>
      </trkpt>
      <trkpt lat="44.22612" lon="2.98751">
        <ele>856</ele>
        <time>2019-10-11T13:31:10.000Z</time>
      </trkpt>
      <trkpt lat="44.22612" lon="2.98751">
        <ele>856</ele>
        <time>2019-10-11T13:31:11.000Z</time>
      </trkpt>
      <trkpt lat="44.22613" lon="2.98751">
        <ele>856</ele>
        <time>2019-10-11T13:31:12.000Z</time>
      </trkpt>
      <trkpt lat="44.22613" lon="2.98751">
        <ele>856</ele>
        <time>2019-10-11T13:31:13.000Z</time>
      </trkpt>
      <trkpt lat="44.22613" lon="2.98751">
        <ele>856</ele>
        <time>2019-10-11T13:31:14.000Z</time>
      </trkpt>
      <trkpt lat="44.22613" lon="2.98751">
        <ele>856</ele>
        <time>2019-10-11T13:31:15.000Z</time>
      </trkpt>
      <trkpt lat="44.22613" lon="2.9875">
        <ele>856</ele>
        <time>2019-10-11T13:31:16.000Z</time>
      </trkpt>
      <trkpt lat="44.22613" lon="2.98748">
        <ele>856</ele>
        <time>2019-10-11T13:31:17.000Z</time>
      </trkpt>
      <trkpt lat="44.22613" lon="2.98747">
        <ele>856</ele>
        <time>2019-10-11T13:31:18.000Z</time>
      </trkpt>
      <trkpt lat="44.22613" lon="2.98746">
        <ele>856</ele>
        <time>2019-10-11T13:31:19.000Z</time>
      </trkpt>
      <trkpt lat="44.22614" lon="2.98747">
        <ele>856</ele>
        <time>2019-10-11T13:31:20.000Z</time>
      </trkpt>
      <trkpt lat="44.22614" lon="2.98748">
        <ele>855</ele>
        <time>2019-10-11T13:31:21.000Z</time>
      </trkpt>
      <trkpt lat="44.22615" lon="2.98749">
        <ele>855</ele>
        <time>2019-10-11T13:31:22.000Z</time>
      </trkpt>
      <trkpt lat="44.22615" lon="2.9875">
        <ele>855</ele>
        <time>2019-10-11T13:31:23.000Z</time>
      </trkpt>
      <trkpt lat="44.22614" lon="2.9875">
        <ele>856</ele>
        <time>2019-10-11T13:31:24.000Z</time>
      </trkpt>
      <trkpt lat="44.22614" lon="2.9875">
        <ele>856</ele>
        <time>2019-10-11T13:31:25.000Z</time>
      </trkpt>
      <trkpt lat="44.22614" lon="2.98751">
        <ele>855</ele>
        <time>2019-10-11T13:31:26.000Z</time>
      </trkpt>
      <trkpt lat="44.22614" lon="2.9875">
        <ele>855</ele>
        <time>2019-10-11T13:31:27.000Z</time>
      </trkpt>
      <trkpt lat="44.22614" lon="2.98751">
        <ele>855</ele>
        <time>2019-10-11T13:31:28.000Z</time>
      </trkpt>
      <trkpt lat="44.22614" lon="2.98751">
        <ele>855</ele>
        <time>2019-10-11T13:31:29.000Z</time>
      </trkpt>
      <trkpt lat="44.22614" lon="2.98752">
        <ele>855</ele>
        <time>2019-10-11T13:31:30.000Z</time>
      </trkpt>
      <trkpt lat="44.22615" lon="2.98753">
        <ele>855</ele>
        <time>2019-10-11T13:31:31.000Z</time>
      </trkpt>
      <trkpt lat="44.22615" lon="2.98754">
        <ele>855</ele>
        <time>2019-10-11T13:31:32.000Z</time>
      </trkpt>
      <trkpt lat="44.22616" lon="2.98757">
        <ele>855</ele>
        <time>2019-10-11T13:31:33.000Z</time>
      </trkpt>
      <trkpt lat="44.22617" lon="2.98759">
        <ele>855</ele>
        <time>2019-10-11T13:31:34.000Z</time>
      </trkpt>
      <trkpt lat="44.22617" lon="2.98761">
        <ele>856</ele>
        <time>2019-10-11T13:31:35.000Z</time>
      </trkpt>
      <trkpt lat="44.22617" lon="2.98763">
        <ele>856</ele>
        <time>2019-10-11T13:31:36.000Z</time>
      </trkpt>
      <trkpt lat="44.22617" lon="2.98765">
        <ele>856</ele>
        <time>2019-10-11T13:31:37.000Z</time>
      </trkpt>
      <trkpt lat="44.22617" lon="2.98767">
        <ele>856</ele>
        <time>2019-10-11T13:31:38.000Z</time>
      </trkpt>
      <trkpt lat="44.22617" lon="2.9877">
        <ele>856</ele>
        <time>2019-10-11T13:31:39.000Z</time>
      </trkpt>
      <trkpt lat="44.22617" lon="2.98772">
        <ele>856</ele>
        <time>2019-10-11T13:31:40.000Z</time>
      </trkpt>
      <trkpt lat="44.22616" lon="2.98774">
        <ele>856</ele>
        <time>2019-10-11T13:31:41.000Z</time>
      </trkpt>
      <trkpt lat="44.22616" lon="2.98776">
        <ele>856</ele>
        <time>2019-10-11T13:31:42.000Z</time>
      </trkpt>
      <trkpt lat="44.22616" lon="2.98778">
        <ele>856</ele>
        <time>2019-10-11T13:31:43.000Z</time>
      </trkpt>
      <trkpt lat="44.22615" lon="2.9878">
        <ele>856</ele>
        <time>2019-10-11T13:31:44.000Z</time>
      </trkpt>
      <trkpt lat="44.22615" lon="2.98782">
        <ele>856</ele>
        <time>2019-10-11T13:31:45.000Z</time>
      </trkpt>
      <trkpt lat="44.22614" lon="2.98784">
        <ele>856</ele>
        <time>2019-10-11T13:31:46.000Z</time>
      </trkpt>
      <trkpt lat="44.22613" lon="2.98786">
        <ele>856</ele>
        <time>2019-10-11T13:31:47.000Z</time>
      </trkpt>
      <trkpt lat="44.22613" lon="2.98788">
        <ele>856</ele>
        <time>2019-10-11T13:31:48.000Z</time>
      </trkpt>
      <trkpt lat="44.22612" lon="2.9879">
        <ele>856</ele>
        <time>2019-10-11T13:31:49.000Z</time>
      </trkpt>
      <trkpt lat="44.22612" lon="2.98792">
        <ele>856</ele>
        <time>2019-10-11T13:31:50.000Z</time>
      </trkpt>
      <trkpt lat="44.22611" lon="2.98794">
        <ele>856</ele>
        <time>2019-10-11T13:31:51.000Z</time>
      </trkpt>
      <trkpt lat="44.22611" lon="2.98796">
        <ele>856</ele>
        <time>2019-10-11T13:31:52.000Z</time>
      </trkpt>
      <trkpt lat="44.2261" lon="2.98797">
        <ele>857</ele>
        <time>2019-10-11T13:31:53.000Z</time>
      </trkpt>
      <trkpt lat="44.22609" lon="2.98799">
        <ele>856</ele>
        <time>2019-10-11T13:31:54.000Z</time>
      </trkpt>
      <trkpt lat="44.22609" lon="2.98801">
        <ele>856</ele>
        <time>2019-10-11T13:31:55.000Z</time>
      </trkpt>
      <trkpt lat="44.22609" lon="2.98803">
        <ele>856</ele>
        <time>2019-10-11T13:31:56.000Z</time>
      </trkpt>
      <trkpt lat="44.22608" lon="2.98805">
        <ele>857</ele>
        <time>2019-10-11T13:31:57.000Z</time>
      </trkpt>
      <trkpt lat="44.22608" lon="2.98807">
        <ele>857</ele>
        <time>2019-10-11T13:31:58.000Z</time>
      </trkpt>
      <trkpt lat="44.22608" lon="2.9881">
        <ele>857</ele>
        <time>2019-10-11T13:31:59.000Z</time>
      </trkpt>
      <trkpt lat="44.22609" lon="2.98811">
        <ele>857</ele>
        <time>2019-10-11T13:32:00.000Z</time>
      </trkpt>
      <trkpt lat="44.2261" lon="2.98813">
        <ele>857</ele>
        <time>2019-10-11T13:32:01.000Z</time>
      </trkpt>
      <trkpt lat="44.2261" lon="2.98815">
        <ele>857</ele>
        <time>2019-10-11T13:32:02.000Z</time>
      </trkpt>
      <trkpt lat="44.22611" lon="2.98816">
        <ele>857</ele>
        <time>2019-10-11T13:32:03.000Z</time>
      </trkpt>
      <trkpt lat="44.22612" lon="2.98818">
        <ele>857</ele>
        <time>2019-10-11T13:32:04.000Z</time>
      </trkpt>
      <trkpt lat="44.22613" lon="2.98819">
        <ele>857</ele>
        <time>2019-10-11T13:32:05.000Z</time>
      </trkpt>
      <trkpt lat="44.22613" lon="2.98819">
        <ele>857</ele>
        <time>2019-10-11T13:32:07.000Z</time>
      </trkpt>
      <trkpt lat="44.22613" lon="2.98819">
        <ele>857</ele>
        <time>2019-10-11T13:32:08.000Z</time>
      </trkpt>
      <trkpt lat="44.22617" lon="2.98825">
        <ele>857</ele>
        <time>2019-10-11T13:32:09.000Z</time>
      </trkpt>
      <trkpt lat="44.22618" lon="2.98827">
        <ele>857</ele>
        <time>2019-10-11T13:32:10.000Z</time>
      </trkpt>
      <trkpt lat="44.22619" lon="2.98829">
        <ele>857</ele>
        <time>2019-10-11T13:32:11.000Z</time>
      </trkpt>
      <trkpt lat="44.2262" lon="2.98831">
        <ele>857</ele>
        <time>2019-10-11T13:32:12.000Z</time>
      </trkpt>
      <trkpt lat="44.2262" lon="2.98833">
        <ele>857</ele>
        <time>2019-10-11T13:32:13.000Z</time>
      </trkpt>
      <trkpt lat="44.2262" lon="2.98834">
        <ele>857</ele>
        <time>2019-10-11T13:32:14.000Z</time>
      </trkpt>
      <trkpt lat="44.2262" lon="2.98836">
        <ele>857</ele>
        <time>2019-10-11T13:32:15.000Z</time>
      </trkpt>
      <trkpt lat="44.2262" lon="2.98838">
        <ele>857</ele>
        <time>2019-10-11T13:32:16.000Z</time>
      </trkpt>
      <trkpt lat="44.22619" lon="2.98839">
        <ele>858</ele>
        <time>2019-10-11T13:32:17.000Z</time>
      </trkpt>
      <trkpt lat="44.22619" lon="2.98841">
        <ele>858</ele>
        <time>2019-10-11T13:32:18.000Z</time>
      </trkpt>
      <trkpt lat="44.22618" lon="2.98842">
        <ele>858</ele>
        <time>2019-10-11T13:32:19.000Z</time>
      </trkpt>
      <trkpt lat="44.22618" lon="2.98844">
        <ele>858</ele>
        <time>2019-10-11T13:32:20.000Z</time>
      </trkpt>
      <trkpt lat="44.22618" lon="2.98845">
        <ele>859</ele>
        <time>2019-10-11T13:32:21.000Z</time>
      </trkpt>
      <trkpt lat="44.22617" lon="2.98847">
        <ele>859</ele>
        <time>2019-10-11T13:32:22.000Z</time>
      </trkpt>
      <trkpt lat="44.22616" lon="2.98848">
        <ele>859</ele>
        <time>2019-10-11T13:32:23.000Z</time>
      </trkpt>
      <trkpt lat="44.22616" lon="2.9885">
        <ele>859</ele>
        <time>2019-10-11T13:32:24.000Z</time>
      </trkpt>
      <trkpt lat="44.22616" lon="2.98852">
        <ele>859</ele>
        <time>2019-10-11T13:32:25.000Z</time>
      </trkpt>
      <trkpt lat="44.22615" lon="2.98853">
        <ele>860</ele>
        <time>2019-10-11T13:32:26.000Z</time>
      </trkpt>
      <trkpt lat="44.22615" lon="2.98855">
        <ele>860</ele>
        <time>2019-10-11T13:32:27.000Z</time>
      </trkpt>
      <trkpt lat="44.22614" lon="2.98857">
        <ele>860</ele>
        <time>2019-10-11T13:32:28.000Z</time>
      </trkpt>
      <trkpt lat="44.22614" lon="2.98859">
        <ele>860</ele>
        <time>2019-10-11T13:32:29.000Z</time>
      </trkpt>
      <trkpt lat="44.22613" lon="2.98861">
        <ele>861</ele>
        <time>2019-10-11T13:32:30.000Z</time>
      </trkpt>
      <trkpt lat="44.22613" lon="2.98862">
        <ele>861</ele>
        <time>2019-10-11T13:32:31.000Z</time>
      </trkpt>
      <trkpt lat="44.22612" lon="2.98864">
        <ele>861</ele>
        <time>2019-10-11T13:32:32.000Z</time>
      </trkpt>
      <trkpt lat="44.22612" lon="2.98866">
        <ele>861</ele>
        <time>2019-10-11T13:32:33.000Z</time>
      </trkpt>
      <trkpt lat="44.22611" lon="2.98867">
        <ele>861</ele>
        <time>2019-10-11T13:32:34.000Z</time>
      </trkpt>
      <trkpt lat="44.2261" lon="2.98869">
        <ele>861</ele>
        <time>2019-10-11T13:32:35.000Z</time>
      </trkpt>
      <trkpt lat="44.2261" lon="2.98871">
        <ele>862</ele>
        <time>2019-10-11T13:32:36.000Z</time>
      </trkpt>
      <trkpt lat="44.22609" lon="2.98872">
        <ele>862</ele>
        <time>2019-10-11T13:32:37.000Z</time>
      </trkpt>
      <trkpt lat="44.22609" lon="2.98874">
        <ele>862</ele>
        <time>2019-10-11T13:32:38.000Z</time>
      </trkpt>
      <trkpt lat="44.22608" lon="2.98876">
        <ele>862</ele>
        <time>2019-10-11T13:32:39.000Z</time>
      </trkpt>
      <trkpt lat="44.22607" lon="2.98878">
        <ele>862</ele>
        <time>2019-10-11T13:32:40.000Z</time>
      </trkpt>
      <trkpt lat="44.22606" lon="2.98882">
        <ele>862</ele>
        <time>2019-10-11T13:32:41.000Z</time>
      </trkpt>
      <trkpt lat="44.22605" lon="2.98886">
        <ele>862</ele>
        <time>2019-10-11T13:32:42.000Z</time>
      </trkpt>
      <trkpt lat="44.22605" lon="2.98891">
        <ele>862</ele>
        <time>2019-10-11T13:32:43.000Z</time>
      </trkpt>
      <trkpt lat="44.22604" lon="2.98895">
        <ele>862</ele>
        <time>2019-10-11T13:32:44.000Z</time>
      </trkpt>
      <trkpt lat="44.22604" lon="2.98901">
        <ele>862</ele>
        <time>2019-10-11T13:32:45.000Z</time>
      </trkpt>
      <trkpt lat="44.22604" lon="2.98906">
        <ele>862</ele>
        <time>2019-10-11T13:32:46.000Z</time>
      </trkpt>
      <trkpt lat="44.22604" lon="2.98911">
        <ele>862</ele>
        <time>2019-10-11T13:32:47.000Z</time>
      </trkpt>
      <trkpt lat="44.22605" lon="2.98917">
        <ele>862</ele>
        <time>2019-10-11T13:32:48.000Z</time>
      </trkpt>
      <trkpt lat="44.22606" lon="2.98922">
        <ele>862</ele>
        <time>2019-10-11T13:32:49.000Z</time>
      </trkpt>
      <trkpt lat="44.22607" lon="2.98927">
        <ele>862</ele>
        <time>2019-10-11T13:32:50.000Z</time>
      </trkpt>
      <trkpt lat="44.22608" lon="2.98932">
        <ele>862</ele>
        <time>2019-10-11T13:32:51.000Z</time>
      </trkpt>
      <trkpt lat="44.2261" lon="2.98937">
        <ele>862</ele>
        <time>2019-10-11T13:32:52.000Z</time>
      </trkpt>
      <trkpt lat="44.22612" lon="2.98941">
        <ele>862</ele>
        <time>2019-10-11T13:32:53.000Z</time>
      </trkpt>
      <trkpt lat="44.22614" lon="2.98944">
        <ele>862</ele>
        <time>2019-10-11T13:32:54.000Z</time>
      </trkpt>
      <trkpt lat="44.22617" lon="2.98947">
        <ele>862</ele>
        <time>2019-10-11T13:32:55.000Z</time>
      </trkpt>
      <trkpt lat="44.2262" lon="2.98948">
        <ele>862</ele>
        <time>2019-10-11T13:32:56.000Z</time>
      </trkpt>
      <trkpt lat="44.22624" lon="2.98949">
        <ele>862</ele>
        <time>2019-10-11T13:32:57.000Z</time>
      </trkpt>
      <trkpt lat="44.22628" lon="2.98949">
        <ele>862</ele>
        <time>2019-10-11T13:32:58.000Z</time>
      </trkpt>
      <trkpt lat="44.22632" lon="2.98949">
        <ele>863</ele>
        <time>2019-10-11T13:32:59.000Z</time>
      </trkpt>
      <trkpt lat="44.22636" lon="2.98949">
        <ele>863</ele>
        <time>2019-10-11T13:33:00.000Z</time>
      </trkpt>
      <trkpt lat="44.2264" lon="2.98949">
        <ele>863</ele>
        <time>2019-10-11T13:33:01.000Z</time>
      </trkpt>
      <trkpt lat="44.22643" lon="2.98949">
        <ele>863</ele>
        <time>2019-10-11T13:33:02.000Z</time>
      </trkpt>
      <trkpt lat="44.22647" lon="2.98949">
        <ele>864</ele>
        <time>2019-10-11T13:33:03.000Z</time>
      </trkpt>
      <trkpt lat="44.22652" lon="2.98949">
        <ele>864</ele>
        <time>2019-10-11T13:33:04.000Z</time>
      </trkpt>
      <trkpt lat="44.22656" lon="2.98949">
        <ele>864</ele>
        <time>2019-10-11T13:33:05.000Z</time>
      </trkpt>
      <trkpt lat="44.2266" lon="2.9895">
        <ele>864</ele>
        <time>2019-10-11T13:33:06.000Z</time>
      </trkpt>
      <trkpt lat="44.22663" lon="2.98951">
        <ele>865</ele>
        <time>2019-10-11T13:33:07.000Z</time>
      </trkpt>
      <trkpt lat="44.22668" lon="2.98952">
        <ele>865</ele>
        <time>2019-10-11T13:33:08.000Z</time>
      </trkpt>
      <trkpt lat="44.22672" lon="2.98952">
        <ele>865</ele>
        <time>2019-10-11T13:33:09.000Z</time>
      </trkpt>
      <trkpt lat="44.22677" lon="2.98953">
        <ele>865</ele>
        <time>2019-10-11T13:33:10.000Z</time>
      </trkpt>
      <trkpt lat="44.22681" lon="2.98954">
        <ele>865</ele>
        <time>2019-10-11T13:33:11.000Z</time>
      </trkpt>
      <trkpt lat="44.22686" lon="2.98955">
        <ele>865</ele>
        <time>2019-10-11T13:33:12.000Z</time>
      </trkpt>
      <trkpt lat="44.2269" lon="2.98956">
        <ele>865</ele>
        <time>2019-10-11T13:33:13.000Z</time>
      </trkpt>
      <trkpt lat="44.22695" lon="2.98957">
        <ele>865</ele>
        <time>2019-10-11T13:33:14.000Z</time>
      </trkpt>
      <trkpt lat="44.227" lon="2.98958">
        <ele>866</ele>
        <time>2019-10-11T13:33:15.000Z</time>
      </trkpt>
      <trkpt lat="44.22704" lon="2.9896">
        <ele>866</ele>
        <time>2019-10-11T13:33:16.000Z</time>
      </trkpt>
      <trkpt lat="44.22709" lon="2.98961">
        <ele>866</ele>
        <time>2019-10-11T13:33:17.000Z</time>
      </trkpt>
      <trkpt lat="44.22714" lon="2.98963">
        <ele>866</ele>
        <time>2019-10-11T13:33:18.000Z</time>
      </trkpt>
      <trkpt lat="44.22718" lon="2.98964">
        <ele>866</ele>
        <time>2019-10-11T13:33:19.000Z</time>
      </trkpt>
      <trkpt lat="44.22723" lon="2.98966">
        <ele>867</ele>
        <time>2019-10-11T13:33:20.000Z</time>
      </trkpt>
      <trkpt lat="44.22728" lon="2.98968">
        <ele>867</ele>
        <time>2019-10-11T13:33:21.000Z</time>
      </trkpt>
      <trkpt lat="44.22732" lon="2.9897">
        <ele>867</ele>
        <time>2019-10-11T13:33:22.000Z</time>
      </trkpt>
      <trkpt lat="44.22736" lon="2.98972">
        <ele>868</ele>
        <time>2019-10-11T13:33:23.000Z</time>
      </trkpt>
      <trkpt lat="44.22741" lon="2.98974">
        <ele>868</ele>
        <time>2019-10-11T13:33:24.000Z</time>
      </trkpt>
      <trkpt lat="44.22745" lon="2.98977">
        <ele>868</ele>
        <time>2019-10-11T13:33:25.000Z</time>
      </trkpt>
      <trkpt lat="44.2275" lon="2.9898">
        <ele>868</ele>
        <time>2019-10-11T13:33:26.000Z</time>
      </trkpt>
      <trkpt lat="44.22754" lon="2.98983">
        <ele>868</ele>
        <time>2019-10-11T13:33:27.000Z</time>
      </trkpt>
      <trkpt lat="44.22758" lon="2.98987">
        <ele>868</ele>
        <time>2019-10-11T13:33:28.000Z</time>
      </trkpt>
      <trkpt lat="44.22762" lon="2.9899">
        <ele>868</ele>
        <time>2019-10-11T13:33:29.000Z</time>
      </trkpt>
      <trkpt lat="44.22766" lon="2.98993">
        <ele>868</ele>
        <time>2019-10-11T13:33:30.000Z</time>
      </trkpt>
      <trkpt lat="44.2277" lon="2.98996">
        <ele>869</ele>
        <time>2019-10-11T13:33:31.000Z</time>
      </trkpt>
      <trkpt lat="44.22773" lon="2.98999">
        <ele>869</ele>
        <time>2019-10-11T13:33:32.000Z</time>
      </trkpt>
      <trkpt lat="44.22777" lon="2.99001">
        <ele>869</ele>
        <time>2019-10-11T13:33:33.000Z</time>
      </trkpt>
      <trkpt lat="44.2278" lon="2.99003">
        <ele>869</ele>
        <time>2019-10-11T13:33:34.000Z</time>
      </trkpt>
      <trkpt lat="44.22784" lon="2.99005">
        <ele>869</ele>
        <time>2019-10-11T13:33:35.000Z</time>
      </trkpt>
      <trkpt lat="44.22787" lon="2.99008">
        <ele>869</ele>
        <time>2019-10-11T13:33:36.000Z</time>
      </trkpt>
      <trkpt lat="44.22791" lon="2.9901">
        <ele>869</ele>
        <time>2019-10-11T13:33:37.000Z</time>
      </trkpt>
      <trkpt lat="44.22794" lon="2.99013">
        <ele>869</ele>
        <time>2019-10-11T13:33:38.000Z</time>
      </trkpt>
      <trkpt lat="44.22798" lon="2.99017">
        <ele>869</ele>
        <time>2019-10-11T13:33:39.000Z</time>
      </trkpt>
      <trkpt lat="44.22801" lon="2.9902">
        <ele>869</ele>
        <time>2019-10-11T13:33:40.000Z</time>
      </trkpt>
      <trkpt lat="44.22805" lon="2.99023">
        <ele>869</ele>
        <time>2019-10-11T13:33:41.000Z</time>
      </trkpt>
      <trkpt lat="44.22808" lon="2.99027">
        <ele>869</ele>
        <time>2019-10-11T13:33:42.000Z</time>
      </trkpt>
      <trkpt lat="44.22812" lon="2.9903">
        <ele>869</ele>
        <time>2019-10-11T13:33:43.000Z</time>
      </trkpt>
      <trkpt lat="44.22816" lon="2.99033">
        <ele>869</ele>
        <time>2019-10-11T13:33:44.000Z</time>
      </trkpt>
      <trkpt lat="44.2282" lon="2.99035">
        <ele>869</ele>
        <time>2019-10-11T13:33:45.000Z</time>
      </trkpt>
      <trkpt lat="44.22824" lon="2.99038">
        <ele>869</ele>
        <time>2019-10-11T13:33:46.000Z</time>
      </trkpt>
      <trkpt lat="44.22827" lon="2.99041">
        <ele>869</ele>
        <time>2019-10-11T13:33:47.000Z</time>
      </trkpt>
      <trkpt lat="44.22831" lon="2.99043">
        <ele>869</ele>
        <time>2019-10-11T13:33:48.000Z</time>
      </trkpt>
      <trkpt lat="44.22835" lon="2.99046">
        <ele>870</ele>
        <time>2019-10-11T13:33:49.000Z</time>
      </trkpt>
      <trkpt lat="44.22839" lon="2.99049">
        <ele>870</ele>
        <time>2019-10-11T13:33:50.000Z</time>
      </trkpt>
      <trkpt lat="44.22843" lon="2.99052">
        <ele>870</ele>
        <time>2019-10-11T13:33:51.000Z</time>
      </trkpt>
      <trkpt lat="44.22846" lon="2.99055">
        <ele>870</ele>
        <time>2019-10-11T13:33:52.000Z</time>
      </trkpt>
      <trkpt lat="44.2285" lon="2.99058">
        <ele>870</ele>
        <time>2019-10-11T13:33:53.000Z</time>
      </trkpt>
      <trkpt lat="44.22854" lon="2.99061">
        <ele>870</ele>
        <time>2019-10-11T13:33:54.000Z</time>
      </trkpt>
      <trkpt lat="44.22857" lon="2.99064">
        <ele>870</ele>
        <time>2019-10-11T13:33:55.000Z</time>
      </trkpt>
      <trkpt lat="44.22861" lon="2.99066">
        <ele>870</ele>
        <time>2019-10-11T13:33:56.000Z</time>
      </trkpt>
      <trkpt lat="44.22865" lon="2.99068">
        <ele>870</ele>
        <time>2019-10-11T13:33:57.000Z</time>
      </trkpt>
      <trkpt lat="44.22868" lon="2.9907">
        <ele>870</ele>
        <time>2019-10-11T13:33:58.000Z</time>
      </trkpt>
      <trkpt lat="44.22872" lon="2.99072">
        <ele>871</ele>
        <time>2019-10-11T13:33:59.000Z</time>
      </trkpt>
      <trkpt lat="44.22877" lon="2.99074">
        <ele>871</ele>
        <time>2019-10-11T13:34:00.000Z</time>
      </trkpt>
      <trkpt lat="44.22881" lon="2.99076">
        <ele>871</ele>
        <time>2019-10-11T13:34:01.000Z</time>
      </trkpt>
      <trkpt lat="44.22885" lon="2.99079">
        <ele>871</ele>
        <time>2019-10-11T13:34:02.000Z</time>
      </trkpt>
      <trkpt lat="44.22889" lon="2.99083">
        <ele>871</ele>
        <time>2019-10-11T13:34:03.000Z</time>
      </trkpt>
      <trkpt lat="44.22893" lon="2.99087">
        <ele>871</ele>
        <time>2019-10-11T13:34:04.000Z</time>
      </trkpt>
      <trkpt lat="44.22897" lon="2.99089">
        <ele>871</ele>
        <time>2019-10-11T13:34:05.000Z</time>
      </trkpt>
      <trkpt lat="44.229" lon="2.99092">
        <ele>871</ele>
        <time>2019-10-11T13:34:06.000Z</time>
      </trkpt>
      <trkpt lat="44.22905" lon="2.99093">
        <ele>871</ele>
        <time>2019-10-11T13:34:07.000Z</time>
      </trkpt>
      <trkpt lat="44.22909" lon="2.99095">
        <ele>871</ele>
        <time>2019-10-11T13:34:08.000Z</time>
      </trkpt>
      <trkpt lat="44.22913" lon="2.99097">
        <ele>872</ele>
        <time>2019-10-11T13:34:09.000Z</time>
      </trkpt>
      <trkpt lat="44.22918" lon="2.99099">
        <ele>872</ele>
        <time>2019-10-11T13:34:10.000Z</time>
      </trkpt>
      <trkpt lat="44.22922" lon="2.991">
        <ele>872</ele>
        <time>2019-10-11T13:34:11.000Z</time>
      </trkpt>
      <trkpt lat="44.22926" lon="2.991">
        <ele>872</ele>
        <time>2019-10-11T13:34:12.000Z</time>
      </trkpt>
      <trkpt lat="44.2293" lon="2.99101">
        <ele>872</ele>
        <time>2019-10-11T13:34:13.000Z</time>
      </trkpt>
      <trkpt lat="44.22934" lon="2.99101">
        <ele>872</ele>
        <time>2019-10-11T13:34:14.000Z</time>
      </trkpt>
      <trkpt lat="44.22938" lon="2.99101">
        <ele>872</ele>
        <time>2019-10-11T13:34:15.000Z</time>
      </trkpt>
      <trkpt lat="44.22942" lon="2.99102">
        <ele>872</ele>
        <time>2019-10-11T13:34:16.000Z</time>
      </trkpt>
      <trkpt lat="44.22946" lon="2.99103">
        <ele>872</ele>
        <time>2019-10-11T13:34:17.000Z</time>
      </trkpt>
      <trkpt lat="44.22951" lon="2.99104">
        <ele>872</ele>
        <time>2019-10-11T13:34:18.000Z</time>
      </trkpt>
      <trkpt lat="44.22955" lon="2.99106">
        <ele>872</ele>
        <time>2019-10-11T13:34:19.000Z</time>
      </trkpt>
      <trkpt lat="44.22959" lon="2.99108">
        <ele>872</ele>
        <time>2019-10-11T13:34:20.000Z</time>
      </trkpt>
      <trkpt lat="44.22964" lon="2.99109">
        <ele>873</ele>
        <time>2019-10-11T13:34:21.000Z</time>
      </trkpt>
      <trkpt lat="44.22968" lon="2.9911">
        <ele>873</ele>
        <time>2019-10-11T13:34:22.000Z</time>
      </trkpt>
      <trkpt lat="44.22973" lon="2.99111">
        <ele>873</ele>
        <time>2019-10-11T13:34:23.000Z</time>
      </trkpt>
      <trkpt lat="44.22977" lon="2.99112">
        <ele>873</ele>
        <time>2019-10-11T13:34:24.000Z</time>
      </trkpt>
      <trkpt lat="44.22982" lon="2.99112">
        <ele>873</ele>
        <time>2019-10-11T13:34:25.000Z</time>
      </trkpt>
      <trkpt lat="44.22988" lon="2.99113">
        <ele>873</ele>
        <time>2019-10-11T13:34:26.000Z</time>
      </trkpt>
      <trkpt lat="44.22993" lon="2.99114">
        <ele>873</ele>
        <time>2019-10-11T13:34:27.000Z</time>
      </trkpt>
      <trkpt lat="44.22998" lon="2.99114">
        <ele>874</ele>
        <time>2019-10-11T13:34:28.000Z</time>
      </trkpt>
      <trkpt lat="44.23003" lon="2.99115">
        <ele>874</ele>
        <time>2019-10-11T13:34:29.000Z</time>
      </trkpt>
      <trkpt lat="44.23008" lon="2.99116">
        <ele>874</ele>
        <time>2019-10-11T13:34:30.000Z</time>
      </trkpt>
      <trkpt lat="44.23013" lon="2.99116">
        <ele>874</ele>
        <time>2019-10-11T13:34:31.000Z</time>
      </trkpt>
      <trkpt lat="44.23018" lon="2.99117">
        <ele>875</ele>
        <time>2019-10-11T13:34:32.000Z</time>
      </trkpt>
      <trkpt lat="44.23023" lon="2.99117">
        <ele>875</ele>
        <time>2019-10-11T13:34:33.000Z</time>
      </trkpt>
      <trkpt lat="44.23028" lon="2.99118">
        <ele>875</ele>
        <time>2019-10-11T13:34:34.000Z</time>
      </trkpt>
      <trkpt lat="44.23033" lon="2.9912">
        <ele>875</ele>
        <time>2019-10-11T13:34:35.000Z</time>
      </trkpt>
      <trkpt lat="44.23037" lon="2.99121">
        <ele>875</ele>
        <time>2019-10-11T13:34:36.000Z</time>
      </trkpt>
      <trkpt lat="44.23042" lon="2.99123">
        <ele>875</ele>
        <time>2019-10-11T13:34:37.000Z</time>
      </trkpt>
      <trkpt lat="44.23046" lon="2.99125">
        <ele>876</ele>
        <time>2019-10-11T13:34:38.000Z</time>
      </trkpt>
      <trkpt lat="44.2305" lon="2.99126">
        <ele>876</ele>
        <time>2019-10-11T13:34:39.000Z</time>
      </trkpt>
      <trkpt lat="44.23054" lon="2.99128">
        <ele>876</ele>
        <time>2019-10-11T13:34:40.000Z</time>
      </trkpt>
      <trkpt lat="44.23058" lon="2.99129">
        <ele>876</ele>
        <time>2019-10-11T13:34:41.000Z</time>
      </trkpt>
      <trkpt lat="44.23061" lon="2.9913">
        <ele>876</ele>
        <time>2019-10-11T13:34:42.000Z</time>
      </trkpt>
      <trkpt lat="44.23063" lon="2.99131">
        <ele>877</ele>
        <time>2019-10-11T13:34:43.000Z</time>
      </trkpt>
      <trkpt lat="44.23065" lon="2.99131">
        <ele>877</ele>
        <time>2019-10-11T13:34:44.000Z</time>
      </trkpt>
      <trkpt lat="44.23066" lon="2.99131">
        <ele>877</ele>
        <time>2019-10-11T13:34:45.000Z</time>
      </trkpt>
      <trkpt lat="44.23068" lon="2.99131">
        <ele>878</ele>
        <time>2019-10-11T13:34:46.000Z</time>
      </trkpt>
      <trkpt lat="44.23069" lon="2.99131">
        <ele>878</ele>
        <time>2019-10-11T13:34:47.000Z</time>
      </trkpt>
      <trkpt lat="44.2307" lon="2.99131">
        <ele>879</ele>
        <time>2019-10-11T13:34:48.000Z</time>
      </trkpt>
      <trkpt lat="44.23071" lon="2.99131">
        <ele>879</ele>
        <time>2019-10-11T13:34:49.000Z</time>
      </trkpt>
      <trkpt lat="44.23072" lon="2.99132">
        <ele>879</ele>
        <time>2019-10-11T13:34:50.000Z</time>
      </trkpt>
      <trkpt lat="44.23074" lon="2.99132">
        <ele>880</ele>
        <time>2019-10-11T13:34:51.000Z</time>
      </trkpt>
      <trkpt lat="44.23075" lon="2.99133">
        <ele>880</ele>
        <time>2019-10-11T13:34:52.000Z</time>
      </trkpt>
      <trkpt lat="44.23076" lon="2.99133">
        <ele>880</ele>
        <time>2019-10-11T13:34:53.000Z</time>
      </trkpt>
      <trkpt lat="44.23078" lon="2.99134">
        <ele>880</ele>
        <time>2019-10-11T13:34:54.000Z</time>
      </trkpt>
      <trkpt lat="44.23079" lon="2.99134">
        <ele>881</ele>
        <time>2019-10-11T13:34:55.000Z</time>
      </trkpt>
      <trkpt lat="44.23081" lon="2.99135">
        <ele>881</ele>
        <time>2019-10-11T13:34:56.000Z</time>
      </trkpt>
      <trkpt lat="44.23082" lon="2.99135">
        <ele>881</ele>
        <time>2019-10-11T13:34:57.000Z</time>
      </trkpt>
      <trkpt lat="44.23083" lon="2.99136">
        <ele>881</ele>
        <time>2019-10-11T13:34:58.000Z</time>
      </trkpt>
      <trkpt lat="44.23084" lon="2.99136">
        <ele>881</ele>
        <time>2019-10-11T13:34:59.000Z</time>
      </trkpt>
      <trkpt lat="44.23086" lon="2.99136">
        <ele>882</ele>
        <time>2019-10-11T13:35:00.000Z</time>
      </trkpt>
      <trkpt lat="44.23087" lon="2.99137">
        <ele>882</ele>
        <time>2019-10-11T13:35:01.000Z</time>
      </trkpt>
      <trkpt lat="44.23089" lon="2.99137">
        <ele>882</ele>
        <time>2019-10-11T13:35:02.000Z</time>
      </trkpt>
      <trkpt lat="44.2309" lon="2.99138">
        <ele>882</ele>
        <time>2019-10-11T13:35:03.000Z</time>
      </trkpt>
      <trkpt lat="44.23092" lon="2.99139">
        <ele>883</ele>
        <time>2019-10-11T13:35:04.000Z</time>
      </trkpt>
      <trkpt lat="44.23093" lon="2.99139">
        <ele>883</ele>
        <time>2019-10-11T13:35:05.000Z</time>
      </trkpt>
      <trkpt lat="44.23094" lon="2.9914">
        <ele>883</ele>
        <time>2019-10-11T13:35:06.000Z</time>
      </trkpt>
      <trkpt lat="44.23096" lon="2.99141">
        <ele>883</ele>
        <time>2019-10-11T13:35:07.000Z</time>
      </trkpt>
      <trkpt lat="44.23097" lon="2.99142">
        <ele>883</ele>
        <time>2019-10-11T13:35:08.000Z</time>
      </trkpt>
      <trkpt lat="44.23099" lon="2.99143">
        <ele>884</ele>
        <time>2019-10-11T13:35:09.000Z</time>
      </trkpt>
      <trkpt lat="44.231" lon="2.99144">
        <ele>884</ele>
        <time>2019-10-11T13:35:10.000Z</time>
      </trkpt>
      <trkpt lat="44.23101" lon="2.99145">
        <ele>884</ele>
        <time>2019-10-11T13:35:11.000Z</time>
      </trkpt>
      <trkpt lat="44.23103" lon="2.99146">
        <ele>884</ele>
        <time>2019-10-11T13:35:12.000Z</time>
      </trkpt>
      <trkpt lat="44.23104" lon="2.99147">
        <ele>884</ele>
        <time>2019-10-11T13:35:13.000Z</time>
      </trkpt>
      <trkpt lat="44.23105" lon="2.99148">
        <ele>884</ele>
        <time>2019-10-11T13:35:14.000Z</time>
      </trkpt>
      <trkpt lat="44.23107" lon="2.99149">
        <ele>884</ele>
        <time>2019-10-11T13:35:15.000Z</time>
      </trkpt>
      <trkpt lat="44.23108" lon="2.99149">
        <ele>884</ele>
        <time>2019-10-11T13:35:16.000Z</time>
      </trkpt>
      <trkpt lat="44.2311" lon="2.9915">
        <ele>885</ele>
        <time>2019-10-11T13:35:17.000Z</time>
      </trkpt>
      <trkpt lat="44.23111" lon="2.99151">
        <ele>885</ele>
        <time>2019-10-11T13:35:18.000Z</time>
      </trkpt>
      <trkpt lat="44.23113" lon="2.99152">
        <ele>885</ele>
        <time>2019-10-11T13:35:19.000Z</time>
      </trkpt>
      <trkpt lat="44.23114" lon="2.99154">
        <ele>885</ele>
        <time>2019-10-11T13:35:20.000Z</time>
      </trkpt>
      <trkpt lat="44.23115" lon="2.99154">
        <ele>885</ele>
        <time>2019-10-11T13:35:21.000Z</time>
      </trkpt>
      <trkpt lat="44.23116" lon="2.99155">
        <ele>885</ele>
        <time>2019-10-11T13:35:22.000Z</time>
      </trkpt>
      <trkpt lat="44.23117" lon="2.99156">
        <ele>885</ele>
        <time>2019-10-11T13:35:23.000Z</time>
      </trkpt>
      <trkpt lat="44.23119" lon="2.99157">
        <ele>885</ele>
        <time>2019-10-11T13:35:24.000Z</time>
      </trkpt>
      <trkpt lat="44.2312" lon="2.99158">
        <ele>886</ele>
        <time>2019-10-11T13:35:25.000Z</time>
      </trkpt>
      <trkpt lat="44.23121" lon="2.9916">
        <ele>886</ele>
        <time>2019-10-11T13:35:26.000Z</time>
      </trkpt>
      <trkpt lat="44.23121" lon="2.9916">
        <ele>886</ele>
        <time>2019-10-11T13:35:27.000Z</time>
      </trkpt>
      <trkpt lat="44.23122" lon="2.99161">
        <ele>886</ele>
        <time>2019-10-11T13:35:28.000Z</time>
      </trkpt>
      <trkpt lat="44.23123" lon="2.99163">
        <ele>886</ele>
        <time>2019-10-11T13:35:29.000Z</time>
      </trkpt>
      <trkpt lat="44.23125" lon="2.99164">
        <ele>887</ele>
        <time>2019-10-11T13:35:30.000Z</time>
      </trkpt>
      <trkpt lat="44.23126" lon="2.99165">
        <ele>887</ele>
        <time>2019-10-11T13:35:31.000Z</time>
      </trkpt>
      <trkpt lat="44.23127" lon="2.99166">
        <ele>887</ele>
        <time>2019-10-11T13:35:32.000Z</time>
      </trkpt>
      <trkpt lat="44.23128" lon="2.99168">
        <ele>887</ele>
        <time>2019-10-11T13:35:33.000Z</time>
      </trkpt>
      <trkpt lat="44.23129" lon="2.99169">
        <ele>888</ele>
        <time>2019-10-11T13:35:34.000Z</time>
      </trkpt>
      <trkpt lat="44.23129" lon="2.99169">
        <ele>888</ele>
        <time>2019-10-11T13:35:35.000Z</time>
      </trkpt>
      <trkpt lat="44.2313" lon="2.9917">
        <ele>888</ele>
        <time>2019-10-11T13:35:36.000Z</time>
      </trkpt>
      <trkpt lat="44.23131" lon="2.99171">
        <ele>888</ele>
        <time>2019-10-11T13:35:37.000Z</time>
      </trkpt>
      <trkpt lat="44.23131" lon="2.99172">
        <ele>888</ele>
        <time>2019-10-11T13:35:38.000Z</time>
      </trkpt>
      <trkpt lat="44.23132" lon="2.99174">
        <ele>888</ele>
        <time>2019-10-11T13:35:39.000Z</time>
      </trkpt>
      <trkpt lat="44.23133" lon="2.99175">
        <ele>888</ele>
        <time>2019-10-11T13:35:40.000Z</time>
      </trkpt>
      <trkpt lat="44.23134" lon="2.99177">
        <ele>888</ele>
        <time>2019-10-11T13:35:41.000Z</time>
      </trkpt>
      <trkpt lat="44.23135" lon="2.99178">
        <ele>888</ele>
        <time>2019-10-11T13:35:42.000Z</time>
      </trkpt>
      <trkpt lat="44.23136" lon="2.99179">
        <ele>888</ele>
        <time>2019-10-11T13:35:43.000Z</time>
      </trkpt>
      <trkpt lat="44.23137" lon="2.99181">
        <ele>888</ele>
        <time>2019-10-11T13:35:44.000Z</time>
      </trkpt>
      <trkpt lat="44.23138" lon="2.99183">
        <ele>888</ele>
        <time>2019-10-11T13:35:45.000Z</time>
      </trkpt>
      <trkpt lat="44.23139" lon="2.99184">
        <ele>888</ele>
        <time>2019-10-11T13:35:46.000Z</time>
      </trkpt>
      <trkpt lat="44.2314" lon="2.99186">
        <ele>888</ele>
        <time>2019-10-11T13:35:47.000Z</time>
      </trkpt>
      <trkpt lat="44.23141" lon="2.99187">
        <ele>888</ele>
        <time>2019-10-11T13:35:48.000Z</time>
      </trkpt>
      <trkpt lat="44.23142" lon="2.99188">
        <ele>888</ele>
        <time>2019-10-11T13:35:49.000Z</time>
      </trkpt>
      <trkpt lat="44.23143" lon="2.99189">
        <ele>888</ele>
        <time>2019-10-11T13:35:50.000Z</time>
      </trkpt>
      <trkpt lat="44.23144" lon="2.9919">
        <ele>888</ele>
        <time>2019-10-11T13:35:51.000Z</time>
      </trkpt>
      <trkpt lat="44.23145" lon="2.99191">
        <ele>888</ele>
        <time>2019-10-11T13:35:52.000Z</time>
      </trkpt>
      <trkpt lat="44.23146" lon="2.99191">
        <ele>888</ele>
        <time>2019-10-11T13:35:53.000Z</time>
      </trkpt>
      <trkpt lat="44.23147" lon="2.99192">
        <ele>888</ele>
        <time>2019-10-11T13:35:54.000Z</time>
      </trkpt>
      <trkpt lat="44.23148" lon="2.99193">
        <ele>888</ele>
        <time>2019-10-11T13:35:55.000Z</time>
      </trkpt>
      <trkpt lat="44.23149" lon="2.99194">
        <ele>888</ele>
        <time>2019-10-11T13:35:56.000Z</time>
      </trkpt>
      <trkpt lat="44.23151" lon="2.99194">
        <ele>888</ele>
        <time>2019-10-11T13:35:57.000Z</time>
      </trkpt>
      <trkpt lat="44.23152" lon="2.99195">
        <ele>888</ele>
        <time>2019-10-11T13:35:58.000Z</time>
      </trkpt>
      <trkpt lat="44.23153" lon="2.99196">
        <ele>888</ele>
        <time>2019-10-11T13:35:59.000Z</time>
      </trkpt>
      <trkpt lat="44.23154" lon="2.99197">
        <ele>888</ele>
        <time>2019-10-11T13:36:00.000Z</time>
      </trkpt>
      <trkpt lat="44.23155" lon="2.99197">
        <ele>888</ele>
        <time>2019-10-11T13:36:01.000Z</time>
      </trkpt>
      <trkpt lat="44.23157" lon="2.99198">
        <ele>888</ele>
        <time>2019-10-11T13:36:02.000Z</time>
      </trkpt>
      <trkpt lat="44.23158" lon="2.99199">
        <ele>888</ele>
        <time>2019-10-11T13:36:03.000Z</time>
      </trkpt>
      <trkpt lat="44.2316" lon="2.99199">
        <ele>888</ele>
        <time>2019-10-11T13:36:04.000Z</time>
      </trkpt>
      <trkpt lat="44.23161" lon="2.992">
        <ele>888</ele>
        <time>2019-10-11T13:36:05.000Z</time>
      </trkpt>
      <trkpt lat="44.23163" lon="2.99201">
        <ele>888</ele>
        <time>2019-10-11T13:36:06.000Z</time>
      </trkpt>
      <trkpt lat="44.23164" lon="2.99202">
        <ele>888</ele>
        <time>2019-10-11T13:36:07.000Z</time>
      </trkpt>
      <trkpt lat="44.23165" lon="2.99202">
        <ele>888</ele>
        <time>2019-10-11T13:36:08.000Z</time>
      </trkpt>
      <trkpt lat="44.23167" lon="2.99203">
        <ele>888</ele>
        <time>2019-10-11T13:36:09.000Z</time>
      </trkpt>
      <trkpt lat="44.23168" lon="2.99203">
        <ele>888</ele>
        <time>2019-10-11T13:36:10.000Z</time>
      </trkpt>
      <trkpt lat="44.2317" lon="2.99204">
        <ele>889</ele>
        <time>2019-10-11T13:36:11.000Z</time>
      </trkpt>
      <trkpt lat="44.23171" lon="2.99205">
        <ele>889</ele>
        <time>2019-10-11T13:36:12.000Z</time>
      </trkpt>
      <trkpt lat="44.23171" lon="2.99205">
        <ele>889</ele>
        <time>2019-10-11T13:36:13.000Z</time>
      </trkpt>
      <trkpt lat="44.23172" lon="2.99206">
        <ele>889</ele>
        <time>2019-10-11T13:36:14.000Z</time>
      </trkpt>
      <trkpt lat="44.23173" lon="2.99206">
        <ele>889</ele>
        <time>2019-10-11T13:36:15.000Z</time>
      </trkpt>
      <trkpt lat="44.23174" lon="2.99207">
        <ele>889</ele>
        <time>2019-10-11T13:36:16.000Z</time>
      </trkpt>
      <trkpt lat="44.23175" lon="2.99208">
        <ele>889</ele>
        <time>2019-10-11T13:36:17.000Z</time>
      </trkpt>
      <trkpt lat="44.23176" lon="2.99208">
        <ele>889</ele>
        <time>2019-10-11T13:36:18.000Z</time>
      </trkpt>
      <trkpt lat="44.23178" lon="2.99209">
        <ele>889</ele>
        <time>2019-10-11T13:36:19.000Z</time>
      </trkpt>
      <trkpt lat="44.23179" lon="2.9921">
        <ele>889</ele>
        <time>2019-10-11T13:36:20.000Z</time>
      </trkpt>
      <trkpt lat="44.23181" lon="2.99211">
        <ele>889</ele>
        <time>2019-10-11T13:36:21.000Z</time>
      </trkpt>
      <trkpt lat="44.23182" lon="2.99211">
        <ele>889</ele>
        <time>2019-10-11T13:36:22.000Z</time>
      </trkpt>
      <trkpt lat="44.23184" lon="2.99212">
        <ele>889</ele>
        <time>2019-10-11T13:36:23.000Z</time>
      </trkpt>
      <trkpt lat="44.23187" lon="2.99213">
        <ele>889</ele>
        <time>2019-10-11T13:36:24.000Z</time>
      </trkpt>
      <trkpt lat="44.23189" lon="2.99214">
        <ele>889</ele>
        <time>2019-10-11T13:36:25.000Z</time>
      </trkpt>
      <trkpt lat="44.23192" lon="2.99215">
        <ele>889</ele>
        <time>2019-10-11T13:36:26.000Z</time>
      </trkpt>
      <trkpt lat="44.23195" lon="2.99215">
        <ele>889</ele>
        <time>2019-10-11T13:36:27.000Z</time>
      </trkpt>
      <trkpt lat="44.23198" lon="2.99216">
        <ele>889</ele>
        <time>2019-10-11T13:36:28.000Z</time>
      </trkpt>
      <trkpt lat="44.23201" lon="2.99218">
        <ele>889</ele>
        <time>2019-10-11T13:36:29.000Z</time>
      </trkpt>
      <trkpt lat="44.23204" lon="2.99218">
        <ele>889</ele>
        <time>2019-10-11T13:36:30.000Z</time>
      </trkpt>
      <trkpt lat="44.23207" lon="2.99219">
        <ele>890</ele>
        <time>2019-10-11T13:36:31.000Z</time>
      </trkpt>
      <trkpt lat="44.23211" lon="2.9922">
        <ele>890</ele>
        <time>2019-10-11T13:36:32.000Z</time>
      </trkpt>
      <trkpt lat="44.23215" lon="2.99221">
        <ele>890</ele>
        <time>2019-10-11T13:36:33.000Z</time>
      </trkpt>
      <trkpt lat="44.23219" lon="2.99222">
        <ele>890</ele>
        <time>2019-10-11T13:36:34.000Z</time>
      </trkpt>
      <trkpt lat="44.23223" lon="2.99222">
        <ele>891</ele>
        <time>2019-10-11T13:36:35.000Z</time>
      </trkpt>
      <trkpt lat="44.23228" lon="2.99223">
        <ele>891</ele>
        <time>2019-10-11T13:36:36.000Z</time>
      </trkpt>
      <trkpt lat="44.23233" lon="2.99224">
        <ele>891</ele>
        <time>2019-10-11T13:36:37.000Z</time>
      </trkpt>
      <trkpt lat="44.23238" lon="2.99225">
        <ele>891</ele>
        <time>2019-10-11T13:36:38.000Z</time>
      </trkpt>
      <trkpt lat="44.23243" lon="2.99225">
        <ele>891</ele>
        <time>2019-10-11T13:36:39.000Z</time>
      </trkpt>
      <trkpt lat="44.23248" lon="2.99226">
        <ele>891</ele>
        <time>2019-10-11T13:36:40.000Z</time>
      </trkpt>
      <trkpt lat="44.23253" lon="2.99227">
        <ele>891</ele>
        <time>2019-10-11T13:36:41.000Z</time>
      </trkpt>
      <trkpt lat="44.23258" lon="2.99227">
        <ele>891</ele>
        <time>2019-10-11T13:36:42.000Z</time>
      </trkpt>
      <trkpt lat="44.23263" lon="2.99227">
        <ele>891</ele>
        <time>2019-10-11T13:36:43.000Z</time>
      </trkpt>
      <trkpt lat="44.23269" lon="2.99228">
        <ele>891</ele>
        <time>2019-10-11T13:36:44.000Z</time>
      </trkpt>
      <trkpt lat="44.23274" lon="2.99228">
        <ele>891</ele>
        <time>2019-10-11T13:36:45.000Z</time>
      </trkpt>
      <trkpt lat="44.2328" lon="2.99229">
        <ele>891</ele>
        <time>2019-10-11T13:36:46.000Z</time>
      </trkpt>
      <trkpt lat="44.23285" lon="2.99229">
        <ele>891</ele>
        <time>2019-10-11T13:36:47.000Z</time>
      </trkpt>
      <trkpt lat="44.23291" lon="2.99229">
        <ele>891</ele>
        <time>2019-10-11T13:36:48.000Z</time>
      </trkpt>
      <trkpt lat="44.23297" lon="2.9923">
        <ele>891</ele>
        <time>2019-10-11T13:36:49.000Z</time>
      </trkpt>
      <trkpt lat="44.23303" lon="2.9923">
        <ele>891</ele>
        <time>2019-10-11T13:36:50.000Z</time>
      </trkpt>
      <trkpt lat="44.23309" lon="2.99231">
        <ele>891</ele>
        <time>2019-10-11T13:36:51.000Z</time>
      </trkpt>
      <trkpt lat="44.23315" lon="2.99232">
        <ele>892</ele>
        <time>2019-10-11T13:36:52.000Z</time>
      </trkpt>
      <trkpt lat="44.23321" lon="2.99232">
        <ele>892</ele>
        <time>2019-10-11T13:36:53.000Z</time>
      </trkpt>
      <trkpt lat="44.23328" lon="2.99233">
        <ele>892</ele>
        <time>2019-10-11T13:36:54.000Z</time>
      </trkpt>
      <trkpt lat="44.23334" lon="2.99233">
        <ele>892</ele>
        <time>2019-10-11T13:36:55.000Z</time>
      </trkpt>
      <trkpt lat="44.23341" lon="2.99234">
        <ele>892</ele>
        <time>2019-10-11T13:36:56.000Z</time>
      </trkpt>
      <trkpt lat="44.23347" lon="2.99234">
        <ele>892</ele>
        <time>2019-10-11T13:36:57.000Z</time>
      </trkpt>
      <trkpt lat="44.23354" lon="2.99235">
        <ele>892</ele>
        <time>2019-10-11T13:36:58.000Z</time>
      </trkpt>
      <trkpt lat="44.23361" lon="2.99235">
        <ele>892</ele>
        <time>2019-10-11T13:36:59.000Z</time>
      </trkpt>
      <trkpt lat="44.23368" lon="2.99235">
        <ele>892</ele>
        <time>2019-10-11T13:37:00.000Z</time>
      </trkpt>
      <trkpt lat="44.23374" lon="2.99236">
        <ele>892</ele>
        <time>2019-10-11T13:37:01.000Z</time>
      </trkpt>
      <trkpt lat="44.23382" lon="2.99236">
        <ele>892</ele>
        <time>2019-10-11T13:37:02.000Z</time>
      </trkpt>
      <trkpt lat="44.23389" lon="2.99237">
        <ele>892</ele>
        <time>2019-10-11T13:37:03.000Z</time>
      </trkpt>
      <trkpt lat="44.23396" lon="2.99237">
        <ele>892</ele>
        <time>2019-10-11T13:37:04.000Z</time>
      </trkpt>
      <trkpt lat="44.23404" lon="2.99238">
        <ele>892</ele>
        <time>2019-10-11T13:37:05.000Z</time>
      </trkpt>
      <trkpt lat="44.23412" lon="2.99238">
        <ele>893</ele>
        <time>2019-10-11T13:37:06.000Z</time>
      </trkpt>
      <trkpt lat="44.2342" lon="2.99238">
        <ele>893</ele>
        <time>2019-10-11T13:37:07.000Z</time>
      </trkpt>
      <trkpt lat="44.23428" lon="2.99238">
        <ele>893</ele>
        <time>2019-10-11T13:37:08.000Z</time>
      </trkpt>
      <trkpt lat="44.23436" lon="2.99238">
        <ele>893</ele>
        <time>2019-10-11T13:37:09.000Z</time>
      </trkpt>
      <trkpt lat="44.23443" lon="2.99238">
        <ele>893</ele>
        <time>2019-10-11T13:37:10.000Z</time>
      </trkpt>
      <trkpt lat="44.2345" lon="2.99238">
        <ele>893</ele>
        <time>2019-10-11T13:37:11.000Z</time>
      </trkpt>
      <trkpt lat="44.23458" lon="2.99238">
        <ele>893</ele>
        <time>2019-10-11T13:37:12.000Z</time>
      </trkpt>
      <trkpt lat="44.23464" lon="2.99239">
        <ele>893</ele>
        <time>2019-10-11T13:37:13.000Z</time>
      </trkpt>
      <trkpt lat="44.23471" lon="2.9924">
        <ele>893</ele>
        <time>2019-10-11T13:37:14.000Z</time>
      </trkpt>
      <trkpt lat="44.23478" lon="2.9924">
        <ele>894</ele>
        <time>2019-10-11T13:37:15.000Z</time>
      </trkpt>
      <trkpt lat="44.23485" lon="2.99241">
        <ele>894</ele>
        <time>2019-10-11T13:37:16.000Z</time>
      </trkpt>
      <trkpt lat="44.23491" lon="2.99241">
        <ele>894</ele>
        <time>2019-10-11T13:37:17.000Z</time>
      </trkpt>
      <trkpt lat="44.23497" lon="2.99242">
        <ele>894</ele>
        <time>2019-10-11T13:37:18.000Z</time>
      </trkpt>
      <trkpt lat="44.23503" lon="2.99243">
        <ele>894</ele>
        <time>2019-10-11T13:37:19.000Z</time>
      </trkpt>
      <trkpt lat="44.23509" lon="2.99244">
        <ele>894</ele>
        <time>2019-10-11T13:37:20.000Z</time>
      </trkpt>
      <trkpt lat="44.23515" lon="2.99245">
        <ele>895</ele>
        <time>2019-10-11T13:37:21.000Z</time>
      </trkpt>
      <trkpt lat="44.2352" lon="2.99246">
        <ele>895</ele>
        <time>2019-10-11T13:37:22.000Z</time>
      </trkpt>
      <trkpt lat="44.23526" lon="2.99246">
        <ele>895</ele>
        <time>2019-10-11T13:37:23.000Z</time>
      </trkpt>
      <trkpt lat="44.23532" lon="2.99247">
        <ele>895</ele>
        <time>2019-10-11T13:37:24.000Z</time>
      </trkpt>
      <trkpt lat="44.23538" lon="2.99248">
        <ele>895</ele>
        <time>2019-10-11T13:37:25.000Z</time>
      </trkpt>
      <trkpt lat="44.23543" lon="2.99249">
        <ele>895</ele>
        <time>2019-10-11T13:37:26.000Z</time>
      </trkpt>
      <trkpt lat="44.23549" lon="2.99251">
        <ele>896</ele>
        <time>2019-10-11T13:37:27.000Z</time>
      </trkpt>
      <trkpt lat="44.23555" lon="2.99252">
        <ele>896</ele>
        <time>2019-10-11T13:37:28.000Z</time>
      </trkpt>
      <trkpt lat="44.23561" lon="2.99254">
        <ele>896</ele>
        <time>2019-10-11T13:37:29.000Z</time>
      </trkpt>
      <trkpt lat="44.23567" lon="2.99256">
        <ele>896</ele>
        <time>2019-10-11T13:37:30.000Z</time>
      </trkpt>
      <trkpt lat="44.23572" lon="2.99257">
        <ele>896</ele>
        <time>2019-10-11T13:37:31.000Z</time>
      </trkpt>
      <trkpt lat="44.23578" lon="2.99258">
        <ele>896</ele>
        <time>2019-10-11T13:37:32.000Z</time>
      </trkpt>
      <trkpt lat="44.23584" lon="2.99259">
        <ele>896</ele>
        <time>2019-10-11T13:37:33.000Z</time>
      </trkpt>
      <trkpt lat="44.23589" lon="2.99261">
        <ele>896</ele>
        <time>2019-10-11T13:37:34.000Z</time>
      </trkpt>
      <trkpt lat="44.23595" lon="2.99262">
        <ele>897</ele>
        <time>2019-10-11T13:37:35.000Z</time>
      </trkpt>
      <trkpt lat="44.23601" lon="2.99264">
        <ele>897</ele>
        <time>2019-10-11T13:37:36.000Z</time>
      </trkpt>
      <trkpt lat="44.23606" lon="2.99265">
        <ele>897</ele>
        <time>2019-10-11T13:37:37.000Z</time>
      </trkpt>
      <trkpt lat="44.23612" lon="2.99265">
        <ele>897</ele>
        <time>2019-10-11T13:37:38.000Z</time>
      </trkpt>
      <trkpt lat="44.23617" lon="2.99265">
        <ele>897</ele>
        <time>2019-10-11T13:37:39.000Z</time>
      </trkpt>
      <trkpt lat="44.23623" lon="2.99264">
        <ele>897</ele>
        <time>2019-10-11T13:37:40.000Z</time>
      </trkpt>
      <trkpt lat="44.23628" lon="2.99263">
        <ele>897</ele>
        <time>2019-10-11T13:37:41.000Z</time>
      </trkpt>
      <trkpt lat="44.23633" lon="2.99262">
        <ele>897</ele>
        <time>2019-10-11T13:37:42.000Z</time>
      </trkpt>
      <trkpt lat="44.23638" lon="2.99261">
        <ele>897</ele>
        <time>2019-10-11T13:37:43.000Z</time>
      </trkpt>
      <trkpt lat="44.23643" lon="2.99261">
        <ele>897</ele>
        <time>2019-10-11T13:37:44.000Z</time>
      </trkpt>
      <trkpt lat="44.23648" lon="2.99261">
        <ele>897</ele>
        <time>2019-10-11T13:37:45.000Z</time>
      </trkpt>
      <trkpt lat="44.23653" lon="2.99262">
        <ele>897</ele>
        <time>2019-10-11T13:37:46.000Z</time>
      </trkpt>
      <trkpt lat="44.23657" lon="2.99263">
        <ele>897</ele>
        <time>2019-10-11T13:37:47.000Z</time>
      </trkpt>
      <trkpt lat="44.23661" lon="2.99264">
        <ele>898</ele>
        <time>2019-10-11T13:37:48.000Z</time>
      </trkpt>
      <trkpt lat="44.23665" lon="2.99265">
        <ele>898</ele>
        <time>2019-10-11T13:37:49.000Z</time>
      </trkpt>
      <trkpt lat="44.23669" lon="2.99266">
        <ele>898</ele>
        <time>2019-10-11T13:37:50.000Z</time>
      </trkpt>
      <trkpt lat="44.23673" lon="2.99267">
        <ele>898</ele>
        <time>2019-10-11T13:37:51.000Z</time>
      </trkpt>
      <trkpt lat="44.23676" lon="2.99269">
        <ele>898</ele>
        <time>2019-10-11T13:37:52.000Z</time>
      </trkpt>
      <trkpt lat="44.2368" lon="2.9927">
        <ele>898</ele>
        <time>2019-10-11T13:37:53.000Z</time>
      </trkpt>
      <trkpt lat="44.23683" lon="2.99272">
        <ele>898</ele>
        <time>2019-10-11T13:37:54.000Z</time>
      </trkpt>
      <trkpt lat="44.23687" lon="2.99274">
        <ele>898</ele>
        <time>2019-10-11T13:37:55.000Z</time>
      </trkpt>
      <trkpt lat="44.23691" lon="2.99276">
        <ele>898</ele>
        <time>2019-10-11T13:37:56.000Z</time>
      </trkpt>
      <trkpt lat="44.23695" lon="2.99278">
        <ele>898</ele>
        <time>2019-10-11T13:37:57.000Z</time>
      </trkpt>
      <trkpt lat="44.23699" lon="2.9928">
        <ele>898</ele>
        <time>2019-10-11T13:37:58.000Z</time>
      </trkpt>
      <trkpt lat="44.23703" lon="2.99283">
        <ele>897</ele>
        <time>2019-10-11T13:37:59.000Z</time>
      </trkpt>
      <trkpt lat="44.23707" lon="2.99286">
        <ele>897</ele>
        <time>2019-10-11T13:38:00.000Z</time>
      </trkpt>
      <trkpt lat="44.2371" lon="2.99289">
        <ele>897</ele>
        <time>2019-10-11T13:38:01.000Z</time>
      </trkpt>
      <trkpt lat="44.23715" lon="2.99291">
        <ele>897</ele>
        <time>2019-10-11T13:38:02.000Z</time>
      </trkpt>
      <trkpt lat="44.23718" lon="2.99294">
        <ele>897</ele>
        <time>2019-10-11T13:38:03.000Z</time>
      </trkpt>
      <trkpt lat="44.23723" lon="2.99297">
        <ele>897</ele>
        <time>2019-10-11T13:38:04.000Z</time>
      </trkpt>
      <trkpt lat="44.23727" lon="2.993">
        <ele>897</ele>
        <time>2019-10-11T13:38:05.000Z</time>
      </trkpt>
      <trkpt lat="44.23731" lon="2.99302">
        <ele>897</ele>
        <time>2019-10-11T13:38:06.000Z</time>
      </trkpt>
      <trkpt lat="44.23736" lon="2.99305">
        <ele>897</ele>
        <time>2019-10-11T13:38:07.000Z</time>
      </trkpt>
      <trkpt lat="44.2374" lon="2.99307">
        <ele>897</ele>
        <time>2019-10-11T13:38:08.000Z</time>
      </trkpt>
      <trkpt lat="44.23744" lon="2.9931">
        <ele>897</ele>
        <time>2019-10-11T13:38:09.000Z</time>
      </trkpt>
      <trkpt lat="44.23748" lon="2.99312">
        <ele>897</ele>
        <time>2019-10-11T13:38:10.000Z</time>
      </trkpt>
      <trkpt lat="44.23751" lon="2.99315">
        <ele>897</ele>
        <time>2019-10-11T13:38:11.000Z</time>
      </trkpt>
      <trkpt lat="44.23755" lon="2.99317">
        <ele>897</ele>
        <time>2019-10-11T13:38:12.000Z</time>
      </trkpt>
      <trkpt lat="44.23758" lon="2.99319">
        <ele>897</ele>
        <time>2019-10-11T13:38:13.000Z</time>
      </trkpt>
      <trkpt lat="44.23762" lon="2.99321">
        <ele>897</ele>
        <time>2019-10-11T13:38:14.000Z</time>
      </trkpt>
      <trkpt lat="44.23766" lon="2.99324">
        <ele>897</ele>
        <time>2019-10-11T13:38:15.000Z</time>
      </trkpt>
      <trkpt lat="44.23771" lon="2.99327">
        <ele>897</ele>
        <time>2019-10-11T13:38:16.000Z</time>
      </trkpt>
      <trkpt lat="44.23775" lon="2.99331">
        <ele>897</ele>
        <time>2019-10-11T13:38:17.000Z</time>
      </trkpt>
      <trkpt lat="44.23779" lon="2.99335">
        <ele>897</ele>
        <time>2019-10-11T13:38:18.000Z</time>
      </trkpt>
      <trkpt lat="44.23783" lon="2.99339">
        <ele>897</ele>
        <time>2019-10-11T13:38:19.000Z</time>
      </trkpt>
      <trkpt lat="44.23788" lon="2.99343">
        <ele>896</ele>
        <time>2019-10-11T13:38:20.000Z</time>
      </trkpt>
      <trkpt lat="44.23792" lon="2.99347">
        <ele>897</ele>
        <time>2019-10-11T13:38:21.000Z</time>
      </trkpt>
      <trkpt lat="44.23796" lon="2.99351">
        <ele>897</ele>
        <time>2019-10-11T13:38:22.000Z</time>
      </trkpt>
      <trkpt lat="44.238" lon="2.99355">
        <ele>897</ele>
        <time>2019-10-11T13:38:23.000Z</time>
      </trkpt>
      <trkpt lat="44.23804" lon="2.9936">
        <ele>897</ele>
        <time>2019-10-11T13:38:24.000Z</time>
      </trkpt>
      <trkpt lat="44.23807" lon="2.99365">
        <ele>897</ele>
        <time>2019-10-11T13:38:25.000Z</time>
      </trkpt>
      <trkpt lat="44.23811" lon="2.99369">
        <ele>897</ele>
        <time>2019-10-11T13:38:26.000Z</time>
      </trkpt>
      <trkpt lat="44.23814" lon="2.99374">
        <ele>897</ele>
        <time>2019-10-11T13:38:27.000Z</time>
      </trkpt>
      <trkpt lat="44.23818" lon="2.99378">
        <ele>897</ele>
        <time>2019-10-11T13:38:28.000Z</time>
      </trkpt>
      <trkpt lat="44.23821" lon="2.99381">
        <ele>897</ele>
        <time>2019-10-11T13:38:29.000Z</time>
      </trkpt>
      <trkpt lat="44.23825" lon="2.99384">
        <ele>897</ele>
        <time>2019-10-11T13:38:30.000Z</time>
      </trkpt>
      <trkpt lat="44.23829" lon="2.99388">
        <ele>897</ele>
        <time>2019-10-11T13:38:31.000Z</time>
      </trkpt>
      <trkpt lat="44.23833" lon="2.99391">
        <ele>897</ele>
        <time>2019-10-11T13:38:32.000Z</time>
      </trkpt>
      <trkpt lat="44.23837" lon="2.99394">
        <ele>897</ele>
        <time>2019-10-11T13:38:33.000Z</time>
      </trkpt>
      <trkpt lat="44.23841" lon="2.99398">
        <ele>897</ele>
        <time>2019-10-11T13:38:34.000Z</time>
      </trkpt>
      <trkpt lat="44.23845" lon="2.99402">
        <ele>897</ele>
        <time>2019-10-11T13:38:35.000Z</time>
      </trkpt>
      <trkpt lat="44.23849" lon="2.99405">
        <ele>897</ele>
        <time>2019-10-11T13:38:36.000Z</time>
      </trkpt>
      <trkpt lat="44.23853" lon="2.99409">
        <ele>897</ele>
        <time>2019-10-11T13:38:37.000Z</time>
      </trkpt>
      <trkpt lat="44.23858" lon="2.99412">
        <ele>897</ele>
        <time>2019-10-11T13:38:38.000Z</time>
      </trkpt>
      <trkpt lat="44.23861" lon="2.99416">
        <ele>898</ele>
        <time>2019-10-11T13:38:39.000Z</time>
      </trkpt>
      <trkpt lat="44.23865" lon="2.99419">
        <ele>898</ele>
        <time>2019-10-11T13:38:40.000Z</time>
      </trkpt>
      <trkpt lat="44.23869" lon="2.99422">
        <ele>898</ele>
        <time>2019-10-11T13:38:41.000Z</time>
      </trkpt>
      <trkpt lat="44.23872" lon="2.99424">
        <ele>898</ele>
        <time>2019-10-11T13:38:42.000Z</time>
      </trkpt>
      <trkpt lat="44.23875" lon="2.99427">
        <ele>898</ele>
        <time>2019-10-11T13:38:43.000Z</time>
      </trkpt>
      <trkpt lat="44.23876" lon="2.99429">
        <ele>898</ele>
        <time>2019-10-11T13:38:44.000Z</time>
      </trkpt>
      <trkpt lat="44.23878" lon="2.99431">
        <ele>898</ele>
        <time>2019-10-11T13:38:45.000Z</time>
      </trkpt>
      <trkpt lat="44.23878" lon="2.99432">
        <ele>898</ele>
        <time>2019-10-11T13:38:46.000Z</time>
      </trkpt>
      <trkpt lat="44.23879" lon="2.99433">
        <ele>898</ele>
        <time>2019-10-11T13:38:47.000Z</time>
      </trkpt>
      <trkpt lat="44.23879" lon="2.99433">
        <ele>898</ele>
        <time>2019-10-11T13:38:48.000Z</time>
      </trkpt>
      <trkpt lat="44.23879" lon="2.99434">
        <ele>898</ele>
        <time>2019-10-11T13:38:49.000Z</time>
      </trkpt>
      <trkpt lat="44.23879" lon="2.99434">
        <ele>899</ele>
        <time>2019-10-11T13:38:50.000Z</time>
      </trkpt>
      <trkpt lat="44.23879" lon="2.99434">
        <ele>899</ele>
        <time>2019-10-11T13:38:51.000Z</time>
      </trkpt>
      <trkpt lat="44.23879" lon="2.99434">
        <ele>899</ele>
        <time>2019-10-11T13:38:52.000Z</time>
      </trkpt>
      <trkpt lat="44.23879" lon="2.99435">
        <ele>899</ele>
        <time>2019-10-11T13:38:53.000Z</time>
      </trkpt>
      <trkpt lat="44.23879" lon="2.99436">
        <ele>899</ele>
        <time>2019-10-11T13:38:54.000Z</time>
      </trkpt>
      <trkpt lat="44.23879" lon="2.99438">
        <ele>899</ele>
        <time>2019-10-11T13:38:55.000Z</time>
      </trkpt>
      <trkpt lat="44.2388" lon="2.99439">
        <ele>900</ele>
        <time>2019-10-11T13:38:56.000Z</time>
      </trkpt>
      <trkpt lat="44.2388" lon="2.9944">
        <ele>900</ele>
        <time>2019-10-11T13:38:57.000Z</time>
      </trkpt>
      <trkpt lat="44.23881" lon="2.99441">
        <ele>900</ele>
        <time>2019-10-11T13:38:58.000Z</time>
      </trkpt>
      <trkpt lat="44.23882" lon="2.99442">
        <ele>900</ele>
        <time>2019-10-11T13:38:59.000Z</time>
      </trkpt>
      <trkpt lat="44.23883" lon="2.99443">
        <ele>900</ele>
        <time>2019-10-11T13:39:00.000Z</time>
      </trkpt>
      <trkpt lat="44.23883" lon="2.99445">
        <ele>900</ele>
        <time>2019-10-11T13:39:01.000Z</time>
      </trkpt>
      <trkpt lat="44.23884" lon="2.99446">
        <ele>900</ele>
        <time>2019-10-11T13:39:02.000Z</time>
      </trkpt>
      <trkpt lat="44.23884" lon="2.99447">
        <ele>901</ele>
        <time>2019-10-11T13:39:03.000Z</time>
      </trkpt>
      <trkpt lat="44.23884" lon="2.99448">
        <ele>901</ele>
        <time>2019-10-11T13:39:04.000Z</time>
      </trkpt>
      <trkpt lat="44.23885" lon="2.99449">
        <ele>901</ele>
        <time>2019-10-11T13:39:05.000Z</time>
      </trkpt>
      <trkpt lat="44.23886" lon="2.9945">
        <ele>902</ele>
        <time>2019-10-11T13:39:06.000Z</time>
      </trkpt>
      <trkpt lat="44.23887" lon="2.99451">
        <ele>902</ele>
        <time>2019-10-11T13:39:07.000Z</time>
      </trkpt>
      <trkpt lat="44.23888" lon="2.99452">
        <ele>902</ele>
        <time>2019-10-11T13:39:08.000Z</time>
      </trkpt>
      <trkpt lat="44.23888" lon="2.99454">
        <ele>903</ele>
        <time>2019-10-11T13:39:09.000Z</time>
      </trkpt>
      <trkpt lat="44.23889" lon="2.99455">
        <ele>903</ele>
        <time>2019-10-11T13:39:10.000Z</time>
      </trkpt>
      <trkpt lat="44.23889" lon="2.99456">
        <ele>903</ele>
        <time>2019-10-11T13:39:11.000Z</time>
      </trkpt>
      <trkpt lat="44.2389" lon="2.99457">
        <ele>903</ele>
        <time>2019-10-11T13:39:12.000Z</time>
      </trkpt>
      <trkpt lat="44.2389" lon="2.99459">
        <ele>903</ele>
        <time>2019-10-11T13:39:13.000Z</time>
      </trkpt>
      <trkpt lat="44.23891" lon="2.9946">
        <ele>903</ele>
        <time>2019-10-11T13:39:14.000Z</time>
      </trkpt>
      <trkpt lat="44.23892" lon="2.99462">
        <ele>903</ele>
        <time>2019-10-11T13:39:15.000Z</time>
      </trkpt>
      <trkpt lat="44.23893" lon="2.99463">
        <ele>903</ele>
        <time>2019-10-11T13:39:16.000Z</time>
      </trkpt>
      <trkpt lat="44.23894" lon="2.99465">
        <ele>903</ele>
        <time>2019-10-11T13:39:17.000Z</time>
      </trkpt>
      <trkpt lat="44.23894" lon="2.99466">
        <ele>903</ele>
        <time>2019-10-11T13:39:18.000Z</time>
      </trkpt>
      <trkpt lat="44.23895" lon="2.99467">
        <ele>903</ele>
        <time>2019-10-11T13:39:19.000Z</time>
      </trkpt>
      <trkpt lat="44.23896" lon="2.99468">
        <ele>903</ele>
        <time>2019-10-11T13:39:20.000Z</time>
      </trkpt>
      <trkpt lat="44.23897" lon="2.99469">
        <ele>903</ele>
        <time>2019-10-11T13:39:21.000Z</time>
      </trkpt>
      <trkpt lat="44.23898" lon="2.99471">
        <ele>903</ele>
        <time>2019-10-11T13:39:22.000Z</time>
      </trkpt>
      <trkpt lat="44.23899" lon="2.99472">
        <ele>903</ele>
        <time>2019-10-11T13:39:23.000Z</time>
      </trkpt>
      <trkpt lat="44.239" lon="2.99473">
        <ele>903</ele>
        <time>2019-10-11T13:39:24.000Z</time>
      </trkpt>
      <trkpt lat="44.23902" lon="2.99474">
        <ele>903</ele>
        <time>2019-10-11T13:39:25.000Z</time>
      </trkpt>
      <trkpt lat="44.23903" lon="2.99475">
        <ele>903</ele>
        <time>2019-10-11T13:39:26.000Z</time>
      </trkpt>
      <trkpt lat="44.23905" lon="2.99477">
        <ele>903</ele>
        <time>2019-10-11T13:39:27.000Z</time>
      </trkpt>
      <trkpt lat="44.23906" lon="2.99478">
        <ele>903</ele>
        <time>2019-10-11T13:39:28.000Z</time>
      </trkpt>
      <trkpt lat="44.23908" lon="2.9948">
        <ele>903</ele>
        <time>2019-10-11T13:39:29.000Z</time>
      </trkpt>
      <trkpt lat="44.23911" lon="2.99482">
        <ele>903</ele>
        <time>2019-10-11T13:39:30.000Z</time>
      </trkpt>
      <trkpt lat="44.23914" lon="2.99484">
        <ele>903</ele>
        <time>2019-10-11T13:39:31.000Z</time>
      </trkpt>
      <trkpt lat="44.23917" lon="2.99486">
        <ele>903</ele>
        <time>2019-10-11T13:39:32.000Z</time>
      </trkpt>
      <trkpt lat="44.23921" lon="2.99488">
        <ele>903</ele>
        <time>2019-10-11T13:39:33.000Z</time>
      </trkpt>
      <trkpt lat="44.23924" lon="2.9949">
        <ele>903</ele>
        <time>2019-10-11T13:39:34.000Z</time>
      </trkpt>
      <trkpt lat="44.23928" lon="2.99491">
        <ele>902</ele>
        <time>2019-10-11T13:39:35.000Z</time>
      </trkpt>
      <trkpt lat="44.23932" lon="2.99492">
        <ele>902</ele>
        <time>2019-10-11T13:39:36.000Z</time>
      </trkpt>
      <trkpt lat="44.23935" lon="2.99493">
        <ele>902</ele>
        <time>2019-10-11T13:39:37.000Z</time>
      </trkpt>
      <trkpt lat="44.23938" lon="2.99493">
        <ele>902</ele>
        <time>2019-10-11T13:39:38.000Z</time>
      </trkpt>
      <trkpt lat="44.23941" lon="2.99494">
        <ele>902</ele>
        <time>2019-10-11T13:39:39.000Z</time>
      </trkpt>
      <trkpt lat="44.23944" lon="2.99496">
        <ele>902</ele>
        <time>2019-10-11T13:39:40.000Z</time>
      </trkpt>
      <trkpt lat="44.23948" lon="2.99497">
        <ele>901</ele>
        <time>2019-10-11T13:39:41.000Z</time>
      </trkpt>
      <trkpt lat="44.23951" lon="2.99499">
        <ele>901</ele>
        <time>2019-10-11T13:39:42.000Z</time>
      </trkpt>
      <trkpt lat="44.23954" lon="2.995">
        <ele>901</ele>
        <time>2019-10-11T13:39:43.000Z</time>
      </trkpt>
      <trkpt lat="44.23957" lon="2.99502">
        <ele>901</ele>
        <time>2019-10-11T13:39:44.000Z</time>
      </trkpt>
      <trkpt lat="44.2396" lon="2.99503">
        <ele>900</ele>
        <time>2019-10-11T13:39:45.000Z</time>
      </trkpt>
      <trkpt lat="44.23962" lon="2.99504">
        <ele>900</ele>
        <time>2019-10-11T13:39:46.000Z</time>
      </trkpt>
      <trkpt lat="44.23963" lon="2.99505">
        <ele>900</ele>
        <time>2019-10-11T13:39:47.000Z</time>
      </trkpt>
      <trkpt lat="44.23964" lon="2.99505">
        <ele>899</ele>
        <time>2019-10-11T13:39:48.000Z</time>
      </trkpt>
      <trkpt lat="44.23965" lon="2.99505">
        <ele>899</ele>
        <time>2019-10-11T13:39:49.000Z</time>
      </trkpt>
      <trkpt lat="44.23965" lon="2.99505">
        <ele>899</ele>
        <time>2019-10-11T13:39:50.000Z</time>
      </trkpt>
      <trkpt lat="44.23964" lon="2.99504">
        <ele>898</ele>
        <time>2019-10-11T13:39:51.000Z</time>
      </trkpt>
      <trkpt lat="44.23964" lon="2.99504">
        <ele>898</ele>
        <time>2019-10-11T13:39:52.000Z</time>
      </trkpt>
      <trkpt lat="44.23962" lon="2.99502">
        <ele>898</ele>
        <time>2019-10-11T13:39:53.000Z</time>
      </trkpt>
      <trkpt lat="44.2396" lon="2.99501">
        <ele>897</ele>
        <time>2019-10-11T13:39:54.000Z</time>
      </trkpt>
      <trkpt lat="44.23958" lon="2.99499">
        <ele>897</ele>
        <time>2019-10-11T13:39:55.000Z</time>
      </trkpt>
      <trkpt lat="44.23955" lon="2.99497">
        <ele>897</ele>
        <time>2019-10-11T13:39:56.000Z</time>
      </trkpt>
      <trkpt lat="44.23951" lon="2.99496">
        <ele>897</ele>
        <time>2019-10-11T13:39:57.000Z</time>
      </trkpt>
      <trkpt lat="44.23948" lon="2.99495">
        <ele>897</ele>
        <time>2019-10-11T13:39:58.000Z</time>
      </trkpt>
      <trkpt lat="44.23944" lon="2.99494">
        <ele>897</ele>
        <time>2019-10-11T13:39:59.000Z</time>
      </trkpt>
      <trkpt lat="44.23941" lon="2.99493">
        <ele>896</ele>
        <time>2019-10-11T13:40:00.000Z</time>
      </trkpt>
      <trkpt lat="44.23939" lon="2.99492">
        <ele>896</ele>
        <time>2019-10-11T13:40:01.000Z</time>
      </trkpt>
      <trkpt lat="44.23938" lon="2.99491">
        <ele>896</ele>
        <time>2019-10-11T13:40:02.000Z</time>
      </trkpt>
      <trkpt lat="44.23937" lon="2.9949">
        <ele>896</ele>
        <time>2019-10-11T13:40:03.000Z</time>
      </trkpt>
      <trkpt lat="44.23936" lon="2.9949">
        <ele>896</ele>
        <time>2019-10-11T13:40:04.000Z</time>
      </trkpt>
      <trkpt lat="44.23936" lon="2.99489">
        <ele>896</ele>
        <time>2019-10-11T13:40:05.000Z</time>
      </trkpt>
      <trkpt lat="44.23937" lon="2.99488">
        <ele>896</ele>
        <time>2019-10-11T13:40:06.000Z</time>
      </trkpt>
      <trkpt lat="44.23938" lon="2.99487">
        <ele>895</ele>
        <time>2019-10-11T13:40:07.000Z</time>
      </trkpt>
      <trkpt lat="44.23938" lon="2.99486">
        <ele>895</ele>
        <time>2019-10-11T13:40:08.000Z</time>
      </trkpt>
      <trkpt lat="44.23939" lon="2.99485">
        <ele>895</ele>
        <time>2019-10-11T13:40:09.000Z</time>
      </trkpt>
      <trkpt lat="44.2394" lon="2.99483">
        <ele>895</ele>
        <time>2019-10-11T13:40:10.000Z</time>
      </trkpt>
      <trkpt lat="44.23941" lon="2.99481">
        <ele>895</ele>
        <time>2019-10-11T13:40:11.000Z</time>
      </trkpt>
      <trkpt lat="44.23942" lon="2.9948">
        <ele>894</ele>
        <time>2019-10-11T13:40:12.000Z</time>
      </trkpt>
      <trkpt lat="44.23942" lon="2.99478">
        <ele>894</ele>
        <time>2019-10-11T13:40:13.000Z</time>
      </trkpt>
      <trkpt lat="44.23942" lon="2.99476">
        <ele>894</ele>
        <time>2019-10-11T13:40:14.000Z</time>
      </trkpt>
      <trkpt lat="44.23942" lon="2.99474">
        <ele>894</ele>
        <time>2019-10-11T13:40:15.000Z</time>
      </trkpt>
      <trkpt lat="44.23941" lon="2.99472">
        <ele>894</ele>
        <time>2019-10-11T13:40:16.000Z</time>
      </trkpt>
      <trkpt lat="44.2394" lon="2.9947">
        <ele>894</ele>
        <time>2019-10-11T13:40:17.000Z</time>
      </trkpt>
      <trkpt lat="44.2394" lon="2.99468">
        <ele>895</ele>
        <time>2019-10-11T13:40:18.000Z</time>
      </trkpt>
      <trkpt lat="44.23939" lon="2.99467">
        <ele>895</ele>
        <time>2019-10-11T13:40:19.000Z</time>
      </trkpt>
      <trkpt lat="44.23939" lon="2.99465">
        <ele>895</ele>
        <time>2019-10-11T13:40:20.000Z</time>
      </trkpt>
      <trkpt lat="44.23938" lon="2.99463">
        <ele>895</ele>
        <time>2019-10-11T13:40:21.000Z</time>
      </trkpt>
      <trkpt lat="44.23938" lon="2.99462">
        <ele>895</ele>
        <time>2019-10-11T13:40:22.000Z</time>
      </trkpt>
      <trkpt lat="44.23938" lon="2.9946">
        <ele>895</ele>
        <time>2019-10-11T13:40:23.000Z</time>
      </trkpt>
      <trkpt lat="44.23938" lon="2.99459">
        <ele>895</ele>
        <time>2019-10-11T13:40:24.000Z</time>
      </trkpt>
      <trkpt lat="44.23938" lon="2.99457">
        <ele>894</ele>
        <time>2019-10-11T13:40:25.000Z</time>
      </trkpt>
      <trkpt lat="44.23938" lon="2.99456">
        <ele>894</ele>
        <time>2019-10-11T13:40:26.000Z</time>
      </trkpt>
      <trkpt lat="44.23939" lon="2.99455">
        <ele>894</ele>
        <time>2019-10-11T13:40:27.000Z</time>
      </trkpt>
      <trkpt lat="44.2394" lon="2.99454">
        <ele>894</ele>
        <time>2019-10-11T13:40:28.000Z</time>
      </trkpt>
      <trkpt lat="44.2394" lon="2.99453">
        <ele>894</ele>
        <time>2019-10-11T13:40:29.000Z</time>
      </trkpt>
      <trkpt lat="44.23941" lon="2.99453">
        <ele>894</ele>
        <time>2019-10-11T13:40:30.000Z</time>
      </trkpt>
      <trkpt lat="44.23942" lon="2.99452">
        <ele>895</ele>
        <time>2019-10-11T13:40:31.000Z</time>
      </trkpt>
      <trkpt lat="44.23943" lon="2.99451">
        <ele>895</ele>
        <time>2019-10-11T13:40:32.000Z</time>
      </trkpt>
      <trkpt lat="44.23944" lon="2.99451">
        <ele>895</ele>
        <time>2019-10-11T13:40:33.000Z</time>
      </trkpt>
      <trkpt lat="44.23945" lon="2.99451">
        <ele>895</ele>
        <time>2019-10-11T13:40:34.000Z</time>
      </trkpt>
      <trkpt lat="44.23946" lon="2.9945">
        <ele>895</ele>
        <time>2019-10-11T13:40:35.000Z</time>
      </trkpt>
      <trkpt lat="44.23946" lon="2.9945">
        <ele>895</ele>
        <time>2019-10-11T13:40:36.000Z</time>
      </trkpt>
      <trkpt lat="44.23947" lon="2.9945">
        <ele>895</ele>
        <time>2019-10-11T13:40:37.000Z</time>
      </trkpt>
      <trkpt lat="44.23948" lon="2.9945">
        <ele>895</ele>
        <time>2019-10-11T13:40:38.000Z</time>
      </trkpt>
      <trkpt lat="44.23949" lon="2.9945">
        <ele>895</ele>
        <time>2019-10-11T13:40:39.000Z</time>
      </trkpt>
      <trkpt lat="44.2395" lon="2.9945">
        <ele>895</ele>
        <time>2019-10-11T13:40:40.000Z</time>
      </trkpt>
      <trkpt lat="44.23951" lon="2.9945">
        <ele>895</ele>
        <time>2019-10-11T13:40:41.000Z</time>
      </trkpt>
      <trkpt lat="44.23953" lon="2.9945">
        <ele>895</ele>
        <time>2019-10-11T13:40:42.000Z</time>
      </trkpt>
      <trkpt lat="44.23954" lon="2.9945">
        <ele>894</ele>
        <time>2019-10-11T13:40:43.000Z</time>
      </trkpt>
      <trkpt lat="44.23955" lon="2.9945">
        <ele>894</ele>
        <time>2019-10-11T13:40:44.000Z</time>
      </trkpt>
      <trkpt lat="44.23957" lon="2.9945">
        <ele>894</ele>
        <time>2019-10-11T13:40:45.000Z</time>
      </trkpt>
      <trkpt lat="44.23958" lon="2.99449">
        <ele>894</ele>
        <time>2019-10-11T13:40:46.000Z</time>
      </trkpt>
      <trkpt lat="44.2396" lon="2.99449">
        <ele>894</ele>
        <time>2019-10-11T13:40:47.000Z</time>
      </trkpt>
      <trkpt lat="44.23961" lon="2.99449">
        <ele>894</ele>
        <time>2019-10-11T13:40:48.000Z</time>
      </trkpt>
      <trkpt lat="44.23963" lon="2.99449">
        <ele>894</ele>
        <time>2019-10-11T13:40:49.000Z</time>
      </trkpt>
      <trkpt lat="44.23964" lon="2.99449">
        <ele>893</ele>
        <time>2019-10-11T13:40:50.000Z</time>
      </trkpt>
      <trkpt lat="44.23966" lon="2.99448">
        <ele>893</ele>
        <time>2019-10-11T13:40:51.000Z</time>
      </trkpt>
      <trkpt lat="44.23967" lon="2.99448">
        <ele>893</ele>
        <time>2019-10-11T13:40:52.000Z</time>
      </trkpt>
      <trkpt lat="44.23969" lon="2.99448">
        <ele>893</ele>
        <time>2019-10-11T13:40:53.000Z</time>
      </trkpt>
      <trkpt lat="44.2397" lon="2.99448">
        <ele>893</ele>
        <time>2019-10-11T13:40:54.000Z</time>
      </trkpt>
      <trkpt lat="44.23972" lon="2.99448">
        <ele>893</ele>
        <time>2019-10-11T13:40:55.000Z</time>
      </trkpt>
      <trkpt lat="44.23974" lon="2.99448">
        <ele>893</ele>
        <time>2019-10-11T13:40:56.000Z</time>
      </trkpt>
      <trkpt lat="44.23975" lon="2.99448">
        <ele>893</ele>
        <time>2019-10-11T13:40:57.000Z</time>
      </trkpt>
      <trkpt lat="44.23977" lon="2.99448">
        <ele>893</ele>
        <time>2019-10-11T13:40:58.000Z</time>
      </trkpt>
      <trkpt lat="44.23978" lon="2.99448">
        <ele>893</ele>
        <time>2019-10-11T13:40:59.000Z</time>
      </trkpt>
      <trkpt lat="44.2398" lon="2.99447">
        <ele>893</ele>
        <time>2019-10-11T13:41:00.000Z</time>
      </trkpt>
      <trkpt lat="44.23981" lon="2.99447">
        <ele>893</ele>
        <time>2019-10-11T13:41:01.000Z</time>
      </trkpt>
      <trkpt lat="44.23983" lon="2.99447">
        <ele>893</ele>
        <time>2019-10-11T13:41:02.000Z</time>
      </trkpt>
      <trkpt lat="44.23984" lon="2.99447">
        <ele>893</ele>
        <time>2019-10-11T13:41:03.000Z</time>
      </trkpt>
      <trkpt lat="44.23985" lon="2.99448">
        <ele>893</ele>
        <time>2019-10-11T13:41:04.000Z</time>
      </trkpt>
      <trkpt lat="44.23987" lon="2.99448">
        <ele>893</ele>
        <time>2019-10-11T13:41:05.000Z</time>
      </trkpt>
      <trkpt lat="44.23988" lon="2.99448">
        <ele>892</ele>
        <time>2019-10-11T13:41:06.000Z</time>
      </trkpt>
      <trkpt lat="44.23989" lon="2.99448">
        <ele>892</ele>
        <time>2019-10-11T13:41:07.000Z</time>
      </trkpt>
      <trkpt lat="44.2399" lon="2.99449">
        <ele>892</ele>
        <time>2019-10-11T13:41:08.000Z</time>
      </trkpt>
      <trkpt lat="44.23991" lon="2.9945">
        <ele>892</ele>
        <time>2019-10-11T13:41:09.000Z</time>
      </trkpt>
      <trkpt lat="44.23992" lon="2.9945">
        <ele>892</ele>
        <time>2019-10-11T13:41:10.000Z</time>
      </trkpt>
      <trkpt lat="44.23993" lon="2.9945">
        <ele>892</ele>
        <time>2019-10-11T13:41:11.000Z</time>
      </trkpt>
      <trkpt lat="44.23995" lon="2.9945">
        <ele>892</ele>
        <time>2019-10-11T13:41:12.000Z</time>
      </trkpt>
      <trkpt lat="44.23997" lon="2.9945">
        <ele>892</ele>
        <time>2019-10-11T13:41:13.000Z</time>
      </trkpt>
      <trkpt lat="44.23998" lon="2.9945">
        <ele>892</ele>
        <time>2019-10-11T13:41:14.000Z</time>
      </trkpt>
      <trkpt lat="44.24" lon="2.9945">
        <ele>892</ele>
        <time>2019-10-11T13:41:15.000Z</time>
      </trkpt>
      <trkpt lat="44.24001" lon="2.9945">
        <ele>892</ele>
        <time>2019-10-11T13:41:16.000Z</time>
      </trkpt>
      <trkpt lat="44.24003" lon="2.9945">
        <ele>891</ele>
        <time>2019-10-11T13:41:17.000Z</time>
      </trkpt>
      <trkpt lat="44.24005" lon="2.9945">
        <ele>891</ele>
        <time>2019-10-11T13:41:18.000Z</time>
      </trkpt>
      <trkpt lat="44.24007" lon="2.99451">
        <ele>891</ele>
        <time>2019-10-11T13:41:19.000Z</time>
      </trkpt>
      <trkpt lat="44.24008" lon="2.99451">
        <ele>891</ele>
        <time>2019-10-11T13:41:20.000Z</time>
      </trkpt>
      <trkpt lat="44.2401" lon="2.99451">
        <ele>891</ele>
        <time>2019-10-11T13:41:21.000Z</time>
      </trkpt>
      <trkpt lat="44.24011" lon="2.99451">
        <ele>891</ele>
        <time>2019-10-11T13:41:22.000Z</time>
      </trkpt>
      <trkpt lat="44.24013" lon="2.99451">
        <ele>891</ele>
        <time>2019-10-11T13:41:23.000Z</time>
      </trkpt>
      <trkpt lat="44.24015" lon="2.99451">
        <ele>891</ele>
        <time>2019-10-11T13:41:24.000Z</time>
      </trkpt>
      <trkpt lat="44.24016" lon="2.9945">
        <ele>891</ele>
        <time>2019-10-11T13:41:25.000Z</time>
      </trkpt>
      <trkpt lat="44.24018" lon="2.9945">
        <ele>891</ele>
        <time>2019-10-11T13:41:26.000Z</time>
      </trkpt>
      <trkpt lat="44.24019" lon="2.9945">
        <ele>891</ele>
        <time>2019-10-11T13:41:27.000Z</time>
      </trkpt>
      <trkpt lat="44.24021" lon="2.99449">
        <ele>891</ele>
        <time>2019-10-11T13:41:28.000Z</time>
      </trkpt>
      <trkpt lat="44.24022" lon="2.99449">
        <ele>891</ele>
        <time>2019-10-11T13:41:29.000Z</time>
      </trkpt>
      <trkpt lat="44.24023" lon="2.99448">
        <ele>891</ele>
        <time>2019-10-11T13:41:30.000Z</time>
      </trkpt>
      <trkpt lat="44.24024" lon="2.99448">
        <ele>891</ele>
        <time>2019-10-11T13:41:31.000Z</time>
      </trkpt>
      <trkpt lat="44.24025" lon="2.99447">
        <ele>891</ele>
        <time>2019-10-11T13:41:32.000Z</time>
      </trkpt>
      <trkpt lat="44.24026" lon="2.99447">
        <ele>891</ele>
        <time>2019-10-11T13:41:33.000Z</time>
      </trkpt>
      <trkpt lat="44.24027" lon="2.99446">
        <ele>891</ele>
        <time>2019-10-11T13:41:34.000Z</time>
      </trkpt>
      <trkpt lat="44.24028" lon="2.99445">
        <ele>891</ele>
        <time>2019-10-11T13:41:35.000Z</time>
      </trkpt>
      <trkpt lat="44.24029" lon="2.99443">
        <ele>891</ele>
        <time>2019-10-11T13:41:36.000Z</time>
      </trkpt>
      <trkpt lat="44.24029" lon="2.99442">
        <ele>891</ele>
        <time>2019-10-11T13:41:37.000Z</time>
      </trkpt>
      <trkpt lat="44.2403" lon="2.99441">
        <ele>891</ele>
        <time>2019-10-11T13:41:38.000Z</time>
      </trkpt>
      <trkpt lat="44.24031" lon="2.9944">
        <ele>891</ele>
        <time>2019-10-11T13:41:39.000Z</time>
      </trkpt>
      <trkpt lat="44.24032" lon="2.99439">
        <ele>890</ele>
        <time>2019-10-11T13:41:40.000Z</time>
      </trkpt>
      <trkpt lat="44.24033" lon="2.99437">
        <ele>890</ele>
        <time>2019-10-11T13:41:41.000Z</time>
      </trkpt>
      <trkpt lat="44.24034" lon="2.99436">
        <ele>890</ele>
        <time>2019-10-11T13:41:42.000Z</time>
      </trkpt>
      <trkpt lat="44.24034" lon="2.99435">
        <ele>890</ele>
        <time>2019-10-11T13:41:43.000Z</time>
      </trkpt>
      <trkpt lat="44.24035" lon="2.99434">
        <ele>889</ele>
        <time>2019-10-11T13:41:44.000Z</time>
      </trkpt>
      <trkpt lat="44.24036" lon="2.99432">
        <ele>889</ele>
        <time>2019-10-11T13:41:45.000Z</time>
      </trkpt>
      <trkpt lat="44.24037" lon="2.99431">
        <ele>889</ele>
        <time>2019-10-11T13:41:46.000Z</time>
      </trkpt>
      <trkpt lat="44.24038" lon="2.99429">
        <ele>889</ele>
        <time>2019-10-11T13:41:47.000Z</time>
      </trkpt>
      <trkpt lat="44.24039" lon="2.99428">
        <ele>889</ele>
        <time>2019-10-11T13:41:48.000Z</time>
      </trkpt>
      <trkpt lat="44.2404" lon="2.99427">
        <ele>888</ele>
        <time>2019-10-11T13:41:49.000Z</time>
      </trkpt>
      <trkpt lat="44.24041" lon="2.99425">
        <ele>888</ele>
        <time>2019-10-11T13:41:50.000Z</time>
      </trkpt>
      <trkpt lat="44.24042" lon="2.99424">
        <ele>888</ele>
        <time>2019-10-11T13:41:51.000Z</time>
      </trkpt>
      <trkpt lat="44.24043" lon="2.99422">
        <ele>887</ele>
        <time>2019-10-11T13:41:52.000Z</time>
      </trkpt>
      <trkpt lat="44.24044" lon="2.9942">
        <ele>887</ele>
        <time>2019-10-11T13:41:53.000Z</time>
      </trkpt>
      <trkpt lat="44.24045" lon="2.99419">
        <ele>887</ele>
        <time>2019-10-11T13:41:54.000Z</time>
      </trkpt>
      <trkpt lat="44.24046" lon="2.99417">
        <ele>886</ele>
        <time>2019-10-11T13:41:55.000Z</time>
      </trkpt>
      <trkpt lat="44.24047" lon="2.99416">
        <ele>886</ele>
        <time>2019-10-11T13:41:56.000Z</time>
      </trkpt>
      <trkpt lat="44.24048" lon="2.99414">
        <ele>886</ele>
        <time>2019-10-11T13:41:57.000Z</time>
      </trkpt>
      <trkpt lat="44.24049" lon="2.99413">
        <ele>886</ele>
        <time>2019-10-11T13:41:58.000Z</time>
      </trkpt>
      <trkpt lat="44.24049" lon="2.99411">
        <ele>886</ele>
        <time>2019-10-11T13:41:59.000Z</time>
      </trkpt>
      <trkpt lat="44.24049" lon="2.99409">
        <ele>886</ele>
        <time>2019-10-11T13:42:00.000Z</time>
      </trkpt>
      <trkpt lat="44.24049" lon="2.99407">
        <ele>885</ele>
        <time>2019-10-11T13:42:01.000Z</time>
      </trkpt>
      <trkpt lat="44.24049" lon="2.99406">
        <ele>885</ele>
        <time>2019-10-11T13:42:02.000Z</time>
      </trkpt>
      <trkpt lat="44.24049" lon="2.99404">
        <ele>885</ele>
        <time>2019-10-11T13:42:03.000Z</time>
      </trkpt>
      <trkpt lat="44.24049" lon="2.99402">
        <ele>885</ele>
        <time>2019-10-11T13:42:04.000Z</time>
      </trkpt>
      <trkpt lat="44.24049" lon="2.99398">
        <ele>885</ele>
        <time>2019-10-11T13:42:05.000Z</time>
      </trkpt>
      <trkpt lat="44.24049" lon="2.99394">
        <ele>885</ele>
        <time>2019-10-11T13:42:06.000Z</time>
      </trkpt>
      <trkpt lat="44.2405" lon="2.99391">
        <ele>885</ele>
        <time>2019-10-11T13:42:07.000Z</time>
      </trkpt>
      <trkpt lat="44.24051" lon="2.99387">
        <ele>884</ele>
        <time>2019-10-11T13:42:08.000Z</time>
      </trkpt>
      <trkpt lat="44.24052" lon="2.99384">
        <ele>884</ele>
        <time>2019-10-11T13:42:09.000Z</time>
      </trkpt>
      <trkpt lat="44.24053" lon="2.9938">
        <ele>884</ele>
        <time>2019-10-11T13:42:10.000Z</time>
      </trkpt>
      <trkpt lat="44.24054" lon="2.99377">
        <ele>884</ele>
        <time>2019-10-11T13:42:11.000Z</time>
      </trkpt>
      <trkpt lat="44.24054" lon="2.99375">
        <ele>884</ele>
        <time>2019-10-11T13:42:12.000Z</time>
      </trkpt>
      <trkpt lat="44.24055" lon="2.99372">
        <ele>884</ele>
        <time>2019-10-11T13:42:13.000Z</time>
      </trkpt>
      <trkpt lat="44.24056" lon="2.9937">
        <ele>884</ele>
        <time>2019-10-11T13:42:14.000Z</time>
      </trkpt>
      <trkpt lat="44.24057" lon="2.99368">
        <ele>884</ele>
        <time>2019-10-11T13:42:15.000Z</time>
      </trkpt>
      <trkpt lat="44.24058" lon="2.99366">
        <ele>884</ele>
        <time>2019-10-11T13:42:16.000Z</time>
      </trkpt>
      <trkpt lat="44.24059" lon="2.99365">
        <ele>883</ele>
        <time>2019-10-11T13:42:17.000Z</time>
      </trkpt>
      <trkpt lat="44.2406" lon="2.99363">
        <ele>883</ele>
        <time>2019-10-11T13:42:18.000Z</time>
      </trkpt>
      <trkpt lat="44.24061" lon="2.99361">
        <ele>883</ele>
        <time>2019-10-11T13:42:19.000Z</time>
      </trkpt>
      <trkpt lat="44.24063" lon="2.9936">
        <ele>883</ele>
        <time>2019-10-11T13:42:20.000Z</time>
      </trkpt>
      <trkpt lat="44.24064" lon="2.99357">
        <ele>883</ele>
        <time>2019-10-11T13:42:21.000Z</time>
      </trkpt>
      <trkpt lat="44.24065" lon="2.99355">
        <ele>883</ele>
        <time>2019-10-11T13:42:22.000Z</time>
      </trkpt>
      <trkpt lat="44.24066" lon="2.99352">
        <ele>883</ele>
        <time>2019-10-11T13:42:23.000Z</time>
      </trkpt>
      <trkpt lat="44.24066" lon="2.99349">
        <ele>883</ele>
        <time>2019-10-11T13:42:24.000Z</time>
      </trkpt>
      <trkpt lat="44.24066" lon="2.99344">
        <ele>882</ele>
        <time>2019-10-11T13:42:25.000Z</time>
      </trkpt>
      <trkpt lat="44.24065" lon="2.99339">
        <ele>882</ele>
        <time>2019-10-11T13:42:26.000Z</time>
      </trkpt>
      <trkpt lat="44.24064" lon="2.99334">
        <ele>882</ele>
        <time>2019-10-11T13:42:27.000Z</time>
      </trkpt>
      <trkpt lat="44.24063" lon="2.99328">
        <ele>882</ele>
        <time>2019-10-11T13:42:28.000Z</time>
      </trkpt>
      <trkpt lat="44.24061" lon="2.99322">
        <ele>882</ele>
        <time>2019-10-11T13:42:29.000Z</time>
      </trkpt>
      <trkpt lat="44.24059" lon="2.99316">
        <ele>882</ele>
        <time>2019-10-11T13:42:30.000Z</time>
      </trkpt>
      <trkpt lat="44.24058" lon="2.9931">
        <ele>882</ele>
        <time>2019-10-11T13:42:31.000Z</time>
      </trkpt>
      <trkpt lat="44.24056" lon="2.99304">
        <ele>882</ele>
        <time>2019-10-11T13:42:32.000Z</time>
      </trkpt>
      <trkpt lat="44.24054" lon="2.99298">
        <ele>882</ele>
        <time>2019-10-11T13:42:33.000Z</time>
      </trkpt>
      <trkpt lat="44.24051" lon="2.99292">
        <ele>882</ele>
        <time>2019-10-11T13:42:34.000Z</time>
      </trkpt>
      <trkpt lat="44.24049" lon="2.99285">
        <ele>882</ele>
        <time>2019-10-11T13:42:35.000Z</time>
      </trkpt>
      <trkpt lat="44.24047" lon="2.99279">
        <ele>882</ele>
        <time>2019-10-11T13:42:36.000Z</time>
      </trkpt>
      <trkpt lat="44.24044" lon="2.99273">
        <ele>882</ele>
        <time>2019-10-11T13:42:37.000Z</time>
      </trkpt>
      <trkpt lat="44.24042" lon="2.99267">
        <ele>882</ele>
        <time>2019-10-11T13:42:38.000Z</time>
      </trkpt>
      <trkpt lat="44.2404" lon="2.9926">
        <ele>882</ele>
        <time>2019-10-11T13:42:39.000Z</time>
      </trkpt>
      <trkpt lat="44.24038" lon="2.99253">
        <ele>882</ele>
        <time>2019-10-11T13:42:40.000Z</time>
      </trkpt>
      <trkpt lat="44.24035" lon="2.99247">
        <ele>882</ele>
        <time>2019-10-11T13:42:41.000Z</time>
      </trkpt>
      <trkpt lat="44.24033" lon="2.9924">
        <ele>882</ele>
        <time>2019-10-11T13:42:42.000Z</time>
      </trkpt>
      <trkpt lat="44.24031" lon="2.99234">
        <ele>882</ele>
        <time>2019-10-11T13:42:43.000Z</time>
      </trkpt>
      <trkpt lat="44.24029" lon="2.99227">
        <ele>882</ele>
        <time>2019-10-11T13:42:44.000Z</time>
      </trkpt>
      <trkpt lat="44.24026" lon="2.99221">
        <ele>882</ele>
        <time>2019-10-11T13:42:45.000Z</time>
      </trkpt>
      <trkpt lat="44.24023" lon="2.99215">
        <ele>882</ele>
        <time>2019-10-11T13:42:46.000Z</time>
      </trkpt>
      <trkpt lat="44.24021" lon="2.99208">
        <ele>882</ele>
        <time>2019-10-11T13:42:47.000Z</time>
      </trkpt>
      <trkpt lat="44.24018" lon="2.99202">
        <ele>882</ele>
        <time>2019-10-11T13:42:48.000Z</time>
      </trkpt>
      <trkpt lat="44.24016" lon="2.99196">
        <ele>882</ele>
        <time>2019-10-11T13:42:49.000Z</time>
      </trkpt>
      <trkpt lat="44.24013" lon="2.99189">
        <ele>882</ele>
        <time>2019-10-11T13:42:50.000Z</time>
      </trkpt>
      <trkpt lat="44.2401" lon="2.99183">
        <ele>882</ele>
        <time>2019-10-11T13:42:51.000Z</time>
      </trkpt>
      <trkpt lat="44.24008" lon="2.99176">
        <ele>882</ele>
        <time>2019-10-11T13:42:52.000Z</time>
      </trkpt>
      <trkpt lat="44.24006" lon="2.9917">
        <ele>882</ele>
        <time>2019-10-11T13:42:53.000Z</time>
      </trkpt>
      <trkpt lat="44.24004" lon="2.99163">
        <ele>882</ele>
        <time>2019-10-11T13:42:54.000Z</time>
      </trkpt>
      <trkpt lat="44.24002" lon="2.99157">
        <ele>882</ele>
        <time>2019-10-11T13:42:55.000Z</time>
      </trkpt>
      <trkpt lat="44.24" lon="2.9915">
        <ele>882</ele>
        <time>2019-10-11T13:42:56.000Z</time>
      </trkpt>
      <trkpt lat="44.23999" lon="2.99143">
        <ele>882</ele>
        <time>2019-10-11T13:42:57.000Z</time>
      </trkpt>
      <trkpt lat="44.23997" lon="2.99136">
        <ele>882</ele>
        <time>2019-10-11T13:42:58.000Z</time>
      </trkpt>
      <trkpt lat="44.23996" lon="2.9913">
        <ele>882</ele>
        <time>2019-10-11T13:42:59.000Z</time>
      </trkpt>
      <trkpt lat="44.23994" lon="2.99124">
        <ele>882</ele>
        <time>2019-10-11T13:43:00.000Z</time>
      </trkpt>
      <trkpt lat="44.23993" lon="2.99117">
        <ele>882</ele>
        <time>2019-10-11T13:43:01.000Z</time>
      </trkpt>
      <trkpt lat="44.23992" lon="2.99111">
        <ele>882</ele>
        <time>2019-10-11T13:43:02.000Z</time>
      </trkpt>
      <trkpt lat="44.23991" lon="2.99104">
        <ele>882</ele>
        <time>2019-10-11T13:43:03.000Z</time>
      </trkpt>
      <trkpt lat="44.2399" lon="2.99097">
        <ele>882</ele>
        <time>2019-10-11T13:43:04.000Z</time>
      </trkpt>
      <trkpt lat="44.2399" lon="2.99091">
        <ele>882</ele>
        <time>2019-10-11T13:43:05.000Z</time>
      </trkpt>
      <trkpt lat="44.23989" lon="2.99084">
        <ele>882</ele>
        <time>2019-10-11T13:43:06.000Z</time>
      </trkpt>
      <trkpt lat="44.23988" lon="2.99078">
        <ele>882</ele>
        <time>2019-10-11T13:43:07.000Z</time>
      </trkpt>
      <trkpt lat="44.23988" lon="2.99071">
        <ele>882</ele>
        <time>2019-10-11T13:43:08.000Z</time>
      </trkpt>
      <trkpt lat="44.23987" lon="2.99064">
        <ele>882</ele>
        <time>2019-10-11T13:43:09.000Z</time>
      </trkpt>
      <trkpt lat="44.23986" lon="2.99058">
        <ele>882</ele>
        <time>2019-10-11T13:43:10.000Z</time>
      </trkpt>
      <trkpt lat="44.23985" lon="2.99052">
        <ele>882</ele>
        <time>2019-10-11T13:43:11.000Z</time>
      </trkpt>
      <trkpt lat="44.23984" lon="2.99046">
        <ele>882</ele>
        <time>2019-10-11T13:43:12.000Z</time>
      </trkpt>
      <trkpt lat="44.23983" lon="2.9904">
        <ele>882</ele>
        <time>2019-10-11T13:43:13.000Z</time>
      </trkpt>
      <trkpt lat="44.23981" lon="2.99033">
        <ele>882</ele>
        <time>2019-10-11T13:43:14.000Z</time>
      </trkpt>
      <trkpt lat="44.23979" lon="2.99027">
        <ele>882</ele>
        <time>2019-10-11T13:43:15.000Z</time>
      </trkpt>
      <trkpt lat="44.23978" lon="2.99021">
        <ele>882</ele>
        <time>2019-10-11T13:43:16.000Z</time>
      </trkpt>
      <trkpt lat="44.23976" lon="2.99015">
        <ele>882</ele>
        <time>2019-10-11T13:43:17.000Z</time>
      </trkpt>
      <trkpt lat="44.23974" lon="2.99009">
        <ele>882</ele>
        <time>2019-10-11T13:43:18.000Z</time>
      </trkpt>
      <trkpt lat="44.23973" lon="2.99002">
        <ele>882</ele>
        <time>2019-10-11T13:43:19.000Z</time>
      </trkpt>
      <trkpt lat="44.23971" lon="2.98996">
        <ele>883</ele>
        <time>2019-10-11T13:43:20.000Z</time>
      </trkpt>
      <trkpt lat="44.2397" lon="2.9899">
        <ele>883</ele>
        <time>2019-10-11T13:43:21.000Z</time>
      </trkpt>
      <trkpt lat="44.23968" lon="2.98984">
        <ele>883</ele>
        <time>2019-10-11T13:43:22.000Z</time>
      </trkpt>
      <trkpt lat="44.23966" lon="2.98978">
        <ele>883</ele>
        <time>2019-10-11T13:43:23.000Z</time>
      </trkpt>
      <trkpt lat="44.23965" lon="2.98972">
        <ele>883</ele>
        <time>2019-10-11T13:43:24.000Z</time>
      </trkpt>
      <trkpt lat="44.23963" lon="2.98966">
        <ele>883</ele>
        <time>2019-10-11T13:43:25.000Z</time>
      </trkpt>
      <trkpt lat="44.23961" lon="2.9896">
        <ele>883</ele>
        <time>2019-10-11T13:43:26.000Z</time>
      </trkpt>
      <trkpt lat="44.23959" lon="2.98954">
        <ele>883</ele>
        <time>2019-10-11T13:43:27.000Z</time>
      </trkpt>
      <trkpt lat="44.23957" lon="2.98948">
        <ele>883</ele>
        <time>2019-10-11T13:43:28.000Z</time>
      </trkpt>
      <trkpt lat="44.23956" lon="2.98942">
        <ele>883</ele>
        <time>2019-10-11T13:43:29.000Z</time>
      </trkpt>
      <trkpt lat="44.23955" lon="2.98937">
        <ele>883</ele>
        <time>2019-10-11T13:43:30.000Z</time>
      </trkpt>
      <trkpt lat="44.23953" lon="2.98932">
        <ele>883</ele>
        <time>2019-10-11T13:43:31.000Z</time>
      </trkpt>
      <trkpt lat="44.23953" lon="2.98928">
        <ele>884</ele>
        <time>2019-10-11T13:43:32.000Z</time>
      </trkpt>
      <trkpt lat="44.23952" lon="2.98925">
        <ele>884</ele>
        <time>2019-10-11T13:43:33.000Z</time>
      </trkpt>
      <trkpt lat="44.23951" lon="2.98923">
        <ele>884</ele>
        <time>2019-10-11T13:43:34.000Z</time>
      </trkpt>
      <trkpt lat="44.23951" lon="2.98921">
        <ele>884</ele>
        <time>2019-10-11T13:43:35.000Z</time>
      </trkpt>
      <trkpt lat="44.2395" lon="2.98919">
        <ele>884</ele>
        <time>2019-10-11T13:43:36.000Z</time>
      </trkpt>
      <trkpt lat="44.23949" lon="2.98917">
        <ele>885</ele>
        <time>2019-10-11T13:43:37.000Z</time>
      </trkpt>
      <trkpt lat="44.23949" lon="2.98915">
        <ele>885</ele>
        <time>2019-10-11T13:43:38.000Z</time>
      </trkpt>
      <trkpt lat="44.23948" lon="2.98913">
        <ele>885</ele>
        <time>2019-10-11T13:43:39.000Z</time>
      </trkpt>
      <trkpt lat="44.23947" lon="2.98911">
        <ele>885</ele>
        <time>2019-10-11T13:43:40.000Z</time>
      </trkpt>
      <trkpt lat="44.23947" lon="2.98909">
        <ele>885</ele>
        <time>2019-10-11T13:43:41.000Z</time>
      </trkpt>
      <trkpt lat="44.23946" lon="2.98907">
        <ele>885</ele>
        <time>2019-10-11T13:43:42.000Z</time>
      </trkpt>
      <trkpt lat="44.23945" lon="2.98905">
        <ele>885</ele>
        <time>2019-10-11T13:43:43.000Z</time>
      </trkpt>
      <trkpt lat="44.23944" lon="2.98904">
        <ele>885</ele>
        <time>2019-10-11T13:43:44.000Z</time>
      </trkpt>
      <trkpt lat="44.23943" lon="2.98902">
        <ele>885</ele>
        <time>2019-10-11T13:43:45.000Z</time>
      </trkpt>
      <trkpt lat="44.23942" lon="2.98901">
        <ele>885</ele>
        <time>2019-10-11T13:43:46.000Z</time>
      </trkpt>
      <trkpt lat="44.23941" lon="2.98899">
        <ele>885</ele>
        <time>2019-10-11T13:43:47.000Z</time>
      </trkpt>
      <trkpt lat="44.2394" lon="2.98898">
        <ele>885</ele>
        <time>2019-10-11T13:43:48.000Z</time>
      </trkpt>
      <trkpt lat="44.23939" lon="2.98896">
        <ele>885</ele>
        <time>2019-10-11T13:43:49.000Z</time>
      </trkpt>
      <trkpt lat="44.23938" lon="2.98895">
        <ele>885</ele>
        <time>2019-10-11T13:43:50.000Z</time>
      </trkpt>
      <trkpt lat="44.23937" lon="2.98894">
        <ele>885</ele>
        <time>2019-10-11T13:43:51.000Z</time>
      </trkpt>
      <trkpt lat="44.23937" lon="2.98892">
        <ele>885</ele>
        <time>2019-10-11T13:43:52.000Z</time>
      </trkpt>
      <trkpt lat="44.23936" lon="2.9889">
        <ele>885</ele>
        <time>2019-10-11T13:43:53.000Z</time>
      </trkpt>
      <trkpt lat="44.23936" lon="2.98888">
        <ele>885</ele>
        <time>2019-10-11T13:43:54.000Z</time>
      </trkpt>
      <trkpt lat="44.23935" lon="2.98886">
        <ele>885</ele>
        <time>2019-10-11T13:43:55.000Z</time>
      </trkpt>
      <trkpt lat="44.23933" lon="2.98885">
        <ele>885</ele>
        <time>2019-10-11T13:43:56.000Z</time>
      </trkpt>
      <trkpt lat="44.23932" lon="2.98883">
        <ele>885</ele>
        <time>2019-10-11T13:43:57.000Z</time>
      </trkpt>
      <trkpt lat="44.23931" lon="2.98881">
        <ele>885</ele>
        <time>2019-10-11T13:43:58.000Z</time>
      </trkpt>
      <trkpt lat="44.2393" lon="2.9888">
        <ele>885</ele>
        <time>2019-10-11T13:43:59.000Z</time>
      </trkpt>
      <trkpt lat="44.23929" lon="2.98878">
        <ele>884</ele>
        <time>2019-10-11T13:44:00.000Z</time>
      </trkpt>
      <trkpt lat="44.23928" lon="2.98876">
        <ele>884</ele>
        <time>2019-10-11T13:44:01.000Z</time>
      </trkpt>
      <trkpt lat="44.23926" lon="2.98875">
        <ele>884</ele>
        <time>2019-10-11T13:44:02.000Z</time>
      </trkpt>
      <trkpt lat="44.23925" lon="2.98874">
        <ele>884</ele>
        <time>2019-10-11T13:44:03.000Z</time>
      </trkpt>
      <trkpt lat="44.23924" lon="2.98872">
        <ele>883</ele>
        <time>2019-10-11T13:44:04.000Z</time>
      </trkpt>
      <trkpt lat="44.23923" lon="2.98872">
        <ele>883</ele>
        <time>2019-10-11T13:44:05.000Z</time>
      </trkpt>
      <trkpt lat="44.23922" lon="2.98871">
        <ele>883</ele>
        <time>2019-10-11T13:44:06.000Z</time>
      </trkpt>
      <trkpt lat="44.2392" lon="2.9887">
        <ele>883</ele>
        <time>2019-10-11T13:44:07.000Z</time>
      </trkpt>
      <trkpt lat="44.23919" lon="2.9887">
        <ele>882</ele>
        <time>2019-10-11T13:44:08.000Z</time>
      </trkpt>
      <trkpt lat="44.23917" lon="2.9887">
        <ele>882</ele>
        <time>2019-10-11T13:44:09.000Z</time>
      </trkpt>
      <trkpt lat="44.23916" lon="2.9887">
        <ele>882</ele>
        <time>2019-10-11T13:44:10.000Z</time>
      </trkpt>
      <trkpt lat="44.23914" lon="2.9887">
        <ele>882</ele>
        <time>2019-10-11T13:44:11.000Z</time>
      </trkpt>
      <trkpt lat="44.23912" lon="2.9887">
        <ele>882</ele>
        <time>2019-10-11T13:44:12.000Z</time>
      </trkpt>
      <trkpt lat="44.23911" lon="2.9887">
        <ele>882</ele>
        <time>2019-10-11T13:44:13.000Z</time>
      </trkpt>
      <trkpt lat="44.2391" lon="2.98871">
        <ele>882</ele>
        <time>2019-10-11T13:44:14.000Z</time>
      </trkpt>
      <trkpt lat="44.23908" lon="2.98872">
        <ele>882</ele>
        <time>2019-10-11T13:44:15.000Z</time>
      </trkpt>
      <trkpt lat="44.23907" lon="2.98872">
        <ele>882</ele>
        <time>2019-10-11T13:44:16.000Z</time>
      </trkpt>
      <trkpt lat="44.23905" lon="2.98873">
        <ele>882</ele>
        <time>2019-10-11T13:44:17.000Z</time>
      </trkpt>
      <trkpt lat="44.23903" lon="2.98873">
        <ele>882</ele>
        <time>2019-10-11T13:44:18.000Z</time>
      </trkpt>
      <trkpt lat="44.23901" lon="2.98874">
        <ele>882</ele>
        <time>2019-10-11T13:44:19.000Z</time>
      </trkpt>
      <trkpt lat="44.239" lon="2.98875">
        <ele>882</ele>
        <time>2019-10-11T13:44:20.000Z</time>
      </trkpt>
      <trkpt lat="44.23898" lon="2.98876">
        <ele>882</ele>
        <time>2019-10-11T13:44:21.000Z</time>
      </trkpt>
      <trkpt lat="44.23897" lon="2.98878">
        <ele>881</ele>
        <time>2019-10-11T13:44:22.000Z</time>
      </trkpt>
      <trkpt lat="44.23895" lon="2.98879">
        <ele>881</ele>
        <time>2019-10-11T13:44:23.000Z</time>
      </trkpt>
      <trkpt lat="44.23893" lon="2.9888">
        <ele>881</ele>
        <time>2019-10-11T13:44:24.000Z</time>
      </trkpt>
      <trkpt lat="44.23891" lon="2.98881">
        <ele>881</ele>
        <time>2019-10-11T13:44:25.000Z</time>
      </trkpt>
      <trkpt lat="44.23889" lon="2.98883">
        <ele>881</ele>
        <time>2019-10-11T13:44:26.000Z</time>
      </trkpt>
      <trkpt lat="44.23888" lon="2.98883">
        <ele>881</ele>
        <time>2019-10-11T13:44:27.000Z</time>
      </trkpt>
      <trkpt lat="44.23886" lon="2.98884">
        <ele>881</ele>
        <time>2019-10-11T13:44:28.000Z</time>
      </trkpt>
      <trkpt lat="44.23884" lon="2.98885">
        <ele>881</ele>
        <time>2019-10-11T13:44:29.000Z</time>
      </trkpt>
      <trkpt lat="44.23883" lon="2.98886">
        <ele>881</ele>
        <time>2019-10-11T13:44:30.000Z</time>
      </trkpt>
      <trkpt lat="44.23881" lon="2.98887">
        <ele>881</ele>
        <time>2019-10-11T13:44:31.000Z</time>
      </trkpt>
      <trkpt lat="44.2388" lon="2.98887">
        <ele>881</ele>
        <time>2019-10-11T13:44:32.000Z</time>
      </trkpt>
      <trkpt lat="44.23879" lon="2.98888">
        <ele>881</ele>
        <time>2019-10-11T13:44:33.000Z</time>
      </trkpt>
      <trkpt lat="44.23877" lon="2.98889">
        <ele>881</ele>
        <time>2019-10-11T13:44:34.000Z</time>
      </trkpt>
      <trkpt lat="44.23876" lon="2.98889">
        <ele>881</ele>
        <time>2019-10-11T13:44:35.000Z</time>
      </trkpt>
      <trkpt lat="44.23875" lon="2.98889">
        <ele>881</ele>
        <time>2019-10-11T13:44:36.000Z</time>
      </trkpt>
      <trkpt lat="44.23873" lon="2.98889">
        <ele>880</ele>
        <time>2019-10-11T13:44:37.000Z</time>
      </trkpt>
      <trkpt lat="44.23872" lon="2.98889">
        <ele>880</ele>
        <time>2019-10-11T13:44:38.000Z</time>
      </trkpt>
      <trkpt lat="44.2387" lon="2.98888">
        <ele>880</ele>
        <time>2019-10-11T13:44:39.000Z</time>
      </trkpt>
      <trkpt lat="44.23869" lon="2.98888">
        <ele>880</ele>
        <time>2019-10-11T13:44:40.000Z</time>
      </trkpt>
      <trkpt lat="44.23868" lon="2.98888">
        <ele>880</ele>
        <time>2019-10-11T13:44:41.000Z</time>
      </trkpt>
      <trkpt lat="44.23867" lon="2.98887">
        <ele>880</ele>
        <time>2019-10-11T13:44:42.000Z</time>
      </trkpt>
      <trkpt lat="44.23866" lon="2.98887">
        <ele>880</ele>
        <time>2019-10-11T13:44:43.000Z</time>
      </trkpt>
      <trkpt lat="44.23864" lon="2.98886">
        <ele>879</ele>
        <time>2019-10-11T13:44:44.000Z</time>
      </trkpt>
      <trkpt lat="44.23863" lon="2.98885">
        <ele>879</ele>
        <time>2019-10-11T13:44:45.000Z</time>
      </trkpt>
      <trkpt lat="44.23862" lon="2.98884">
        <ele>879</ele>
        <time>2019-10-11T13:44:46.000Z</time>
      </trkpt>
      <trkpt lat="44.23861" lon="2.98884">
        <ele>879</ele>
        <time>2019-10-11T13:44:47.000Z</time>
      </trkpt>
      <trkpt lat="44.23859" lon="2.98883">
        <ele>879</ele>
        <time>2019-10-11T13:44:48.000Z</time>
      </trkpt>
      <trkpt lat="44.23858" lon="2.98883">
        <ele>878</ele>
        <time>2019-10-11T13:44:49.000Z</time>
      </trkpt>
      <trkpt lat="44.23856" lon="2.98883">
        <ele>878</ele>
        <time>2019-10-11T13:44:50.000Z</time>
      </trkpt>
      <trkpt lat="44.23855" lon="2.98883">
        <ele>878</ele>
        <time>2019-10-11T13:44:51.000Z</time>
      </trkpt>
      <trkpt lat="44.23854" lon="2.98883">
        <ele>878</ele>
        <time>2019-10-11T13:44:52.000Z</time>
      </trkpt>
      <trkpt lat="44.23852" lon="2.98883">
        <ele>878</ele>
        <time>2019-10-11T13:44:53.000Z</time>
      </trkpt>
      <trkpt lat="44.23851" lon="2.98883">
        <ele>878</ele>
        <time>2019-10-11T13:44:54.000Z</time>
      </trkpt>
      <trkpt lat="44.2385" lon="2.98883">
        <ele>877</ele>
        <time>2019-10-11T13:44:55.000Z</time>
      </trkpt>
      <trkpt lat="44.23849" lon="2.98882">
        <ele>877</ele>
        <time>2019-10-11T13:44:56.000Z</time>
      </trkpt>
      <trkpt lat="44.23848" lon="2.98882">
        <ele>877</ele>
        <time>2019-10-11T13:44:57.000Z</time>
      </trkpt>
      <trkpt lat="44.23847" lon="2.98881">
        <ele>877</ele>
        <time>2019-10-11T13:44:58.000Z</time>
      </trkpt>
      <trkpt lat="44.23845" lon="2.98881">
        <ele>876</ele>
        <time>2019-10-11T13:44:59.000Z</time>
      </trkpt>
      <trkpt lat="44.23844" lon="2.9888">
        <ele>876</ele>
        <time>2019-10-11T13:45:00.000Z</time>
      </trkpt>
      <trkpt lat="44.23843" lon="2.98879">
        <ele>875</ele>
        <time>2019-10-11T13:45:01.000Z</time>
      </trkpt>
      <trkpt lat="44.23841" lon="2.98879">
        <ele>875</ele>
        <time>2019-10-11T13:45:02.000Z</time>
      </trkpt>
      <trkpt lat="44.2384" lon="2.98878">
        <ele>875</ele>
        <time>2019-10-11T13:45:03.000Z</time>
      </trkpt>
      <trkpt lat="44.23839" lon="2.98877">
        <ele>874</ele>
        <time>2019-10-11T13:45:04.000Z</time>
      </trkpt>
      <trkpt lat="44.23838" lon="2.98875">
        <ele>874</ele>
        <time>2019-10-11T13:45:05.000Z</time>
      </trkpt>
      <trkpt lat="44.23836" lon="2.98874">
        <ele>874</ele>
        <time>2019-10-11T13:45:06.000Z</time>
      </trkpt>
      <trkpt lat="44.23835" lon="2.98872">
        <ele>873</ele>
        <time>2019-10-11T13:45:07.000Z</time>
      </trkpt>
      <trkpt lat="44.23834" lon="2.98871">
        <ele>873</ele>
        <time>2019-10-11T13:45:08.000Z</time>
      </trkpt>
      <trkpt lat="44.23833" lon="2.9887">
        <ele>873</ele>
        <time>2019-10-11T13:45:09.000Z</time>
      </trkpt>
      <trkpt lat="44.23831" lon="2.98869">
        <ele>873</ele>
        <time>2019-10-11T13:45:10.000Z</time>
      </trkpt>
      <trkpt lat="44.23829" lon="2.98869">
        <ele>873</ele>
        <time>2019-10-11T13:45:11.000Z</time>
      </trkpt>
      <trkpt lat="44.23828" lon="2.98868">
        <ele>872</ele>
        <time>2019-10-11T13:45:12.000Z</time>
      </trkpt>
      <trkpt lat="44.23826" lon="2.98867">
        <ele>872</ele>
        <time>2019-10-11T13:45:13.000Z</time>
      </trkpt>
      <trkpt lat="44.23825" lon="2.98867">
        <ele>872</ele>
        <time>2019-10-11T13:45:14.000Z</time>
      </trkpt>
      <trkpt lat="44.23824" lon="2.98867">
        <ele>872</ele>
        <time>2019-10-11T13:45:15.000Z</time>
      </trkpt>
      <trkpt lat="44.23822" lon="2.98866">
        <ele>872</ele>
        <time>2019-10-11T13:45:16.000Z</time>
      </trkpt>
      <trkpt lat="44.23821" lon="2.98866">
        <ele>871</ele>
        <time>2019-10-11T13:45:17.000Z</time>
      </trkpt>
      <trkpt lat="44.2382" lon="2.98865">
        <ele>871</ele>
        <time>2019-10-11T13:45:18.000Z</time>
      </trkpt>
      <trkpt lat="44.23818" lon="2.98865">
        <ele>871</ele>
        <time>2019-10-11T13:45:19.000Z</time>
      </trkpt>
      <trkpt lat="44.23817" lon="2.98864">
        <ele>871</ele>
        <time>2019-10-11T13:45:20.000Z</time>
      </trkpt>
      <trkpt lat="44.23816" lon="2.98864">
        <ele>871</ele>
        <time>2019-10-11T13:45:21.000Z</time>
      </trkpt>
      <trkpt lat="44.23814" lon="2.98864">
        <ele>871</ele>
        <time>2019-10-11T13:45:22.000Z</time>
      </trkpt>
      <trkpt lat="44.23813" lon="2.98864">
        <ele>871</ele>
        <time>2019-10-11T13:45:23.000Z</time>
      </trkpt>
      <trkpt lat="44.23811" lon="2.98864">
        <ele>870</ele>
        <time>2019-10-11T13:45:24.000Z</time>
      </trkpt>
      <trkpt lat="44.2381" lon="2.98863">
        <ele>870</ele>
        <time>2019-10-11T13:45:25.000Z</time>
      </trkpt>
      <trkpt lat="44.23808" lon="2.98864">
        <ele>870</ele>
        <time>2019-10-11T13:45:26.000Z</time>
      </trkpt>
      <trkpt lat="44.23807" lon="2.98863">
        <ele>870</ele>
        <time>2019-10-11T13:45:27.000Z</time>
      </trkpt>
      <trkpt lat="44.23805" lon="2.98863">
        <ele>870</ele>
        <time>2019-10-11T13:45:28.000Z</time>
      </trkpt>
      <trkpt lat="44.23804" lon="2.98863">
        <ele>870</ele>
        <time>2019-10-11T13:45:29.000Z</time>
      </trkpt>
      <trkpt lat="44.23803" lon="2.98863">
        <ele>869</ele>
        <time>2019-10-11T13:45:30.000Z</time>
      </trkpt>
      <trkpt lat="44.23802" lon="2.98864">
        <ele>869</ele>
        <time>2019-10-11T13:45:31.000Z</time>
      </trkpt>
      <trkpt lat="44.23801" lon="2.98864">
        <ele>869</ele>
        <time>2019-10-11T13:45:32.000Z</time>
      </trkpt>
      <trkpt lat="44.238" lon="2.98865">
        <ele>869</ele>
        <time>2019-10-11T13:45:33.000Z</time>
      </trkpt>
      <trkpt lat="44.23799" lon="2.98865">
        <ele>869</ele>
        <time>2019-10-11T13:45:34.000Z</time>
      </trkpt>
      <trkpt lat="44.23798" lon="2.98866">
        <ele>869</ele>
        <time>2019-10-11T13:45:35.000Z</time>
      </trkpt>
      <trkpt lat="44.23797" lon="2.98867">
        <ele>869</ele>
        <time>2019-10-11T13:45:36.000Z</time>
      </trkpt>
      <trkpt lat="44.23795" lon="2.98868">
        <ele>868</ele>
        <time>2019-10-11T13:45:37.000Z</time>
      </trkpt>
      <trkpt lat="44.23794" lon="2.98869">
        <ele>868</ele>
        <time>2019-10-11T13:45:38.000Z</time>
      </trkpt>
      <trkpt lat="44.23793" lon="2.9887">
        <ele>868</ele>
        <time>2019-10-11T13:45:39.000Z</time>
      </trkpt>
      <trkpt lat="44.23792" lon="2.98871">
        <ele>868</ele>
        <time>2019-10-11T13:45:40.000Z</time>
      </trkpt>
      <trkpt lat="44.2379" lon="2.98872">
        <ele>868</ele>
        <time>2019-10-11T13:45:41.000Z</time>
      </trkpt>
      <trkpt lat="44.23789" lon="2.98872">
        <ele>868</ele>
        <time>2019-10-11T13:45:42.000Z</time>
      </trkpt>
      <trkpt lat="44.23788" lon="2.98873">
        <ele>867</ele>
        <time>2019-10-11T13:45:43.000Z</time>
      </trkpt>
      <trkpt lat="44.23786" lon="2.98874">
        <ele>867</ele>
        <time>2019-10-11T13:45:44.000Z</time>
      </trkpt>
      <trkpt lat="44.23785" lon="2.98874">
        <ele>867</ele>
        <time>2019-10-11T13:45:45.000Z</time>
      </trkpt>
      <trkpt lat="44.23784" lon="2.98875">
        <ele>867</ele>
        <time>2019-10-11T13:45:46.000Z</time>
      </trkpt>
      <trkpt lat="44.23782" lon="2.98876">
        <ele>867</ele>
        <time>2019-10-11T13:45:47.000Z</time>
      </trkpt>
      <trkpt lat="44.23781" lon="2.98876">
        <ele>867</ele>
        <time>2019-10-11T13:45:48.000Z</time>
      </trkpt>
      <trkpt lat="44.23779" lon="2.98877">
        <ele>867</ele>
        <time>2019-10-11T13:45:49.000Z</time>
      </trkpt>
      <trkpt lat="44.23778" lon="2.98878">
        <ele>866</ele>
        <time>2019-10-11T13:45:50.000Z</time>
      </trkpt>
      <trkpt lat="44.23776" lon="2.98879">
        <ele>866</ele>
        <time>2019-10-11T13:45:51.000Z</time>
      </trkpt>
      <trkpt lat="44.23775" lon="2.98879">
        <ele>866</ele>
        <time>2019-10-11T13:45:52.000Z</time>
      </trkpt>
      <trkpt lat="44.23773" lon="2.9888">
        <ele>866</ele>
        <time>2019-10-11T13:45:53.000Z</time>
      </trkpt>
      <trkpt lat="44.23771" lon="2.9888">
        <ele>866</ele>
        <time>2019-10-11T13:45:54.000Z</time>
      </trkpt>
      <trkpt lat="44.2377" lon="2.9888">
        <ele>866</ele>
        <time>2019-10-11T13:45:55.000Z</time>
      </trkpt>
      <trkpt lat="44.23769" lon="2.98881">
        <ele>866</ele>
        <time>2019-10-11T13:45:56.000Z</time>
      </trkpt>
      <trkpt lat="44.23767" lon="2.98881">
        <ele>866</ele>
        <time>2019-10-11T13:45:57.000Z</time>
      </trkpt>
      <trkpt lat="44.23766" lon="2.98882">
        <ele>865</ele>
        <time>2019-10-11T13:45:58.000Z</time>
      </trkpt>
      <trkpt lat="44.23765" lon="2.98882">
        <ele>865</ele>
        <time>2019-10-11T13:45:59.000Z</time>
      </trkpt>
      <trkpt lat="44.23763" lon="2.98882">
        <ele>865</ele>
        <time>2019-10-11T13:46:00.000Z</time>
      </trkpt>
      <trkpt lat="44.23762" lon="2.98882">
        <ele>865</ele>
        <time>2019-10-11T13:46:01.000Z</time>
      </trkpt>
      <trkpt lat="44.2376" lon="2.98882">
        <ele>865</ele>
        <time>2019-10-11T13:46:02.000Z</time>
      </trkpt>
      <trkpt lat="44.23759" lon="2.98882">
        <ele>865</ele>
        <time>2019-10-11T13:46:03.000Z</time>
      </trkpt>
      <trkpt lat="44.23757" lon="2.98882">
        <ele>865</ele>
        <time>2019-10-11T13:46:04.000Z</time>
      </trkpt>
      <trkpt lat="44.23755" lon="2.98881">
        <ele>865</ele>
        <time>2019-10-11T13:46:05.000Z</time>
      </trkpt>
      <trkpt lat="44.23753" lon="2.98881">
        <ele>865</ele>
        <time>2019-10-11T13:46:06.000Z</time>
      </trkpt>
      <trkpt lat="44.23752" lon="2.98881">
        <ele>865</ele>
        <time>2019-10-11T13:46:07.000Z</time>
      </trkpt>
      <trkpt lat="44.2375" lon="2.98881">
        <ele>865</ele>
        <time>2019-10-11T13:46:08.000Z</time>
      </trkpt>
      <trkpt lat="44.23749" lon="2.9888">
        <ele>865</ele>
        <time>2019-10-11T13:46:09.000Z</time>
      </trkpt>
      <trkpt lat="44.23747" lon="2.9888">
        <ele>864</ele>
        <time>2019-10-11T13:46:10.000Z</time>
      </trkpt>
      <trkpt lat="44.23746" lon="2.98879">
        <ele>864</ele>
        <time>2019-10-11T13:46:11.000Z</time>
      </trkpt>
      <trkpt lat="44.23744" lon="2.98879">
        <ele>864</ele>
        <time>2019-10-11T13:46:12.000Z</time>
      </trkpt>
      <trkpt lat="44.23743" lon="2.98878">
        <ele>864</ele>
        <time>2019-10-11T13:46:13.000Z</time>
      </trkpt>
      <trkpt lat="44.23742" lon="2.98877">
        <ele>864</ele>
        <time>2019-10-11T13:46:14.000Z</time>
      </trkpt>
      <trkpt lat="44.2374" lon="2.98876">
        <ele>864</ele>
        <time>2019-10-11T13:46:15.000Z</time>
      </trkpt>
      <trkpt lat="44.23739" lon="2.98875">
        <ele>864</ele>
        <time>2019-10-11T13:46:16.000Z</time>
      </trkpt>
      <trkpt lat="44.23737" lon="2.98874">
        <ele>864</ele>
        <time>2019-10-11T13:46:17.000Z</time>
      </trkpt>
      <trkpt lat="44.23736" lon="2.98873">
        <ele>864</ele>
        <time>2019-10-11T13:46:18.000Z</time>
      </trkpt>
      <trkpt lat="44.23735" lon="2.98871">
        <ele>864</ele>
        <time>2019-10-11T13:46:19.000Z</time>
      </trkpt>
      <trkpt lat="44.23734" lon="2.9887">
        <ele>863</ele>
        <time>2019-10-11T13:46:20.000Z</time>
      </trkpt>
      <trkpt lat="44.23733" lon="2.9887">
        <ele>863</ele>
        <time>2019-10-11T13:46:21.000Z</time>
      </trkpt>
      <trkpt lat="44.23732" lon="2.98869">
        <ele>863</ele>
        <time>2019-10-11T13:46:22.000Z</time>
      </trkpt>
      <trkpt lat="44.2373" lon="2.98867">
        <ele>863</ele>
        <time>2019-10-11T13:46:23.000Z</time>
      </trkpt>
      <trkpt lat="44.23729" lon="2.98866">
        <ele>863</ele>
        <time>2019-10-11T13:46:24.000Z</time>
      </trkpt>
      <trkpt lat="44.23728" lon="2.98865">
        <ele>863</ele>
        <time>2019-10-11T13:46:25.000Z</time>
      </trkpt>
      <trkpt lat="44.23727" lon="2.98863">
        <ele>863</ele>
        <time>2019-10-11T13:46:26.000Z</time>
      </trkpt>
      <trkpt lat="44.23726" lon="2.98862">
        <ele>862</ele>
        <time>2019-10-11T13:46:27.000Z</time>
      </trkpt>
      <trkpt lat="44.23725" lon="2.98861">
        <ele>862</ele>
        <time>2019-10-11T13:46:28.000Z</time>
      </trkpt>
      <trkpt lat="44.23724" lon="2.9886">
        <ele>862</ele>
        <time>2019-10-11T13:46:29.000Z</time>
      </trkpt>
      <trkpt lat="44.23723" lon="2.98858">
        <ele>862</ele>
        <time>2019-10-11T13:46:30.000Z</time>
      </trkpt>
      <trkpt lat="44.23722" lon="2.98857">
        <ele>862</ele>
        <time>2019-10-11T13:46:31.000Z</time>
      </trkpt>
      <trkpt lat="44.2372" lon="2.98856">
        <ele>861</ele>
        <time>2019-10-11T13:46:32.000Z</time>
      </trkpt>
      <trkpt lat="44.23719" lon="2.98855">
        <ele>861</ele>
        <time>2019-10-11T13:46:33.000Z</time>
      </trkpt>
      <trkpt lat="44.23718" lon="2.98855">
        <ele>861</ele>
        <time>2019-10-11T13:46:34.000Z</time>
      </trkpt>
      <trkpt lat="44.23716" lon="2.98854">
        <ele>861</ele>
        <time>2019-10-11T13:46:35.000Z</time>
      </trkpt>
      <trkpt lat="44.23715" lon="2.98853">
        <ele>861</ele>
        <time>2019-10-11T13:46:36.000Z</time>
      </trkpt>
      <trkpt lat="44.23713" lon="2.98852">
        <ele>861</ele>
        <time>2019-10-11T13:46:37.000Z</time>
      </trkpt>
      <trkpt lat="44.23712" lon="2.98851">
        <ele>861</ele>
        <time>2019-10-11T13:46:38.000Z</time>
      </trkpt>
      <trkpt lat="44.23711" lon="2.9885">
        <ele>861</ele>
        <time>2019-10-11T13:46:39.000Z</time>
      </trkpt>
      <trkpt lat="44.23709" lon="2.98849">
        <ele>860</ele>
        <time>2019-10-11T13:46:40.000Z</time>
      </trkpt>
      <trkpt lat="44.23708" lon="2.98848">
        <ele>860</ele>
        <time>2019-10-11T13:46:41.000Z</time>
      </trkpt>
      <trkpt lat="44.23707" lon="2.98847">
        <ele>860</ele>
        <time>2019-10-11T13:46:42.000Z</time>
      </trkpt>
      <trkpt lat="44.23705" lon="2.98846">
        <ele>860</ele>
        <time>2019-10-11T13:46:43.000Z</time>
      </trkpt>
      <trkpt lat="44.23704" lon="2.98846">
        <ele>860</ele>
        <time>2019-10-11T13:46:44.000Z</time>
      </trkpt>
      <trkpt lat="44.23702" lon="2.98845">
        <ele>860</ele>
        <time>2019-10-11T13:46:45.000Z</time>
      </trkpt>
      <trkpt lat="44.23701" lon="2.98844">
        <ele>860</ele>
        <time>2019-10-11T13:46:46.000Z</time>
      </trkpt>
      <trkpt lat="44.237" lon="2.98843">
        <ele>860</ele>
        <time>2019-10-11T13:46:47.000Z</time>
      </trkpt>
      <trkpt lat="44.23698" lon="2.98842">
        <ele>859</ele>
        <time>2019-10-11T13:46:48.000Z</time>
      </trkpt>
      <trkpt lat="44.23697" lon="2.98841">
        <ele>859</ele>
        <time>2019-10-11T13:46:49.000Z</time>
      </trkpt>
      <trkpt lat="44.23696" lon="2.9884">
        <ele>859</ele>
        <time>2019-10-11T13:46:50.000Z</time>
      </trkpt>
      <trkpt lat="44.23695" lon="2.98839">
        <ele>859</ele>
        <time>2019-10-11T13:46:51.000Z</time>
      </trkpt>
      <trkpt lat="44.23694" lon="2.98838">
        <ele>859</ele>
        <time>2019-10-11T13:46:52.000Z</time>
      </trkpt>
      <trkpt lat="44.23693" lon="2.98837">
        <ele>859</ele>
        <time>2019-10-11T13:46:53.000Z</time>
      </trkpt>
      <trkpt lat="44.23692" lon="2.98836">
        <ele>859</ele>
        <time>2019-10-11T13:46:54.000Z</time>
      </trkpt>
      <trkpt lat="44.23692" lon="2.98836">
        <ele>859</ele>
        <time>2019-10-11T13:46:55.000Z</time>
      </trkpt>
      <trkpt lat="44.23691" lon="2.98834">
        <ele>859</ele>
        <time>2019-10-11T13:46:56.000Z</time>
      </trkpt>
      <trkpt lat="44.2369" lon="2.98833">
        <ele>859</ele>
        <time>2019-10-11T13:46:57.000Z</time>
      </trkpt>
      <trkpt lat="44.23688" lon="2.98831">
        <ele>859</ele>
        <time>2019-10-11T13:46:58.000Z</time>
      </trkpt>
      <trkpt lat="44.23687" lon="2.9883">
        <ele>859</ele>
        <time>2019-10-11T13:46:59.000Z</time>
      </trkpt>
      <trkpt lat="44.23686" lon="2.98828">
        <ele>859</ele>
        <time>2019-10-11T13:47:00.000Z</time>
      </trkpt>
      <trkpt lat="44.23685" lon="2.98827">
        <ele>859</ele>
        <time>2019-10-11T13:47:01.000Z</time>
      </trkpt>
      <trkpt lat="44.23684" lon="2.98826">
        <ele>859</ele>
        <time>2019-10-11T13:47:02.000Z</time>
      </trkpt>
      <trkpt lat="44.23683" lon="2.98824">
        <ele>858</ele>
        <time>2019-10-11T13:47:03.000Z</time>
      </trkpt>
      <trkpt lat="44.23682" lon="2.98823">
        <ele>858</ele>
        <time>2019-10-11T13:47:04.000Z</time>
      </trkpt>
      <trkpt lat="44.23682" lon="2.98821">
        <ele>858</ele>
        <time>2019-10-11T13:47:05.000Z</time>
      </trkpt>
      <trkpt lat="44.23681" lon="2.9882">
        <ele>858</ele>
        <time>2019-10-11T13:47:06.000Z</time>
      </trkpt>
      <trkpt lat="44.2368" lon="2.98818">
        <ele>858</ele>
        <time>2019-10-11T13:47:07.000Z</time>
      </trkpt>
      <trkpt lat="44.2368" lon="2.98816">
        <ele>858</ele>
        <time>2019-10-11T13:47:08.000Z</time>
      </trkpt>
      <trkpt lat="44.2368" lon="2.98815">
        <ele>857</ele>
        <time>2019-10-11T13:47:09.000Z</time>
      </trkpt>
      <trkpt lat="44.23679" lon="2.98812">
        <ele>857</ele>
        <time>2019-10-11T13:47:10.000Z</time>
      </trkpt>
      <trkpt lat="44.23679" lon="2.9881">
        <ele>857</ele>
        <time>2019-10-11T13:47:11.000Z</time>
      </trkpt>
      <trkpt lat="44.23679" lon="2.98808">
        <ele>857</ele>
        <time>2019-10-11T13:47:12.000Z</time>
      </trkpt>
      <trkpt lat="44.23679" lon="2.98805">
        <ele>856</ele>
        <time>2019-10-11T13:47:13.000Z</time>
      </trkpt>
      <trkpt lat="44.23679" lon="2.98803">
        <ele>856</ele>
        <time>2019-10-11T13:47:14.000Z</time>
      </trkpt>
      <trkpt lat="44.23679" lon="2.98802">
        <ele>856</ele>
        <time>2019-10-11T13:47:15.000Z</time>
      </trkpt>
      <trkpt lat="44.23678" lon="2.988">
        <ele>856</ele>
        <time>2019-10-11T13:47:16.000Z</time>
      </trkpt>
      <trkpt lat="44.23678" lon="2.98798">
        <ele>856</ele>
        <time>2019-10-11T13:47:17.000Z</time>
      </trkpt>
      <trkpt lat="44.23678" lon="2.98795">
        <ele>856</ele>
        <time>2019-10-11T13:47:18.000Z</time>
      </trkpt>
      <trkpt lat="44.23678" lon="2.98793">
        <ele>856</ele>
        <time>2019-10-11T13:47:19.000Z</time>
      </trkpt>
      <trkpt lat="44.23678" lon="2.98792">
        <ele>856</ele>
        <time>2019-10-11T13:47:20.000Z</time>
      </trkpt>
      <trkpt lat="44.23679" lon="2.9879">
        <ele>856</ele>
        <time>2019-10-11T13:47:21.000Z</time>
      </trkpt>
      <trkpt lat="44.23679" lon="2.98788">
        <ele>856</ele>
        <time>2019-10-11T13:47:22.000Z</time>
      </trkpt>
      <trkpt lat="44.2368" lon="2.98787">
        <ele>856</ele>
        <time>2019-10-11T13:47:23.000Z</time>
      </trkpt>
      <trkpt lat="44.23681" lon="2.98786">
        <ele>856</ele>
        <time>2019-10-11T13:47:24.000Z</time>
      </trkpt>
      <trkpt lat="44.23682" lon="2.98785">
        <ele>855</ele>
        <time>2019-10-11T13:47:25.000Z</time>
      </trkpt>
      <trkpt lat="44.23684" lon="2.98784">
        <ele>855</ele>
        <time>2019-10-11T13:47:26.000Z</time>
      </trkpt>
      <trkpt lat="44.23685" lon="2.98784">
        <ele>855</ele>
        <time>2019-10-11T13:47:27.000Z</time>
      </trkpt>
      <trkpt lat="44.23686" lon="2.98783">
        <ele>855</ele>
        <time>2019-10-11T13:47:28.000Z</time>
      </trkpt>
      <trkpt lat="44.23688" lon="2.98783">
        <ele>855</ele>
        <time>2019-10-11T13:47:29.000Z</time>
      </trkpt>
      <trkpt lat="44.23689" lon="2.98783">
        <ele>855</ele>
        <time>2019-10-11T13:47:30.000Z</time>
      </trkpt>
      <trkpt lat="44.2369" lon="2.98783">
        <ele>855</ele>
        <time>2019-10-11T13:47:31.000Z</time>
      </trkpt>
      <trkpt lat="44.23691" lon="2.98783">
        <ele>855</ele>
        <time>2019-10-11T13:47:32.000Z</time>
      </trkpt>
      <trkpt lat="44.23693" lon="2.98783">
        <ele>855</ele>
        <time>2019-10-11T13:47:33.000Z</time>
      </trkpt>
      <trkpt lat="44.23694" lon="2.98783">
        <ele>855</ele>
        <time>2019-10-11T13:47:34.000Z</time>
      </trkpt>
      <trkpt lat="44.23695" lon="2.98783">
        <ele>855</ele>
        <time>2019-10-11T13:47:35.000Z</time>
      </trkpt>
      <trkpt lat="44.23696" lon="2.98783">
        <ele>854</ele>
        <time>2019-10-11T13:47:36.000Z</time>
      </trkpt>
      <trkpt lat="44.23698" lon="2.98783">
        <ele>854</ele>
        <time>2019-10-11T13:47:37.000Z</time>
      </trkpt>
      <trkpt lat="44.23699" lon="2.98783">
        <ele>854</ele>
        <time>2019-10-11T13:47:38.000Z</time>
      </trkpt>
      <trkpt lat="44.237" lon="2.98783">
        <ele>854</ele>
        <time>2019-10-11T13:47:39.000Z</time>
      </trkpt>
      <trkpt lat="44.23702" lon="2.98783">
        <ele>853</ele>
        <time>2019-10-11T13:47:40.000Z</time>
      </trkpt>
      <trkpt lat="44.23703" lon="2.98782">
        <ele>853</ele>
        <time>2019-10-11T13:47:41.000Z</time>
      </trkpt>
      <trkpt lat="44.23705" lon="2.98782">
        <ele>853</ele>
        <time>2019-10-11T13:47:42.000Z</time>
      </trkpt>
      <trkpt lat="44.23706" lon="2.98781">
        <ele>852</ele>
        <time>2019-10-11T13:47:43.000Z</time>
      </trkpt>
      <trkpt lat="44.23707" lon="2.98781">
        <ele>852</ele>
        <time>2019-10-11T13:47:44.000Z</time>
      </trkpt>
      <trkpt lat="44.23709" lon="2.9878">
        <ele>852</ele>
        <time>2019-10-11T13:47:45.000Z</time>
      </trkpt>
      <trkpt lat="44.2371" lon="2.98779">
        <ele>852</ele>
        <time>2019-10-11T13:47:46.000Z</time>
      </trkpt>
      <trkpt lat="44.23711" lon="2.98779">
        <ele>851</ele>
        <time>2019-10-11T13:47:47.000Z</time>
      </trkpt>
      <trkpt lat="44.23712" lon="2.98778">
        <ele>851</ele>
        <time>2019-10-11T13:47:48.000Z</time>
      </trkpt>
      <trkpt lat="44.23714" lon="2.98778">
        <ele>851</ele>
        <time>2019-10-11T13:47:49.000Z</time>
      </trkpt>
      <trkpt lat="44.23716" lon="2.98777">
        <ele>851</ele>
        <time>2019-10-11T13:47:50.000Z</time>
      </trkpt>
      <trkpt lat="44.23717" lon="2.98776">
        <ele>851</ele>
        <time>2019-10-11T13:47:51.000Z</time>
      </trkpt>
      <trkpt lat="44.23719" lon="2.98775">
        <ele>851</ele>
        <time>2019-10-11T13:47:52.000Z</time>
      </trkpt>
      <trkpt lat="44.2372" lon="2.98775">
        <ele>851</ele>
        <time>2019-10-11T13:47:53.000Z</time>
      </trkpt>
      <trkpt lat="44.23722" lon="2.98774">
        <ele>850</ele>
        <time>2019-10-11T13:47:54.000Z</time>
      </trkpt>
      <trkpt lat="44.23723" lon="2.98773">
        <ele>850</ele>
        <time>2019-10-11T13:47:55.000Z</time>
      </trkpt>
      <trkpt lat="44.23725" lon="2.98772">
        <ele>850</ele>
        <time>2019-10-11T13:47:56.000Z</time>
      </trkpt>
      <trkpt lat="44.23726" lon="2.98771">
        <ele>850</ele>
        <time>2019-10-11T13:47:57.000Z</time>
      </trkpt>
      <trkpt lat="44.23728" lon="2.9877">
        <ele>849</ele>
        <time>2019-10-11T13:47:58.000Z</time>
      </trkpt>
      <trkpt lat="44.23729" lon="2.98769">
        <ele>849</ele>
        <time>2019-10-11T13:47:59.000Z</time>
      </trkpt>
      <trkpt lat="44.23731" lon="2.98768">
        <ele>849</ele>
        <time>2019-10-11T13:48:00.000Z</time>
      </trkpt>
      <trkpt lat="44.23733" lon="2.98767">
        <ele>849</ele>
        <time>2019-10-11T13:48:01.000Z</time>
      </trkpt>
      <trkpt lat="44.23734" lon="2.98766">
        <ele>848</ele>
        <time>2019-10-11T13:48:02.000Z</time>
      </trkpt>
      <trkpt lat="44.23736" lon="2.98765">
        <ele>848</ele>
        <time>2019-10-11T13:48:03.000Z</time>
      </trkpt>
      <trkpt lat="44.23738" lon="2.98764">
        <ele>848</ele>
        <time>2019-10-11T13:48:04.000Z</time>
      </trkpt>
      <trkpt lat="44.23739" lon="2.98764">
        <ele>848</ele>
        <time>2019-10-11T13:48:05.000Z</time>
      </trkpt>
      <trkpt lat="44.23741" lon="2.98763">
        <ele>848</ele>
        <time>2019-10-11T13:48:06.000Z</time>
      </trkpt>
      <trkpt lat="44.23742" lon="2.98762">
        <ele>848</ele>
        <time>2019-10-11T13:48:07.000Z</time>
      </trkpt>
      <trkpt lat="44.23744" lon="2.98761">
        <ele>848</ele>
        <time>2019-10-11T13:48:08.000Z</time>
      </trkpt>
      <trkpt lat="44.23745" lon="2.9876">
        <ele>847</ele>
        <time>2019-10-11T13:48:09.000Z</time>
      </trkpt>
      <trkpt lat="44.23746" lon="2.9876">
        <ele>847</ele>
        <time>2019-10-11T13:48:10.000Z</time>
      </trkpt>
      <trkpt lat="44.23748" lon="2.98758">
        <ele>847</ele>
        <time>2019-10-11T13:48:11.000Z</time>
      </trkpt>
      <trkpt lat="44.23749" lon="2.98757">
        <ele>847</ele>
        <time>2019-10-11T13:48:12.000Z</time>
      </trkpt>
      <trkpt lat="44.2375" lon="2.98756">
        <ele>847</ele>
        <time>2019-10-11T13:48:13.000Z</time>
      </trkpt>
      <trkpt lat="44.23752" lon="2.98755">
        <ele>847</ele>
        <time>2019-10-11T13:48:14.000Z</time>
      </trkpt>
      <trkpt lat="44.23753" lon="2.98754">
        <ele>847</ele>
        <time>2019-10-11T13:48:15.000Z</time>
      </trkpt>
      <trkpt lat="44.23755" lon="2.98752">
        <ele>847</ele>
        <time>2019-10-11T13:48:16.000Z</time>
      </trkpt>
      <trkpt lat="44.23756" lon="2.98751">
        <ele>847</ele>
        <time>2019-10-11T13:48:17.000Z</time>
      </trkpt>
      <trkpt lat="44.23758" lon="2.98749">
        <ele>847</ele>
        <time>2019-10-11T13:48:18.000Z</time>
      </trkpt>
      <trkpt lat="44.23759" lon="2.98747">
        <ele>847</ele>
        <time>2019-10-11T13:48:19.000Z</time>
      </trkpt>
      <trkpt lat="44.2376" lon="2.98745">
        <ele>847</ele>
        <time>2019-10-11T13:48:20.000Z</time>
      </trkpt>
      <trkpt lat="44.23761" lon="2.98744">
        <ele>847</ele>
        <time>2019-10-11T13:48:21.000Z</time>
      </trkpt>
      <trkpt lat="44.23763" lon="2.98742">
        <ele>847</ele>
        <time>2019-10-11T13:48:22.000Z</time>
      </trkpt>
      <trkpt lat="44.23764" lon="2.98741">
        <ele>847</ele>
        <time>2019-10-11T13:48:23.000Z</time>
      </trkpt>
      <trkpt lat="44.23765" lon="2.98739">
        <ele>847</ele>
        <time>2019-10-11T13:48:24.000Z</time>
      </trkpt>
      <trkpt lat="44.23766" lon="2.98738">
        <ele>847</ele>
        <time>2019-10-11T13:48:25.000Z</time>
      </trkpt>
      <trkpt lat="44.23767" lon="2.98737">
        <ele>847</ele>
        <time>2019-10-11T13:48:26.000Z</time>
      </trkpt>
      <trkpt lat="44.23768" lon="2.98735">
        <ele>846</ele>
        <time>2019-10-11T13:48:27.000Z</time>
      </trkpt>
      <trkpt lat="44.23769" lon="2.98734">
        <ele>846</ele>
        <time>2019-10-11T13:48:28.000Z</time>
      </trkpt>
      <trkpt lat="44.2377" lon="2.98732">
        <ele>846</ele>
        <time>2019-10-11T13:48:29.000Z</time>
      </trkpt>
      <trkpt lat="44.23771" lon="2.98731">
        <ele>846</ele>
        <time>2019-10-11T13:48:30.000Z</time>
      </trkpt>
      <trkpt lat="44.23772" lon="2.98729">
        <ele>846</ele>
        <time>2019-10-11T13:48:31.000Z</time>
      </trkpt>
      <trkpt lat="44.23774" lon="2.98727">
        <ele>846</ele>
        <time>2019-10-11T13:48:32.000Z</time>
      </trkpt>
      <trkpt lat="44.23775" lon="2.98726">
        <ele>846</ele>
        <time>2019-10-11T13:48:33.000Z</time>
      </trkpt>
      <trkpt lat="44.23776" lon="2.98724">
        <ele>846</ele>
        <time>2019-10-11T13:48:34.000Z</time>
      </trkpt>
      <trkpt lat="44.23777" lon="2.98722">
        <ele>846</ele>
        <time>2019-10-11T13:48:35.000Z</time>
      </trkpt>
      <trkpt lat="44.23778" lon="2.9872">
        <ele>845</ele>
        <time>2019-10-11T13:48:36.000Z</time>
      </trkpt>
      <trkpt lat="44.23779" lon="2.98718">
        <ele>845</ele>
        <time>2019-10-11T13:48:37.000Z</time>
      </trkpt>
      <trkpt lat="44.2378" lon="2.98717">
        <ele>845</ele>
        <time>2019-10-11T13:48:38.000Z</time>
      </trkpt>
      <trkpt lat="44.23782" lon="2.98715">
        <ele>845</ele>
        <time>2019-10-11T13:48:39.000Z</time>
      </trkpt>
      <trkpt lat="44.23783" lon="2.98714">
        <ele>845</ele>
        <time>2019-10-11T13:48:40.000Z</time>
      </trkpt>
      <trkpt lat="44.23784" lon="2.98712">
        <ele>845</ele>
        <time>2019-10-11T13:48:41.000Z</time>
      </trkpt>
      <trkpt lat="44.23785" lon="2.98711">
        <ele>845</ele>
        <time>2019-10-11T13:48:42.000Z</time>
      </trkpt>
      <trkpt lat="44.23787" lon="2.98709">
        <ele>845</ele>
        <time>2019-10-11T13:48:43.000Z</time>
      </trkpt>
      <trkpt lat="44.23788" lon="2.98707">
        <ele>845</ele>
        <time>2019-10-11T13:48:44.000Z</time>
      </trkpt>
      <trkpt lat="44.23789" lon="2.98706">
        <ele>845</ele>
        <time>2019-10-11T13:48:45.000Z</time>
      </trkpt>
      <trkpt lat="44.23791" lon="2.98704">
        <ele>844</ele>
        <time>2019-10-11T13:48:46.000Z</time>
      </trkpt>
      <trkpt lat="44.23792" lon="2.98703">
        <ele>844</ele>
        <time>2019-10-11T13:48:47.000Z</time>
      </trkpt>
      <trkpt lat="44.23793" lon="2.98701">
        <ele>844</ele>
        <time>2019-10-11T13:48:48.000Z</time>
      </trkpt>
      <trkpt lat="44.23794" lon="2.987">
        <ele>844</ele>
        <time>2019-10-11T13:48:49.000Z</time>
      </trkpt>
      <trkpt lat="44.23796" lon="2.98698">
        <ele>844</ele>
        <time>2019-10-11T13:48:50.000Z</time>
      </trkpt>
      <trkpt lat="44.23797" lon="2.98697">
        <ele>844</ele>
        <time>2019-10-11T13:48:51.000Z</time>
      </trkpt>
      <trkpt lat="44.23798" lon="2.98696">
        <ele>843</ele>
        <time>2019-10-11T13:48:52.000Z</time>
      </trkpt>
      <trkpt lat="44.23799" lon="2.98694">
        <ele>843</ele>
        <time>2019-10-11T13:48:53.000Z</time>
      </trkpt>
      <trkpt lat="44.23801" lon="2.98693">
        <ele>843</ele>
        <time>2019-10-11T13:48:54.000Z</time>
      </trkpt>
      <trkpt lat="44.23802" lon="2.98692">
        <ele>843</ele>
        <time>2019-10-11T13:48:55.000Z</time>
      </trkpt>
      <trkpt lat="44.23803" lon="2.98691">
        <ele>843</ele>
        <time>2019-10-11T13:48:56.000Z</time>
      </trkpt>
      <trkpt lat="44.23805" lon="2.98689">
        <ele>843</ele>
        <time>2019-10-11T13:48:57.000Z</time>
      </trkpt>
      <trkpt lat="44.23806" lon="2.98688">
        <ele>842</ele>
        <time>2019-10-11T13:48:58.000Z</time>
      </trkpt>
      <trkpt lat="44.23808" lon="2.98686">
        <ele>842</ele>
        <time>2019-10-11T13:48:59.000Z</time>
      </trkpt>
      <trkpt lat="44.23809" lon="2.98685">
        <ele>842</ele>
        <time>2019-10-11T13:49:00.000Z</time>
      </trkpt>
      <trkpt lat="44.23811" lon="2.98683">
        <ele>841</ele>
        <time>2019-10-11T13:49:01.000Z</time>
      </trkpt>
      <trkpt lat="44.23812" lon="2.98682">
        <ele>841</ele>
        <time>2019-10-11T13:49:02.000Z</time>
      </trkpt>
      <trkpt lat="44.23814" lon="2.9868">
        <ele>841</ele>
        <time>2019-10-11T13:49:03.000Z</time>
      </trkpt>
      <trkpt lat="44.23815" lon="2.98679">
        <ele>840</ele>
        <time>2019-10-11T13:49:04.000Z</time>
      </trkpt>
      <trkpt lat="44.23817" lon="2.98678">
        <ele>840</ele>
        <time>2019-10-11T13:49:05.000Z</time>
      </trkpt>
      <trkpt lat="44.23818" lon="2.98676">
        <ele>840</ele>
        <time>2019-10-11T13:49:06.000Z</time>
      </trkpt>
      <trkpt lat="44.2382" lon="2.98675">
        <ele>840</ele>
        <time>2019-10-11T13:49:07.000Z</time>
      </trkpt>
      <trkpt lat="44.23821" lon="2.98675">
        <ele>840</ele>
        <time>2019-10-11T13:49:08.000Z</time>
      </trkpt>
      <trkpt lat="44.23822" lon="2.98673">
        <ele>839</ele>
        <time>2019-10-11T13:49:09.000Z</time>
      </trkpt>
      <trkpt lat="44.23824" lon="2.98672">
        <ele>839</ele>
        <time>2019-10-11T13:49:10.000Z</time>
      </trkpt>
      <trkpt lat="44.23825" lon="2.98671">
        <ele>839</ele>
        <time>2019-10-11T13:49:11.000Z</time>
      </trkpt>
      <trkpt lat="44.23827" lon="2.98669">
        <ele>839</ele>
        <time>2019-10-11T13:49:12.000Z</time>
      </trkpt>
      <trkpt lat="44.23828" lon="2.98668">
        <ele>839</ele>
        <time>2019-10-11T13:49:13.000Z</time>
      </trkpt>
      <trkpt lat="44.23829" lon="2.98667">
        <ele>839</ele>
        <time>2019-10-11T13:49:14.000Z</time>
      </trkpt>
      <trkpt lat="44.23831" lon="2.98666">
        <ele>839</ele>
        <time>2019-10-11T13:49:15.000Z</time>
      </trkpt>
      <trkpt lat="44.23832" lon="2.98665">
        <ele>839</ele>
        <time>2019-10-11T13:49:16.000Z</time>
      </trkpt>
      <trkpt lat="44.23833" lon="2.98664">
        <ele>839</ele>
        <time>2019-10-11T13:49:17.000Z</time>
      </trkpt>
      <trkpt lat="44.23835" lon="2.98663">
        <ele>838</ele>
        <time>2019-10-11T13:49:18.000Z</time>
      </trkpt>
      <trkpt lat="44.23836" lon="2.98662">
        <ele>839</ele>
        <time>2019-10-11T13:49:19.000Z</time>
      </trkpt>
      <trkpt lat="44.23838" lon="2.98661">
        <ele>838</ele>
        <time>2019-10-11T13:49:20.000Z</time>
      </trkpt>
      <trkpt lat="44.23839" lon="2.9866">
        <ele>838</ele>
        <time>2019-10-11T13:49:21.000Z</time>
      </trkpt>
      <trkpt lat="44.23841" lon="2.98659">
        <ele>838</ele>
        <time>2019-10-11T13:49:22.000Z</time>
      </trkpt>
      <trkpt lat="44.23842" lon="2.98658">
        <ele>838</ele>
        <time>2019-10-11T13:49:23.000Z</time>
      </trkpt>
      <trkpt lat="44.23843" lon="2.98657">
        <ele>838</ele>
        <time>2019-10-11T13:49:24.000Z</time>
      </trkpt>
      <trkpt lat="44.23845" lon="2.98656">
        <ele>838</ele>
        <time>2019-10-11T13:49:25.000Z</time>
      </trkpt>
      <trkpt lat="44.23847" lon="2.98655">
        <ele>838</ele>
        <time>2019-10-11T13:49:26.000Z</time>
      </trkpt>
      <trkpt lat="44.23848" lon="2.98654">
        <ele>838</ele>
        <time>2019-10-11T13:49:27.000Z</time>
      </trkpt>
      <trkpt lat="44.23849" lon="2.98653">
        <ele>838</ele>
        <time>2019-10-11T13:49:28.000Z</time>
      </trkpt>
      <trkpt lat="44.2385" lon="2.98652">
        <ele>838</ele>
        <time>2019-10-11T13:49:29.000Z</time>
      </trkpt>
      <trkpt lat="44.23852" lon="2.98651">
        <ele>838</ele>
        <time>2019-10-11T13:49:30.000Z</time>
      </trkpt>
      <trkpt lat="44.23853" lon="2.98649">
        <ele>837</ele>
        <time>2019-10-11T13:49:31.000Z</time>
      </trkpt>
      <trkpt lat="44.23854" lon="2.98648">
        <ele>837</ele>
        <time>2019-10-11T13:49:32.000Z</time>
      </trkpt>
      <trkpt lat="44.23855" lon="2.98646">
        <ele>837</ele>
        <time>2019-10-11T13:49:33.000Z</time>
      </trkpt>
      <trkpt lat="44.23857" lon="2.98645">
        <ele>837</ele>
        <time>2019-10-11T13:49:34.000Z</time>
      </trkpt>
      <trkpt lat="44.23858" lon="2.98643">
        <ele>837</ele>
        <time>2019-10-11T13:49:35.000Z</time>
      </trkpt>
      <trkpt lat="44.23859" lon="2.98642">
        <ele>837</ele>
        <time>2019-10-11T13:49:36.000Z</time>
      </trkpt>
      <trkpt lat="44.23861" lon="2.9864">
        <ele>837</ele>
        <time>2019-10-11T13:49:37.000Z</time>
      </trkpt>
      <trkpt lat="44.23862" lon="2.98638">
        <ele>837</ele>
        <time>2019-10-11T13:49:38.000Z</time>
      </trkpt>
      <trkpt lat="44.23863" lon="2.98637">
        <ele>837</ele>
        <time>2019-10-11T13:49:39.000Z</time>
      </trkpt>
      <trkpt lat="44.23864" lon="2.98635">
        <ele>837</ele>
        <time>2019-10-11T13:49:40.000Z</time>
      </trkpt>
      <trkpt lat="44.23865" lon="2.98634">
        <ele>837</ele>
        <time>2019-10-11T13:49:41.000Z</time>
      </trkpt>
      <trkpt lat="44.23867" lon="2.98632">
        <ele>837</ele>
        <time>2019-10-11T13:49:42.000Z</time>
      </trkpt>
      <trkpt lat="44.23868" lon="2.98631">
        <ele>837</ele>
        <time>2019-10-11T13:49:43.000Z</time>
      </trkpt>
      <trkpt lat="44.23869" lon="2.98629">
        <ele>837</ele>
        <time>2019-10-11T13:49:44.000Z</time>
      </trkpt>
      <trkpt lat="44.23871" lon="2.98628">
        <ele>837</ele>
        <time>2019-10-11T13:49:45.000Z</time>
      </trkpt>
      <trkpt lat="44.23872" lon="2.98627">
        <ele>836</ele>
        <time>2019-10-11T13:49:46.000Z</time>
      </trkpt>
      <trkpt lat="44.23873" lon="2.98626">
        <ele>836</ele>
        <time>2019-10-11T13:49:47.000Z</time>
      </trkpt>
      <trkpt lat="44.23874" lon="2.98625">
        <ele>836</ele>
        <time>2019-10-11T13:49:48.000Z</time>
      </trkpt>
      <trkpt lat="44.23876" lon="2.98624">
        <ele>836</ele>
        <time>2019-10-11T13:49:49.000Z</time>
      </trkpt>
      <trkpt lat="44.23878" lon="2.98623">
        <ele>836</ele>
        <time>2019-10-11T13:49:50.000Z</time>
      </trkpt>
      <trkpt lat="44.23879" lon="2.98622">
        <ele>836</ele>
        <time>2019-10-11T13:49:51.000Z</time>
      </trkpt>
      <trkpt lat="44.23881" lon="2.98621">
        <ele>835</ele>
        <time>2019-10-11T13:49:52.000Z</time>
      </trkpt>
      <trkpt lat="44.23882" lon="2.9862">
        <ele>835</ele>
        <time>2019-10-11T13:49:53.000Z</time>
      </trkpt>
      <trkpt lat="44.23884" lon="2.98619">
        <ele>835</ele>
        <time>2019-10-11T13:49:54.000Z</time>
      </trkpt>
      <trkpt lat="44.23885" lon="2.98618">
        <ele>834</ele>
        <time>2019-10-11T13:49:55.000Z</time>
      </trkpt>
      <trkpt lat="44.23887" lon="2.98617">
        <ele>834</ele>
        <time>2019-10-11T13:49:56.000Z</time>
      </trkpt>
      <trkpt lat="44.23888" lon="2.98617">
        <ele>834</ele>
        <time>2019-10-11T13:49:57.000Z</time>
      </trkpt>
      <trkpt lat="44.23889" lon="2.98616">
        <ele>834</ele>
        <time>2019-10-11T13:49:58.000Z</time>
      </trkpt>
      <trkpt lat="44.2389" lon="2.98616">
        <ele>834</ele>
        <time>2019-10-11T13:49:59.000Z</time>
      </trkpt>
      <trkpt lat="44.23892" lon="2.98615">
        <ele>833</ele>
        <time>2019-10-11T13:50:00.000Z</time>
      </trkpt>
      <trkpt lat="44.23894" lon="2.98615">
        <ele>833</ele>
        <time>2019-10-11T13:50:01.000Z</time>
      </trkpt>
      <trkpt lat="44.23895" lon="2.98614">
        <ele>833</ele>
        <time>2019-10-11T13:50:02.000Z</time>
      </trkpt>
      <trkpt lat="44.23897" lon="2.98614">
        <ele>833</ele>
        <time>2019-10-11T13:50:03.000Z</time>
      </trkpt>
      <trkpt lat="44.23899" lon="2.98613">
        <ele>832</ele>
        <time>2019-10-11T13:50:04.000Z</time>
      </trkpt>
      <trkpt lat="44.23901" lon="2.98613">
        <ele>832</ele>
        <time>2019-10-11T13:50:05.000Z</time>
      </trkpt>
      <trkpt lat="44.23902" lon="2.98612">
        <ele>832</ele>
        <time>2019-10-11T13:50:06.000Z</time>
      </trkpt>
      <trkpt lat="44.23904" lon="2.98612">
        <ele>832</ele>
        <time>2019-10-11T13:50:07.000Z</time>
      </trkpt>
      <trkpt lat="44.23906" lon="2.98611">
        <ele>832</ele>
        <time>2019-10-11T13:50:08.000Z</time>
      </trkpt>
      <trkpt lat="44.23907" lon="2.98611">
        <ele>832</ele>
        <time>2019-10-11T13:50:09.000Z</time>
      </trkpt>
      <trkpt lat="44.23909" lon="2.9861">
        <ele>832</ele>
        <time>2019-10-11T13:50:10.000Z</time>
      </trkpt>
      <trkpt lat="44.2391" lon="2.9861">
        <ele>832</ele>
        <time>2019-10-11T13:50:11.000Z</time>
      </trkpt>
      <trkpt lat="44.23912" lon="2.98609">
        <ele>832</ele>
        <time>2019-10-11T13:50:12.000Z</time>
      </trkpt>
      <trkpt lat="44.23913" lon="2.98609">
        <ele>832</ele>
        <time>2019-10-11T13:50:13.000Z</time>
      </trkpt>
      <trkpt lat="44.23914" lon="2.98608">
        <ele>832</ele>
        <time>2019-10-11T13:50:14.000Z</time>
      </trkpt>
      <trkpt lat="44.23916" lon="2.98608">
        <ele>832</ele>
        <time>2019-10-11T13:50:15.000Z</time>
      </trkpt>
      <trkpt lat="44.23918" lon="2.98607">
        <ele>831</ele>
        <time>2019-10-11T13:50:16.000Z</time>
      </trkpt>
      <trkpt lat="44.23919" lon="2.98606">
        <ele>831</ele>
        <time>2019-10-11T13:50:17.000Z</time>
      </trkpt>
      <trkpt lat="44.23921" lon="2.98605">
        <ele>831</ele>
        <time>2019-10-11T13:50:18.000Z</time>
      </trkpt>
      <trkpt lat="44.23922" lon="2.98605">
        <ele>831</ele>
        <time>2019-10-11T13:50:19.000Z</time>
      </trkpt>
      <trkpt lat="44.23924" lon="2.98604">
        <ele>831</ele>
        <time>2019-10-11T13:50:20.000Z</time>
      </trkpt>
      <trkpt lat="44.23925" lon="2.98603">
        <ele>831</ele>
        <time>2019-10-11T13:50:21.000Z</time>
      </trkpt>
      <trkpt lat="44.23926" lon="2.98602">
        <ele>831</ele>
        <time>2019-10-11T13:50:22.000Z</time>
      </trkpt>
      <trkpt lat="44.23927" lon="2.98601">
        <ele>831</ele>
        <time>2019-10-11T13:50:23.000Z</time>
      </trkpt>
      <trkpt lat="44.23929" lon="2.986">
        <ele>831</ele>
        <time>2019-10-11T13:50:24.000Z</time>
      </trkpt>
      <trkpt lat="44.23931" lon="2.986">
        <ele>830</ele>
        <time>2019-10-11T13:50:25.000Z</time>
      </trkpt>
      <trkpt lat="44.23932" lon="2.98599">
        <ele>830</ele>
        <time>2019-10-11T13:50:26.000Z</time>
      </trkpt>
      <trkpt lat="44.23934" lon="2.98597">
        <ele>830</ele>
        <time>2019-10-11T13:50:27.000Z</time>
      </trkpt>
      <trkpt lat="44.23936" lon="2.98597">
        <ele>829</ele>
        <time>2019-10-11T13:50:28.000Z</time>
      </trkpt>
      <trkpt lat="44.23938" lon="2.98596">
        <ele>829</ele>
        <time>2019-10-11T13:50:29.000Z</time>
      </trkpt>
      <trkpt lat="44.23939" lon="2.98595">
        <ele>829</ele>
        <time>2019-10-11T13:50:30.000Z</time>
      </trkpt>
      <trkpt lat="44.23941" lon="2.98594">
        <ele>829</ele>
        <time>2019-10-11T13:50:31.000Z</time>
      </trkpt>
      <trkpt lat="44.23942" lon="2.98593">
        <ele>829</ele>
        <time>2019-10-11T13:50:32.000Z</time>
      </trkpt>
      <trkpt lat="44.23943" lon="2.98592">
        <ele>829</ele>
        <time>2019-10-11T13:50:33.000Z</time>
      </trkpt>
      <trkpt lat="44.23945" lon="2.98592">
        <ele>829</ele>
        <time>2019-10-11T13:50:34.000Z</time>
      </trkpt>
      <trkpt lat="44.23946" lon="2.98591">
        <ele>828</ele>
        <time>2019-10-11T13:50:35.000Z</time>
      </trkpt>
      <trkpt lat="44.23947" lon="2.98591">
        <ele>828</ele>
        <time>2019-10-11T13:50:36.000Z</time>
      </trkpt>
      <trkpt lat="44.23948" lon="2.9859">
        <ele>828</ele>
        <time>2019-10-11T13:50:37.000Z</time>
      </trkpt>
      <trkpt lat="44.2395" lon="2.98589">
        <ele>828</ele>
        <time>2019-10-11T13:50:38.000Z</time>
      </trkpt>
      <trkpt lat="44.23951" lon="2.98588">
        <ele>828</ele>
        <time>2019-10-11T13:50:39.000Z</time>
      </trkpt>
      <trkpt lat="44.23953" lon="2.98587">
        <ele>828</ele>
        <time>2019-10-11T13:50:40.000Z</time>
      </trkpt>
      <trkpt lat="44.23955" lon="2.98586">
        <ele>827</ele>
        <time>2019-10-11T13:50:41.000Z</time>
      </trkpt>
      <trkpt lat="44.23957" lon="2.98584">
        <ele>827</ele>
        <time>2019-10-11T13:50:42.000Z</time>
      </trkpt>
      <trkpt lat="44.23958" lon="2.98583">
        <ele>827</ele>
        <time>2019-10-11T13:50:43.000Z</time>
      </trkpt>
      <trkpt lat="44.2396" lon="2.98581">
        <ele>827</ele>
        <time>2019-10-11T13:50:44.000Z</time>
      </trkpt>
      <trkpt lat="44.23962" lon="2.9858">
        <ele>826</ele>
        <time>2019-10-11T13:50:45.000Z</time>
      </trkpt>
      <trkpt lat="44.23963" lon="2.98578">
        <ele>826</ele>
        <time>2019-10-11T13:50:46.000Z</time>
      </trkpt>
      <trkpt lat="44.23965" lon="2.98577">
        <ele>826</ele>
        <time>2019-10-11T13:50:47.000Z</time>
      </trkpt>
      <trkpt lat="44.23967" lon="2.98576">
        <ele>826</ele>
        <time>2019-10-11T13:50:48.000Z</time>
      </trkpt>
      <trkpt lat="44.23969" lon="2.98575">
        <ele>826</ele>
        <time>2019-10-11T13:50:49.000Z</time>
      </trkpt>
      <trkpt lat="44.23971" lon="2.98574">
        <ele>825</ele>
        <time>2019-10-11T13:50:50.000Z</time>
      </trkpt>
      <trkpt lat="44.23973" lon="2.98573">
        <ele>825</ele>
        <time>2019-10-11T13:50:51.000Z</time>
      </trkpt>
      <trkpt lat="44.23974" lon="2.98572">
        <ele>825</ele>
        <time>2019-10-11T13:50:52.000Z</time>
      </trkpt>
      <trkpt lat="44.23976" lon="2.98571">
        <ele>825</ele>
        <time>2019-10-11T13:50:53.000Z</time>
      </trkpt>
      <trkpt lat="44.23978" lon="2.9857">
        <ele>824</ele>
        <time>2019-10-11T13:50:54.000Z</time>
      </trkpt>
      <trkpt lat="44.2398" lon="2.98569">
        <ele>824</ele>
        <time>2019-10-11T13:50:55.000Z</time>
      </trkpt>
      <trkpt lat="44.23982" lon="2.98567">
        <ele>824</ele>
        <time>2019-10-11T13:50:56.000Z</time>
      </trkpt>
      <trkpt lat="44.23983" lon="2.98566">
        <ele>823</ele>
        <time>2019-10-11T13:50:57.000Z</time>
      </trkpt>
      <trkpt lat="44.23985" lon="2.98565">
        <ele>823</ele>
        <time>2019-10-11T13:50:58.000Z</time>
      </trkpt>
      <trkpt lat="44.23987" lon="2.98564">
        <ele>823</ele>
        <time>2019-10-11T13:50:59.000Z</time>
      </trkpt>
      <trkpt lat="44.23988" lon="2.98562">
        <ele>823</ele>
        <time>2019-10-11T13:51:00.000Z</time>
      </trkpt>
      <trkpt lat="44.2399" lon="2.98561">
        <ele>822</ele>
        <time>2019-10-11T13:51:01.000Z</time>
      </trkpt>
      <trkpt lat="44.23992" lon="2.9856">
        <ele>822</ele>
        <time>2019-10-11T13:51:02.000Z</time>
      </trkpt>
      <trkpt lat="44.23994" lon="2.98559">
        <ele>822</ele>
        <time>2019-10-11T13:51:03.000Z</time>
      </trkpt>
      <trkpt lat="44.23996" lon="2.98558">
        <ele>822</ele>
        <time>2019-10-11T13:51:04.000Z</time>
      </trkpt>
      <trkpt lat="44.23998" lon="2.98557">
        <ele>822</ele>
        <time>2019-10-11T13:51:05.000Z</time>
      </trkpt>
      <trkpt lat="44.23999" lon="2.98556">
        <ele>822</ele>
        <time>2019-10-11T13:51:06.000Z</time>
      </trkpt>
      <trkpt lat="44.24001" lon="2.98555">
        <ele>822</ele>
        <time>2019-10-11T13:51:07.000Z</time>
      </trkpt>
      <trkpt lat="44.24003" lon="2.98554">
        <ele>822</ele>
        <time>2019-10-11T13:51:08.000Z</time>
      </trkpt>
      <trkpt lat="44.24005" lon="2.98552">
        <ele>822</ele>
        <time>2019-10-11T13:51:09.000Z</time>
      </trkpt>
      <trkpt lat="44.24006" lon="2.98551">
        <ele>822</ele>
        <time>2019-10-11T13:51:10.000Z</time>
      </trkpt>
      <trkpt lat="44.24008" lon="2.9855">
        <ele>822</ele>
        <time>2019-10-11T13:51:11.000Z</time>
      </trkpt>
      <trkpt lat="44.2401" lon="2.98549">
        <ele>822</ele>
        <time>2019-10-11T13:51:12.000Z</time>
      </trkpt>
      <trkpt lat="44.24011" lon="2.98548">
        <ele>822</ele>
        <time>2019-10-11T13:51:13.000Z</time>
      </trkpt>
      <trkpt lat="44.24013" lon="2.98547">
        <ele>821</ele>
        <time>2019-10-11T13:51:14.000Z</time>
      </trkpt>
      <trkpt lat="44.24014" lon="2.98546">
        <ele>821</ele>
        <time>2019-10-11T13:51:15.000Z</time>
      </trkpt>
      <trkpt lat="44.24015" lon="2.98546">
        <ele>821</ele>
        <time>2019-10-11T13:51:16.000Z</time>
      </trkpt>
      <trkpt lat="44.24017" lon="2.98545">
        <ele>821</ele>
        <time>2019-10-11T13:51:17.000Z</time>
      </trkpt>
      <trkpt lat="44.24019" lon="2.98545">
        <ele>821</ele>
        <time>2019-10-11T13:51:18.000Z</time>
      </trkpt>
      <trkpt lat="44.2402" lon="2.98545">
        <ele>820</ele>
        <time>2019-10-11T13:51:19.000Z</time>
      </trkpt>
      <trkpt lat="44.24022" lon="2.98545">
        <ele>820</ele>
        <time>2019-10-11T13:51:20.000Z</time>
      </trkpt>
      <trkpt lat="44.24023" lon="2.98545">
        <ele>820</ele>
        <time>2019-10-11T13:51:21.000Z</time>
      </trkpt>
      <trkpt lat="44.24024" lon="2.98544">
        <ele>820</ele>
        <time>2019-10-11T13:51:22.000Z</time>
      </trkpt>
      <trkpt lat="44.24025" lon="2.98544">
        <ele>820</ele>
        <time>2019-10-11T13:51:23.000Z</time>
      </trkpt>
      <trkpt lat="44.24027" lon="2.98544">
        <ele>819</ele>
        <time>2019-10-11T13:51:24.000Z</time>
      </trkpt>
      <trkpt lat="44.24028" lon="2.98543">
        <ele>819</ele>
        <time>2019-10-11T13:51:25.000Z</time>
      </trkpt>
      <trkpt lat="44.2403" lon="2.98543">
        <ele>819</ele>
        <time>2019-10-11T13:51:26.000Z</time>
      </trkpt>
      <trkpt lat="44.24031" lon="2.98542">
        <ele>819</ele>
        <time>2019-10-11T13:51:27.000Z</time>
      </trkpt>
      <trkpt lat="44.24033" lon="2.98542">
        <ele>819</ele>
        <time>2019-10-11T13:51:28.000Z</time>
      </trkpt>
      <trkpt lat="44.24035" lon="2.98542">
        <ele>819</ele>
        <time>2019-10-11T13:51:29.000Z</time>
      </trkpt>
      <trkpt lat="44.24037" lon="2.98541">
        <ele>819</ele>
        <time>2019-10-11T13:51:30.000Z</time>
      </trkpt>
      <trkpt lat="44.24039" lon="2.98541">
        <ele>819</ele>
        <time>2019-10-11T13:51:31.000Z</time>
      </trkpt>
      <trkpt lat="44.2404" lon="2.98541">
        <ele>819</ele>
        <time>2019-10-11T13:51:32.000Z</time>
      </trkpt>
      <trkpt lat="44.24042" lon="2.98541">
        <ele>819</ele>
        <time>2019-10-11T13:51:33.000Z</time>
      </trkpt>
      <trkpt lat="44.24044" lon="2.98542">
        <ele>819</ele>
        <time>2019-10-11T13:51:34.000Z</time>
      </trkpt>
      <trkpt lat="44.24046" lon="2.98541">
        <ele>819</ele>
        <time>2019-10-11T13:51:35.000Z</time>
      </trkpt>
      <trkpt lat="44.24048" lon="2.98541">
        <ele>819</ele>
        <time>2019-10-11T13:51:36.000Z</time>
      </trkpt>
      <trkpt lat="44.24051" lon="2.98541">
        <ele>819</ele>
        <time>2019-10-11T13:51:37.000Z</time>
      </trkpt>
      <trkpt lat="44.24053" lon="2.9854">
        <ele>819</ele>
        <time>2019-10-11T13:51:38.000Z</time>
      </trkpt>
      <trkpt lat="44.24054" lon="2.9854">
        <ele>819</ele>
        <time>2019-10-11T13:51:39.000Z</time>
      </trkpt>
      <trkpt lat="44.24056" lon="2.98539">
        <ele>819</ele>
        <time>2019-10-11T13:51:40.000Z</time>
      </trkpt>
      <trkpt lat="44.24058" lon="2.98538">
        <ele>819</ele>
        <time>2019-10-11T13:51:41.000Z</time>
      </trkpt>
      <trkpt lat="44.2406" lon="2.98537">
        <ele>819</ele>
        <time>2019-10-11T13:51:42.000Z</time>
      </trkpt>
      <trkpt lat="44.24061" lon="2.98536">
        <ele>819</ele>
        <time>2019-10-11T13:51:43.000Z</time>
      </trkpt>
      <trkpt lat="44.24063" lon="2.98535">
        <ele>819</ele>
        <time>2019-10-11T13:51:44.000Z</time>
      </trkpt>
      <trkpt lat="44.24064" lon="2.98533">
        <ele>819</ele>
        <time>2019-10-11T13:51:45.000Z</time>
      </trkpt>
      <trkpt lat="44.24066" lon="2.98532">
        <ele>818</ele>
        <time>2019-10-11T13:51:46.000Z</time>
      </trkpt>
      <trkpt lat="44.24068" lon="2.98529">
        <ele>818</ele>
        <time>2019-10-11T13:51:47.000Z</time>
      </trkpt>
      <trkpt lat="44.2407" lon="2.98527">
        <ele>818</ele>
        <time>2019-10-11T13:51:48.000Z</time>
      </trkpt>
      <trkpt lat="44.24073" lon="2.98524">
        <ele>818</ele>
        <time>2019-10-11T13:51:49.000Z</time>
      </trkpt>
      <trkpt lat="44.24076" lon="2.9852">
        <ele>818</ele>
        <time>2019-10-11T13:51:50.000Z</time>
      </trkpt>
      <trkpt lat="44.2408" lon="2.98517">
        <ele>818</ele>
        <time>2019-10-11T13:51:51.000Z</time>
      </trkpt>
      <trkpt lat="44.24084" lon="2.98514">
        <ele>818</ele>
        <time>2019-10-11T13:51:52.000Z</time>
      </trkpt>
      <trkpt lat="44.24088" lon="2.9851">
        <ele>818</ele>
        <time>2019-10-11T13:51:53.000Z</time>
      </trkpt>
      <trkpt lat="44.24092" lon="2.98507">
        <ele>818</ele>
        <time>2019-10-11T13:51:54.000Z</time>
      </trkpt>
      <trkpt lat="44.24096" lon="2.98503">
        <ele>818</ele>
        <time>2019-10-11T13:51:55.000Z</time>
      </trkpt>
      <trkpt lat="44.24101" lon="2.98499">
        <ele>818</ele>
        <time>2019-10-11T13:51:56.000Z</time>
      </trkpt>
      <trkpt lat="44.24105" lon="2.98495">
        <ele>818</ele>
        <time>2019-10-11T13:51:57.000Z</time>
      </trkpt>
      <trkpt lat="44.24109" lon="2.98491">
        <ele>818</ele>
        <time>2019-10-11T13:51:58.000Z</time>
      </trkpt>
      <trkpt lat="44.24114" lon="2.98487">
        <ele>818</ele>
        <time>2019-10-11T13:51:59.000Z</time>
      </trkpt>
      <trkpt lat="44.24118" lon="2.98483">
        <ele>818</ele>
        <time>2019-10-11T13:52:00.000Z</time>
      </trkpt>
      <trkpt lat="44.24123" lon="2.98478">
        <ele>818</ele>
        <time>2019-10-11T13:52:01.000Z</time>
      </trkpt>
      <trkpt lat="44.24129" lon="2.98473">
        <ele>818</ele>
        <time>2019-10-11T13:52:02.000Z</time>
      </trkpt>
      <trkpt lat="44.24134" lon="2.98467">
        <ele>818</ele>
        <time>2019-10-11T13:52:03.000Z</time>
      </trkpt>
      <trkpt lat="44.24139" lon="2.98461">
        <ele>818</ele>
        <time>2019-10-11T13:52:04.000Z</time>
      </trkpt>
      <trkpt lat="44.24144" lon="2.98455">
        <ele>818</ele>
        <time>2019-10-11T13:52:05.000Z</time>
      </trkpt>
      <trkpt lat="44.2415" lon="2.98449">
        <ele>818</ele>
        <time>2019-10-11T13:52:06.000Z</time>
      </trkpt>
      <trkpt lat="44.24156" lon="2.98442">
        <ele>818</ele>
        <time>2019-10-11T13:52:07.000Z</time>
      </trkpt>
      <trkpt lat="44.24162" lon="2.98436">
        <ele>818</ele>
        <time>2019-10-11T13:52:08.000Z</time>
      </trkpt>
      <trkpt lat="44.24168" lon="2.9843">
        <ele>818</ele>
        <time>2019-10-11T13:52:09.000Z</time>
      </trkpt>
      <trkpt lat="44.24174" lon="2.98424">
        <ele>817</ele>
        <time>2019-10-11T13:52:10.000Z</time>
      </trkpt>
      <trkpt lat="44.2418" lon="2.98418">
        <ele>818</ele>
        <time>2019-10-11T13:52:11.000Z</time>
      </trkpt>
      <trkpt lat="44.24187" lon="2.98413">
        <ele>818</ele>
        <time>2019-10-11T13:52:12.000Z</time>
      </trkpt>
      <trkpt lat="44.24193" lon="2.98408">
        <ele>818</ele>
        <time>2019-10-11T13:52:13.000Z</time>
      </trkpt>
      <trkpt lat="44.24199" lon="2.98404">
        <ele>818</ele>
        <time>2019-10-11T13:52:14.000Z</time>
      </trkpt>
      <trkpt lat="44.24206" lon="2.984">
        <ele>818</ele>
        <time>2019-10-11T13:52:15.000Z</time>
      </trkpt>
      <trkpt lat="44.24212" lon="2.98395">
        <ele>818</ele>
        <time>2019-10-11T13:52:16.000Z</time>
      </trkpt>
      <trkpt lat="44.24218" lon="2.9839">
        <ele>818</ele>
        <time>2019-10-11T13:52:17.000Z</time>
      </trkpt>
      <trkpt lat="44.24224" lon="2.98386">
        <ele>818</ele>
        <time>2019-10-11T13:52:18.000Z</time>
      </trkpt>
      <trkpt lat="44.2423" lon="2.98381">
        <ele>818</ele>
        <time>2019-10-11T13:52:19.000Z</time>
      </trkpt>
      <trkpt lat="44.24236" lon="2.98377">
        <ele>818</ele>
        <time>2019-10-11T13:52:20.000Z</time>
      </trkpt>
      <trkpt lat="44.24242" lon="2.98372">
        <ele>818</ele>
        <time>2019-10-11T13:52:21.000Z</time>
      </trkpt>
      <trkpt lat="44.24249" lon="2.98367">
        <ele>818</ele>
        <time>2019-10-11T13:52:22.000Z</time>
      </trkpt>
      <trkpt lat="44.24255" lon="2.98362">
        <ele>818</ele>
        <time>2019-10-11T13:52:23.000Z</time>
      </trkpt>
      <trkpt lat="44.24261" lon="2.98357">
        <ele>819</ele>
        <time>2019-10-11T13:52:24.000Z</time>
      </trkpt>
      <trkpt lat="44.24267" lon="2.98352">
        <ele>819</ele>
        <time>2019-10-11T13:52:25.000Z</time>
      </trkpt>
      <trkpt lat="44.24273" lon="2.98347">
        <ele>819</ele>
        <time>2019-10-11T13:52:26.000Z</time>
      </trkpt>
      <trkpt lat="44.24274" lon="2.98346">
        <ele>819</ele>
        <time>2019-10-11T13:52:27.000Z</time>
      </trkpt>
      <trkpt lat="44.24275" lon="2.98345">
        <ele>819</ele>
        <time>2019-10-11T13:52:28.000Z</time>
      </trkpt>
      <trkpt lat="44.24277" lon="2.98344">
        <ele>819</ele>
        <time>2019-10-11T13:52:29.000Z</time>
      </trkpt>
      <trkpt lat="44.24281" lon="2.98343">
        <ele>819</ele>
        <time>2019-10-11T13:52:30.000Z</time>
      </trkpt>
      <trkpt lat="44.24287" lon="2.9834">
        <ele>819</ele>
        <time>2019-10-11T13:52:31.000Z</time>
      </trkpt>
      <trkpt lat="44.24294" lon="2.98337">
        <ele>819</ele>
        <time>2019-10-11T13:52:32.000Z</time>
      </trkpt>
      <trkpt lat="44.243" lon="2.98335">
        <ele>819</ele>
        <time>2019-10-11T13:52:33.000Z</time>
      </trkpt>
      <trkpt lat="44.24306" lon="2.98332">
        <ele>819</ele>
        <time>2019-10-11T13:52:34.000Z</time>
      </trkpt>
      <trkpt lat="44.24312" lon="2.98328">
        <ele>819</ele>
        <time>2019-10-11T13:52:35.000Z</time>
      </trkpt>
      <trkpt lat="44.24319" lon="2.98326">
        <ele>820</ele>
        <time>2019-10-11T13:52:36.000Z</time>
      </trkpt>
      <trkpt lat="44.24325" lon="2.98323">
        <ele>820</ele>
        <time>2019-10-11T13:52:37.000Z</time>
      </trkpt>
      <trkpt lat="44.24332" lon="2.9832">
        <ele>821</ele>
        <time>2019-10-11T13:52:38.000Z</time>
      </trkpt>
      <trkpt lat="44.24338" lon="2.98318">
        <ele>821</ele>
        <time>2019-10-11T13:52:39.000Z</time>
      </trkpt>
      <trkpt lat="44.24344" lon="2.98315">
        <ele>821</ele>
        <time>2019-10-11T13:52:40.000Z</time>
      </trkpt>
      <trkpt lat="44.2435" lon="2.98313">
        <ele>822</ele>
        <time>2019-10-11T13:52:41.000Z</time>
      </trkpt>
      <trkpt lat="44.24357" lon="2.98311">
        <ele>822</ele>
        <time>2019-10-11T13:52:42.000Z</time>
      </trkpt>
      <trkpt lat="44.24363" lon="2.9831">
        <ele>823</ele>
        <time>2019-10-11T13:52:43.000Z</time>
      </trkpt>
      <trkpt lat="44.24369" lon="2.98309">
        <ele>823</ele>
        <time>2019-10-11T13:52:44.000Z</time>
      </trkpt>
      <trkpt lat="44.24375" lon="2.98308">
        <ele>823</ele>
        <time>2019-10-11T13:52:45.000Z</time>
      </trkpt>
      <trkpt lat="44.24381" lon="2.98308">
        <ele>823</ele>
        <time>2019-10-11T13:52:46.000Z</time>
      </trkpt>
      <trkpt lat="44.24387" lon="2.98307">
        <ele>824</ele>
        <time>2019-10-11T13:52:47.000Z</time>
      </trkpt>
      <trkpt lat="44.24393" lon="2.98307">
        <ele>824</ele>
        <time>2019-10-11T13:52:48.000Z</time>
      </trkpt>
      <trkpt lat="44.24399" lon="2.98306">
        <ele>824</ele>
        <time>2019-10-11T13:52:49.000Z</time>
      </trkpt>
      <trkpt lat="44.24405" lon="2.98304">
        <ele>824</ele>
        <time>2019-10-11T13:52:50.000Z</time>
      </trkpt>
      <trkpt lat="44.24411" lon="2.98303">
        <ele>825</ele>
        <time>2019-10-11T13:52:51.000Z</time>
      </trkpt>
      <trkpt lat="44.24418" lon="2.98302">
        <ele>825</ele>
        <time>2019-10-11T13:52:52.000Z</time>
      </trkpt>
      <trkpt lat="44.24424" lon="2.98301">
        <ele>825</ele>
        <time>2019-10-11T13:52:53.000Z</time>
      </trkpt>
      <trkpt lat="44.2443" lon="2.98301">
        <ele>825</ele>
        <time>2019-10-11T13:52:54.000Z</time>
      </trkpt>
      <trkpt lat="44.24437" lon="2.98301">
        <ele>825</ele>
        <time>2019-10-11T13:52:55.000Z</time>
      </trkpt>
      <trkpt lat="44.24443" lon="2.98302">
        <ele>825</ele>
        <time>2019-10-11T13:52:56.000Z</time>
      </trkpt>
      <trkpt lat="44.24449" lon="2.98303">
        <ele>825</ele>
        <time>2019-10-11T13:52:57.000Z</time>
      </trkpt>
      <trkpt lat="44.24455" lon="2.98304">
        <ele>825</ele>
        <time>2019-10-11T13:52:58.000Z</time>
      </trkpt>
      <trkpt lat="44.24461" lon="2.98305">
        <ele>825</ele>
        <time>2019-10-11T13:52:59.000Z</time>
      </trkpt>
      <trkpt lat="44.24467" lon="2.98307">
        <ele>825</ele>
        <time>2019-10-11T13:53:00.000Z</time>
      </trkpt>
      <trkpt lat="44.24473" lon="2.98308">
        <ele>825</ele>
        <time>2019-10-11T13:53:01.000Z</time>
      </trkpt>
      <trkpt lat="44.24479" lon="2.9831">
        <ele>825</ele>
        <time>2019-10-11T13:53:02.000Z</time>
      </trkpt>
      <trkpt lat="44.24484" lon="2.98313">
        <ele>826</ele>
        <time>2019-10-11T13:53:03.000Z</time>
      </trkpt>
      <trkpt lat="44.2449" lon="2.98315">
        <ele>826</ele>
        <time>2019-10-11T13:53:04.000Z</time>
      </trkpt>
      <trkpt lat="44.24496" lon="2.98317">
        <ele>826</ele>
        <time>2019-10-11T13:53:05.000Z</time>
      </trkpt>
      <trkpt lat="44.24501" lon="2.98319">
        <ele>826</ele>
        <time>2019-10-11T13:53:06.000Z</time>
      </trkpt>
      <trkpt lat="44.24507" lon="2.98321">
        <ele>826</ele>
        <time>2019-10-11T13:53:07.000Z</time>
      </trkpt>
      <trkpt lat="44.24513" lon="2.98323">
        <ele>826</ele>
        <time>2019-10-11T13:53:08.000Z</time>
      </trkpt>
      <trkpt lat="44.24518" lon="2.98324">
        <ele>826</ele>
        <time>2019-10-11T13:53:09.000Z</time>
      </trkpt>
      <trkpt lat="44.24524" lon="2.98325">
        <ele>827</ele>
        <time>2019-10-11T13:53:10.000Z</time>
      </trkpt>
      <trkpt lat="44.24529" lon="2.98326">
        <ele>827</ele>
        <time>2019-10-11T13:53:11.000Z</time>
      </trkpt>
      <trkpt lat="44.24535" lon="2.98326">
        <ele>827</ele>
        <time>2019-10-11T13:53:12.000Z</time>
      </trkpt>
      <trkpt lat="44.24541" lon="2.98326">
        <ele>827</ele>
        <time>2019-10-11T13:53:13.000Z</time>
      </trkpt>
      <trkpt lat="44.24546" lon="2.98327">
        <ele>827</ele>
        <time>2019-10-11T13:53:14.000Z</time>
      </trkpt>
      <trkpt lat="44.24552" lon="2.98327">
        <ele>828</ele>
        <time>2019-10-11T13:53:15.000Z</time>
      </trkpt>
      <trkpt lat="44.24558" lon="2.98327">
        <ele>828</ele>
        <time>2019-10-11T13:53:16.000Z</time>
      </trkpt>
      <trkpt lat="44.24565" lon="2.98327">
        <ele>828</ele>
        <time>2019-10-11T13:53:17.000Z</time>
      </trkpt>
      <trkpt lat="44.24571" lon="2.98327">
        <ele>828</ele>
        <time>2019-10-11T13:53:18.000Z</time>
      </trkpt>
      <trkpt lat="44.24577" lon="2.98327">
        <ele>829</ele>
        <time>2019-10-11T13:53:19.000Z</time>
      </trkpt>
      <trkpt lat="44.24583" lon="2.98328">
        <ele>829</ele>
        <time>2019-10-11T13:53:20.000Z</time>
      </trkpt>
      <trkpt lat="44.24589" lon="2.98328">
        <ele>829</ele>
        <time>2019-10-11T13:53:21.000Z</time>
      </trkpt>
      <trkpt lat="44.24594" lon="2.98328">
        <ele>829</ele>
        <time>2019-10-11T13:53:22.000Z</time>
      </trkpt>
      <trkpt lat="44.246" lon="2.98329">
        <ele>829</ele>
        <time>2019-10-11T13:53:23.000Z</time>
      </trkpt>
      <trkpt lat="44.24606" lon="2.98329">
        <ele>830</ele>
        <time>2019-10-11T13:53:24.000Z</time>
      </trkpt>
      <trkpt lat="44.24611" lon="2.98329">
        <ele>830</ele>
        <time>2019-10-11T13:53:25.000Z</time>
      </trkpt>
      <trkpt lat="44.24616" lon="2.98329">
        <ele>830</ele>
        <time>2019-10-11T13:53:26.000Z</time>
      </trkpt>
      <trkpt lat="44.24622" lon="2.98329">
        <ele>830</ele>
        <time>2019-10-11T13:53:27.000Z</time>
      </trkpt>
      <trkpt lat="44.24627" lon="2.98328">
        <ele>831</ele>
        <time>2019-10-11T13:53:28.000Z</time>
      </trkpt>
      <trkpt lat="44.24632" lon="2.98326">
        <ele>831</ele>
        <time>2019-10-11T13:53:29.000Z</time>
      </trkpt>
      <trkpt lat="44.24637" lon="2.98325">
        <ele>831</ele>
        <time>2019-10-11T13:53:30.000Z</time>
      </trkpt>
      <trkpt lat="44.24642" lon="2.98322">
        <ele>831</ele>
        <time>2019-10-11T13:53:31.000Z</time>
      </trkpt>
      <trkpt lat="44.24647" lon="2.98319">
        <ele>831</ele>
        <time>2019-10-11T13:53:32.000Z</time>
      </trkpt>
      <trkpt lat="44.24652" lon="2.98316">
        <ele>831</ele>
        <time>2019-10-11T13:53:33.000Z</time>
      </trkpt>
      <trkpt lat="44.24658" lon="2.98311">
        <ele>831</ele>
        <time>2019-10-11T13:53:34.000Z</time>
      </trkpt>
      <trkpt lat="44.24663" lon="2.98307">
        <ele>831</ele>
        <time>2019-10-11T13:53:35.000Z</time>
      </trkpt>
      <trkpt lat="44.24668" lon="2.98301">
        <ele>831</ele>
        <time>2019-10-11T13:53:36.000Z</time>
      </trkpt>
      <trkpt lat="44.24673" lon="2.98295">
        <ele>831</ele>
        <time>2019-10-11T13:53:37.000Z</time>
      </trkpt>
      <trkpt lat="44.24677" lon="2.98288">
        <ele>831</ele>
        <time>2019-10-11T13:53:38.000Z</time>
      </trkpt>
      <trkpt lat="44.24681" lon="2.98281">
        <ele>831</ele>
        <time>2019-10-11T13:53:39.000Z</time>
      </trkpt>
      <trkpt lat="44.24685" lon="2.98273">
        <ele>831</ele>
        <time>2019-10-11T13:53:40.000Z</time>
      </trkpt>
      <trkpt lat="44.24688" lon="2.98266">
        <ele>831</ele>
        <time>2019-10-11T13:53:41.000Z</time>
      </trkpt>
      <trkpt lat="44.24691" lon="2.98259">
        <ele>831</ele>
        <time>2019-10-11T13:53:42.000Z</time>
      </trkpt>
      <trkpt lat="44.24694" lon="2.98251">
        <ele>832</ele>
        <time>2019-10-11T13:53:43.000Z</time>
      </trkpt>
      <trkpt lat="44.24697" lon="2.98244">
        <ele>832</ele>
        <time>2019-10-11T13:53:44.000Z</time>
      </trkpt>
      <trkpt lat="44.247" lon="2.98237">
        <ele>832</ele>
        <time>2019-10-11T13:53:45.000Z</time>
      </trkpt>
      <trkpt lat="44.24703" lon="2.9823">
        <ele>832</ele>
        <time>2019-10-11T13:53:46.000Z</time>
      </trkpt>
      <trkpt lat="44.24706" lon="2.98223">
        <ele>832</ele>
        <time>2019-10-11T13:53:47.000Z</time>
      </trkpt>
      <trkpt lat="44.24709" lon="2.98217">
        <ele>833</ele>
        <time>2019-10-11T13:53:48.000Z</time>
      </trkpt>
      <trkpt lat="44.24712" lon="2.98211">
        <ele>833</ele>
        <time>2019-10-11T13:53:49.000Z</time>
      </trkpt>
      <trkpt lat="44.24715" lon="2.98206">
        <ele>833</ele>
        <time>2019-10-11T13:53:50.000Z</time>
      </trkpt>
      <trkpt lat="44.24719" lon="2.98201">
        <ele>833</ele>
        <time>2019-10-11T13:53:51.000Z</time>
      </trkpt>
      <trkpt lat="44.24722" lon="2.98196">
        <ele>834</ele>
        <time>2019-10-11T13:53:52.000Z</time>
      </trkpt>
      <trkpt lat="44.24726" lon="2.98193">
        <ele>834</ele>
        <time>2019-10-11T13:53:53.000Z</time>
      </trkpt>
      <trkpt lat="44.2473" lon="2.9819">
        <ele>834</ele>
        <time>2019-10-11T13:53:54.000Z</time>
      </trkpt>
      <trkpt lat="44.24733" lon="2.98188">
        <ele>834</ele>
        <time>2019-10-11T13:53:55.000Z</time>
      </trkpt>
      <trkpt lat="44.24736" lon="2.98186">
        <ele>834</ele>
        <time>2019-10-11T13:53:56.000Z</time>
      </trkpt>
      <trkpt lat="44.24737" lon="2.98185">
        <ele>835</ele>
        <time>2019-10-11T13:53:57.000Z</time>
      </trkpt>
      <trkpt lat="44.24739" lon="2.98185">
        <ele>835</ele>
        <time>2019-10-11T13:53:58.000Z</time>
      </trkpt>
      <trkpt lat="44.2474" lon="2.98185">
        <ele>835</ele>
        <time>2019-10-11T13:53:59.000Z</time>
      </trkpt>
      <trkpt lat="44.24742" lon="2.98184">
        <ele>835</ele>
        <time>2019-10-11T13:54:00.000Z</time>
      </trkpt>
      <trkpt lat="44.24743" lon="2.98183">
        <ele>836</ele>
        <time>2019-10-11T13:54:01.000Z</time>
      </trkpt>
      <trkpt lat="44.24745" lon="2.98182">
        <ele>836</ele>
        <time>2019-10-11T13:54:02.000Z</time>
      </trkpt>
      <trkpt lat="44.24747" lon="2.9818">
        <ele>836</ele>
        <time>2019-10-11T13:54:03.000Z</time>
      </trkpt>
      <trkpt lat="44.24749" lon="2.98178">
        <ele>837</ele>
        <time>2019-10-11T13:54:04.000Z</time>
      </trkpt>
      <trkpt lat="44.24751" lon="2.98176">
        <ele>837</ele>
        <time>2019-10-11T13:54:05.000Z</time>
      </trkpt>
      <trkpt lat="44.24754" lon="2.98174">
        <ele>837</ele>
        <time>2019-10-11T13:54:06.000Z</time>
      </trkpt>
      <trkpt lat="44.24756" lon="2.98172">
        <ele>837</ele>
        <time>2019-10-11T13:54:07.000Z</time>
      </trkpt>
      <trkpt lat="44.24757" lon="2.98171">
        <ele>838</ele>
        <time>2019-10-11T13:54:08.000Z</time>
      </trkpt>
      <trkpt lat="44.24759" lon="2.9817">
        <ele>838</ele>
        <time>2019-10-11T13:54:09.000Z</time>
      </trkpt>
      <trkpt lat="44.2476" lon="2.98169">
        <ele>838</ele>
        <time>2019-10-11T13:54:10.000Z</time>
      </trkpt>
      <trkpt lat="44.24761" lon="2.98168">
        <ele>839</ele>
        <time>2019-10-11T13:54:11.000Z</time>
      </trkpt>
      <trkpt lat="44.24763" lon="2.98167">
        <ele>839</ele>
        <time>2019-10-11T13:54:12.000Z</time>
      </trkpt>
      <trkpt lat="44.24764" lon="2.98167">
        <ele>839</ele>
        <time>2019-10-11T13:54:13.000Z</time>
      </trkpt>
      <trkpt lat="44.24765" lon="2.98166">
        <ele>840</ele>
        <time>2019-10-11T13:54:14.000Z</time>
      </trkpt>
      <trkpt lat="44.24766" lon="2.98165">
        <ele>840</ele>
        <time>2019-10-11T13:54:15.000Z</time>
      </trkpt>
      <trkpt lat="44.24767" lon="2.98164">
        <ele>840</ele>
        <time>2019-10-11T13:54:16.000Z</time>
      </trkpt>
      <trkpt lat="44.24768" lon="2.98163">
        <ele>841</ele>
        <time>2019-10-11T13:54:17.000Z</time>
      </trkpt>
      <trkpt lat="44.24769" lon="2.98162">
        <ele>841</ele>
        <time>2019-10-11T13:54:18.000Z</time>
      </trkpt>
      <trkpt lat="44.2477" lon="2.98161">
        <ele>841</ele>
        <time>2019-10-11T13:54:19.000Z</time>
      </trkpt>
      <trkpt lat="44.24771" lon="2.9816">
        <ele>842</ele>
        <time>2019-10-11T13:54:20.000Z</time>
      </trkpt>
      <trkpt lat="44.24771" lon="2.98159">
        <ele>842</ele>
        <time>2019-10-11T13:54:21.000Z</time>
      </trkpt>
      <trkpt lat="44.24772" lon="2.98158">
        <ele>842</ele>
        <time>2019-10-11T13:54:22.000Z</time>
      </trkpt>
      <trkpt lat="44.24773" lon="2.98157">
        <ele>843</ele>
        <time>2019-10-11T13:54:23.000Z</time>
      </trkpt>
      <trkpt lat="44.24774" lon="2.98156">
        <ele>843</ele>
        <time>2019-10-11T13:54:24.000Z</time>
      </trkpt>
      <trkpt lat="44.24775" lon="2.98156">
        <ele>843</ele>
        <time>2019-10-11T13:54:25.000Z</time>
      </trkpt>
      <trkpt lat="44.24776" lon="2.98155">
        <ele>844</ele>
        <time>2019-10-11T13:54:26.000Z</time>
      </trkpt>
      <trkpt lat="44.24777" lon="2.98154">
        <ele>844</ele>
        <time>2019-10-11T13:54:27.000Z</time>
      </trkpt>
      <trkpt lat="44.24778" lon="2.98154">
        <ele>844</ele>
        <time>2019-10-11T13:54:28.000Z</time>
      </trkpt>
      <trkpt lat="44.24779" lon="2.98153">
        <ele>844</ele>
        <time>2019-10-11T13:54:29.000Z</time>
      </trkpt>
      <trkpt lat="44.2478" lon="2.98153">
        <ele>844</ele>
        <time>2019-10-11T13:54:30.000Z</time>
      </trkpt>
      <trkpt lat="44.24781" lon="2.98152">
        <ele>845</ele>
        <time>2019-10-11T13:54:31.000Z</time>
      </trkpt>
      <trkpt lat="44.24782" lon="2.98151">
        <ele>845</ele>
        <time>2019-10-11T13:54:32.000Z</time>
      </trkpt>
      <trkpt lat="44.24783" lon="2.98151">
        <ele>845</ele>
        <time>2019-10-11T13:54:33.000Z</time>
      </trkpt>
      <trkpt lat="44.24784" lon="2.9815">
        <ele>845</ele>
        <time>2019-10-11T13:54:34.000Z</time>
      </trkpt>
      <trkpt lat="44.24786" lon="2.98149">
        <ele>845</ele>
        <time>2019-10-11T13:54:35.000Z</time>
      </trkpt>
      <trkpt lat="44.24787" lon="2.98148">
        <ele>846</ele>
        <time>2019-10-11T13:54:36.000Z</time>
      </trkpt>
      <trkpt lat="44.24788" lon="2.98147">
        <ele>846</ele>
        <time>2019-10-11T13:54:37.000Z</time>
      </trkpt>
      <trkpt lat="44.2479" lon="2.98147">
        <ele>846</ele>
        <time>2019-10-11T13:54:38.000Z</time>
      </trkpt>
      <trkpt lat="44.24791" lon="2.98146">
        <ele>847</ele>
        <time>2019-10-11T13:54:39.000Z</time>
      </trkpt>
      <trkpt lat="44.24792" lon="2.98146">
        <ele>847</ele>
        <time>2019-10-11T13:54:40.000Z</time>
      </trkpt>
      <trkpt lat="44.24794" lon="2.98146">
        <ele>847</ele>
        <time>2019-10-11T13:54:41.000Z</time>
      </trkpt>
      <trkpt lat="44.24795" lon="2.98145">
        <ele>847</ele>
        <time>2019-10-11T13:54:42.000Z</time>
      </trkpt>
      <trkpt lat="44.24796" lon="2.98145">
        <ele>848</ele>
        <time>2019-10-11T13:54:43.000Z</time>
      </trkpt>
      <trkpt lat="44.24797" lon="2.98144">
        <ele>848</ele>
        <time>2019-10-11T13:54:44.000Z</time>
      </trkpt>
      <trkpt lat="44.24798" lon="2.98144">
        <ele>848</ele>
        <time>2019-10-11T13:54:45.000Z</time>
      </trkpt>
      <trkpt lat="44.248" lon="2.98143">
        <ele>848</ele>
        <time>2019-10-11T13:54:46.000Z</time>
      </trkpt>
      <trkpt lat="44.24801" lon="2.98142">
        <ele>848</ele>
        <time>2019-10-11T13:54:47.000Z</time>
      </trkpt>
      <trkpt lat="44.24803" lon="2.98141">
        <ele>849</ele>
        <time>2019-10-11T13:54:48.000Z</time>
      </trkpt>
      <trkpt lat="44.24804" lon="2.98141">
        <ele>849</ele>
        <time>2019-10-11T13:54:49.000Z</time>
      </trkpt>
      <trkpt lat="44.24805" lon="2.9814">
        <ele>849</ele>
        <time>2019-10-11T13:54:50.000Z</time>
      </trkpt>
      <trkpt lat="44.24806" lon="2.9814">
        <ele>849</ele>
        <time>2019-10-11T13:54:51.000Z</time>
      </trkpt>
      <trkpt lat="44.24808" lon="2.9814">
        <ele>850</ele>
        <time>2019-10-11T13:54:52.000Z</time>
      </trkpt>
      <trkpt lat="44.24809" lon="2.98139">
        <ele>850</ele>
        <time>2019-10-11T13:54:53.000Z</time>
      </trkpt>
      <trkpt lat="44.2481" lon="2.98139">
        <ele>850</ele>
        <time>2019-10-11T13:54:54.000Z</time>
      </trkpt>
      <trkpt lat="44.24811" lon="2.98138">
        <ele>850</ele>
        <time>2019-10-11T13:54:55.000Z</time>
      </trkpt>
      <trkpt lat="44.24812" lon="2.98137">
        <ele>850</ele>
        <time>2019-10-11T13:54:56.000Z</time>
      </trkpt>
      <trkpt lat="44.24813" lon="2.98136">
        <ele>851</ele>
        <time>2019-10-11T13:54:57.000Z</time>
      </trkpt>
      <trkpt lat="44.24815" lon="2.98135">
        <ele>851</ele>
        <time>2019-10-11T13:54:58.000Z</time>
      </trkpt>
      <trkpt lat="44.24816" lon="2.98134">
        <ele>851</ele>
        <time>2019-10-11T13:54:59.000Z</time>
      </trkpt>
      <trkpt lat="44.24817" lon="2.98133">
        <ele>851</ele>
        <time>2019-10-11T13:55:00.000Z</time>
      </trkpt>
      <trkpt lat="44.24818" lon="2.98132">
        <ele>852</ele>
        <time>2019-10-11T13:55:01.000Z</time>
      </trkpt>
      <trkpt lat="44.2482" lon="2.98131">
        <ele>852</ele>
        <time>2019-10-11T13:55:02.000Z</time>
      </trkpt>
      <trkpt lat="44.24821" lon="2.9813">
        <ele>852</ele>
        <time>2019-10-11T13:55:03.000Z</time>
      </trkpt>
      <trkpt lat="44.24822" lon="2.98129">
        <ele>853</ele>
        <time>2019-10-11T13:55:04.000Z</time>
      </trkpt>
      <trkpt lat="44.24823" lon="2.98128">
        <ele>853</ele>
        <time>2019-10-11T13:55:05.000Z</time>
      </trkpt>
      <trkpt lat="44.24825" lon="2.98128">
        <ele>854</ele>
        <time>2019-10-11T13:55:06.000Z</time>
      </trkpt>
      <trkpt lat="44.24826" lon="2.98127">
        <ele>854</ele>
        <time>2019-10-11T13:55:07.000Z</time>
      </trkpt>
      <trkpt lat="44.24827" lon="2.98126">
        <ele>854</ele>
        <time>2019-10-11T13:55:08.000Z</time>
      </trkpt>
      <trkpt lat="44.24828" lon="2.98125">
        <ele>855</ele>
        <time>2019-10-11T13:55:09.000Z</time>
      </trkpt>
      <trkpt lat="44.2483" lon="2.98124">
        <ele>855</ele>
        <time>2019-10-11T13:55:10.000Z</time>
      </trkpt>
      <trkpt lat="44.24831" lon="2.98124">
        <ele>855</ele>
        <time>2019-10-11T13:55:11.000Z</time>
      </trkpt>
      <trkpt lat="44.24832" lon="2.98123">
        <ele>855</ele>
        <time>2019-10-11T13:55:12.000Z</time>
      </trkpt>
      <trkpt lat="44.24833" lon="2.98123">
        <ele>855</ele>
        <time>2019-10-11T13:55:13.000Z</time>
      </trkpt>
      <trkpt lat="44.24834" lon="2.98122">
        <ele>855</ele>
        <time>2019-10-11T13:55:14.000Z</time>
      </trkpt>
      <trkpt lat="44.24835" lon="2.98121">
        <ele>856</ele>
        <time>2019-10-11T13:55:15.000Z</time>
      </trkpt>
      <trkpt lat="44.24836" lon="2.9812">
        <ele>856</ele>
        <time>2019-10-11T13:55:16.000Z</time>
      </trkpt>
      <trkpt lat="44.24837" lon="2.98119">
        <ele>856</ele>
        <time>2019-10-11T13:55:17.000Z</time>
      </trkpt>
      <trkpt lat="44.24838" lon="2.98118">
        <ele>856</ele>
        <time>2019-10-11T13:55:18.000Z</time>
      </trkpt>
      <trkpt lat="44.2484" lon="2.98118">
        <ele>856</ele>
        <time>2019-10-11T13:55:19.000Z</time>
      </trkpt>
      <trkpt lat="44.24841" lon="2.98117">
        <ele>857</ele>
        <time>2019-10-11T13:55:20.000Z</time>
      </trkpt>
      <trkpt lat="44.24842" lon="2.98116">
        <ele>857</ele>
        <time>2019-10-11T13:55:21.000Z</time>
      </trkpt>
      <trkpt lat="44.24843" lon="2.98116">
        <ele>857</ele>
        <time>2019-10-11T13:55:22.000Z</time>
      </trkpt>
      <trkpt lat="44.24844" lon="2.98116">
        <ele>857</ele>
        <time>2019-10-11T13:55:23.000Z</time>
      </trkpt>
      <trkpt lat="44.24845" lon="2.98115">
        <ele>857</ele>
        <time>2019-10-11T13:55:24.000Z</time>
      </trkpt>
      <trkpt lat="44.24846" lon="2.98115">
        <ele>857</ele>
        <time>2019-10-11T13:55:25.000Z</time>
      </trkpt>
      <trkpt lat="44.24847" lon="2.98115">
        <ele>858</ele>
        <time>2019-10-11T13:55:26.000Z</time>
      </trkpt>
      <trkpt lat="44.24849" lon="2.98115">
        <ele>858</ele>
        <time>2019-10-11T13:55:27.000Z</time>
      </trkpt>
      <trkpt lat="44.2485" lon="2.98114">
        <ele>858</ele>
        <time>2019-10-11T13:55:28.000Z</time>
      </trkpt>
      <trkpt lat="44.24851" lon="2.98114">
        <ele>858</ele>
        <time>2019-10-11T13:55:29.000Z</time>
      </trkpt>
      <trkpt lat="44.24852" lon="2.98114">
        <ele>858</ele>
        <time>2019-10-11T13:55:30.000Z</time>
      </trkpt>
      <trkpt lat="44.24853" lon="2.98114">
        <ele>858</ele>
        <time>2019-10-11T13:55:31.000Z</time>
      </trkpt>
      <trkpt lat="44.24854" lon="2.98113">
        <ele>859</ele>
        <time>2019-10-11T13:55:32.000Z</time>
      </trkpt>
      <trkpt lat="44.24854" lon="2.98112">
        <ele>859</ele>
        <time>2019-10-11T13:55:33.000Z</time>
      </trkpt>
      <trkpt lat="44.24855" lon="2.98111">
        <ele>859</ele>
        <time>2019-10-11T13:55:34.000Z</time>
      </trkpt>
      <trkpt lat="44.24856" lon="2.98111">
        <ele>859</ele>
        <time>2019-10-11T13:55:35.000Z</time>
      </trkpt>
      <trkpt lat="44.24857" lon="2.98111">
        <ele>860</ele>
        <time>2019-10-11T13:55:36.000Z</time>
      </trkpt>
      <trkpt lat="44.24858" lon="2.9811">
        <ele>860</ele>
        <time>2019-10-11T13:55:37.000Z</time>
      </trkpt>
      <trkpt lat="44.24859" lon="2.9811">
        <ele>860</ele>
        <time>2019-10-11T13:55:38.000Z</time>
      </trkpt>
      <trkpt lat="44.2486" lon="2.98109">
        <ele>860</ele>
        <time>2019-10-11T13:55:39.000Z</time>
      </trkpt>
      <trkpt lat="44.2486" lon="2.98108">
        <ele>860</ele>
        <time>2019-10-11T13:55:40.000Z</time>
      </trkpt>
      <trkpt lat="44.24861" lon="2.98108">
        <ele>860</ele>
        <time>2019-10-11T13:55:41.000Z</time>
      </trkpt>
      <trkpt lat="44.24862" lon="2.98107">
        <ele>861</ele>
        <time>2019-10-11T13:55:42.000Z</time>
      </trkpt>
      <trkpt lat="44.24863" lon="2.98107">
        <ele>861</ele>
        <time>2019-10-11T13:55:43.000Z</time>
      </trkpt>
      <trkpt lat="44.24864" lon="2.98106">
        <ele>861</ele>
        <time>2019-10-11T13:55:44.000Z</time>
      </trkpt>
      <trkpt lat="44.24865" lon="2.98105">
        <ele>861</ele>
        <time>2019-10-11T13:55:45.000Z</time>
      </trkpt>
      <trkpt lat="44.24866" lon="2.98104">
        <ele>861</ele>
        <time>2019-10-11T13:55:46.000Z</time>
      </trkpt>
      <trkpt lat="44.24867" lon="2.98103">
        <ele>861</ele>
        <time>2019-10-11T13:55:47.000Z</time>
      </trkpt>
      <trkpt lat="44.24868" lon="2.98103">
        <ele>861</ele>
        <time>2019-10-11T13:55:48.000Z</time>
      </trkpt>
      <trkpt lat="44.24869" lon="2.98102">
        <ele>861</ele>
        <time>2019-10-11T13:55:49.000Z</time>
      </trkpt>
      <trkpt lat="44.24871" lon="2.98101">
        <ele>862</ele>
        <time>2019-10-11T13:55:50.000Z</time>
      </trkpt>
      <trkpt lat="44.24872" lon="2.981">
        <ele>862</ele>
        <time>2019-10-11T13:55:51.000Z</time>
      </trkpt>
      <trkpt lat="44.24873" lon="2.98099">
        <ele>862</ele>
        <time>2019-10-11T13:55:52.000Z</time>
      </trkpt>
      <trkpt lat="44.24874" lon="2.98098">
        <ele>862</ele>
        <time>2019-10-11T13:55:53.000Z</time>
      </trkpt>
      <trkpt lat="44.24875" lon="2.98097">
        <ele>862</ele>
        <time>2019-10-11T13:55:54.000Z</time>
      </trkpt>
      <trkpt lat="44.24876" lon="2.98096">
        <ele>862</ele>
        <time>2019-10-11T13:55:55.000Z</time>
      </trkpt>
      <trkpt lat="44.24877" lon="2.98095">
        <ele>862</ele>
        <time>2019-10-11T13:55:56.000Z</time>
      </trkpt>
      <trkpt lat="44.24879" lon="2.98094">
        <ele>862</ele>
        <time>2019-10-11T13:55:57.000Z</time>
      </trkpt>
      <trkpt lat="44.2488" lon="2.98093">
        <ele>862</ele>
        <time>2019-10-11T13:55:58.000Z</time>
      </trkpt>
      <trkpt lat="44.24881" lon="2.98092">
        <ele>863</ele>
        <time>2019-10-11T13:55:59.000Z</time>
      </trkpt>
      <trkpt lat="44.24882" lon="2.9809">
        <ele>863</ele>
        <time>2019-10-11T13:56:00.000Z</time>
      </trkpt>
      <trkpt lat="44.24882" lon="2.98089">
        <ele>863</ele>
        <time>2019-10-11T13:56:01.000Z</time>
      </trkpt>
      <trkpt lat="44.24883" lon="2.98087">
        <ele>863</ele>
        <time>2019-10-11T13:56:02.000Z</time>
      </trkpt>
      <trkpt lat="44.24884" lon="2.98086">
        <ele>864</ele>
        <time>2019-10-11T13:56:03.000Z</time>
      </trkpt>
      <trkpt lat="44.24884" lon="2.98084">
        <ele>864</ele>
        <time>2019-10-11T13:56:04.000Z</time>
      </trkpt>
      <trkpt lat="44.24885" lon="2.98082">
        <ele>864</ele>
        <time>2019-10-11T13:56:05.000Z</time>
      </trkpt>
      <trkpt lat="44.24886" lon="2.98081">
        <ele>865</ele>
        <time>2019-10-11T13:56:06.000Z</time>
      </trkpt>
      <trkpt lat="44.24886" lon="2.98079">
        <ele>865</ele>
        <time>2019-10-11T13:56:07.000Z</time>
      </trkpt>
      <trkpt lat="44.24887" lon="2.98077">
        <ele>865</ele>
        <time>2019-10-11T13:56:08.000Z</time>
      </trkpt>
      <trkpt lat="44.24887" lon="2.98076">
        <ele>865</ele>
        <time>2019-10-11T13:56:09.000Z</time>
      </trkpt>
      <trkpt lat="44.24888" lon="2.98074">
        <ele>866</ele>
        <time>2019-10-11T13:56:10.000Z</time>
      </trkpt>
      <trkpt lat="44.24888" lon="2.98073">
        <ele>866</ele>
        <time>2019-10-11T13:56:11.000Z</time>
      </trkpt>
      <trkpt lat="44.24889" lon="2.98071">
        <ele>866</ele>
        <time>2019-10-11T13:56:12.000Z</time>
      </trkpt>
      <trkpt lat="44.24889" lon="2.9807">
        <ele>866</ele>
        <time>2019-10-11T13:56:13.000Z</time>
      </trkpt>
      <trkpt lat="44.24889" lon="2.98068">
        <ele>867</ele>
        <time>2019-10-11T13:56:14.000Z</time>
      </trkpt>
      <trkpt lat="44.2489" lon="2.98066">
        <ele>867</ele>
        <time>2019-10-11T13:56:15.000Z</time>
      </trkpt>
      <trkpt lat="44.2489" lon="2.98065">
        <ele>867</ele>
        <time>2019-10-11T13:56:16.000Z</time>
      </trkpt>
      <trkpt lat="44.2489" lon="2.98063">
        <ele>868</ele>
        <time>2019-10-11T13:56:17.000Z</time>
      </trkpt>
      <trkpt lat="44.24891" lon="2.98061">
        <ele>868</ele>
        <time>2019-10-11T13:56:18.000Z</time>
      </trkpt>
      <trkpt lat="44.24891" lon="2.98059">
        <ele>868</ele>
        <time>2019-10-11T13:56:19.000Z</time>
      </trkpt>
      <trkpt lat="44.24891" lon="2.98057">
        <ele>869</ele>
        <time>2019-10-11T13:56:20.000Z</time>
      </trkpt>
      <trkpt lat="44.24891" lon="2.98055">
        <ele>869</ele>
        <time>2019-10-11T13:56:21.000Z</time>
      </trkpt>
      <trkpt lat="44.24891" lon="2.98053">
        <ele>869</ele>
        <time>2019-10-11T13:56:22.000Z</time>
      </trkpt>
      <trkpt lat="44.24891" lon="2.98051">
        <ele>870</ele>
        <time>2019-10-11T13:56:23.000Z</time>
      </trkpt>
      <trkpt lat="44.24892" lon="2.98049">
        <ele>870</ele>
        <time>2019-10-11T13:56:24.000Z</time>
      </trkpt>
      <trkpt lat="44.24892" lon="2.98047">
        <ele>870</ele>
        <time>2019-10-11T13:56:25.000Z</time>
      </trkpt>
      <trkpt lat="44.24892" lon="2.98045">
        <ele>870</ele>
        <time>2019-10-11T13:56:26.000Z</time>
      </trkpt>
      <trkpt lat="44.24892" lon="2.98044">
        <ele>871</ele>
        <time>2019-10-11T13:56:27.000Z</time>
      </trkpt>
      <trkpt lat="44.24892" lon="2.98042">
        <ele>871</ele>
        <time>2019-10-11T13:56:28.000Z</time>
      </trkpt>
      <trkpt lat="44.24892" lon="2.9804">
        <ele>871</ele>
        <time>2019-10-11T13:56:29.000Z</time>
      </trkpt>
      <trkpt lat="44.24892" lon="2.98039">
        <ele>871</ele>
        <time>2019-10-11T13:56:30.000Z</time>
      </trkpt>
      <trkpt lat="44.24892" lon="2.98037">
        <ele>872</ele>
        <time>2019-10-11T13:56:31.000Z</time>
      </trkpt>
      <trkpt lat="44.24892" lon="2.98035">
        <ele>872</ele>
        <time>2019-10-11T13:56:32.000Z</time>
      </trkpt>
      <trkpt lat="44.24892" lon="2.98033">
        <ele>872</ele>
        <time>2019-10-11T13:56:33.000Z</time>
      </trkpt>
      <trkpt lat="44.24892" lon="2.98031">
        <ele>872</ele>
        <time>2019-10-11T13:56:34.000Z</time>
      </trkpt>
      <trkpt lat="44.24892" lon="2.9803">
        <ele>873</ele>
        <time>2019-10-11T13:56:35.000Z</time>
      </trkpt>
      <trkpt lat="44.24891" lon="2.98029">
        <ele>873</ele>
        <time>2019-10-11T13:56:36.000Z</time>
      </trkpt>
      <trkpt lat="44.24891" lon="2.98027">
        <ele>873</ele>
        <time>2019-10-11T13:56:37.000Z</time>
      </trkpt>
      <trkpt lat="44.24891" lon="2.98026">
        <ele>873</ele>
        <time>2019-10-11T13:56:38.000Z</time>
      </trkpt>
      <trkpt lat="44.2489" lon="2.98024">
        <ele>874</ele>
        <time>2019-10-11T13:56:39.000Z</time>
      </trkpt>
      <trkpt lat="44.2489" lon="2.98022">
        <ele>874</ele>
        <time>2019-10-11T13:56:40.000Z</time>
      </trkpt>
      <trkpt lat="44.24889" lon="2.9802">
        <ele>874</ele>
        <time>2019-10-11T13:56:41.000Z</time>
      </trkpt>
      <trkpt lat="44.24889" lon="2.98019">
        <ele>874</ele>
        <time>2019-10-11T13:56:42.000Z</time>
      </trkpt>
      <trkpt lat="44.24888" lon="2.98017">
        <ele>874</ele>
        <time>2019-10-11T13:56:43.000Z</time>
      </trkpt>
      <trkpt lat="44.24887" lon="2.98015">
        <ele>874</ele>
        <time>2019-10-11T13:56:44.000Z</time>
      </trkpt>
      <trkpt lat="44.24887" lon="2.98014">
        <ele>875</ele>
        <time>2019-10-11T13:56:45.000Z</time>
      </trkpt>
      <trkpt lat="44.24886" lon="2.98012">
        <ele>875</ele>
        <time>2019-10-11T13:56:46.000Z</time>
      </trkpt>
      <trkpt lat="44.24886" lon="2.9801">
        <ele>875</ele>
        <time>2019-10-11T13:56:47.000Z</time>
      </trkpt>
      <trkpt lat="44.24885" lon="2.98008">
        <ele>875</ele>
        <time>2019-10-11T13:56:48.000Z</time>
      </trkpt>
      <trkpt lat="44.24885" lon="2.98007">
        <ele>875</ele>
        <time>2019-10-11T13:56:49.000Z</time>
      </trkpt>
      <trkpt lat="44.24884" lon="2.98005">
        <ele>875</ele>
        <time>2019-10-11T13:56:50.000Z</time>
      </trkpt>
      <trkpt lat="44.24884" lon="2.98003">
        <ele>875</ele>
        <time>2019-10-11T13:56:51.000Z</time>
      </trkpt>
      <trkpt lat="44.24884" lon="2.98001">
        <ele>875</ele>
        <time>2019-10-11T13:56:52.000Z</time>
      </trkpt>
      <trkpt lat="44.24883" lon="2.97999">
        <ele>875</ele>
        <time>2019-10-11T13:56:53.000Z</time>
      </trkpt>
      <trkpt lat="44.24883" lon="2.97996">
        <ele>876</ele>
        <time>2019-10-11T13:56:54.000Z</time>
      </trkpt>
      <trkpt lat="44.24883" lon="2.97994">
        <ele>876</ele>
        <time>2019-10-11T13:56:55.000Z</time>
      </trkpt>
      <trkpt lat="44.24883" lon="2.97992">
        <ele>876</ele>
        <time>2019-10-11T13:56:56.000Z</time>
      </trkpt>
      <trkpt lat="44.24883" lon="2.97991">
        <ele>876</ele>
        <time>2019-10-11T13:56:57.000Z</time>
      </trkpt>
      <trkpt lat="44.24883" lon="2.97989">
        <ele>876</ele>
        <time>2019-10-11T13:56:58.000Z</time>
      </trkpt>
      <trkpt lat="44.24883" lon="2.97987">
        <ele>876</ele>
        <time>2019-10-11T13:56:59.000Z</time>
      </trkpt>
      <trkpt lat="44.24883" lon="2.97984">
        <ele>876</ele>
        <time>2019-10-11T13:57:00.000Z</time>
      </trkpt>
      <trkpt lat="44.24883" lon="2.97983">
        <ele>876</ele>
        <time>2019-10-11T13:57:01.000Z</time>
      </trkpt>
      <trkpt lat="44.24883" lon="2.97981">
        <ele>876</ele>
        <time>2019-10-11T13:57:02.000Z</time>
      </trkpt>
      <trkpt lat="44.24884" lon="2.97979">
        <ele>876</ele>
        <time>2019-10-11T13:57:03.000Z</time>
      </trkpt>
      <trkpt lat="44.24884" lon="2.97978">
        <ele>877</ele>
        <time>2019-10-11T13:57:04.000Z</time>
      </trkpt>
      <trkpt lat="44.24885" lon="2.97976">
        <ele>877</ele>
        <time>2019-10-11T13:57:05.000Z</time>
      </trkpt>
      <trkpt lat="44.24886" lon="2.97975">
        <ele>877</ele>
        <time>2019-10-11T13:57:06.000Z</time>
      </trkpt>
      <trkpt lat="44.24887" lon="2.97974">
        <ele>877</ele>
        <time>2019-10-11T13:57:07.000Z</time>
      </trkpt>
      <trkpt lat="44.24888" lon="2.97973">
        <ele>877</ele>
        <time>2019-10-11T13:57:08.000Z</time>
      </trkpt>
      <trkpt lat="44.24889" lon="2.97972">
        <ele>877</ele>
        <time>2019-10-11T13:57:09.000Z</time>
      </trkpt>
      <trkpt lat="44.2489" lon="2.97971">
        <ele>878</ele>
        <time>2019-10-11T13:57:10.000Z</time>
      </trkpt>
      <trkpt lat="44.24891" lon="2.9797">
        <ele>878</ele>
        <time>2019-10-11T13:57:11.000Z</time>
      </trkpt>
      <trkpt lat="44.24892" lon="2.97969">
        <ele>878</ele>
        <time>2019-10-11T13:57:12.000Z</time>
      </trkpt>
      <trkpt lat="44.24893" lon="2.97968">
        <ele>878</ele>
        <time>2019-10-11T13:57:13.000Z</time>
      </trkpt>
      <trkpt lat="44.24894" lon="2.97967">
        <ele>878</ele>
        <time>2019-10-11T13:57:14.000Z</time>
      </trkpt>
      <trkpt lat="44.24895" lon="2.97966">
        <ele>879</ele>
        <time>2019-10-11T13:57:15.000Z</time>
      </trkpt>
      <trkpt lat="44.24896" lon="2.97965">
        <ele>879</ele>
        <time>2019-10-11T13:57:16.000Z</time>
      </trkpt>
      <trkpt lat="44.24896" lon="2.97964">
        <ele>879</ele>
        <time>2019-10-11T13:57:17.000Z</time>
      </trkpt>
      <trkpt lat="44.24897" lon="2.97964">
        <ele>879</ele>
        <time>2019-10-11T13:57:18.000Z</time>
      </trkpt>
      <trkpt lat="44.24897" lon="2.97963">
        <ele>880</ele>
        <time>2019-10-11T13:57:19.000Z</time>
      </trkpt>
      <trkpt lat="44.24897" lon="2.97963">
        <ele>880</ele>
        <time>2019-10-11T13:57:20.000Z</time>
      </trkpt>
      <trkpt lat="44.24897" lon="2.97963">
        <ele>880</ele>
        <time>2019-10-11T13:57:21.000Z</time>
      </trkpt>
      <trkpt lat="44.24897" lon="2.97963">
        <ele>880</ele>
        <time>2019-10-11T13:57:22.000Z</time>
      </trkpt>
      <trkpt lat="44.24897" lon="2.97963">
        <ele>880</ele>
        <time>2019-10-11T13:57:23.000Z</time>
      </trkpt>
      <trkpt lat="44.24897" lon="2.97963">
        <ele>880</ele>
        <time>2019-10-11T13:57:24.000Z</time>
      </trkpt>
      <trkpt lat="44.24897" lon="2.97963">
        <ele>880</ele>
        <time>2019-10-11T13:57:25.000Z</time>
      </trkpt>
      <trkpt lat="44.24897" lon="2.97963">
        <ele>880</ele>
        <time>2019-10-11T13:57:26.000Z</time>
      </trkpt>
      <trkpt lat="44.24898" lon="2.97963">
        <ele>880</ele>
        <time>2019-10-11T13:57:27.000Z</time>
      </trkpt>
      <trkpt lat="44.24898" lon="2.97962">
        <ele>880</ele>
        <time>2019-10-11T13:57:28.000Z</time>
      </trkpt>
      <trkpt lat="44.24899" lon="2.97961">
        <ele>880</ele>
        <time>2019-10-11T13:57:29.000Z</time>
      </trkpt>
      <trkpt lat="44.249" lon="2.9796">
        <ele>880</ele>
        <time>2019-10-11T13:57:30.000Z</time>
      </trkpt>
      <trkpt lat="44.24901" lon="2.97959">
        <ele>881</ele>
        <time>2019-10-11T13:57:31.000Z</time>
      </trkpt>
      <trkpt lat="44.24902" lon="2.97959">
        <ele>881</ele>
        <time>2019-10-11T13:57:32.000Z</time>
      </trkpt>
      <trkpt lat="44.24903" lon="2.97958">
        <ele>881</ele>
        <time>2019-10-11T13:57:33.000Z</time>
      </trkpt>
      <trkpt lat="44.24904" lon="2.97957">
        <ele>881</ele>
        <time>2019-10-11T13:57:34.000Z</time>
      </trkpt>
      <trkpt lat="44.24905" lon="2.97957">
        <ele>881</ele>
        <time>2019-10-11T13:57:35.000Z</time>
      </trkpt>
      <trkpt lat="44.24905" lon="2.97956">
        <ele>881</ele>
        <time>2019-10-11T13:57:36.000Z</time>
      </trkpt>
      <trkpt lat="44.24906" lon="2.97955">
        <ele>882</ele>
        <time>2019-10-11T13:57:37.000Z</time>
      </trkpt>
      <trkpt lat="44.24907" lon="2.97954">
        <ele>882</ele>
        <time>2019-10-11T13:57:38.000Z</time>
      </trkpt>
      <trkpt lat="44.24908" lon="2.97953">
        <ele>882</ele>
        <time>2019-10-11T13:57:39.000Z</time>
      </trkpt>
      <trkpt lat="44.24909" lon="2.97952">
        <ele>882</ele>
        <time>2019-10-11T13:57:40.000Z</time>
      </trkpt>
      <trkpt lat="44.2491" lon="2.97951">
        <ele>882</ele>
        <time>2019-10-11T13:57:41.000Z</time>
      </trkpt>
      <trkpt lat="44.24911" lon="2.9795">
        <ele>882</ele>
        <time>2019-10-11T13:57:42.000Z</time>
      </trkpt>
      <trkpt lat="44.24912" lon="2.97949">
        <ele>881</ele>
        <time>2019-10-11T13:57:43.000Z</time>
      </trkpt>
      <trkpt lat="44.24913" lon="2.97948">
        <ele>881</ele>
        <time>2019-10-11T13:57:44.000Z</time>
      </trkpt>
      <trkpt lat="44.24914" lon="2.97947">
        <ele>881</ele>
        <time>2019-10-11T13:57:45.000Z</time>
      </trkpt>
      <trkpt lat="44.24915" lon="2.97946">
        <ele>881</ele>
        <time>2019-10-11T13:57:46.000Z</time>
      </trkpt>
      <trkpt lat="44.24916" lon="2.97945">
        <ele>881</ele>
        <time>2019-10-11T13:57:47.000Z</time>
      </trkpt>
      <trkpt lat="44.24917" lon="2.97944">
        <ele>882</ele>
        <time>2019-10-11T13:57:48.000Z</time>
      </trkpt>
      <trkpt lat="44.24918" lon="2.97943">
        <ele>882</ele>
        <time>2019-10-11T13:57:49.000Z</time>
      </trkpt>
      <trkpt lat="44.24919" lon="2.97941">
        <ele>882</ele>
        <time>2019-10-11T13:57:50.000Z</time>
      </trkpt>
      <trkpt lat="44.2492" lon="2.9794">
        <ele>882</ele>
        <time>2019-10-11T13:57:51.000Z</time>
      </trkpt>
      <trkpt lat="44.24922" lon="2.97938">
        <ele>882</ele>
        <time>2019-10-11T13:57:52.000Z</time>
      </trkpt>
      <trkpt lat="44.24922" lon="2.97936">
        <ele>882</ele>
        <time>2019-10-11T13:57:53.000Z</time>
      </trkpt>
      <trkpt lat="44.24923" lon="2.97934">
        <ele>883</ele>
        <time>2019-10-11T13:57:54.000Z</time>
      </trkpt>
      <trkpt lat="44.24924" lon="2.97932">
        <ele>883</ele>
        <time>2019-10-11T13:57:55.000Z</time>
      </trkpt>
      <trkpt lat="44.24925" lon="2.97931">
        <ele>883</ele>
        <time>2019-10-11T13:57:56.000Z</time>
      </trkpt>
      <trkpt lat="44.24926" lon="2.97931">
        <ele>883</ele>
        <time>2019-10-11T13:57:57.000Z</time>
      </trkpt>
      <trkpt lat="44.24928" lon="2.97931">
        <ele>883</ele>
        <time>2019-10-11T13:57:58.000Z</time>
      </trkpt>
      <trkpt lat="44.24929" lon="2.97931">
        <ele>883</ele>
        <time>2019-10-11T13:57:59.000Z</time>
      </trkpt>
      <trkpt lat="44.2493" lon="2.97932">
        <ele>883</ele>
        <time>2019-10-11T13:58:00.000Z</time>
      </trkpt>
      <trkpt lat="44.24931" lon="2.97932">
        <ele>883</ele>
        <time>2019-10-11T13:58:01.000Z</time>
      </trkpt>
      <trkpt lat="44.24933" lon="2.97933">
        <ele>883</ele>
        <time>2019-10-11T13:58:02.000Z</time>
      </trkpt>
      <trkpt lat="44.24934" lon="2.97933">
        <ele>883</ele>
        <time>2019-10-11T13:58:03.000Z</time>
      </trkpt>
      <trkpt lat="44.24935" lon="2.97933">
        <ele>883</ele>
        <time>2019-10-11T13:58:04.000Z</time>
      </trkpt>
      <trkpt lat="44.24937" lon="2.97933">
        <ele>883</ele>
        <time>2019-10-11T13:58:05.000Z</time>
      </trkpt>
      <trkpt lat="44.24938" lon="2.97933">
        <ele>883</ele>
        <time>2019-10-11T13:58:06.000Z</time>
      </trkpt>
      <trkpt lat="44.24939" lon="2.97933">
        <ele>883</ele>
        <time>2019-10-11T13:58:07.000Z</time>
      </trkpt>
      <trkpt lat="44.2494" lon="2.97933">
        <ele>883</ele>
        <time>2019-10-11T13:58:08.000Z</time>
      </trkpt>
      <trkpt lat="44.24942" lon="2.97933">
        <ele>883</ele>
        <time>2019-10-11T13:58:09.000Z</time>
      </trkpt>
      <trkpt lat="44.24944" lon="2.97933">
        <ele>883</ele>
        <time>2019-10-11T13:58:10.000Z</time>
      </trkpt>
      <trkpt lat="44.24945" lon="2.97932">
        <ele>883</ele>
        <time>2019-10-11T13:58:11.000Z</time>
      </trkpt>
      <trkpt lat="44.24947" lon="2.97932">
        <ele>883</ele>
        <time>2019-10-11T13:58:12.000Z</time>
      </trkpt>
      <trkpt lat="44.24949" lon="2.97932">
        <ele>883</ele>
        <time>2019-10-11T13:58:13.000Z</time>
      </trkpt>
      <trkpt lat="44.24951" lon="2.97931">
        <ele>883</ele>
        <time>2019-10-11T13:58:14.000Z</time>
      </trkpt>
      <trkpt lat="44.24952" lon="2.97931">
        <ele>883</ele>
        <time>2019-10-11T13:58:15.000Z</time>
      </trkpt>
      <trkpt lat="44.24954" lon="2.97931">
        <ele>883</ele>
        <time>2019-10-11T13:58:16.000Z</time>
      </trkpt>
      <trkpt lat="44.24956" lon="2.9793">
        <ele>883</ele>
        <time>2019-10-11T13:58:17.000Z</time>
      </trkpt>
      <trkpt lat="44.24959" lon="2.97929">
        <ele>883</ele>
        <time>2019-10-11T13:58:18.000Z</time>
      </trkpt>
      <trkpt lat="44.24961" lon="2.97928">
        <ele>884</ele>
        <time>2019-10-11T13:58:19.000Z</time>
      </trkpt>
      <trkpt lat="44.24964" lon="2.97928">
        <ele>884</ele>
        <time>2019-10-11T13:58:20.000Z</time>
      </trkpt>
      <trkpt lat="44.24967" lon="2.97927">
        <ele>884</ele>
        <time>2019-10-11T13:58:21.000Z</time>
      </trkpt>
      <trkpt lat="44.24969" lon="2.97926">
        <ele>884</ele>
        <time>2019-10-11T13:58:22.000Z</time>
      </trkpt>
      <trkpt lat="44.24972" lon="2.97925">
        <ele>884</ele>
        <time>2019-10-11T13:58:23.000Z</time>
      </trkpt>
      <trkpt lat="44.24976" lon="2.97924">
        <ele>884</ele>
        <time>2019-10-11T13:58:24.000Z</time>
      </trkpt>
      <trkpt lat="44.24979" lon="2.97923">
        <ele>884</ele>
        <time>2019-10-11T13:58:25.000Z</time>
      </trkpt>
      <trkpt lat="44.24983" lon="2.97923">
        <ele>884</ele>
        <time>2019-10-11T13:58:26.000Z</time>
      </trkpt>
      <trkpt lat="44.24987" lon="2.97922">
        <ele>884</ele>
        <time>2019-10-11T13:58:27.000Z</time>
      </trkpt>
      <trkpt lat="44.2499" lon="2.97922">
        <ele>884</ele>
        <time>2019-10-11T13:58:28.000Z</time>
      </trkpt>
      <trkpt lat="44.24994" lon="2.97922">
        <ele>884</ele>
        <time>2019-10-11T13:58:29.000Z</time>
      </trkpt>
      <trkpt lat="44.24998" lon="2.97921">
        <ele>884</ele>
        <time>2019-10-11T13:58:30.000Z</time>
      </trkpt>
      <trkpt lat="44.25002" lon="2.97922">
        <ele>884</ele>
        <time>2019-10-11T13:58:31.000Z</time>
      </trkpt>
      <trkpt lat="44.25006" lon="2.97922">
        <ele>884</ele>
        <time>2019-10-11T13:58:32.000Z</time>
      </trkpt>
      <trkpt lat="44.2501" lon="2.97923">
        <ele>884</ele>
        <time>2019-10-11T13:58:33.000Z</time>
      </trkpt>
      <trkpt lat="44.25015" lon="2.97925">
        <ele>884</ele>
        <time>2019-10-11T13:58:34.000Z</time>
      </trkpt>
      <trkpt lat="44.25019" lon="2.97926">
        <ele>884</ele>
        <time>2019-10-11T13:58:35.000Z</time>
      </trkpt>
      <trkpt lat="44.25024" lon="2.97928">
        <ele>884</ele>
        <time>2019-10-11T13:58:36.000Z</time>
      </trkpt>
      <trkpt lat="44.25028" lon="2.9793">
        <ele>884</ele>
        <time>2019-10-11T13:58:37.000Z</time>
      </trkpt>
      <trkpt lat="44.25033" lon="2.97932">
        <ele>884</ele>
        <time>2019-10-11T13:58:38.000Z</time>
      </trkpt>
      <trkpt lat="44.25037" lon="2.97933">
        <ele>885</ele>
        <time>2019-10-11T13:58:39.000Z</time>
      </trkpt>
      <trkpt lat="44.25041" lon="2.97934">
        <ele>885</ele>
        <time>2019-10-11T13:58:40.000Z</time>
      </trkpt>
      <trkpt lat="44.25045" lon="2.97935">
        <ele>885</ele>
        <time>2019-10-11T13:58:41.000Z</time>
      </trkpt>
      <trkpt lat="44.2505" lon="2.97935">
        <ele>885</ele>
        <time>2019-10-11T13:58:42.000Z</time>
      </trkpt>
      <trkpt lat="44.25054" lon="2.97934">
        <ele>885</ele>
        <time>2019-10-11T13:58:43.000Z</time>
      </trkpt>
      <trkpt lat="44.25058" lon="2.97933">
        <ele>885</ele>
        <time>2019-10-11T13:58:44.000Z</time>
      </trkpt>
      <trkpt lat="44.25062" lon="2.97932">
        <ele>885</ele>
        <time>2019-10-11T13:58:45.000Z</time>
      </trkpt>
      <trkpt lat="44.25067" lon="2.9793">
        <ele>885</ele>
        <time>2019-10-11T13:58:46.000Z</time>
      </trkpt>
      <trkpt lat="44.25071" lon="2.97929">
        <ele>885</ele>
        <time>2019-10-11T13:58:47.000Z</time>
      </trkpt>
      <trkpt lat="44.25075" lon="2.97928">
        <ele>885</ele>
        <time>2019-10-11T13:58:48.000Z</time>
      </trkpt>
      <trkpt lat="44.2508" lon="2.97926">
        <ele>885</ele>
        <time>2019-10-11T13:58:49.000Z</time>
      </trkpt>
      <trkpt lat="44.25084" lon="2.97925">
        <ele>885</ele>
        <time>2019-10-11T13:58:50.000Z</time>
      </trkpt>
      <trkpt lat="44.25088" lon="2.97924">
        <ele>885</ele>
        <time>2019-10-11T13:58:51.000Z</time>
      </trkpt>
      <trkpt lat="44.25092" lon="2.97922">
        <ele>885</ele>
        <time>2019-10-11T13:58:52.000Z</time>
      </trkpt>
      <trkpt lat="44.25096" lon="2.97921">
        <ele>885</ele>
        <time>2019-10-11T13:58:53.000Z</time>
      </trkpt>
      <trkpt lat="44.251" lon="2.97919">
        <ele>885</ele>
        <time>2019-10-11T13:58:54.000Z</time>
      </trkpt>
      <trkpt lat="44.25103" lon="2.97917">
        <ele>885</ele>
        <time>2019-10-11T13:58:55.000Z</time>
      </trkpt>
      <trkpt lat="44.25104" lon="2.97914">
        <ele>885</ele>
        <time>2019-10-11T13:58:56.000Z</time>
      </trkpt>
      <trkpt lat="44.25105" lon="2.97912">
        <ele>885</ele>
        <time>2019-10-11T13:58:57.000Z</time>
      </trkpt>
      <trkpt lat="44.25105" lon="2.9791">
        <ele>885</ele>
        <time>2019-10-11T13:58:58.000Z</time>
      </trkpt>
      <trkpt lat="44.25104" lon="2.97909">
        <ele>885</ele>
        <time>2019-10-11T13:58:59.000Z</time>
      </trkpt>
      <trkpt lat="44.25102" lon="2.97909">
        <ele>885</ele>
        <time>2019-10-11T13:59:00.000Z</time>
      </trkpt>
      <trkpt lat="44.25101" lon="2.97908">
        <ele>885</ele>
        <time>2019-10-11T13:59:01.000Z</time>
      </trkpt>
      <trkpt lat="44.25099" lon="2.97908">
        <ele>885</ele>
        <time>2019-10-11T13:59:02.000Z</time>
      </trkpt>
      <trkpt lat="44.25097" lon="2.97908">
        <ele>885</ele>
        <time>2019-10-11T13:59:03.000Z</time>
      </trkpt>
      <trkpt lat="44.25096" lon="2.97907">
        <ele>886</ele>
        <time>2019-10-11T13:59:04.000Z</time>
      </trkpt>
      <trkpt lat="44.25094" lon="2.97906">
        <ele>886</ele>
        <time>2019-10-11T13:59:05.000Z</time>
      </trkpt>
      <trkpt lat="44.25092" lon="2.97906">
        <ele>886</ele>
        <time>2019-10-11T13:59:06.000Z</time>
      </trkpt>
      <trkpt lat="44.25091" lon="2.97905">
        <ele>886</ele>
        <time>2019-10-11T13:59:07.000Z</time>
      </trkpt>
      <trkpt lat="44.25089" lon="2.97905">
        <ele>887</ele>
        <time>2019-10-11T13:59:08.000Z</time>
      </trkpt>
      <trkpt lat="44.25087" lon="2.97904">
        <ele>887</ele>
        <time>2019-10-11T13:59:09.000Z</time>
      </trkpt>
      <trkpt lat="44.25085" lon="2.97903">
        <ele>887</ele>
        <time>2019-10-11T13:59:10.000Z</time>
      </trkpt>
      <trkpt lat="44.25083" lon="2.97903">
        <ele>887</ele>
        <time>2019-10-11T13:59:11.000Z</time>
      </trkpt>
      <trkpt lat="44.25082" lon="2.97902">
        <ele>887</ele>
        <time>2019-10-11T13:59:12.000Z</time>
      </trkpt>
      <trkpt lat="44.2508" lon="2.97901">
        <ele>888</ele>
        <time>2019-10-11T13:59:13.000Z</time>
      </trkpt>
      <trkpt lat="44.25079" lon="2.979">
        <ele>888</ele>
        <time>2019-10-11T13:59:14.000Z</time>
      </trkpt>
      <trkpt lat="44.25077" lon="2.97898">
        <ele>888</ele>
        <time>2019-10-11T13:59:15.000Z</time>
      </trkpt>
      <trkpt lat="44.25076" lon="2.97897">
        <ele>888</ele>
        <time>2019-10-11T13:59:16.000Z</time>
      </trkpt>
      <trkpt lat="44.25074" lon="2.97896">
        <ele>888</ele>
        <time>2019-10-11T13:59:17.000Z</time>
      </trkpt>
      <trkpt lat="44.25073" lon="2.97894">
        <ele>889</ele>
        <time>2019-10-11T13:59:18.000Z</time>
      </trkpt>
      <trkpt lat="44.25071" lon="2.97892">
        <ele>889</ele>
        <time>2019-10-11T13:59:19.000Z</time>
      </trkpt>
      <trkpt lat="44.2507" lon="2.9789">
        <ele>889</ele>
        <time>2019-10-11T13:59:20.000Z</time>
      </trkpt>
      <trkpt lat="44.25068" lon="2.97888">
        <ele>889</ele>
        <time>2019-10-11T13:59:21.000Z</time>
      </trkpt>
      <trkpt lat="44.25067" lon="2.97886">
        <ele>889</ele>
        <time>2019-10-11T13:59:22.000Z</time>
      </trkpt>
      <trkpt lat="44.25066" lon="2.97884">
        <ele>889</ele>
        <time>2019-10-11T13:59:23.000Z</time>
      </trkpt>
      <trkpt lat="44.25065" lon="2.97881">
        <ele>889</ele>
        <time>2019-10-11T13:59:24.000Z</time>
      </trkpt>
      <trkpt lat="44.25063" lon="2.97879">
        <ele>890</ele>
        <time>2019-10-11T13:59:25.000Z</time>
      </trkpt>
      <trkpt lat="44.25062" lon="2.97876">
        <ele>890</ele>
        <time>2019-10-11T13:59:26.000Z</time>
      </trkpt>
      <trkpt lat="44.25061" lon="2.97874">
        <ele>890</ele>
        <time>2019-10-11T13:59:27.000Z</time>
      </trkpt>
      <trkpt lat="44.2506" lon="2.97872">
        <ele>890</ele>
        <time>2019-10-11T13:59:28.000Z</time>
      </trkpt>
      <trkpt lat="44.25058" lon="2.9787">
        <ele>890</ele>
        <time>2019-10-11T13:59:29.000Z</time>
      </trkpt>
      <trkpt lat="44.25057" lon="2.97867">
        <ele>890</ele>
        <time>2019-10-11T13:59:30.000Z</time>
      </trkpt>
      <trkpt lat="44.25056" lon="2.97866">
        <ele>890</ele>
        <time>2019-10-11T13:59:31.000Z</time>
      </trkpt>
      <trkpt lat="44.25054" lon="2.97864">
        <ele>890</ele>
        <time>2019-10-11T13:59:32.000Z</time>
      </trkpt>
      <trkpt lat="44.25053" lon="2.97862">
        <ele>890</ele>
        <time>2019-10-11T13:59:33.000Z</time>
      </trkpt>
      <trkpt lat="44.25052" lon="2.9786">
        <ele>891</ele>
        <time>2019-10-11T13:59:34.000Z</time>
      </trkpt>
      <trkpt lat="44.2505" lon="2.97859">
        <ele>891</ele>
        <time>2019-10-11T13:59:35.000Z</time>
      </trkpt>
      <trkpt lat="44.25049" lon="2.97857">
        <ele>891</ele>
        <time>2019-10-11T13:59:36.000Z</time>
      </trkpt>
      <trkpt lat="44.25047" lon="2.97856">
        <ele>891</ele>
        <time>2019-10-11T13:59:37.000Z</time>
      </trkpt>
      <trkpt lat="44.25046" lon="2.97854">
        <ele>891</ele>
        <time>2019-10-11T13:59:38.000Z</time>
      </trkpt>
      <trkpt lat="44.25044" lon="2.97853">
        <ele>891</ele>
        <time>2019-10-11T13:59:39.000Z</time>
      </trkpt>
      <trkpt lat="44.25042" lon="2.97852">
        <ele>891</ele>
        <time>2019-10-11T13:59:40.000Z</time>
      </trkpt>
      <trkpt lat="44.25041" lon="2.9785">
        <ele>891</ele>
        <time>2019-10-11T13:59:41.000Z</time>
      </trkpt>
      <trkpt lat="44.25039" lon="2.9785">
        <ele>891</ele>
        <time>2019-10-11T13:59:42.000Z</time>
      </trkpt>
      <trkpt lat="44.25037" lon="2.97849">
        <ele>891</ele>
        <time>2019-10-11T13:59:43.000Z</time>
      </trkpt>
      <trkpt lat="44.25036" lon="2.97849">
        <ele>891</ele>
        <time>2019-10-11T13:59:44.000Z</time>
      </trkpt>
      <trkpt lat="44.25034" lon="2.97848">
        <ele>891</ele>
        <time>2019-10-11T13:59:45.000Z</time>
      </trkpt>
      <trkpt lat="44.25033" lon="2.97848">
        <ele>891</ele>
        <time>2019-10-11T13:59:46.000Z</time>
      </trkpt>
      <trkpt lat="44.25032" lon="2.97848">
        <ele>891</ele>
        <time>2019-10-11T13:59:47.000Z</time>
      </trkpt>
      <trkpt lat="44.25032" lon="2.97848">
        <ele>891</ele>
        <time>2019-10-11T13:59:48.000Z</time>
      </trkpt>
      <trkpt lat="44.25031" lon="2.97847">
        <ele>891</ele>
        <time>2019-10-11T13:59:49.000Z</time>
      </trkpt>
      <trkpt lat="44.2503" lon="2.97847">
        <ele>891</ele>
        <time>2019-10-11T13:59:50.000Z</time>
      </trkpt>
      <trkpt lat="44.25028" lon="2.97847">
        <ele>891</ele>
        <time>2019-10-11T13:59:51.000Z</time>
      </trkpt>
      <trkpt lat="44.25026" lon="2.97847">
        <ele>892</ele>
        <time>2019-10-11T13:59:52.000Z</time>
      </trkpt>
      <trkpt lat="44.25024" lon="2.97847">
        <ele>892</ele>
        <time>2019-10-11T13:59:53.000Z</time>
      </trkpt>
      <trkpt lat="44.25022" lon="2.97847">
        <ele>892</ele>
        <time>2019-10-11T13:59:54.000Z</time>
      </trkpt>
      <trkpt lat="44.2502" lon="2.97848">
        <ele>892</ele>
        <time>2019-10-11T13:59:55.000Z</time>
      </trkpt>
      <trkpt lat="44.25018" lon="2.97848">
        <ele>892</ele>
        <time>2019-10-11T13:59:56.000Z</time>
      </trkpt>
      <trkpt lat="44.25015" lon="2.97849">
        <ele>892</ele>
        <time>2019-10-11T13:59:57.000Z</time>
      </trkpt>
      <trkpt lat="44.25013" lon="2.97849">
        <ele>892</ele>
        <time>2019-10-11T13:59:58.000Z</time>
      </trkpt>
      <trkpt lat="44.25011" lon="2.9785">
        <ele>892</ele>
        <time>2019-10-11T13:59:59.000Z</time>
      </trkpt>
      <trkpt lat="44.25008" lon="2.9785">
        <ele>892</ele>
        <time>2019-10-11T14:00:00.000Z</time>
      </trkpt>
      <trkpt lat="44.25006" lon="2.9785">
        <ele>892</ele>
        <time>2019-10-11T14:00:01.000Z</time>
      </trkpt>
      <trkpt lat="44.25004" lon="2.9785">
        <ele>893</ele>
        <time>2019-10-11T14:00:02.000Z</time>
      </trkpt>
      <trkpt lat="44.25002" lon="2.97851">
        <ele>893</ele>
        <time>2019-10-11T14:00:03.000Z</time>
      </trkpt>
      <trkpt lat="44.25" lon="2.97851">
        <ele>893</ele>
        <time>2019-10-11T14:00:04.000Z</time>
      </trkpt>
      <trkpt lat="44.24997" lon="2.9785">
        <ele>893</ele>
        <time>2019-10-11T14:00:05.000Z</time>
      </trkpt>
      <trkpt lat="44.24995" lon="2.97849">
        <ele>893</ele>
        <time>2019-10-11T14:00:06.000Z</time>
      </trkpt>
      <trkpt lat="44.24994" lon="2.97849">
        <ele>893</ele>
        <time>2019-10-11T14:00:07.000Z</time>
      </trkpt>
      <trkpt lat="44.24992" lon="2.97848">
        <ele>893</ele>
        <time>2019-10-11T14:00:08.000Z</time>
      </trkpt>
      <trkpt lat="44.2499" lon="2.97846">
        <ele>893</ele>
        <time>2019-10-11T14:00:09.000Z</time>
      </trkpt>
      <trkpt lat="44.24989" lon="2.97844">
        <ele>893</ele>
        <time>2019-10-11T14:00:10.000Z</time>
      </trkpt>
      <trkpt lat="44.24987" lon="2.97842">
        <ele>893</ele>
        <time>2019-10-11T14:00:11.000Z</time>
      </trkpt>
      <trkpt lat="44.24986" lon="2.9784">
        <ele>893</ele>
        <time>2019-10-11T14:00:12.000Z</time>
      </trkpt>
      <trkpt lat="44.24985" lon="2.97837">
        <ele>893</ele>
        <time>2019-10-11T14:00:13.000Z</time>
      </trkpt>
      <trkpt lat="44.24984" lon="2.97833">
        <ele>893</ele>
        <time>2019-10-11T14:00:14.000Z</time>
      </trkpt>
      <trkpt lat="44.24983" lon="2.97829">
        <ele>894</ele>
        <time>2019-10-11T14:00:15.000Z</time>
      </trkpt>
      <trkpt lat="44.24981" lon="2.97824">
        <ele>894</ele>
        <time>2019-10-11T14:00:16.000Z</time>
      </trkpt>
      <trkpt lat="44.2498" lon="2.97819">
        <ele>894</ele>
        <time>2019-10-11T14:00:17.000Z</time>
      </trkpt>
      <trkpt lat="44.24978" lon="2.97814">
        <ele>894</ele>
        <time>2019-10-11T14:00:18.000Z</time>
      </trkpt>
      <trkpt lat="44.24977" lon="2.97809">
        <ele>893</ele>
        <time>2019-10-11T14:00:19.000Z</time>
      </trkpt>
      <trkpt lat="44.24975" lon="2.97805">
        <ele>893</ele>
        <time>2019-10-11T14:00:20.000Z</time>
      </trkpt>
      <trkpt lat="44.24974" lon="2.97801">
        <ele>893</ele>
        <time>2019-10-11T14:00:21.000Z</time>
      </trkpt>
      <trkpt lat="44.24973" lon="2.97799">
        <ele>893</ele>
        <time>2019-10-11T14:00:22.000Z</time>
      </trkpt>
      <trkpt lat="44.24972" lon="2.97797">
        <ele>893</ele>
        <time>2019-10-11T14:00:23.000Z</time>
      </trkpt>
      <trkpt lat="44.24971" lon="2.97795">
        <ele>893</ele>
        <time>2019-10-11T14:00:24.000Z</time>
      </trkpt>
      <trkpt lat="44.2497" lon="2.97794">
        <ele>893</ele>
        <time>2019-10-11T14:00:25.000Z</time>
      </trkpt>
      <trkpt lat="44.24968" lon="2.97792">
        <ele>893</ele>
        <time>2019-10-11T14:00:26.000Z</time>
      </trkpt>
      <trkpt lat="44.24967" lon="2.9779">
        <ele>893</ele>
        <time>2019-10-11T14:00:27.000Z</time>
      </trkpt>
      <trkpt lat="44.24966" lon="2.97788">
        <ele>893</ele>
        <time>2019-10-11T14:00:28.000Z</time>
      </trkpt>
      <trkpt lat="44.24965" lon="2.97786">
        <ele>893</ele>
        <time>2019-10-11T14:00:29.000Z</time>
      </trkpt>
      <trkpt lat="44.24963" lon="2.97784">
        <ele>893</ele>
        <time>2019-10-11T14:00:30.000Z</time>
      </trkpt>
      <trkpt lat="44.24962" lon="2.97782">
        <ele>893</ele>
        <time>2019-10-11T14:00:31.000Z</time>
      </trkpt>
      <trkpt lat="44.24961" lon="2.97779">
        <ele>893</ele>
        <time>2019-10-11T14:00:32.000Z</time>
      </trkpt>
      <trkpt lat="44.2496" lon="2.97777">
        <ele>893</ele>
        <time>2019-10-11T14:00:33.000Z</time>
      </trkpt>
      <trkpt lat="44.24959" lon="2.97775">
        <ele>893</ele>
        <time>2019-10-11T14:00:34.000Z</time>
      </trkpt>
      <trkpt lat="44.24958" lon="2.97773">
        <ele>893</ele>
        <time>2019-10-11T14:00:35.000Z</time>
      </trkpt>
      <trkpt lat="44.24957" lon="2.97771">
        <ele>893</ele>
        <time>2019-10-11T14:00:36.000Z</time>
      </trkpt>
      <trkpt lat="44.24956" lon="2.97768">
        <ele>892</ele>
        <time>2019-10-11T14:00:37.000Z</time>
      </trkpt>
      <trkpt lat="44.24955" lon="2.97765">
        <ele>892</ele>
        <time>2019-10-11T14:00:38.000Z</time>
      </trkpt>
      <trkpt lat="44.24953" lon="2.97763">
        <ele>892</ele>
        <time>2019-10-11T14:00:39.000Z</time>
      </trkpt>
      <trkpt lat="44.24952" lon="2.97761">
        <ele>892</ele>
        <time>2019-10-11T14:00:40.000Z</time>
      </trkpt>
      <trkpt lat="44.24951" lon="2.97759">
        <ele>892</ele>
        <time>2019-10-11T14:00:41.000Z</time>
      </trkpt>
      <trkpt lat="44.2495" lon="2.97757">
        <ele>892</ele>
        <time>2019-10-11T14:00:42.000Z</time>
      </trkpt>
      <trkpt lat="44.24949" lon="2.97755">
        <ele>892</ele>
        <time>2019-10-11T14:00:43.000Z</time>
      </trkpt>
      <trkpt lat="44.24948" lon="2.97752">
        <ele>892</ele>
        <time>2019-10-11T14:00:44.000Z</time>
      </trkpt>
      <trkpt lat="44.24947" lon="2.9775">
        <ele>892</ele>
        <time>2019-10-11T14:00:45.000Z</time>
      </trkpt>
      <trkpt lat="44.24945" lon="2.97748">
        <ele>892</ele>
        <time>2019-10-11T14:00:46.000Z</time>
      </trkpt>
      <trkpt lat="44.24944" lon="2.97746">
        <ele>892</ele>
        <time>2019-10-11T14:00:47.000Z</time>
      </trkpt>
      <trkpt lat="44.24943" lon="2.97744">
        <ele>892</ele>
        <time>2019-10-11T14:00:48.000Z</time>
      </trkpt>
      <trkpt lat="44.24942" lon="2.97742">
        <ele>892</ele>
        <time>2019-10-11T14:00:49.000Z</time>
      </trkpt>
      <trkpt lat="44.24941" lon="2.9774">
        <ele>892</ele>
        <time>2019-10-11T14:00:50.000Z</time>
      </trkpt>
      <trkpt lat="44.2494" lon="2.97738">
        <ele>892</ele>
        <time>2019-10-11T14:00:51.000Z</time>
      </trkpt>
      <trkpt lat="44.24939" lon="2.97736">
        <ele>892</ele>
        <time>2019-10-11T14:00:52.000Z</time>
      </trkpt>
      <trkpt lat="44.24938" lon="2.97734">
        <ele>892</ele>
        <time>2019-10-11T14:00:53.000Z</time>
      </trkpt>
      <trkpt lat="44.24937" lon="2.97732">
        <ele>891</ele>
        <time>2019-10-11T14:00:54.000Z</time>
      </trkpt>
      <trkpt lat="44.24936" lon="2.9773">
        <ele>891</ele>
        <time>2019-10-11T14:00:55.000Z</time>
      </trkpt>
      <trkpt lat="44.24935" lon="2.97728">
        <ele>891</ele>
        <time>2019-10-11T14:00:56.000Z</time>
      </trkpt>
      <trkpt lat="44.24934" lon="2.97726">
        <ele>891</ele>
        <time>2019-10-11T14:00:57.000Z</time>
      </trkpt>
      <trkpt lat="44.24933" lon="2.97724">
        <ele>891</ele>
        <time>2019-10-11T14:00:58.000Z</time>
      </trkpt>
      <trkpt lat="44.24932" lon="2.97723">
        <ele>891</ele>
        <time>2019-10-11T14:00:59.000Z</time>
      </trkpt>
      <trkpt lat="44.24931" lon="2.97721">
        <ele>891</ele>
        <time>2019-10-11T14:01:00.000Z</time>
      </trkpt>
      <trkpt lat="44.2493" lon="2.97719">
        <ele>891</ele>
        <time>2019-10-11T14:01:01.000Z</time>
      </trkpt>
      <trkpt lat="44.24928" lon="2.97716">
        <ele>891</ele>
        <time>2019-10-11T14:01:02.000Z</time>
      </trkpt>
      <trkpt lat="44.24927" lon="2.97715">
        <ele>891</ele>
        <time>2019-10-11T14:01:03.000Z</time>
      </trkpt>
      <trkpt lat="44.24926" lon="2.97713">
        <ele>890</ele>
        <time>2019-10-11T14:01:04.000Z</time>
      </trkpt>
      <trkpt lat="44.24924" lon="2.97711">
        <ele>890</ele>
        <time>2019-10-11T14:01:05.000Z</time>
      </trkpt>
      <trkpt lat="44.24923" lon="2.9771">
        <ele>890</ele>
        <time>2019-10-11T14:01:06.000Z</time>
      </trkpt>
      <trkpt lat="44.24922" lon="2.97708">
        <ele>890</ele>
        <time>2019-10-11T14:01:07.000Z</time>
      </trkpt>
      <trkpt lat="44.2492" lon="2.97707">
        <ele>890</ele>
        <time>2019-10-11T14:01:08.000Z</time>
      </trkpt>
      <trkpt lat="44.24919" lon="2.97706">
        <ele>890</ele>
        <time>2019-10-11T14:01:09.000Z</time>
      </trkpt>
      <trkpt lat="44.24918" lon="2.97704">
        <ele>890</ele>
        <time>2019-10-11T14:01:10.000Z</time>
      </trkpt>
      <trkpt lat="44.24916" lon="2.97703">
        <ele>890</ele>
        <time>2019-10-11T14:01:11.000Z</time>
      </trkpt>
      <trkpt lat="44.24915" lon="2.97702">
        <ele>889</ele>
        <time>2019-10-11T14:01:12.000Z</time>
      </trkpt>
      <trkpt lat="44.24914" lon="2.97701">
        <ele>889</ele>
        <time>2019-10-11T14:01:13.000Z</time>
      </trkpt>
      <trkpt lat="44.24912" lon="2.977">
        <ele>889</ele>
        <time>2019-10-11T14:01:14.000Z</time>
      </trkpt>
      <trkpt lat="44.24911" lon="2.97699">
        <ele>889</ele>
        <time>2019-10-11T14:01:15.000Z</time>
      </trkpt>
      <trkpt lat="44.2491" lon="2.97698">
        <ele>889</ele>
        <time>2019-10-11T14:01:16.000Z</time>
      </trkpt>
      <trkpt lat="44.24908" lon="2.97697">
        <ele>889</ele>
        <time>2019-10-11T14:01:17.000Z</time>
      </trkpt>
      <trkpt lat="44.24907" lon="2.97696">
        <ele>889</ele>
        <time>2019-10-11T14:01:18.000Z</time>
      </trkpt>
      <trkpt lat="44.24906" lon="2.97695">
        <ele>888</ele>
        <time>2019-10-11T14:01:19.000Z</time>
      </trkpt>
      <trkpt lat="44.24904" lon="2.97694">
        <ele>888</ele>
        <time>2019-10-11T14:01:20.000Z</time>
      </trkpt>
      <trkpt lat="44.24903" lon="2.97694">
        <ele>888</ele>
        <time>2019-10-11T14:01:21.000Z</time>
      </trkpt>
      <trkpt lat="44.24902" lon="2.97693">
        <ele>888</ele>
        <time>2019-10-11T14:01:22.000Z</time>
      </trkpt>
      <trkpt lat="44.249" lon="2.97692">
        <ele>888</ele>
        <time>2019-10-11T14:01:23.000Z</time>
      </trkpt>
      <trkpt lat="44.24899" lon="2.97692">
        <ele>888</ele>
        <time>2019-10-11T14:01:24.000Z</time>
      </trkpt>
      <trkpt lat="44.24898" lon="2.97691">
        <ele>888</ele>
        <time>2019-10-11T14:01:25.000Z</time>
      </trkpt>
      <trkpt lat="44.24897" lon="2.9769">
        <ele>887</ele>
        <time>2019-10-11T14:01:26.000Z</time>
      </trkpt>
      <trkpt lat="44.24895" lon="2.97689">
        <ele>887</ele>
        <time>2019-10-11T14:01:27.000Z</time>
      </trkpt>
      <trkpt lat="44.24894" lon="2.97688">
        <ele>887</ele>
        <time>2019-10-11T14:01:28.000Z</time>
      </trkpt>
      <trkpt lat="44.24892" lon="2.97687">
        <ele>887</ele>
        <time>2019-10-11T14:01:29.000Z</time>
      </trkpt>
      <trkpt lat="44.24891" lon="2.97686">
        <ele>886</ele>
        <time>2019-10-11T14:01:30.000Z</time>
      </trkpt>
      <trkpt lat="44.24889" lon="2.97685">
        <ele>886</ele>
        <time>2019-10-11T14:01:31.000Z</time>
      </trkpt>
      <trkpt lat="44.24888" lon="2.97683">
        <ele>886</ele>
        <time>2019-10-11T14:01:32.000Z</time>
      </trkpt>
      <trkpt lat="44.24887" lon="2.97682">
        <ele>885</ele>
        <time>2019-10-11T14:01:33.000Z</time>
      </trkpt>
      <trkpt lat="44.24885" lon="2.97681">
        <ele>885</ele>
        <time>2019-10-11T14:01:34.000Z</time>
      </trkpt>
      <trkpt lat="44.24884" lon="2.97679">
        <ele>885</ele>
        <time>2019-10-11T14:01:35.000Z</time>
      </trkpt>
      <trkpt lat="44.24882" lon="2.97678">
        <ele>884</ele>
        <time>2019-10-11T14:01:36.000Z</time>
      </trkpt>
      <trkpt lat="44.24881" lon="2.97677">
        <ele>884</ele>
        <time>2019-10-11T14:01:37.000Z</time>
      </trkpt>
      <trkpt lat="44.2488" lon="2.97676">
        <ele>884</ele>
        <time>2019-10-11T14:01:38.000Z</time>
      </trkpt>
      <trkpt lat="44.24878" lon="2.97675">
        <ele>883</ele>
        <time>2019-10-11T14:01:39.000Z</time>
      </trkpt>
      <trkpt lat="44.24877" lon="2.97673">
        <ele>883</ele>
        <time>2019-10-11T14:01:40.000Z</time>
      </trkpt>
      <trkpt lat="44.24876" lon="2.97671">
        <ele>883</ele>
        <time>2019-10-11T14:01:41.000Z</time>
      </trkpt>
      <trkpt lat="44.24875" lon="2.97669">
        <ele>883</ele>
        <time>2019-10-11T14:01:42.000Z</time>
      </trkpt>
      <trkpt lat="44.24874" lon="2.97668">
        <ele>883</ele>
        <time>2019-10-11T14:01:43.000Z</time>
      </trkpt>
      <trkpt lat="44.24873" lon="2.97666">
        <ele>882</ele>
        <time>2019-10-11T14:01:44.000Z</time>
      </trkpt>
      <trkpt lat="44.24872" lon="2.97664">
        <ele>882</ele>
        <time>2019-10-11T14:01:45.000Z</time>
      </trkpt>
      <trkpt lat="44.24871" lon="2.97662">
        <ele>882</ele>
        <time>2019-10-11T14:01:46.000Z</time>
      </trkpt>
      <trkpt lat="44.2487" lon="2.9766">
        <ele>882</ele>
        <time>2019-10-11T14:01:47.000Z</time>
      </trkpt>
      <trkpt lat="44.24869" lon="2.97658">
        <ele>882</ele>
        <time>2019-10-11T14:01:48.000Z</time>
      </trkpt>
      <trkpt lat="44.24868" lon="2.97656">
        <ele>882</ele>
        <time>2019-10-11T14:01:49.000Z</time>
      </trkpt>
      <trkpt lat="44.24868" lon="2.97654">
        <ele>881</ele>
        <time>2019-10-11T14:01:50.000Z</time>
      </trkpt>
      <trkpt lat="44.24867" lon="2.97652">
        <ele>881</ele>
        <time>2019-10-11T14:01:51.000Z</time>
      </trkpt>
      <trkpt lat="44.24866" lon="2.9765">
        <ele>881</ele>
        <time>2019-10-11T14:01:52.000Z</time>
      </trkpt>
      <trkpt lat="44.24865" lon="2.97647">
        <ele>880</ele>
        <time>2019-10-11T14:01:53.000Z</time>
      </trkpt>
      <trkpt lat="44.24864" lon="2.97645">
        <ele>880</ele>
        <time>2019-10-11T14:01:54.000Z</time>
      </trkpt>
      <trkpt lat="44.24863" lon="2.97643">
        <ele>879</ele>
        <time>2019-10-11T14:01:55.000Z</time>
      </trkpt>
      <trkpt lat="44.24862" lon="2.9764">
        <ele>879</ele>
        <time>2019-10-11T14:01:56.000Z</time>
      </trkpt>
      <trkpt lat="44.2486" lon="2.97636">
        <ele>879</ele>
        <time>2019-10-11T14:01:57.000Z</time>
      </trkpt>
      <trkpt lat="44.24859" lon="2.97632">
        <ele>879</ele>
        <time>2019-10-11T14:01:58.000Z</time>
      </trkpt>
      <trkpt lat="44.24857" lon="2.97628">
        <ele>879</ele>
        <time>2019-10-11T14:01:59.000Z</time>
      </trkpt>
      <trkpt lat="44.24856" lon="2.97623">
        <ele>878</ele>
        <time>2019-10-11T14:02:00.000Z</time>
      </trkpt>
      <trkpt lat="44.24854" lon="2.97618">
        <ele>878</ele>
        <time>2019-10-11T14:02:01.000Z</time>
      </trkpt>
      <trkpt lat="44.24852" lon="2.97613">
        <ele>878</ele>
        <time>2019-10-11T14:02:02.000Z</time>
      </trkpt>
      <trkpt lat="44.2485" lon="2.97607">
        <ele>878</ele>
        <time>2019-10-11T14:02:03.000Z</time>
      </trkpt>
      <trkpt lat="44.24848" lon="2.97602">
        <ele>878</ele>
        <time>2019-10-11T14:02:04.000Z</time>
      </trkpt>
      <trkpt lat="44.24847" lon="2.97596">
        <ele>878</ele>
        <time>2019-10-11T14:02:05.000Z</time>
      </trkpt>
      <trkpt lat="44.24846" lon="2.9759">
        <ele>878</ele>
        <time>2019-10-11T14:02:06.000Z</time>
      </trkpt>
      <trkpt lat="44.24844" lon="2.97585">
        <ele>877</ele>
        <time>2019-10-11T14:02:07.000Z</time>
      </trkpt>
      <trkpt lat="44.24843" lon="2.97579">
        <ele>877</ele>
        <time>2019-10-11T14:02:08.000Z</time>
      </trkpt>
      <trkpt lat="44.24841" lon="2.97574">
        <ele>877</ele>
        <time>2019-10-11T14:02:09.000Z</time>
      </trkpt>
      <trkpt lat="44.24838" lon="2.97568">
        <ele>877</ele>
        <time>2019-10-11T14:02:10.000Z</time>
      </trkpt>
      <trkpt lat="44.24836" lon="2.97563">
        <ele>877</ele>
        <time>2019-10-11T14:02:11.000Z</time>
      </trkpt>
      <trkpt lat="44.24833" lon="2.97558">
        <ele>877</ele>
        <time>2019-10-11T14:02:12.000Z</time>
      </trkpt>
      <trkpt lat="44.2483" lon="2.97554">
        <ele>876</ele>
        <time>2019-10-11T14:02:13.000Z</time>
      </trkpt>
      <trkpt lat="44.24827" lon="2.97549">
        <ele>876</ele>
        <time>2019-10-11T14:02:14.000Z</time>
      </trkpt>
      <trkpt lat="44.24825" lon="2.97544">
        <ele>876</ele>
        <time>2019-10-11T14:02:15.000Z</time>
      </trkpt>
      <trkpt lat="44.24822" lon="2.97539">
        <ele>876</ele>
        <time>2019-10-11T14:02:16.000Z</time>
      </trkpt>
      <trkpt lat="44.24821" lon="2.97534">
        <ele>876</ele>
        <time>2019-10-11T14:02:17.000Z</time>
      </trkpt>
      <trkpt lat="44.2482" lon="2.97528">
        <ele>876</ele>
        <time>2019-10-11T14:02:18.000Z</time>
      </trkpt>
      <trkpt lat="44.24819" lon="2.97522">
        <ele>876</ele>
        <time>2019-10-11T14:02:19.000Z</time>
      </trkpt>
      <trkpt lat="44.24818" lon="2.97517">
        <ele>876</ele>
        <time>2019-10-11T14:02:20.000Z</time>
      </trkpt>
      <trkpt lat="44.24817" lon="2.97511">
        <ele>876</ele>
        <time>2019-10-11T14:02:21.000Z</time>
      </trkpt>
      <trkpt lat="44.24815" lon="2.97505">
        <ele>876</ele>
        <time>2019-10-11T14:02:22.000Z</time>
      </trkpt>
      <trkpt lat="44.24814" lon="2.975">
        <ele>876</ele>
        <time>2019-10-11T14:02:23.000Z</time>
      </trkpt>
      <trkpt lat="44.24812" lon="2.97496">
        <ele>876</ele>
        <time>2019-10-11T14:02:24.000Z</time>
      </trkpt>
      <trkpt lat="44.2481" lon="2.97493">
        <ele>875</ele>
        <time>2019-10-11T14:02:25.000Z</time>
      </trkpt>
      <trkpt lat="44.24807" lon="2.97492">
        <ele>875</ele>
        <time>2019-10-11T14:02:26.000Z</time>
      </trkpt>
      <trkpt lat="44.24804" lon="2.97492">
        <ele>875</ele>
        <time>2019-10-11T14:02:27.000Z</time>
      </trkpt>
      <trkpt lat="44.24801" lon="2.97492">
        <ele>875</ele>
        <time>2019-10-11T14:02:28.000Z</time>
      </trkpt>
      <trkpt lat="44.24797" lon="2.97494">
        <ele>875</ele>
        <time>2019-10-11T14:02:29.000Z</time>
      </trkpt>
      <trkpt lat="44.24793" lon="2.97495">
        <ele>875</ele>
        <time>2019-10-11T14:02:30.000Z</time>
      </trkpt>
      <trkpt lat="44.24789" lon="2.97498">
        <ele>875</ele>
        <time>2019-10-11T14:02:31.000Z</time>
      </trkpt>
      <trkpt lat="44.24786" lon="2.975">
        <ele>875</ele>
        <time>2019-10-11T14:02:32.000Z</time>
      </trkpt>
      <trkpt lat="44.24783" lon="2.97504">
        <ele>875</ele>
        <time>2019-10-11T14:02:33.000Z</time>
      </trkpt>
      <trkpt lat="44.2478" lon="2.97509">
        <ele>875</ele>
        <time>2019-10-11T14:02:34.000Z</time>
      </trkpt>
      <trkpt lat="44.24778" lon="2.97514">
        <ele>875</ele>
        <time>2019-10-11T14:02:35.000Z</time>
      </trkpt>
      <trkpt lat="44.24776" lon="2.97521">
        <ele>875</ele>
        <time>2019-10-11T14:02:36.000Z</time>
      </trkpt>
      <trkpt lat="44.24775" lon="2.97529">
        <ele>875</ele>
        <time>2019-10-11T14:02:37.000Z</time>
      </trkpt>
      <trkpt lat="44.24773" lon="2.97536">
        <ele>875</ele>
        <time>2019-10-11T14:02:38.000Z</time>
      </trkpt>
      <trkpt lat="44.24771" lon="2.97543">
        <ele>874</ele>
        <time>2019-10-11T14:02:39.000Z</time>
      </trkpt>
      <trkpt lat="44.24769" lon="2.9755">
        <ele>874</ele>
        <time>2019-10-11T14:02:40.000Z</time>
      </trkpt>
      <trkpt lat="44.24767" lon="2.97557">
        <ele>874</ele>
        <time>2019-10-11T14:02:41.000Z</time>
      </trkpt>
      <trkpt lat="44.24764" lon="2.97563">
        <ele>874</ele>
        <time>2019-10-11T14:02:42.000Z</time>
      </trkpt>
      <trkpt lat="44.24761" lon="2.97568">
        <ele>875</ele>
        <time>2019-10-11T14:02:43.000Z</time>
      </trkpt>
      <trkpt lat="44.24757" lon="2.97573">
        <ele>875</ele>
        <time>2019-10-11T14:02:44.000Z</time>
      </trkpt>
      <trkpt lat="44.24754" lon="2.97577">
        <ele>875</ele>
        <time>2019-10-11T14:02:45.000Z</time>
      </trkpt>
      <trkpt lat="44.2475" lon="2.97581">
        <ele>875</ele>
        <time>2019-10-11T14:02:46.000Z</time>
      </trkpt>
      <trkpt lat="44.24746" lon="2.97584">
        <ele>875</ele>
        <time>2019-10-11T14:02:47.000Z</time>
      </trkpt>
      <trkpt lat="44.24743" lon="2.97587">
        <ele>876</ele>
        <time>2019-10-11T14:02:48.000Z</time>
      </trkpt>
      <trkpt lat="44.24739" lon="2.9759">
        <ele>876</ele>
        <time>2019-10-11T14:02:49.000Z</time>
      </trkpt>
      <trkpt lat="44.24735" lon="2.97593">
        <ele>876</ele>
        <time>2019-10-11T14:02:50.000Z</time>
      </trkpt>
      <trkpt lat="44.24731" lon="2.97596">
        <ele>876</ele>
        <time>2019-10-11T14:02:51.000Z</time>
      </trkpt>
      <trkpt lat="44.24727" lon="2.976">
        <ele>877</ele>
        <time>2019-10-11T14:02:52.000Z</time>
      </trkpt>
      <trkpt lat="44.24723" lon="2.97605">
        <ele>877</ele>
        <time>2019-10-11T14:02:53.000Z</time>
      </trkpt>
      <trkpt lat="44.24719" lon="2.9761">
        <ele>877</ele>
        <time>2019-10-11T14:02:54.000Z</time>
      </trkpt>
      <trkpt lat="44.24715" lon="2.97615">
        <ele>878</ele>
        <time>2019-10-11T14:02:55.000Z</time>
      </trkpt>
      <trkpt lat="44.2471" lon="2.97619">
        <ele>878</ele>
        <time>2019-10-11T14:02:56.000Z</time>
      </trkpt>
      <trkpt lat="44.24705" lon="2.97623">
        <ele>879</ele>
        <time>2019-10-11T14:02:57.000Z</time>
      </trkpt>
      <trkpt lat="44.247" lon="2.97625">
        <ele>879</ele>
        <time>2019-10-11T14:02:58.000Z</time>
      </trkpt>
      <trkpt lat="44.24695" lon="2.97626">
        <ele>880</ele>
        <time>2019-10-11T14:02:59.000Z</time>
      </trkpt>
      <trkpt lat="44.2469" lon="2.97626">
        <ele>880</ele>
        <time>2019-10-11T14:03:00.000Z</time>
      </trkpt>
      <trkpt lat="44.24685" lon="2.97625">
        <ele>881</ele>
        <time>2019-10-11T14:03:01.000Z</time>
      </trkpt>
      <trkpt lat="44.24679" lon="2.97623">
        <ele>881</ele>
        <time>2019-10-11T14:03:02.000Z</time>
      </trkpt>
      <trkpt lat="44.24674" lon="2.97622">
        <ele>882</ele>
        <time>2019-10-11T14:03:03.000Z</time>
      </trkpt>
      <trkpt lat="44.24668" lon="2.97621">
        <ele>882</ele>
        <time>2019-10-11T14:03:04.000Z</time>
      </trkpt>
      <trkpt lat="44.24663" lon="2.97619">
        <ele>883</ele>
        <time>2019-10-11T14:03:05.000Z</time>
      </trkpt>
      <trkpt lat="44.24658" lon="2.97616">
        <ele>883</ele>
        <time>2019-10-11T14:03:06.000Z</time>
      </trkpt>
      <trkpt lat="44.24652" lon="2.97613">
        <ele>884</ele>
        <time>2019-10-11T14:03:07.000Z</time>
      </trkpt>
      <trkpt lat="44.24647" lon="2.9761">
        <ele>884</ele>
        <time>2019-10-11T14:03:08.000Z</time>
      </trkpt>
      <trkpt lat="44.24642" lon="2.97606">
        <ele>884</ele>
        <time>2019-10-11T14:03:09.000Z</time>
      </trkpt>
      <trkpt lat="44.24637" lon="2.97602">
        <ele>885</ele>
        <time>2019-10-11T14:03:10.000Z</time>
      </trkpt>
      <trkpt lat="44.24632" lon="2.97597">
        <ele>885</ele>
        <time>2019-10-11T14:03:11.000Z</time>
      </trkpt>
      <trkpt lat="44.24627" lon="2.97592">
        <ele>886</ele>
        <time>2019-10-11T14:03:12.000Z</time>
      </trkpt>
      <trkpt lat="44.24622" lon="2.97587">
        <ele>886</ele>
        <time>2019-10-11T14:03:13.000Z</time>
      </trkpt>
      <trkpt lat="44.24617" lon="2.97583">
        <ele>886</ele>
        <time>2019-10-11T14:03:14.000Z</time>
      </trkpt>
      <trkpt lat="44.24611" lon="2.97579">
        <ele>887</ele>
        <time>2019-10-11T14:03:15.000Z</time>
      </trkpt>
      <trkpt lat="44.24604" lon="2.97576">
        <ele>887</ele>
        <time>2019-10-11T14:03:16.000Z</time>
      </trkpt>
      <trkpt lat="44.24598" lon="2.97574">
        <ele>887</ele>
        <time>2019-10-11T14:03:17.000Z</time>
      </trkpt>
      <trkpt lat="44.24592" lon="2.97572">
        <ele>888</ele>
        <time>2019-10-11T14:03:18.000Z</time>
      </trkpt>
      <trkpt lat="44.24586" lon="2.9757">
        <ele>888</ele>
        <time>2019-10-11T14:03:19.000Z</time>
      </trkpt>
      <trkpt lat="44.2458" lon="2.97567">
        <ele>888</ele>
        <time>2019-10-11T14:03:20.000Z</time>
      </trkpt>
      <trkpt lat="44.24574" lon="2.97563">
        <ele>888</ele>
        <time>2019-10-11T14:03:21.000Z</time>
      </trkpt>
      <trkpt lat="44.24569" lon="2.97558">
        <ele>889</ele>
        <time>2019-10-11T14:03:22.000Z</time>
      </trkpt>
      <trkpt lat="44.24565" lon="2.97551">
        <ele>889</ele>
        <time>2019-10-11T14:03:23.000Z</time>
      </trkpt>
      <trkpt lat="44.24561" lon="2.97544">
        <ele>890</ele>
        <time>2019-10-11T14:03:24.000Z</time>
      </trkpt>
      <trkpt lat="44.24557" lon="2.97537">
        <ele>890</ele>
        <time>2019-10-11T14:03:25.000Z</time>
      </trkpt>
      <trkpt lat="44.24554" lon="2.97529">
        <ele>891</ele>
        <time>2019-10-11T14:03:26.000Z</time>
      </trkpt>
      <trkpt lat="44.24551" lon="2.97521">
        <ele>892</ele>
        <time>2019-10-11T14:03:27.000Z</time>
      </trkpt>
      <trkpt lat="44.24548" lon="2.97514">
        <ele>893</ele>
        <time>2019-10-11T14:03:28.000Z</time>
      </trkpt>
      <trkpt lat="44.24546" lon="2.97507">
        <ele>894</ele>
        <time>2019-10-11T14:03:29.000Z</time>
      </trkpt>
      <trkpt lat="44.24544" lon="2.97501">
        <ele>896</ele>
        <time>2019-10-11T14:03:30.000Z</time>
      </trkpt>
      <trkpt lat="44.24543" lon="2.97494">
        <ele>896</ele>
        <time>2019-10-11T14:03:31.000Z</time>
      </trkpt>
      <trkpt lat="44.24542" lon="2.97487">
        <ele>897</ele>
        <time>2019-10-11T14:03:32.000Z</time>
      </trkpt>
      <trkpt lat="44.2454" lon="2.9748">
        <ele>898</ele>
        <time>2019-10-11T14:03:33.000Z</time>
      </trkpt>
      <trkpt lat="44.2454" lon="2.97473">
        <ele>899</ele>
        <time>2019-10-11T14:03:34.000Z</time>
      </trkpt>
      <trkpt lat="44.24539" lon="2.97466">
        <ele>900</ele>
        <time>2019-10-11T14:03:35.000Z</time>
      </trkpt>
      <trkpt lat="44.24538" lon="2.97459">
        <ele>900</ele>
        <time>2019-10-11T14:03:36.000Z</time>
      </trkpt>
      <trkpt lat="44.24537" lon="2.97452">
        <ele>901</ele>
        <time>2019-10-11T14:03:37.000Z</time>
      </trkpt>
      <trkpt lat="44.24536" lon="2.97445">
        <ele>902</ele>
        <time>2019-10-11T14:03:38.000Z</time>
      </trkpt>
      <trkpt lat="44.24535" lon="2.97438">
        <ele>902</ele>
        <time>2019-10-11T14:03:39.000Z</time>
      </trkpt>
      <trkpt lat="44.24533" lon="2.97431">
        <ele>903</ele>
        <time>2019-10-11T14:03:40.000Z</time>
      </trkpt>
      <trkpt lat="44.24532" lon="2.97424">
        <ele>904</ele>
        <time>2019-10-11T14:03:41.000Z</time>
      </trkpt>
      <trkpt lat="44.2453" lon="2.97418">
        <ele>904</ele>
        <time>2019-10-11T14:03:42.000Z</time>
      </trkpt>
      <trkpt lat="44.24529" lon="2.97412">
        <ele>905</ele>
        <time>2019-10-11T14:03:43.000Z</time>
      </trkpt>
      <trkpt lat="44.24528" lon="2.97405">
        <ele>906</ele>
        <time>2019-10-11T14:03:44.000Z</time>
      </trkpt>
      <trkpt lat="44.24526" lon="2.97399">
        <ele>906</ele>
        <time>2019-10-11T14:03:45.000Z</time>
      </trkpt>
      <trkpt lat="44.24524" lon="2.97392">
        <ele>906</ele>
        <time>2019-10-11T14:03:46.000Z</time>
      </trkpt>
      <trkpt lat="44.24522" lon="2.97385">
        <ele>907</ele>
        <time>2019-10-11T14:03:47.000Z</time>
      </trkpt>
      <trkpt lat="44.24519" lon="2.9738">
        <ele>907</ele>
        <time>2019-10-11T14:03:48.000Z</time>
      </trkpt>
      <trkpt lat="44.24516" lon="2.97376">
        <ele>907</ele>
        <time>2019-10-11T14:03:49.000Z</time>
      </trkpt>
      <trkpt lat="44.24512" lon="2.97375">
        <ele>908</ele>
        <time>2019-10-11T14:03:50.000Z</time>
      </trkpt>
      <trkpt lat="44.24508" lon="2.97374">
        <ele>908</ele>
        <time>2019-10-11T14:03:51.000Z</time>
      </trkpt>
      <trkpt lat="44.24503" lon="2.97374">
        <ele>908</ele>
        <time>2019-10-11T14:03:52.000Z</time>
      </trkpt>
      <trkpt lat="44.24499" lon="2.97373">
        <ele>908</ele>
        <time>2019-10-11T14:03:53.000Z</time>
      </trkpt>
      <trkpt lat="44.24494" lon="2.97372">
        <ele>908</ele>
        <time>2019-10-11T14:03:54.000Z</time>
      </trkpt>
      <trkpt lat="44.24489" lon="2.97371">
        <ele>909</ele>
        <time>2019-10-11T14:03:55.000Z</time>
      </trkpt>
      <trkpt lat="44.24485" lon="2.97368">
        <ele>909</ele>
        <time>2019-10-11T14:03:56.000Z</time>
      </trkpt>
      <trkpt lat="44.24481" lon="2.97364">
        <ele>909</ele>
        <time>2019-10-11T14:03:57.000Z</time>
      </trkpt>
      <trkpt lat="44.24478" lon="2.97359">
        <ele>909</ele>
        <time>2019-10-11T14:03:58.000Z</time>
      </trkpt>
      <trkpt lat="44.24475" lon="2.97354">
        <ele>909</ele>
        <time>2019-10-11T14:03:59.000Z</time>
      </trkpt>
      <trkpt lat="44.24474" lon="2.97348">
        <ele>909</ele>
        <time>2019-10-11T14:04:00.000Z</time>
      </trkpt>
      <trkpt lat="44.24475" lon="2.97341">
        <ele>909</ele>
        <time>2019-10-11T14:04:01.000Z</time>
      </trkpt>
      <trkpt lat="44.24478" lon="2.97333">
        <ele>909</ele>
        <time>2019-10-11T14:04:02.000Z</time>
      </trkpt>
      <trkpt lat="44.2448" lon="2.97325">
        <ele>909</ele>
        <time>2019-10-11T14:04:03.000Z</time>
      </trkpt>
      <trkpt lat="44.24483" lon="2.97317">
        <ele>909</ele>
        <time>2019-10-11T14:04:04.000Z</time>
      </trkpt>
      <trkpt lat="44.24485" lon="2.97309">
        <ele>909</ele>
        <time>2019-10-11T14:04:05.000Z</time>
      </trkpt>
      <trkpt lat="44.24488" lon="2.973">
        <ele>909</ele>
        <time>2019-10-11T14:04:06.000Z</time>
      </trkpt>
      <trkpt lat="44.2449" lon="2.97292">
        <ele>910</ele>
        <time>2019-10-11T14:04:07.000Z</time>
      </trkpt>
      <trkpt lat="44.24493" lon="2.97284">
        <ele>910</ele>
        <time>2019-10-11T14:04:08.000Z</time>
      </trkpt>
      <trkpt lat="44.24496" lon="2.97276">
        <ele>910</ele>
        <time>2019-10-11T14:04:09.000Z</time>
      </trkpt>
      <trkpt lat="44.24498" lon="2.97268">
        <ele>910</ele>
        <time>2019-10-11T14:04:10.000Z</time>
      </trkpt>
      <trkpt lat="44.24501" lon="2.97261">
        <ele>910</ele>
        <time>2019-10-11T14:04:11.000Z</time>
      </trkpt>
      <trkpt lat="44.24503" lon="2.97253">
        <ele>911</ele>
        <time>2019-10-11T14:04:12.000Z</time>
      </trkpt>
      <trkpt lat="44.24506" lon="2.97245">
        <ele>911</ele>
        <time>2019-10-11T14:04:13.000Z</time>
      </trkpt>
      <trkpt lat="44.24508" lon="2.97237">
        <ele>911</ele>
        <time>2019-10-11T14:04:14.000Z</time>
      </trkpt>
      <trkpt lat="44.24511" lon="2.9723">
        <ele>911</ele>
        <time>2019-10-11T14:04:15.000Z</time>
      </trkpt>
      <trkpt lat="44.24513" lon="2.97222">
        <ele>911</ele>
        <time>2019-10-11T14:04:16.000Z</time>
      </trkpt>
      <trkpt lat="44.24516" lon="2.97215">
        <ele>911</ele>
        <time>2019-10-11T14:04:17.000Z</time>
      </trkpt>
      <trkpt lat="44.24518" lon="2.97207">
        <ele>911</ele>
        <time>2019-10-11T14:04:18.000Z</time>
      </trkpt>
      <trkpt lat="44.2452" lon="2.97199">
        <ele>912</ele>
        <time>2019-10-11T14:04:19.000Z</time>
      </trkpt>
      <trkpt lat="44.24522" lon="2.97192">
        <ele>912</ele>
        <time>2019-10-11T14:04:20.000Z</time>
      </trkpt>
      <trkpt lat="44.24524" lon="2.97185">
        <ele>912</ele>
        <time>2019-10-11T14:04:21.000Z</time>
      </trkpt>
      <trkpt lat="44.24526" lon="2.97177">
        <ele>912</ele>
        <time>2019-10-11T14:04:22.000Z</time>
      </trkpt>
      <trkpt lat="44.24527" lon="2.9717">
        <ele>912</ele>
        <time>2019-10-11T14:04:23.000Z</time>
      </trkpt>
      <trkpt lat="44.24528" lon="2.97162">
        <ele>913</ele>
        <time>2019-10-11T14:04:24.000Z</time>
      </trkpt>
      <trkpt lat="44.24528" lon="2.97155">
        <ele>913</ele>
        <time>2019-10-11T14:04:25.000Z</time>
      </trkpt>
      <trkpt lat="44.24526" lon="2.97147">
        <ele>913</ele>
        <time>2019-10-11T14:04:26.000Z</time>
      </trkpt>
      <trkpt lat="44.24522" lon="2.97141">
        <ele>912</ele>
        <time>2019-10-11T14:04:27.000Z</time>
      </trkpt>
      <trkpt lat="44.24517" lon="2.97135">
        <ele>912</ele>
        <time>2019-10-11T14:04:28.000Z</time>
      </trkpt>
      <trkpt lat="44.24512" lon="2.97129">
        <ele>913</ele>
        <time>2019-10-11T14:04:29.000Z</time>
      </trkpt>
      <trkpt lat="44.24507" lon="2.97123">
        <ele>913</ele>
        <time>2019-10-11T14:04:30.000Z</time>
      </trkpt>
      <trkpt lat="44.24502" lon="2.97118">
        <ele>913</ele>
        <time>2019-10-11T14:04:31.000Z</time>
      </trkpt>
      <trkpt lat="44.24498" lon="2.97113">
        <ele>913</ele>
        <time>2019-10-11T14:04:32.000Z</time>
      </trkpt>
      <trkpt lat="44.24494" lon="2.97107">
        <ele>914</ele>
        <time>2019-10-11T14:04:33.000Z</time>
      </trkpt>
      <trkpt lat="44.2449" lon="2.97102">
        <ele>914</ele>
        <time>2019-10-11T14:04:34.000Z</time>
      </trkpt>
      <trkpt lat="44.24486" lon="2.97097">
        <ele>914</ele>
        <time>2019-10-11T14:04:35.000Z</time>
      </trkpt>
      <trkpt lat="44.24482" lon="2.97093">
        <ele>914</ele>
        <time>2019-10-11T14:04:36.000Z</time>
      </trkpt>
      <trkpt lat="44.24478" lon="2.97088">
        <ele>915</ele>
        <time>2019-10-11T14:04:37.000Z</time>
      </trkpt>
      <trkpt lat="44.24474" lon="2.97083">
        <ele>915</ele>
        <time>2019-10-11T14:04:38.000Z</time>
      </trkpt>
      <trkpt lat="44.2447" lon="2.97078">
        <ele>915</ele>
        <time>2019-10-11T14:04:39.000Z</time>
      </trkpt>
      <trkpt lat="44.24467" lon="2.97073">
        <ele>915</ele>
        <time>2019-10-11T14:04:40.000Z</time>
      </trkpt>
      <trkpt lat="44.24463" lon="2.97068">
        <ele>915</ele>
        <time>2019-10-11T14:04:41.000Z</time>
      </trkpt>
      <trkpt lat="44.24459" lon="2.97063">
        <ele>915</ele>
        <time>2019-10-11T14:04:42.000Z</time>
      </trkpt>
      <trkpt lat="44.24456" lon="2.97058">
        <ele>915</ele>
        <time>2019-10-11T14:04:43.000Z</time>
      </trkpt>
      <trkpt lat="44.24453" lon="2.97054">
        <ele>915</ele>
        <time>2019-10-11T14:04:44.000Z</time>
      </trkpt>
      <trkpt lat="44.2445" lon="2.9705">
        <ele>916</ele>
        <time>2019-10-11T14:04:45.000Z</time>
      </trkpt>
      <trkpt lat="44.24447" lon="2.97046">
        <ele>916</ele>
        <time>2019-10-11T14:04:46.000Z</time>
      </trkpt>
      <trkpt lat="44.24444" lon="2.97043">
        <ele>916</ele>
        <time>2019-10-11T14:04:47.000Z</time>
      </trkpt>
      <trkpt lat="44.24442" lon="2.9704">
        <ele>916</ele>
        <time>2019-10-11T14:04:48.000Z</time>
      </trkpt>
      <trkpt lat="44.2444" lon="2.97038">
        <ele>916</ele>
        <time>2019-10-11T14:04:49.000Z</time>
      </trkpt>
      <trkpt lat="44.24438" lon="2.97037">
        <ele>916</ele>
        <time>2019-10-11T14:04:50.000Z</time>
      </trkpt>
      <trkpt lat="44.24437" lon="2.97036">
        <ele>916</ele>
        <time>2019-10-11T14:04:51.000Z</time>
      </trkpt>
      <trkpt lat="44.24436" lon="2.97034">
        <ele>916</ele>
        <time>2019-10-11T14:04:52.000Z</time>
      </trkpt>
      <trkpt lat="44.24434" lon="2.97032">
        <ele>916</ele>
        <time>2019-10-11T14:04:53.000Z</time>
      </trkpt>
      <trkpt lat="44.24433" lon="2.97031">
        <ele>916</ele>
        <time>2019-10-11T14:04:54.000Z</time>
      </trkpt>
      <trkpt lat="44.24432" lon="2.9703">
        <ele>916</ele>
        <time>2019-10-11T14:04:55.000Z</time>
      </trkpt>
      <trkpt lat="44.2443" lon="2.97029">
        <ele>916</ele>
        <time>2019-10-11T14:04:56.000Z</time>
      </trkpt>
      <trkpt lat="44.24429" lon="2.97027">
        <ele>916</ele>
        <time>2019-10-11T14:04:57.000Z</time>
      </trkpt>
      <trkpt lat="44.24428" lon="2.97026">
        <ele>916</ele>
        <time>2019-10-11T14:04:58.000Z</time>
      </trkpt>
      <trkpt lat="44.24427" lon="2.97025">
        <ele>916</ele>
        <time>2019-10-11T14:04:59.000Z</time>
      </trkpt>
      <trkpt lat="44.24426" lon="2.97024">
        <ele>916</ele>
        <time>2019-10-11T14:05:00.000Z</time>
      </trkpt>
      <trkpt lat="44.24425" lon="2.97023">
        <ele>916</ele>
        <time>2019-10-11T14:05:01.000Z</time>
      </trkpt>
      <trkpt lat="44.24424" lon="2.97022">
        <ele>916</ele>
        <time>2019-10-11T14:05:02.000Z</time>
      </trkpt>
      <trkpt lat="44.24422" lon="2.97021">
        <ele>916</ele>
        <time>2019-10-11T14:05:03.000Z</time>
      </trkpt>
      <trkpt lat="44.24421" lon="2.9702">
        <ele>916</ele>
        <time>2019-10-11T14:05:04.000Z</time>
      </trkpt>
      <trkpt lat="44.2442" lon="2.97019">
        <ele>916</ele>
        <time>2019-10-11T14:05:05.000Z</time>
      </trkpt>
      <trkpt lat="44.24418" lon="2.97018">
        <ele>916</ele>
        <time>2019-10-11T14:05:06.000Z</time>
      </trkpt>
      <trkpt lat="44.24417" lon="2.97017">
        <ele>916</ele>
        <time>2019-10-11T14:05:07.000Z</time>
      </trkpt>
      <trkpt lat="44.24415" lon="2.97017">
        <ele>916</ele>
        <time>2019-10-11T14:05:08.000Z</time>
      </trkpt>
      <trkpt lat="44.24414" lon="2.97016">
        <ele>916</ele>
        <time>2019-10-11T14:05:09.000Z</time>
      </trkpt>
      <trkpt lat="44.24412" lon="2.97016">
        <ele>916</ele>
        <time>2019-10-11T14:05:10.000Z</time>
      </trkpt>
      <trkpt lat="44.24411" lon="2.97016">
        <ele>916</ele>
        <time>2019-10-11T14:05:11.000Z</time>
      </trkpt>
      <trkpt lat="44.24409" lon="2.97016">
        <ele>916</ele>
        <time>2019-10-11T14:05:12.000Z</time>
      </trkpt>
      <trkpt lat="44.24408" lon="2.97016">
        <ele>915</ele>
        <time>2019-10-11T14:05:13.000Z</time>
      </trkpt>
      <trkpt lat="44.24405" lon="2.97017">
        <ele>915</ele>
        <time>2019-10-11T14:05:14.000Z</time>
      </trkpt>
      <trkpt lat="44.24403" lon="2.97018">
        <ele>915</ele>
        <time>2019-10-11T14:05:15.000Z</time>
      </trkpt>
      <trkpt lat="44.244" lon="2.97019">
        <ele>915</ele>
        <time>2019-10-11T14:05:16.000Z</time>
      </trkpt>
      <trkpt lat="44.24397" lon="2.97021">
        <ele>915</ele>
        <time>2019-10-11T14:05:17.000Z</time>
      </trkpt>
      <trkpt lat="44.24393" lon="2.97023">
        <ele>915</ele>
        <time>2019-10-11T14:05:18.000Z</time>
      </trkpt>
      <trkpt lat="44.24389" lon="2.97025">
        <ele>914</ele>
        <time>2019-10-11T14:05:19.000Z</time>
      </trkpt>
      <trkpt lat="44.24385" lon="2.97027">
        <ele>914</ele>
        <time>2019-10-11T14:05:20.000Z</time>
      </trkpt>
      <trkpt lat="44.2438" lon="2.97029">
        <ele>914</ele>
        <time>2019-10-11T14:05:21.000Z</time>
      </trkpt>
      <trkpt lat="44.24376" lon="2.97032">
        <ele>914</ele>
        <time>2019-10-11T14:05:22.000Z</time>
      </trkpt>
      <trkpt lat="44.24372" lon="2.97034">
        <ele>914</ele>
        <time>2019-10-11T14:05:23.000Z</time>
      </trkpt>
      <trkpt lat="44.24367" lon="2.97037">
        <ele>913</ele>
        <time>2019-10-11T14:05:24.000Z</time>
      </trkpt>
      <trkpt lat="44.24363" lon="2.9704">
        <ele>913</ele>
        <time>2019-10-11T14:05:25.000Z</time>
      </trkpt>
      <trkpt lat="44.24358" lon="2.97042">
        <ele>913</ele>
        <time>2019-10-11T14:05:26.000Z</time>
      </trkpt>
      <trkpt lat="44.24353" lon="2.97045">
        <ele>913</ele>
        <time>2019-10-11T14:05:27.000Z</time>
      </trkpt>
      <trkpt lat="44.24348" lon="2.97047">
        <ele>912</ele>
        <time>2019-10-11T14:05:28.000Z</time>
      </trkpt>
      <trkpt lat="44.24344" lon="2.97049">
        <ele>912</ele>
        <time>2019-10-11T14:05:29.000Z</time>
      </trkpt>
      <trkpt lat="44.24339" lon="2.97051">
        <ele>912</ele>
        <time>2019-10-11T14:05:30.000Z</time>
      </trkpt>
      <trkpt lat="44.24334" lon="2.97053">
        <ele>912</ele>
        <time>2019-10-11T14:05:31.000Z</time>
      </trkpt>
      <trkpt lat="44.24329" lon="2.97055">
        <ele>911</ele>
        <time>2019-10-11T14:05:32.000Z</time>
      </trkpt>
      <trkpt lat="44.24324" lon="2.97057">
        <ele>911</ele>
        <time>2019-10-11T14:05:33.000Z</time>
      </trkpt>
      <trkpt lat="44.24319" lon="2.97058">
        <ele>911</ele>
        <time>2019-10-11T14:05:34.000Z</time>
      </trkpt>
      <trkpt lat="44.24314" lon="2.9706">
        <ele>911</ele>
        <time>2019-10-11T14:05:35.000Z</time>
      </trkpt>
      <trkpt lat="44.24309" lon="2.97061">
        <ele>910</ele>
        <time>2019-10-11T14:05:36.000Z</time>
      </trkpt>
      <trkpt lat="44.24304" lon="2.97063">
        <ele>910</ele>
        <time>2019-10-11T14:05:37.000Z</time>
      </trkpt>
      <trkpt lat="44.24299" lon="2.97064">
        <ele>910</ele>
        <time>2019-10-11T14:05:38.000Z</time>
      </trkpt>
      <trkpt lat="44.24294" lon="2.97065">
        <ele>910</ele>
        <time>2019-10-11T14:05:39.000Z</time>
      </trkpt>
      <trkpt lat="44.24289" lon="2.97067">
        <ele>910</ele>
        <time>2019-10-11T14:05:40.000Z</time>
      </trkpt>
      <trkpt lat="44.24285" lon="2.97068">
        <ele>910</ele>
        <time>2019-10-11T14:05:41.000Z</time>
      </trkpt>
      <trkpt lat="44.2428" lon="2.97069">
        <ele>910</ele>
        <time>2019-10-11T14:05:42.000Z</time>
      </trkpt>
      <trkpt lat="44.24275" lon="2.97071">
        <ele>910</ele>
        <time>2019-10-11T14:05:43.000Z</time>
      </trkpt>
      <trkpt lat="44.24271" lon="2.97072">
        <ele>909</ele>
        <time>2019-10-11T14:05:44.000Z</time>
      </trkpt>
      <trkpt lat="44.24266" lon="2.97074">
        <ele>909</ele>
        <time>2019-10-11T14:05:45.000Z</time>
      </trkpt>
      <trkpt lat="44.24262" lon="2.97075">
        <ele>909</ele>
        <time>2019-10-11T14:05:46.000Z</time>
      </trkpt>
      <trkpt lat="44.24258" lon="2.97076">
        <ele>909</ele>
        <time>2019-10-11T14:05:47.000Z</time>
      </trkpt>
      <trkpt lat="44.24254" lon="2.97077">
        <ele>909</ele>
        <time>2019-10-11T14:05:48.000Z</time>
      </trkpt>
      <trkpt lat="44.2425" lon="2.97079">
        <ele>909</ele>
        <time>2019-10-11T14:05:49.000Z</time>
      </trkpt>
      <trkpt lat="44.24247" lon="2.9708">
        <ele>909</ele>
        <time>2019-10-11T14:05:50.000Z</time>
      </trkpt>
      <trkpt lat="44.24245" lon="2.97081">
        <ele>909</ele>
        <time>2019-10-11T14:05:51.000Z</time>
      </trkpt>
      <trkpt lat="44.24243" lon="2.97082">
        <ele>909</ele>
        <time>2019-10-11T14:05:52.000Z</time>
      </trkpt>
      <trkpt lat="44.24241" lon="2.97083">
        <ele>909</ele>
        <time>2019-10-11T14:05:53.000Z</time>
      </trkpt>
      <trkpt lat="44.2424" lon="2.97083">
        <ele>909</ele>
        <time>2019-10-11T14:05:54.000Z</time>
      </trkpt>
      <trkpt lat="44.24238" lon="2.97084">
        <ele>909</ele>
        <time>2019-10-11T14:05:55.000Z</time>
      </trkpt>
      <trkpt lat="44.24237" lon="2.97085">
        <ele>909</ele>
        <time>2019-10-11T14:05:56.000Z</time>
      </trkpt>
      <trkpt lat="44.24235" lon="2.97085">
        <ele>909</ele>
        <time>2019-10-11T14:05:57.000Z</time>
      </trkpt>
      <trkpt lat="44.24234" lon="2.97086">
        <ele>909</ele>
        <time>2019-10-11T14:05:58.000Z</time>
      </trkpt>
      <trkpt lat="44.24232" lon="2.97086">
        <ele>909</ele>
        <time>2019-10-11T14:05:59.000Z</time>
      </trkpt>
      <trkpt lat="44.24231" lon="2.97087">
        <ele>909</ele>
        <time>2019-10-11T14:06:00.000Z</time>
      </trkpt>
      <trkpt lat="44.24229" lon="2.97088">
        <ele>909</ele>
        <time>2019-10-11T14:06:01.000Z</time>
      </trkpt>
      <trkpt lat="44.24228" lon="2.97088">
        <ele>909</ele>
        <time>2019-10-11T14:06:02.000Z</time>
      </trkpt>
      <trkpt lat="44.24227" lon="2.97089">
        <ele>909</ele>
        <time>2019-10-11T14:06:03.000Z</time>
      </trkpt>
      <trkpt lat="44.24225" lon="2.9709">
        <ele>909</ele>
        <time>2019-10-11T14:06:04.000Z</time>
      </trkpt>
      <trkpt lat="44.24224" lon="2.9709">
        <ele>909</ele>
        <time>2019-10-11T14:06:05.000Z</time>
      </trkpt>
      <trkpt lat="44.24222" lon="2.97091">
        <ele>910</ele>
        <time>2019-10-11T14:06:06.000Z</time>
      </trkpt>
      <trkpt lat="44.24221" lon="2.97092">
        <ele>910</ele>
        <time>2019-10-11T14:06:07.000Z</time>
      </trkpt>
      <trkpt lat="44.24219" lon="2.97093">
        <ele>910</ele>
        <time>2019-10-11T14:06:08.000Z</time>
      </trkpt>
      <trkpt lat="44.24217" lon="2.97093">
        <ele>910</ele>
        <time>2019-10-11T14:06:09.000Z</time>
      </trkpt>
      <trkpt lat="44.24216" lon="2.97094">
        <ele>910</ele>
        <time>2019-10-11T14:06:10.000Z</time>
      </trkpt>
      <trkpt lat="44.24214" lon="2.97095">
        <ele>910</ele>
        <time>2019-10-11T14:06:11.000Z</time>
      </trkpt>
      <trkpt lat="44.24213" lon="2.97096">
        <ele>910</ele>
        <time>2019-10-11T14:06:12.000Z</time>
      </trkpt>
      <trkpt lat="44.24211" lon="2.97097">
        <ele>910</ele>
        <time>2019-10-11T14:06:13.000Z</time>
      </trkpt>
      <trkpt lat="44.2421" lon="2.97097">
        <ele>910</ele>
        <time>2019-10-11T14:06:14.000Z</time>
      </trkpt>
      <trkpt lat="44.24208" lon="2.97098">
        <ele>910</ele>
        <time>2019-10-11T14:06:15.000Z</time>
      </trkpt>
      <trkpt lat="44.24207" lon="2.97099">
        <ele>910</ele>
        <time>2019-10-11T14:06:16.000Z</time>
      </trkpt>
      <trkpt lat="44.24205" lon="2.971">
        <ele>910</ele>
        <time>2019-10-11T14:06:17.000Z</time>
      </trkpt>
      <trkpt lat="44.24204" lon="2.971">
        <ele>910</ele>
        <time>2019-10-11T14:06:18.000Z</time>
      </trkpt>
      <trkpt lat="44.24202" lon="2.97101">
        <ele>910</ele>
        <time>2019-10-11T14:06:19.000Z</time>
      </trkpt>
      <trkpt lat="44.24201" lon="2.97101">
        <ele>910</ele>
        <time>2019-10-11T14:06:20.000Z</time>
      </trkpt>
      <trkpt lat="44.24199" lon="2.97102">
        <ele>910</ele>
        <time>2019-10-11T14:06:21.000Z</time>
      </trkpt>
      <trkpt lat="44.24198" lon="2.97103">
        <ele>910</ele>
        <time>2019-10-11T14:06:22.000Z</time>
      </trkpt>
      <trkpt lat="44.24196" lon="2.97103">
        <ele>910</ele>
        <time>2019-10-11T14:06:23.000Z</time>
      </trkpt>
      <trkpt lat="44.24194" lon="2.97104">
        <ele>910</ele>
        <time>2019-10-11T14:06:24.000Z</time>
      </trkpt>
      <trkpt lat="44.24193" lon="2.97104">
        <ele>910</ele>
        <time>2019-10-11T14:06:25.000Z</time>
      </trkpt>
      <trkpt lat="44.24191" lon="2.97105">
        <ele>910</ele>
        <time>2019-10-11T14:06:26.000Z</time>
      </trkpt>
      <trkpt lat="44.2419" lon="2.97106">
        <ele>910</ele>
        <time>2019-10-11T14:06:27.000Z</time>
      </trkpt>
      <trkpt lat="44.24188" lon="2.97106">
        <ele>910</ele>
        <time>2019-10-11T14:06:28.000Z</time>
      </trkpt>
      <trkpt lat="44.24187" lon="2.97107">
        <ele>910</ele>
        <time>2019-10-11T14:06:29.000Z</time>
      </trkpt>
      <trkpt lat="44.24185" lon="2.97108">
        <ele>910</ele>
        <time>2019-10-11T14:06:30.000Z</time>
      </trkpt>
      <trkpt lat="44.24184" lon="2.97109">
        <ele>910</ele>
        <time>2019-10-11T14:06:31.000Z</time>
      </trkpt>
      <trkpt lat="44.24182" lon="2.9711">
        <ele>910</ele>
        <time>2019-10-11T14:06:32.000Z</time>
      </trkpt>
      <trkpt lat="44.2418" lon="2.9711">
        <ele>910</ele>
        <time>2019-10-11T14:06:33.000Z</time>
      </trkpt>
      <trkpt lat="44.24179" lon="2.97111">
        <ele>910</ele>
        <time>2019-10-11T14:06:34.000Z</time>
      </trkpt>
      <trkpt lat="44.24177" lon="2.97112">
        <ele>910</ele>
        <time>2019-10-11T14:06:35.000Z</time>
      </trkpt>
      <trkpt lat="44.24176" lon="2.97112">
        <ele>910</ele>
        <time>2019-10-11T14:06:36.000Z</time>
      </trkpt>
      <trkpt lat="44.24174" lon="2.97113">
        <ele>910</ele>
        <time>2019-10-11T14:06:37.000Z</time>
      </trkpt>
      <trkpt lat="44.24173" lon="2.97114">
        <ele>910</ele>
        <time>2019-10-11T14:06:38.000Z</time>
      </trkpt>
      <trkpt lat="44.24171" lon="2.97114">
        <ele>909</ele>
        <time>2019-10-11T14:06:39.000Z</time>
      </trkpt>
      <trkpt lat="44.2417" lon="2.97114">
        <ele>909</ele>
        <time>2019-10-11T14:06:40.000Z</time>
      </trkpt>
      <trkpt lat="44.24169" lon="2.97114">
        <ele>909</ele>
        <time>2019-10-11T14:06:41.000Z</time>
      </trkpt>
      <trkpt lat="44.24167" lon="2.97115">
        <ele>909</ele>
        <time>2019-10-11T14:06:42.000Z</time>
      </trkpt>
      <trkpt lat="44.24166" lon="2.97115">
        <ele>909</ele>
        <time>2019-10-11T14:06:43.000Z</time>
      </trkpt>
      <trkpt lat="44.24164" lon="2.97116">
        <ele>909</ele>
        <time>2019-10-11T14:06:44.000Z</time>
      </trkpt>
      <trkpt lat="44.24163" lon="2.97117">
        <ele>908</ele>
        <time>2019-10-11T14:06:45.000Z</time>
      </trkpt>
      <trkpt lat="44.24161" lon="2.97118">
        <ele>908</ele>
        <time>2019-10-11T14:06:46.000Z</time>
      </trkpt>
      <trkpt lat="44.2416" lon="2.97119">
        <ele>908</ele>
        <time>2019-10-11T14:06:47.000Z</time>
      </trkpt>
      <trkpt lat="44.24158" lon="2.9712">
        <ele>908</ele>
        <time>2019-10-11T14:06:48.000Z</time>
      </trkpt>
      <trkpt lat="44.24157" lon="2.9712">
        <ele>908</ele>
        <time>2019-10-11T14:06:49.000Z</time>
      </trkpt>
      <trkpt lat="44.24156" lon="2.97121">
        <ele>908</ele>
        <time>2019-10-11T14:06:50.000Z</time>
      </trkpt>
      <trkpt lat="44.24154" lon="2.97122">
        <ele>907</ele>
        <time>2019-10-11T14:06:51.000Z</time>
      </trkpt>
      <trkpt lat="44.24153" lon="2.97123">
        <ele>907</ele>
        <time>2019-10-11T14:06:52.000Z</time>
      </trkpt>
      <trkpt lat="44.24152" lon="2.97124">
        <ele>907</ele>
        <time>2019-10-11T14:06:53.000Z</time>
      </trkpt>
      <trkpt lat="44.2415" lon="2.97125">
        <ele>907</ele>
        <time>2019-10-11T14:06:54.000Z</time>
      </trkpt>
      <trkpt lat="44.24149" lon="2.97126">
        <ele>907</ele>
        <time>2019-10-11T14:06:55.000Z</time>
      </trkpt>
      <trkpt lat="44.24147" lon="2.97128">
        <ele>907</ele>
        <time>2019-10-11T14:06:56.000Z</time>
      </trkpt>
      <trkpt lat="44.24146" lon="2.97129">
        <ele>907</ele>
        <time>2019-10-11T14:06:57.000Z</time>
      </trkpt>
      <trkpt lat="44.24144" lon="2.9713">
        <ele>907</ele>
        <time>2019-10-11T14:06:58.000Z</time>
      </trkpt>
      <trkpt lat="44.24143" lon="2.97131">
        <ele>906</ele>
        <time>2019-10-11T14:06:59.000Z</time>
      </trkpt>
      <trkpt lat="44.24141" lon="2.97133">
        <ele>906</ele>
        <time>2019-10-11T14:07:00.000Z</time>
      </trkpt>
      <trkpt lat="44.2414" lon="2.97134">
        <ele>906</ele>
        <time>2019-10-11T14:07:01.000Z</time>
      </trkpt>
      <trkpt lat="44.24138" lon="2.97135">
        <ele>906</ele>
        <time>2019-10-11T14:07:02.000Z</time>
      </trkpt>
      <trkpt lat="44.24137" lon="2.97137">
        <ele>906</ele>
        <time>2019-10-11T14:07:03.000Z</time>
      </trkpt>
      <trkpt lat="44.24135" lon="2.97138">
        <ele>906</ele>
        <time>2019-10-11T14:07:04.000Z</time>
      </trkpt>
      <trkpt lat="44.24134" lon="2.9714">
        <ele>906</ele>
        <time>2019-10-11T14:07:05.000Z</time>
      </trkpt>
      <trkpt lat="44.24133" lon="2.97141">
        <ele>906</ele>
        <time>2019-10-11T14:07:06.000Z</time>
      </trkpt>
      <trkpt lat="44.24131" lon="2.97143">
        <ele>906</ele>
        <time>2019-10-11T14:07:07.000Z</time>
      </trkpt>
      <trkpt lat="44.2413" lon="2.97144">
        <ele>906</ele>
        <time>2019-10-11T14:07:08.000Z</time>
      </trkpt>
      <trkpt lat="44.24129" lon="2.97146">
        <ele>906</ele>
        <time>2019-10-11T14:07:09.000Z</time>
      </trkpt>
      <trkpt lat="44.24128" lon="2.97147">
        <ele>906</ele>
        <time>2019-10-11T14:07:10.000Z</time>
      </trkpt>
      <trkpt lat="44.24126" lon="2.97149">
        <ele>906</ele>
        <time>2019-10-11T14:07:11.000Z</time>
      </trkpt>
      <trkpt lat="44.24125" lon="2.9715">
        <ele>906</ele>
        <time>2019-10-11T14:07:12.000Z</time>
      </trkpt>
      <trkpt lat="44.24124" lon="2.97152">
        <ele>906</ele>
        <time>2019-10-11T14:07:13.000Z</time>
      </trkpt>
      <trkpt lat="44.24123" lon="2.97154">
        <ele>906</ele>
        <time>2019-10-11T14:07:14.000Z</time>
      </trkpt>
      <trkpt lat="44.24121" lon="2.97155">
        <ele>906</ele>
        <time>2019-10-11T14:07:15.000Z</time>
      </trkpt>
      <trkpt lat="44.2412" lon="2.97156">
        <ele>906</ele>
        <time>2019-10-11T14:07:16.000Z</time>
      </trkpt>
      <trkpt lat="44.24118" lon="2.97158">
        <ele>906</ele>
        <time>2019-10-11T14:07:17.000Z</time>
      </trkpt>
      <trkpt lat="44.24117" lon="2.97159">
        <ele>905</ele>
        <time>2019-10-11T14:07:18.000Z</time>
      </trkpt>
      <trkpt lat="44.24116" lon="2.97161">
        <ele>905</ele>
        <time>2019-10-11T14:07:19.000Z</time>
      </trkpt>
      <trkpt lat="44.24114" lon="2.97163">
        <ele>905</ele>
        <time>2019-10-11T14:07:20.000Z</time>
      </trkpt>
      <trkpt lat="44.24113" lon="2.97164">
        <ele>905</ele>
        <time>2019-10-11T14:07:21.000Z</time>
      </trkpt>
      <trkpt lat="44.24112" lon="2.97166">
        <ele>905</ele>
        <time>2019-10-11T14:07:22.000Z</time>
      </trkpt>
      <trkpt lat="44.2411" lon="2.97167">
        <ele>905</ele>
        <time>2019-10-11T14:07:23.000Z</time>
      </trkpt>
      <trkpt lat="44.24109" lon="2.97169">
        <ele>905</ele>
        <time>2019-10-11T14:07:24.000Z</time>
      </trkpt>
      <trkpt lat="44.24108" lon="2.9717">
        <ele>904</ele>
        <time>2019-10-11T14:07:25.000Z</time>
      </trkpt>
      <trkpt lat="44.24107" lon="2.97172">
        <ele>904</ele>
        <time>2019-10-11T14:07:26.000Z</time>
      </trkpt>
      <trkpt lat="44.24106" lon="2.97174">
        <ele>904</ele>
        <time>2019-10-11T14:07:27.000Z</time>
      </trkpt>
      <trkpt lat="44.24105" lon="2.97176">
        <ele>904</ele>
        <time>2019-10-11T14:07:28.000Z</time>
      </trkpt>
      <trkpt lat="44.24103" lon="2.97177">
        <ele>904</ele>
        <time>2019-10-11T14:07:29.000Z</time>
      </trkpt>
      <trkpt lat="44.24102" lon="2.97179">
        <ele>904</ele>
        <time>2019-10-11T14:07:30.000Z</time>
      </trkpt>
      <trkpt lat="44.24101" lon="2.9718">
        <ele>904</ele>
        <time>2019-10-11T14:07:31.000Z</time>
      </trkpt>
      <trkpt lat="44.24099" lon="2.97182">
        <ele>904</ele>
        <time>2019-10-11T14:07:32.000Z</time>
      </trkpt>
      <trkpt lat="44.24098" lon="2.97183">
        <ele>903</ele>
        <time>2019-10-11T14:07:33.000Z</time>
      </trkpt>
      <trkpt lat="44.24096" lon="2.97185">
        <ele>903</ele>
        <time>2019-10-11T14:07:34.000Z</time>
      </trkpt>
      <trkpt lat="44.24095" lon="2.97186">
        <ele>903</ele>
        <time>2019-10-11T14:07:35.000Z</time>
      </trkpt>
      <trkpt lat="44.24094" lon="2.97188">
        <ele>903</ele>
        <time>2019-10-11T14:07:36.000Z</time>
      </trkpt>
      <trkpt lat="44.24092" lon="2.97189">
        <ele>903</ele>
        <time>2019-10-11T14:07:37.000Z</time>
      </trkpt>
      <trkpt lat="44.24091" lon="2.97191">
        <ele>902</ele>
        <time>2019-10-11T14:07:38.000Z</time>
      </trkpt>
      <trkpt lat="44.24089" lon="2.97192">
        <ele>902</ele>
        <time>2019-10-11T14:07:39.000Z</time>
      </trkpt>
      <trkpt lat="44.24088" lon="2.97194">
        <ele>902</ele>
        <time>2019-10-11T14:07:40.000Z</time>
      </trkpt>
      <trkpt lat="44.24086" lon="2.97195">
        <ele>902</ele>
        <time>2019-10-11T14:07:41.000Z</time>
      </trkpt>
      <trkpt lat="44.24085" lon="2.97196">
        <ele>902</ele>
        <time>2019-10-11T14:07:42.000Z</time>
      </trkpt>
      <trkpt lat="44.24083" lon="2.97198">
        <ele>902</ele>
        <time>2019-10-11T14:07:43.000Z</time>
      </trkpt>
      <trkpt lat="44.24082" lon="2.97199">
        <ele>902</ele>
        <time>2019-10-11T14:07:44.000Z</time>
      </trkpt>
      <trkpt lat="44.2408" lon="2.972">
        <ele>901</ele>
        <time>2019-10-11T14:07:45.000Z</time>
      </trkpt>
      <trkpt lat="44.24079" lon="2.97202">
        <ele>901</ele>
        <time>2019-10-11T14:07:46.000Z</time>
      </trkpt>
      <trkpt lat="44.24077" lon="2.97203">
        <ele>901</ele>
        <time>2019-10-11T14:07:47.000Z</time>
      </trkpt>
      <trkpt lat="44.24076" lon="2.97204">
        <ele>901</ele>
        <time>2019-10-11T14:07:48.000Z</time>
      </trkpt>
      <trkpt lat="44.24075" lon="2.97206">
        <ele>901</ele>
        <time>2019-10-11T14:07:49.000Z</time>
      </trkpt>
      <trkpt lat="44.24073" lon="2.97207">
        <ele>901</ele>
        <time>2019-10-11T14:07:50.000Z</time>
      </trkpt>
      <trkpt lat="44.24072" lon="2.97209">
        <ele>901</ele>
        <time>2019-10-11T14:07:51.000Z</time>
      </trkpt>
      <trkpt lat="44.2407" lon="2.9721">
        <ele>901</ele>
        <time>2019-10-11T14:07:52.000Z</time>
      </trkpt>
      <trkpt lat="44.24069" lon="2.97212">
        <ele>901</ele>
        <time>2019-10-11T14:07:53.000Z</time>
      </trkpt>
      <trkpt lat="44.24067" lon="2.97213">
        <ele>900</ele>
        <time>2019-10-11T14:07:54.000Z</time>
      </trkpt>
      <trkpt lat="44.24066" lon="2.97215">
        <ele>900</ele>
        <time>2019-10-11T14:07:55.000Z</time>
      </trkpt>
      <trkpt lat="44.24065" lon="2.97216">
        <ele>900</ele>
        <time>2019-10-11T14:07:56.000Z</time>
      </trkpt>
      <trkpt lat="44.24064" lon="2.97218">
        <ele>900</ele>
        <time>2019-10-11T14:07:57.000Z</time>
      </trkpt>
      <trkpt lat="44.24062" lon="2.97219">
        <ele>899</ele>
        <time>2019-10-11T14:07:58.000Z</time>
      </trkpt>
      <trkpt lat="44.24061" lon="2.9722">
        <ele>899</ele>
        <time>2019-10-11T14:07:59.000Z</time>
      </trkpt>
      <trkpt lat="44.2406" lon="2.97222">
        <ele>899</ele>
        <time>2019-10-11T14:08:00.000Z</time>
      </trkpt>
      <trkpt lat="44.24059" lon="2.97223">
        <ele>899</ele>
        <time>2019-10-11T14:08:01.000Z</time>
      </trkpt>
      <trkpt lat="44.24058" lon="2.97225">
        <ele>898</ele>
        <time>2019-10-11T14:08:02.000Z</time>
      </trkpt>
      <trkpt lat="44.24057" lon="2.97226">
        <ele>898</ele>
        <time>2019-10-11T14:08:03.000Z</time>
      </trkpt>
      <trkpt lat="44.24055" lon="2.97228">
        <ele>898</ele>
        <time>2019-10-11T14:08:04.000Z</time>
      </trkpt>
      <trkpt lat="44.24054" lon="2.97229">
        <ele>897</ele>
        <time>2019-10-11T14:08:05.000Z</time>
      </trkpt>
      <trkpt lat="44.24053" lon="2.9723">
        <ele>897</ele>
        <time>2019-10-11T14:08:06.000Z</time>
      </trkpt>
      <trkpt lat="44.24051" lon="2.97232">
        <ele>897</ele>
        <time>2019-10-11T14:08:07.000Z</time>
      </trkpt>
      <trkpt lat="44.2405" lon="2.97233">
        <ele>896</ele>
        <time>2019-10-11T14:08:08.000Z</time>
      </trkpt>
      <trkpt lat="44.24049" lon="2.97234">
        <ele>896</ele>
        <time>2019-10-11T14:08:09.000Z</time>
      </trkpt>
      <trkpt lat="44.24048" lon="2.97236">
        <ele>896</ele>
        <time>2019-10-11T14:08:10.000Z</time>
      </trkpt>
      <trkpt lat="44.24047" lon="2.97237">
        <ele>896</ele>
        <time>2019-10-11T14:08:11.000Z</time>
      </trkpt>
      <trkpt lat="44.24046" lon="2.97238">
        <ele>895</ele>
        <time>2019-10-11T14:08:12.000Z</time>
      </trkpt>
      <trkpt lat="44.24045" lon="2.9724">
        <ele>895</ele>
        <time>2019-10-11T14:08:13.000Z</time>
      </trkpt>
      <trkpt lat="44.24044" lon="2.97241">
        <ele>895</ele>
        <time>2019-10-11T14:08:14.000Z</time>
      </trkpt>
      <trkpt lat="44.24042" lon="2.97242">
        <ele>894</ele>
        <time>2019-10-11T14:08:15.000Z</time>
      </trkpt>
      <trkpt lat="44.24041" lon="2.97243">
        <ele>894</ele>
        <time>2019-10-11T14:08:16.000Z</time>
      </trkpt>
      <trkpt lat="44.24039" lon="2.97244">
        <ele>894</ele>
        <time>2019-10-11T14:08:17.000Z</time>
      </trkpt>
      <trkpt lat="44.24038" lon="2.97245">
        <ele>893</ele>
        <time>2019-10-11T14:08:18.000Z</time>
      </trkpt>
      <trkpt lat="44.24036" lon="2.97247">
        <ele>893</ele>
        <time>2019-10-11T14:08:19.000Z</time>
      </trkpt>
      <trkpt lat="44.24035" lon="2.97248">
        <ele>893</ele>
        <time>2019-10-11T14:08:20.000Z</time>
      </trkpt>
      <trkpt lat="44.24034" lon="2.97249">
        <ele>893</ele>
        <time>2019-10-11T14:08:21.000Z</time>
      </trkpt>
      <trkpt lat="44.24032" lon="2.9725">
        <ele>892</ele>
        <time>2019-10-11T14:08:22.000Z</time>
      </trkpt>
      <trkpt lat="44.24031" lon="2.97251">
        <ele>892</ele>
        <time>2019-10-11T14:08:23.000Z</time>
      </trkpt>
      <trkpt lat="44.2403" lon="2.97253">
        <ele>892</ele>
        <time>2019-10-11T14:08:24.000Z</time>
      </trkpt>
      <trkpt lat="44.24028" lon="2.97254">
        <ele>892</ele>
        <time>2019-10-11T14:08:25.000Z</time>
      </trkpt>
      <trkpt lat="44.24027" lon="2.97256">
        <ele>891</ele>
        <time>2019-10-11T14:08:26.000Z</time>
      </trkpt>
      <trkpt lat="44.24026" lon="2.97257">
        <ele>891</ele>
        <time>2019-10-11T14:08:27.000Z</time>
      </trkpt>
      <trkpt lat="44.24025" lon="2.97259">
        <ele>891</ele>
        <time>2019-10-11T14:08:28.000Z</time>
      </trkpt>
      <trkpt lat="44.24024" lon="2.9726">
        <ele>891</ele>
        <time>2019-10-11T14:08:29.000Z</time>
      </trkpt>
      <trkpt lat="44.24023" lon="2.97262">
        <ele>890</ele>
        <time>2019-10-11T14:08:30.000Z</time>
      </trkpt>
      <trkpt lat="44.24022" lon="2.97263">
        <ele>890</ele>
        <time>2019-10-11T14:08:31.000Z</time>
      </trkpt>
      <trkpt lat="44.24021" lon="2.97265">
        <ele>890</ele>
        <time>2019-10-11T14:08:32.000Z</time>
      </trkpt>
      <trkpt lat="44.2402" lon="2.97266">
        <ele>889</ele>
        <time>2019-10-11T14:08:33.000Z</time>
      </trkpt>
      <trkpt lat="44.2402" lon="2.97268">
        <ele>889</ele>
        <time>2019-10-11T14:08:34.000Z</time>
      </trkpt>
      <trkpt lat="44.24019" lon="2.9727">
        <ele>889</ele>
        <time>2019-10-11T14:08:35.000Z</time>
      </trkpt>
      <trkpt lat="44.24018" lon="2.97272">
        <ele>889</ele>
        <time>2019-10-11T14:08:36.000Z</time>
      </trkpt>
      <trkpt lat="44.24017" lon="2.97273">
        <ele>889</ele>
        <time>2019-10-11T14:08:37.000Z</time>
      </trkpt>
      <trkpt lat="44.24017" lon="2.97275">
        <ele>888</ele>
        <time>2019-10-11T14:08:38.000Z</time>
      </trkpt>
      <trkpt lat="44.24016" lon="2.97277">
        <ele>888</ele>
        <time>2019-10-11T14:08:39.000Z</time>
      </trkpt>
      <trkpt lat="44.24015" lon="2.97279">
        <ele>888</ele>
        <time>2019-10-11T14:08:40.000Z</time>
      </trkpt>
      <trkpt lat="44.24014" lon="2.97281">
        <ele>888</ele>
        <time>2019-10-11T14:08:41.000Z</time>
      </trkpt>
      <trkpt lat="44.24013" lon="2.97283">
        <ele>887</ele>
        <time>2019-10-11T14:08:42.000Z</time>
      </trkpt>
      <trkpt lat="44.24013" lon="2.97285">
        <ele>887</ele>
        <time>2019-10-11T14:08:43.000Z</time>
      </trkpt>
      <trkpt lat="44.24012" lon="2.97287">
        <ele>887</ele>
        <time>2019-10-11T14:08:44.000Z</time>
      </trkpt>
      <trkpt lat="44.24011" lon="2.97289">
        <ele>886</ele>
        <time>2019-10-11T14:08:45.000Z</time>
      </trkpt>
      <trkpt lat="44.2401" lon="2.97291">
        <ele>886</ele>
        <time>2019-10-11T14:08:46.000Z</time>
      </trkpt>
      <trkpt lat="44.24009" lon="2.97293">
        <ele>886</ele>
        <time>2019-10-11T14:08:47.000Z</time>
      </trkpt>
      <trkpt lat="44.24008" lon="2.97295">
        <ele>886</ele>
        <time>2019-10-11T14:08:48.000Z</time>
      </trkpt>
      <trkpt lat="44.24007" lon="2.97297">
        <ele>885</ele>
        <time>2019-10-11T14:08:49.000Z</time>
      </trkpt>
      <trkpt lat="44.24005" lon="2.97298">
        <ele>885</ele>
        <time>2019-10-11T14:08:50.000Z</time>
      </trkpt>
      <trkpt lat="44.24004" lon="2.97299">
        <ele>885</ele>
        <time>2019-10-11T14:08:51.000Z</time>
      </trkpt>
      <trkpt lat="44.24003" lon="2.973">
        <ele>885</ele>
        <time>2019-10-11T14:08:52.000Z</time>
      </trkpt>
      <trkpt lat="44.24002" lon="2.97301">
        <ele>885</ele>
        <time>2019-10-11T14:08:53.000Z</time>
      </trkpt>
      <trkpt lat="44.24" lon="2.97302">
        <ele>884</ele>
        <time>2019-10-11T14:08:54.000Z</time>
      </trkpt>
      <trkpt lat="44.23999" lon="2.97303">
        <ele>884</ele>
        <time>2019-10-11T14:08:55.000Z</time>
      </trkpt>
      <trkpt lat="44.23997" lon="2.97304">
        <ele>884</ele>
        <time>2019-10-11T14:08:56.000Z</time>
      </trkpt>
      <trkpt lat="44.23996" lon="2.97304">
        <ele>884</ele>
        <time>2019-10-11T14:08:57.000Z</time>
      </trkpt>
      <trkpt lat="44.23994" lon="2.97305">
        <ele>884</ele>
        <time>2019-10-11T14:08:58.000Z</time>
      </trkpt>
      <trkpt lat="44.23992" lon="2.97305">
        <ele>884</ele>
        <time>2019-10-11T14:08:59.000Z</time>
      </trkpt>
      <trkpt lat="44.2399" lon="2.97305">
        <ele>883</ele>
        <time>2019-10-11T14:09:00.000Z</time>
      </trkpt>
      <trkpt lat="44.23988" lon="2.97306">
        <ele>883</ele>
        <time>2019-10-11T14:09:01.000Z</time>
      </trkpt>
      <trkpt lat="44.23987" lon="2.97305">
        <ele>883</ele>
        <time>2019-10-11T14:09:02.000Z</time>
      </trkpt>
      <trkpt lat="44.23985" lon="2.97305">
        <ele>882</ele>
        <time>2019-10-11T14:09:03.000Z</time>
      </trkpt>
      <trkpt lat="44.23983" lon="2.97305">
        <ele>882</ele>
        <time>2019-10-11T14:09:04.000Z</time>
      </trkpt>
      <trkpt lat="44.23981" lon="2.97304">
        <ele>881</ele>
        <time>2019-10-11T14:09:05.000Z</time>
      </trkpt>
      <trkpt lat="44.2398" lon="2.97304">
        <ele>881</ele>
        <time>2019-10-11T14:09:06.000Z</time>
      </trkpt>
      <trkpt lat="44.23978" lon="2.97304">
        <ele>881</ele>
        <time>2019-10-11T14:09:07.000Z</time>
      </trkpt>
      <trkpt lat="44.23976" lon="2.97303">
        <ele>880</ele>
        <time>2019-10-11T14:09:08.000Z</time>
      </trkpt>
      <trkpt lat="44.23975" lon="2.97302">
        <ele>880</ele>
        <time>2019-10-11T14:09:09.000Z</time>
      </trkpt>
      <trkpt lat="44.23973" lon="2.97302">
        <ele>880</ele>
        <time>2019-10-11T14:09:10.000Z</time>
      </trkpt>
      <trkpt lat="44.23971" lon="2.97302">
        <ele>879</ele>
        <time>2019-10-11T14:09:11.000Z</time>
      </trkpt>
      <trkpt lat="44.2397" lon="2.97301">
        <ele>879</ele>
        <time>2019-10-11T14:09:12.000Z</time>
      </trkpt>
      <trkpt lat="44.23968" lon="2.97301">
        <ele>879</ele>
        <time>2019-10-11T14:09:13.000Z</time>
      </trkpt>
      <trkpt lat="44.23966" lon="2.97301">
        <ele>878</ele>
        <time>2019-10-11T14:09:14.000Z</time>
      </trkpt>
      <trkpt lat="44.23965" lon="2.973">
        <ele>878</ele>
        <time>2019-10-11T14:09:15.000Z</time>
      </trkpt>
      <trkpt lat="44.23963" lon="2.973">
        <ele>878</ele>
        <time>2019-10-11T14:09:16.000Z</time>
      </trkpt>
      <trkpt lat="44.23961" lon="2.97299">
        <ele>877</ele>
        <time>2019-10-11T14:09:17.000Z</time>
      </trkpt>
      <trkpt lat="44.2396" lon="2.97299">
        <ele>877</ele>
        <time>2019-10-11T14:09:18.000Z</time>
      </trkpt>
      <trkpt lat="44.23958" lon="2.97299">
        <ele>877</ele>
        <time>2019-10-11T14:09:19.000Z</time>
      </trkpt>
      <trkpt lat="44.23956" lon="2.97298">
        <ele>876</ele>
        <time>2019-10-11T14:09:20.000Z</time>
      </trkpt>
      <trkpt lat="44.23955" lon="2.97298">
        <ele>876</ele>
        <time>2019-10-11T14:09:21.000Z</time>
      </trkpt>
      <trkpt lat="44.23953" lon="2.97298">
        <ele>876</ele>
        <time>2019-10-11T14:09:22.000Z</time>
      </trkpt>
      <trkpt lat="44.23951" lon="2.97297">
        <ele>876</ele>
        <time>2019-10-11T14:09:23.000Z</time>
      </trkpt>
      <trkpt lat="44.23949" lon="2.97297">
        <ele>876</ele>
        <time>2019-10-11T14:09:24.000Z</time>
      </trkpt>
      <trkpt lat="44.23948" lon="2.97297">
        <ele>875</ele>
        <time>2019-10-11T14:09:25.000Z</time>
      </trkpt>
      <trkpt lat="44.23946" lon="2.97296">
        <ele>875</ele>
        <time>2019-10-11T14:09:26.000Z</time>
      </trkpt>
      <trkpt lat="44.23944" lon="2.97296">
        <ele>875</ele>
        <time>2019-10-11T14:09:27.000Z</time>
      </trkpt>
      <trkpt lat="44.23943" lon="2.97296">
        <ele>875</ele>
        <time>2019-10-11T14:09:28.000Z</time>
      </trkpt>
      <trkpt lat="44.23941" lon="2.97295">
        <ele>874</ele>
        <time>2019-10-11T14:09:29.000Z</time>
      </trkpt>
      <trkpt lat="44.23939" lon="2.97295">
        <ele>874</ele>
        <time>2019-10-11T14:09:30.000Z</time>
      </trkpt>
      <trkpt lat="44.23937" lon="2.97295">
        <ele>874</ele>
        <time>2019-10-11T14:09:31.000Z</time>
      </trkpt>
      <trkpt lat="44.23935" lon="2.97294">
        <ele>874</ele>
        <time>2019-10-11T14:09:32.000Z</time>
      </trkpt>
      <trkpt lat="44.23934" lon="2.97294">
        <ele>874</ele>
        <time>2019-10-11T14:09:33.000Z</time>
      </trkpt>
      <trkpt lat="44.23932" lon="2.97294">
        <ele>873</ele>
        <time>2019-10-11T14:09:34.000Z</time>
      </trkpt>
      <trkpt lat="44.2393" lon="2.97294">
        <ele>873</ele>
        <time>2019-10-11T14:09:35.000Z</time>
      </trkpt>
      <trkpt lat="44.23928" lon="2.97293">
        <ele>873</ele>
        <time>2019-10-11T14:09:36.000Z</time>
      </trkpt>
      <trkpt lat="44.23927" lon="2.97293">
        <ele>873</ele>
        <time>2019-10-11T14:09:37.000Z</time>
      </trkpt>
      <trkpt lat="44.23925" lon="2.97293">
        <ele>873</ele>
        <time>2019-10-11T14:09:38.000Z</time>
      </trkpt>
      <trkpt lat="44.23923" lon="2.97293">
        <ele>873</ele>
        <time>2019-10-11T14:09:39.000Z</time>
      </trkpt>
      <trkpt lat="44.23921" lon="2.97293">
        <ele>873</ele>
        <time>2019-10-11T14:09:40.000Z</time>
      </trkpt>
      <trkpt lat="44.2392" lon="2.97293">
        <ele>872</ele>
        <time>2019-10-11T14:09:41.000Z</time>
      </trkpt>
      <trkpt lat="44.23918" lon="2.97292">
        <ele>872</ele>
        <time>2019-10-11T14:09:42.000Z</time>
      </trkpt>
      <trkpt lat="44.23916" lon="2.97292">
        <ele>872</ele>
        <time>2019-10-11T14:09:43.000Z</time>
      </trkpt>
      <trkpt lat="44.23915" lon="2.97292">
        <ele>872</ele>
        <time>2019-10-11T14:09:44.000Z</time>
      </trkpt>
      <trkpt lat="44.23913" lon="2.97292">
        <ele>872</ele>
        <time>2019-10-11T14:09:45.000Z</time>
      </trkpt>
      <trkpt lat="44.23911" lon="2.97292">
        <ele>872</ele>
        <time>2019-10-11T14:09:46.000Z</time>
      </trkpt>
      <trkpt lat="44.23909" lon="2.97292">
        <ele>872</ele>
        <time>2019-10-11T14:09:47.000Z</time>
      </trkpt>
      <trkpt lat="44.23908" lon="2.97292">
        <ele>872</ele>
        <time>2019-10-11T14:09:48.000Z</time>
      </trkpt>
      <trkpt lat="44.23906" lon="2.97292">
        <ele>872</ele>
        <time>2019-10-11T14:09:49.000Z</time>
      </trkpt>
      <trkpt lat="44.23904" lon="2.97292">
        <ele>872</ele>
        <time>2019-10-11T14:09:50.000Z</time>
      </trkpt>
      <trkpt lat="44.23903" lon="2.97292">
        <ele>872</ele>
        <time>2019-10-11T14:09:51.000Z</time>
      </trkpt>
      <trkpt lat="44.23901" lon="2.97292">
        <ele>872</ele>
        <time>2019-10-11T14:09:52.000Z</time>
      </trkpt>
      <trkpt lat="44.23899" lon="2.97292">
        <ele>871</ele>
        <time>2019-10-11T14:09:53.000Z</time>
      </trkpt>
      <trkpt lat="44.23898" lon="2.97292">
        <ele>871</ele>
        <time>2019-10-11T14:09:54.000Z</time>
      </trkpt>
      <trkpt lat="44.23896" lon="2.97292">
        <ele>871</ele>
        <time>2019-10-11T14:09:55.000Z</time>
      </trkpt>
      <trkpt lat="44.23894" lon="2.97292">
        <ele>871</ele>
        <time>2019-10-11T14:09:56.000Z</time>
      </trkpt>
      <trkpt lat="44.23892" lon="2.97292">
        <ele>871</ele>
        <time>2019-10-11T14:09:57.000Z</time>
      </trkpt>
      <trkpt lat="44.23891" lon="2.97292">
        <ele>871</ele>
        <time>2019-10-11T14:09:58.000Z</time>
      </trkpt>
      <trkpt lat="44.23889" lon="2.97292">
        <ele>871</ele>
        <time>2019-10-11T14:09:59.000Z</time>
      </trkpt>
      <trkpt lat="44.23887" lon="2.97292">
        <ele>870</ele>
        <time>2019-10-11T14:10:00.000Z</time>
      </trkpt>
      <trkpt lat="44.23886" lon="2.97292">
        <ele>870</ele>
        <time>2019-10-11T14:10:01.000Z</time>
      </trkpt>
      <trkpt lat="44.23884" lon="2.97292">
        <ele>870</ele>
        <time>2019-10-11T14:10:02.000Z</time>
      </trkpt>
      <trkpt lat="44.23882" lon="2.97292">
        <ele>870</ele>
        <time>2019-10-11T14:10:03.000Z</time>
      </trkpt>
      <trkpt lat="44.23881" lon="2.97292">
        <ele>870</ele>
        <time>2019-10-11T14:10:04.000Z</time>
      </trkpt>
      <trkpt lat="44.23879" lon="2.97292">
        <ele>869</ele>
        <time>2019-10-11T14:10:05.000Z</time>
      </trkpt>
      <trkpt lat="44.23877" lon="2.97292">
        <ele>869</ele>
        <time>2019-10-11T14:10:06.000Z</time>
      </trkpt>
      <trkpt lat="44.23876" lon="2.97292">
        <ele>869</ele>
        <time>2019-10-11T14:10:07.000Z</time>
      </trkpt>
      <trkpt lat="44.23874" lon="2.97292">
        <ele>869</ele>
        <time>2019-10-11T14:10:08.000Z</time>
      </trkpt>
      <trkpt lat="44.23872" lon="2.97292">
        <ele>869</ele>
        <time>2019-10-11T14:10:09.000Z</time>
      </trkpt>
      <trkpt lat="44.2387" lon="2.97292">
        <ele>869</ele>
        <time>2019-10-11T14:10:10.000Z</time>
      </trkpt>
      <trkpt lat="44.23869" lon="2.97292">
        <ele>869</ele>
        <time>2019-10-11T14:10:11.000Z</time>
      </trkpt>
      <trkpt lat="44.23867" lon="2.97292">
        <ele>868</ele>
        <time>2019-10-11T14:10:12.000Z</time>
      </trkpt>
      <trkpt lat="44.23865" lon="2.97292">
        <ele>868</ele>
        <time>2019-10-11T14:10:13.000Z</time>
      </trkpt>
      <trkpt lat="44.23864" lon="2.97293">
        <ele>868</ele>
        <time>2019-10-11T14:10:14.000Z</time>
      </trkpt>
      <trkpt lat="44.23862" lon="2.97293">
        <ele>868</ele>
        <time>2019-10-11T14:10:15.000Z</time>
      </trkpt>
      <trkpt lat="44.23861" lon="2.97294">
        <ele>868</ele>
        <time>2019-10-11T14:10:16.000Z</time>
      </trkpt>
      <trkpt lat="44.23859" lon="2.97294">
        <ele>868</ele>
        <time>2019-10-11T14:10:17.000Z</time>
      </trkpt>
      <trkpt lat="44.23858" lon="2.97295">
        <ele>867</ele>
        <time>2019-10-11T14:10:18.000Z</time>
      </trkpt>
      <trkpt lat="44.23856" lon="2.97295">
        <ele>867</ele>
        <time>2019-10-11T14:10:19.000Z</time>
      </trkpt>
      <trkpt lat="44.23855" lon="2.97295">
        <ele>867</ele>
        <time>2019-10-11T14:10:20.000Z</time>
      </trkpt>
      <trkpt lat="44.23853" lon="2.97295">
        <ele>867</ele>
        <time>2019-10-11T14:10:21.000Z</time>
      </trkpt>
      <trkpt lat="44.23852" lon="2.97295">
        <ele>866</ele>
        <time>2019-10-11T14:10:22.000Z</time>
      </trkpt>
      <trkpt lat="44.2385" lon="2.97295">
        <ele>866</ele>
        <time>2019-10-11T14:10:23.000Z</time>
      </trkpt>
      <trkpt lat="44.23848" lon="2.97295">
        <ele>866</ele>
        <time>2019-10-11T14:10:24.000Z</time>
      </trkpt>
      <trkpt lat="44.23847" lon="2.97295">
        <ele>866</ele>
        <time>2019-10-11T14:10:25.000Z</time>
      </trkpt>
      <trkpt lat="44.23845" lon="2.97295">
        <ele>866</ele>
        <time>2019-10-11T14:10:26.000Z</time>
      </trkpt>
      <trkpt lat="44.23844" lon="2.97294">
        <ele>865</ele>
        <time>2019-10-11T14:10:27.000Z</time>
      </trkpt>
      <trkpt lat="44.23842" lon="2.97294">
        <ele>865</ele>
        <time>2019-10-11T14:10:28.000Z</time>
      </trkpt>
      <trkpt lat="44.23841" lon="2.97293">
        <ele>865</ele>
        <time>2019-10-11T14:10:29.000Z</time>
      </trkpt>
      <trkpt lat="44.2384" lon="2.97293">
        <ele>865</ele>
        <time>2019-10-11T14:10:30.000Z</time>
      </trkpt>
      <trkpt lat="44.23838" lon="2.97292">
        <ele>865</ele>
        <time>2019-10-11T14:10:31.000Z</time>
      </trkpt>
      <trkpt lat="44.23837" lon="2.97291">
        <ele>865</ele>
        <time>2019-10-11T14:10:32.000Z</time>
      </trkpt>
      <trkpt lat="44.23836" lon="2.9729">
        <ele>864</ele>
        <time>2019-10-11T14:10:33.000Z</time>
      </trkpt>
      <trkpt lat="44.23834" lon="2.9729">
        <ele>864</ele>
        <time>2019-10-11T14:10:34.000Z</time>
      </trkpt>
      <trkpt lat="44.23833" lon="2.97289">
        <ele>864</ele>
        <time>2019-10-11T14:10:35.000Z</time>
      </trkpt>
      <trkpt lat="44.23831" lon="2.97289">
        <ele>864</ele>
        <time>2019-10-11T14:10:36.000Z</time>
      </trkpt>
      <trkpt lat="44.2383" lon="2.97288">
        <ele>864</ele>
        <time>2019-10-11T14:10:37.000Z</time>
      </trkpt>
      <trkpt lat="44.23828" lon="2.97288">
        <ele>864</ele>
        <time>2019-10-11T14:10:38.000Z</time>
      </trkpt>
      <trkpt lat="44.23827" lon="2.97287">
        <ele>864</ele>
        <time>2019-10-11T14:10:39.000Z</time>
      </trkpt>
      <trkpt lat="44.23825" lon="2.97286">
        <ele>864</ele>
        <time>2019-10-11T14:10:40.000Z</time>
      </trkpt>
      <trkpt lat="44.23823" lon="2.97285">
        <ele>863</ele>
        <time>2019-10-11T14:10:41.000Z</time>
      </trkpt>
      <trkpt lat="44.23821" lon="2.97284">
        <ele>863</ele>
        <time>2019-10-11T14:10:42.000Z</time>
      </trkpt>
      <trkpt lat="44.23818" lon="2.97283">
        <ele>863</ele>
        <time>2019-10-11T14:10:43.000Z</time>
      </trkpt>
      <trkpt lat="44.23815" lon="2.97281">
        <ele>863</ele>
        <time>2019-10-11T14:10:44.000Z</time>
      </trkpt>
      <trkpt lat="44.23812" lon="2.97279">
        <ele>863</ele>
        <time>2019-10-11T14:10:45.000Z</time>
      </trkpt>
      <trkpt lat="44.23809" lon="2.97277">
        <ele>862</ele>
        <time>2019-10-11T14:10:46.000Z</time>
      </trkpt>
      <trkpt lat="44.23805" lon="2.97274">
        <ele>862</ele>
        <time>2019-10-11T14:10:47.000Z</time>
      </trkpt>
      <trkpt lat="44.23801" lon="2.97272">
        <ele>862</ele>
        <time>2019-10-11T14:10:48.000Z</time>
      </trkpt>
      <trkpt lat="44.23797" lon="2.9727">
        <ele>862</ele>
        <time>2019-10-11T14:10:49.000Z</time>
      </trkpt>
      <trkpt lat="44.23793" lon="2.97268">
        <ele>862</ele>
        <time>2019-10-11T14:10:50.000Z</time>
      </trkpt>
      <trkpt lat="44.23789" lon="2.97265">
        <ele>861</ele>
        <time>2019-10-11T14:10:51.000Z</time>
      </trkpt>
      <trkpt lat="44.23785" lon="2.97263">
        <ele>861</ele>
        <time>2019-10-11T14:10:52.000Z</time>
      </trkpt>
      <trkpt lat="44.2378" lon="2.97261">
        <ele>861</ele>
        <time>2019-10-11T14:10:53.000Z</time>
      </trkpt>
      <trkpt lat="44.23776" lon="2.97258">
        <ele>861</ele>
        <time>2019-10-11T14:10:54.000Z</time>
      </trkpt>
      <trkpt lat="44.23772" lon="2.97257">
        <ele>861</ele>
        <time>2019-10-11T14:10:55.000Z</time>
      </trkpt>
      <trkpt lat="44.23769" lon="2.97255">
        <ele>861</ele>
        <time>2019-10-11T14:10:56.000Z</time>
      </trkpt>
      <trkpt lat="44.23765" lon="2.97254">
        <ele>861</ele>
        <time>2019-10-11T14:10:57.000Z</time>
      </trkpt>
      <trkpt lat="44.23762" lon="2.97252">
        <ele>861</ele>
        <time>2019-10-11T14:10:58.000Z</time>
      </trkpt>
      <trkpt lat="44.23759" lon="2.97251">
        <ele>861</ele>
        <time>2019-10-11T14:10:59.000Z</time>
      </trkpt>
      <trkpt lat="44.23757" lon="2.97249">
        <ele>861</ele>
        <time>2019-10-11T14:11:00.000Z</time>
      </trkpt>
      <trkpt lat="44.23756" lon="2.97248">
        <ele>861</ele>
        <time>2019-10-11T14:11:01.000Z</time>
      </trkpt>
      <trkpt lat="44.23755" lon="2.97247">
        <ele>861</ele>
        <time>2019-10-11T14:11:02.000Z</time>
      </trkpt>
      <trkpt lat="44.23753" lon="2.97246">
        <ele>860</ele>
        <time>2019-10-11T14:11:03.000Z</time>
      </trkpt>
      <trkpt lat="44.23752" lon="2.97245">
        <ele>860</ele>
        <time>2019-10-11T14:11:04.000Z</time>
      </trkpt>
      <trkpt lat="44.2375" lon="2.97244">
        <ele>860</ele>
        <time>2019-10-11T14:11:05.000Z</time>
      </trkpt>
      <trkpt lat="44.23749" lon="2.97243">
        <ele>860</ele>
        <time>2019-10-11T14:11:06.000Z</time>
      </trkpt>
      <trkpt lat="44.23747" lon="2.97242">
        <ele>860</ele>
        <time>2019-10-11T14:11:07.000Z</time>
      </trkpt>
      <trkpt lat="44.23746" lon="2.97241">
        <ele>860</ele>
        <time>2019-10-11T14:11:08.000Z</time>
      </trkpt>
      <trkpt lat="44.23745" lon="2.9724">
        <ele>860</ele>
        <time>2019-10-11T14:11:09.000Z</time>
      </trkpt>
      <trkpt lat="44.23744" lon="2.97239">
        <ele>860</ele>
        <time>2019-10-11T14:11:10.000Z</time>
      </trkpt>
      <trkpt lat="44.23743" lon="2.97238">
        <ele>860</ele>
        <time>2019-10-11T14:11:11.000Z</time>
      </trkpt>
      <trkpt lat="44.23741" lon="2.97237">
        <ele>860</ele>
        <time>2019-10-11T14:11:12.000Z</time>
      </trkpt>
      <trkpt lat="44.23739" lon="2.97236">
        <ele>860</ele>
        <time>2019-10-11T14:11:13.000Z</time>
      </trkpt>
      <trkpt lat="44.23737" lon="2.97234">
        <ele>859</ele>
        <time>2019-10-11T14:11:14.000Z</time>
      </trkpt>
      <trkpt lat="44.23734" lon="2.97231">
        <ele>859</ele>
        <time>2019-10-11T14:11:15.000Z</time>
      </trkpt>
      <trkpt lat="44.2373" lon="2.97229">
        <ele>859</ele>
        <time>2019-10-11T14:11:16.000Z</time>
      </trkpt>
      <trkpt lat="44.23727" lon="2.97227">
        <ele>859</ele>
        <time>2019-10-11T14:11:17.000Z</time>
      </trkpt>
      <trkpt lat="44.23722" lon="2.97226">
        <ele>859</ele>
        <time>2019-10-11T14:11:18.000Z</time>
      </trkpt>
      <trkpt lat="44.23718" lon="2.97226">
        <ele>859</ele>
        <time>2019-10-11T14:11:19.000Z</time>
      </trkpt>
      <trkpt lat="44.23714" lon="2.97225">
        <ele>859</ele>
        <time>2019-10-11T14:11:20.000Z</time>
      </trkpt>
      <trkpt lat="44.23709" lon="2.97226">
        <ele>859</ele>
        <time>2019-10-11T14:11:21.000Z</time>
      </trkpt>
      <trkpt lat="44.23704" lon="2.97227">
        <ele>859</ele>
        <time>2019-10-11T14:11:22.000Z</time>
      </trkpt>
      <trkpt lat="44.23699" lon="2.97229">
        <ele>859</ele>
        <time>2019-10-11T14:11:23.000Z</time>
      </trkpt>
      <trkpt lat="44.23694" lon="2.97231">
        <ele>858</ele>
        <time>2019-10-11T14:11:24.000Z</time>
      </trkpt>
      <trkpt lat="44.23689" lon="2.97233">
        <ele>858</ele>
        <time>2019-10-11T14:11:25.000Z</time>
      </trkpt>
      <trkpt lat="44.23684" lon="2.97236">
        <ele>858</ele>
        <time>2019-10-11T14:11:26.000Z</time>
      </trkpt>
      <trkpt lat="44.23679" lon="2.97238">
        <ele>858</ele>
        <time>2019-10-11T14:11:27.000Z</time>
      </trkpt>
      <trkpt lat="44.23674" lon="2.97241">
        <ele>858</ele>
        <time>2019-10-11T14:11:28.000Z</time>
      </trkpt>
      <trkpt lat="44.23669" lon="2.97243">
        <ele>858</ele>
        <time>2019-10-11T14:11:29.000Z</time>
      </trkpt>
      <trkpt lat="44.23664" lon="2.97247">
        <ele>858</ele>
        <time>2019-10-11T14:11:30.000Z</time>
      </trkpt>
      <trkpt lat="44.23659" lon="2.97249">
        <ele>858</ele>
        <time>2019-10-11T14:11:31.000Z</time>
      </trkpt>
      <trkpt lat="44.23654" lon="2.97253">
        <ele>857</ele>
        <time>2019-10-11T14:11:32.000Z</time>
      </trkpt>
      <trkpt lat="44.23649" lon="2.97256">
        <ele>857</ele>
        <time>2019-10-11T14:11:33.000Z</time>
      </trkpt>
      <trkpt lat="44.23644" lon="2.97259">
        <ele>857</ele>
        <time>2019-10-11T14:11:34.000Z</time>
      </trkpt>
      <trkpt lat="44.23639" lon="2.97262">
        <ele>857</ele>
        <time>2019-10-11T14:11:35.000Z</time>
      </trkpt>
      <trkpt lat="44.23633" lon="2.97265">
        <ele>857</ele>
        <time>2019-10-11T14:11:36.000Z</time>
      </trkpt>
      <trkpt lat="44.23628" lon="2.97268">
        <ele>857</ele>
        <time>2019-10-11T14:11:37.000Z</time>
      </trkpt>
      <trkpt lat="44.23623" lon="2.97272">
        <ele>856</ele>
        <time>2019-10-11T14:11:38.000Z</time>
      </trkpt>
      <trkpt lat="44.23618" lon="2.97275">
        <ele>856</ele>
        <time>2019-10-11T14:11:39.000Z</time>
      </trkpt>
      <trkpt lat="44.23613" lon="2.97278">
        <ele>856</ele>
        <time>2019-10-11T14:11:40.000Z</time>
      </trkpt>
      <trkpt lat="44.23608" lon="2.97282">
        <ele>856</ele>
        <time>2019-10-11T14:11:41.000Z</time>
      </trkpt>
      <trkpt lat="44.23603" lon="2.97285">
        <ele>855</ele>
        <time>2019-10-11T14:11:42.000Z</time>
      </trkpt>
      <trkpt lat="44.23598" lon="2.97289">
        <ele>855</ele>
        <time>2019-10-11T14:11:43.000Z</time>
      </trkpt>
      <trkpt lat="44.23593" lon="2.97292">
        <ele>855</ele>
        <time>2019-10-11T14:11:44.000Z</time>
      </trkpt>
      <trkpt lat="44.23588" lon="2.97296">
        <ele>855</ele>
        <time>2019-10-11T14:11:45.000Z</time>
      </trkpt>
      <trkpt lat="44.23583" lon="2.973">
        <ele>855</ele>
        <time>2019-10-11T14:11:46.000Z</time>
      </trkpt>
      <trkpt lat="44.23578" lon="2.97303">
        <ele>855</ele>
        <time>2019-10-11T14:11:47.000Z</time>
      </trkpt>
      <trkpt lat="44.23573" lon="2.97307">
        <ele>854</ele>
        <time>2019-10-11T14:11:48.000Z</time>
      </trkpt>
      <trkpt lat="44.23568" lon="2.9731">
        <ele>854</ele>
        <time>2019-10-11T14:11:49.000Z</time>
      </trkpt>
      <trkpt lat="44.23563" lon="2.97313">
        <ele>854</ele>
        <time>2019-10-11T14:11:50.000Z</time>
      </trkpt>
      <trkpt lat="44.23558" lon="2.97316">
        <ele>854</ele>
        <time>2019-10-11T14:11:51.000Z</time>
      </trkpt>
      <trkpt lat="44.23553" lon="2.97319">
        <ele>853</ele>
        <time>2019-10-11T14:11:52.000Z</time>
      </trkpt>
      <trkpt lat="44.23548" lon="2.97322">
        <ele>853</ele>
        <time>2019-10-11T14:11:53.000Z</time>
      </trkpt>
      <trkpt lat="44.23543" lon="2.97324">
        <ele>853</ele>
        <time>2019-10-11T14:11:54.000Z</time>
      </trkpt>
      <trkpt lat="44.23538" lon="2.97326">
        <ele>853</ele>
        <time>2019-10-11T14:11:55.000Z</time>
      </trkpt>
      <trkpt lat="44.23533" lon="2.97328">
        <ele>852</ele>
        <time>2019-10-11T14:11:56.000Z</time>
      </trkpt>
      <trkpt lat="44.23529" lon="2.9733">
        <ele>852</ele>
        <time>2019-10-11T14:11:57.000Z</time>
      </trkpt>
      <trkpt lat="44.23524" lon="2.97331">
        <ele>852</ele>
        <time>2019-10-11T14:11:58.000Z</time>
      </trkpt>
      <trkpt lat="44.23519" lon="2.97333">
        <ele>852</ele>
        <time>2019-10-11T14:11:59.000Z</time>
      </trkpt>
      <trkpt lat="44.23515" lon="2.97334">
        <ele>852</ele>
        <time>2019-10-11T14:12:00.000Z</time>
      </trkpt>
      <trkpt lat="44.2351" lon="2.97336">
        <ele>851</ele>
        <time>2019-10-11T14:12:01.000Z</time>
      </trkpt>
      <trkpt lat="44.23506" lon="2.97337">
        <ele>851</ele>
        <time>2019-10-11T14:12:02.000Z</time>
      </trkpt>
      <trkpt lat="44.23501" lon="2.97339">
        <ele>851</ele>
        <time>2019-10-11T14:12:03.000Z</time>
      </trkpt>
      <trkpt lat="44.23497" lon="2.97341">
        <ele>851</ele>
        <time>2019-10-11T14:12:04.000Z</time>
      </trkpt>
      <trkpt lat="44.23492" lon="2.97342">
        <ele>851</ele>
        <time>2019-10-11T14:12:05.000Z</time>
      </trkpt>
      <trkpt lat="44.23487" lon="2.97343">
        <ele>850</ele>
        <time>2019-10-11T14:12:06.000Z</time>
      </trkpt>
      <trkpt lat="44.23482" lon="2.97344">
        <ele>850</ele>
        <time>2019-10-11T14:12:07.000Z</time>
      </trkpt>
      <trkpt lat="44.23476" lon="2.97345">
        <ele>850</ele>
        <time>2019-10-11T14:12:08.000Z</time>
      </trkpt>
      <trkpt lat="44.23471" lon="2.97345">
        <ele>850</ele>
        <time>2019-10-11T14:12:09.000Z</time>
      </trkpt>
      <trkpt lat="44.23465" lon="2.97345">
        <ele>849</ele>
        <time>2019-10-11T14:12:10.000Z</time>
      </trkpt>
      <trkpt lat="44.2346" lon="2.97345">
        <ele>849</ele>
        <time>2019-10-11T14:12:11.000Z</time>
      </trkpt>
      <trkpt lat="44.23454" lon="2.97345">
        <ele>849</ele>
        <time>2019-10-11T14:12:12.000Z</time>
      </trkpt>
      <trkpt lat="44.23448" lon="2.97346">
        <ele>849</ele>
        <time>2019-10-11T14:12:13.000Z</time>
      </trkpt>
      <trkpt lat="44.23442" lon="2.97345">
        <ele>848</ele>
        <time>2019-10-11T14:12:14.000Z</time>
      </trkpt>
      <trkpt lat="44.23437" lon="2.97345">
        <ele>848</ele>
        <time>2019-10-11T14:12:15.000Z</time>
      </trkpt>
      <trkpt lat="44.23431" lon="2.97345">
        <ele>848</ele>
        <time>2019-10-11T14:12:16.000Z</time>
      </trkpt>
      <trkpt lat="44.23425" lon="2.97345">
        <ele>847</ele>
        <time>2019-10-11T14:12:17.000Z</time>
      </trkpt>
      <trkpt lat="44.23419" lon="2.97345">
        <ele>847</ele>
        <time>2019-10-11T14:12:18.000Z</time>
      </trkpt>
      <trkpt lat="44.23413" lon="2.97346">
        <ele>847</ele>
        <time>2019-10-11T14:12:19.000Z</time>
      </trkpt>
      <trkpt lat="44.23408" lon="2.97346">
        <ele>847</ele>
        <time>2019-10-11T14:12:20.000Z</time>
      </trkpt>
      <trkpt lat="44.23402" lon="2.97346">
        <ele>846</ele>
        <time>2019-10-11T14:12:21.000Z</time>
      </trkpt>
      <trkpt lat="44.23397" lon="2.97346">
        <ele>846</ele>
        <time>2019-10-11T14:12:22.000Z</time>
      </trkpt>
      <trkpt lat="44.23391" lon="2.97346">
        <ele>846</ele>
        <time>2019-10-11T14:12:23.000Z</time>
      </trkpt>
      <trkpt lat="44.23386" lon="2.97346">
        <ele>846</ele>
        <time>2019-10-11T14:12:24.000Z</time>
      </trkpt>
      <trkpt lat="44.23381" lon="2.97346">
        <ele>846</ele>
        <time>2019-10-11T14:12:25.000Z</time>
      </trkpt>
      <trkpt lat="44.23376" lon="2.97346">
        <ele>846</ele>
        <time>2019-10-11T14:12:26.000Z</time>
      </trkpt>
      <trkpt lat="44.23371" lon="2.97345">
        <ele>846</ele>
        <time>2019-10-11T14:12:27.000Z</time>
      </trkpt>
      <trkpt lat="44.23366" lon="2.97345">
        <ele>846</ele>
        <time>2019-10-11T14:12:28.000Z</time>
      </trkpt>
      <trkpt lat="44.23361" lon="2.97345">
        <ele>846</ele>
        <time>2019-10-11T14:12:29.000Z</time>
      </trkpt>
      <trkpt lat="44.23357" lon="2.97345">
        <ele>845</ele>
        <time>2019-10-11T14:12:30.000Z</time>
      </trkpt>
      <trkpt lat="44.23353" lon="2.97345">
        <ele>845</ele>
        <time>2019-10-11T14:12:31.000Z</time>
      </trkpt>
      <trkpt lat="44.23349" lon="2.97346">
        <ele>845</ele>
        <time>2019-10-11T14:12:32.000Z</time>
      </trkpt>
      <trkpt lat="44.23345" lon="2.97346">
        <ele>845</ele>
        <time>2019-10-11T14:12:33.000Z</time>
      </trkpt>
      <trkpt lat="44.23342" lon="2.97346">
        <ele>845</ele>
        <time>2019-10-11T14:12:34.000Z</time>
      </trkpt>
      <trkpt lat="44.23338" lon="2.97346">
        <ele>845</ele>
        <time>2019-10-11T14:12:35.000Z</time>
      </trkpt>
      <trkpt lat="44.23334" lon="2.97346">
        <ele>845</ele>
        <time>2019-10-11T14:12:36.000Z</time>
      </trkpt>
      <trkpt lat="44.23331" lon="2.97346">
        <ele>845</ele>
        <time>2019-10-11T14:12:37.000Z</time>
      </trkpt>
      <trkpt lat="44.23328" lon="2.97346">
        <ele>845</ele>
        <time>2019-10-11T14:12:38.000Z</time>
      </trkpt>
      <trkpt lat="44.23325" lon="2.97346">
        <ele>845</ele>
        <time>2019-10-11T14:12:39.000Z</time>
      </trkpt>
      <trkpt lat="44.23323" lon="2.97346">
        <ele>845</ele>
        <time>2019-10-11T14:12:40.000Z</time>
      </trkpt>
      <trkpt lat="44.23321" lon="2.97346">
        <ele>845</ele>
        <time>2019-10-11T14:12:41.000Z</time>
      </trkpt>
      <trkpt lat="44.23319" lon="2.97346">
        <ele>845</ele>
        <time>2019-10-11T14:12:42.000Z</time>
      </trkpt>
      <trkpt lat="44.23317" lon="2.97347">
        <ele>845</ele>
        <time>2019-10-11T14:12:43.000Z</time>
      </trkpt>
      <trkpt lat="44.23316" lon="2.97347">
        <ele>845</ele>
        <time>2019-10-11T14:12:44.000Z</time>
      </trkpt>
      <trkpt lat="44.23314" lon="2.97348">
        <ele>845</ele>
        <time>2019-10-11T14:12:45.000Z</time>
      </trkpt>
      <trkpt lat="44.23312" lon="2.97348">
        <ele>845</ele>
        <time>2019-10-11T14:12:46.000Z</time>
      </trkpt>
      <trkpt lat="44.23311" lon="2.97349">
        <ele>845</ele>
        <time>2019-10-11T14:12:47.000Z</time>
      </trkpt>
      <trkpt lat="44.2331" lon="2.9735">
        <ele>845</ele>
        <time>2019-10-11T14:12:48.000Z</time>
      </trkpt>
      <trkpt lat="44.23308" lon="2.97351">
        <ele>845</ele>
        <time>2019-10-11T14:12:49.000Z</time>
      </trkpt>
      <trkpt lat="44.23307" lon="2.97352">
        <ele>844</ele>
        <time>2019-10-11T14:12:50.000Z</time>
      </trkpt>
      <trkpt lat="44.23306" lon="2.97353">
        <ele>844</ele>
        <time>2019-10-11T14:12:51.000Z</time>
      </trkpt>
      <trkpt lat="44.23304" lon="2.97354">
        <ele>844</ele>
        <time>2019-10-11T14:12:52.000Z</time>
      </trkpt>
      <trkpt lat="44.23303" lon="2.97355">
        <ele>844</ele>
        <time>2019-10-11T14:12:53.000Z</time>
      </trkpt>
      <trkpt lat="44.23301" lon="2.97356">
        <ele>844</ele>
        <time>2019-10-11T14:12:54.000Z</time>
      </trkpt>
      <trkpt lat="44.23299" lon="2.97357">
        <ele>844</ele>
        <time>2019-10-11T14:12:55.000Z</time>
      </trkpt>
      <trkpt lat="44.23298" lon="2.97357">
        <ele>844</ele>
        <time>2019-10-11T14:12:56.000Z</time>
      </trkpt>
      <trkpt lat="44.23296" lon="2.97358">
        <ele>844</ele>
        <time>2019-10-11T14:12:57.000Z</time>
      </trkpt>
      <trkpt lat="44.23295" lon="2.9736">
        <ele>843</ele>
        <time>2019-10-11T14:12:58.000Z</time>
      </trkpt>
      <trkpt lat="44.23293" lon="2.97361">
        <ele>843</ele>
        <time>2019-10-11T14:12:59.000Z</time>
      </trkpt>
      <trkpt lat="44.23292" lon="2.97362">
        <ele>843</ele>
        <time>2019-10-11T14:13:00.000Z</time>
      </trkpt>
      <trkpt lat="44.23291" lon="2.97363">
        <ele>843</ele>
        <time>2019-10-11T14:13:01.000Z</time>
      </trkpt>
      <trkpt lat="44.23289" lon="2.97365">
        <ele>843</ele>
        <time>2019-10-11T14:13:02.000Z</time>
      </trkpt>
      <trkpt lat="44.23288" lon="2.97366">
        <ele>843</ele>
        <time>2019-10-11T14:13:03.000Z</time>
      </trkpt>
      <trkpt lat="44.23287" lon="2.97367">
        <ele>842</ele>
        <time>2019-10-11T14:13:04.000Z</time>
      </trkpt>
      <trkpt lat="44.23285" lon="2.97369">
        <ele>842</ele>
        <time>2019-10-11T14:13:05.000Z</time>
      </trkpt>
      <trkpt lat="44.23284" lon="2.9737">
        <ele>842</ele>
        <time>2019-10-11T14:13:06.000Z</time>
      </trkpt>
      <trkpt lat="44.23283" lon="2.97371">
        <ele>842</ele>
        <time>2019-10-11T14:13:07.000Z</time>
      </trkpt>
      <trkpt lat="44.23281" lon="2.97372">
        <ele>842</ele>
        <time>2019-10-11T14:13:08.000Z</time>
      </trkpt>
      <trkpt lat="44.2328" lon="2.97373">
        <ele>842</ele>
        <time>2019-10-11T14:13:09.000Z</time>
      </trkpt>
      <trkpt lat="44.23279" lon="2.97374">
        <ele>842</ele>
        <time>2019-10-11T14:13:10.000Z</time>
      </trkpt>
      <trkpt lat="44.23278" lon="2.97375">
        <ele>842</ele>
        <time>2019-10-11T14:13:11.000Z</time>
      </trkpt>
      <trkpt lat="44.23277" lon="2.97376">
        <ele>842</ele>
        <time>2019-10-11T14:13:12.000Z</time>
      </trkpt>
      <trkpt lat="44.23276" lon="2.97378">
        <ele>841</ele>
        <time>2019-10-11T14:13:13.000Z</time>
      </trkpt>
      <trkpt lat="44.23274" lon="2.9738">
        <ele>841</ele>
        <time>2019-10-11T14:13:14.000Z</time>
      </trkpt>
      <trkpt lat="44.23273" lon="2.97381">
        <ele>841</ele>
        <time>2019-10-11T14:13:15.000Z</time>
      </trkpt>
      <trkpt lat="44.23272" lon="2.97382">
        <ele>841</ele>
        <time>2019-10-11T14:13:16.000Z</time>
      </trkpt>
      <trkpt lat="44.23271" lon="2.97384">
        <ele>841</ele>
        <time>2019-10-11T14:13:17.000Z</time>
      </trkpt>
      <trkpt lat="44.2327" lon="2.97385">
        <ele>840</ele>
        <time>2019-10-11T14:13:18.000Z</time>
      </trkpt>
      <trkpt lat="44.23269" lon="2.97386">
        <ele>840</ele>
        <time>2019-10-11T14:13:19.000Z</time>
      </trkpt>
      <trkpt lat="44.23268" lon="2.97388">
        <ele>840</ele>
        <time>2019-10-11T14:13:20.000Z</time>
      </trkpt>
      <trkpt lat="44.23267" lon="2.97389">
        <ele>840</ele>
        <time>2019-10-11T14:13:21.000Z</time>
      </trkpt>
      <trkpt lat="44.23266" lon="2.97391">
        <ele>840</ele>
        <time>2019-10-11T14:13:22.000Z</time>
      </trkpt>
      <trkpt lat="44.23265" lon="2.97392">
        <ele>840</ele>
        <time>2019-10-11T14:13:23.000Z</time>
      </trkpt>
      <trkpt lat="44.23264" lon="2.97393">
        <ele>839</ele>
        <time>2019-10-11T14:13:24.000Z</time>
      </trkpt>
      <trkpt lat="44.23264" lon="2.97393">
        <ele>839</ele>
        <time>2019-10-11T14:13:25.000Z</time>
      </trkpt>
      <trkpt lat="44.23264" lon="2.97393">
        <ele>839</ele>
        <time>2019-10-11T14:13:26.000Z</time>
      </trkpt>
      <trkpt lat="44.23263" lon="2.97392">
        <ele>839</ele>
        <time>2019-10-11T14:13:27.000Z</time>
      </trkpt>
      <trkpt lat="44.23262" lon="2.97391">
        <ele>839</ele>
        <time>2019-10-11T14:13:28.000Z</time>
      </trkpt>
      <trkpt lat="44.23262" lon="2.97391">
        <ele>839</ele>
        <time>2019-10-11T14:13:29.000Z</time>
      </trkpt>
      <trkpt lat="44.2326" lon="2.97391">
        <ele>839</ele>
        <time>2019-10-11T14:13:30.000Z</time>
      </trkpt>
      <trkpt lat="44.23259" lon="2.97391">
        <ele>839</ele>
        <time>2019-10-11T14:13:31.000Z</time>
      </trkpt>
      <trkpt lat="44.23258" lon="2.97392">
        <ele>839</ele>
        <time>2019-10-11T14:13:32.000Z</time>
      </trkpt>
      <trkpt lat="44.23256" lon="2.97393">
        <ele>840</ele>
        <time>2019-10-11T14:13:33.000Z</time>
      </trkpt>
      <trkpt lat="44.23255" lon="2.97394">
        <ele>840</ele>
        <time>2019-10-11T14:13:34.000Z</time>
      </trkpt>
      <trkpt lat="44.23253" lon="2.97394">
        <ele>840</ele>
        <time>2019-10-11T14:13:35.000Z</time>
      </trkpt>
      <trkpt lat="44.23252" lon="2.97396">
        <ele>840</ele>
        <time>2019-10-11T14:13:36.000Z</time>
      </trkpt>
      <trkpt lat="44.2325" lon="2.97397">
        <ele>840</ele>
        <time>2019-10-11T14:13:37.000Z</time>
      </trkpt>
      <trkpt lat="44.23249" lon="2.97398">
        <ele>840</ele>
        <time>2019-10-11T14:13:38.000Z</time>
      </trkpt>
      <trkpt lat="44.23247" lon="2.97399">
        <ele>840</ele>
        <time>2019-10-11T14:13:39.000Z</time>
      </trkpt>
      <trkpt lat="44.23246" lon="2.974">
        <ele>840</ele>
        <time>2019-10-11T14:13:40.000Z</time>
      </trkpt>
      <trkpt lat="44.23244" lon="2.97401">
        <ele>840</ele>
        <time>2019-10-11T14:13:41.000Z</time>
      </trkpt>
      <trkpt lat="44.23242" lon="2.97402">
        <ele>840</ele>
        <time>2019-10-11T14:13:42.000Z</time>
      </trkpt>
      <trkpt lat="44.2324" lon="2.97403">
        <ele>840</ele>
        <time>2019-10-11T14:13:43.000Z</time>
      </trkpt>
      <trkpt lat="44.23238" lon="2.97403">
        <ele>840</ele>
        <time>2019-10-11T14:13:44.000Z</time>
      </trkpt>
      <trkpt lat="44.23237" lon="2.97404">
        <ele>841</ele>
        <time>2019-10-11T14:13:45.000Z</time>
      </trkpt>
      <trkpt lat="44.23235" lon="2.97405">
        <ele>841</ele>
        <time>2019-10-11T14:13:46.000Z</time>
      </trkpt>
      <trkpt lat="44.23233" lon="2.97405">
        <ele>841</ele>
        <time>2019-10-11T14:13:47.000Z</time>
      </trkpt>
      <trkpt lat="44.23232" lon="2.97406">
        <ele>841</ele>
        <time>2019-10-11T14:13:48.000Z</time>
      </trkpt>
      <trkpt lat="44.2323" lon="2.97406">
        <ele>841</ele>
        <time>2019-10-11T14:13:49.000Z</time>
      </trkpt>
      <trkpt lat="44.23229" lon="2.97406">
        <ele>841</ele>
        <time>2019-10-11T14:13:50.000Z</time>
      </trkpt>
      <trkpt lat="44.23227" lon="2.97406">
        <ele>841</ele>
        <time>2019-10-11T14:13:51.000Z</time>
      </trkpt>
      <trkpt lat="44.23225" lon="2.97406">
        <ele>842</ele>
        <time>2019-10-11T14:13:52.000Z</time>
      </trkpt>
      <trkpt lat="44.23224" lon="2.97406">
        <ele>842</ele>
        <time>2019-10-11T14:13:53.000Z</time>
      </trkpt>
      <trkpt lat="44.23222" lon="2.97406">
        <ele>842</ele>
        <time>2019-10-11T14:13:54.000Z</time>
      </trkpt>
      <trkpt lat="44.2322" lon="2.97407">
        <ele>842</ele>
        <time>2019-10-11T14:13:55.000Z</time>
      </trkpt>
      <trkpt lat="44.23219" lon="2.97407">
        <ele>843</ele>
        <time>2019-10-11T14:13:56.000Z</time>
      </trkpt>
      <trkpt lat="44.23217" lon="2.97407">
        <ele>843</ele>
        <time>2019-10-11T14:13:57.000Z</time>
      </trkpt>
      <trkpt lat="44.23216" lon="2.97407">
        <ele>843</ele>
        <time>2019-10-11T14:13:58.000Z</time>
      </trkpt>
      <trkpt lat="44.23214" lon="2.97408">
        <ele>843</ele>
        <time>2019-10-11T14:13:59.000Z</time>
      </trkpt>
      <trkpt lat="44.23213" lon="2.97408">
        <ele>844</ele>
        <time>2019-10-11T14:14:00.000Z</time>
      </trkpt>
      <trkpt lat="44.23211" lon="2.97408">
        <ele>844</ele>
        <time>2019-10-11T14:14:01.000Z</time>
      </trkpt>
      <trkpt lat="44.2321" lon="2.97408">
        <ele>844</ele>
        <time>2019-10-11T14:14:02.000Z</time>
      </trkpt>
      <trkpt lat="44.23209" lon="2.97408">
        <ele>844</ele>
        <time>2019-10-11T14:14:03.000Z</time>
      </trkpt>
      <trkpt lat="44.23207" lon="2.97408">
        <ele>844</ele>
        <time>2019-10-11T14:14:04.000Z</time>
      </trkpt>
      <trkpt lat="44.23206" lon="2.97408">
        <ele>844</ele>
        <time>2019-10-11T14:14:05.000Z</time>
      </trkpt>
      <trkpt lat="44.23204" lon="2.97409">
        <ele>845</ele>
        <time>2019-10-11T14:14:06.000Z</time>
      </trkpt>
      <trkpt lat="44.23203" lon="2.97409">
        <ele>845</ele>
        <time>2019-10-11T14:14:07.000Z</time>
      </trkpt>
      <trkpt lat="44.23201" lon="2.97409">
        <ele>845</ele>
        <time>2019-10-11T14:14:08.000Z</time>
      </trkpt>
      <trkpt lat="44.232" lon="2.9741">
        <ele>845</ele>
        <time>2019-10-11T14:14:09.000Z</time>
      </trkpt>
      <trkpt lat="44.23198" lon="2.9741">
        <ele>845</ele>
        <time>2019-10-11T14:14:10.000Z</time>
      </trkpt>
      <trkpt lat="44.23197" lon="2.9741">
        <ele>845</ele>
        <time>2019-10-11T14:14:11.000Z</time>
      </trkpt>
      <trkpt lat="44.23195" lon="2.97411">
        <ele>845</ele>
        <time>2019-10-11T14:14:12.000Z</time>
      </trkpt>
      <trkpt lat="44.23194" lon="2.97411">
        <ele>846</ele>
        <time>2019-10-11T14:14:13.000Z</time>
      </trkpt>
      <trkpt lat="44.23192" lon="2.97411">
        <ele>846</ele>
        <time>2019-10-11T14:14:14.000Z</time>
      </trkpt>
      <trkpt lat="44.23191" lon="2.97411">
        <ele>846</ele>
        <time>2019-10-11T14:14:15.000Z</time>
      </trkpt>
      <trkpt lat="44.23189" lon="2.97411">
        <ele>845</ele>
        <time>2019-10-11T14:14:16.000Z</time>
      </trkpt>
      <trkpt lat="44.23188" lon="2.97412">
        <ele>845</ele>
        <time>2019-10-11T14:14:17.000Z</time>
      </trkpt>
      <trkpt lat="44.23186" lon="2.97412">
        <ele>845</ele>
        <time>2019-10-11T14:14:18.000Z</time>
      </trkpt>
      <trkpt lat="44.23185" lon="2.97411">
        <ele>845</ele>
        <time>2019-10-11T14:14:19.000Z</time>
      </trkpt>
      <trkpt lat="44.23184" lon="2.97411">
        <ele>845</ele>
        <time>2019-10-11T14:14:20.000Z</time>
      </trkpt>
      <trkpt lat="44.23182" lon="2.97411">
        <ele>845</ele>
        <time>2019-10-11T14:14:21.000Z</time>
      </trkpt>
      <trkpt lat="44.23182" lon="2.97411">
        <ele>845</ele>
        <time>2019-10-11T14:14:22.000Z</time>
      </trkpt>
      <trkpt lat="44.23182" lon="2.97411">
        <ele>845</ele>
        <time>2019-10-11T14:14:23.000Z</time>
      </trkpt>
      <trkpt lat="44.23181" lon="2.97411">
        <ele>845</ele>
        <time>2019-10-11T14:14:24.000Z</time>
      </trkpt>
      <trkpt lat="44.2318" lon="2.97411">
        <ele>845</ele>
        <time>2019-10-11T14:14:25.000Z</time>
      </trkpt>
      <trkpt lat="44.23178" lon="2.97411">
        <ele>845</ele>
        <time>2019-10-11T14:14:26.000Z</time>
      </trkpt>
      <trkpt lat="44.23176" lon="2.97411">
        <ele>845</ele>
        <time>2019-10-11T14:14:27.000Z</time>
      </trkpt>
      <trkpt lat="44.23175" lon="2.97412">
        <ele>845</ele>
        <time>2019-10-11T14:14:28.000Z</time>
      </trkpt>
      <trkpt lat="44.23173" lon="2.97412">
        <ele>845</ele>
        <time>2019-10-11T14:14:29.000Z</time>
      </trkpt>
      <trkpt lat="44.23172" lon="2.97413">
        <ele>844</ele>
        <time>2019-10-11T14:14:30.000Z</time>
      </trkpt>
      <trkpt lat="44.2317" lon="2.97413">
        <ele>844</ele>
        <time>2019-10-11T14:14:31.000Z</time>
      </trkpt>
      <trkpt lat="44.23168" lon="2.97413">
        <ele>844</ele>
        <time>2019-10-11T14:14:32.000Z</time>
      </trkpt>
      <trkpt lat="44.23167" lon="2.97412">
        <ele>843</ele>
        <time>2019-10-11T14:14:33.000Z</time>
      </trkpt>
      <trkpt lat="44.23165" lon="2.97412">
        <ele>843</ele>
        <time>2019-10-11T14:14:34.000Z</time>
      </trkpt>
      <trkpt lat="44.23163" lon="2.97412">
        <ele>843</ele>
        <time>2019-10-11T14:14:35.000Z</time>
      </trkpt>
      <trkpt lat="44.23162" lon="2.97411">
        <ele>842</ele>
        <time>2019-10-11T14:14:36.000Z</time>
      </trkpt>
      <trkpt lat="44.23161" lon="2.9741">
        <ele>842</ele>
        <time>2019-10-11T14:14:37.000Z</time>
      </trkpt>
      <trkpt lat="44.23159" lon="2.9741">
        <ele>842</ele>
        <time>2019-10-11T14:14:38.000Z</time>
      </trkpt>
      <trkpt lat="44.23158" lon="2.9741">
        <ele>841</ele>
        <time>2019-10-11T14:14:39.000Z</time>
      </trkpt>
      <trkpt lat="44.23156" lon="2.9741">
        <ele>841</ele>
        <time>2019-10-11T14:14:40.000Z</time>
      </trkpt>
      <trkpt lat="44.23155" lon="2.97409">
        <ele>841</ele>
        <time>2019-10-11T14:14:41.000Z</time>
      </trkpt>
      <trkpt lat="44.23153" lon="2.97408">
        <ele>840</ele>
        <time>2019-10-11T14:14:42.000Z</time>
      </trkpt>
      <trkpt lat="44.23151" lon="2.97408">
        <ele>840</ele>
        <time>2019-10-11T14:14:43.000Z</time>
      </trkpt>
      <trkpt lat="44.23149" lon="2.97408">
        <ele>840</ele>
        <time>2019-10-11T14:14:44.000Z</time>
      </trkpt>
      <trkpt lat="44.23148" lon="2.97407">
        <ele>840</ele>
        <time>2019-10-11T14:14:45.000Z</time>
      </trkpt>
      <trkpt lat="44.23146" lon="2.97407">
        <ele>839</ele>
        <time>2019-10-11T14:14:46.000Z</time>
      </trkpt>
      <trkpt lat="44.23145" lon="2.97407">
        <ele>839</ele>
        <time>2019-10-11T14:14:47.000Z</time>
      </trkpt>
      <trkpt lat="44.23144" lon="2.97406">
        <ele>839</ele>
        <time>2019-10-11T14:14:48.000Z</time>
      </trkpt>
      <trkpt lat="44.23142" lon="2.97406">
        <ele>838</ele>
        <time>2019-10-11T14:14:49.000Z</time>
      </trkpt>
      <trkpt lat="44.2314" lon="2.97406">
        <ele>838</ele>
        <time>2019-10-11T14:14:50.000Z</time>
      </trkpt>
      <trkpt lat="44.23139" lon="2.97406">
        <ele>838</ele>
        <time>2019-10-11T14:14:51.000Z</time>
      </trkpt>
      <trkpt lat="44.23137" lon="2.97406">
        <ele>837</ele>
        <time>2019-10-11T14:14:52.000Z</time>
      </trkpt>
      <trkpt lat="44.23136" lon="2.97406">
        <ele>837</ele>
        <time>2019-10-11T14:14:53.000Z</time>
      </trkpt>
      <trkpt lat="44.23135" lon="2.97406">
        <ele>836</ele>
        <time>2019-10-11T14:14:54.000Z</time>
      </trkpt>
      <trkpt lat="44.23133" lon="2.97406">
        <ele>836</ele>
        <time>2019-10-11T14:14:55.000Z</time>
      </trkpt>
      <trkpt lat="44.23131" lon="2.97406">
        <ele>835</ele>
        <time>2019-10-11T14:14:56.000Z</time>
      </trkpt>
      <trkpt lat="44.2313" lon="2.97406">
        <ele>835</ele>
        <time>2019-10-11T14:14:57.000Z</time>
      </trkpt>
      <trkpt lat="44.23128" lon="2.97406">
        <ele>835</ele>
        <time>2019-10-11T14:14:58.000Z</time>
      </trkpt>
      <trkpt lat="44.23127" lon="2.97406">
        <ele>834</ele>
        <time>2019-10-11T14:14:59.000Z</time>
      </trkpt>
      <trkpt lat="44.23125" lon="2.97407">
        <ele>834</ele>
        <time>2019-10-11T14:15:00.000Z</time>
      </trkpt>
      <trkpt lat="44.23124" lon="2.97407">
        <ele>834</ele>
        <time>2019-10-11T14:15:01.000Z</time>
      </trkpt>
      <trkpt lat="44.23122" lon="2.97407">
        <ele>833</ele>
        <time>2019-10-11T14:15:02.000Z</time>
      </trkpt>
      <trkpt lat="44.23121" lon="2.97407">
        <ele>833</ele>
        <time>2019-10-11T14:15:03.000Z</time>
      </trkpt>
      <trkpt lat="44.23119" lon="2.97407">
        <ele>833</ele>
        <time>2019-10-11T14:15:04.000Z</time>
      </trkpt>
      <trkpt lat="44.23118" lon="2.97407">
        <ele>833</ele>
        <time>2019-10-11T14:15:05.000Z</time>
      </trkpt>
      <trkpt lat="44.23116" lon="2.97407">
        <ele>832</ele>
        <time>2019-10-11T14:15:06.000Z</time>
      </trkpt>
      <trkpt lat="44.23115" lon="2.97407">
        <ele>832</ele>
        <time>2019-10-11T14:15:07.000Z</time>
      </trkpt>
      <trkpt lat="44.23113" lon="2.97407">
        <ele>832</ele>
        <time>2019-10-11T14:15:08.000Z</time>
      </trkpt>
      <trkpt lat="44.23112" lon="2.97408">
        <ele>832</ele>
        <time>2019-10-11T14:15:09.000Z</time>
      </trkpt>
      <trkpt lat="44.2311" lon="2.97408">
        <ele>832</ele>
        <time>2019-10-11T14:15:10.000Z</time>
      </trkpt>
      <trkpt lat="44.23108" lon="2.97409">
        <ele>832</ele>
        <time>2019-10-11T14:15:11.000Z</time>
      </trkpt>
      <trkpt lat="44.23107" lon="2.97409">
        <ele>832</ele>
        <time>2019-10-11T14:15:12.000Z</time>
      </trkpt>
      <trkpt lat="44.23106" lon="2.9741">
        <ele>832</ele>
        <time>2019-10-11T14:15:13.000Z</time>
      </trkpt>
      <trkpt lat="44.23104" lon="2.97411">
        <ele>832</ele>
        <time>2019-10-11T14:15:14.000Z</time>
      </trkpt>
      <trkpt lat="44.23103" lon="2.97411">
        <ele>832</ele>
        <time>2019-10-11T14:15:15.000Z</time>
      </trkpt>
      <trkpt lat="44.23102" lon="2.97412">
        <ele>832</ele>
        <time>2019-10-11T14:15:16.000Z</time>
      </trkpt>
      <trkpt lat="44.23101" lon="2.97413">
        <ele>832</ele>
        <time>2019-10-11T14:15:17.000Z</time>
      </trkpt>
      <trkpt lat="44.231" lon="2.97414">
        <ele>832</ele>
        <time>2019-10-11T14:15:18.000Z</time>
      </trkpt>
      <trkpt lat="44.23098" lon="2.97415">
        <ele>832</ele>
        <time>2019-10-11T14:15:19.000Z</time>
      </trkpt>
      <trkpt lat="44.23096" lon="2.97415">
        <ele>832</ele>
        <time>2019-10-11T14:15:20.000Z</time>
      </trkpt>
      <trkpt lat="44.23095" lon="2.97417">
        <ele>831</ele>
        <time>2019-10-11T14:15:21.000Z</time>
      </trkpt>
      <trkpt lat="44.23093" lon="2.97418">
        <ele>831</ele>
        <time>2019-10-11T14:15:22.000Z</time>
      </trkpt>
      <trkpt lat="44.23092" lon="2.97419">
        <ele>831</ele>
        <time>2019-10-11T14:15:23.000Z</time>
      </trkpt>
      <trkpt lat="44.23091" lon="2.9742">
        <ele>831</ele>
        <time>2019-10-11T14:15:24.000Z</time>
      </trkpt>
      <trkpt lat="44.2309" lon="2.97422">
        <ele>831</ele>
        <time>2019-10-11T14:15:25.000Z</time>
      </trkpt>
      <trkpt lat="44.23089" lon="2.97423">
        <ele>831</ele>
        <time>2019-10-11T14:15:26.000Z</time>
      </trkpt>
      <trkpt lat="44.23088" lon="2.97425">
        <ele>831</ele>
        <time>2019-10-11T14:15:27.000Z</time>
      </trkpt>
      <trkpt lat="44.23087" lon="2.97426">
        <ele>830</ele>
        <time>2019-10-11T14:15:28.000Z</time>
      </trkpt>
      <trkpt lat="44.23085" lon="2.97427">
        <ele>830</ele>
        <time>2019-10-11T14:15:29.000Z</time>
      </trkpt>
      <trkpt lat="44.23084" lon="2.97429">
        <ele>830</ele>
        <time>2019-10-11T14:15:30.000Z</time>
      </trkpt>
      <trkpt lat="44.23083" lon="2.9743">
        <ele>830</ele>
        <time>2019-10-11T14:15:31.000Z</time>
      </trkpt>
      <trkpt lat="44.23082" lon="2.97432">
        <ele>830</ele>
        <time>2019-10-11T14:15:32.000Z</time>
      </trkpt>
      <trkpt lat="44.23081" lon="2.97433">
        <ele>830</ele>
        <time>2019-10-11T14:15:33.000Z</time>
      </trkpt>
      <trkpt lat="44.23079" lon="2.97434">
        <ele>829</ele>
        <time>2019-10-11T14:15:34.000Z</time>
      </trkpt>
      <trkpt lat="44.23078" lon="2.97435">
        <ele>829</ele>
        <time>2019-10-11T14:15:35.000Z</time>
      </trkpt>
      <trkpt lat="44.23076" lon="2.97436">
        <ele>829</ele>
        <time>2019-10-11T14:15:36.000Z</time>
      </trkpt>
      <trkpt lat="44.23075" lon="2.97436">
        <ele>829</ele>
        <time>2019-10-11T14:15:37.000Z</time>
      </trkpt>
      <trkpt lat="44.23073" lon="2.97437">
        <ele>828</ele>
        <time>2019-10-11T14:15:38.000Z</time>
      </trkpt>
      <trkpt lat="44.23072" lon="2.97438">
        <ele>828</ele>
        <time>2019-10-11T14:15:39.000Z</time>
      </trkpt>
      <trkpt lat="44.2307" lon="2.97438">
        <ele>827</ele>
        <time>2019-10-11T14:15:40.000Z</time>
      </trkpt>
      <trkpt lat="44.23069" lon="2.97438">
        <ele>827</ele>
        <time>2019-10-11T14:15:41.000Z</time>
      </trkpt>
      <trkpt lat="44.23067" lon="2.97439">
        <ele>827</ele>
        <time>2019-10-11T14:15:42.000Z</time>
      </trkpt>
      <trkpt lat="44.23066" lon="2.97439">
        <ele>826</ele>
        <time>2019-10-11T14:15:43.000Z</time>
      </trkpt>
      <trkpt lat="44.23065" lon="2.97439">
        <ele>826</ele>
        <time>2019-10-11T14:15:44.000Z</time>
      </trkpt>
      <trkpt lat="44.23063" lon="2.97439">
        <ele>825</ele>
        <time>2019-10-11T14:15:45.000Z</time>
      </trkpt>
      <trkpt lat="44.23062" lon="2.97438">
        <ele>825</ele>
        <time>2019-10-11T14:15:46.000Z</time>
      </trkpt>
      <trkpt lat="44.2306" lon="2.97437">
        <ele>825</ele>
        <time>2019-10-11T14:15:47.000Z</time>
      </trkpt>
      <trkpt lat="44.23059" lon="2.97437">
        <ele>824</ele>
        <time>2019-10-11T14:15:48.000Z</time>
      </trkpt>
      <trkpt lat="44.23057" lon="2.97436">
        <ele>824</ele>
        <time>2019-10-11T14:15:49.000Z</time>
      </trkpt>
      <trkpt lat="44.23056" lon="2.97435">
        <ele>823</ele>
        <time>2019-10-11T14:15:50.000Z</time>
      </trkpt>
      <trkpt lat="44.23055" lon="2.97435">
        <ele>823</ele>
        <time>2019-10-11T14:15:51.000Z</time>
      </trkpt>
      <trkpt lat="44.23054" lon="2.97434">
        <ele>822</ele>
        <time>2019-10-11T14:15:52.000Z</time>
      </trkpt>
      <trkpt lat="44.23052" lon="2.97433">
        <ele>822</ele>
        <time>2019-10-11T14:15:53.000Z</time>
      </trkpt>
      <trkpt lat="44.23051" lon="2.97432">
        <ele>821</ele>
        <time>2019-10-11T14:15:54.000Z</time>
      </trkpt>
      <trkpt lat="44.23049" lon="2.97432">
        <ele>821</ele>
        <time>2019-10-11T14:15:55.000Z</time>
      </trkpt>
      <trkpt lat="44.23048" lon="2.97431">
        <ele>821</ele>
        <time>2019-10-11T14:15:56.000Z</time>
      </trkpt>
      <trkpt lat="44.23047" lon="2.9743">
        <ele>821</ele>
        <time>2019-10-11T14:15:57.000Z</time>
      </trkpt>
      <trkpt lat="44.23045" lon="2.97429">
        <ele>820</ele>
        <time>2019-10-11T14:15:58.000Z</time>
      </trkpt>
      <trkpt lat="44.23044" lon="2.97429">
        <ele>820</ele>
        <time>2019-10-11T14:15:59.000Z</time>
      </trkpt>
      <trkpt lat="44.23043" lon="2.97428">
        <ele>820</ele>
        <time>2019-10-11T14:16:00.000Z</time>
      </trkpt>
      <trkpt lat="44.23041" lon="2.97428">
        <ele>820</ele>
        <time>2019-10-11T14:16:01.000Z</time>
      </trkpt>
      <trkpt lat="44.2304" lon="2.97427">
        <ele>820</ele>
        <time>2019-10-11T14:16:02.000Z</time>
      </trkpt>
      <trkpt lat="44.23039" lon="2.97426">
        <ele>819</ele>
        <time>2019-10-11T14:16:03.000Z</time>
      </trkpt>
      <trkpt lat="44.23038" lon="2.97426">
        <ele>819</ele>
        <time>2019-10-11T14:16:04.000Z</time>
      </trkpt>
      <trkpt lat="44.23036" lon="2.97425">
        <ele>819</ele>
        <time>2019-10-11T14:16:05.000Z</time>
      </trkpt>
      <trkpt lat="44.23035" lon="2.97425">
        <ele>818</ele>
        <time>2019-10-11T14:16:06.000Z</time>
      </trkpt>
      <trkpt lat="44.23034" lon="2.97424">
        <ele>818</ele>
        <time>2019-10-11T14:16:07.000Z</time>
      </trkpt>
      <trkpt lat="44.23033" lon="2.97424">
        <ele>818</ele>
        <time>2019-10-11T14:16:08.000Z</time>
      </trkpt>
      <trkpt lat="44.23031" lon="2.97423">
        <ele>818</ele>
        <time>2019-10-11T14:16:09.000Z</time>
      </trkpt>
      <trkpt lat="44.2303" lon="2.97423">
        <ele>817</ele>
        <time>2019-10-11T14:16:10.000Z</time>
      </trkpt>
      <trkpt lat="44.23028" lon="2.97422">
        <ele>817</ele>
        <time>2019-10-11T14:16:11.000Z</time>
      </trkpt>
      <trkpt lat="44.23026" lon="2.97422">
        <ele>817</ele>
        <time>2019-10-11T14:16:12.000Z</time>
      </trkpt>
      <trkpt lat="44.23025" lon="2.97422">
        <ele>817</ele>
        <time>2019-10-11T14:16:13.000Z</time>
      </trkpt>
      <trkpt lat="44.23024" lon="2.97421">
        <ele>816</ele>
        <time>2019-10-11T14:16:14.000Z</time>
      </trkpt>
      <trkpt lat="44.23022" lon="2.97421">
        <ele>816</ele>
        <time>2019-10-11T14:16:15.000Z</time>
      </trkpt>
      <trkpt lat="44.23021" lon="2.97421">
        <ele>816</ele>
        <time>2019-10-11T14:16:16.000Z</time>
      </trkpt>
      <trkpt lat="44.2302" lon="2.9742">
        <ele>816</ele>
        <time>2019-10-11T14:16:17.000Z</time>
      </trkpt>
      <trkpt lat="44.23019" lon="2.9742">
        <ele>816</ele>
        <time>2019-10-11T14:16:18.000Z</time>
      </trkpt>
      <trkpt lat="44.23018" lon="2.9742">
        <ele>815</ele>
        <time>2019-10-11T14:16:19.000Z</time>
      </trkpt>
      <trkpt lat="44.23017" lon="2.9742">
        <ele>815</ele>
        <time>2019-10-11T14:16:20.000Z</time>
      </trkpt>
      <trkpt lat="44.23016" lon="2.9742">
        <ele>815</ele>
        <time>2019-10-11T14:16:21.000Z</time>
      </trkpt>
      <trkpt lat="44.23014" lon="2.9742">
        <ele>815</ele>
        <time>2019-10-11T14:16:22.000Z</time>
      </trkpt>
      <trkpt lat="44.23012" lon="2.9742">
        <ele>815</ele>
        <time>2019-10-11T14:16:23.000Z</time>
      </trkpt>
      <trkpt lat="44.23011" lon="2.9742">
        <ele>815</ele>
        <time>2019-10-11T14:16:24.000Z</time>
      </trkpt>
      <trkpt lat="44.23009" lon="2.9742">
        <ele>815</ele>
        <time>2019-10-11T14:16:25.000Z</time>
      </trkpt>
      <trkpt lat="44.23008" lon="2.9742">
        <ele>815</ele>
        <time>2019-10-11T14:16:26.000Z</time>
      </trkpt>
      <trkpt lat="44.23006" lon="2.9742">
        <ele>815</ele>
        <time>2019-10-11T14:16:27.000Z</time>
      </trkpt>
      <trkpt lat="44.23005" lon="2.9742">
        <ele>814</ele>
        <time>2019-10-11T14:16:28.000Z</time>
      </trkpt>
      <trkpt lat="44.23003" lon="2.9742">
        <ele>814</ele>
        <time>2019-10-11T14:16:29.000Z</time>
      </trkpt>
      <trkpt lat="44.23002" lon="2.9742">
        <ele>814</ele>
        <time>2019-10-11T14:16:30.000Z</time>
      </trkpt>
      <trkpt lat="44.23" lon="2.9742">
        <ele>814</ele>
        <time>2019-10-11T14:16:31.000Z</time>
      </trkpt>
      <trkpt lat="44.22999" lon="2.97419">
        <ele>814</ele>
        <time>2019-10-11T14:16:32.000Z</time>
      </trkpt>
      <trkpt lat="44.22997" lon="2.97419">
        <ele>814</ele>
        <time>2019-10-11T14:16:33.000Z</time>
      </trkpt>
      <trkpt lat="44.22996" lon="2.97419">
        <ele>813</ele>
        <time>2019-10-11T14:16:34.000Z</time>
      </trkpt>
      <trkpt lat="44.22994" lon="2.97418">
        <ele>813</ele>
        <time>2019-10-11T14:16:35.000Z</time>
      </trkpt>
      <trkpt lat="44.22993" lon="2.97418">
        <ele>813</ele>
        <time>2019-10-11T14:16:36.000Z</time>
      </trkpt>
      <trkpt lat="44.22992" lon="2.97419">
        <ele>812</ele>
        <time>2019-10-11T14:16:37.000Z</time>
      </trkpt>
      <trkpt lat="44.2299" lon="2.97419">
        <ele>812</ele>
        <time>2019-10-11T14:16:38.000Z</time>
      </trkpt>
      <trkpt lat="44.22989" lon="2.97419">
        <ele>812</ele>
        <time>2019-10-11T14:16:39.000Z</time>
      </trkpt>
      <trkpt lat="44.22987" lon="2.97419">
        <ele>812</ele>
        <time>2019-10-11T14:16:40.000Z</time>
      </trkpt>
      <trkpt lat="44.22985" lon="2.97418">
        <ele>812</ele>
        <time>2019-10-11T14:16:41.000Z</time>
      </trkpt>
      <trkpt lat="44.22984" lon="2.97418">
        <ele>812</ele>
        <time>2019-10-11T14:16:42.000Z</time>
      </trkpt>
      <trkpt lat="44.22983" lon="2.97418">
        <ele>812</ele>
        <time>2019-10-11T14:16:43.000Z</time>
      </trkpt>
      <trkpt lat="44.22981" lon="2.97417">
        <ele>811</ele>
        <time>2019-10-11T14:16:44.000Z</time>
      </trkpt>
      <trkpt lat="44.2298" lon="2.97417">
        <ele>811</ele>
        <time>2019-10-11T14:16:45.000Z</time>
      </trkpt>
      <trkpt lat="44.22978" lon="2.97417">
        <ele>811</ele>
        <time>2019-10-11T14:16:46.000Z</time>
      </trkpt>
      <trkpt lat="44.22977" lon="2.97416">
        <ele>811</ele>
        <time>2019-10-11T14:16:47.000Z</time>
      </trkpt>
      <trkpt lat="44.22975" lon="2.97416">
        <ele>811</ele>
        <time>2019-10-11T14:16:48.000Z</time>
      </trkpt>
      <trkpt lat="44.22974" lon="2.97416">
        <ele>810</ele>
        <time>2019-10-11T14:16:49.000Z</time>
      </trkpt>
      <trkpt lat="44.22972" lon="2.97416">
        <ele>810</ele>
        <time>2019-10-11T14:16:50.000Z</time>
      </trkpt>
      <trkpt lat="44.2297" lon="2.97415">
        <ele>810</ele>
        <time>2019-10-11T14:16:51.000Z</time>
      </trkpt>
      <trkpt lat="44.22969" lon="2.97415">
        <ele>810</ele>
        <time>2019-10-11T14:16:52.000Z</time>
      </trkpt>
      <trkpt lat="44.22968" lon="2.97414">
        <ele>810</ele>
        <time>2019-10-11T14:16:53.000Z</time>
      </trkpt>
      <trkpt lat="44.22966" lon="2.97414">
        <ele>810</ele>
        <time>2019-10-11T14:16:54.000Z</time>
      </trkpt>
      <trkpt lat="44.22964" lon="2.97413">
        <ele>810</ele>
        <time>2019-10-11T14:16:55.000Z</time>
      </trkpt>
      <trkpt lat="44.22963" lon="2.97413">
        <ele>810</ele>
        <time>2019-10-11T14:16:56.000Z</time>
      </trkpt>
      <trkpt lat="44.22961" lon="2.97412">
        <ele>809</ele>
        <time>2019-10-11T14:16:57.000Z</time>
      </trkpt>
      <trkpt lat="44.2296" lon="2.97411">
        <ele>809</ele>
        <time>2019-10-11T14:16:58.000Z</time>
      </trkpt>
      <trkpt lat="44.22958" lon="2.97411">
        <ele>809</ele>
        <time>2019-10-11T14:16:59.000Z</time>
      </trkpt>
      <trkpt lat="44.22957" lon="2.97411">
        <ele>809</ele>
        <time>2019-10-11T14:17:00.000Z</time>
      </trkpt>
      <trkpt lat="44.22955" lon="2.9741">
        <ele>809</ele>
        <time>2019-10-11T14:17:01.000Z</time>
      </trkpt>
      <trkpt lat="44.22954" lon="2.9741">
        <ele>809</ele>
        <time>2019-10-11T14:17:02.000Z</time>
      </trkpt>
      <trkpt lat="44.22952" lon="2.97409">
        <ele>809</ele>
        <time>2019-10-11T14:17:03.000Z</time>
      </trkpt>
      <trkpt lat="44.22951" lon="2.97408">
        <ele>809</ele>
        <time>2019-10-11T14:17:04.000Z</time>
      </trkpt>
      <trkpt lat="44.22949" lon="2.97408">
        <ele>808</ele>
        <time>2019-10-11T14:17:05.000Z</time>
      </trkpt>
      <trkpt lat="44.22947" lon="2.97407">
        <ele>808</ele>
        <time>2019-10-11T14:17:06.000Z</time>
      </trkpt>
      <trkpt lat="44.22946" lon="2.97407">
        <ele>808</ele>
        <time>2019-10-11T14:17:07.000Z</time>
      </trkpt>
      <trkpt lat="44.22945" lon="2.97407">
        <ele>808</ele>
        <time>2019-10-11T14:17:08.000Z</time>
      </trkpt>
      <trkpt lat="44.22943" lon="2.97406">
        <ele>808</ele>
        <time>2019-10-11T14:17:09.000Z</time>
      </trkpt>
      <trkpt lat="44.22942" lon="2.97406">
        <ele>808</ele>
        <time>2019-10-11T14:17:10.000Z</time>
      </trkpt>
      <trkpt lat="44.22941" lon="2.97406">
        <ele>807</ele>
        <time>2019-10-11T14:17:11.000Z</time>
      </trkpt>
      <trkpt lat="44.22939" lon="2.97405">
        <ele>807</ele>
        <time>2019-10-11T14:17:12.000Z</time>
      </trkpt>
      <trkpt lat="44.22938" lon="2.97405">
        <ele>807</ele>
        <time>2019-10-11T14:17:13.000Z</time>
      </trkpt>
      <trkpt lat="44.22937" lon="2.97405">
        <ele>807</ele>
        <time>2019-10-11T14:17:14.000Z</time>
      </trkpt>
      <trkpt lat="44.22936" lon="2.97404">
        <ele>807</ele>
        <time>2019-10-11T14:17:15.000Z</time>
      </trkpt>
      <trkpt lat="44.22934" lon="2.97403">
        <ele>807</ele>
        <time>2019-10-11T14:17:16.000Z</time>
      </trkpt>
      <trkpt lat="44.22933" lon="2.97403">
        <ele>807</ele>
        <time>2019-10-11T14:17:17.000Z</time>
      </trkpt>
      <trkpt lat="44.22931" lon="2.97402">
        <ele>807</ele>
        <time>2019-10-11T14:17:18.000Z</time>
      </trkpt>
      <trkpt lat="44.2293" lon="2.97401">
        <ele>807</ele>
        <time>2019-10-11T14:17:19.000Z</time>
      </trkpt>
      <trkpt lat="44.22929" lon="2.97401">
        <ele>807</ele>
        <time>2019-10-11T14:17:20.000Z</time>
      </trkpt>
      <trkpt lat="44.22927" lon="2.974">
        <ele>807</ele>
        <time>2019-10-11T14:17:21.000Z</time>
      </trkpt>
      <trkpt lat="44.22926" lon="2.974">
        <ele>806</ele>
        <time>2019-10-11T14:17:22.000Z</time>
      </trkpt>
      <trkpt lat="44.22924" lon="2.97399">
        <ele>806</ele>
        <time>2019-10-11T14:17:23.000Z</time>
      </trkpt>
      <trkpt lat="44.22923" lon="2.97399">
        <ele>806</ele>
        <time>2019-10-11T14:17:24.000Z</time>
      </trkpt>
      <trkpt lat="44.22921" lon="2.97399">
        <ele>806</ele>
        <time>2019-10-11T14:17:25.000Z</time>
      </trkpt>
      <trkpt lat="44.22921" lon="2.97399">
        <ele>806</ele>
        <time>2019-10-11T14:17:26.000Z</time>
      </trkpt>
      <trkpt lat="44.22921" lon="2.97399">
        <ele>805</ele>
        <time>2019-10-11T14:17:27.000Z</time>
      </trkpt>
      <trkpt lat="44.22921" lon="2.97399">
        <ele>805</ele>
        <time>2019-10-11T14:17:28.000Z</time>
      </trkpt>
      <trkpt lat="44.22921" lon="2.97399">
        <ele>805</ele>
        <time>2019-10-11T14:17:29.000Z</time>
      </trkpt>
      <trkpt lat="44.22921" lon="2.97398">
        <ele>805</ele>
        <time>2019-10-11T14:17:30.000Z</time>
      </trkpt>
      <trkpt lat="44.2292" lon="2.97398">
        <ele>805</ele>
        <time>2019-10-11T14:17:31.000Z</time>
      </trkpt>
      <trkpt lat="44.2292" lon="2.97398">
        <ele>805</ele>
        <time>2019-10-11T14:17:32.000Z</time>
      </trkpt>
      <trkpt lat="44.22919" lon="2.97398">
        <ele>805</ele>
        <time>2019-10-11T14:17:33.000Z</time>
      </trkpt>
      <trkpt lat="44.22918" lon="2.97398">
        <ele>805</ele>
        <time>2019-10-11T14:17:34.000Z</time>
      </trkpt>
      <trkpt lat="44.22917" lon="2.97397">
        <ele>805</ele>
        <time>2019-10-11T14:17:35.000Z</time>
      </trkpt>
      <trkpt lat="44.22915" lon="2.97397">
        <ele>805</ele>
        <time>2019-10-11T14:17:36.000Z</time>
      </trkpt>
      <trkpt lat="44.22914" lon="2.97397">
        <ele>805</ele>
        <time>2019-10-11T14:17:37.000Z</time>
      </trkpt>
      <trkpt lat="44.22912" lon="2.97397">
        <ele>805</ele>
        <time>2019-10-11T14:17:38.000Z</time>
      </trkpt>
      <trkpt lat="44.22911" lon="2.97397">
        <ele>805</ele>
        <time>2019-10-11T14:17:39.000Z</time>
      </trkpt>
      <trkpt lat="44.22909" lon="2.97396">
        <ele>805</ele>
        <time>2019-10-11T14:17:40.000Z</time>
      </trkpt>
      <trkpt lat="44.22908" lon="2.97396">
        <ele>805</ele>
        <time>2019-10-11T14:17:41.000Z</time>
      </trkpt>
      <trkpt lat="44.22906" lon="2.97396">
        <ele>805</ele>
        <time>2019-10-11T14:17:42.000Z</time>
      </trkpt>
      <trkpt lat="44.22905" lon="2.97396">
        <ele>805</ele>
        <time>2019-10-11T14:17:43.000Z</time>
      </trkpt>
      <trkpt lat="44.22904" lon="2.97395">
        <ele>805</ele>
        <time>2019-10-11T14:17:44.000Z</time>
      </trkpt>
      <trkpt lat="44.22902" lon="2.97395">
        <ele>805</ele>
        <time>2019-10-11T14:17:45.000Z</time>
      </trkpt>
      <trkpt lat="44.22901" lon="2.97394">
        <ele>805</ele>
        <time>2019-10-11T14:17:46.000Z</time>
      </trkpt>
      <trkpt lat="44.229" lon="2.97394">
        <ele>804</ele>
        <time>2019-10-11T14:17:47.000Z</time>
      </trkpt>
      <trkpt lat="44.22898" lon="2.97393">
        <ele>804</ele>
        <time>2019-10-11T14:17:48.000Z</time>
      </trkpt>
      <trkpt lat="44.22897" lon="2.97393">
        <ele>804</ele>
        <time>2019-10-11T14:17:49.000Z</time>
      </trkpt>
      <trkpt lat="44.22896" lon="2.97392">
        <ele>804</ele>
        <time>2019-10-11T14:17:50.000Z</time>
      </trkpt>
      <trkpt lat="44.22894" lon="2.97391">
        <ele>804</ele>
        <time>2019-10-11T14:17:51.000Z</time>
      </trkpt>
      <trkpt lat="44.22893" lon="2.9739">
        <ele>804</ele>
        <time>2019-10-11T14:17:52.000Z</time>
      </trkpt>
      <trkpt lat="44.22891" lon="2.97389">
        <ele>804</ele>
        <time>2019-10-11T14:17:53.000Z</time>
      </trkpt>
      <trkpt lat="44.2289" lon="2.97389">
        <ele>804</ele>
        <time>2019-10-11T14:17:54.000Z</time>
      </trkpt>
      <trkpt lat="44.22888" lon="2.97388">
        <ele>804</ele>
        <time>2019-10-11T14:17:55.000Z</time>
      </trkpt>
      <trkpt lat="44.22887" lon="2.97388">
        <ele>804</ele>
        <time>2019-10-11T14:17:56.000Z</time>
      </trkpt>
      <trkpt lat="44.22886" lon="2.97387">
        <ele>803</ele>
        <time>2019-10-11T14:17:57.000Z</time>
      </trkpt>
      <trkpt lat="44.22884" lon="2.97386">
        <ele>803</ele>
        <time>2019-10-11T14:17:58.000Z</time>
      </trkpt>
      <trkpt lat="44.22883" lon="2.97386">
        <ele>803</ele>
        <time>2019-10-11T14:17:59.000Z</time>
      </trkpt>
      <trkpt lat="44.22881" lon="2.97385">
        <ele>803</ele>
        <time>2019-10-11T14:18:00.000Z</time>
      </trkpt>
      <trkpt lat="44.2288" lon="2.97385">
        <ele>803</ele>
        <time>2019-10-11T14:18:01.000Z</time>
      </trkpt>
      <trkpt lat="44.22878" lon="2.97384">
        <ele>803</ele>
        <time>2019-10-11T14:18:02.000Z</time>
      </trkpt>
      <trkpt lat="44.22876" lon="2.97384">
        <ele>803</ele>
        <time>2019-10-11T14:18:03.000Z</time>
      </trkpt>
      <trkpt lat="44.22875" lon="2.97383">
        <ele>803</ele>
        <time>2019-10-11T14:18:04.000Z</time>
      </trkpt>
      <trkpt lat="44.22873" lon="2.97383">
        <ele>803</ele>
        <time>2019-10-11T14:18:05.000Z</time>
      </trkpt>
      <trkpt lat="44.22872" lon="2.97383">
        <ele>803</ele>
        <time>2019-10-11T14:18:06.000Z</time>
      </trkpt>
      <trkpt lat="44.2287" lon="2.97382">
        <ele>803</ele>
        <time>2019-10-11T14:18:07.000Z</time>
      </trkpt>
      <trkpt lat="44.22869" lon="2.97382">
        <ele>803</ele>
        <time>2019-10-11T14:18:08.000Z</time>
      </trkpt>
      <trkpt lat="44.22867" lon="2.97382">
        <ele>803</ele>
        <time>2019-10-11T14:18:09.000Z</time>
      </trkpt>
      <trkpt lat="44.22865" lon="2.97381">
        <ele>803</ele>
        <time>2019-10-11T14:18:10.000Z</time>
      </trkpt>
      <trkpt lat="44.22864" lon="2.97381">
        <ele>803</ele>
        <time>2019-10-11T14:18:11.000Z</time>
      </trkpt>
      <trkpt lat="44.22862" lon="2.9738">
        <ele>803</ele>
        <time>2019-10-11T14:18:12.000Z</time>
      </trkpt>
      <trkpt lat="44.22861" lon="2.9738">
        <ele>802</ele>
        <time>2019-10-11T14:18:13.000Z</time>
      </trkpt>
      <trkpt lat="44.22859" lon="2.9738">
        <ele>802</ele>
        <time>2019-10-11T14:18:14.000Z</time>
      </trkpt>
      <trkpt lat="44.22858" lon="2.9738">
        <ele>802</ele>
        <time>2019-10-11T14:18:15.000Z</time>
      </trkpt>
      <trkpt lat="44.22856" lon="2.9738">
        <ele>802</ele>
        <time>2019-10-11T14:18:16.000Z</time>
      </trkpt>
      <trkpt lat="44.22854" lon="2.9738">
        <ele>802</ele>
        <time>2019-10-11T14:18:17.000Z</time>
      </trkpt>
      <trkpt lat="44.22853" lon="2.9738">
        <ele>802</ele>
        <time>2019-10-11T14:18:18.000Z</time>
      </trkpt>
      <trkpt lat="44.22851" lon="2.9738">
        <ele>802</ele>
        <time>2019-10-11T14:18:19.000Z</time>
      </trkpt>
      <trkpt lat="44.2285" lon="2.97379">
        <ele>802</ele>
        <time>2019-10-11T14:18:20.000Z</time>
      </trkpt>
      <trkpt lat="44.22848" lon="2.97379">
        <ele>802</ele>
        <time>2019-10-11T14:18:21.000Z</time>
      </trkpt>
      <trkpt lat="44.22847" lon="2.97379">
        <ele>802</ele>
        <time>2019-10-11T14:18:22.000Z</time>
      </trkpt>
      <trkpt lat="44.22845" lon="2.97379">
        <ele>801</ele>
        <time>2019-10-11T14:18:23.000Z</time>
      </trkpt>
      <trkpt lat="44.22844" lon="2.97379">
        <ele>801</ele>
        <time>2019-10-11T14:18:24.000Z</time>
      </trkpt>
      <trkpt lat="44.22842" lon="2.97379">
        <ele>801</ele>
        <time>2019-10-11T14:18:25.000Z</time>
      </trkpt>
      <trkpt lat="44.22841" lon="2.97379">
        <ele>801</ele>
        <time>2019-10-11T14:18:26.000Z</time>
      </trkpt>
      <trkpt lat="44.22839" lon="2.97379">
        <ele>801</ele>
        <time>2019-10-11T14:18:27.000Z</time>
      </trkpt>
      <trkpt lat="44.22838" lon="2.97379">
        <ele>801</ele>
        <time>2019-10-11T14:18:28.000Z</time>
      </trkpt>
      <trkpt lat="44.22836" lon="2.97379">
        <ele>801</ele>
        <time>2019-10-11T14:18:29.000Z</time>
      </trkpt>
      <trkpt lat="44.22835" lon="2.97379">
        <ele>801</ele>
        <time>2019-10-11T14:18:30.000Z</time>
      </trkpt>
      <trkpt lat="44.22833" lon="2.9738">
        <ele>801</ele>
        <time>2019-10-11T14:18:31.000Z</time>
      </trkpt>
      <trkpt lat="44.22832" lon="2.9738">
        <ele>801</ele>
        <time>2019-10-11T14:18:32.000Z</time>
      </trkpt>
      <trkpt lat="44.2283" lon="2.9738">
        <ele>801</ele>
        <time>2019-10-11T14:18:33.000Z</time>
      </trkpt>
      <trkpt lat="44.22829" lon="2.97381">
        <ele>801</ele>
        <time>2019-10-11T14:18:34.000Z</time>
      </trkpt>
      <trkpt lat="44.22827" lon="2.97381">
        <ele>801</ele>
        <time>2019-10-11T14:18:35.000Z</time>
      </trkpt>
      <trkpt lat="44.22826" lon="2.97381">
        <ele>801</ele>
        <time>2019-10-11T14:18:36.000Z</time>
      </trkpt>
      <trkpt lat="44.22824" lon="2.97381">
        <ele>801</ele>
        <time>2019-10-11T14:18:37.000Z</time>
      </trkpt>
      <trkpt lat="44.22823" lon="2.97381">
        <ele>801</ele>
        <time>2019-10-11T14:18:38.000Z</time>
      </trkpt>
      <trkpt lat="44.22821" lon="2.97381">
        <ele>801</ele>
        <time>2019-10-11T14:18:39.000Z</time>
      </trkpt>
      <trkpt lat="44.22819" lon="2.97381">
        <ele>801</ele>
        <time>2019-10-11T14:18:40.000Z</time>
      </trkpt>
      <trkpt lat="44.22817" lon="2.9738">
        <ele>801</ele>
        <time>2019-10-11T14:18:41.000Z</time>
      </trkpt>
      <trkpt lat="44.22816" lon="2.9738">
        <ele>801</ele>
        <time>2019-10-11T14:18:42.000Z</time>
      </trkpt>
      <trkpt lat="44.22814" lon="2.97379">
        <ele>801</ele>
        <time>2019-10-11T14:18:43.000Z</time>
      </trkpt>
      <trkpt lat="44.22813" lon="2.97379">
        <ele>801</ele>
        <time>2019-10-11T14:18:44.000Z</time>
      </trkpt>
      <trkpt lat="44.22811" lon="2.97378">
        <ele>800</ele>
        <time>2019-10-11T14:18:45.000Z</time>
      </trkpt>
      <trkpt lat="44.2281" lon="2.97378">
        <ele>800</ele>
        <time>2019-10-11T14:18:46.000Z</time>
      </trkpt>
      <trkpt lat="44.22808" lon="2.97378">
        <ele>800</ele>
        <time>2019-10-11T14:18:47.000Z</time>
      </trkpt>
      <trkpt lat="44.22807" lon="2.97377">
        <ele>800</ele>
        <time>2019-10-11T14:18:48.000Z</time>
      </trkpt>
      <trkpt lat="44.22805" lon="2.97377">
        <ele>800</ele>
        <time>2019-10-11T14:18:49.000Z</time>
      </trkpt>
      <trkpt lat="44.22804" lon="2.97376">
        <ele>800</ele>
        <time>2019-10-11T14:18:50.000Z</time>
      </trkpt>
      <trkpt lat="44.22802" lon="2.97376">
        <ele>799</ele>
        <time>2019-10-11T14:18:51.000Z</time>
      </trkpt>
      <trkpt lat="44.22801" lon="2.97375">
        <ele>799</ele>
        <time>2019-10-11T14:18:52.000Z</time>
      </trkpt>
      <trkpt lat="44.22799" lon="2.97374">
        <ele>799</ele>
        <time>2019-10-11T14:18:53.000Z</time>
      </trkpt>
      <trkpt lat="44.22798" lon="2.97374">
        <ele>799</ele>
        <time>2019-10-11T14:18:54.000Z</time>
      </trkpt>
      <trkpt lat="44.22796" lon="2.97373">
        <ele>798</ele>
        <time>2019-10-11T14:18:55.000Z</time>
      </trkpt>
      <trkpt lat="44.22795" lon="2.97373">
        <ele>798</ele>
        <time>2019-10-11T14:18:56.000Z</time>
      </trkpt>
      <trkpt lat="44.22793" lon="2.97372">
        <ele>798</ele>
        <time>2019-10-11T14:18:57.000Z</time>
      </trkpt>
      <trkpt lat="44.22792" lon="2.97371">
        <ele>797</ele>
        <time>2019-10-11T14:18:58.000Z</time>
      </trkpt>
      <trkpt lat="44.2279" lon="2.9737">
        <ele>797</ele>
        <time>2019-10-11T14:18:59.000Z</time>
      </trkpt>
      <trkpt lat="44.22789" lon="2.97369">
        <ele>797</ele>
        <time>2019-10-11T14:19:00.000Z</time>
      </trkpt>
      <trkpt lat="44.22787" lon="2.97368">
        <ele>796</ele>
        <time>2019-10-11T14:19:01.000Z</time>
      </trkpt>
      <trkpt lat="44.22786" lon="2.97367">
        <ele>796</ele>
        <time>2019-10-11T14:19:02.000Z</time>
      </trkpt>
      <trkpt lat="44.22785" lon="2.97366">
        <ele>796</ele>
        <time>2019-10-11T14:19:03.000Z</time>
      </trkpt>
      <trkpt lat="44.22783" lon="2.97366">
        <ele>796</ele>
        <time>2019-10-11T14:19:04.000Z</time>
      </trkpt>
      <trkpt lat="44.22782" lon="2.97365">
        <ele>795</ele>
        <time>2019-10-11T14:19:05.000Z</time>
      </trkpt>
      <trkpt lat="44.22781" lon="2.97364">
        <ele>795</ele>
        <time>2019-10-11T14:19:06.000Z</time>
      </trkpt>
      <trkpt lat="44.22779" lon="2.97363">
        <ele>795</ele>
        <time>2019-10-11T14:19:07.000Z</time>
      </trkpt>
      <trkpt lat="44.22778" lon="2.97363">
        <ele>794</ele>
        <time>2019-10-11T14:19:08.000Z</time>
      </trkpt>
      <trkpt lat="44.22777" lon="2.97361">
        <ele>794</ele>
        <time>2019-10-11T14:19:09.000Z</time>
      </trkpt>
      <trkpt lat="44.22775" lon="2.9736">
        <ele>793</ele>
        <time>2019-10-11T14:19:10.000Z</time>
      </trkpt>
      <trkpt lat="44.22774" lon="2.97359">
        <ele>793</ele>
        <time>2019-10-11T14:19:11.000Z</time>
      </trkpt>
      <trkpt lat="44.22772" lon="2.97358">
        <ele>793</ele>
        <time>2019-10-11T14:19:12.000Z</time>
      </trkpt>
      <trkpt lat="44.22771" lon="2.97357">
        <ele>793</ele>
        <time>2019-10-11T14:19:13.000Z</time>
      </trkpt>
      <trkpt lat="44.22769" lon="2.97356">
        <ele>792</ele>
        <time>2019-10-11T14:19:14.000Z</time>
      </trkpt>
      <trkpt lat="44.22768" lon="2.97355">
        <ele>792</ele>
        <time>2019-10-11T14:19:15.000Z</time>
      </trkpt>
      <trkpt lat="44.22766" lon="2.97354">
        <ele>792</ele>
        <time>2019-10-11T14:19:16.000Z</time>
      </trkpt>
      <trkpt lat="44.22765" lon="2.97353">
        <ele>792</ele>
        <time>2019-10-11T14:19:17.000Z</time>
      </trkpt>
      <trkpt lat="44.22764" lon="2.97352">
        <ele>792</ele>
        <time>2019-10-11T14:19:18.000Z</time>
      </trkpt>
      <trkpt lat="44.22762" lon="2.97351">
        <ele>791</ele>
        <time>2019-10-11T14:19:19.000Z</time>
      </trkpt>
      <trkpt lat="44.22761" lon="2.9735">
        <ele>791</ele>
        <time>2019-10-11T14:19:20.000Z</time>
      </trkpt>
      <trkpt lat="44.22759" lon="2.9735">
        <ele>791</ele>
        <time>2019-10-11T14:19:21.000Z</time>
      </trkpt>
      <trkpt lat="44.22758" lon="2.97349">
        <ele>791</ele>
        <time>2019-10-11T14:19:22.000Z</time>
      </trkpt>
      <trkpt lat="44.22756" lon="2.97348">
        <ele>791</ele>
        <time>2019-10-11T14:19:23.000Z</time>
      </trkpt>
      <trkpt lat="44.22755" lon="2.97347">
        <ele>791</ele>
        <time>2019-10-11T14:19:24.000Z</time>
      </trkpt>
      <trkpt lat="44.22754" lon="2.97347">
        <ele>791</ele>
        <time>2019-10-11T14:19:25.000Z</time>
      </trkpt>
      <trkpt lat="44.22752" lon="2.97346">
        <ele>791</ele>
        <time>2019-10-11T14:19:26.000Z</time>
      </trkpt>
      <trkpt lat="44.22751" lon="2.97345">
        <ele>791</ele>
        <time>2019-10-11T14:19:27.000Z</time>
      </trkpt>
      <trkpt lat="44.2275" lon="2.97345">
        <ele>791</ele>
        <time>2019-10-11T14:19:28.000Z</time>
      </trkpt>
      <trkpt lat="44.22749" lon="2.97343">
        <ele>790</ele>
        <time>2019-10-11T14:19:29.000Z</time>
      </trkpt>
      <trkpt lat="44.22748" lon="2.97342">
        <ele>790</ele>
        <time>2019-10-11T14:19:30.000Z</time>
      </trkpt>
      <trkpt lat="44.22747" lon="2.97341">
        <ele>790</ele>
        <time>2019-10-11T14:19:31.000Z</time>
      </trkpt>
      <trkpt lat="44.22745" lon="2.9734">
        <ele>790</ele>
        <time>2019-10-11T14:19:32.000Z</time>
      </trkpt>
      <trkpt lat="44.22744" lon="2.97339">
        <ele>790</ele>
        <time>2019-10-11T14:19:33.000Z</time>
      </trkpt>
      <trkpt lat="44.22743" lon="2.97338">
        <ele>790</ele>
        <time>2019-10-11T14:19:34.000Z</time>
      </trkpt>
      <trkpt lat="44.22741" lon="2.97336">
        <ele>789</ele>
        <time>2019-10-11T14:19:35.000Z</time>
      </trkpt>
      <trkpt lat="44.2274" lon="2.97336">
        <ele>789</ele>
        <time>2019-10-11T14:19:36.000Z</time>
      </trkpt>
      <trkpt lat="44.22739" lon="2.97335">
        <ele>789</ele>
        <time>2019-10-11T14:19:37.000Z</time>
      </trkpt>
      <trkpt lat="44.22737" lon="2.97334">
        <ele>789</ele>
        <time>2019-10-11T14:19:38.000Z</time>
      </trkpt>
      <trkpt lat="44.22736" lon="2.97333">
        <ele>789</ele>
        <time>2019-10-11T14:19:39.000Z</time>
      </trkpt>
      <trkpt lat="44.22734" lon="2.97332">
        <ele>789</ele>
        <time>2019-10-11T14:19:40.000Z</time>
      </trkpt>
      <trkpt lat="44.22733" lon="2.97331">
        <ele>788</ele>
        <time>2019-10-11T14:19:41.000Z</time>
      </trkpt>
      <trkpt lat="44.22731" lon="2.97331">
        <ele>788</ele>
        <time>2019-10-11T14:19:42.000Z</time>
      </trkpt>
      <trkpt lat="44.2273" lon="2.97331">
        <ele>788</ele>
        <time>2019-10-11T14:19:43.000Z</time>
      </trkpt>
      <trkpt lat="44.22728" lon="2.9733">
        <ele>788</ele>
        <time>2019-10-11T14:19:44.000Z</time>
      </trkpt>
      <trkpt lat="44.22727" lon="2.9733">
        <ele>787</ele>
        <time>2019-10-11T14:19:45.000Z</time>
      </trkpt>
      <trkpt lat="44.22725" lon="2.97329">
        <ele>787</ele>
        <time>2019-10-11T14:19:46.000Z</time>
      </trkpt>
      <trkpt lat="44.22724" lon="2.97329">
        <ele>787</ele>
        <time>2019-10-11T14:19:47.000Z</time>
      </trkpt>
      <trkpt lat="44.22722" lon="2.97328">
        <ele>786</ele>
        <time>2019-10-11T14:19:48.000Z</time>
      </trkpt>
      <trkpt lat="44.22721" lon="2.97328">
        <ele>786</ele>
        <time>2019-10-11T14:19:49.000Z</time>
      </trkpt>
      <trkpt lat="44.22719" lon="2.97328">
        <ele>786</ele>
        <time>2019-10-11T14:19:50.000Z</time>
      </trkpt>
      <trkpt lat="44.22718" lon="2.97328">
        <ele>786</ele>
        <time>2019-10-11T14:19:51.000Z</time>
      </trkpt>
      <trkpt lat="44.22716" lon="2.97328">
        <ele>786</ele>
        <time>2019-10-11T14:19:52.000Z</time>
      </trkpt>
      <trkpt lat="44.22715" lon="2.97327">
        <ele>785</ele>
        <time>2019-10-11T14:19:53.000Z</time>
      </trkpt>
      <trkpt lat="44.22713" lon="2.97327">
        <ele>785</ele>
        <time>2019-10-11T14:19:54.000Z</time>
      </trkpt>
      <trkpt lat="44.22712" lon="2.97326">
        <ele>785</ele>
        <time>2019-10-11T14:19:55.000Z</time>
      </trkpt>
      <trkpt lat="44.2271" lon="2.97325">
        <ele>785</ele>
        <time>2019-10-11T14:19:56.000Z</time>
      </trkpt>
      <trkpt lat="44.22709" lon="2.97324">
        <ele>785</ele>
        <time>2019-10-11T14:19:57.000Z</time>
      </trkpt>
      <trkpt lat="44.22707" lon="2.97323">
        <ele>784</ele>
        <time>2019-10-11T14:19:58.000Z</time>
      </trkpt>
      <trkpt lat="44.22706" lon="2.97322">
        <ele>784</ele>
        <time>2019-10-11T14:19:59.000Z</time>
      </trkpt>
      <trkpt lat="44.22704" lon="2.97322">
        <ele>784</ele>
        <time>2019-10-11T14:20:00.000Z</time>
      </trkpt>
      <trkpt lat="44.22703" lon="2.97321">
        <ele>783</ele>
        <time>2019-10-11T14:20:01.000Z</time>
      </trkpt>
      <trkpt lat="44.22701" lon="2.9732">
        <ele>783</ele>
        <time>2019-10-11T14:20:02.000Z</time>
      </trkpt>
      <trkpt lat="44.227" lon="2.97319">
        <ele>783</ele>
        <time>2019-10-11T14:20:03.000Z</time>
      </trkpt>
      <trkpt lat="44.22698" lon="2.97318">
        <ele>783</ele>
        <time>2019-10-11T14:20:04.000Z</time>
      </trkpt>
      <trkpt lat="44.22697" lon="2.97317">
        <ele>782</ele>
        <time>2019-10-11T14:20:05.000Z</time>
      </trkpt>
      <trkpt lat="44.22696" lon="2.97316">
        <ele>782</ele>
        <time>2019-10-11T14:20:06.000Z</time>
      </trkpt>
      <trkpt lat="44.22694" lon="2.97315">
        <ele>782</ele>
        <time>2019-10-11T14:20:07.000Z</time>
      </trkpt>
      <trkpt lat="44.22693" lon="2.97314">
        <ele>782</ele>
        <time>2019-10-11T14:20:08.000Z</time>
      </trkpt>
      <trkpt lat="44.22691" lon="2.97313">
        <ele>781</ele>
        <time>2019-10-11T14:20:09.000Z</time>
      </trkpt>
      <trkpt lat="44.2269" lon="2.97312">
        <ele>781</ele>
        <time>2019-10-11T14:20:10.000Z</time>
      </trkpt>
      <trkpt lat="44.22688" lon="2.97311">
        <ele>781</ele>
        <time>2019-10-11T14:20:11.000Z</time>
      </trkpt>
      <trkpt lat="44.22687" lon="2.9731">
        <ele>781</ele>
        <time>2019-10-11T14:20:12.000Z</time>
      </trkpt>
      <trkpt lat="44.22685" lon="2.97309">
        <ele>781</ele>
        <time>2019-10-11T14:20:13.000Z</time>
      </trkpt>
      <trkpt lat="44.22684" lon="2.97308">
        <ele>781</ele>
        <time>2019-10-11T14:20:14.000Z</time>
      </trkpt>
      <trkpt lat="44.22682" lon="2.97307">
        <ele>780</ele>
        <time>2019-10-11T14:20:15.000Z</time>
      </trkpt>
      <trkpt lat="44.22681" lon="2.97306">
        <ele>780</ele>
        <time>2019-10-11T14:20:16.000Z</time>
      </trkpt>
      <trkpt lat="44.22679" lon="2.97305">
        <ele>780</ele>
        <time>2019-10-11T14:20:17.000Z</time>
      </trkpt>
      <trkpt lat="44.22678" lon="2.97305">
        <ele>780</ele>
        <time>2019-10-11T14:20:18.000Z</time>
      </trkpt>
      <trkpt lat="44.22676" lon="2.97304">
        <ele>780</ele>
        <time>2019-10-11T14:20:19.000Z</time>
      </trkpt>
      <trkpt lat="44.22675" lon="2.97304">
        <ele>780</ele>
        <time>2019-10-11T14:20:20.000Z</time>
      </trkpt>
      <trkpt lat="44.22673" lon="2.97303">
        <ele>780</ele>
        <time>2019-10-11T14:20:21.000Z</time>
      </trkpt>
      <trkpt lat="44.22672" lon="2.97302">
        <ele>780</ele>
        <time>2019-10-11T14:20:22.000Z</time>
      </trkpt>
      <trkpt lat="44.2267" lon="2.97301">
        <ele>780</ele>
        <time>2019-10-11T14:20:23.000Z</time>
      </trkpt>
      <trkpt lat="44.22669" lon="2.97301">
        <ele>780</ele>
        <time>2019-10-11T14:20:24.000Z</time>
      </trkpt>
      <trkpt lat="44.22667" lon="2.973">
        <ele>780</ele>
        <time>2019-10-11T14:20:25.000Z</time>
      </trkpt>
      <trkpt lat="44.22666" lon="2.973">
        <ele>780</ele>
        <time>2019-10-11T14:20:26.000Z</time>
      </trkpt>
      <trkpt lat="44.22664" lon="2.97299">
        <ele>780</ele>
        <time>2019-10-11T14:20:27.000Z</time>
      </trkpt>
      <trkpt lat="44.22663" lon="2.97299">
        <ele>780</ele>
        <time>2019-10-11T14:20:28.000Z</time>
      </trkpt>
      <trkpt lat="44.22661" lon="2.97298">
        <ele>780</ele>
        <time>2019-10-11T14:20:29.000Z</time>
      </trkpt>
      <trkpt lat="44.2266" lon="2.97297">
        <ele>780</ele>
        <time>2019-10-11T14:20:30.000Z</time>
      </trkpt>
      <trkpt lat="44.22658" lon="2.97296">
        <ele>780</ele>
        <time>2019-10-11T14:20:31.000Z</time>
      </trkpt>
      <trkpt lat="44.22657" lon="2.97295">
        <ele>780</ele>
        <time>2019-10-11T14:20:32.000Z</time>
      </trkpt>
      <trkpt lat="44.22655" lon="2.97294">
        <ele>780</ele>
        <time>2019-10-11T14:20:33.000Z</time>
      </trkpt>
      <trkpt lat="44.22654" lon="2.97293">
        <ele>780</ele>
        <time>2019-10-11T14:20:34.000Z</time>
      </trkpt>
      <trkpt lat="44.22652" lon="2.97292">
        <ele>780</ele>
        <time>2019-10-11T14:20:35.000Z</time>
      </trkpt>
      <trkpt lat="44.22651" lon="2.97291">
        <ele>780</ele>
        <time>2019-10-11T14:20:36.000Z</time>
      </trkpt>
      <trkpt lat="44.2265" lon="2.97289">
        <ele>780</ele>
        <time>2019-10-11T14:20:37.000Z</time>
      </trkpt>
      <trkpt lat="44.22649" lon="2.97288">
        <ele>780</ele>
        <time>2019-10-11T14:20:38.000Z</time>
      </trkpt>
      <trkpt lat="44.22648" lon="2.97286">
        <ele>780</ele>
        <time>2019-10-11T14:20:39.000Z</time>
      </trkpt>
      <trkpt lat="44.22647" lon="2.97285">
        <ele>780</ele>
        <time>2019-10-11T14:20:40.000Z</time>
      </trkpt>
      <trkpt lat="44.22646" lon="2.97283">
        <ele>779</ele>
        <time>2019-10-11T14:20:41.000Z</time>
      </trkpt>
      <trkpt lat="44.22644" lon="2.97282">
        <ele>779</ele>
        <time>2019-10-11T14:20:42.000Z</time>
      </trkpt>
      <trkpt lat="44.22643" lon="2.97281">
        <ele>779</ele>
        <time>2019-10-11T14:20:43.000Z</time>
      </trkpt>
      <trkpt lat="44.22642" lon="2.9728">
        <ele>779</ele>
        <time>2019-10-11T14:20:44.000Z</time>
      </trkpt>
      <trkpt lat="44.22641" lon="2.97278">
        <ele>779</ele>
        <time>2019-10-11T14:20:45.000Z</time>
      </trkpt>
      <trkpt lat="44.22639" lon="2.97277">
        <ele>779</ele>
        <time>2019-10-11T14:20:46.000Z</time>
      </trkpt>
      <trkpt lat="44.22638" lon="2.97276">
        <ele>779</ele>
        <time>2019-10-11T14:20:47.000Z</time>
      </trkpt>
      <trkpt lat="44.22636" lon="2.97274">
        <ele>779</ele>
        <time>2019-10-11T14:20:48.000Z</time>
      </trkpt>
      <trkpt lat="44.22635" lon="2.97274">
        <ele>779</ele>
        <time>2019-10-11T14:20:49.000Z</time>
      </trkpt>
      <trkpt lat="44.22633" lon="2.97273">
        <ele>779</ele>
        <time>2019-10-11T14:20:50.000Z</time>
      </trkpt>
      <trkpt lat="44.22632" lon="2.97272">
        <ele>778</ele>
        <time>2019-10-11T14:20:51.000Z</time>
      </trkpt>
      <trkpt lat="44.2263" lon="2.97271">
        <ele>778</ele>
        <time>2019-10-11T14:20:52.000Z</time>
      </trkpt>
      <trkpt lat="44.22629" lon="2.9727">
        <ele>778</ele>
        <time>2019-10-11T14:20:53.000Z</time>
      </trkpt>
      <trkpt lat="44.22628" lon="2.9727">
        <ele>778</ele>
        <time>2019-10-11T14:20:54.000Z</time>
      </trkpt>
      <trkpt lat="44.22626" lon="2.97269">
        <ele>778</ele>
        <time>2019-10-11T14:20:55.000Z</time>
      </trkpt>
      <trkpt lat="44.22625" lon="2.97268">
        <ele>777</ele>
        <time>2019-10-11T14:20:56.000Z</time>
      </trkpt>
      <trkpt lat="44.22623" lon="2.97267">
        <ele>777</ele>
        <time>2019-10-11T14:20:57.000Z</time>
      </trkpt>
      <trkpt lat="44.22622" lon="2.97267">
        <ele>777</ele>
        <time>2019-10-11T14:20:58.000Z</time>
      </trkpt>
      <trkpt lat="44.2262" lon="2.97266">
        <ele>777</ele>
        <time>2019-10-11T14:20:59.000Z</time>
      </trkpt>
      <trkpt lat="44.22619" lon="2.97266">
        <ele>776</ele>
        <time>2019-10-11T14:21:00.000Z</time>
      </trkpt>
      <trkpt lat="44.22617" lon="2.97265">
        <ele>776</ele>
        <time>2019-10-11T14:21:01.000Z</time>
      </trkpt>
      <trkpt lat="44.22616" lon="2.97265">
        <ele>776</ele>
        <time>2019-10-11T14:21:02.000Z</time>
      </trkpt>
      <trkpt lat="44.22614" lon="2.97264">
        <ele>776</ele>
        <time>2019-10-11T14:21:03.000Z</time>
      </trkpt>
      <trkpt lat="44.22612" lon="2.97263">
        <ele>776</ele>
        <time>2019-10-11T14:21:04.000Z</time>
      </trkpt>
      <trkpt lat="44.22611" lon="2.97262">
        <ele>776</ele>
        <time>2019-10-11T14:21:05.000Z</time>
      </trkpt>
      <trkpt lat="44.22609" lon="2.97261">
        <ele>776</ele>
        <time>2019-10-11T14:21:06.000Z</time>
      </trkpt>
      <trkpt lat="44.22608" lon="2.97261">
        <ele>775</ele>
        <time>2019-10-11T14:21:07.000Z</time>
      </trkpt>
      <trkpt lat="44.22606" lon="2.9726">
        <ele>775</ele>
        <time>2019-10-11T14:21:08.000Z</time>
      </trkpt>
      <trkpt lat="44.22605" lon="2.97259">
        <ele>775</ele>
        <time>2019-10-11T14:21:09.000Z</time>
      </trkpt>
      <trkpt lat="44.22603" lon="2.97258">
        <ele>775</ele>
        <time>2019-10-11T14:21:10.000Z</time>
      </trkpt>
      <trkpt lat="44.22602" lon="2.97257">
        <ele>775</ele>
        <time>2019-10-11T14:21:11.000Z</time>
      </trkpt>
      <trkpt lat="44.226" lon="2.97257">
        <ele>775</ele>
        <time>2019-10-11T14:21:12.000Z</time>
      </trkpt>
      <trkpt lat="44.22598" lon="2.97256">
        <ele>775</ele>
        <time>2019-10-11T14:21:13.000Z</time>
      </trkpt>
      <trkpt lat="44.22597" lon="2.97256">
        <ele>774</ele>
        <time>2019-10-11T14:21:14.000Z</time>
      </trkpt>
      <trkpt lat="44.22595" lon="2.97255">
        <ele>774</ele>
        <time>2019-10-11T14:21:15.000Z</time>
      </trkpt>
      <trkpt lat="44.22593" lon="2.97254">
        <ele>774</ele>
        <time>2019-10-11T14:21:16.000Z</time>
      </trkpt>
      <trkpt lat="44.22592" lon="2.97253">
        <ele>774</ele>
        <time>2019-10-11T14:21:17.000Z</time>
      </trkpt>
      <trkpt lat="44.22591" lon="2.97252">
        <ele>774</ele>
        <time>2019-10-11T14:21:18.000Z</time>
      </trkpt>
      <trkpt lat="44.22589" lon="2.97251">
        <ele>774</ele>
        <time>2019-10-11T14:21:19.000Z</time>
      </trkpt>
      <trkpt lat="44.22588" lon="2.9725">
        <ele>774</ele>
        <time>2019-10-11T14:21:20.000Z</time>
      </trkpt>
      <trkpt lat="44.22587" lon="2.9725">
        <ele>773</ele>
        <time>2019-10-11T14:21:21.000Z</time>
      </trkpt>
      <trkpt lat="44.22585" lon="2.97249">
        <ele>773</ele>
        <time>2019-10-11T14:21:22.000Z</time>
      </trkpt>
      <trkpt lat="44.22584" lon="2.97248">
        <ele>773</ele>
        <time>2019-10-11T14:21:23.000Z</time>
      </trkpt>
      <trkpt lat="44.22582" lon="2.97247">
        <ele>773</ele>
        <time>2019-10-11T14:21:24.000Z</time>
      </trkpt>
      <trkpt lat="44.22581" lon="2.97246">
        <ele>773</ele>
        <time>2019-10-11T14:21:25.000Z</time>
      </trkpt>
      <trkpt lat="44.22579" lon="2.97245">
        <ele>773</ele>
        <time>2019-10-11T14:21:26.000Z</time>
      </trkpt>
      <trkpt lat="44.22578" lon="2.97244">
        <ele>773</ele>
        <time>2019-10-11T14:21:27.000Z</time>
      </trkpt>
      <trkpt lat="44.22576" lon="2.97243">
        <ele>772</ele>
        <time>2019-10-11T14:21:28.000Z</time>
      </trkpt>
      <trkpt lat="44.22575" lon="2.97242">
        <ele>772</ele>
        <time>2019-10-11T14:21:29.000Z</time>
      </trkpt>
      <trkpt lat="44.22573" lon="2.97241">
        <ele>772</ele>
        <time>2019-10-11T14:21:30.000Z</time>
      </trkpt>
      <trkpt lat="44.22571" lon="2.9724">
        <ele>772</ele>
        <time>2019-10-11T14:21:31.000Z</time>
      </trkpt>
      <trkpt lat="44.2257" lon="2.9724">
        <ele>772</ele>
        <time>2019-10-11T14:21:32.000Z</time>
      </trkpt>
      <trkpt lat="44.22568" lon="2.97239">
        <ele>772</ele>
        <time>2019-10-11T14:21:33.000Z</time>
      </trkpt>
      <trkpt lat="44.22567" lon="2.97238">
        <ele>772</ele>
        <time>2019-10-11T14:21:34.000Z</time>
      </trkpt>
      <trkpt lat="44.22565" lon="2.97237">
        <ele>772</ele>
        <time>2019-10-11T14:21:35.000Z</time>
      </trkpt>
      <trkpt lat="44.22564" lon="2.97237">
        <ele>772</ele>
        <time>2019-10-11T14:21:36.000Z</time>
      </trkpt>
      <trkpt lat="44.22562" lon="2.97236">
        <ele>772</ele>
        <time>2019-10-11T14:21:37.000Z</time>
      </trkpt>
      <trkpt lat="44.22561" lon="2.97235">
        <ele>772</ele>
        <time>2019-10-11T14:21:38.000Z</time>
      </trkpt>
      <trkpt lat="44.22559" lon="2.97234">
        <ele>772</ele>
        <time>2019-10-11T14:21:39.000Z</time>
      </trkpt>
      <trkpt lat="44.22558" lon="2.97233">
        <ele>772</ele>
        <time>2019-10-11T14:21:40.000Z</time>
      </trkpt>
      <trkpt lat="44.22556" lon="2.97232">
        <ele>772</ele>
        <time>2019-10-11T14:21:41.000Z</time>
      </trkpt>
      <trkpt lat="44.22555" lon="2.97231">
        <ele>772</ele>
        <time>2019-10-11T14:21:42.000Z</time>
      </trkpt>
      <trkpt lat="44.22554" lon="2.9723">
        <ele>772</ele>
        <time>2019-10-11T14:21:43.000Z</time>
      </trkpt>
      <trkpt lat="44.22552" lon="2.97229">
        <ele>772</ele>
        <time>2019-10-11T14:21:44.000Z</time>
      </trkpt>
      <trkpt lat="44.22551" lon="2.97227">
        <ele>772</ele>
        <time>2019-10-11T14:21:45.000Z</time>
      </trkpt>
      <trkpt lat="44.2255" lon="2.97226">
        <ele>772</ele>
        <time>2019-10-11T14:21:46.000Z</time>
      </trkpt>
      <trkpt lat="44.22549" lon="2.97225">
        <ele>771</ele>
        <time>2019-10-11T14:21:47.000Z</time>
      </trkpt>
      <trkpt lat="44.22547" lon="2.97224">
        <ele>771</ele>
        <time>2019-10-11T14:21:48.000Z</time>
      </trkpt>
      <trkpt lat="44.22546" lon="2.97223">
        <ele>771</ele>
        <time>2019-10-11T14:21:49.000Z</time>
      </trkpt>
      <trkpt lat="44.22545" lon="2.97221">
        <ele>771</ele>
        <time>2019-10-11T14:21:50.000Z</time>
      </trkpt>
      <trkpt lat="44.22543" lon="2.9722">
        <ele>771</ele>
        <time>2019-10-11T14:21:51.000Z</time>
      </trkpt>
      <trkpt lat="44.22542" lon="2.97219">
        <ele>771</ele>
        <time>2019-10-11T14:21:52.000Z</time>
      </trkpt>
      <trkpt lat="44.22541" lon="2.97218">
        <ele>771</ele>
        <time>2019-10-11T14:21:53.000Z</time>
      </trkpt>
      <trkpt lat="44.2254" lon="2.97217">
        <ele>771</ele>
        <time>2019-10-11T14:21:54.000Z</time>
      </trkpt>
      <trkpt lat="44.22539" lon="2.97216">
        <ele>771</ele>
        <time>2019-10-11T14:21:55.000Z</time>
      </trkpt>
      <trkpt lat="44.22538" lon="2.97215">
        <ele>771</ele>
        <time>2019-10-11T14:21:56.000Z</time>
      </trkpt>
      <trkpt lat="44.22537" lon="2.97214">
        <ele>771</ele>
        <time>2019-10-11T14:21:57.000Z</time>
      </trkpt>
      <trkpt lat="44.22536" lon="2.97213">
        <ele>771</ele>
        <time>2019-10-11T14:21:58.000Z</time>
      </trkpt>
      <trkpt lat="44.22535" lon="2.97212">
        <ele>771</ele>
        <time>2019-10-11T14:21:59.000Z</time>
      </trkpt>
      <trkpt lat="44.22533" lon="2.97211">
        <ele>771</ele>
        <time>2019-10-11T14:22:00.000Z</time>
      </trkpt>
      <trkpt lat="44.22532" lon="2.9721">
        <ele>771</ele>
        <time>2019-10-11T14:22:01.000Z</time>
      </trkpt>
      <trkpt lat="44.2253" lon="2.9721">
        <ele>771</ele>
        <time>2019-10-11T14:22:02.000Z</time>
      </trkpt>
      <trkpt lat="44.22529" lon="2.9721">
        <ele>771</ele>
        <time>2019-10-11T14:22:03.000Z</time>
      </trkpt>
      <trkpt lat="44.22527" lon="2.97209">
        <ele>771</ele>
        <time>2019-10-11T14:22:04.000Z</time>
      </trkpt>
      <trkpt lat="44.22525" lon="2.97209">
        <ele>770</ele>
        <time>2019-10-11T14:22:05.000Z</time>
      </trkpt>
      <trkpt lat="44.22524" lon="2.97209">
        <ele>770</ele>
        <time>2019-10-11T14:22:06.000Z</time>
      </trkpt>
      <trkpt lat="44.22522" lon="2.97209">
        <ele>770</ele>
        <time>2019-10-11T14:22:07.000Z</time>
      </trkpt>
      <trkpt lat="44.22521" lon="2.97209">
        <ele>770</ele>
        <time>2019-10-11T14:22:08.000Z</time>
      </trkpt>
      <trkpt lat="44.22519" lon="2.97208">
        <ele>770</ele>
        <time>2019-10-11T14:22:09.000Z</time>
      </trkpt>
      <trkpt lat="44.22518" lon="2.97208">
        <ele>770</ele>
        <time>2019-10-11T14:22:10.000Z</time>
      </trkpt>
      <trkpt lat="44.22516" lon="2.97208">
        <ele>769</ele>
        <time>2019-10-11T14:22:11.000Z</time>
      </trkpt>
      <trkpt lat="44.22515" lon="2.97208">
        <ele>769</ele>
        <time>2019-10-11T14:22:12.000Z</time>
      </trkpt>
      <trkpt lat="44.22513" lon="2.97209">
        <ele>769</ele>
        <time>2019-10-11T14:22:13.000Z</time>
      </trkpt>
      <trkpt lat="44.22512" lon="2.97209">
        <ele>769</ele>
        <time>2019-10-11T14:22:14.000Z</time>
      </trkpt>
      <trkpt lat="44.2251" lon="2.9721">
        <ele>769</ele>
        <time>2019-10-11T14:22:15.000Z</time>
      </trkpt>
      <trkpt lat="44.22509" lon="2.97211">
        <ele>769</ele>
        <time>2019-10-11T14:22:16.000Z</time>
      </trkpt>
      <trkpt lat="44.22507" lon="2.97211">
        <ele>769</ele>
        <time>2019-10-11T14:22:17.000Z</time>
      </trkpt>
      <trkpt lat="44.22506" lon="2.97211">
        <ele>769</ele>
        <time>2019-10-11T14:22:18.000Z</time>
      </trkpt>
      <trkpt lat="44.22504" lon="2.97211">
        <ele>769</ele>
        <time>2019-10-11T14:22:19.000Z</time>
      </trkpt>
      <trkpt lat="44.22502" lon="2.97211">
        <ele>769</ele>
        <time>2019-10-11T14:22:20.000Z</time>
      </trkpt>
      <trkpt lat="44.22501" lon="2.97212">
        <ele>769</ele>
        <time>2019-10-11T14:22:21.000Z</time>
      </trkpt>
      <trkpt lat="44.225" lon="2.97212">
        <ele>769</ele>
        <time>2019-10-11T14:22:22.000Z</time>
      </trkpt>
      <trkpt lat="44.22498" lon="2.97212">
        <ele>769</ele>
        <time>2019-10-11T14:22:23.000Z</time>
      </trkpt>
      <trkpt lat="44.22497" lon="2.97213">
        <ele>768</ele>
        <time>2019-10-11T14:22:24.000Z</time>
      </trkpt>
      <trkpt lat="44.22495" lon="2.97214">
        <ele>768</ele>
        <time>2019-10-11T14:22:25.000Z</time>
      </trkpt>
      <trkpt lat="44.22494" lon="2.97214">
        <ele>768</ele>
        <time>2019-10-11T14:22:26.000Z</time>
      </trkpt>
      <trkpt lat="44.22492" lon="2.97215">
        <ele>768</ele>
        <time>2019-10-11T14:22:27.000Z</time>
      </trkpt>
      <trkpt lat="44.2249" lon="2.97215">
        <ele>768</ele>
        <time>2019-10-11T14:22:28.000Z</time>
      </trkpt>
      <trkpt lat="44.22489" lon="2.97216">
        <ele>769</ele>
        <time>2019-10-11T14:22:29.000Z</time>
      </trkpt>
      <trkpt lat="44.22487" lon="2.97216">
        <ele>769</ele>
        <time>2019-10-11T14:22:30.000Z</time>
      </trkpt>
      <trkpt lat="44.22486" lon="2.97217">
        <ele>769</ele>
        <time>2019-10-11T14:22:31.000Z</time>
      </trkpt>
      <trkpt lat="44.22484" lon="2.97217">
        <ele>769</ele>
        <time>2019-10-11T14:22:32.000Z</time>
      </trkpt>
      <trkpt lat="44.22482" lon="2.97217">
        <ele>768</ele>
        <time>2019-10-11T14:22:33.000Z</time>
      </trkpt>
      <trkpt lat="44.2248" lon="2.97218">
        <ele>768</ele>
        <time>2019-10-11T14:22:34.000Z</time>
      </trkpt>
      <trkpt lat="44.22479" lon="2.97218">
        <ele>768</ele>
        <time>2019-10-11T14:22:35.000Z</time>
      </trkpt>
      <trkpt lat="44.22477" lon="2.97218">
        <ele>768</ele>
        <time>2019-10-11T14:22:36.000Z</time>
      </trkpt>
      <trkpt lat="44.22475" lon="2.97219">
        <ele>767</ele>
        <time>2019-10-11T14:22:37.000Z</time>
      </trkpt>
      <trkpt lat="44.22474" lon="2.97219">
        <ele>767</ele>
        <time>2019-10-11T14:22:38.000Z</time>
      </trkpt>
      <trkpt lat="44.22472" lon="2.9722">
        <ele>767</ele>
        <time>2019-10-11T14:22:39.000Z</time>
      </trkpt>
      <trkpt lat="44.22471" lon="2.97221">
        <ele>767</ele>
        <time>2019-10-11T14:22:40.000Z</time>
      </trkpt>
      <trkpt lat="44.22469" lon="2.97221">
        <ele>766</ele>
        <time>2019-10-11T14:22:41.000Z</time>
      </trkpt>
      <trkpt lat="44.22468" lon="2.97221">
        <ele>766</ele>
        <time>2019-10-11T14:22:42.000Z</time>
      </trkpt>
      <trkpt lat="44.22466" lon="2.97222">
        <ele>766</ele>
        <time>2019-10-11T14:22:43.000Z</time>
      </trkpt>
      <trkpt lat="44.22465" lon="2.97223">
        <ele>765</ele>
        <time>2019-10-11T14:22:44.000Z</time>
      </trkpt>
      <trkpt lat="44.22463" lon="2.97224">
        <ele>765</ele>
        <time>2019-10-11T14:22:45.000Z</time>
      </trkpt>
      <trkpt lat="44.22462" lon="2.97224">
        <ele>765</ele>
        <time>2019-10-11T14:22:46.000Z</time>
      </trkpt>
      <trkpt lat="44.2246" lon="2.97224">
        <ele>764</ele>
        <time>2019-10-11T14:22:47.000Z</time>
      </trkpt>
      <trkpt lat="44.22458" lon="2.97224">
        <ele>764</ele>
        <time>2019-10-11T14:22:48.000Z</time>
      </trkpt>
      <trkpt lat="44.22456" lon="2.97224">
        <ele>764</ele>
        <time>2019-10-11T14:22:49.000Z</time>
      </trkpt>
      <trkpt lat="44.22455" lon="2.97224">
        <ele>763</ele>
        <time>2019-10-11T14:22:50.000Z</time>
      </trkpt>
      <trkpt lat="44.22453" lon="2.97224">
        <ele>763</ele>
        <time>2019-10-11T14:22:51.000Z</time>
      </trkpt>
      <trkpt lat="44.22452" lon="2.97224">
        <ele>762</ele>
        <time>2019-10-11T14:22:52.000Z</time>
      </trkpt>
      <trkpt lat="44.2245" lon="2.97224">
        <ele>762</ele>
        <time>2019-10-11T14:22:53.000Z</time>
      </trkpt>
      <trkpt lat="44.22449" lon="2.97224">
        <ele>762</ele>
        <time>2019-10-11T14:22:54.000Z</time>
      </trkpt>
      <trkpt lat="44.22447" lon="2.97224">
        <ele>762</ele>
        <time>2019-10-11T14:22:55.000Z</time>
      </trkpt>
      <trkpt lat="44.22446" lon="2.97224">
        <ele>761</ele>
        <time>2019-10-11T14:22:56.000Z</time>
      </trkpt>
      <trkpt lat="44.22445" lon="2.97224">
        <ele>761</ele>
        <time>2019-10-11T14:22:57.000Z</time>
      </trkpt>
      <trkpt lat="44.22444" lon="2.97225">
        <ele>761</ele>
        <time>2019-10-11T14:22:58.000Z</time>
      </trkpt>
      <trkpt lat="44.22444" lon="2.97225">
        <ele>761</ele>
        <time>2019-10-11T14:22:59.000Z</time>
      </trkpt>
      <trkpt lat="44.22444" lon="2.97225">
        <ele>761</ele>
        <time>2019-10-11T14:23:00.000Z</time>
      </trkpt>
      <trkpt lat="44.22444" lon="2.97225">
        <ele>761</ele>
        <time>2019-10-11T14:23:01.000Z</time>
      </trkpt>
      <trkpt lat="44.22444" lon="2.97225">
        <ele>760</ele>
        <time>2019-10-11T14:23:02.000Z</time>
      </trkpt>
      <trkpt lat="44.22444" lon="2.97225">
        <ele>760</ele>
        <time>2019-10-11T14:23:03.000Z</time>
      </trkpt>
      <trkpt lat="44.22443" lon="2.97225">
        <ele>760</ele>
        <time>2019-10-11T14:23:04.000Z</time>
      </trkpt>
      <trkpt lat="44.22442" lon="2.97226">
        <ele>760</ele>
        <time>2019-10-11T14:23:05.000Z</time>
      </trkpt>
      <trkpt lat="44.22441" lon="2.97227">
        <ele>760</ele>
        <time>2019-10-11T14:23:06.000Z</time>
      </trkpt>
      <trkpt lat="44.2244" lon="2.97228">
        <ele>760</ele>
        <time>2019-10-11T14:23:07.000Z</time>
      </trkpt>
      <trkpt lat="44.22439" lon="2.9723">
        <ele>760</ele>
        <time>2019-10-11T14:23:08.000Z</time>
      </trkpt>
      <trkpt lat="44.22438" lon="2.97231">
        <ele>760</ele>
        <time>2019-10-11T14:23:09.000Z</time>
      </trkpt>
      <trkpt lat="44.22437" lon="2.97233">
        <ele>759</ele>
        <time>2019-10-11T14:23:10.000Z</time>
      </trkpt>
      <trkpt lat="44.22436" lon="2.97234">
        <ele>759</ele>
        <time>2019-10-11T14:23:11.000Z</time>
      </trkpt>
      <trkpt lat="44.22435" lon="2.97236">
        <ele>759</ele>
        <time>2019-10-11T14:23:12.000Z</time>
      </trkpt>
      <trkpt lat="44.22433" lon="2.97237">
        <ele>759</ele>
        <time>2019-10-11T14:23:13.000Z</time>
      </trkpt>
      <trkpt lat="44.22432" lon="2.97239">
        <ele>759</ele>
        <time>2019-10-11T14:23:14.000Z</time>
      </trkpt>
      <trkpt lat="44.22431" lon="2.97241">
        <ele>759</ele>
        <time>2019-10-11T14:23:15.000Z</time>
      </trkpt>
      <trkpt lat="44.2243" lon="2.97243">
        <ele>759</ele>
        <time>2019-10-11T14:23:16.000Z</time>
      </trkpt>
      <trkpt lat="44.22428" lon="2.97245">
        <ele>759</ele>
        <time>2019-10-11T14:23:17.000Z</time>
      </trkpt>
      <trkpt lat="44.22427" lon="2.97247">
        <ele>759</ele>
        <time>2019-10-11T14:23:18.000Z</time>
      </trkpt>
      <trkpt lat="44.22426" lon="2.97248">
        <ele>759</ele>
        <time>2019-10-11T14:23:19.000Z</time>
      </trkpt>
      <trkpt lat="44.22425" lon="2.9725">
        <ele>758</ele>
        <time>2019-10-11T14:23:20.000Z</time>
      </trkpt>
      <trkpt lat="44.22424" lon="2.97252">
        <ele>758</ele>
        <time>2019-10-11T14:23:21.000Z</time>
      </trkpt>
      <trkpt lat="44.22423" lon="2.97254">
        <ele>758</ele>
        <time>2019-10-11T14:23:22.000Z</time>
      </trkpt>
      <trkpt lat="44.22421" lon="2.97256">
        <ele>758</ele>
        <time>2019-10-11T14:23:23.000Z</time>
      </trkpt>
      <trkpt lat="44.2242" lon="2.97257">
        <ele>758</ele>
        <time>2019-10-11T14:23:24.000Z</time>
      </trkpt>
      <trkpt lat="44.22419" lon="2.97259">
        <ele>758</ele>
        <time>2019-10-11T14:23:25.000Z</time>
      </trkpt>
      <trkpt lat="44.22418" lon="2.97261">
        <ele>758</ele>
        <time>2019-10-11T14:23:26.000Z</time>
      </trkpt>
      <trkpt lat="44.22417" lon="2.97262">
        <ele>758</ele>
        <time>2019-10-11T14:23:27.000Z</time>
      </trkpt>
      <trkpt lat="44.22416" lon="2.97264">
        <ele>758</ele>
        <time>2019-10-11T14:23:28.000Z</time>
      </trkpt>
      <trkpt lat="44.22415" lon="2.97265">
        <ele>758</ele>
        <time>2019-10-11T14:23:29.000Z</time>
      </trkpt>
      <trkpt lat="44.22414" lon="2.97267">
        <ele>758</ele>
        <time>2019-10-11T14:23:30.000Z</time>
      </trkpt>
      <trkpt lat="44.22413" lon="2.97269">
        <ele>758</ele>
        <time>2019-10-11T14:23:31.000Z</time>
      </trkpt>
      <trkpt lat="44.22411" lon="2.97271">
        <ele>758</ele>
        <time>2019-10-11T14:23:32.000Z</time>
      </trkpt>
      <trkpt lat="44.2241" lon="2.97273">
        <ele>758</ele>
        <time>2019-10-11T14:23:33.000Z</time>
      </trkpt>
      <trkpt lat="44.22409" lon="2.97274">
        <ele>758</ele>
        <time>2019-10-11T14:23:34.000Z</time>
      </trkpt>
      <trkpt lat="44.22408" lon="2.97276">
        <ele>758</ele>
        <time>2019-10-11T14:23:35.000Z</time>
      </trkpt>
      <trkpt lat="44.22406" lon="2.97277">
        <ele>758</ele>
        <time>2019-10-11T14:23:36.000Z</time>
      </trkpt>
      <trkpt lat="44.22405" lon="2.97279">
        <ele>757</ele>
        <time>2019-10-11T14:23:37.000Z</time>
      </trkpt>
      <trkpt lat="44.22404" lon="2.97281">
        <ele>757</ele>
        <time>2019-10-11T14:23:38.000Z</time>
      </trkpt>
      <trkpt lat="44.22403" lon="2.97282">
        <ele>757</ele>
        <time>2019-10-11T14:23:39.000Z</time>
      </trkpt>
      <trkpt lat="44.22401" lon="2.97284">
        <ele>757</ele>
        <time>2019-10-11T14:23:40.000Z</time>
      </trkpt>
      <trkpt lat="44.224" lon="2.97286">
        <ele>757</ele>
        <time>2019-10-11T14:23:41.000Z</time>
      </trkpt>
      <trkpt lat="44.22399" lon="2.97287">
        <ele>757</ele>
        <time>2019-10-11T14:23:42.000Z</time>
      </trkpt>
      <trkpt lat="44.22397" lon="2.97289">
        <ele>757</ele>
        <time>2019-10-11T14:23:43.000Z</time>
      </trkpt>
      <trkpt lat="44.22396" lon="2.97291">
        <ele>757</ele>
        <time>2019-10-11T14:23:44.000Z</time>
      </trkpt>
      <trkpt lat="44.22395" lon="2.97292">
        <ele>757</ele>
        <time>2019-10-11T14:23:45.000Z</time>
      </trkpt>
      <trkpt lat="44.22394" lon="2.97294">
        <ele>757</ele>
        <time>2019-10-11T14:23:46.000Z</time>
      </trkpt>
      <trkpt lat="44.22393" lon="2.97296">
        <ele>757</ele>
        <time>2019-10-11T14:23:47.000Z</time>
      </trkpt>
      <trkpt lat="44.22392" lon="2.97297">
        <ele>757</ele>
        <time>2019-10-11T14:23:48.000Z</time>
      </trkpt>
      <trkpt lat="44.2239" lon="2.97299">
        <ele>757</ele>
        <time>2019-10-11T14:23:49.000Z</time>
      </trkpt>
      <trkpt lat="44.22389" lon="2.973">
        <ele>757</ele>
        <time>2019-10-11T14:23:50.000Z</time>
      </trkpt>
      <trkpt lat="44.22388" lon="2.97302">
        <ele>757</ele>
        <time>2019-10-11T14:23:51.000Z</time>
      </trkpt>
      <trkpt lat="44.22387" lon="2.97303">
        <ele>757</ele>
        <time>2019-10-11T14:23:52.000Z</time>
      </trkpt>
      <trkpt lat="44.22386" lon="2.97305">
        <ele>757</ele>
        <time>2019-10-11T14:23:53.000Z</time>
      </trkpt>
      <trkpt lat="44.22385" lon="2.97307">
        <ele>757</ele>
        <time>2019-10-11T14:23:54.000Z</time>
      </trkpt>
      <trkpt lat="44.22384" lon="2.97308">
        <ele>757</ele>
        <time>2019-10-11T14:23:55.000Z</time>
      </trkpt>
      <trkpt lat="44.22383" lon="2.9731">
        <ele>757</ele>
        <time>2019-10-11T14:23:56.000Z</time>
      </trkpt>
      <trkpt lat="44.22382" lon="2.97311">
        <ele>757</ele>
        <time>2019-10-11T14:23:57.000Z</time>
      </trkpt>
      <trkpt lat="44.22381" lon="2.97313">
        <ele>757</ele>
        <time>2019-10-11T14:23:58.000Z</time>
      </trkpt>
      <trkpt lat="44.2238" lon="2.97315">
        <ele>757</ele>
        <time>2019-10-11T14:23:59.000Z</time>
      </trkpt>
      <trkpt lat="44.22379" lon="2.97316">
        <ele>757</ele>
        <time>2019-10-11T14:24:00.000Z</time>
      </trkpt>
      <trkpt lat="44.22378" lon="2.97316">
        <ele>756</ele>
        <time>2019-10-11T14:24:01.000Z</time>
      </trkpt>
      <trkpt lat="44.22376" lon="2.97316">
        <ele>756</ele>
        <time>2019-10-11T14:24:02.000Z</time>
      </trkpt>
      <trkpt lat="44.22375" lon="2.97316">
        <ele>756</ele>
        <time>2019-10-11T14:24:03.000Z</time>
      </trkpt>
      <trkpt lat="44.22374" lon="2.97315">
        <ele>756</ele>
        <time>2019-10-11T14:24:04.000Z</time>
      </trkpt>
      <trkpt lat="44.22373" lon="2.97314">
        <ele>757</ele>
        <time>2019-10-11T14:24:05.000Z</time>
      </trkpt>
      <trkpt lat="44.22373" lon="2.97313">
        <ele>757</ele>
        <time>2019-10-11T14:24:06.000Z</time>
      </trkpt>
      <trkpt lat="44.22372" lon="2.97312">
        <ele>757</ele>
        <time>2019-10-11T14:24:07.000Z</time>
      </trkpt>
      <trkpt lat="44.22372" lon="2.9731">
        <ele>757</ele>
        <time>2019-10-11T14:24:08.000Z</time>
      </trkpt>
      <trkpt lat="44.22372" lon="2.97308">
        <ele>757</ele>
        <time>2019-10-11T14:24:09.000Z</time>
      </trkpt>
      <trkpt lat="44.22371" lon="2.97307">
        <ele>757</ele>
        <time>2019-10-11T14:24:10.000Z</time>
      </trkpt>
      <trkpt lat="44.22371" lon="2.97305">
        <ele>757</ele>
        <time>2019-10-11T14:24:11.000Z</time>
      </trkpt>
      <trkpt lat="44.22371" lon="2.97303">
        <ele>757</ele>
        <time>2019-10-11T14:24:12.000Z</time>
      </trkpt>
      <trkpt lat="44.2237" lon="2.97301">
        <ele>757</ele>
        <time>2019-10-11T14:24:13.000Z</time>
      </trkpt>
      <trkpt lat="44.2237" lon="2.97299">
        <ele>757</ele>
        <time>2019-10-11T14:24:14.000Z</time>
      </trkpt>
      <trkpt lat="44.22369" lon="2.97298">
        <ele>758</ele>
        <time>2019-10-11T14:24:15.000Z</time>
      </trkpt>
      <trkpt lat="44.22369" lon="2.97296">
        <ele>758</ele>
        <time>2019-10-11T14:24:16.000Z</time>
      </trkpt>
      <trkpt lat="44.22369" lon="2.97294">
        <ele>758</ele>
        <time>2019-10-11T14:24:17.000Z</time>
      </trkpt>
      <trkpt lat="44.22368" lon="2.97292">
        <ele>758</ele>
        <time>2019-10-11T14:24:18.000Z</time>
      </trkpt>
      <trkpt lat="44.22368" lon="2.9729">
        <ele>758</ele>
        <time>2019-10-11T14:24:19.000Z</time>
      </trkpt>
      <trkpt lat="44.22367" lon="2.97288">
        <ele>758</ele>
        <time>2019-10-11T14:24:20.000Z</time>
      </trkpt>
      <trkpt lat="44.22367" lon="2.97286">
        <ele>758</ele>
        <time>2019-10-11T14:24:21.000Z</time>
      </trkpt>
      <trkpt lat="44.22367" lon="2.97284">
        <ele>759</ele>
        <time>2019-10-11T14:24:22.000Z</time>
      </trkpt>
      <trkpt lat="44.22366" lon="2.97283">
        <ele>759</ele>
        <time>2019-10-11T14:24:23.000Z</time>
      </trkpt>
      <trkpt lat="44.22366" lon="2.97281">
        <ele>759</ele>
        <time>2019-10-11T14:24:24.000Z</time>
      </trkpt>
      <trkpt lat="44.22366" lon="2.97279">
        <ele>759</ele>
        <time>2019-10-11T14:24:25.000Z</time>
      </trkpt>
      <trkpt lat="44.22365" lon="2.97277">
        <ele>759</ele>
        <time>2019-10-11T14:24:26.000Z</time>
      </trkpt>
      <trkpt lat="44.22365" lon="2.97275">
        <ele>759</ele>
        <time>2019-10-11T14:24:27.000Z</time>
      </trkpt>
      <trkpt lat="44.22365" lon="2.97273">
        <ele>759</ele>
        <time>2019-10-11T14:24:28.000Z</time>
      </trkpt>
      <trkpt lat="44.22365" lon="2.97271">
        <ele>760</ele>
        <time>2019-10-11T14:24:29.000Z</time>
      </trkpt>
      <trkpt lat="44.22366" lon="2.97268">
        <ele>760</ele>
        <time>2019-10-11T14:24:30.000Z</time>
      </trkpt>
      <trkpt lat="44.22366" lon="2.97266">
        <ele>760</ele>
        <time>2019-10-11T14:24:31.000Z</time>
      </trkpt>
      <trkpt lat="44.22366" lon="2.97264">
        <ele>760</ele>
        <time>2019-10-11T14:24:32.000Z</time>
      </trkpt>
      <trkpt lat="44.22366" lon="2.97261">
        <ele>760</ele>
        <time>2019-10-11T14:24:33.000Z</time>
      </trkpt>
      <trkpt lat="44.22366" lon="2.97257">
        <ele>760</ele>
        <time>2019-10-11T14:24:34.000Z</time>
      </trkpt>
      <trkpt lat="44.22366" lon="2.97253">
        <ele>760</ele>
        <time>2019-10-11T14:24:35.000Z</time>
      </trkpt>
      <trkpt lat="44.22366" lon="2.97248">
        <ele>760</ele>
        <time>2019-10-11T14:24:36.000Z</time>
      </trkpt>
      <trkpt lat="44.22365" lon="2.97243">
        <ele>760</ele>
        <time>2019-10-11T14:24:37.000Z</time>
      </trkpt>
      <trkpt lat="44.22365" lon="2.97237">
        <ele>761</ele>
        <time>2019-10-11T14:24:38.000Z</time>
      </trkpt>
      <trkpt lat="44.22365" lon="2.97231">
        <ele>761</ele>
        <time>2019-10-11T14:24:39.000Z</time>
      </trkpt>
      <trkpt lat="44.22365" lon="2.97226">
        <ele>761</ele>
        <time>2019-10-11T14:24:40.000Z</time>
      </trkpt>
      <trkpt lat="44.22365" lon="2.9722">
        <ele>762</ele>
        <time>2019-10-11T14:24:41.000Z</time>
      </trkpt>
      <trkpt lat="44.22365" lon="2.97214">
        <ele>762</ele>
        <time>2019-10-11T14:24:42.000Z</time>
      </trkpt>
      <trkpt lat="44.22365" lon="2.97208">
        <ele>762</ele>
        <time>2019-10-11T14:24:43.000Z</time>
      </trkpt>
      <trkpt lat="44.22364" lon="2.97202">
        <ele>763</ele>
        <time>2019-10-11T14:24:44.000Z</time>
      </trkpt>
      <trkpt lat="44.22364" lon="2.97196">
        <ele>763</ele>
        <time>2019-10-11T14:24:45.000Z</time>
      </trkpt>
      <trkpt lat="44.22363" lon="2.9719">
        <ele>763</ele>
        <time>2019-10-11T14:24:46.000Z</time>
      </trkpt>
      <trkpt lat="44.22363" lon="2.97183">
        <ele>763</ele>
        <time>2019-10-11T14:24:47.000Z</time>
      </trkpt>
      <trkpt lat="44.22362" lon="2.97177">
        <ele>764</ele>
        <time>2019-10-11T14:24:48.000Z</time>
      </trkpt>
      <trkpt lat="44.22361" lon="2.97171">
        <ele>764</ele>
        <time>2019-10-11T14:24:49.000Z</time>
      </trkpt>
      <trkpt lat="44.2236" lon="2.97165">
        <ele>764</ele>
        <time>2019-10-11T14:24:50.000Z</time>
      </trkpt>
      <trkpt lat="44.22359" lon="2.97158">
        <ele>764</ele>
        <time>2019-10-11T14:24:51.000Z</time>
      </trkpt>
      <trkpt lat="44.22358" lon="2.97152">
        <ele>765</ele>
        <time>2019-10-11T14:24:52.000Z</time>
      </trkpt>
      <trkpt lat="44.22356" lon="2.97146">
        <ele>765</ele>
        <time>2019-10-11T14:24:53.000Z</time>
      </trkpt>
      <trkpt lat="44.22355" lon="2.97139">
        <ele>765</ele>
        <time>2019-10-11T14:24:54.000Z</time>
      </trkpt>
      <trkpt lat="44.22355" lon="2.97132">
        <ele>765</ele>
        <time>2019-10-11T14:24:55.000Z</time>
      </trkpt>
      <trkpt lat="44.22354" lon="2.97125">
        <ele>765</ele>
        <time>2019-10-11T14:24:56.000Z</time>
      </trkpt>
      <trkpt lat="44.22355" lon="2.97118">
        <ele>765</ele>
        <time>2019-10-11T14:24:57.000Z</time>
      </trkpt>
      <trkpt lat="44.22356" lon="2.97111">
        <ele>765</ele>
        <time>2019-10-11T14:24:58.000Z</time>
      </trkpt>
      <trkpt lat="44.22357" lon="2.97105">
        <ele>765</ele>
        <time>2019-10-11T14:24:59.000Z</time>
      </trkpt>
      <trkpt lat="44.22359" lon="2.97099">
        <ele>765</ele>
        <time>2019-10-11T14:25:00.000Z</time>
      </trkpt>
      <trkpt lat="44.22362" lon="2.97093">
        <ele>765</ele>
        <time>2019-10-11T14:25:01.000Z</time>
      </trkpt>
      <trkpt lat="44.22365" lon="2.97088">
        <ele>765</ele>
        <time>2019-10-11T14:25:02.000Z</time>
      </trkpt>
      <trkpt lat="44.22368" lon="2.97083">
        <ele>765</ele>
        <time>2019-10-11T14:25:03.000Z</time>
      </trkpt>
      <trkpt lat="44.22372" lon="2.97079">
        <ele>765</ele>
        <time>2019-10-11T14:25:04.000Z</time>
      </trkpt>
      <trkpt lat="44.22375" lon="2.97076">
        <ele>765</ele>
        <time>2019-10-11T14:25:05.000Z</time>
      </trkpt>
      <trkpt lat="44.22379" lon="2.97073">
        <ele>765</ele>
        <time>2019-10-11T14:25:06.000Z</time>
      </trkpt>
      <trkpt lat="44.22384" lon="2.97071">
        <ele>764</ele>
        <time>2019-10-11T14:25:07.000Z</time>
      </trkpt>
      <trkpt lat="44.22389" lon="2.97069">
        <ele>764</ele>
        <time>2019-10-11T14:25:08.000Z</time>
      </trkpt>
      <trkpt lat="44.22395" lon="2.97067">
        <ele>764</ele>
        <time>2019-10-11T14:25:09.000Z</time>
      </trkpt>
      <trkpt lat="44.22402" lon="2.97064">
        <ele>764</ele>
        <time>2019-10-11T14:25:10.000Z</time>
      </trkpt>
      <trkpt lat="44.22408" lon="2.97061">
        <ele>764</ele>
        <time>2019-10-11T14:25:11.000Z</time>
      </trkpt>
      <trkpt lat="44.22415" lon="2.97057">
        <ele>764</ele>
        <time>2019-10-11T14:25:12.000Z</time>
      </trkpt>
      <trkpt lat="44.22422" lon="2.97052">
        <ele>764</ele>
        <time>2019-10-11T14:25:13.000Z</time>
      </trkpt>
      <trkpt lat="44.2243" lon="2.97047">
        <ele>763</ele>
        <time>2019-10-11T14:25:14.000Z</time>
      </trkpt>
      <trkpt lat="44.22439" lon="2.97041">
        <ele>763</ele>
        <time>2019-10-11T14:25:15.000Z</time>
      </trkpt>
      <trkpt lat="44.22447" lon="2.97035">
        <ele>763</ele>
        <time>2019-10-11T14:25:16.000Z</time>
      </trkpt>
      <trkpt lat="44.22456" lon="2.97028">
        <ele>763</ele>
        <time>2019-10-11T14:25:17.000Z</time>
      </trkpt>
      <trkpt lat="44.22464" lon="2.97021">
        <ele>763</ele>
        <time>2019-10-11T14:25:18.000Z</time>
      </trkpt>
      <trkpt lat="44.22473" lon="2.97014">
        <ele>764</ele>
        <time>2019-10-11T14:25:19.000Z</time>
      </trkpt>
      <trkpt lat="44.2248" lon="2.97007">
        <ele>764</ele>
        <time>2019-10-11T14:25:20.000Z</time>
      </trkpt>
      <trkpt lat="44.22487" lon="2.96999">
        <ele>764</ele>
        <time>2019-10-11T14:25:21.000Z</time>
      </trkpt>
      <trkpt lat="44.22494" lon="2.9699">
        <ele>764</ele>
        <time>2019-10-11T14:25:22.000Z</time>
      </trkpt>
      <trkpt lat="44.225" lon="2.96981">
        <ele>765</ele>
        <time>2019-10-11T14:25:23.000Z</time>
      </trkpt>
      <trkpt lat="44.22506" lon="2.96972">
        <ele>766</ele>
        <time>2019-10-11T14:25:24.000Z</time>
      </trkpt>
      <trkpt lat="44.22512" lon="2.96964">
        <ele>766</ele>
        <time>2019-10-11T14:25:25.000Z</time>
      </trkpt>
      <trkpt lat="44.22517" lon="2.96955">
        <ele>767</ele>
        <time>2019-10-11T14:25:26.000Z</time>
      </trkpt>
      <trkpt lat="44.22523" lon="2.96946">
        <ele>767</ele>
        <time>2019-10-11T14:25:27.000Z</time>
      </trkpt>
      <trkpt lat="44.22528" lon="2.96937">
        <ele>768</ele>
        <time>2019-10-11T14:25:28.000Z</time>
      </trkpt>
      <trkpt lat="44.22533" lon="2.96929">
        <ele>768</ele>
        <time>2019-10-11T14:25:29.000Z</time>
      </trkpt>
      <trkpt lat="44.22537" lon="2.9692">
        <ele>769</ele>
        <time>2019-10-11T14:25:30.000Z</time>
      </trkpt>
      <trkpt lat="44.22542" lon="2.96911">
        <ele>770</ele>
        <time>2019-10-11T14:25:31.000Z</time>
      </trkpt>
      <trkpt lat="44.22547" lon="2.96903">
        <ele>770</ele>
        <time>2019-10-11T14:25:32.000Z</time>
      </trkpt>
      <trkpt lat="44.22551" lon="2.96895">
        <ele>771</ele>
        <time>2019-10-11T14:25:33.000Z</time>
      </trkpt>
      <trkpt lat="44.22556" lon="2.96888">
        <ele>771</ele>
        <time>2019-10-11T14:25:34.000Z</time>
      </trkpt>
      <trkpt lat="44.2256" lon="2.9688">
        <ele>772</ele>
        <time>2019-10-11T14:25:35.000Z</time>
      </trkpt>
      <trkpt lat="44.22564" lon="2.96872">
        <ele>772</ele>
        <time>2019-10-11T14:25:36.000Z</time>
      </trkpt>
      <trkpt lat="44.22568" lon="2.96865">
        <ele>773</ele>
        <time>2019-10-11T14:25:37.000Z</time>
      </trkpt>
      <trkpt lat="44.22573" lon="2.96858">
        <ele>773</ele>
        <time>2019-10-11T14:25:38.000Z</time>
      </trkpt>
      <trkpt lat="44.22577" lon="2.96851">
        <ele>774</ele>
        <time>2019-10-11T14:25:39.000Z</time>
      </trkpt>
      <trkpt lat="44.22582" lon="2.96844">
        <ele>774</ele>
        <time>2019-10-11T14:25:40.000Z</time>
      </trkpt>
      <trkpt lat="44.22586" lon="2.96837">
        <ele>775</ele>
        <time>2019-10-11T14:25:41.000Z</time>
      </trkpt>
      <trkpt lat="44.22591" lon="2.9683">
        <ele>775</ele>
        <time>2019-10-11T14:25:42.000Z</time>
      </trkpt>
      <trkpt lat="44.22595" lon="2.96823">
        <ele>775</ele>
        <time>2019-10-11T14:25:43.000Z</time>
      </trkpt>
      <trkpt lat="44.226" lon="2.96817">
        <ele>776</ele>
        <time>2019-10-11T14:25:44.000Z</time>
      </trkpt>
      <trkpt lat="44.22604" lon="2.96811">
        <ele>776</ele>
        <time>2019-10-11T14:25:45.000Z</time>
      </trkpt>
      <trkpt lat="44.22608" lon="2.96805">
        <ele>777</ele>
        <time>2019-10-11T14:25:46.000Z</time>
      </trkpt>
      <trkpt lat="44.22613" lon="2.96799">
        <ele>777</ele>
        <time>2019-10-11T14:25:47.000Z</time>
      </trkpt>
      <trkpt lat="44.22617" lon="2.96794">
        <ele>777</ele>
        <time>2019-10-11T14:25:48.000Z</time>
      </trkpt>
      <trkpt lat="44.22621" lon="2.96788">
        <ele>778</ele>
        <time>2019-10-11T14:25:49.000Z</time>
      </trkpt>
      <trkpt lat="44.22625" lon="2.96782">
        <ele>778</ele>
        <time>2019-10-11T14:25:50.000Z</time>
      </trkpt>
      <trkpt lat="44.22629" lon="2.96776">
        <ele>778</ele>
        <time>2019-10-11T14:25:51.000Z</time>
      </trkpt>
      <trkpt lat="44.22633" lon="2.96769">
        <ele>779</ele>
        <time>2019-10-11T14:25:52.000Z</time>
      </trkpt>
      <trkpt lat="44.22637" lon="2.96762">
        <ele>779</ele>
        <time>2019-10-11T14:25:53.000Z</time>
      </trkpt>
      <trkpt lat="44.2264" lon="2.96754">
        <ele>779</ele>
        <time>2019-10-11T14:25:54.000Z</time>
      </trkpt>
      <trkpt lat="44.22643" lon="2.96747">
        <ele>779</ele>
        <time>2019-10-11T14:25:55.000Z</time>
      </trkpt>
      <trkpt lat="44.22646" lon="2.96739">
        <ele>779</ele>
        <time>2019-10-11T14:25:56.000Z</time>
      </trkpt>
      <trkpt lat="44.22649" lon="2.96731">
        <ele>779</ele>
        <time>2019-10-11T14:25:57.000Z</time>
      </trkpt>
      <trkpt lat="44.22652" lon="2.96723">
        <ele>779</ele>
        <time>2019-10-11T14:25:58.000Z</time>
      </trkpt>
      <trkpt lat="44.22654" lon="2.96716">
        <ele>779</ele>
        <time>2019-10-11T14:25:59.000Z</time>
      </trkpt>
      <trkpt lat="44.22657" lon="2.96709">
        <ele>779</ele>
        <time>2019-10-11T14:26:00.000Z</time>
      </trkpt>
      <trkpt lat="44.2266" lon="2.96701">
        <ele>779</ele>
        <time>2019-10-11T14:26:01.000Z</time>
      </trkpt>
      <trkpt lat="44.22664" lon="2.96693">
        <ele>779</ele>
        <time>2019-10-11T14:26:02.000Z</time>
      </trkpt>
      <trkpt lat="44.22667" lon="2.96684">
        <ele>779</ele>
        <time>2019-10-11T14:26:03.000Z</time>
      </trkpt>
      <trkpt lat="44.22671" lon="2.96676">
        <ele>779</ele>
        <time>2019-10-11T14:26:04.000Z</time>
      </trkpt>
      <trkpt lat="44.22676" lon="2.96668">
        <ele>779</ele>
        <time>2019-10-11T14:26:05.000Z</time>
      </trkpt>
      <trkpt lat="44.22681" lon="2.9666">
        <ele>780</ele>
        <time>2019-10-11T14:26:06.000Z</time>
      </trkpt>
      <trkpt lat="44.22687" lon="2.96652">
        <ele>780</ele>
        <time>2019-10-11T14:26:07.000Z</time>
      </trkpt>
      <trkpt lat="44.22693" lon="2.96646">
        <ele>780</ele>
        <time>2019-10-11T14:26:08.000Z</time>
      </trkpt>
      <trkpt lat="44.227" lon="2.9664">
        <ele>780</ele>
        <time>2019-10-11T14:26:09.000Z</time>
      </trkpt>
      <trkpt lat="44.22706" lon="2.96634">
        <ele>781</ele>
        <time>2019-10-11T14:26:10.000Z</time>
      </trkpt>
      <trkpt lat="44.22712" lon="2.96629">
        <ele>781</ele>
        <time>2019-10-11T14:26:11.000Z</time>
      </trkpt>
      <trkpt lat="44.22718" lon="2.96623">
        <ele>781</ele>
        <time>2019-10-11T14:26:12.000Z</time>
      </trkpt>
      <trkpt lat="44.22724" lon="2.96618">
        <ele>782</ele>
        <time>2019-10-11T14:26:13.000Z</time>
      </trkpt>
      <trkpt lat="44.22729" lon="2.96613">
        <ele>782</ele>
        <time>2019-10-11T14:26:14.000Z</time>
      </trkpt>
      <trkpt lat="44.22735" lon="2.96608">
        <ele>783</ele>
        <time>2019-10-11T14:26:15.000Z</time>
      </trkpt>
      <trkpt lat="44.2274" lon="2.96603">
        <ele>783</ele>
        <time>2019-10-11T14:26:16.000Z</time>
      </trkpt>
      <trkpt lat="44.22745" lon="2.96598">
        <ele>784</ele>
        <time>2019-10-11T14:26:17.000Z</time>
      </trkpt>
      <trkpt lat="44.2275" lon="2.96593">
        <ele>785</ele>
        <time>2019-10-11T14:26:18.000Z</time>
      </trkpt>
      <trkpt lat="44.22754" lon="2.96588">
        <ele>785</ele>
        <time>2019-10-11T14:26:19.000Z</time>
      </trkpt>
      <trkpt lat="44.22758" lon="2.96583">
        <ele>786</ele>
        <time>2019-10-11T14:26:20.000Z</time>
      </trkpt>
      <trkpt lat="44.22762" lon="2.96579">
        <ele>787</ele>
        <time>2019-10-11T14:26:21.000Z</time>
      </trkpt>
      <trkpt lat="44.22765" lon="2.96575">
        <ele>787</ele>
        <time>2019-10-11T14:26:22.000Z</time>
      </trkpt>
      <trkpt lat="44.22768" lon="2.96572">
        <ele>788</ele>
        <time>2019-10-11T14:26:23.000Z</time>
      </trkpt>
      <trkpt lat="44.22771" lon="2.96569">
        <ele>789</ele>
        <time>2019-10-11T14:26:24.000Z</time>
      </trkpt>
      <trkpt lat="44.22773" lon="2.96568">
        <ele>789</ele>
        <time>2019-10-11T14:26:25.000Z</time>
      </trkpt>
      <trkpt lat="44.22774" lon="2.96566">
        <ele>790</ele>
        <time>2019-10-11T14:26:26.000Z</time>
      </trkpt>
      <trkpt lat="44.22775" lon="2.96565">
        <ele>790</ele>
        <time>2019-10-11T14:26:27.000Z</time>
      </trkpt>
      <trkpt lat="44.22776" lon="2.96563">
        <ele>791</ele>
        <time>2019-10-11T14:26:28.000Z</time>
      </trkpt>
      <trkpt lat="44.22777" lon="2.96561">
        <ele>791</ele>
        <time>2019-10-11T14:26:29.000Z</time>
      </trkpt>
      <trkpt lat="44.22778" lon="2.9656">
        <ele>791</ele>
        <time>2019-10-11T14:26:30.000Z</time>
      </trkpt>
      <trkpt lat="44.22779" lon="2.96559">
        <ele>792</ele>
        <time>2019-10-11T14:26:31.000Z</time>
      </trkpt>
      <trkpt lat="44.2278" lon="2.96557">
        <ele>792</ele>
        <time>2019-10-11T14:26:32.000Z</time>
      </trkpt>
      <trkpt lat="44.22781" lon="2.96556">
        <ele>793</ele>
        <time>2019-10-11T14:26:33.000Z</time>
      </trkpt>
      <trkpt lat="44.22782" lon="2.96554">
        <ele>793</ele>
        <time>2019-10-11T14:26:34.000Z</time>
      </trkpt>
      <trkpt lat="44.22784" lon="2.96552">
        <ele>793</ele>
        <time>2019-10-11T14:26:35.000Z</time>
      </trkpt>
      <trkpt lat="44.22787" lon="2.96549">
        <ele>794</ele>
        <time>2019-10-11T14:26:36.000Z</time>
      </trkpt>
      <trkpt lat="44.22789" lon="2.96545">
        <ele>794</ele>
        <time>2019-10-11T14:26:37.000Z</time>
      </trkpt>
      <trkpt lat="44.22792" lon="2.96542">
        <ele>794</ele>
        <time>2019-10-11T14:26:38.000Z</time>
      </trkpt>
      <trkpt lat="44.22795" lon="2.96539">
        <ele>795</ele>
        <time>2019-10-11T14:26:39.000Z</time>
      </trkpt>
      <trkpt lat="44.22796" lon="2.96537">
        <ele>795</ele>
        <time>2019-10-11T14:26:40.000Z</time>
      </trkpt>
      <trkpt lat="44.22798" lon="2.96535">
        <ele>795</ele>
        <time>2019-10-11T14:26:41.000Z</time>
      </trkpt>
      <trkpt lat="44.22799" lon="2.96534">
        <ele>796</ele>
        <time>2019-10-11T14:26:42.000Z</time>
      </trkpt>
      <trkpt lat="44.228" lon="2.96533">
        <ele>796</ele>
        <time>2019-10-11T14:26:43.000Z</time>
      </trkpt>
      <trkpt lat="44.228" lon="2.96531">
        <ele>796</ele>
        <time>2019-10-11T14:26:44.000Z</time>
      </trkpt>
      <trkpt lat="44.22801" lon="2.9653">
        <ele>796</ele>
        <time>2019-10-11T14:26:45.000Z</time>
      </trkpt>
      <trkpt lat="44.22802" lon="2.96529">
        <ele>796</ele>
        <time>2019-10-11T14:26:46.000Z</time>
      </trkpt>
      <trkpt lat="44.22803" lon="2.96528">
        <ele>797</ele>
        <time>2019-10-11T14:26:47.000Z</time>
      </trkpt>
      <trkpt lat="44.22805" lon="2.96526">
        <ele>797</ele>
        <time>2019-10-11T14:26:48.000Z</time>
      </trkpt>
      <trkpt lat="44.22806" lon="2.96525">
        <ele>797</ele>
        <time>2019-10-11T14:26:49.000Z</time>
      </trkpt>
      <trkpt lat="44.22807" lon="2.96524">
        <ele>797</ele>
        <time>2019-10-11T14:26:50.000Z</time>
      </trkpt>
      <trkpt lat="44.22808" lon="2.96522">
        <ele>797</ele>
        <time>2019-10-11T14:26:51.000Z</time>
      </trkpt>
      <trkpt lat="44.22809" lon="2.96521">
        <ele>798</ele>
        <time>2019-10-11T14:26:52.000Z</time>
      </trkpt>
      <trkpt lat="44.2281" lon="2.9652">
        <ele>798</ele>
        <time>2019-10-11T14:26:53.000Z</time>
      </trkpt>
      <trkpt lat="44.22811" lon="2.96519">
        <ele>798</ele>
        <time>2019-10-11T14:26:54.000Z</time>
      </trkpt>
      <trkpt lat="44.22812" lon="2.96517">
        <ele>799</ele>
        <time>2019-10-11T14:26:55.000Z</time>
      </trkpt>
      <trkpt lat="44.22813" lon="2.96516">
        <ele>799</ele>
        <time>2019-10-11T14:26:56.000Z</time>
      </trkpt>
      <trkpt lat="44.22813" lon="2.96515">
        <ele>799</ele>
        <time>2019-10-11T14:26:57.000Z</time>
      </trkpt>
      <trkpt lat="44.22814" lon="2.96514">
        <ele>799</ele>
        <time>2019-10-11T14:26:58.000Z</time>
      </trkpt>
      <trkpt lat="44.22816" lon="2.96513">
        <ele>800</ele>
        <time>2019-10-11T14:26:59.000Z</time>
      </trkpt>
      <trkpt lat="44.22817" lon="2.96512">
        <ele>800</ele>
        <time>2019-10-11T14:27:00.000Z</time>
      </trkpt>
      <trkpt lat="44.22818" lon="2.96511">
        <ele>800</ele>
        <time>2019-10-11T14:27:01.000Z</time>
      </trkpt>
      <trkpt lat="44.22819" lon="2.9651">
        <ele>800</ele>
        <time>2019-10-11T14:27:02.000Z</time>
      </trkpt>
      <trkpt lat="44.2282" lon="2.96508">
        <ele>801</ele>
        <time>2019-10-11T14:27:03.000Z</time>
      </trkpt>
      <trkpt lat="44.22821" lon="2.96507">
        <ele>801</ele>
        <time>2019-10-11T14:27:04.000Z</time>
      </trkpt>
      <trkpt lat="44.22822" lon="2.96506">
        <ele>801</ele>
        <time>2019-10-11T14:27:05.000Z</time>
      </trkpt>
      <trkpt lat="44.22823" lon="2.96505">
        <ele>801</ele>
        <time>2019-10-11T14:27:06.000Z</time>
      </trkpt>
      <trkpt lat="44.22824" lon="2.96504">
        <ele>801</ele>
        <time>2019-10-11T14:27:07.000Z</time>
      </trkpt>
      <trkpt lat="44.22825" lon="2.96503">
        <ele>802</ele>
        <time>2019-10-11T14:27:08.000Z</time>
      </trkpt>
      <trkpt lat="44.22826" lon="2.96502">
        <ele>802</ele>
        <time>2019-10-11T14:27:09.000Z</time>
      </trkpt>
      <trkpt lat="44.22826" lon="2.96501">
        <ele>802</ele>
        <time>2019-10-11T14:27:10.000Z</time>
      </trkpt>
      <trkpt lat="44.22826" lon="2.96499">
        <ele>802</ele>
        <time>2019-10-11T14:27:11.000Z</time>
      </trkpt>
      <trkpt lat="44.22826" lon="2.96497">
        <ele>802</ele>
        <time>2019-10-11T14:27:12.000Z</time>
      </trkpt>
      <trkpt lat="44.22826" lon="2.96495">
        <ele>802</ele>
        <time>2019-10-11T14:27:13.000Z</time>
      </trkpt>
      <trkpt lat="44.22825" lon="2.96494">
        <ele>802</ele>
        <time>2019-10-11T14:27:14.000Z</time>
      </trkpt>
      <trkpt lat="44.22825" lon="2.96493">
        <ele>802</ele>
        <time>2019-10-11T14:27:15.000Z</time>
      </trkpt>
      <trkpt lat="44.22825" lon="2.96492">
        <ele>802</ele>
        <time>2019-10-11T14:27:16.000Z</time>
      </trkpt>
      <trkpt lat="44.22825" lon="2.96492">
        <ele>802</ele>
        <time>2019-10-11T14:27:17.000Z</time>
      </trkpt>
      <trkpt lat="44.22825" lon="2.96492">
        <ele>802</ele>
        <time>2019-10-11T14:27:18.000Z</time>
      </trkpt>
      <trkpt lat="44.22826" lon="2.96492">
        <ele>802</ele>
        <time>2019-10-11T14:27:19.000Z</time>
      </trkpt>
      <trkpt lat="44.22827" lon="2.96493">
        <ele>802</ele>
        <time>2019-10-11T14:27:20.000Z</time>
      </trkpt>
      <trkpt lat="44.22828" lon="2.96495">
        <ele>802</ele>
        <time>2019-10-11T14:27:21.000Z</time>
      </trkpt>
      <trkpt lat="44.22829" lon="2.96496">
        <ele>802</ele>
        <time>2019-10-11T14:27:22.000Z</time>
      </trkpt>
      <trkpt lat="44.2283" lon="2.96497">
        <ele>802</ele>
        <time>2019-10-11T14:27:23.000Z</time>
      </trkpt>
      <trkpt lat="44.22831" lon="2.96498">
        <ele>802</ele>
        <time>2019-10-11T14:27:24.000Z</time>
      </trkpt>
      <trkpt lat="44.22831" lon="2.96499">
        <ele>802</ele>
        <time>2019-10-11T14:27:25.000Z</time>
      </trkpt>
      <trkpt lat="44.22832" lon="2.965">
        <ele>803</ele>
        <time>2019-10-11T14:27:26.000Z</time>
      </trkpt>
      <trkpt lat="44.22832" lon="2.965">
        <ele>803</ele>
        <time>2019-10-11T14:27:27.000Z</time>
      </trkpt>
      <trkpt lat="44.22833" lon="2.96501">
        <ele>803</ele>
        <time>2019-10-11T14:27:28.000Z</time>
      </trkpt>
      <trkpt lat="44.22833" lon="2.96501">
        <ele>803</ele>
        <time>2019-10-11T14:27:29.000Z</time>
      </trkpt>
      <trkpt lat="44.22833" lon="2.96501">
        <ele>803</ele>
        <time>2019-10-11T14:27:30.000Z</time>
      </trkpt>
      <trkpt lat="44.22833" lon="2.96501">
        <ele>803</ele>
        <time>2019-10-11T14:27:31.000Z</time>
      </trkpt>
      <trkpt lat="44.22833" lon="2.96502">
        <ele>803</ele>
        <time>2019-10-11T14:27:32.000Z</time>
      </trkpt>
      <trkpt lat="44.22832" lon="2.96502">
        <ele>803</ele>
        <time>2019-10-11T14:27:33.000Z</time>
      </trkpt>
      <trkpt lat="44.22833" lon="2.96502">
        <ele>803</ele>
        <time>2019-10-11T14:27:34.000Z</time>
      </trkpt>
      <trkpt lat="44.22833" lon="2.96502">
        <ele>803</ele>
        <time>2019-10-11T14:27:35.000Z</time>
      </trkpt>
      <trkpt lat="44.22833" lon="2.96502">
        <ele>803</ele>
        <time>2019-10-11T14:27:36.000Z</time>
      </trkpt>
      <trkpt lat="44.22833" lon="2.96502">
        <ele>803</ele>
        <time>2019-10-11T14:27:37.000Z</time>
      </trkpt>
      <trkpt lat="44.22832" lon="2.96502">
        <ele>803</ele>
        <time>2019-10-11T14:27:38.000Z</time>
      </trkpt>
      <trkpt lat="44.22832" lon="2.96502">
        <ele>803</ele>
        <time>2019-10-11T14:27:39.000Z</time>
      </trkpt>
      <trkpt lat="44.22832" lon="2.96502">
        <ele>803</ele>
        <time>2019-10-11T14:27:40.000Z</time>
      </trkpt>
      <trkpt lat="44.22833" lon="2.96502">
        <ele>803</ele>
        <time>2019-10-11T14:27:41.000Z</time>
      </trkpt>
      <trkpt lat="44.22833" lon="2.96502">
        <ele>803</ele>
        <time>2019-10-11T14:27:42.000Z</time>
      </trkpt>
      <trkpt lat="44.22833" lon="2.96502">
        <ele>803</ele>
        <time>2019-10-11T14:27:43.000Z</time>
      </trkpt>
      <trkpt lat="44.22833" lon="2.96501">
        <ele>803</ele>
        <time>2019-10-11T14:27:44.000Z</time>
      </trkpt>
      <trkpt lat="44.22834" lon="2.96501">
        <ele>803</ele>
        <time>2019-10-11T14:27:45.000Z</time>
      </trkpt>
      <trkpt lat="44.22833" lon="2.96501">
        <ele>803</ele>
        <time>2019-10-11T14:27:46.000Z</time>
      </trkpt>
      <trkpt lat="44.22833" lon="2.96501">
        <ele>803</ele>
        <time>2019-10-11T14:27:47.000Z</time>
      </trkpt>
      <trkpt lat="44.22833" lon="2.96502">
        <ele>803</ele>
        <time>2019-10-11T14:27:48.000Z</time>
      </trkpt>
      <trkpt lat="44.22833" lon="2.96502">
        <ele>803</ele>
        <time>2019-10-11T14:27:49.000Z</time>
      </trkpt>
      <trkpt lat="44.22833" lon="2.96502">
        <ele>802</ele>
        <time>2019-10-11T14:27:50.000Z</time>
      </trkpt>
      <trkpt lat="44.22833" lon="2.96501">
        <ele>802</ele>
        <time>2019-10-11T14:27:51.000Z</time>
      </trkpt>
      <trkpt lat="44.22833" lon="2.96501">
        <ele>802</ele>
        <time>2019-10-11T14:27:52.000Z</time>
      </trkpt>
      <trkpt lat="44.22833" lon="2.96501">
        <ele>802</ele>
        <time>2019-10-11T14:27:53.000Z</time>
      </trkpt>
      <trkpt lat="44.22833" lon="2.96502">
        <ele>802</ele>
        <time>2019-10-11T14:27:54.000Z</time>
      </trkpt>
      <trkpt lat="44.22833" lon="2.96502">
        <ele>802</ele>
        <time>2019-10-11T14:27:55.000Z</time>
      </trkpt>
      <trkpt lat="44.22833" lon="2.96502">
        <ele>802</ele>
        <time>2019-10-11T14:27:56.000Z</time>
      </trkpt>
      <trkpt lat="44.22833" lon="2.96502">
        <ele>802</ele>
        <time>2019-10-11T14:27:57.000Z</time>
      </trkpt>
      <trkpt lat="44.22833" lon="2.96501">
        <ele>802</ele>
        <time>2019-10-11T14:27:58.000Z</time>
      </trkpt>
      <trkpt lat="44.22833" lon="2.96501">
        <ele>802</ele>
        <time>2019-10-11T14:27:59.000Z</time>
      </trkpt>
      <trkpt lat="44.22833" lon="2.96501">
        <ele>802</ele>
        <time>2019-10-11T14:28:00.000Z</time>
      </trkpt>
      <trkpt lat="44.22833" lon="2.96501">
        <ele>802</ele>
        <time>2019-10-11T14:28:01.000Z</time>
      </trkpt>
      <trkpt lat="44.22833" lon="2.96501">
        <ele>802</ele>
        <time>2019-10-11T14:28:02.000Z</time>
      </trkpt>
      <trkpt lat="44.22833" lon="2.96501">
        <ele>802</ele>
        <time>2019-10-11T14:28:03.000Z</time>
      </trkpt>
      <trkpt lat="44.22833" lon="2.96501">
        <ele>802</ele>
        <time>2019-10-11T14:28:04.000Z</time>
      </trkpt>
      <trkpt lat="44.22832" lon="2.96501">
        <ele>802</ele>
        <time>2019-10-11T14:28:05.000Z</time>
      </trkpt>
      <trkpt lat="44.22831" lon="2.96499">
        <ele>802</ele>
        <time>2019-10-11T14:28:06.000Z</time>
      </trkpt>
      <trkpt lat="44.2283" lon="2.96498">
        <ele>802</ele>
        <time>2019-10-11T14:28:07.000Z</time>
      </trkpt>
      <trkpt lat="44.22829" lon="2.96497">
        <ele>802</ele>
        <time>2019-10-11T14:28:08.000Z</time>
      </trkpt>
      <trkpt lat="44.22827" lon="2.96495">
        <ele>803</ele>
        <time>2019-10-11T14:28:09.000Z</time>
      </trkpt>
      <trkpt lat="44.22825" lon="2.96493">
        <ele>803</ele>
        <time>2019-10-11T14:28:10.000Z</time>
      </trkpt>
      <trkpt lat="44.22823" lon="2.9649">
        <ele>803</ele>
        <time>2019-10-11T14:28:11.000Z</time>
      </trkpt>
      <trkpt lat="44.22821" lon="2.96487">
        <ele>803</ele>
        <time>2019-10-11T14:28:12.000Z</time>
      </trkpt>
      <trkpt lat="44.22819" lon="2.96483">
        <ele>803</ele>
        <time>2019-10-11T14:28:13.000Z</time>
      </trkpt>
      <trkpt lat="44.22816" lon="2.9648">
        <ele>803</ele>
        <time>2019-10-11T14:28:14.000Z</time>
      </trkpt>
      <trkpt lat="44.22814" lon="2.96477">
        <ele>803</ele>
        <time>2019-10-11T14:28:15.000Z</time>
      </trkpt>
      <trkpt lat="44.22811" lon="2.96475">
        <ele>803</ele>
        <time>2019-10-11T14:28:16.000Z</time>
      </trkpt>
      <trkpt lat="44.22808" lon="2.96474">
        <ele>803</ele>
        <time>2019-10-11T14:28:17.000Z</time>
      </trkpt>
      <trkpt lat="44.22805" lon="2.96472">
        <ele>804</ele>
        <time>2019-10-11T14:28:18.000Z</time>
      </trkpt>
      <trkpt lat="44.22802" lon="2.9647">
        <ele>804</ele>
        <time>2019-10-11T14:28:19.000Z</time>
      </trkpt>
      <trkpt lat="44.22798" lon="2.96469">
        <ele>804</ele>
        <time>2019-10-11T14:28:20.000Z</time>
      </trkpt>
      <trkpt lat="44.22795" lon="2.96468">
        <ele>804</ele>
        <time>2019-10-11T14:28:21.000Z</time>
      </trkpt>
      <trkpt lat="44.22792" lon="2.96466">
        <ele>805</ele>
        <time>2019-10-11T14:28:22.000Z</time>
      </trkpt>
      <trkpt lat="44.22789" lon="2.96464">
        <ele>805</ele>
        <time>2019-10-11T14:28:23.000Z</time>
      </trkpt>
      <trkpt lat="44.22785" lon="2.96462">
        <ele>805</ele>
        <time>2019-10-11T14:28:24.000Z</time>
      </trkpt>
      <trkpt lat="44.22782" lon="2.9646">
        <ele>806</ele>
        <time>2019-10-11T14:28:25.000Z</time>
      </trkpt>
      <trkpt lat="44.22778" lon="2.96458">
        <ele>806</ele>
        <time>2019-10-11T14:28:26.000Z</time>
      </trkpt>
      <trkpt lat="44.22774" lon="2.96456">
        <ele>806</ele>
        <time>2019-10-11T14:28:27.000Z</time>
      </trkpt>
      <trkpt lat="44.22771" lon="2.96455">
        <ele>807</ele>
        <time>2019-10-11T14:28:28.000Z</time>
      </trkpt>
      <trkpt lat="44.22767" lon="2.96453">
        <ele>807</ele>
        <time>2019-10-11T14:28:29.000Z</time>
      </trkpt>
      <trkpt lat="44.22764" lon="2.96452">
        <ele>807</ele>
        <time>2019-10-11T14:28:30.000Z</time>
      </trkpt>
      <trkpt lat="44.2276" lon="2.96451">
        <ele>808</ele>
        <time>2019-10-11T14:28:31.000Z</time>
      </trkpt>
      <trkpt lat="44.22757" lon="2.9645">
        <ele>808</ele>
        <time>2019-10-11T14:28:32.000Z</time>
      </trkpt>
      <trkpt lat="44.22753" lon="2.9645">
        <ele>808</ele>
        <time>2019-10-11T14:28:33.000Z</time>
      </trkpt>
      <trkpt lat="44.2275" lon="2.9645">
        <ele>808</ele>
        <time>2019-10-11T14:28:34.000Z</time>
      </trkpt>
      <trkpt lat="44.22746" lon="2.9645">
        <ele>809</ele>
        <time>2019-10-11T14:28:35.000Z</time>
      </trkpt>
      <trkpt lat="44.22742" lon="2.9645">
        <ele>809</ele>
        <time>2019-10-11T14:28:36.000Z</time>
      </trkpt>
      <trkpt lat="44.22738" lon="2.9645">
        <ele>810</ele>
        <time>2019-10-11T14:28:37.000Z</time>
      </trkpt>
      <trkpt lat="44.22734" lon="2.96451">
        <ele>810</ele>
        <time>2019-10-11T14:28:38.000Z</time>
      </trkpt>
      <trkpt lat="44.22731" lon="2.9645">
        <ele>811</ele>
        <time>2019-10-11T14:28:39.000Z</time>
      </trkpt>
      <trkpt lat="44.22727" lon="2.9645">
        <ele>811</ele>
        <time>2019-10-11T14:28:40.000Z</time>
      </trkpt>
      <trkpt lat="44.22723" lon="2.96449">
        <ele>811</ele>
        <time>2019-10-11T14:28:41.000Z</time>
      </trkpt>
      <trkpt lat="44.22719" lon="2.96449">
        <ele>812</ele>
        <time>2019-10-11T14:28:42.000Z</time>
      </trkpt>
      <trkpt lat="44.22716" lon="2.96449">
        <ele>812</ele>
        <time>2019-10-11T14:28:43.000Z</time>
      </trkpt>
      <trkpt lat="44.22712" lon="2.96447">
        <ele>813</ele>
        <time>2019-10-11T14:28:44.000Z</time>
      </trkpt>
      <trkpt lat="44.22709" lon="2.96446">
        <ele>813</ele>
        <time>2019-10-11T14:28:45.000Z</time>
      </trkpt>
      <trkpt lat="44.22705" lon="2.96445">
        <ele>814</ele>
        <time>2019-10-11T14:28:46.000Z</time>
      </trkpt>
      <trkpt lat="44.22702" lon="2.96443">
        <ele>814</ele>
        <time>2019-10-11T14:28:47.000Z</time>
      </trkpt>
      <trkpt lat="44.227" lon="2.96442">
        <ele>815</ele>
        <time>2019-10-11T14:28:48.000Z</time>
      </trkpt>
      <trkpt lat="44.22698" lon="2.96441">
        <ele>815</ele>
        <time>2019-10-11T14:28:49.000Z</time>
      </trkpt>
      <trkpt lat="44.22696" lon="2.96441">
        <ele>816</ele>
        <time>2019-10-11T14:28:50.000Z</time>
      </trkpt>
      <trkpt lat="44.22695" lon="2.9644">
        <ele>816</ele>
        <time>2019-10-11T14:28:51.000Z</time>
      </trkpt>
      <trkpt lat="44.22694" lon="2.96439">
        <ele>816</ele>
        <time>2019-10-11T14:28:52.000Z</time>
      </trkpt>
      <trkpt lat="44.22693" lon="2.96438">
        <ele>817</ele>
        <time>2019-10-11T14:28:53.000Z</time>
      </trkpt>
      <trkpt lat="44.22691" lon="2.96438">
        <ele>817</ele>
        <time>2019-10-11T14:28:54.000Z</time>
      </trkpt>
      <trkpt lat="44.2269" lon="2.96437">
        <ele>818</ele>
        <time>2019-10-11T14:28:55.000Z</time>
      </trkpt>
      <trkpt lat="44.22689" lon="2.96437">
        <ele>818</ele>
        <time>2019-10-11T14:28:56.000Z</time>
      </trkpt>
      <trkpt lat="44.22688" lon="2.96437">
        <ele>818</ele>
        <time>2019-10-11T14:28:57.000Z</time>
      </trkpt>
      <trkpt lat="44.22687" lon="2.96436">
        <ele>819</ele>
        <time>2019-10-11T14:28:58.000Z</time>
      </trkpt>
      <trkpt lat="44.22686" lon="2.96436">
        <ele>819</ele>
        <time>2019-10-11T14:28:59.000Z</time>
      </trkpt>
      <trkpt lat="44.22684" lon="2.96437">
        <ele>819</ele>
        <time>2019-10-11T14:29:00.000Z</time>
      </trkpt>
      <trkpt lat="44.22684" lon="2.96437">
        <ele>820</ele>
        <time>2019-10-11T14:29:01.000Z</time>
      </trkpt>
      <trkpt lat="44.22683" lon="2.96438">
        <ele>820</ele>
        <time>2019-10-11T14:29:02.000Z</time>
      </trkpt>
      <trkpt lat="44.22682" lon="2.96438">
        <ele>821</ele>
        <time>2019-10-11T14:29:03.000Z</time>
      </trkpt>
      <trkpt lat="44.22681" lon="2.96439">
        <ele>821</ele>
        <time>2019-10-11T14:29:04.000Z</time>
      </trkpt>
      <trkpt lat="44.22681" lon="2.96439">
        <ele>821</ele>
        <time>2019-10-11T14:29:05.000Z</time>
      </trkpt>
      <trkpt lat="44.2268" lon="2.9644">
        <ele>822</ele>
        <time>2019-10-11T14:29:06.000Z</time>
      </trkpt>
      <trkpt lat="44.2268" lon="2.9644">
        <ele>822</ele>
        <time>2019-10-11T14:29:07.000Z</time>
      </trkpt>
      <trkpt lat="44.22679" lon="2.96441">
        <ele>822</ele>
        <time>2019-10-11T14:29:08.000Z</time>
      </trkpt>
      <trkpt lat="44.22677" lon="2.96442">
        <ele>823</ele>
        <time>2019-10-11T14:29:09.000Z</time>
      </trkpt>
      <trkpt lat="44.22676" lon="2.96443">
        <ele>823</ele>
        <time>2019-10-11T14:29:10.000Z</time>
      </trkpt>
      <trkpt lat="44.22674" lon="2.96443">
        <ele>823</ele>
        <time>2019-10-11T14:29:11.000Z</time>
      </trkpt>
      <trkpt lat="44.22673" lon="2.96444">
        <ele>823</ele>
        <time>2019-10-11T14:29:12.000Z</time>
      </trkpt>
      <trkpt lat="44.22671" lon="2.96445">
        <ele>824</ele>
        <time>2019-10-11T14:29:13.000Z</time>
      </trkpt>
      <trkpt lat="44.22669" lon="2.96445">
        <ele>824</ele>
        <time>2019-10-11T14:29:14.000Z</time>
      </trkpt>
      <trkpt lat="44.22668" lon="2.96445">
        <ele>824</ele>
        <time>2019-10-11T14:29:15.000Z</time>
      </trkpt>
      <trkpt lat="44.22666" lon="2.96445">
        <ele>825</ele>
        <time>2019-10-11T14:29:16.000Z</time>
      </trkpt>
      <trkpt lat="44.22664" lon="2.96444">
        <ele>825</ele>
        <time>2019-10-11T14:29:17.000Z</time>
      </trkpt>
      <trkpt lat="44.22663" lon="2.96443">
        <ele>825</ele>
        <time>2019-10-11T14:29:18.000Z</time>
      </trkpt>
      <trkpt lat="44.22661" lon="2.96443">
        <ele>825</ele>
        <time>2019-10-11T14:29:19.000Z</time>
      </trkpt>
      <trkpt lat="44.2266" lon="2.96442">
        <ele>825</ele>
        <time>2019-10-11T14:29:20.000Z</time>
      </trkpt>
      <trkpt lat="44.22658" lon="2.96441">
        <ele>825</ele>
        <time>2019-10-11T14:29:21.000Z</time>
      </trkpt>
      <trkpt lat="44.22657" lon="2.96441">
        <ele>825</ele>
        <time>2019-10-11T14:29:22.000Z</time>
      </trkpt>
      <trkpt lat="44.22656" lon="2.9644">
        <ele>826</ele>
        <time>2019-10-11T14:29:23.000Z</time>
      </trkpt>
      <trkpt lat="44.22654" lon="2.96439">
        <ele>826</ele>
        <time>2019-10-11T14:29:24.000Z</time>
      </trkpt>
      <trkpt lat="44.22654" lon="2.96438">
        <ele>826</ele>
        <time>2019-10-11T14:29:25.000Z</time>
      </trkpt>
      <trkpt lat="44.22652" lon="2.96437">
        <ele>826</ele>
        <time>2019-10-11T14:29:26.000Z</time>
      </trkpt>
      <trkpt lat="44.22651" lon="2.96436">
        <ele>827</ele>
        <time>2019-10-11T14:29:27.000Z</time>
      </trkpt>
      <trkpt lat="44.2265" lon="2.96434">
        <ele>827</ele>
        <time>2019-10-11T14:29:28.000Z</time>
      </trkpt>
      <trkpt lat="44.22649" lon="2.96433">
        <ele>827</ele>
        <time>2019-10-11T14:29:29.000Z</time>
      </trkpt>
      <trkpt lat="44.22648" lon="2.96432">
        <ele>827</ele>
        <time>2019-10-11T14:29:30.000Z</time>
      </trkpt>
      <trkpt lat="44.22646" lon="2.9643">
        <ele>827</ele>
        <time>2019-10-11T14:29:31.000Z</time>
      </trkpt>
      <trkpt lat="44.22645" lon="2.96429">
        <ele>828</ele>
        <time>2019-10-11T14:29:32.000Z</time>
      </trkpt>
      <trkpt lat="44.22644" lon="2.96428">
        <ele>828</ele>
        <time>2019-10-11T14:29:33.000Z</time>
      </trkpt>
      <trkpt lat="44.22643" lon="2.96426">
        <ele>828</ele>
        <time>2019-10-11T14:29:34.000Z</time>
      </trkpt>
      <trkpt lat="44.22642" lon="2.96425">
        <ele>829</ele>
        <time>2019-10-11T14:29:35.000Z</time>
      </trkpt>
      <trkpt lat="44.22641" lon="2.96424">
        <ele>829</ele>
        <time>2019-10-11T14:29:36.000Z</time>
      </trkpt>
      <trkpt lat="44.2264" lon="2.96424">
        <ele>830</ele>
        <time>2019-10-11T14:29:37.000Z</time>
      </trkpt>
      <trkpt lat="44.22639" lon="2.96423">
        <ele>830</ele>
        <time>2019-10-11T14:29:38.000Z</time>
      </trkpt>
      <trkpt lat="44.22638" lon="2.96422">
        <ele>831</ele>
        <time>2019-10-11T14:29:39.000Z</time>
      </trkpt>
      <trkpt lat="44.22637" lon="2.96421">
        <ele>831</ele>
        <time>2019-10-11T14:29:40.000Z</time>
      </trkpt>
      <trkpt lat="44.22637" lon="2.9642">
        <ele>832</ele>
        <time>2019-10-11T14:29:41.000Z</time>
      </trkpt>
      <trkpt lat="44.22636" lon="2.96419">
        <ele>832</ele>
        <time>2019-10-11T14:29:42.000Z</time>
      </trkpt>
      <trkpt lat="44.22635" lon="2.96418">
        <ele>832</ele>
        <time>2019-10-11T14:29:43.000Z</time>
      </trkpt>
      <trkpt lat="44.22634" lon="2.96417">
        <ele>833</ele>
        <time>2019-10-11T14:29:44.000Z</time>
      </trkpt>
      <trkpt lat="44.22633" lon="2.96416">
        <ele>833</ele>
        <time>2019-10-11T14:29:45.000Z</time>
      </trkpt>
      <trkpt lat="44.22631" lon="2.96415">
        <ele>833</ele>
        <time>2019-10-11T14:29:46.000Z</time>
      </trkpt>
      <trkpt lat="44.2263" lon="2.96415">
        <ele>834</ele>
        <time>2019-10-11T14:29:47.000Z</time>
      </trkpt>
      <trkpt lat="44.22629" lon="2.96414">
        <ele>834</ele>
        <time>2019-10-11T14:29:48.000Z</time>
      </trkpt>
      <trkpt lat="44.22628" lon="2.96413">
        <ele>834</ele>
        <time>2019-10-11T14:29:49.000Z</time>
      </trkpt>
      <trkpt lat="44.22626" lon="2.96411">
        <ele>834</ele>
        <time>2019-10-11T14:29:50.000Z</time>
      </trkpt>
      <trkpt lat="44.22625" lon="2.9641">
        <ele>834</ele>
        <time>2019-10-11T14:29:51.000Z</time>
      </trkpt>
      <trkpt lat="44.22624" lon="2.96409">
        <ele>835</ele>
        <time>2019-10-11T14:29:52.000Z</time>
      </trkpt>
      <trkpt lat="44.22623" lon="2.96409">
        <ele>835</ele>
        <time>2019-10-11T14:29:53.000Z</time>
      </trkpt>
      <trkpt lat="44.22622" lon="2.96407">
        <ele>835</ele>
        <time>2019-10-11T14:29:54.000Z</time>
      </trkpt>
      <trkpt lat="44.22621" lon="2.96406">
        <ele>835</ele>
        <time>2019-10-11T14:29:55.000Z</time>
      </trkpt>
      <trkpt lat="44.2262" lon="2.96405">
        <ele>835</ele>
        <time>2019-10-11T14:29:56.000Z</time>
      </trkpt>
      <trkpt lat="44.22619" lon="2.96404">
        <ele>835</ele>
        <time>2019-10-11T14:29:57.000Z</time>
      </trkpt>
      <trkpt lat="44.22618" lon="2.96403">
        <ele>835</ele>
        <time>2019-10-11T14:29:58.000Z</time>
      </trkpt>
      <trkpt lat="44.22616" lon="2.96402">
        <ele>835</ele>
        <time>2019-10-11T14:29:59.000Z</time>
      </trkpt>
      <trkpt lat="44.22615" lon="2.964">
        <ele>836</ele>
        <time>2019-10-11T14:30:00.000Z</time>
      </trkpt>
      <trkpt lat="44.22614" lon="2.96399">
        <ele>836</ele>
        <time>2019-10-11T14:30:01.000Z</time>
      </trkpt>
      <trkpt lat="44.22613" lon="2.96398">
        <ele>836</ele>
        <time>2019-10-11T14:30:02.000Z</time>
      </trkpt>
      <trkpt lat="44.22612" lon="2.96397">
        <ele>836</ele>
        <time>2019-10-11T14:30:03.000Z</time>
      </trkpt>
      <trkpt lat="44.22611" lon="2.96396">
        <ele>836</ele>
        <time>2019-10-11T14:30:04.000Z</time>
      </trkpt>
      <trkpt lat="44.22609" lon="2.96394">
        <ele>836</ele>
        <time>2019-10-11T14:30:05.000Z</time>
      </trkpt>
      <trkpt lat="44.22608" lon="2.96393">
        <ele>836</ele>
        <time>2019-10-11T14:30:06.000Z</time>
      </trkpt>
      <trkpt lat="44.22607" lon="2.96392">
        <ele>836</ele>
        <time>2019-10-11T14:30:07.000Z</time>
      </trkpt>
      <trkpt lat="44.22606" lon="2.96391">
        <ele>836</ele>
        <time>2019-10-11T14:30:08.000Z</time>
      </trkpt>
      <trkpt lat="44.22605" lon="2.9639">
        <ele>836</ele>
        <time>2019-10-11T14:30:09.000Z</time>
      </trkpt>
      <trkpt lat="44.22604" lon="2.96389">
        <ele>836</ele>
        <time>2019-10-11T14:30:10.000Z</time>
      </trkpt>
      <trkpt lat="44.22603" lon="2.96388">
        <ele>836</ele>
        <time>2019-10-11T14:30:11.000Z</time>
      </trkpt>
      <trkpt lat="44.22602" lon="2.96387">
        <ele>836</ele>
        <time>2019-10-11T14:30:12.000Z</time>
      </trkpt>
      <trkpt lat="44.226" lon="2.96386">
        <ele>836</ele>
        <time>2019-10-11T14:30:13.000Z</time>
      </trkpt>
      <trkpt lat="44.22599" lon="2.96384">
        <ele>836</ele>
        <time>2019-10-11T14:30:14.000Z</time>
      </trkpt>
      <trkpt lat="44.22598" lon="2.96383">
        <ele>836</ele>
        <time>2019-10-11T14:30:15.000Z</time>
      </trkpt>
      <trkpt lat="44.22597" lon="2.96381">
        <ele>837</ele>
        <time>2019-10-11T14:30:16.000Z</time>
      </trkpt>
      <trkpt lat="44.22597" lon="2.9638">
        <ele>837</ele>
        <time>2019-10-11T14:30:17.000Z</time>
      </trkpt>
      <trkpt lat="44.22596" lon="2.96378">
        <ele>837</ele>
        <time>2019-10-11T14:30:18.000Z</time>
      </trkpt>
      <trkpt lat="44.22595" lon="2.96376">
        <ele>837</ele>
        <time>2019-10-11T14:30:19.000Z</time>
      </trkpt>
      <trkpt lat="44.22594" lon="2.96375">
        <ele>838</ele>
        <time>2019-10-11T14:30:20.000Z</time>
      </trkpt>
      <trkpt lat="44.22593" lon="2.96374">
        <ele>838</ele>
        <time>2019-10-11T14:30:21.000Z</time>
      </trkpt>
      <trkpt lat="44.22592" lon="2.96372">
        <ele>838</ele>
        <time>2019-10-11T14:30:22.000Z</time>
      </trkpt>
      <trkpt lat="44.22591" lon="2.9637">
        <ele>838</ele>
        <time>2019-10-11T14:30:23.000Z</time>
      </trkpt>
      <trkpt lat="44.2259" lon="2.96369">
        <ele>838</ele>
        <time>2019-10-11T14:30:24.000Z</time>
      </trkpt>
      <trkpt lat="44.22589" lon="2.96368">
        <ele>838</ele>
        <time>2019-10-11T14:30:25.000Z</time>
      </trkpt>
      <trkpt lat="44.22588" lon="2.96367">
        <ele>838</ele>
        <time>2019-10-11T14:30:26.000Z</time>
      </trkpt>
      <trkpt lat="44.22586" lon="2.96366">
        <ele>838</ele>
        <time>2019-10-11T14:30:27.000Z</time>
      </trkpt>
      <trkpt lat="44.22585" lon="2.96365">
        <ele>838</ele>
        <time>2019-10-11T14:30:28.000Z</time>
      </trkpt>
      <trkpt lat="44.22584" lon="2.96365">
        <ele>838</ele>
        <time>2019-10-11T14:30:29.000Z</time>
      </trkpt>
      <trkpt lat="44.22582" lon="2.96364">
        <ele>839</ele>
        <time>2019-10-11T14:30:30.000Z</time>
      </trkpt>
      <trkpt lat="44.22581" lon="2.96363">
        <ele>839</ele>
        <time>2019-10-11T14:30:31.000Z</time>
      </trkpt>
      <trkpt lat="44.2258" lon="2.96363">
        <ele>839</ele>
        <time>2019-10-11T14:30:32.000Z</time>
      </trkpt>
      <trkpt lat="44.22579" lon="2.96363">
        <ele>839</ele>
        <time>2019-10-11T14:30:33.000Z</time>
      </trkpt>
      <trkpt lat="44.22578" lon="2.96362">
        <ele>839</ele>
        <time>2019-10-11T14:30:34.000Z</time>
      </trkpt>
      <trkpt lat="44.22577" lon="2.96361">
        <ele>840</ele>
        <time>2019-10-11T14:30:35.000Z</time>
      </trkpt>
      <trkpt lat="44.22576" lon="2.9636">
        <ele>840</ele>
        <time>2019-10-11T14:30:36.000Z</time>
      </trkpt>
      <trkpt lat="44.22575" lon="2.9636">
        <ele>840</ele>
        <time>2019-10-11T14:30:37.000Z</time>
      </trkpt>
      <trkpt lat="44.22574" lon="2.96359">
        <ele>840</ele>
        <time>2019-10-11T14:30:38.000Z</time>
      </trkpt>
      <trkpt lat="44.22572" lon="2.96358">
        <ele>841</ele>
        <time>2019-10-11T14:30:39.000Z</time>
      </trkpt>
      <trkpt lat="44.22571" lon="2.96357">
        <ele>841</ele>
        <time>2019-10-11T14:30:40.000Z</time>
      </trkpt>
      <trkpt lat="44.2257" lon="2.96356">
        <ele>841</ele>
        <time>2019-10-11T14:30:41.000Z</time>
      </trkpt>
      <trkpt lat="44.22569" lon="2.96356">
        <ele>841</ele>
        <time>2019-10-11T14:30:42.000Z</time>
      </trkpt>
      <trkpt lat="44.22568" lon="2.96355">
        <ele>841</ele>
        <time>2019-10-11T14:30:43.000Z</time>
      </trkpt>
      <trkpt lat="44.22567" lon="2.96354">
        <ele>842</ele>
        <time>2019-10-11T14:30:44.000Z</time>
      </trkpt>
      <trkpt lat="44.22566" lon="2.96353">
        <ele>842</ele>
        <time>2019-10-11T14:30:45.000Z</time>
      </trkpt>
      <trkpt lat="44.22565" lon="2.96352">
        <ele>842</ele>
        <time>2019-10-11T14:30:46.000Z</time>
      </trkpt>
      <trkpt lat="44.22564" lon="2.96351">
        <ele>842</ele>
        <time>2019-10-11T14:30:47.000Z</time>
      </trkpt>
      <trkpt lat="44.22563" lon="2.9635">
        <ele>842</ele>
        <time>2019-10-11T14:30:48.000Z</time>
      </trkpt>
      <trkpt lat="44.22561" lon="2.96349">
        <ele>842</ele>
        <time>2019-10-11T14:30:49.000Z</time>
      </trkpt>
      <trkpt lat="44.2256" lon="2.96348">
        <ele>841</ele>
        <time>2019-10-11T14:30:50.000Z</time>
      </trkpt>
      <trkpt lat="44.22559" lon="2.96347">
        <ele>841</ele>
        <time>2019-10-11T14:30:51.000Z</time>
      </trkpt>
      <trkpt lat="44.22558" lon="2.96346">
        <ele>841</ele>
        <time>2019-10-11T14:30:52.000Z</time>
      </trkpt>
      <trkpt lat="44.22556" lon="2.96345">
        <ele>841</ele>
        <time>2019-10-11T14:30:53.000Z</time>
      </trkpt>
      <trkpt lat="44.22555" lon="2.96344">
        <ele>841</ele>
        <time>2019-10-11T14:30:54.000Z</time>
      </trkpt>
      <trkpt lat="44.22554" lon="2.96343">
        <ele>840</ele>
        <time>2019-10-11T14:30:55.000Z</time>
      </trkpt>
      <trkpt lat="44.22552" lon="2.96342">
        <ele>840</ele>
        <time>2019-10-11T14:30:56.000Z</time>
      </trkpt>
      <trkpt lat="44.22551" lon="2.96341">
        <ele>840</ele>
        <time>2019-10-11T14:30:57.000Z</time>
      </trkpt>
      <trkpt lat="44.2255" lon="2.9634">
        <ele>840</ele>
        <time>2019-10-11T14:30:58.000Z</time>
      </trkpt>
      <trkpt lat="44.22548" lon="2.96339">
        <ele>840</ele>
        <time>2019-10-11T14:30:59.000Z</time>
      </trkpt>
      <trkpt lat="44.22547" lon="2.96338">
        <ele>840</ele>
        <time>2019-10-11T14:31:00.000Z</time>
      </trkpt>
      <trkpt lat="44.22547" lon="2.96336">
        <ele>840</ele>
        <time>2019-10-11T14:31:01.000Z</time>
      </trkpt>
      <trkpt lat="44.22546" lon="2.96335">
        <ele>840</ele>
        <time>2019-10-11T14:31:02.000Z</time>
      </trkpt>
      <trkpt lat="44.22545" lon="2.96334">
        <ele>840</ele>
        <time>2019-10-11T14:31:03.000Z</time>
      </trkpt>
      <trkpt lat="44.22543" lon="2.96333">
        <ele>840</ele>
        <time>2019-10-11T14:31:04.000Z</time>
      </trkpt>
      <trkpt lat="44.22542" lon="2.96333">
        <ele>840</ele>
        <time>2019-10-11T14:31:05.000Z</time>
      </trkpt>
      <trkpt lat="44.22541" lon="2.96332">
        <ele>840</ele>
        <time>2019-10-11T14:31:06.000Z</time>
      </trkpt>
      <trkpt lat="44.2254" lon="2.96332">
        <ele>840</ele>
        <time>2019-10-11T14:31:07.000Z</time>
      </trkpt>
      <trkpt lat="44.22539" lon="2.96331">
        <ele>840</ele>
        <time>2019-10-11T14:31:08.000Z</time>
      </trkpt>
      <trkpt lat="44.22538" lon="2.9633">
        <ele>840</ele>
        <time>2019-10-11T14:31:09.000Z</time>
      </trkpt>
      <trkpt lat="44.22537" lon="2.96329">
        <ele>840</ele>
        <time>2019-10-11T14:31:10.000Z</time>
      </trkpt>
      <trkpt lat="44.22536" lon="2.96328">
        <ele>840</ele>
        <time>2019-10-11T14:31:11.000Z</time>
      </trkpt>
      <trkpt lat="44.22535" lon="2.96327">
        <ele>840</ele>
        <time>2019-10-11T14:31:12.000Z</time>
      </trkpt>
      <trkpt lat="44.22534" lon="2.96326">
        <ele>841</ele>
        <time>2019-10-11T14:31:13.000Z</time>
      </trkpt>
      <trkpt lat="44.22532" lon="2.96325">
        <ele>841</ele>
        <time>2019-10-11T14:31:14.000Z</time>
      </trkpt>
      <trkpt lat="44.22531" lon="2.96324">
        <ele>841</ele>
        <time>2019-10-11T14:31:15.000Z</time>
      </trkpt>
      <trkpt lat="44.2253" lon="2.96323">
        <ele>841</ele>
        <time>2019-10-11T14:31:16.000Z</time>
      </trkpt>
      <trkpt lat="44.22529" lon="2.96322">
        <ele>841</ele>
        <time>2019-10-11T14:31:17.000Z</time>
      </trkpt>
      <trkpt lat="44.22528" lon="2.96321">
        <ele>841</ele>
        <time>2019-10-11T14:31:18.000Z</time>
      </trkpt>
      <trkpt lat="44.22527" lon="2.9632">
        <ele>841</ele>
        <time>2019-10-11T14:31:19.000Z</time>
      </trkpt>
      <trkpt lat="44.22526" lon="2.96319">
        <ele>842</ele>
        <time>2019-10-11T14:31:20.000Z</time>
      </trkpt>
      <trkpt lat="44.22524" lon="2.96319">
        <ele>842</ele>
        <time>2019-10-11T14:31:21.000Z</time>
      </trkpt>
      <trkpt lat="44.22523" lon="2.96318">
        <ele>842</ele>
        <time>2019-10-11T14:31:22.000Z</time>
      </trkpt>
      <trkpt lat="44.22522" lon="2.96316">
        <ele>842</ele>
        <time>2019-10-11T14:31:23.000Z</time>
      </trkpt>
      <trkpt lat="44.2252" lon="2.96315">
        <ele>842</ele>
        <time>2019-10-11T14:31:24.000Z</time>
      </trkpt>
      <trkpt lat="44.22518" lon="2.96312">
        <ele>843</ele>
        <time>2019-10-11T14:31:25.000Z</time>
      </trkpt>
      <trkpt lat="44.22516" lon="2.96309">
        <ele>843</ele>
        <time>2019-10-11T14:31:26.000Z</time>
      </trkpt>
      <trkpt lat="44.22513" lon="2.96305">
        <ele>843</ele>
        <time>2019-10-11T14:31:27.000Z</time>
      </trkpt>
      <trkpt lat="44.2251" lon="2.96302">
        <ele>843</ele>
        <time>2019-10-11T14:31:28.000Z</time>
      </trkpt>
      <trkpt lat="44.22508" lon="2.96299">
        <ele>843</ele>
        <time>2019-10-11T14:31:29.000Z</time>
      </trkpt>
      <trkpt lat="44.22505" lon="2.96296">
        <ele>843</ele>
        <time>2019-10-11T14:31:30.000Z</time>
      </trkpt>
      <trkpt lat="44.22502" lon="2.96292">
        <ele>843</ele>
        <time>2019-10-11T14:31:31.000Z</time>
      </trkpt>
      <trkpt lat="44.22499" lon="2.96289">
        <ele>843</ele>
        <time>2019-10-11T14:31:32.000Z</time>
      </trkpt>
      <trkpt lat="44.22497" lon="2.96286">
        <ele>843</ele>
        <time>2019-10-11T14:31:33.000Z</time>
      </trkpt>
      <trkpt lat="44.22494" lon="2.96282">
        <ele>843</ele>
        <time>2019-10-11T14:31:34.000Z</time>
      </trkpt>
      <trkpt lat="44.22492" lon="2.96278">
        <ele>843</ele>
        <time>2019-10-11T14:31:35.000Z</time>
      </trkpt>
      <trkpt lat="44.2249" lon="2.96274">
        <ele>843</ele>
        <time>2019-10-11T14:31:36.000Z</time>
      </trkpt>
      <trkpt lat="44.22487" lon="2.96271">
        <ele>843</ele>
        <time>2019-10-11T14:31:37.000Z</time>
      </trkpt>
      <trkpt lat="44.22484" lon="2.96268">
        <ele>843</ele>
        <time>2019-10-11T14:31:38.000Z</time>
      </trkpt>
      <trkpt lat="44.22481" lon="2.96265">
        <ele>844</ele>
        <time>2019-10-11T14:31:39.000Z</time>
      </trkpt>
      <trkpt lat="44.22478" lon="2.96262">
        <ele>844</ele>
        <time>2019-10-11T14:31:40.000Z</time>
      </trkpt>
      <trkpt lat="44.22475" lon="2.96259">
        <ele>844</ele>
        <time>2019-10-11T14:31:41.000Z</time>
      </trkpt>
      <trkpt lat="44.22472" lon="2.96255">
        <ele>844</ele>
        <time>2019-10-11T14:31:42.000Z</time>
      </trkpt>
      <trkpt lat="44.22469" lon="2.96252">
        <ele>844</ele>
        <time>2019-10-11T14:31:43.000Z</time>
      </trkpt>
      <trkpt lat="44.22465" lon="2.96247">
        <ele>844</ele>
        <time>2019-10-11T14:31:44.000Z</time>
      </trkpt>
      <trkpt lat="44.22462" lon="2.96244">
        <ele>844</ele>
        <time>2019-10-11T14:31:45.000Z</time>
      </trkpt>
      <trkpt lat="44.22459" lon="2.9624">
        <ele>844</ele>
        <time>2019-10-11T14:31:46.000Z</time>
      </trkpt>
      <trkpt lat="44.22455" lon="2.96236">
        <ele>845</ele>
        <time>2019-10-11T14:31:47.000Z</time>
      </trkpt>
      <trkpt lat="44.22452" lon="2.96231">
        <ele>845</ele>
        <time>2019-10-11T14:31:48.000Z</time>
      </trkpt>
      <trkpt lat="44.22449" lon="2.96227">
        <ele>845</ele>
        <time>2019-10-11T14:31:49.000Z</time>
      </trkpt>
      <trkpt lat="44.22445" lon="2.96223">
        <ele>845</ele>
        <time>2019-10-11T14:31:50.000Z</time>
      </trkpt>
      <trkpt lat="44.22442" lon="2.96219">
        <ele>845</ele>
        <time>2019-10-11T14:31:51.000Z</time>
      </trkpt>
      <trkpt lat="44.22438" lon="2.96214">
        <ele>845</ele>
        <time>2019-10-11T14:31:52.000Z</time>
      </trkpt>
      <trkpt lat="44.22435" lon="2.9621">
        <ele>845</ele>
        <time>2019-10-11T14:31:53.000Z</time>
      </trkpt>
      <trkpt lat="44.22431" lon="2.96206">
        <ele>845</ele>
        <time>2019-10-11T14:31:54.000Z</time>
      </trkpt>
      <trkpt lat="44.22428" lon="2.96202">
        <ele>845</ele>
        <time>2019-10-11T14:31:55.000Z</time>
      </trkpt>
      <trkpt lat="44.22425" lon="2.96198">
        <ele>845</ele>
        <time>2019-10-11T14:31:56.000Z</time>
      </trkpt>
      <trkpt lat="44.22421" lon="2.96194">
        <ele>845</ele>
        <time>2019-10-11T14:31:57.000Z</time>
      </trkpt>
      <trkpt lat="44.22419" lon="2.9619">
        <ele>845</ele>
        <time>2019-10-11T14:31:58.000Z</time>
      </trkpt>
      <trkpt lat="44.22416" lon="2.96186">
        <ele>845</ele>
        <time>2019-10-11T14:31:59.000Z</time>
      </trkpt>
      <trkpt lat="44.22414" lon="2.96183">
        <ele>845</ele>
        <time>2019-10-11T14:32:00.000Z</time>
      </trkpt>
      <trkpt lat="44.22412" lon="2.96181">
        <ele>845</ele>
        <time>2019-10-11T14:32:01.000Z</time>
      </trkpt>
      <trkpt lat="44.22411" lon="2.9618">
        <ele>845</ele>
        <time>2019-10-11T14:32:02.000Z</time>
      </trkpt>
      <trkpt lat="44.2241" lon="2.96178">
        <ele>845</ele>
        <time>2019-10-11T14:32:03.000Z</time>
      </trkpt>
      <trkpt lat="44.22409" lon="2.96177">
        <ele>845</ele>
        <time>2019-10-11T14:32:04.000Z</time>
      </trkpt>
      <trkpt lat="44.22407" lon="2.96175">
        <ele>845</ele>
        <time>2019-10-11T14:32:05.000Z</time>
      </trkpt>
      <trkpt lat="44.22406" lon="2.96173">
        <ele>845</ele>
        <time>2019-10-11T14:32:06.000Z</time>
      </trkpt>
      <trkpt lat="44.22405" lon="2.96171">
        <ele>845</ele>
        <time>2019-10-11T14:32:07.000Z</time>
      </trkpt>
      <trkpt lat="44.22405" lon="2.96169">
        <ele>845</ele>
        <time>2019-10-11T14:32:08.000Z</time>
      </trkpt>
      <trkpt lat="44.22404" lon="2.96167">
        <ele>845</ele>
        <time>2019-10-11T14:32:09.000Z</time>
      </trkpt>
      <trkpt lat="44.22404" lon="2.96165">
        <ele>845</ele>
        <time>2019-10-11T14:32:10.000Z</time>
      </trkpt>
      <trkpt lat="44.22403" lon="2.96163">
        <ele>845</ele>
        <time>2019-10-11T14:32:11.000Z</time>
      </trkpt>
      <trkpt lat="44.22402" lon="2.96161">
        <ele>845</ele>
        <time>2019-10-11T14:32:12.000Z</time>
      </trkpt>
      <trkpt lat="44.22402" lon="2.96159">
        <ele>845</ele>
        <time>2019-10-11T14:32:13.000Z</time>
      </trkpt>
      <trkpt lat="44.22401" lon="2.96157">
        <ele>845</ele>
        <time>2019-10-11T14:32:14.000Z</time>
      </trkpt>
      <trkpt lat="44.22401" lon="2.96155">
        <ele>845</ele>
        <time>2019-10-11T14:32:15.000Z</time>
      </trkpt>
      <trkpt lat="44.224" lon="2.96153">
        <ele>845</ele>
        <time>2019-10-11T14:32:16.000Z</time>
      </trkpt>
      <trkpt lat="44.224" lon="2.96151">
        <ele>845</ele>
        <time>2019-10-11T14:32:17.000Z</time>
      </trkpt>
      <trkpt lat="44.22399" lon="2.96149">
        <ele>845</ele>
        <time>2019-10-11T14:32:18.000Z</time>
      </trkpt>
      <trkpt lat="44.22399" lon="2.96147">
        <ele>845</ele>
        <time>2019-10-11T14:32:19.000Z</time>
      </trkpt>
      <trkpt lat="44.22398" lon="2.96146">
        <ele>845</ele>
        <time>2019-10-11T14:32:20.000Z</time>
      </trkpt>
      <trkpt lat="44.22397" lon="2.96145">
        <ele>844</ele>
        <time>2019-10-11T14:32:21.000Z</time>
      </trkpt>
      <trkpt lat="44.22396" lon="2.96145">
        <ele>844</ele>
        <time>2019-10-11T14:32:22.000Z</time>
      </trkpt>
      <trkpt lat="44.22394" lon="2.96146">
        <ele>844</ele>
        <time>2019-10-11T14:32:23.000Z</time>
      </trkpt>
      <trkpt lat="44.22393" lon="2.96147">
        <ele>844</ele>
        <time>2019-10-11T14:32:24.000Z</time>
      </trkpt>
      <trkpt lat="44.22391" lon="2.96148">
        <ele>844</ele>
        <time>2019-10-11T14:32:25.000Z</time>
      </trkpt>
      <trkpt lat="44.2239" lon="2.9615">
        <ele>844</ele>
        <time>2019-10-11T14:32:26.000Z</time>
      </trkpt>
      <trkpt lat="44.22389" lon="2.96151">
        <ele>844</ele>
        <time>2019-10-11T14:32:27.000Z</time>
      </trkpt>
      <trkpt lat="44.22389" lon="2.96152">
        <ele>844</ele>
        <time>2019-10-11T14:32:28.000Z</time>
      </trkpt>
      <trkpt lat="44.22388" lon="2.96153">
        <ele>844</ele>
        <time>2019-10-11T14:32:29.000Z</time>
      </trkpt>
      <trkpt lat="44.22387" lon="2.96155">
        <ele>844</ele>
        <time>2019-10-11T14:32:30.000Z</time>
      </trkpt>
      <trkpt lat="44.22387" lon="2.96156">
        <ele>844</ele>
        <time>2019-10-11T14:32:31.000Z</time>
      </trkpt>
      <trkpt lat="44.22387" lon="2.96157">
        <ele>844</ele>
        <time>2019-10-11T14:32:32.000Z</time>
      </trkpt>
      <trkpt lat="44.22387" lon="2.96158">
        <ele>844</ele>
        <time>2019-10-11T14:32:33.000Z</time>
      </trkpt>
      <trkpt lat="44.22387" lon="2.96159">
        <ele>844</ele>
        <time>2019-10-11T14:32:34.000Z</time>
      </trkpt>
      <trkpt lat="44.22387" lon="2.96159">
        <ele>844</ele>
        <time>2019-10-11T14:32:35.000Z</time>
      </trkpt>
      <trkpt lat="44.22387" lon="2.96159">
        <ele>844</ele>
        <time>2019-10-11T14:32:36.000Z</time>
      </trkpt>
      <trkpt lat="44.22387" lon="2.96159">
        <ele>845</ele>
        <time>2019-10-11T14:32:37.000Z</time>
      </trkpt>
      <trkpt lat="44.22387" lon="2.96159">
        <ele>845</ele>
        <time>2019-10-11T14:32:38.000Z</time>
      </trkpt>
      <trkpt lat="44.22386" lon="2.96159">
        <ele>845</ele>
        <time>2019-10-11T14:32:39.000Z</time>
      </trkpt>
      <trkpt lat="44.22386" lon="2.9616">
        <ele>844</ele>
        <time>2019-10-11T14:32:40.000Z</time>
      </trkpt>
      <trkpt lat="44.22386" lon="2.96159">
        <ele>844</ele>
        <time>2019-10-11T14:32:41.000Z</time>
      </trkpt>
      <trkpt lat="44.22386" lon="2.96159">
        <ele>844</ele>
        <time>2019-10-11T14:32:42.000Z</time>
      </trkpt>
      <trkpt lat="44.22386" lon="2.9616">
        <ele>844</ele>
        <time>2019-10-11T14:32:43.000Z</time>
      </trkpt>
      <trkpt lat="44.22386" lon="2.9616">
        <ele>844</ele>
        <time>2019-10-11T14:32:44.000Z</time>
      </trkpt>
      <trkpt lat="44.22386" lon="2.9616">
        <ele>845</ele>
        <time>2019-10-11T14:32:45.000Z</time>
      </trkpt>
      <trkpt lat="44.22386" lon="2.9616">
        <ele>845</ele>
        <time>2019-10-11T14:32:46.000Z</time>
      </trkpt>
      <trkpt lat="44.22387" lon="2.9616">
        <ele>845</ele>
        <time>2019-10-11T14:32:47.000Z</time>
      </trkpt>
      <trkpt lat="44.22387" lon="2.9616">
        <ele>845</ele>
        <time>2019-10-11T14:32:48.000Z</time>
      </trkpt>
      <trkpt lat="44.22387" lon="2.9616">
        <ele>845</ele>
        <time>2019-10-11T14:32:49.000Z</time>
      </trkpt>
      <trkpt lat="44.22386" lon="2.96161">
        <ele>845</ele>
        <time>2019-10-11T14:32:50.000Z</time>
      </trkpt>
      <trkpt lat="44.22386" lon="2.96162">
        <ele>845</ele>
        <time>2019-10-11T14:32:51.000Z</time>
      </trkpt>
      <trkpt lat="44.22385" lon="2.96163">
        <ele>845</ele>
        <time>2019-10-11T14:32:52.000Z</time>
      </trkpt>
      <trkpt lat="44.22385" lon="2.96165">
        <ele>845</ele>
        <time>2019-10-11T14:32:53.000Z</time>
      </trkpt>
      <trkpt lat="44.22385" lon="2.96167">
        <ele>845</ele>
        <time>2019-10-11T14:32:54.000Z</time>
      </trkpt>
      <trkpt lat="44.22385" lon="2.96168">
        <ele>845</ele>
        <time>2019-10-11T14:32:55.000Z</time>
      </trkpt>
      <trkpt lat="44.22385" lon="2.9617">
        <ele>845</ele>
        <time>2019-10-11T14:32:56.000Z</time>
      </trkpt>
      <trkpt lat="44.22385" lon="2.96171">
        <ele>845</ele>
        <time>2019-10-11T14:32:57.000Z</time>
      </trkpt>
      <trkpt lat="44.22385" lon="2.96172">
        <ele>845</ele>
        <time>2019-10-11T14:32:58.000Z</time>
      </trkpt>
      <trkpt lat="44.22384" lon="2.96173">
        <ele>845</ele>
        <time>2019-10-11T14:32:59.000Z</time>
      </trkpt>
      <trkpt lat="44.22384" lon="2.96174">
        <ele>845</ele>
        <time>2019-10-11T14:33:00.000Z</time>
      </trkpt>
      <trkpt lat="44.22384" lon="2.96174">
        <ele>845</ele>
        <time>2019-10-11T14:33:01.000Z</time>
      </trkpt>
      <trkpt lat="44.22384" lon="2.96175">
        <ele>845</ele>
        <time>2019-10-11T14:33:02.000Z</time>
      </trkpt>
      <trkpt lat="44.22384" lon="2.96174">
        <ele>845</ele>
        <time>2019-10-11T14:33:03.000Z</time>
      </trkpt>
      <trkpt lat="44.22384" lon="2.96174">
        <ele>845</ele>
        <time>2019-10-11T14:33:04.000Z</time>
      </trkpt>
      <trkpt lat="44.22384" lon="2.96174">
        <ele>845</ele>
        <time>2019-10-11T14:33:05.000Z</time>
      </trkpt>
      <trkpt lat="44.22384" lon="2.96174">
        <ele>845</ele>
        <time>2019-10-11T14:33:06.000Z</time>
      </trkpt>
      <trkpt lat="44.22384" lon="2.96173">
        <ele>845</ele>
        <time>2019-10-11T14:33:07.000Z</time>
      </trkpt>
      <trkpt lat="44.22384" lon="2.96173">
        <ele>845</ele>
        <time>2019-10-11T14:33:08.000Z</time>
      </trkpt>
      <trkpt lat="44.22384" lon="2.96173">
        <ele>845</ele>
        <time>2019-10-11T14:33:09.000Z</time>
      </trkpt>
      <trkpt lat="44.22383" lon="2.96173">
        <ele>845</ele>
        <time>2019-10-11T14:33:10.000Z</time>
      </trkpt>
      <trkpt lat="44.22383" lon="2.96173">
        <ele>845</ele>
        <time>2019-10-11T14:33:11.000Z</time>
      </trkpt>
      <trkpt lat="44.22383" lon="2.96173">
        <ele>845</ele>
        <time>2019-10-11T14:33:12.000Z</time>
      </trkpt>
      <trkpt lat="44.22383" lon="2.96174">
        <ele>845</ele>
        <time>2019-10-11T14:33:13.000Z</time>
      </trkpt>
      <trkpt lat="44.22383" lon="2.96174">
        <ele>845</ele>
        <time>2019-10-11T14:33:14.000Z</time>
      </trkpt>
      <trkpt lat="44.22383" lon="2.96174">
        <ele>845</ele>
        <time>2019-10-11T14:33:15.000Z</time>
      </trkpt>
      <trkpt lat="44.22383" lon="2.96174">
        <ele>845</ele>
        <time>2019-10-11T14:33:16.000Z</time>
      </trkpt>
      <trkpt lat="44.22383" lon="2.96175">
        <ele>845</ele>
        <time>2019-10-11T14:33:17.000Z</time>
      </trkpt>
      <trkpt lat="44.22382" lon="2.96176">
        <ele>845</ele>
        <time>2019-10-11T14:33:18.000Z</time>
      </trkpt>
      <trkpt lat="44.22382" lon="2.96176">
        <ele>845</ele>
        <time>2019-10-11T14:33:19.000Z</time>
      </trkpt>
      <trkpt lat="44.22381" lon="2.96175">
        <ele>845</ele>
        <time>2019-10-11T14:33:20.000Z</time>
      </trkpt>
      <trkpt lat="44.22381" lon="2.96175">
        <ele>845</ele>
        <time>2019-10-11T14:33:21.000Z</time>
      </trkpt>
    </trkseg>
  </trk>
</gpx>